<?xml version="1.0" encoding="UTF-8" standalone="no" ?>
<gpx xmlns="http://www.topografix.com/GPX/1/1" xmlns:xsi="http://www.w3.org/2001/XMLSchema-instance" xsi:schemaLocation="http://www.topografix.com/GPX/1/1 http://www.topografix.com/GPX/1/1/gpx.xsd" version="1.1" creator="VisuGPX - https://www.visugpx.com">
  <metadata>
    <name>Tour des Vosges</name>
  </metadata>
  <trk>
    <name><![CDATA[11912732-Tour des Vosges]]></name>
    <trkseg>
      <trkpt lat="48.50832" lon="6.13859">
        <ele>263</ele>
        <time>2020-09-02T08:55:42Z</time>
      </trkpt>
      <trkpt lat="48.50883" lon="6.14032">
        <ele>261</ele>
        <time>2020-09-02T08:56:04Z</time>
      </trkpt>
      <trkpt lat="48.50754" lon="6.14079">
        <ele>263</ele>
        <time>2020-09-02T08:56:28Z</time>
      </trkpt>
      <trkpt lat="48.50641" lon="6.13941">
        <ele>262</ele>
        <time>2020-09-02T08:56:54Z</time>
      </trkpt>
      <trkpt lat="48.50421" lon="6.14109">
        <ele>255</ele>
        <time>2020-09-02T08:57:38Z</time>
      </trkpt>
      <trkpt lat="48.5049" lon="6.14271">
        <ele>255</ele>
        <time>2020-09-02T08:58:00Z</time>
      </trkpt>
      <trkpt lat="48.50207" lon="6.14908">
        <ele>267</ele>
        <time>2020-09-02T08:59:31Z</time>
      </trkpt>
      <trkpt lat="48.48969" lon="6.14463">
        <ele>276</ele>
        <time>2020-09-02T09:03:17Z</time>
      </trkpt>
      <trkpt lat="48.48692" lon="6.15576">
        <ele>285</ele>
        <time>2020-09-02T09:05:37Z</time>
      </trkpt>
      <trkpt lat="48.4805" lon="6.1609">
        <ele>243</ele>
        <time>2020-09-02T09:07:47Z</time>
      </trkpt>
      <trkpt lat="48.47661" lon="6.16612">
        <ele>239</ele>
        <time>2020-09-02T09:09:19Z</time>
      </trkpt>
      <trkpt lat="48.47" lon="6.1675">
        <ele>238</ele>
        <time>2020-09-02T09:11:18Z</time>
      </trkpt>
      <trkpt lat="48.46617" lon="6.17848">
        <ele>240</ele>
        <time>2020-09-02T09:13:44Z</time>
      </trkpt>
      <trkpt lat="48.46787" lon="6.18232">
        <ele>251</ele>
        <time>2020-09-02T09:14:39Z</time>
      </trkpt>
      <trkpt lat="48.46912" lon="6.1946">
        <ele>273</ele>
        <time>2020-09-02T09:17:06Z</time>
      </trkpt>
      <trkpt lat="48.4678" lon="6.20304">
        <ele>279</ele>
        <time>2020-09-02T09:18:48Z</time>
      </trkpt>
      <trkpt lat="48.46931" lon="6.20565">
        <ele>285</ele>
        <time>2020-09-02T09:19:29Z</time>
      </trkpt>
      <trkpt lat="48.46757" lon="6.20996">
        <ele>296</ele>
        <time>2020-09-02T09:20:28Z</time>
      </trkpt>
      <trkpt lat="48.46939" lon="6.2604">
        <ele>324</ele>
        <time>2020-09-02T09:30:24Z</time>
      </trkpt>
      <trkpt lat="48.47141" lon="6.26823">
        <ele>310</ele>
        <time>2020-09-02T09:32:03Z</time>
      </trkpt>
      <trkpt lat="48.47115" lon="6.27729">
        <ele>283</ele>
        <time>2020-09-02T09:33:50Z</time>
      </trkpt>
      <trkpt lat="48.47354" lon="6.28811">
        <ele>249</ele>
        <time>2020-09-02T09:36:05Z</time>
      </trkpt>
      <trkpt lat="48.47467" lon="6.29778">
        <ele>246</ele>
        <time>2020-09-02T09:38:01Z</time>
      </trkpt>
      <trkpt lat="48.46689" lon="6.29132">
        <ele>251</ele>
        <time>2020-09-02T09:40:39Z</time>
      </trkpt>
      <trkpt lat="48.46658" lon="6.29112">
        <ele>250</ele>
        <time>2020-09-02T09:40:45Z</time>
      </trkpt>
      <trkpt lat="48.46625" lon="6.29103">
        <ele>249</ele>
        <time>2020-09-02T09:40:51Z</time>
      </trkpt>
      <trkpt lat="48.46532" lon="6.29101">
        <ele>248</ele>
        <time>2020-09-02T09:41:07Z</time>
      </trkpt>
      <trkpt lat="48.46399" lon="6.29093">
        <ele>247</ele>
        <time>2020-09-02T09:41:31Z</time>
      </trkpt>
      <trkpt lat="48.46383" lon="6.29096">
        <ele>247</ele>
        <time>2020-09-02T09:41:34Z</time>
      </trkpt>
      <trkpt lat="48.46243" lon="6.29081">
        <ele>248</ele>
        <time>2020-09-02T09:41:59Z</time>
      </trkpt>
      <trkpt lat="48.45774" lon="6.29044">
        <ele>249</ele>
        <time>2020-09-02T09:43:22Z</time>
      </trkpt>
      <trkpt lat="48.45007" lon="6.28978">
        <ele>258</ele>
        <time>2020-09-02T09:45:39Z</time>
      </trkpt>
      <trkpt lat="48.44946" lon="6.28971">
        <ele>257</ele>
        <time>2020-09-02T09:45:50Z</time>
      </trkpt>
      <trkpt lat="48.44919" lon="6.28961">
        <ele>256</ele>
        <time>2020-09-02T09:45:55Z</time>
      </trkpt>
      <trkpt lat="48.44887" lon="6.28937">
        <ele>256</ele>
        <time>2020-09-02T09:46:01Z</time>
      </trkpt>
      <trkpt lat="48.44781" lon="6.28846">
        <ele>260</ele>
        <time>2020-09-02T09:46:23Z</time>
      </trkpt>
      <trkpt lat="48.44778" lon="6.28848">
        <ele>259</ele>
        <time>2020-09-02T09:46:23Z</time>
      </trkpt>
      <trkpt lat="48.44766" lon="6.28847">
        <ele>258</ele>
        <time>2020-09-02T09:46:26Z</time>
      </trkpt>
      <trkpt lat="48.4474" lon="6.28833">
        <ele>256</ele>
        <time>2020-09-02T09:46:30Z</time>
      </trkpt>
      <trkpt lat="48.44729" lon="6.28858">
        <ele>255</ele>
        <time>2020-09-02T09:46:34Z</time>
      </trkpt>
      <trkpt lat="48.44702" lon="6.2883">
        <ele>255</ele>
        <time>2020-09-02T09:46:40Z</time>
      </trkpt>
      <trkpt lat="48.44684" lon="6.28823">
        <ele>254</ele>
        <time>2020-09-02T09:46:43Z</time>
      </trkpt>
      <trkpt lat="48.44597" lon="6.28754">
        <ele>256</ele>
        <time>2020-09-02T09:47:01Z</time>
      </trkpt>
      <trkpt lat="48.44539" lon="6.28699">
        <ele>256</ele>
        <time>2020-09-02T09:47:13Z</time>
      </trkpt>
      <trkpt lat="48.44403" lon="6.28475">
        <ele>259</ele>
        <time>2020-09-02T09:47:49Z</time>
      </trkpt>
      <trkpt lat="48.44389" lon="6.28459">
        <ele>259</ele>
        <time>2020-09-02T09:47:52Z</time>
      </trkpt>
      <trkpt lat="48.44347" lon="6.28426">
        <ele>258</ele>
        <time>2020-09-02T09:48:00Z</time>
      </trkpt>
      <trkpt lat="48.44132" lon="6.28274">
        <ele>256</ele>
        <time>2020-09-02T09:48:42Z</time>
      </trkpt>
      <trkpt lat="48.43978" lon="6.28157">
        <ele>253</ele>
        <time>2020-09-02T09:49:13Z</time>
      </trkpt>
      <trkpt lat="48.43932" lon="6.28126">
        <ele>252</ele>
        <time>2020-09-02T09:49:22Z</time>
      </trkpt>
      <trkpt lat="48.43911" lon="6.28108">
        <ele>253</ele>
        <time>2020-09-02T09:49:26Z</time>
      </trkpt>
      <trkpt lat="48.43891" lon="6.28084">
        <ele>253</ele>
        <time>2020-09-02T09:49:31Z</time>
      </trkpt>
      <trkpt lat="48.43882" lon="6.28077">
        <ele>253</ele>
        <time>2020-09-02T09:49:33Z</time>
      </trkpt>
      <trkpt lat="48.43873" lon="6.28075">
        <ele>254</ele>
        <time>2020-09-02T09:49:34Z</time>
      </trkpt>
      <trkpt lat="48.43841" lon="6.28058">
        <ele>254</ele>
        <time>2020-09-02T09:49:40Z</time>
      </trkpt>
      <trkpt lat="48.43543" lon="6.27848">
        <ele>260</ele>
        <time>2020-09-02T09:50:39Z</time>
      </trkpt>
      <trkpt lat="48.43442" lon="6.27742">
        <ele>260</ele>
        <time>2020-09-02T09:51:01Z</time>
      </trkpt>
      <trkpt lat="48.43335" lon="6.27612">
        <ele>260</ele>
        <time>2020-09-02T09:51:25Z</time>
      </trkpt>
      <trkpt lat="48.43308" lon="6.27574">
        <ele>260</ele>
        <time>2020-09-02T09:51:32Z</time>
      </trkpt>
      <trkpt lat="48.43288" lon="6.27538">
        <ele>260</ele>
        <time>2020-09-02T09:51:37Z</time>
      </trkpt>
      <trkpt lat="48.4319" lon="6.27321">
        <ele>260</ele>
        <time>2020-09-02T09:52:08Z</time>
      </trkpt>
      <trkpt lat="48.43031" lon="6.26916">
        <ele>257</ele>
        <time>2020-09-02T09:53:04Z</time>
      </trkpt>
      <trkpt lat="48.43015" lon="6.26861">
        <ele>258</ele>
        <time>2020-09-02T09:53:11Z</time>
      </trkpt>
      <trkpt lat="48.43" lon="6.26824">
        <ele>257</ele>
        <time>2020-09-02T09:53:16Z</time>
      </trkpt>
      <trkpt lat="48.42984" lon="6.26794">
        <ele>258</ele>
        <time>2020-09-02T09:53:21Z</time>
      </trkpt>
      <trkpt lat="48.42965" lon="6.26766">
        <ele>259</ele>
        <time>2020-09-02T09:53:25Z</time>
      </trkpt>
      <trkpt lat="48.42935" lon="6.2673">
        <ele>260</ele>
        <time>2020-09-02T09:53:32Z</time>
      </trkpt>
      <trkpt lat="48.42898" lon="6.26693">
        <ele>260</ele>
        <time>2020-09-02T09:53:40Z</time>
      </trkpt>
      <trkpt lat="48.42645" lon="6.26477">
        <ele>261</ele>
        <time>2020-09-02T09:54:32Z</time>
      </trkpt>
      <trkpt lat="48.42509" lon="6.26372">
        <ele>258</ele>
        <time>2020-09-02T09:54:59Z</time>
      </trkpt>
      <trkpt lat="48.42461" lon="6.26341">
        <ele>258</ele>
        <time>2020-09-02T09:55:08Z</time>
      </trkpt>
      <trkpt lat="48.42102" lon="6.26143">
        <ele>257</ele>
        <time>2020-09-02T09:56:16Z</time>
      </trkpt>
      <trkpt lat="48.42059" lon="6.26133">
        <ele>258</ele>
        <time>2020-09-02T09:56:24Z</time>
      </trkpt>
      <trkpt lat="48.42008" lon="6.2611">
        <ele>260</ele>
        <time>2020-09-02T09:56:34Z</time>
      </trkpt>
      <trkpt lat="48.41714" lon="6.25942">
        <ele>259</ele>
        <time>2020-09-02T09:57:30Z</time>
      </trkpt>
      <trkpt lat="48.41571" lon="6.25873">
        <ele>259</ele>
        <time>2020-09-02T09:57:56Z</time>
      </trkpt>
      <trkpt lat="48.41454" lon="6.25828">
        <ele>259</ele>
        <time>2020-09-02T09:58:18Z</time>
      </trkpt>
      <trkpt lat="48.41422" lon="6.25822">
        <ele>259</ele>
        <time>2020-09-02T09:58:23Z</time>
      </trkpt>
      <trkpt lat="48.41403" lon="6.25827">
        <ele>260</ele>
        <time>2020-09-02T09:58:27Z</time>
      </trkpt>
      <trkpt lat="48.4139" lon="6.25841">
        <ele>260</ele>
        <time>2020-09-02T09:58:30Z</time>
      </trkpt>
      <trkpt lat="48.41375" lon="6.2588">
        <ele>259</ele>
        <time>2020-09-02T09:58:35Z</time>
      </trkpt>
      <trkpt lat="48.41363" lon="6.2589">
        <ele>259</ele>
        <time>2020-09-02T09:58:38Z</time>
      </trkpt>
      <trkpt lat="48.4135" lon="6.25893">
        <ele>259</ele>
        <time>2020-09-02T09:58:40Z</time>
      </trkpt>
      <trkpt lat="48.41338" lon="6.2589">
        <ele>259</ele>
        <time>2020-09-02T09:58:42Z</time>
      </trkpt>
      <trkpt lat="48.41334" lon="6.25881">
        <ele>259</ele>
        <time>2020-09-02T09:58:43Z</time>
      </trkpt>
      <trkpt lat="48.41332" lon="6.25866">
        <ele>259</ele>
        <time>2020-09-02T09:58:45Z</time>
      </trkpt>
      <trkpt lat="48.41346" lon="6.25838">
        <ele>260</ele>
        <time>2020-09-02T09:58:49Z</time>
      </trkpt>
      <trkpt lat="48.41352" lon="6.25812">
        <ele>259</ele>
        <time>2020-09-02T09:58:53Z</time>
      </trkpt>
      <trkpt lat="48.41363" lon="6.2573">
        <ele>257</ele>
        <time>2020-09-02T09:59:02Z</time>
      </trkpt>
      <trkpt lat="48.41374" lon="6.25681">
        <ele>256</ele>
        <time>2020-09-02T09:59:09Z</time>
      </trkpt>
      <trkpt lat="48.41407" lon="6.25699">
        <ele>256</ele>
        <time>2020-09-02T09:59:15Z</time>
      </trkpt>
      <trkpt lat="48.41133" lon="6.25548">
        <ele>258</ele>
        <time>2020-09-02T10:00:07Z</time>
      </trkpt>
      <trkpt lat="48.41059" lon="6.25505">
        <ele>258</ele>
        <time>2020-09-02T10:00:21Z</time>
      </trkpt>
      <trkpt lat="48.4104" lon="6.2549">
        <ele>258</ele>
        <time>2020-09-02T10:00:25Z</time>
      </trkpt>
      <trkpt lat="48.40982" lon="6.2546">
        <ele>262</ele>
        <time>2020-09-02T10:00:35Z</time>
      </trkpt>
      <trkpt lat="48.40943" lon="6.25451">
        <ele>266</ele>
        <time>2020-09-02T10:00:43Z</time>
      </trkpt>
      <trkpt lat="48.40895" lon="6.25449">
        <ele>271</ele>
        <time>2020-09-02T10:00:51Z</time>
      </trkpt>
      <trkpt lat="48.40869" lon="6.25454">
        <ele>272</ele>
        <time>2020-09-02T10:00:56Z</time>
      </trkpt>
      <trkpt lat="48.4082" lon="6.2547">
        <ele>273</ele>
        <time>2020-09-02T10:01:05Z</time>
      </trkpt>
      <trkpt lat="48.40701" lon="6.25516">
        <ele>276</ele>
        <time>2020-09-02T10:01:27Z</time>
      </trkpt>
      <trkpt lat="48.40679" lon="6.25528">
        <ele>276</ele>
        <time>2020-09-02T10:01:31Z</time>
      </trkpt>
      <trkpt lat="48.40669" lon="6.25538">
        <ele>275</ele>
        <time>2020-09-02T10:01:33Z</time>
      </trkpt>
      <trkpt lat="48.40612" lon="6.25557">
        <ele>272</ele>
        <time>2020-09-02T10:01:43Z</time>
      </trkpt>
      <trkpt lat="48.40584" lon="6.25654">
        <ele>260</ele>
        <time>2020-09-02T10:01:56Z</time>
      </trkpt>
      <trkpt lat="48.40584" lon="6.25667">
        <ele>259</ele>
        <time>2020-09-02T10:01:57Z</time>
      </trkpt>
      <trkpt lat="48.40516" lon="6.2566">
        <ele>258</ele>
        <time>2020-09-02T10:02:09Z</time>
      </trkpt>
      <trkpt lat="48.40447" lon="6.25657">
        <ele>258</ele>
        <time>2020-09-02T10:02:22Z</time>
      </trkpt>
      <trkpt lat="48.40397" lon="6.25659">
        <ele>258</ele>
        <time>2020-09-02T10:02:31Z</time>
      </trkpt>
      <trkpt lat="48.40318" lon="6.25675">
        <ele>259</ele>
        <time>2020-09-02T10:02:45Z</time>
      </trkpt>
      <trkpt lat="48.40252" lon="6.25695">
        <ele>258</ele>
        <time>2020-09-02T10:02:57Z</time>
      </trkpt>
      <trkpt lat="48.40177" lon="6.25722">
        <ele>258</ele>
        <time>2020-09-02T10:03:10Z</time>
      </trkpt>
      <trkpt lat="48.40114" lon="6.25754">
        <ele>258</ele>
        <time>2020-09-02T10:03:22Z</time>
      </trkpt>
      <trkpt lat="48.40086" lon="6.25772">
        <ele>257</ele>
        <time>2020-09-02T10:03:28Z</time>
      </trkpt>
      <trkpt lat="48.40007" lon="6.25813">
        <ele>257</ele>
        <time>2020-09-02T10:03:43Z</time>
      </trkpt>
      <trkpt lat="48.39962" lon="6.25834">
        <ele>258</ele>
        <time>2020-09-02T10:03:51Z</time>
      </trkpt>
      <trkpt lat="48.39917" lon="6.25859">
        <ele>258</ele>
        <time>2020-09-02T10:03:59Z</time>
      </trkpt>
      <trkpt lat="48.39867" lon="6.2588">
        <ele>258</ele>
        <time>2020-09-02T10:04:09Z</time>
      </trkpt>
      <trkpt lat="48.39785" lon="6.25925">
        <ele>258</ele>
        <time>2020-09-02T10:04:24Z</time>
      </trkpt>
      <trkpt lat="48.39649" lon="6.25993">
        <ele>259</ele>
        <time>2020-09-02T10:04:50Z</time>
      </trkpt>
      <trkpt lat="48.39635" lon="6.26005">
        <ele>259</ele>
        <time>2020-09-02T10:04:53Z</time>
      </trkpt>
      <trkpt lat="48.3962" lon="6.2601">
        <ele>259</ele>
        <time>2020-09-02T10:04:55Z</time>
      </trkpt>
      <trkpt lat="48.39414" lon="6.26117">
        <ele>259</ele>
        <time>2020-09-02T10:05:34Z</time>
      </trkpt>
      <trkpt lat="48.39374" lon="6.26132">
        <ele>260</ele>
        <time>2020-09-02T10:05:41Z</time>
      </trkpt>
      <trkpt lat="48.39366" lon="6.26137">
        <ele>260</ele>
        <time>2020-09-02T10:05:43Z</time>
      </trkpt>
      <trkpt lat="48.39364" lon="6.26126">
        <ele>260</ele>
        <time>2020-09-02T10:05:44Z</time>
      </trkpt>
      <trkpt lat="48.39336" lon="6.26137">
        <ele>260</ele>
        <time>2020-09-02T10:05:49Z</time>
      </trkpt>
      <trkpt lat="48.39317" lon="6.26154">
        <ele>260</ele>
        <time>2020-09-02T10:05:53Z</time>
      </trkpt>
      <trkpt lat="48.39229" lon="6.26205">
        <ele>260</ele>
        <time>2020-09-02T10:06:10Z</time>
      </trkpt>
      <trkpt lat="48.39064" lon="6.26307">
        <ele>260</ele>
        <time>2020-09-02T10:06:42Z</time>
      </trkpt>
      <trkpt lat="48.3902" lon="6.26344">
        <ele>260</ele>
        <time>2020-09-02T10:06:51Z</time>
      </trkpt>
      <trkpt lat="48.39018" lon="6.26349">
        <ele>260</ele>
        <time>2020-09-02T10:06:52Z</time>
      </trkpt>
      <trkpt lat="48.39014" lon="6.26349">
        <ele>260</ele>
        <time>2020-09-02T10:06:52Z</time>
      </trkpt>
      <trkpt lat="48.38947" lon="6.26394">
        <ele>260</ele>
        <time>2020-09-02T10:07:05Z</time>
      </trkpt>
      <trkpt lat="48.3886" lon="6.26458">
        <ele>261</ele>
        <time>2020-09-02T10:07:23Z</time>
      </trkpt>
      <trkpt lat="48.38838" lon="6.2648">
        <ele>260</ele>
        <time>2020-09-02T10:07:27Z</time>
      </trkpt>
      <trkpt lat="48.38723" lon="6.26557">
        <ele>258</ele>
        <time>2020-09-02T10:07:50Z</time>
      </trkpt>
      <trkpt lat="48.3863" lon="6.26625">
        <ele>259</ele>
        <time>2020-09-02T10:08:08Z</time>
      </trkpt>
      <trkpt lat="48.38606" lon="6.26653">
        <ele>258</ele>
        <time>2020-09-02T10:08:13Z</time>
      </trkpt>
      <trkpt lat="48.38586" lon="6.26655">
        <ele>259</ele>
        <time>2020-09-02T10:08:17Z</time>
      </trkpt>
      <trkpt lat="48.38557" lon="6.26679">
        <ele>258</ele>
        <time>2020-09-02T10:08:23Z</time>
      </trkpt>
      <trkpt lat="48.38271" lon="6.26882">
        <ele>262</ele>
        <time>2020-09-02T10:09:19Z</time>
      </trkpt>
      <trkpt lat="48.3821" lon="6.26919">
        <ele>263</ele>
        <time>2020-09-02T10:09:31Z</time>
      </trkpt>
      <trkpt lat="48.38203" lon="6.26921">
        <ele>263</ele>
        <time>2020-09-02T10:09:32Z</time>
      </trkpt>
      <trkpt lat="48.38202" lon="6.26927">
        <ele>263</ele>
        <time>2020-09-02T10:09:33Z</time>
      </trkpt>
      <trkpt lat="48.38173" lon="6.2695">
        <ele>263</ele>
        <time>2020-09-02T10:09:39Z</time>
      </trkpt>
      <trkpt lat="48.38167" lon="6.26959">
        <ele>264</ele>
        <time>2020-09-02T10:09:40Z</time>
      </trkpt>
      <trkpt lat="48.3815" lon="6.26968">
        <ele>264</ele>
        <time>2020-09-02T10:09:43Z</time>
      </trkpt>
      <trkpt lat="48.38061" lon="6.27031">
        <ele>264</ele>
        <time>2020-09-02T10:10:01Z</time>
      </trkpt>
      <trkpt lat="48.37875" lon="6.27167">
        <ele>263</ele>
        <time>2020-09-02T10:10:38Z</time>
      </trkpt>
      <trkpt lat="48.37804" lon="6.27234">
        <ele>263</ele>
        <time>2020-09-02T10:10:53Z</time>
      </trkpt>
      <trkpt lat="48.37751" lon="6.273">
        <ele>266</ele>
        <time>2020-09-02T10:11:05Z</time>
      </trkpt>
      <trkpt lat="48.37726" lon="6.27342">
        <ele>266</ele>
        <time>2020-09-02T10:11:11Z</time>
      </trkpt>
      <trkpt lat="48.37699" lon="6.27395">
        <ele>265</ele>
        <time>2020-09-02T10:11:19Z</time>
      </trkpt>
      <trkpt lat="48.37678" lon="6.27445">
        <ele>265</ele>
        <time>2020-09-02T10:11:26Z</time>
      </trkpt>
      <trkpt lat="48.37645" lon="6.27551">
        <ele>265</ele>
        <time>2020-09-02T10:11:40Z</time>
      </trkpt>
      <trkpt lat="48.37633" lon="6.27607">
        <ele>266</ele>
        <time>2020-09-02T10:11:47Z</time>
      </trkpt>
      <trkpt lat="48.37624" lon="6.27665">
        <ele>266</ele>
        <time>2020-09-02T10:11:54Z</time>
      </trkpt>
      <trkpt lat="48.3762" lon="6.2772">
        <ele>265</ele>
        <time>2020-09-02T10:12:01Z</time>
      </trkpt>
      <trkpt lat="48.37618" lon="6.27786">
        <ele>265</ele>
        <time>2020-09-02T10:12:09Z</time>
      </trkpt>
      <trkpt lat="48.3762" lon="6.27853">
        <ele>264</ele>
        <time>2020-09-02T10:12:16Z</time>
      </trkpt>
      <trkpt lat="48.37639" lon="6.28021">
        <ele>263</ele>
        <time>2020-09-02T10:12:37Z</time>
      </trkpt>
      <trkpt lat="48.37641" lon="6.28069">
        <ele>264</ele>
        <time>2020-09-02T10:12:42Z</time>
      </trkpt>
      <trkpt lat="48.37684" lon="6.28507">
        <ele>265</ele>
        <time>2020-09-02T10:13:35Z</time>
      </trkpt>
      <trkpt lat="48.37697" lon="6.28681">
        <ele>265</ele>
        <time>2020-09-02T10:13:55Z</time>
      </trkpt>
      <trkpt lat="48.37687" lon="6.28684">
        <ele>265</ele>
        <time>2020-09-02T10:13:57Z</time>
      </trkpt>
      <trkpt lat="48.37694" lon="6.28755">
        <ele>266</ele>
        <time>2020-09-02T10:14:06Z</time>
      </trkpt>
      <trkpt lat="48.37704" lon="6.28823">
        <ele>266</ele>
        <time>2020-09-02T10:14:14Z</time>
      </trkpt>
      <trkpt lat="48.37705" lon="6.28869">
        <ele>266</ele>
        <time>2020-09-02T10:14:19Z</time>
      </trkpt>
      <trkpt lat="48.37701" lon="6.28914">
        <ele>266</ele>
        <time>2020-09-02T10:14:25Z</time>
      </trkpt>
      <trkpt lat="48.37693" lon="6.28959">
        <ele>267</ele>
        <time>2020-09-02T10:14:30Z</time>
      </trkpt>
      <trkpt lat="48.3768" lon="6.29006">
        <ele>267</ele>
        <time>2020-09-02T10:14:36Z</time>
      </trkpt>
      <trkpt lat="48.37663" lon="6.2905">
        <ele>267</ele>
        <time>2020-09-02T10:14:42Z</time>
      </trkpt>
      <trkpt lat="48.37542" lon="6.29324">
        <ele>267</ele>
        <time>2020-09-02T10:15:21Z</time>
      </trkpt>
      <trkpt lat="48.37497" lon="6.29412">
        <ele>267</ele>
        <time>2020-09-02T10:15:34Z</time>
      </trkpt>
      <trkpt lat="48.3737" lon="6.29617">
        <ele>269</ele>
        <time>2020-09-02T10:16:07Z</time>
      </trkpt>
      <trkpt lat="48.37352" lon="6.2964">
        <ele>270</ele>
        <time>2020-09-02T10:16:12Z</time>
      </trkpt>
      <trkpt lat="48.37324" lon="6.29666">
        <ele>270</ele>
        <time>2020-09-02T10:16:17Z</time>
      </trkpt>
      <trkpt lat="48.37297" lon="6.29684">
        <ele>269</ele>
        <time>2020-09-02T10:16:23Z</time>
      </trkpt>
      <trkpt lat="48.36798" lon="6.29927">
        <ele>272</ele>
        <time>2020-09-02T10:17:56Z</time>
      </trkpt>
      <trkpt lat="48.36788" lon="6.29926">
        <ele>272</ele>
        <time>2020-09-02T10:17:58Z</time>
      </trkpt>
      <trkpt lat="48.36773" lon="6.29929">
        <ele>272</ele>
        <time>2020-09-02T10:18:00Z</time>
      </trkpt>
      <trkpt lat="48.36714" lon="6.29965">
        <ele>272</ele>
        <time>2020-09-02T10:18:12Z</time>
      </trkpt>
      <trkpt lat="48.3667" lon="6.29987">
        <ele>273</ele>
        <time>2020-09-02T10:18:20Z</time>
      </trkpt>
      <trkpt lat="48.36611" lon="6.30025">
        <ele>274</ele>
        <time>2020-09-02T10:18:31Z</time>
      </trkpt>
      <trkpt lat="48.36554" lon="6.30072">
        <ele>274</ele>
        <time>2020-09-02T10:18:43Z</time>
      </trkpt>
      <trkpt lat="48.36509" lon="6.30117">
        <ele>274</ele>
        <time>2020-09-02T10:18:53Z</time>
      </trkpt>
      <trkpt lat="48.36461" lon="6.30175">
        <ele>276</ele>
        <time>2020-09-02T10:19:04Z</time>
      </trkpt>
      <trkpt lat="48.36336" lon="6.30343">
        <ele>278</ele>
        <time>2020-09-02T10:19:33Z</time>
      </trkpt>
      <trkpt lat="48.36262" lon="6.30448">
        <ele>279</ele>
        <time>2020-09-02T10:19:51Z</time>
      </trkpt>
      <trkpt lat="48.36126" lon="6.30624">
        <ele>276</ele>
        <time>2020-09-02T10:20:23Z</time>
      </trkpt>
      <trkpt lat="48.36076" lon="6.30692">
        <ele>274</ele>
        <time>2020-09-02T10:20:35Z</time>
      </trkpt>
      <trkpt lat="48.3606" lon="6.30719">
        <ele>274</ele>
        <time>2020-09-02T10:20:40Z</time>
      </trkpt>
      <trkpt lat="48.35835" lon="6.31019">
        <ele>271</ele>
        <time>2020-09-02T10:21:33Z</time>
      </trkpt>
      <trkpt lat="48.35783" lon="6.31097">
        <ele>272</ele>
        <time>2020-09-02T10:21:46Z</time>
      </trkpt>
      <trkpt lat="48.35704" lon="6.31226">
        <ele>271</ele>
        <time>2020-09-02T10:22:07Z</time>
      </trkpt>
      <trkpt lat="48.35626" lon="6.31373">
        <ele>272</ele>
        <time>2020-09-02T10:22:29Z</time>
      </trkpt>
      <trkpt lat="48.35541" lon="6.31564">
        <ele>274</ele>
        <time>2020-09-02T10:22:56Z</time>
      </trkpt>
      <trkpt lat="48.35417" lon="6.31852">
        <ele>275</ele>
        <time>2020-09-02T10:23:37Z</time>
      </trkpt>
      <trkpt lat="48.35379" lon="6.3193">
        <ele>276</ele>
        <time>2020-09-02T10:23:48Z</time>
      </trkpt>
      <trkpt lat="48.35222" lon="6.32277">
        <ele>274</ele>
        <time>2020-09-02T10:24:38Z</time>
      </trkpt>
      <trkpt lat="48.35214" lon="6.32287">
        <ele>274</ele>
        <time>2020-09-02T10:24:40Z</time>
      </trkpt>
      <trkpt lat="48.352" lon="6.32316">
        <ele>275</ele>
        <time>2020-09-02T10:24:44Z</time>
      </trkpt>
      <trkpt lat="48.35191" lon="6.32349">
        <ele>275</ele>
        <time>2020-09-02T10:24:48Z</time>
      </trkpt>
      <trkpt lat="48.34951" lon="6.32897">
        <ele>274</ele>
        <time>2020-09-02T10:26:06Z</time>
      </trkpt>
      <trkpt lat="48.34832" lon="6.33161">
        <ele>275</ele>
        <time>2020-09-02T10:26:44Z</time>
      </trkpt>
      <trkpt lat="48.34814" lon="6.33189">
        <ele>275</ele>
        <time>2020-09-02T10:26:48Z</time>
      </trkpt>
      <trkpt lat="48.34784" lon="6.33225">
        <ele>275</ele>
        <time>2020-09-02T10:26:55Z</time>
      </trkpt>
      <trkpt lat="48.34397" lon="6.33509">
        <ele>275</ele>
        <time>2020-09-02T10:28:12Z</time>
      </trkpt>
      <trkpt lat="48.34313" lon="6.33556">
        <ele>275</ele>
        <time>2020-09-02T10:28:28Z</time>
      </trkpt>
      <trkpt lat="48.34303" lon="6.33571">
        <ele>275</ele>
        <time>2020-09-02T10:28:30Z</time>
      </trkpt>
      <trkpt lat="48.34046" lon="6.33766">
        <ele>277</ele>
        <time>2020-09-02T10:29:21Z</time>
      </trkpt>
      <trkpt lat="48.34042" lon="6.33777">
        <ele>277</ele>
        <time>2020-09-02T10:29:23Z</time>
      </trkpt>
      <trkpt lat="48.3403" lon="6.33848">
        <ele>277</ele>
        <time>2020-09-02T10:29:32Z</time>
      </trkpt>
      <trkpt lat="48.34024" lon="6.33865">
        <ele>277</ele>
        <time>2020-09-02T10:29:34Z</time>
      </trkpt>
      <trkpt lat="48.34014" lon="6.3388">
        <ele>276</ele>
        <time>2020-09-02T10:29:36Z</time>
      </trkpt>
      <trkpt lat="48.33932" lon="6.33934">
        <ele>277</ele>
        <time>2020-09-02T10:29:52Z</time>
      </trkpt>
      <trkpt lat="48.33927" lon="6.33935">
        <ele>277</ele>
        <time>2020-09-02T10:29:53Z</time>
      </trkpt>
      <trkpt lat="48.33928" lon="6.33943">
        <ele>277</ele>
        <time>2020-09-02T10:29:54Z</time>
      </trkpt>
      <trkpt lat="48.3391" lon="6.33963">
        <ele>277</ele>
        <time>2020-09-02T10:29:58Z</time>
      </trkpt>
      <trkpt lat="48.339" lon="6.33971">
        <ele>277</ele>
        <time>2020-09-02T10:30:00Z</time>
      </trkpt>
      <trkpt lat="48.33891" lon="6.33974">
        <ele>277</ele>
        <time>2020-09-02T10:30:02Z</time>
      </trkpt>
      <trkpt lat="48.33888" lon="6.33968">
        <ele>277</ele>
        <time>2020-09-02T10:30:03Z</time>
      </trkpt>
      <trkpt lat="48.33833" lon="6.34024">
        <ele>278</ele>
        <time>2020-09-02T10:30:14Z</time>
      </trkpt>
      <trkpt lat="48.33783" lon="6.34092">
        <ele>278</ele>
        <time>2020-09-02T10:30:26Z</time>
      </trkpt>
      <trkpt lat="48.33736" lon="6.34171">
        <ele>279</ele>
        <time>2020-09-02T10:30:39Z</time>
      </trkpt>
      <trkpt lat="48.33705" lon="6.34234">
        <ele>280</ele>
        <time>2020-09-02T10:30:48Z</time>
      </trkpt>
      <trkpt lat="48.33673" lon="6.3431">
        <ele>281</ele>
        <time>2020-09-02T10:30:59Z</time>
      </trkpt>
      <trkpt lat="48.33643" lon="6.34397">
        <ele>283</ele>
        <time>2020-09-02T10:31:10Z</time>
      </trkpt>
      <trkpt lat="48.33607" lon="6.34516">
        <ele>282</ele>
        <time>2020-09-02T10:31:26Z</time>
      </trkpt>
      <trkpt lat="48.33553" lon="6.34676">
        <ele>279</ele>
        <time>2020-09-02T10:31:47Z</time>
      </trkpt>
      <trkpt lat="48.33527" lon="6.34743">
        <ele>280</ele>
        <time>2020-09-02T10:31:56Z</time>
      </trkpt>
      <trkpt lat="48.33502" lon="6.34798">
        <ele>280</ele>
        <time>2020-09-02T10:32:04Z</time>
      </trkpt>
      <trkpt lat="48.33469" lon="6.34861">
        <ele>280</ele>
        <time>2020-09-02T10:32:14Z</time>
      </trkpt>
      <trkpt lat="48.33429" lon="6.34923">
        <ele>280</ele>
        <time>2020-09-02T10:32:24Z</time>
      </trkpt>
      <trkpt lat="48.33367" lon="6.35008">
        <ele>279</ele>
        <time>2020-09-02T10:32:39Z</time>
      </trkpt>
      <trkpt lat="48.33193" lon="6.35212">
        <ele>283</ele>
        <time>2020-09-02T10:33:18Z</time>
      </trkpt>
      <trkpt lat="48.33022" lon="6.35447">
        <ele>281</ele>
        <time>2020-09-02T10:33:59Z</time>
      </trkpt>
      <trkpt lat="48.32992" lon="6.35478">
        <ele>280</ele>
        <time>2020-09-02T10:34:06Z</time>
      </trkpt>
      <trkpt lat="48.32981" lon="6.35501">
        <ele>279</ele>
        <time>2020-09-02T10:34:09Z</time>
      </trkpt>
      <trkpt lat="48.32876" lon="6.35653">
        <ele>283</ele>
        <time>2020-09-02T10:34:35Z</time>
      </trkpt>
      <trkpt lat="48.32734" lon="6.35869">
        <ele>284</ele>
        <time>2020-09-02T10:35:11Z</time>
      </trkpt>
      <trkpt lat="48.32618" lon="6.36051">
        <ele>283</ele>
        <time>2020-09-02T10:35:41Z</time>
      </trkpt>
      <trkpt lat="48.32577" lon="6.3612">
        <ele>281</ele>
        <time>2020-09-02T10:35:52Z</time>
      </trkpt>
      <trkpt lat="48.32475" lon="6.36309">
        <ele>282</ele>
        <time>2020-09-02T10:36:21Z</time>
      </trkpt>
      <trkpt lat="48.32428" lon="6.3641">
        <ele>283</ele>
        <time>2020-09-02T10:36:35Z</time>
      </trkpt>
      <trkpt lat="48.32386" lon="6.36512">
        <ele>281</ele>
        <time>2020-09-02T10:36:49Z</time>
      </trkpt>
      <trkpt lat="48.32333" lon="6.36649">
        <ele>281</ele>
        <time>2020-09-02T10:37:08Z</time>
      </trkpt>
      <trkpt lat="48.32109" lon="6.37288">
        <ele>283</ele>
        <time>2020-09-02T10:38:34Z</time>
      </trkpt>
      <trkpt lat="48.32031" lon="6.37498">
        <ele>282</ele>
        <time>2020-09-02T10:39:02Z</time>
      </trkpt>
      <trkpt lat="48.3197" lon="6.37622">
        <ele>281</ele>
        <time>2020-09-02T10:39:20Z</time>
      </trkpt>
      <trkpt lat="48.31957" lon="6.3764">
        <ele>281</ele>
        <time>2020-09-02T10:39:23Z</time>
      </trkpt>
      <trkpt lat="48.31956" lon="6.37674">
        <ele>281</ele>
        <time>2020-09-02T10:39:27Z</time>
      </trkpt>
      <trkpt lat="48.31962" lon="6.37692">
        <ele>281</ele>
        <time>2020-09-02T10:39:30Z</time>
      </trkpt>
      <trkpt lat="48.31977" lon="6.37717">
        <ele>281</ele>
        <time>2020-09-02T10:39:34Z</time>
      </trkpt>
      <trkpt lat="48.31978" lon="6.37724">
        <ele>281</ele>
        <time>2020-09-02T10:39:35Z</time>
      </trkpt>
      <trkpt lat="48.31966" lon="6.37748">
        <ele>281</ele>
        <time>2020-09-02T10:39:38Z</time>
      </trkpt>
      <trkpt lat="48.31956" lon="6.37741">
        <ele>281</ele>
        <time>2020-09-02T10:39:40Z</time>
      </trkpt>
      <trkpt lat="48.3194" lon="6.3774">
        <ele>282</ele>
        <time>2020-09-02T10:39:43Z</time>
      </trkpt>
      <trkpt lat="48.31932" lon="6.37742">
        <ele>282</ele>
        <time>2020-09-02T10:39:44Z</time>
      </trkpt>
      <trkpt lat="48.31925" lon="6.37747">
        <ele>282</ele>
        <time>2020-09-02T10:39:46Z</time>
      </trkpt>
      <trkpt lat="48.31862" lon="6.37876">
        <ele>283</ele>
        <time>2020-09-02T10:40:05Z</time>
      </trkpt>
      <trkpt lat="48.31744" lon="6.38066">
        <ele>285</ele>
        <time>2020-09-02T10:40:36Z</time>
      </trkpt>
      <trkpt lat="48.31714" lon="6.3811">
        <ele>284</ele>
        <time>2020-09-02T10:40:43Z</time>
      </trkpt>
      <trkpt lat="48.31631" lon="6.38222">
        <ele>284</ele>
        <time>2020-09-02T10:41:03Z</time>
      </trkpt>
      <trkpt lat="48.31528" lon="6.38343">
        <ele>284</ele>
        <time>2020-09-02T10:41:26Z</time>
      </trkpt>
      <trkpt lat="48.31469" lon="6.38398">
        <ele>284</ele>
        <time>2020-09-02T10:41:38Z</time>
      </trkpt>
      <trkpt lat="48.31396" lon="6.38461">
        <ele>285</ele>
        <time>2020-09-02T10:41:53Z</time>
      </trkpt>
      <trkpt lat="48.31273" lon="6.3856">
        <ele>287</ele>
        <time>2020-09-02T10:42:18Z</time>
      </trkpt>
      <trkpt lat="48.31157" lon="6.38663">
        <ele>286</ele>
        <time>2020-09-02T10:42:42Z</time>
      </trkpt>
      <trkpt lat="48.31084" lon="6.38722">
        <ele>285</ele>
        <time>2020-09-02T10:42:57Z</time>
      </trkpt>
      <trkpt lat="48.31018" lon="6.38789">
        <ele>285</ele>
        <time>2020-09-02T10:43:11Z</time>
      </trkpt>
      <trkpt lat="48.31006" lon="6.38772">
        <ele>285</ele>
        <time>2020-09-02T10:43:14Z</time>
      </trkpt>
      <trkpt lat="48.30972" lon="6.38789">
        <ele>285</ele>
        <time>2020-09-02T10:43:20Z</time>
      </trkpt>
      <trkpt lat="48.30931" lon="6.38832">
        <ele>285</ele>
        <time>2020-09-02T10:43:29Z</time>
      </trkpt>
      <trkpt lat="48.30613" lon="6.39095">
        <ele>287</ele>
        <time>2020-09-02T10:44:34Z</time>
      </trkpt>
      <trkpt lat="48.3056" lon="6.39135">
        <ele>287</ele>
        <time>2020-09-02T10:44:44Z</time>
      </trkpt>
      <trkpt lat="48.30507" lon="6.3917">
        <ele>286</ele>
        <time>2020-09-02T10:44:55Z</time>
      </trkpt>
      <trkpt lat="48.30302" lon="6.39292">
        <ele>287</ele>
        <time>2020-09-02T10:45:34Z</time>
      </trkpt>
      <trkpt lat="48.29951" lon="6.39509">
        <ele>287</ele>
        <time>2020-09-02T10:46:42Z</time>
      </trkpt>
      <trkpt lat="48.29943" lon="6.39513">
        <ele>287</ele>
        <time>2020-09-02T10:46:43Z</time>
      </trkpt>
      <trkpt lat="48.29923" lon="6.39513">
        <ele>288</ele>
        <time>2020-09-02T10:46:47Z</time>
      </trkpt>
      <trkpt lat="48.29875" lon="6.3955">
        <ele>290</ele>
        <time>2020-09-02T10:46:56Z</time>
      </trkpt>
      <trkpt lat="48.29783" lon="6.39605">
        <ele>292</ele>
        <time>2020-09-02T10:47:14Z</time>
      </trkpt>
      <trkpt lat="48.29723" lon="6.39644">
        <ele>292</ele>
        <time>2020-09-02T10:47:25Z</time>
      </trkpt>
      <trkpt lat="48.29655" lon="6.39681">
        <ele>292</ele>
        <time>2020-09-02T10:47:38Z</time>
      </trkpt>
      <trkpt lat="48.29596" lon="6.39706">
        <ele>294</ele>
        <time>2020-09-02T10:47:49Z</time>
      </trkpt>
      <trkpt lat="48.29478" lon="6.39734">
        <ele>292</ele>
        <time>2020-09-02T10:48:10Z</time>
      </trkpt>
      <trkpt lat="48.29441" lon="6.3974">
        <ele>291</ele>
        <time>2020-09-02T10:48:17Z</time>
      </trkpt>
      <trkpt lat="48.28981" lon="6.39758">
        <ele>289</ele>
        <time>2020-09-02T10:49:39Z</time>
      </trkpt>
      <trkpt lat="48.28901" lon="6.39771">
        <ele>290</ele>
        <time>2020-09-02T10:49:53Z</time>
      </trkpt>
      <trkpt lat="48.28819" lon="6.39795">
        <ele>290</ele>
        <time>2020-09-02T10:50:08Z</time>
      </trkpt>
      <trkpt lat="48.28711" lon="6.39832">
        <ele>291</ele>
        <time>2020-09-02T10:50:28Z</time>
      </trkpt>
      <trkpt lat="48.28456" lon="6.39914">
        <ele>292</ele>
        <time>2020-09-02T10:51:14Z</time>
      </trkpt>
      <trkpt lat="48.28446" lon="6.3992">
        <ele>291</ele>
        <time>2020-09-02T10:51:16Z</time>
      </trkpt>
      <trkpt lat="48.28426" lon="6.39924">
        <ele>291</ele>
        <time>2020-09-02T10:51:20Z</time>
      </trkpt>
      <trkpt lat="48.28381" lon="6.39939">
        <ele>291</ele>
        <time>2020-09-02T10:51:28Z</time>
      </trkpt>
      <trkpt lat="48.28374" lon="6.3994">
        <ele>292</ele>
        <time>2020-09-02T10:51:29Z</time>
      </trkpt>
      <trkpt lat="48.28357" lon="6.39934">
        <ele>292</ele>
        <time>2020-09-02T10:51:32Z</time>
      </trkpt>
      <trkpt lat="48.28343" lon="6.39933">
        <ele>292</ele>
        <time>2020-09-02T10:51:35Z</time>
      </trkpt>
      <trkpt lat="48.28285" lon="6.39959">
        <ele>292</ele>
        <time>2020-09-02T10:51:46Z</time>
      </trkpt>
      <trkpt lat="48.28068" lon="6.40033">
        <ele>291</ele>
        <time>2020-09-02T10:52:25Z</time>
      </trkpt>
      <trkpt lat="48.2757" lon="6.40193">
        <ele>294</ele>
        <time>2020-09-02T10:53:56Z</time>
      </trkpt>
      <trkpt lat="48.27543" lon="6.40188">
        <ele>294</ele>
        <time>2020-09-02T10:54:01Z</time>
      </trkpt>
      <trkpt lat="48.27527" lon="6.40191">
        <ele>295</ele>
        <time>2020-09-02T10:54:03Z</time>
      </trkpt>
      <trkpt lat="48.2749" lon="6.40211">
        <ele>295</ele>
        <time>2020-09-02T10:54:10Z</time>
      </trkpt>
      <trkpt lat="48.27419" lon="6.40235">
        <ele>295</ele>
        <time>2020-09-02T10:54:23Z</time>
      </trkpt>
      <trkpt lat="48.27344" lon="6.40264">
        <ele>296</ele>
        <time>2020-09-02T10:54:37Z</time>
      </trkpt>
      <trkpt lat="48.27271" lon="6.403">
        <ele>296</ele>
        <time>2020-09-02T10:54:51Z</time>
      </trkpt>
      <trkpt lat="48.27139" lon="6.40378">
        <ele>298</ele>
        <time>2020-09-02T10:55:16Z</time>
      </trkpt>
      <trkpt lat="48.27073" lon="6.40423">
        <ele>298</ele>
        <time>2020-09-02T10:55:29Z</time>
      </trkpt>
      <trkpt lat="48.27003" lon="6.40477">
        <ele>298</ele>
        <time>2020-09-02T10:55:43Z</time>
      </trkpt>
      <trkpt lat="48.26941" lon="6.40529">
        <ele>297</ele>
        <time>2020-09-02T10:55:56Z</time>
      </trkpt>
      <trkpt lat="48.2687" lon="6.40596">
        <ele>297</ele>
        <time>2020-09-02T10:56:11Z</time>
      </trkpt>
      <trkpt lat="48.26835" lon="6.40637">
        <ele>297</ele>
        <time>2020-09-02T10:56:18Z</time>
      </trkpt>
      <trkpt lat="48.26828" lon="6.40652">
        <ele>296</ele>
        <time>2020-09-02T10:56:21Z</time>
      </trkpt>
      <trkpt lat="48.26816" lon="6.40729">
        <ele>296</ele>
        <time>2020-09-02T10:56:30Z</time>
      </trkpt>
      <trkpt lat="48.26789" lon="6.40773">
        <ele>296</ele>
        <time>2020-09-02T10:56:37Z</time>
      </trkpt>
      <trkpt lat="48.26749" lon="6.40885">
        <ele>296</ele>
        <time>2020-09-02T10:56:52Z</time>
      </trkpt>
      <trkpt lat="48.26736" lon="6.40872">
        <ele>296</ele>
        <time>2020-09-02T10:56:55Z</time>
      </trkpt>
      <trkpt lat="48.26714" lon="6.4082">
        <ele>296</ele>
        <time>2020-09-02T10:57:02Z</time>
      </trkpt>
      <trkpt lat="48.26717" lon="6.40788">
        <ele>297</ele>
        <time>2020-09-02T10:57:06Z</time>
      </trkpt>
      <trkpt lat="48.26716" lon="6.4078">
        <ele>297</ele>
        <time>2020-09-02T10:57:07Z</time>
      </trkpt>
      <trkpt lat="48.26713" lon="6.40778">
        <ele>297</ele>
        <time>2020-09-02T10:57:08Z</time>
      </trkpt>
      <trkpt lat="48.26645" lon="6.40854">
        <ele>297</ele>
        <time>2020-09-02T10:57:23Z</time>
      </trkpt>
      <trkpt lat="48.26598" lon="6.40899">
        <ele>297</ele>
        <time>2020-09-02T10:57:33Z</time>
      </trkpt>
      <trkpt lat="48.26542" lon="6.40958">
        <ele>297</ele>
        <time>2020-09-02T10:57:45Z</time>
      </trkpt>
      <trkpt lat="48.26502" lon="6.40995">
        <ele>296</ele>
        <time>2020-09-02T10:57:53Z</time>
      </trkpt>
      <trkpt lat="48.26485" lon="6.41005">
        <ele>296</ele>
        <time>2020-09-02T10:57:56Z</time>
      </trkpt>
      <trkpt lat="48.26459" lon="6.41044">
        <ele>296</ele>
        <time>2020-09-02T10:58:03Z</time>
      </trkpt>
      <trkpt lat="48.26122" lon="6.41403">
        <ele>298</ele>
        <time>2020-09-02T10:59:16Z</time>
      </trkpt>
      <trkpt lat="48.25656" lon="6.41907">
        <ele>300</ele>
        <time>2020-09-02T11:00:59Z</time>
      </trkpt>
      <trkpt lat="48.25503" lon="6.42082">
        <ele>300</ele>
        <time>2020-09-02T11:01:33Z</time>
      </trkpt>
      <trkpt lat="48.25483" lon="6.42096">
        <ele>300</ele>
        <time>2020-09-02T11:01:37Z</time>
      </trkpt>
      <trkpt lat="48.25476" lon="6.42088">
        <ele>300</ele>
        <time>2020-09-02T11:01:38Z</time>
      </trkpt>
      <trkpt lat="48.25469" lon="6.42072">
        <ele>300</ele>
        <time>2020-09-02T11:01:41Z</time>
      </trkpt>
      <trkpt lat="48.25373" lon="6.4217">
        <ele>301</ele>
        <time>2020-09-02T11:02:01Z</time>
      </trkpt>
      <trkpt lat="48.25314" lon="6.42238">
        <ele>301</ele>
        <time>2020-09-02T11:02:14Z</time>
      </trkpt>
      <trkpt lat="48.25184" lon="6.42377">
        <ele>301</ele>
        <time>2020-09-02T11:02:43Z</time>
      </trkpt>
      <trkpt lat="48.25128" lon="6.42419">
        <ele>301</ele>
        <time>2020-09-02T11:02:54Z</time>
      </trkpt>
      <trkpt lat="48.25086" lon="6.42444">
        <ele>303</ele>
        <time>2020-09-02T11:03:02Z</time>
      </trkpt>
      <trkpt lat="48.25018" lon="6.42465">
        <ele>303</ele>
        <time>2020-09-02T11:03:14Z</time>
      </trkpt>
      <trkpt lat="48.24813" lon="6.42498">
        <ele>302</ele>
        <time>2020-09-02T11:03:51Z</time>
      </trkpt>
      <trkpt lat="48.24759" lon="6.42512">
        <ele>303</ele>
        <time>2020-09-02T11:04:01Z</time>
      </trkpt>
      <trkpt lat="48.24734" lon="6.42522">
        <ele>304</ele>
        <time>2020-09-02T11:04:05Z</time>
      </trkpt>
      <trkpt lat="48.24707" lon="6.42541">
        <ele>304</ele>
        <time>2020-09-02T11:04:11Z</time>
      </trkpt>
      <trkpt lat="48.24666" lon="6.4258">
        <ele>304</ele>
        <time>2020-09-02T11:04:19Z</time>
      </trkpt>
      <trkpt lat="48.24654" lon="6.42583">
        <ele>304</ele>
        <time>2020-09-02T11:04:22Z</time>
      </trkpt>
      <trkpt lat="48.24645" lon="6.42595">
        <ele>304</ele>
        <time>2020-09-02T11:04:24Z</time>
      </trkpt>
      <trkpt lat="48.24642" lon="6.42612">
        <ele>304</ele>
        <time>2020-09-02T11:04:26Z</time>
      </trkpt>
      <trkpt lat="48.24635" lon="6.42593">
        <ele>304</ele>
        <time>2020-09-02T11:04:28Z</time>
      </trkpt>
      <trkpt lat="48.24629" lon="6.42599">
        <ele>304</ele>
        <time>2020-09-02T11:04:30Z</time>
      </trkpt>
      <trkpt lat="48.24648" lon="6.42643">
        <ele>304</ele>
        <time>2020-09-02T11:04:36Z</time>
      </trkpt>
      <trkpt lat="48.24633" lon="6.42652">
        <ele>304</ele>
        <time>2020-09-02T11:04:39Z</time>
      </trkpt>
      <trkpt lat="48.24615" lon="6.42658">
        <ele>304</ele>
        <time>2020-09-02T11:04:42Z</time>
      </trkpt>
      <trkpt lat="48.24536" lon="6.42744">
        <ele>304</ele>
        <time>2020-09-02T11:04:59Z</time>
      </trkpt>
      <trkpt lat="48.24517" lon="6.42776">
        <ele>304</ele>
        <time>2020-09-02T11:05:04Z</time>
      </trkpt>
      <trkpt lat="48.24499" lon="6.42814">
        <ele>303</ele>
        <time>2020-09-02T11:05:10Z</time>
      </trkpt>
      <trkpt lat="48.24424" lon="6.42984">
        <ele>304</ele>
        <time>2020-09-02T11:05:34Z</time>
      </trkpt>
      <trkpt lat="48.24408" lon="6.43004">
        <ele>305</ele>
        <time>2020-09-02T11:05:38Z</time>
      </trkpt>
      <trkpt lat="48.24289" lon="6.43107">
        <ele>306</ele>
        <time>2020-09-02T11:06:02Z</time>
      </trkpt>
      <trkpt lat="48.2426" lon="6.43139">
        <ele>305</ele>
        <time>2020-09-02T11:06:09Z</time>
      </trkpt>
      <trkpt lat="48.24222" lon="6.43187">
        <ele>305</ele>
        <time>2020-09-02T11:06:17Z</time>
      </trkpt>
      <trkpt lat="48.23972" lon="6.43561">
        <ele>308</ele>
        <time>2020-09-02T11:07:20Z</time>
      </trkpt>
      <trkpt lat="48.23833" lon="6.43775">
        <ele>306</ele>
        <time>2020-09-02T11:07:56Z</time>
      </trkpt>
      <trkpt lat="48.23805" lon="6.43814">
        <ele>304</ele>
        <time>2020-09-02T11:08:02Z</time>
      </trkpt>
      <trkpt lat="48.23773" lon="6.43849">
        <ele>304</ele>
        <time>2020-09-02T11:08:10Z</time>
      </trkpt>
      <trkpt lat="48.23706" lon="6.43913">
        <ele>304</ele>
        <time>2020-09-02T11:08:24Z</time>
      </trkpt>
      <trkpt lat="48.23608" lon="6.43951">
        <ele>305</ele>
        <time>2020-09-02T11:08:42Z</time>
      </trkpt>
      <trkpt lat="48.23525" lon="6.43978">
        <ele>306</ele>
        <time>2020-09-02T11:08:57Z</time>
      </trkpt>
      <trkpt lat="48.23506" lon="6.43983">
        <ele>307</ele>
        <time>2020-09-02T11:09:00Z</time>
      </trkpt>
      <trkpt lat="48.23491" lon="6.43976">
        <ele>308</ele>
        <time>2020-09-02T11:09:03Z</time>
      </trkpt>
      <trkpt lat="48.23482" lon="6.43977">
        <ele>308</ele>
        <time>2020-09-02T11:09:05Z</time>
      </trkpt>
      <trkpt lat="48.23431" lon="6.44003">
        <ele>308</ele>
        <time>2020-09-02T11:09:14Z</time>
      </trkpt>
      <trkpt lat="48.23414" lon="6.44007">
        <ele>309</ele>
        <time>2020-09-02T11:09:17Z</time>
      </trkpt>
      <trkpt lat="48.23398" lon="6.44007">
        <ele>309</ele>
        <time>2020-09-02T11:09:20Z</time>
      </trkpt>
      <trkpt lat="48.23383" lon="6.44002">
        <ele>308</ele>
        <time>2020-09-02T11:09:23Z</time>
      </trkpt>
      <trkpt lat="48.23232" lon="6.43873">
        <ele>311</ele>
        <time>2020-09-02T11:09:54Z</time>
      </trkpt>
      <trkpt lat="48.23123" lon="6.43773">
        <ele>311</ele>
        <time>2020-09-02T11:10:16Z</time>
      </trkpt>
      <trkpt lat="48.23041" lon="6.4372">
        <ele>308</ele>
        <time>2020-09-02T11:10:32Z</time>
      </trkpt>
      <trkpt lat="48.22891" lon="6.4367">
        <ele>308</ele>
        <time>2020-09-02T11:11:00Z</time>
      </trkpt>
      <trkpt lat="48.22622" lon="6.43593">
        <ele>310</ele>
        <time>2020-09-02T11:11:48Z</time>
      </trkpt>
      <trkpt lat="48.22581" lon="6.43587">
        <ele>310</ele>
        <time>2020-09-02T11:11:56Z</time>
      </trkpt>
      <trkpt lat="48.2257" lon="6.43588">
        <ele>310</ele>
        <time>2020-09-02T11:11:58Z</time>
      </trkpt>
      <trkpt lat="48.22564" lon="6.43584">
        <ele>309</ele>
        <time>2020-09-02T11:11:59Z</time>
      </trkpt>
      <trkpt lat="48.22524" lon="6.43582">
        <ele>308</ele>
        <time>2020-09-02T11:12:06Z</time>
      </trkpt>
      <trkpt lat="48.22503" lon="6.43587">
        <ele>307</ele>
        <time>2020-09-02T11:12:10Z</time>
      </trkpt>
      <trkpt lat="48.22497" lon="6.43591">
        <ele>307</ele>
        <time>2020-09-02T11:12:11Z</time>
      </trkpt>
      <trkpt lat="48.22491" lon="6.43605">
        <ele>308</ele>
        <time>2020-09-02T11:12:13Z</time>
      </trkpt>
      <trkpt lat="48.22489" lon="6.43613">
        <ele>308</ele>
        <time>2020-09-02T11:12:14Z</time>
      </trkpt>
      <trkpt lat="48.22491" lon="6.43617">
        <ele>308</ele>
        <time>2020-09-02T11:12:15Z</time>
      </trkpt>
      <trkpt lat="48.22488" lon="6.43624">
        <ele>308</ele>
        <time>2020-09-02T11:12:16Z</time>
      </trkpt>
      <trkpt lat="48.22451" lon="6.43636">
        <ele>309</ele>
        <time>2020-09-02T11:12:22Z</time>
      </trkpt>
      <trkpt lat="48.22439" lon="6.4366">
        <ele>309</ele>
        <time>2020-09-02T11:12:26Z</time>
      </trkpt>
      <trkpt lat="48.22428" lon="6.43674">
        <ele>309</ele>
        <time>2020-09-02T11:12:28Z</time>
      </trkpt>
      <trkpt lat="48.22414" lon="6.43681">
        <ele>308</ele>
        <time>2020-09-02T11:12:31Z</time>
      </trkpt>
      <trkpt lat="48.22401" lon="6.43678">
        <ele>308</ele>
        <time>2020-09-02T11:12:33Z</time>
      </trkpt>
      <trkpt lat="48.22375" lon="6.43658">
        <ele>308</ele>
        <time>2020-09-02T11:12:39Z</time>
      </trkpt>
      <trkpt lat="48.22362" lon="6.43644">
        <ele>307</ele>
        <time>2020-09-02T11:12:41Z</time>
      </trkpt>
      <trkpt lat="48.22352" lon="6.43627">
        <ele>307</ele>
        <time>2020-09-02T11:12:44Z</time>
      </trkpt>
      <trkpt lat="48.22344" lon="6.43627">
        <ele>307</ele>
        <time>2020-09-02T11:12:46Z</time>
      </trkpt>
      <trkpt lat="48.22294" lon="6.43648">
        <ele>308</ele>
        <time>2020-09-02T11:12:55Z</time>
      </trkpt>
      <trkpt lat="48.22285" lon="6.43644">
        <ele>308</ele>
        <time>2020-09-02T11:12:56Z</time>
      </trkpt>
      <trkpt lat="48.22285" lon="6.4365">
        <ele>308</ele>
        <time>2020-09-02T11:12:57Z</time>
      </trkpt>
      <trkpt lat="48.22268" lon="6.43644">
        <ele>308</ele>
        <time>2020-09-02T11:13:00Z</time>
      </trkpt>
      <trkpt lat="48.22259" lon="6.43645">
        <ele>309</ele>
        <time>2020-09-02T11:13:02Z</time>
      </trkpt>
      <trkpt lat="48.22209" lon="6.43668">
        <ele>308</ele>
        <time>2020-09-02T11:13:11Z</time>
      </trkpt>
      <trkpt lat="48.22042" lon="6.43735">
        <ele>307</ele>
        <time>2020-09-02T11:13:42Z</time>
      </trkpt>
      <trkpt lat="48.21802" lon="6.43828">
        <ele>309</ele>
        <time>2020-09-02T11:14:26Z</time>
      </trkpt>
      <trkpt lat="48.21704" lon="6.4387">
        <ele>310</ele>
        <time>2020-09-02T11:14:44Z</time>
      </trkpt>
      <trkpt lat="48.21694" lon="6.43875">
        <ele>311</ele>
        <time>2020-09-02T11:14:46Z</time>
      </trkpt>
      <trkpt lat="48.21691" lon="6.43879">
        <ele>311</ele>
        <time>2020-09-02T11:14:47Z</time>
      </trkpt>
      <trkpt lat="48.21664" lon="6.4389">
        <ele>311</ele>
        <time>2020-09-02T11:14:52Z</time>
      </trkpt>
      <trkpt lat="48.21651" lon="6.43894">
        <ele>311</ele>
        <time>2020-09-02T11:14:54Z</time>
      </trkpt>
      <trkpt lat="48.2161" lon="6.43896">
        <ele>311</ele>
        <time>2020-09-02T11:15:01Z</time>
      </trkpt>
      <trkpt lat="48.21592" lon="6.43904">
        <ele>311</ele>
        <time>2020-09-02T11:15:05Z</time>
      </trkpt>
      <trkpt lat="48.21583" lon="6.43915">
        <ele>311</ele>
        <time>2020-09-02T11:15:07Z</time>
      </trkpt>
      <trkpt lat="48.21497" lon="6.43945">
        <ele>312</ele>
        <time>2020-09-02T11:15:22Z</time>
      </trkpt>
      <trkpt lat="48.2142" lon="6.43976">
        <ele>314</ele>
        <time>2020-09-02T11:15:37Z</time>
      </trkpt>
      <trkpt lat="48.21361" lon="6.44005">
        <ele>314</ele>
        <time>2020-09-02T11:15:48Z</time>
      </trkpt>
      <trkpt lat="48.21219" lon="6.44108">
        <ele>313</ele>
        <time>2020-09-02T11:16:16Z</time>
      </trkpt>
      <trkpt lat="48.2112" lon="6.44184">
        <ele>312</ele>
        <time>2020-09-02T11:16:36Z</time>
      </trkpt>
      <trkpt lat="48.2109" lon="6.44197">
        <ele>311</ele>
        <time>2020-09-02T11:16:41Z</time>
      </trkpt>
      <trkpt lat="48.21065" lon="6.44201">
        <ele>311</ele>
        <time>2020-09-02T11:16:46Z</time>
      </trkpt>
      <trkpt lat="48.21033" lon="6.44212">
        <ele>311</ele>
        <time>2020-09-02T11:16:51Z</time>
      </trkpt>
      <trkpt lat="48.2104" lon="6.44215">
        <ele>311</ele>
        <time>2020-09-02T11:16:53Z</time>
      </trkpt>
      <trkpt lat="48.21051" lon="6.44215">
        <ele>311</ele>
        <time>2020-09-02T11:16:55Z</time>
      </trkpt>
      <trkpt lat="48.21033" lon="6.44212">
        <ele>311</ele>
        <time>2020-09-02T11:16:58Z</time>
      </trkpt>
      <trkpt lat="48.2101" lon="6.44196">
        <ele>311</ele>
        <time>2020-09-02T11:17:02Z</time>
      </trkpt>
      <trkpt lat="48.20987" lon="6.44162">
        <ele>312</ele>
        <time>2020-09-02T11:17:08Z</time>
      </trkpt>
      <trkpt lat="48.20973" lon="6.44135">
        <ele>314</ele>
        <time>2020-09-02T11:17:12Z</time>
      </trkpt>
      <trkpt lat="48.20967" lon="6.44116">
        <ele>315</ele>
        <time>2020-09-02T11:17:15Z</time>
      </trkpt>
      <trkpt lat="48.20996" lon="6.44103">
        <ele>314</ele>
        <time>2020-09-02T11:17:20Z</time>
      </trkpt>
      <trkpt lat="48.20988" lon="6.44081">
        <ele>316</ele>
        <time>2020-09-02T11:17:23Z</time>
      </trkpt>
      <trkpt lat="48.20979" lon="6.44082">
        <ele>316</ele>
        <time>2020-09-02T11:17:25Z</time>
      </trkpt>
      <trkpt lat="48.20966" lon="6.44066">
        <ele>317</ele>
        <time>2020-09-02T11:17:28Z</time>
      </trkpt>
      <trkpt lat="48.20891" lon="6.43882">
        <ele>323</ele>
        <time>2020-09-02T11:17:53Z</time>
      </trkpt>
      <trkpt lat="48.20887" lon="6.43882">
        <ele>323</ele>
        <time>2020-09-02T11:17:54Z</time>
      </trkpt>
      <trkpt lat="48.20889" lon="6.4388">
        <ele>323</ele>
        <time>2020-09-02T11:17:54Z</time>
      </trkpt>
      <trkpt lat="48.20788" lon="6.43564">
        <ele>328</ele>
        <time>2020-09-02T11:18:36Z</time>
      </trkpt>
      <trkpt lat="48.20741" lon="6.43484">
        <ele>327</ele>
        <time>2020-09-02T11:18:49Z</time>
      </trkpt>
      <trkpt lat="48.20601" lon="6.43287">
        <ele>330</ele>
        <time>2020-09-02T11:19:23Z</time>
      </trkpt>
      <trkpt lat="48.20574" lon="6.43253">
        <ele>330</ele>
        <time>2020-09-02T11:19:29Z</time>
      </trkpt>
      <trkpt lat="48.20556" lon="6.43241">
        <ele>331</ele>
        <time>2020-09-02T11:19:33Z</time>
      </trkpt>
      <trkpt lat="48.20533" lon="6.43202">
        <ele>332</ele>
        <time>2020-09-02T11:19:39Z</time>
      </trkpt>
      <trkpt lat="48.2049" lon="6.43145">
        <ele>332</ele>
        <time>2020-09-02T11:19:49Z</time>
      </trkpt>
      <trkpt lat="48.20409" lon="6.43095">
        <ele>333</ele>
        <time>2020-09-02T11:20:04Z</time>
      </trkpt>
      <trkpt lat="48.20301" lon="6.42999">
        <ele>333</ele>
        <time>2020-09-02T11:20:27Z</time>
      </trkpt>
      <trkpt lat="48.20146" lon="6.42826">
        <ele>333</ele>
        <time>2020-09-02T11:21:01Z</time>
      </trkpt>
      <trkpt lat="48.20125" lon="6.42814">
        <ele>333</ele>
        <time>2020-09-02T11:21:05Z</time>
      </trkpt>
      <trkpt lat="48.20022" lon="6.42696">
        <ele>333</ele>
        <time>2020-09-02T11:21:28Z</time>
      </trkpt>
      <trkpt lat="48.19923" lon="6.42448">
        <ele>334</ele>
        <time>2020-09-02T11:22:03Z</time>
      </trkpt>
      <trkpt lat="48.19834" lon="6.42243">
        <ele>336</ele>
        <time>2020-09-02T11:22:32Z</time>
      </trkpt>
      <trkpt lat="48.19781" lon="6.42132">
        <ele>338</ele>
        <time>2020-09-02T11:22:48Z</time>
      </trkpt>
      <trkpt lat="48.19756" lon="6.42102">
        <ele>339</ele>
        <time>2020-09-02T11:22:53Z</time>
      </trkpt>
      <trkpt lat="48.19684" lon="6.42061">
        <ele>340</ele>
        <time>2020-09-02T11:23:07Z</time>
      </trkpt>
      <trkpt lat="48.19446" lon="6.41902">
        <ele>343</ele>
        <time>2020-09-02T11:23:54Z</time>
      </trkpt>
      <trkpt lat="48.19427" lon="6.41899">
        <ele>343</ele>
        <time>2020-09-02T11:23:57Z</time>
      </trkpt>
      <trkpt lat="48.19358" lon="6.4185">
        <ele>346</ele>
        <time>2020-09-02T11:24:10Z</time>
      </trkpt>
      <trkpt lat="48.193" lon="6.4173">
        <ele>348</ele>
        <time>2020-09-02T11:24:28Z</time>
      </trkpt>
      <trkpt lat="48.19271" lon="6.41647">
        <ele>351</ele>
        <time>2020-09-02T11:24:39Z</time>
      </trkpt>
      <trkpt lat="48.19281" lon="6.41532">
        <ele>354</ele>
        <time>2020-09-02T11:24:53Z</time>
      </trkpt>
      <trkpt lat="48.19308" lon="6.41358">
        <ele>358</ele>
        <time>2020-09-02T11:25:14Z</time>
      </trkpt>
      <trkpt lat="48.19324" lon="6.41202">
        <ele>359</ele>
        <time>2020-09-02T11:25:33Z</time>
      </trkpt>
      <trkpt lat="48.19266" lon="6.41047">
        <ele>361</ele>
        <time>2020-09-02T11:25:54Z</time>
      </trkpt>
      <trkpt lat="48.19203" lon="6.40905">
        <ele>365</ele>
        <time>2020-09-02T11:26:14Z</time>
      </trkpt>
      <trkpt lat="48.19187" lon="6.40845">
        <ele>363</ele>
        <time>2020-09-02T11:26:22Z</time>
      </trkpt>
      <trkpt lat="48.19146" lon="6.40568">
        <ele>363</ele>
        <time>2020-09-02T11:26:55Z</time>
      </trkpt>
      <trkpt lat="48.19144" lon="6.40339">
        <ele>368</ele>
        <time>2020-09-02T11:27:23Z</time>
      </trkpt>
      <trkpt lat="48.1913" lon="6.40295">
        <ele>368</ele>
        <time>2020-09-02T11:27:28Z</time>
      </trkpt>
      <trkpt lat="48.19108" lon="6.40258">
        <ele>369</ele>
        <time>2020-09-02T11:27:34Z</time>
      </trkpt>
      <trkpt lat="48.19039" lon="6.40206">
        <ele>370</ele>
        <time>2020-09-02T11:27:48Z</time>
      </trkpt>
      <trkpt lat="48.19006" lon="6.40122">
        <ele>370</ele>
        <time>2020-09-02T11:28:00Z</time>
      </trkpt>
      <trkpt lat="48.18936" lon="6.39567">
        <ele>364</ele>
        <time>2020-09-02T11:29:07Z</time>
      </trkpt>
      <trkpt lat="48.18896" lon="6.39317">
        <ele>363</ele>
        <time>2020-09-02T11:29:37Z</time>
      </trkpt>
      <trkpt lat="48.18807" lon="6.39026">
        <ele>364</ele>
        <time>2020-09-02T11:30:15Z</time>
      </trkpt>
      <trkpt lat="48.18759" lon="6.38937">
        <ele>363</ele>
        <time>2020-09-02T11:30:29Z</time>
      </trkpt>
      <trkpt lat="48.18727" lon="6.38916">
        <ele>362</ele>
        <time>2020-09-02T11:30:35Z</time>
      </trkpt>
      <trkpt lat="48.18658" lon="6.38878">
        <ele>357</ele>
        <time>2020-09-02T11:30:48Z</time>
      </trkpt>
      <trkpt lat="48.1858" lon="6.38887">
        <ele>358</ele>
        <time>2020-09-02T11:31:02Z</time>
      </trkpt>
      <trkpt lat="48.18262" lon="6.39068">
        <ele>363</ele>
        <time>2020-09-02T11:32:02Z</time>
      </trkpt>
      <trkpt lat="48.18218" lon="6.39056">
        <ele>362</ele>
        <time>2020-09-02T11:32:10Z</time>
      </trkpt>
      <trkpt lat="48.18188" lon="6.39028">
        <ele>360</ele>
        <time>2020-09-02T11:32:17Z</time>
      </trkpt>
      <trkpt lat="48.18169" lon="6.38996">
        <ele>360</ele>
        <time>2020-09-02T11:32:22Z</time>
      </trkpt>
      <trkpt lat="48.18099" lon="6.38822">
        <ele>358</ele>
        <time>2020-09-02T11:32:46Z</time>
      </trkpt>
      <trkpt lat="48.18078" lon="6.38784">
        <ele>358</ele>
        <time>2020-09-02T11:32:52Z</time>
      </trkpt>
      <trkpt lat="48.17918" lon="6.38569">
        <ele>361</ele>
        <time>2020-09-02T11:33:30Z</time>
      </trkpt>
      <trkpt lat="48.17872" lon="6.38493">
        <ele>360</ele>
        <time>2020-09-02T11:33:42Z</time>
      </trkpt>
      <trkpt lat="48.1785" lon="6.38427">
        <ele>360</ele>
        <time>2020-09-02T11:33:51Z</time>
      </trkpt>
      <trkpt lat="48.17898" lon="6.38514">
        <ele>360</ele>
        <time>2020-09-02T11:34:04Z</time>
      </trkpt>
      <trkpt lat="48.1785" lon="6.38427">
        <ele>360</ele>
        <time>2020-09-02T11:34:18Z</time>
      </trkpt>
      <trkpt lat="48.17825" lon="6.38317">
        <ele>360</ele>
        <time>2020-09-02T11:34:31Z</time>
      </trkpt>
      <trkpt lat="48.17822" lon="6.3821">
        <ele>358</ele>
        <time>2020-09-02T11:34:44Z</time>
      </trkpt>
      <trkpt lat="48.17833" lon="6.38136">
        <ele>358</ele>
        <time>2020-09-02T11:34:53Z</time>
      </trkpt>
      <trkpt lat="48.17898" lon="6.3791">
        <ele>357</ele>
        <time>2020-09-02T11:35:22Z</time>
      </trkpt>
      <trkpt lat="48.17923" lon="6.37805">
        <ele>358</ele>
        <time>2020-09-02T11:35:36Z</time>
      </trkpt>
      <trkpt lat="48.17923" lon="6.37752">
        <ele>358</ele>
        <time>2020-09-02T11:35:42Z</time>
      </trkpt>
      <trkpt lat="48.17912" lon="6.37667">
        <ele>359</ele>
        <time>2020-09-02T11:35:52Z</time>
      </trkpt>
      <trkpt lat="48.1788" lon="6.37587">
        <ele>359</ele>
        <time>2020-09-02T11:36:03Z</time>
      </trkpt>
      <trkpt lat="48.17794" lon="6.37465">
        <ele>364</ele>
        <time>2020-09-02T11:36:24Z</time>
      </trkpt>
      <trkpt lat="48.17776" lon="6.37429">
        <ele>364</ele>
        <time>2020-09-02T11:36:30Z</time>
      </trkpt>
      <trkpt lat="48.17754" lon="6.37334">
        <ele>364</ele>
        <time>2020-09-02T11:36:42Z</time>
      </trkpt>
      <trkpt lat="48.17753" lon="6.37275">
        <ele>363</ele>
        <time>2020-09-02T11:36:49Z</time>
      </trkpt>
      <trkpt lat="48.1776" lon="6.37224">
        <ele>362</ele>
        <time>2020-09-02T11:36:55Z</time>
      </trkpt>
      <trkpt lat="48.17814" lon="6.36974">
        <ele>357</ele>
        <time>2020-09-02T11:37:26Z</time>
      </trkpt>
      <trkpt lat="48.17825" lon="6.36867">
        <ele>358</ele>
        <time>2020-09-02T11:37:39Z</time>
      </trkpt>
      <trkpt lat="48.17802" lon="6.36746">
        <ele>362</ele>
        <time>2020-09-02T11:37:54Z</time>
      </trkpt>
      <trkpt lat="48.17763" lon="6.36773">
        <ele>362</ele>
        <time>2020-09-02T11:38:01Z</time>
      </trkpt>
      <trkpt lat="48.17729" lon="6.36766">
        <ele>362</ele>
        <time>2020-09-02T11:38:07Z</time>
      </trkpt>
      <trkpt lat="48.1772" lon="6.36783">
        <ele>362</ele>
        <time>2020-09-02T11:38:10Z</time>
      </trkpt>
      <trkpt lat="48.17652" lon="6.36827">
        <ele>362</ele>
        <time>2020-09-02T11:38:23Z</time>
      </trkpt>
      <trkpt lat="48.17607" lon="6.36847">
        <ele>362</ele>
        <time>2020-09-02T11:38:32Z</time>
      </trkpt>
      <trkpt lat="48.17575" lon="6.36874">
        <ele>364</ele>
        <time>2020-09-02T11:38:38Z</time>
      </trkpt>
      <trkpt lat="48.17544" lon="6.36951">
        <ele>370</ele>
        <time>2020-09-02T11:38:49Z</time>
      </trkpt>
      <trkpt lat="48.1755" lon="6.37036">
        <ele>374</ele>
        <time>2020-09-02T11:38:59Z</time>
      </trkpt>
      <trkpt lat="48.17545" lon="6.37049">
        <ele>375</ele>
        <time>2020-09-02T11:39:01Z</time>
      </trkpt>
      <trkpt lat="48.17501" lon="6.37082">
        <ele>381</ele>
        <time>2020-09-02T11:39:09Z</time>
      </trkpt>
      <trkpt lat="48.17496" lon="6.37094">
        <ele>381</ele>
        <time>2020-09-02T11:39:11Z</time>
      </trkpt>
      <trkpt lat="48.17506" lon="6.37199">
        <ele>380</ele>
        <time>2020-09-02T11:39:24Z</time>
      </trkpt>
      <trkpt lat="48.17503" lon="6.37212">
        <ele>380</ele>
        <time>2020-09-02T11:39:25Z</time>
      </trkpt>
      <trkpt lat="48.17482" lon="6.37228">
        <ele>380</ele>
        <time>2020-09-02T11:39:29Z</time>
      </trkpt>
      <trkpt lat="48.17443" lon="6.37239">
        <ele>381</ele>
        <time>2020-09-02T11:39:37Z</time>
      </trkpt>
      <trkpt lat="48.17426" lon="6.37234">
        <ele>381</ele>
        <time>2020-09-02T11:39:40Z</time>
      </trkpt>
      <trkpt lat="48.17409" lon="6.37224">
        <ele>380</ele>
        <time>2020-09-02T11:39:43Z</time>
      </trkpt>
      <trkpt lat="48.17364" lon="6.37157">
        <ele>379</ele>
        <time>2020-09-02T11:39:54Z</time>
      </trkpt>
      <trkpt lat="48.1734" lon="6.37193">
        <ele>379</ele>
        <time>2020-09-02T11:40:00Z</time>
      </trkpt>
      <trkpt lat="48.17262" lon="6.37347">
        <ele>379</ele>
        <time>2020-09-02T11:40:23Z</time>
      </trkpt>
      <trkpt lat="48.17235" lon="6.37274">
        <ele>380</ele>
        <time>2020-09-02T11:40:33Z</time>
      </trkpt>
      <trkpt lat="48.17151" lon="6.36975">
        <ele>381</ele>
        <time>2020-09-02T11:41:12Z</time>
      </trkpt>
      <trkpt lat="48.17128" lon="6.3694">
        <ele>379</ele>
        <time>2020-09-02T11:41:17Z</time>
      </trkpt>
      <trkpt lat="48.17053" lon="6.36874">
        <ele>374</ele>
        <time>2020-09-02T11:41:33Z</time>
      </trkpt>
      <trkpt lat="48.17001" lon="6.36863">
        <ele>373</ele>
        <time>2020-09-02T11:41:42Z</time>
      </trkpt>
      <trkpt lat="48.17005" lon="6.3656">
        <ele>367</ele>
        <time>2020-09-02T11:42:18Z</time>
      </trkpt>
      <trkpt lat="48.16966" lon="6.36585">
        <ele>369</ele>
        <time>2020-09-02T11:42:26Z</time>
      </trkpt>
      <trkpt lat="48.16882" lon="6.36649">
        <ele>374</ele>
        <time>2020-09-02T11:42:42Z</time>
      </trkpt>
      <trkpt lat="48.16823" lon="6.36531">
        <ele>378</ele>
        <time>2020-09-02T11:43:00Z</time>
      </trkpt>
      <trkpt lat="48.16809" lon="6.36481">
        <ele>378</ele>
        <time>2020-09-02T11:43:06Z</time>
      </trkpt>
      <trkpt lat="48.16812" lon="6.36424">
        <ele>378</ele>
        <time>2020-09-02T11:43:13Z</time>
      </trkpt>
      <trkpt lat="48.16839" lon="6.36341">
        <ele>374</ele>
        <time>2020-09-02T11:43:24Z</time>
      </trkpt>
      <trkpt lat="48.16845" lon="6.36211">
        <ele>372</ele>
        <time>2020-09-02T11:43:40Z</time>
      </trkpt>
      <trkpt lat="48.16836" lon="6.36137">
        <ele>371</ele>
        <time>2020-09-02T11:43:49Z</time>
      </trkpt>
      <trkpt lat="48.16811" lon="6.36094">
        <ele>371</ele>
        <time>2020-09-02T11:43:55Z</time>
      </trkpt>
      <trkpt lat="48.16737" lon="6.36005">
        <ele>370</ele>
        <time>2020-09-02T11:44:12Z</time>
      </trkpt>
      <trkpt lat="48.16702" lon="6.36004">
        <ele>371</ele>
        <time>2020-09-02T11:44:18Z</time>
      </trkpt>
      <trkpt lat="48.16685" lon="6.35987">
        <ele>371</ele>
        <time>2020-09-02T11:44:22Z</time>
      </trkpt>
      <trkpt lat="48.16684" lon="6.35976">
        <ele>370</ele>
        <time>2020-09-02T11:44:23Z</time>
      </trkpt>
      <trkpt lat="48.16721" lon="6.35959">
        <ele>369</ele>
        <time>2020-09-02T11:44:30Z</time>
      </trkpt>
      <trkpt lat="48.16749" lon="6.3593">
        <ele>367</ele>
        <time>2020-09-02T11:44:36Z</time>
      </trkpt>
      <trkpt lat="48.16772" lon="6.35919">
        <ele>367</ele>
        <time>2020-09-02T11:44:41Z</time>
      </trkpt>
      <trkpt lat="48.16849" lon="6.35908">
        <ele>364</ele>
        <time>2020-09-02T11:44:54Z</time>
      </trkpt>
      <trkpt lat="48.1692" lon="6.35873">
        <ele>360</ele>
        <time>2020-09-02T11:45:08Z</time>
      </trkpt>
      <trkpt lat="48.16965" lon="6.35881">
        <ele>363</ele>
        <time>2020-09-02T11:45:16Z</time>
      </trkpt>
      <trkpt lat="48.16961" lon="6.35852">
        <ele>362</ele>
        <time>2020-09-02T11:45:19Z</time>
      </trkpt>
      <trkpt lat="48.1692" lon="6.35873">
        <ele>360</ele>
        <time>2020-09-02T11:45:27Z</time>
      </trkpt>
      <trkpt lat="48.16965" lon="6.35881">
        <ele>363</ele>
        <time>2020-09-02T11:45:35Z</time>
      </trkpt>
      <trkpt lat="48.16927" lon="6.35516">
        <ele>358</ele>
        <time>2020-09-02T11:46:19Z</time>
      </trkpt>
      <trkpt lat="48.1696" lon="6.35505">
        <ele>357</ele>
        <time>2020-09-02T11:46:25Z</time>
      </trkpt>
      <trkpt lat="48.17" lon="6.35449">
        <ele>357</ele>
        <time>2020-09-02T11:46:35Z</time>
      </trkpt>
      <trkpt lat="48.16976" lon="6.35382">
        <ele>359</ele>
        <time>2020-09-02T11:46:44Z</time>
      </trkpt>
      <trkpt lat="48.16968" lon="6.35278">
        <ele>360</ele>
        <time>2020-09-02T11:46:56Z</time>
      </trkpt>
      <trkpt lat="48.1701" lon="6.35168">
        <ele>359</ele>
        <time>2020-09-02T11:47:11Z</time>
      </trkpt>
      <trkpt lat="48.17032" lon="6.35119">
        <ele>360</ele>
        <time>2020-09-02T11:47:18Z</time>
      </trkpt>
      <trkpt lat="48.17146" lon="6.34892">
        <ele>362</ele>
        <time>2020-09-02T11:47:52Z</time>
      </trkpt>
      <trkpt lat="48.17214" lon="6.34749">
        <ele>361</ele>
        <time>2020-09-02T11:48:13Z</time>
      </trkpt>
      <trkpt lat="48.17272" lon="6.34641">
        <ele>361</ele>
        <time>2020-09-02T11:48:29Z</time>
      </trkpt>
      <trkpt lat="48.17329" lon="6.34557">
        <ele>359</ele>
        <time>2020-09-02T11:48:43Z</time>
      </trkpt>
      <trkpt lat="48.17371" lon="6.3449">
        <ele>357</ele>
        <time>2020-09-02T11:48:54Z</time>
      </trkpt>
      <trkpt lat="48.17389" lon="6.34441">
        <ele>357</ele>
        <time>2020-09-02T11:49:01Z</time>
      </trkpt>
      <trkpt lat="48.17459" lon="6.34217">
        <ele>355</ele>
        <time>2020-09-02T11:49:30Z</time>
      </trkpt>
      <trkpt lat="48.17479" lon="6.3415">
        <ele>356</ele>
        <time>2020-09-02T11:49:39Z</time>
      </trkpt>
      <trkpt lat="48.1749" lon="6.34094">
        <ele>356</ele>
        <time>2020-09-02T11:49:46Z</time>
      </trkpt>
      <trkpt lat="48.17494" lon="6.34042">
        <ele>357</ele>
        <time>2020-09-02T11:49:52Z</time>
      </trkpt>
      <trkpt lat="48.1749" lon="6.33875">
        <ele>356</ele>
        <time>2020-09-02T11:50:12Z</time>
      </trkpt>
      <trkpt lat="48.17484" lon="6.33808">
        <ele>356</ele>
        <time>2020-09-02T11:50:20Z</time>
      </trkpt>
      <trkpt lat="48.17476" lon="6.33765">
        <ele>357</ele>
        <time>2020-09-02T11:50:25Z</time>
      </trkpt>
      <trkpt lat="48.17464" lon="6.33726">
        <ele>358</ele>
        <time>2020-09-02T11:50:30Z</time>
      </trkpt>
      <trkpt lat="48.17451" lon="6.33657">
        <ele>358</ele>
        <time>2020-09-02T11:50:39Z</time>
      </trkpt>
      <trkpt lat="48.17447" lon="6.33605">
        <ele>357</ele>
        <time>2020-09-02T11:50:45Z</time>
      </trkpt>
      <trkpt lat="48.17459" lon="6.33538">
        <ele>357</ele>
        <time>2020-09-02T11:50:53Z</time>
      </trkpt>
      <trkpt lat="48.17482" lon="6.33486">
        <ele>357</ele>
        <time>2020-09-02T11:51:01Z</time>
      </trkpt>
      <trkpt lat="48.17487" lon="6.33458">
        <ele>357</ele>
        <time>2020-09-02T11:51:04Z</time>
      </trkpt>
      <trkpt lat="48.17492" lon="6.33395">
        <ele>357</ele>
        <time>2020-09-02T11:51:12Z</time>
      </trkpt>
      <trkpt lat="48.17469" lon="6.33285">
        <ele>355</ele>
        <time>2020-09-02T11:51:25Z</time>
      </trkpt>
      <trkpt lat="48.17458" lon="6.33203">
        <ele>356</ele>
        <time>2020-09-02T11:51:35Z</time>
      </trkpt>
      <trkpt lat="48.17455" lon="6.3316">
        <ele>357</ele>
        <time>2020-09-02T11:51:40Z</time>
      </trkpt>
      <trkpt lat="48.17456" lon="6.33125">
        <ele>358</ele>
        <time>2020-09-02T11:51:45Z</time>
      </trkpt>
      <trkpt lat="48.17471" lon="6.33028">
        <ele>357</ele>
        <time>2020-09-02T11:51:56Z</time>
      </trkpt>
      <trkpt lat="48.17485" lon="6.3296">
        <ele>357</ele>
        <time>2020-09-02T11:52:05Z</time>
      </trkpt>
      <trkpt lat="48.17498" lon="6.3291">
        <ele>357</ele>
        <time>2020-09-02T11:52:11Z</time>
      </trkpt>
      <trkpt lat="48.17513" lon="6.32868">
        <ele>358</ele>
        <time>2020-09-02T11:52:17Z</time>
      </trkpt>
      <trkpt lat="48.17527" lon="6.32837">
        <ele>358</ele>
        <time>2020-09-02T11:52:21Z</time>
      </trkpt>
      <trkpt lat="48.1764" lon="6.32638">
        <ele>360</ele>
        <time>2020-09-02T11:52:52Z</time>
      </trkpt>
      <trkpt lat="48.17799" lon="6.32372">
        <ele>366</ele>
        <time>2020-09-02T11:53:35Z</time>
      </trkpt>
      <trkpt lat="48.17842" lon="6.32283">
        <ele>366</ele>
        <time>2020-09-02T11:53:48Z</time>
      </trkpt>
      <trkpt lat="48.17856" lon="6.32214">
        <ele>367</ele>
        <time>2020-09-02T11:53:56Z</time>
      </trkpt>
      <trkpt lat="48.17859" lon="6.32133">
        <ele>369</ele>
        <time>2020-09-02T11:54:06Z</time>
      </trkpt>
      <trkpt lat="48.17853" lon="6.32069">
        <ele>369</ele>
        <time>2020-09-02T11:54:14Z</time>
      </trkpt>
      <trkpt lat="48.17838" lon="6.32011">
        <ele>367</ele>
        <time>2020-09-02T11:54:21Z</time>
      </trkpt>
      <trkpt lat="48.17752" lon="6.31776">
        <ele>372</ele>
        <time>2020-09-02T11:54:53Z</time>
      </trkpt>
      <trkpt lat="48.17673" lon="6.31578">
        <ele>376</ele>
        <time>2020-09-02T11:55:20Z</time>
      </trkpt>
      <trkpt lat="48.17646" lon="6.31532">
        <ele>378</ele>
        <time>2020-09-02T11:55:27Z</time>
      </trkpt>
      <trkpt lat="48.17592" lon="6.31467">
        <ele>379</ele>
        <time>2020-09-02T11:55:40Z</time>
      </trkpt>
      <trkpt lat="48.1752" lon="6.31396">
        <ele>381</ele>
        <time>2020-09-02T11:55:55Z</time>
      </trkpt>
      <trkpt lat="48.17479" lon="6.31313">
        <ele>384</ele>
        <time>2020-09-02T11:56:07Z</time>
      </trkpt>
      <trkpt lat="48.17428" lon="6.3119">
        <ele>381</ele>
        <time>2020-09-02T11:56:24Z</time>
      </trkpt>
      <trkpt lat="48.17396" lon="6.31073">
        <ele>380</ele>
        <time>2020-09-02T11:56:39Z</time>
      </trkpt>
      <trkpt lat="48.17385" lon="6.30988">
        <ele>381</ele>
        <time>2020-09-02T11:56:50Z</time>
      </trkpt>
      <trkpt lat="48.1738" lon="6.30904">
        <ele>378</ele>
        <time>2020-09-02T11:57:00Z</time>
      </trkpt>
      <trkpt lat="48.1738" lon="6.30744">
        <ele>374</ele>
        <time>2020-09-02T11:57:19Z</time>
      </trkpt>
      <trkpt lat="48.17376" lon="6.30622">
        <ele>371</ele>
        <time>2020-09-02T11:57:33Z</time>
      </trkpt>
      <trkpt lat="48.17356" lon="6.3052">
        <ele>369</ele>
        <time>2020-09-02T11:57:46Z</time>
      </trkpt>
      <trkpt lat="48.17323" lon="6.30419">
        <ele>367</ele>
        <time>2020-09-02T11:57:59Z</time>
      </trkpt>
      <trkpt lat="48.17281" lon="6.30369">
        <ele>367</ele>
        <time>2020-09-02T11:58:09Z</time>
      </trkpt>
      <trkpt lat="48.17231" lon="6.30325">
        <ele>366</ele>
        <time>2020-09-02T11:58:19Z</time>
      </trkpt>
      <trkpt lat="48.17226" lon="6.30321">
        <ele>366</ele>
        <time>2020-09-02T11:58:20Z</time>
      </trkpt>
      <trkpt lat="48.1722" lon="6.30333">
        <ele>366</ele>
        <time>2020-09-02T11:58:22Z</time>
      </trkpt>
      <trkpt lat="48.17124" lon="6.30291">
        <ele>364</ele>
        <time>2020-09-02T11:58:40Z</time>
      </trkpt>
      <trkpt lat="48.17072" lon="6.30272">
        <ele>362</ele>
        <time>2020-09-02T11:58:49Z</time>
      </trkpt>
      <trkpt lat="48.17054" lon="6.30269">
        <ele>362</ele>
        <time>2020-09-02T11:58:52Z</time>
      </trkpt>
      <trkpt lat="48.17026" lon="6.30268">
        <ele>361</ele>
        <time>2020-09-02T11:58:57Z</time>
      </trkpt>
      <trkpt lat="48.16945" lon="6.30274">
        <ele>361</ele>
        <time>2020-09-02T11:59:12Z</time>
      </trkpt>
      <trkpt lat="48.16835" lon="6.30288">
        <ele>360</ele>
        <time>2020-09-02T11:59:31Z</time>
      </trkpt>
      <trkpt lat="48.16806" lon="6.30285">
        <ele>360</ele>
        <time>2020-09-02T11:59:37Z</time>
      </trkpt>
      <trkpt lat="48.16792" lon="6.30286">
        <ele>360</ele>
        <time>2020-09-02T11:59:39Z</time>
      </trkpt>
      <trkpt lat="48.16806" lon="6.30285">
        <ele>360</ele>
        <time>2020-09-02T11:59:42Z</time>
      </trkpt>
      <trkpt lat="48.16805" lon="6.30322">
        <ele>359</ele>
        <time>2020-09-02T11:59:46Z</time>
      </trkpt>
      <trkpt lat="48.16799" lon="6.30325">
        <ele>359</ele>
        <time>2020-09-02T11:59:47Z</time>
      </trkpt>
      <trkpt lat="48.16732" lon="6.30329">
        <ele>359</ele>
        <time>2020-09-02T11:59:59Z</time>
      </trkpt>
      <trkpt lat="48.16699" lon="6.30337">
        <ele>359</ele>
        <time>2020-09-02T12:00:05Z</time>
      </trkpt>
      <trkpt lat="48.16672" lon="6.30348">
        <ele>360</ele>
        <time>2020-09-02T12:00:10Z</time>
      </trkpt>
      <trkpt lat="48.16552" lon="6.30411">
        <ele>357</ele>
        <time>2020-09-02T12:00:33Z</time>
      </trkpt>
      <trkpt lat="48.16397" lon="6.30488">
        <ele>357</ele>
        <time>2020-09-02T12:01:02Z</time>
      </trkpt>
      <trkpt lat="48.16374" lon="6.30495">
        <ele>356</ele>
        <time>2020-09-02T12:01:06Z</time>
      </trkpt>
      <trkpt lat="48.16337" lon="6.30522">
        <ele>355</ele>
        <time>2020-09-02T12:01:13Z</time>
      </trkpt>
      <trkpt lat="48.15515" lon="6.30935">
        <ele>358</ele>
        <time>2020-09-02T12:03:47Z</time>
      </trkpt>
      <trkpt lat="48.15475" lon="6.30962">
        <ele>358</ele>
        <time>2020-09-02T12:03:55Z</time>
      </trkpt>
      <trkpt lat="48.15445" lon="6.3099">
        <ele>357</ele>
        <time>2020-09-02T12:04:01Z</time>
      </trkpt>
      <trkpt lat="48.15413" lon="6.31027">
        <ele>358</ele>
        <time>2020-09-02T12:04:09Z</time>
      </trkpt>
      <trkpt lat="48.15384" lon="6.31069">
        <ele>359</ele>
        <time>2020-09-02T12:04:16Z</time>
      </trkpt>
      <trkpt lat="48.15356" lon="6.31118">
        <ele>357</ele>
        <time>2020-09-02T12:04:24Z</time>
      </trkpt>
      <trkpt lat="48.15312" lon="6.31204">
        <ele>354</ele>
        <time>2020-09-02T12:04:36Z</time>
      </trkpt>
      <trkpt lat="48.15303" lon="6.31237">
        <ele>353</ele>
        <time>2020-09-02T12:04:41Z</time>
      </trkpt>
      <trkpt lat="48.15148" lon="6.31566">
        <ele>354</ele>
        <time>2020-09-02T12:05:28Z</time>
      </trkpt>
      <trkpt lat="48.1512" lon="6.31616">
        <ele>354</ele>
        <time>2020-09-02T12:05:36Z</time>
      </trkpt>
      <trkpt lat="48.15068" lon="6.3172">
        <ele>353</ele>
        <time>2020-09-02T12:05:52Z</time>
      </trkpt>
      <trkpt lat="48.15054" lon="6.31744">
        <ele>353</ele>
        <time>2020-09-02T12:05:55Z</time>
      </trkpt>
      <trkpt lat="48.15025" lon="6.31782">
        <ele>353</ele>
        <time>2020-09-02T12:06:02Z</time>
      </trkpt>
      <trkpt lat="48.14965" lon="6.31847">
        <ele>351</ele>
        <time>2020-09-02T12:06:15Z</time>
      </trkpt>
      <trkpt lat="48.14941" lon="6.31889">
        <ele>351</ele>
        <time>2020-09-02T12:06:22Z</time>
      </trkpt>
      <trkpt lat="48.14899" lon="6.31935">
        <ele>351</ele>
        <time>2020-09-02T12:06:31Z</time>
      </trkpt>
      <trkpt lat="48.1487" lon="6.31957">
        <ele>351</ele>
        <time>2020-09-02T12:06:37Z</time>
      </trkpt>
      <trkpt lat="48.1482" lon="6.31985">
        <ele>352</ele>
        <time>2020-09-02T12:06:47Z</time>
      </trkpt>
      <trkpt lat="48.1461" lon="6.32096">
        <ele>353</ele>
        <time>2020-09-02T12:07:26Z</time>
      </trkpt>
      <trkpt lat="48.14558" lon="6.32129">
        <ele>355</ele>
        <time>2020-09-02T12:07:36Z</time>
      </trkpt>
      <trkpt lat="48.14431" lon="6.32193">
        <ele>355</ele>
        <time>2020-09-02T12:08:00Z</time>
      </trkpt>
      <trkpt lat="48.14321" lon="6.32255">
        <ele>355</ele>
        <time>2020-09-02T12:08:21Z</time>
      </trkpt>
      <trkpt lat="48.14215" lon="6.32291">
        <ele>352</ele>
        <time>2020-09-02T12:08:40Z</time>
      </trkpt>
      <trkpt lat="48.14119" lon="6.32338">
        <ele>350</ele>
        <time>2020-09-02T12:08:58Z</time>
      </trkpt>
      <trkpt lat="48.13992" lon="6.32406">
        <ele>350</ele>
        <time>2020-09-02T12:09:22Z</time>
      </trkpt>
      <trkpt lat="48.13968" lon="6.32416">
        <ele>349</ele>
        <time>2020-09-02T12:09:27Z</time>
      </trkpt>
      <trkpt lat="48.13948" lon="6.32418">
        <ele>349</ele>
        <time>2020-09-02T12:09:30Z</time>
      </trkpt>
      <trkpt lat="48.13913" lon="6.32438">
        <ele>349</ele>
        <time>2020-09-02T12:09:37Z</time>
      </trkpt>
      <trkpt lat="48.1391" lon="6.32449">
        <ele>349</ele>
        <time>2020-09-02T12:09:38Z</time>
      </trkpt>
      <trkpt lat="48.13905" lon="6.32452">
        <ele>349</ele>
        <time>2020-09-02T12:09:39Z</time>
      </trkpt>
      <trkpt lat="48.13811" lon="6.32496">
        <ele>350</ele>
        <time>2020-09-02T12:09:57Z</time>
      </trkpt>
      <trkpt lat="48.13773" lon="6.32505">
        <ele>350</ele>
        <time>2020-09-02T12:10:04Z</time>
      </trkpt>
      <trkpt lat="48.13765" lon="6.32505">
        <ele>350</ele>
        <time>2020-09-02T12:10:05Z</time>
      </trkpt>
      <trkpt lat="48.13725" lon="6.32491">
        <ele>352</ele>
        <time>2020-09-02T12:10:12Z</time>
      </trkpt>
      <trkpt lat="48.13649" lon="6.3245">
        <ele>353</ele>
        <time>2020-09-02T12:10:27Z</time>
      </trkpt>
      <trkpt lat="48.13617" lon="6.32446">
        <ele>356</ele>
        <time>2020-09-02T12:10:32Z</time>
      </trkpt>
      <trkpt lat="48.1358" lon="6.32456">
        <ele>359</ele>
        <time>2020-09-02T12:10:39Z</time>
      </trkpt>
      <trkpt lat="48.13565" lon="6.32467">
        <ele>360</ele>
        <time>2020-09-02T12:10:42Z</time>
      </trkpt>
      <trkpt lat="48.13525" lon="6.32508">
        <ele>358</ele>
        <time>2020-09-02T12:10:51Z</time>
      </trkpt>
      <trkpt lat="48.13486" lon="6.32537">
        <ele>358</ele>
        <time>2020-09-02T12:10:58Z</time>
      </trkpt>
      <trkpt lat="48.13446" lon="6.32583">
        <ele>356</ele>
        <time>2020-09-02T12:11:07Z</time>
      </trkpt>
      <trkpt lat="48.13316" lon="6.32705">
        <ele>362</ele>
        <time>2020-09-02T12:11:35Z</time>
      </trkpt>
      <trkpt lat="48.13297" lon="6.32717">
        <ele>363</ele>
        <time>2020-09-02T12:11:38Z</time>
      </trkpt>
      <trkpt lat="48.13081" lon="6.32805">
        <ele>352</ele>
        <time>2020-09-02T12:12:18Z</time>
      </trkpt>
      <trkpt lat="48.13066" lon="6.32819">
        <ele>353</ele>
        <time>2020-09-02T12:12:21Z</time>
      </trkpt>
      <trkpt lat="48.13033" lon="6.32862">
        <ele>354</ele>
        <time>2020-09-02T12:12:29Z</time>
      </trkpt>
      <trkpt lat="48.13016" lon="6.32908">
        <ele>355</ele>
        <time>2020-09-02T12:12:35Z</time>
      </trkpt>
      <trkpt lat="48.12988" lon="6.32952">
        <ele>357</ele>
        <time>2020-09-02T12:12:43Z</time>
      </trkpt>
      <trkpt lat="48.12973" lon="6.32963">
        <ele>357</ele>
        <time>2020-09-02T12:12:46Z</time>
      </trkpt>
      <trkpt lat="48.12953" lon="6.32973">
        <ele>358</ele>
        <time>2020-09-02T12:12:49Z</time>
      </trkpt>
      <trkpt lat="48.1294" lon="6.32975">
        <ele>359</ele>
        <time>2020-09-02T12:12:52Z</time>
      </trkpt>
      <trkpt lat="48.1292" lon="6.32972">
        <ele>359</ele>
        <time>2020-09-02T12:12:55Z</time>
      </trkpt>
      <trkpt lat="48.12876" lon="6.32958">
        <ele>358</ele>
        <time>2020-09-02T12:13:03Z</time>
      </trkpt>
      <trkpt lat="48.12832" lon="6.32939">
        <ele>356</ele>
        <time>2020-09-02T12:13:11Z</time>
      </trkpt>
      <trkpt lat="48.12819" lon="6.32936">
        <ele>355</ele>
        <time>2020-09-02T12:13:14Z</time>
      </trkpt>
      <trkpt lat="48.12748" lon="6.32946">
        <ele>357</ele>
        <time>2020-09-02T12:13:26Z</time>
      </trkpt>
      <trkpt lat="48.12673" lon="6.32968">
        <ele>358</ele>
        <time>2020-09-02T12:13:40Z</time>
      </trkpt>
      <trkpt lat="48.12576" lon="6.33001">
        <ele>353</ele>
        <time>2020-09-02T12:13:58Z</time>
      </trkpt>
      <trkpt lat="48.12536" lon="6.33025">
        <ele>353</ele>
        <time>2020-09-02T12:14:05Z</time>
      </trkpt>
      <trkpt lat="48.12492" lon="6.33063">
        <ele>354</ele>
        <time>2020-09-02T12:14:14Z</time>
      </trkpt>
      <trkpt lat="48.12471" lon="6.33075">
        <ele>355</ele>
        <time>2020-09-02T12:14:18Z</time>
      </trkpt>
      <trkpt lat="48.1244" lon="6.33082">
        <ele>355</ele>
        <time>2020-09-02T12:14:24Z</time>
      </trkpt>
      <trkpt lat="48.12426" lon="6.33081">
        <ele>355</ele>
        <time>2020-09-02T12:14:27Z</time>
      </trkpt>
      <trkpt lat="48.12405" lon="6.33076">
        <ele>355</ele>
        <time>2020-09-02T12:14:30Z</time>
      </trkpt>
      <trkpt lat="48.12351" lon="6.33054">
        <ele>354</ele>
        <time>2020-09-02T12:14:40Z</time>
      </trkpt>
      <trkpt lat="48.12333" lon="6.33054">
        <ele>354</ele>
        <time>2020-09-02T12:14:43Z</time>
      </trkpt>
      <trkpt lat="48.12257" lon="6.33065">
        <ele>351</ele>
        <time>2020-09-02T12:14:57Z</time>
      </trkpt>
      <trkpt lat="48.12225" lon="6.33073">
        <ele>351</ele>
        <time>2020-09-02T12:15:03Z</time>
      </trkpt>
      <trkpt lat="48.12143" lon="6.33116">
        <ele>353</ele>
        <time>2020-09-02T12:15:18Z</time>
      </trkpt>
      <trkpt lat="48.12125" lon="6.3312">
        <ele>353</ele>
        <time>2020-09-02T12:15:22Z</time>
      </trkpt>
      <trkpt lat="48.12111" lon="6.3312">
        <ele>352</ele>
        <time>2020-09-02T12:15:24Z</time>
      </trkpt>
      <trkpt lat="48.1208" lon="6.33115">
        <ele>351</ele>
        <time>2020-09-02T12:15:30Z</time>
      </trkpt>
      <trkpt lat="48.12057" lon="6.33115">
        <ele>351</ele>
        <time>2020-09-02T12:15:34Z</time>
      </trkpt>
      <trkpt lat="48.12019" lon="6.33123">
        <ele>351</ele>
        <time>2020-09-02T12:15:40Z</time>
      </trkpt>
      <trkpt lat="48.11872" lon="6.33142">
        <ele>351</ele>
        <time>2020-09-02T12:16:07Z</time>
      </trkpt>
      <trkpt lat="48.11851" lon="6.33142">
        <ele>350</ele>
        <time>2020-09-02T12:16:10Z</time>
      </trkpt>
      <trkpt lat="48.1183" lon="6.33146">
        <ele>349</ele>
        <time>2020-09-02T12:16:14Z</time>
      </trkpt>
      <trkpt lat="48.11764" lon="6.33183">
        <ele>349</ele>
        <time>2020-09-02T12:16:27Z</time>
      </trkpt>
      <trkpt lat="48.11749" lon="6.33188">
        <ele>349</ele>
        <time>2020-09-02T12:16:30Z</time>
      </trkpt>
      <trkpt lat="48.11737" lon="6.33189">
        <ele>349</ele>
        <time>2020-09-02T12:16:32Z</time>
      </trkpt>
      <trkpt lat="48.11691" lon="6.33185">
        <ele>346</ele>
        <time>2020-09-02T12:16:40Z</time>
      </trkpt>
      <trkpt lat="48.11653" lon="6.33172">
        <ele>343</ele>
        <time>2020-09-02T12:16:47Z</time>
      </trkpt>
      <trkpt lat="48.11611" lon="6.33149">
        <ele>343</ele>
        <time>2020-09-02T12:16:55Z</time>
      </trkpt>
      <trkpt lat="48.11444" lon="6.33107">
        <ele>335</ele>
        <time>2020-09-02T12:17:25Z</time>
      </trkpt>
      <trkpt lat="48.11423" lon="6.33097">
        <ele>332</ele>
        <time>2020-09-02T12:17:29Z</time>
      </trkpt>
      <trkpt lat="48.11409" lon="6.33086">
        <ele>331</ele>
        <time>2020-09-02T12:17:32Z</time>
      </trkpt>
      <trkpt lat="48.11395" lon="6.33067">
        <ele>333</ele>
        <time>2020-09-02T12:17:35Z</time>
      </trkpt>
      <trkpt lat="48.11379" lon="6.33038">
        <ele>334</ele>
        <time>2020-09-02T12:17:39Z</time>
      </trkpt>
      <trkpt lat="48.1134" lon="6.32915">
        <ele>332</ele>
        <time>2020-09-02T12:17:56Z</time>
      </trkpt>
      <trkpt lat="48.11313" lon="6.32859">
        <ele>335</ele>
        <time>2020-09-02T12:18:04Z</time>
      </trkpt>
      <trkpt lat="48.11295" lon="6.32813">
        <ele>336</ele>
        <time>2020-09-02T12:18:10Z</time>
      </trkpt>
      <trkpt lat="48.11276" lon="6.32775">
        <ele>336</ele>
        <time>2020-09-02T12:18:16Z</time>
      </trkpt>
      <trkpt lat="48.11243" lon="6.32742">
        <ele>334</ele>
        <time>2020-09-02T12:18:23Z</time>
      </trkpt>
      <trkpt lat="48.11204" lon="6.32725">
        <ele>334</ele>
        <time>2020-09-02T12:18:30Z</time>
      </trkpt>
      <trkpt lat="48.11169" lon="6.32721">
        <ele>335</ele>
        <time>2020-09-02T12:18:36Z</time>
      </trkpt>
      <trkpt lat="48.1111" lon="6.32709">
        <ele>336</ele>
        <time>2020-09-02T12:18:47Z</time>
      </trkpt>
      <trkpt lat="48.1095" lon="6.32624">
        <ele>329</ele>
        <time>2020-09-02T12:19:17Z</time>
      </trkpt>
      <trkpt lat="48.10916" lon="6.32612">
        <ele>326</ele>
        <time>2020-09-02T12:19:23Z</time>
      </trkpt>
      <trkpt lat="48.10886" lon="6.32598">
        <ele>325</ele>
        <time>2020-09-02T12:19:29Z</time>
      </trkpt>
      <trkpt lat="48.10853" lon="6.3257">
        <ele>325</ele>
        <time>2020-09-02T12:19:36Z</time>
      </trkpt>
      <trkpt lat="48.10832" lon="6.32508">
        <ele>323</ele>
        <time>2020-09-02T12:19:44Z</time>
      </trkpt>
      <trkpt lat="48.10784" lon="6.32225">
        <ele>323</ele>
        <time>2020-09-02T12:20:19Z</time>
      </trkpt>
      <trkpt lat="48.1078" lon="6.32117">
        <ele>324</ele>
        <time>2020-09-02T12:20:31Z</time>
      </trkpt>
      <trkpt lat="48.10788" lon="6.31787">
        <ele>326</ele>
        <time>2020-09-02T12:21:11Z</time>
      </trkpt>
      <trkpt lat="48.10785" lon="6.31761">
        <ele>326</ele>
        <time>2020-09-02T12:21:14Z</time>
      </trkpt>
      <trkpt lat="48.10775" lon="6.31738">
        <ele>325</ele>
        <time>2020-09-02T12:21:17Z</time>
      </trkpt>
      <trkpt lat="48.10728" lon="6.31676">
        <ele>324</ele>
        <time>2020-09-02T12:21:28Z</time>
      </trkpt>
      <trkpt lat="48.10643" lon="6.31584">
        <ele>323</ele>
        <time>2020-09-02T12:21:47Z</time>
      </trkpt>
      <trkpt lat="48.10544" lon="6.31489">
        <ele>322</ele>
        <time>2020-09-02T12:22:08Z</time>
      </trkpt>
      <trkpt lat="48.10512" lon="6.3147">
        <ele>322</ele>
        <time>2020-09-02T12:22:14Z</time>
      </trkpt>
      <trkpt lat="48.10465" lon="6.31455">
        <ele>322</ele>
        <time>2020-09-02T12:22:22Z</time>
      </trkpt>
      <trkpt lat="48.10432" lon="6.31462">
        <ele>321</ele>
        <time>2020-09-02T12:22:28Z</time>
      </trkpt>
      <trkpt lat="48.10395" lon="6.31479">
        <ele>321</ele>
        <time>2020-09-02T12:22:35Z</time>
      </trkpt>
      <trkpt lat="48.10276" lon="6.31542">
        <ele>324</ele>
        <time>2020-09-02T12:22:58Z</time>
      </trkpt>
      <trkpt lat="48.10223" lon="6.31565">
        <ele>322</ele>
        <time>2020-09-02T12:23:08Z</time>
      </trkpt>
      <trkpt lat="48.1019" lon="6.31574">
        <ele>320</ele>
        <time>2020-09-02T12:23:14Z</time>
      </trkpt>
      <trkpt lat="48.10023" lon="6.31605">
        <ele>319</ele>
        <time>2020-09-02T12:23:44Z</time>
      </trkpt>
      <trkpt lat="48.09762" lon="6.31638">
        <ele>316</ele>
        <time>2020-09-02T12:24:30Z</time>
      </trkpt>
      <trkpt lat="48.09468" lon="6.31679">
        <ele>314</ele>
        <time>2020-09-02T12:25:23Z</time>
      </trkpt>
      <trkpt lat="48.0944" lon="6.3168">
        <ele>314</ele>
        <time>2020-09-02T12:25:28Z</time>
      </trkpt>
      <trkpt lat="48.09411" lon="6.31673">
        <ele>315</ele>
        <time>2020-09-02T12:25:33Z</time>
      </trkpt>
      <trkpt lat="48.09388" lon="6.31663">
        <ele>316</ele>
        <time>2020-09-02T12:25:37Z</time>
      </trkpt>
      <trkpt lat="48.09365" lon="6.31636">
        <ele>317</ele>
        <time>2020-09-02T12:25:42Z</time>
      </trkpt>
      <trkpt lat="48.09349" lon="6.31612">
        <ele>317</ele>
        <time>2020-09-02T12:25:46Z</time>
      </trkpt>
      <trkpt lat="48.09333" lon="6.31576">
        <ele>316</ele>
        <time>2020-09-02T12:25:51Z</time>
      </trkpt>
      <trkpt lat="48.09258" lon="6.31323">
        <ele>313</ele>
        <time>2020-09-02T12:26:24Z</time>
      </trkpt>
      <trkpt lat="48.09228" lon="6.31233">
        <ele>314</ele>
        <time>2020-09-02T12:26:36Z</time>
      </trkpt>
      <trkpt lat="48.09195" lon="6.31174">
        <ele>316</ele>
        <time>2020-09-02T12:26:45Z</time>
      </trkpt>
      <trkpt lat="48.08919" lon="6.3082">
        <ele>311</ele>
        <time>2020-09-02T12:27:50Z</time>
      </trkpt>
      <trkpt lat="48.08895" lon="6.30796">
        <ele>311</ele>
        <time>2020-09-02T12:27:55Z</time>
      </trkpt>
      <trkpt lat="48.08863" lon="6.3077">
        <ele>311</ele>
        <time>2020-09-02T12:28:02Z</time>
      </trkpt>
      <trkpt lat="48.08632" lon="6.30604">
        <ele>310</ele>
        <time>2020-09-02T12:28:47Z</time>
      </trkpt>
      <trkpt lat="48.08467" lon="6.30403">
        <ele>306</ele>
        <time>2020-09-02T12:29:25Z</time>
      </trkpt>
      <trkpt lat="48.08463" lon="6.30409">
        <ele>306</ele>
        <time>2020-09-02T12:29:26Z</time>
      </trkpt>
      <trkpt lat="48.08395" lon="6.30312">
        <ele>307</ele>
        <time>2020-09-02T12:29:43Z</time>
      </trkpt>
      <trkpt lat="48.08163" lon="6.29899">
        <ele>306</ele>
        <time>2020-09-02T12:30:47Z</time>
      </trkpt>
      <trkpt lat="48.08124" lon="6.29824">
        <ele>306</ele>
        <time>2020-09-02T12:30:58Z</time>
      </trkpt>
      <trkpt lat="48.08007" lon="6.29618">
        <ele>306</ele>
        <time>2020-09-02T12:31:31Z</time>
      </trkpt>
      <trkpt lat="48.07943" lon="6.29512">
        <ele>306</ele>
        <time>2020-09-02T12:31:47Z</time>
      </trkpt>
      <trkpt lat="48.07924" lon="6.29485">
        <ele>305</ele>
        <time>2020-09-02T12:31:52Z</time>
      </trkpt>
      <trkpt lat="48.07879" lon="6.2944">
        <ele>305</ele>
        <time>2020-09-02T12:32:02Z</time>
      </trkpt>
      <trkpt lat="48.07844" lon="6.29421">
        <ele>304</ele>
        <time>2020-09-02T12:32:08Z</time>
      </trkpt>
      <trkpt lat="48.07808" lon="6.29407">
        <ele>305</ele>
        <time>2020-09-02T12:32:15Z</time>
      </trkpt>
      <trkpt lat="48.075" lon="6.29345">
        <ele>305</ele>
        <time>2020-09-02T12:33:10Z</time>
      </trkpt>
      <trkpt lat="48.0747" lon="6.29326">
        <ele>305</ele>
        <time>2020-09-02T12:33:16Z</time>
      </trkpt>
      <trkpt lat="48.07453" lon="6.29308">
        <ele>306</ele>
        <time>2020-09-02T12:33:20Z</time>
      </trkpt>
      <trkpt lat="48.0744" lon="6.29288">
        <ele>306</ele>
        <time>2020-09-02T12:33:23Z</time>
      </trkpt>
      <trkpt lat="48.07422" lon="6.29247">
        <ele>305</ele>
        <time>2020-09-02T12:33:29Z</time>
      </trkpt>
      <trkpt lat="48.07292" lon="6.28841">
        <ele>306</ele>
        <time>2020-09-02T12:34:22Z</time>
      </trkpt>
      <trkpt lat="48.07263" lon="6.28771">
        <ele>304</ele>
        <time>2020-09-02T12:34:32Z</time>
      </trkpt>
      <trkpt lat="48.07235" lon="6.28725">
        <ele>303</ele>
        <time>2020-09-02T12:34:40Z</time>
      </trkpt>
      <trkpt lat="48.06975" lon="6.28339">
        <ele>306</ele>
        <time>2020-09-02T12:35:45Z</time>
      </trkpt>
      <trkpt lat="48.06947" lon="6.28309">
        <ele>306</ele>
        <time>2020-09-02T12:35:51Z</time>
      </trkpt>
      <trkpt lat="48.06809" lon="6.28194">
        <ele>305</ele>
        <time>2020-09-02T12:36:19Z</time>
      </trkpt>
      <trkpt lat="48.06749" lon="6.28129">
        <ele>303</ele>
        <time>2020-09-02T12:36:32Z</time>
      </trkpt>
      <trkpt lat="48.06713" lon="6.28067">
        <ele>307</ele>
        <time>2020-09-02T12:36:42Z</time>
      </trkpt>
      <trkpt lat="48.06675" lon="6.27975">
        <ele>302</ele>
        <time>2020-09-02T12:36:55Z</time>
      </trkpt>
      <trkpt lat="48.06583" lon="6.27708">
        <ele>298</ele>
        <time>2020-09-02T12:37:31Z</time>
      </trkpt>
      <trkpt lat="48.06572" lon="6.2769">
        <ele>298</ele>
        <time>2020-09-02T12:37:33Z</time>
      </trkpt>
      <trkpt lat="48.06526" lon="6.27575">
        <ele>298</ele>
        <time>2020-09-02T12:37:49Z</time>
      </trkpt>
      <trkpt lat="48.06511" lon="6.27553">
        <ele>297</ele>
        <time>2020-09-02T12:37:53Z</time>
      </trkpt>
      <trkpt lat="48.06492" lon="6.27534">
        <ele>297</ele>
        <time>2020-09-02T12:37:57Z</time>
      </trkpt>
      <trkpt lat="48.06466" lon="6.27517">
        <ele>298</ele>
        <time>2020-09-02T12:38:02Z</time>
      </trkpt>
      <trkpt lat="48.06428" lon="6.27501">
        <ele>300</ele>
        <time>2020-09-02T12:38:09Z</time>
      </trkpt>
      <trkpt lat="48.06367" lon="6.2749">
        <ele>300</ele>
        <time>2020-09-02T12:38:20Z</time>
      </trkpt>
      <trkpt lat="48.06281" lon="6.27496">
        <ele>299</ele>
        <time>2020-09-02T12:38:36Z</time>
      </trkpt>
      <trkpt lat="48.06076" lon="6.27521">
        <ele>301</ele>
        <time>2020-09-02T12:39:12Z</time>
      </trkpt>
      <trkpt lat="48.06042" lon="6.27518">
        <ele>299</ele>
        <time>2020-09-02T12:39:18Z</time>
      </trkpt>
      <trkpt lat="48.06023" lon="6.27514">
        <ele>299</ele>
        <time>2020-09-02T12:39:22Z</time>
      </trkpt>
      <trkpt lat="48.05991" lon="6.27503">
        <ele>298</ele>
        <time>2020-09-02T12:39:27Z</time>
      </trkpt>
      <trkpt lat="48.05893" lon="6.27487">
        <ele>296</ele>
        <time>2020-09-02T12:39:45Z</time>
      </trkpt>
      <trkpt lat="48.05612" lon="6.27422">
        <ele>299</ele>
        <time>2020-09-02T12:40:36Z</time>
      </trkpt>
      <trkpt lat="48.05353" lon="6.27359">
        <ele>297</ele>
        <time>2020-09-02T12:41:22Z</time>
      </trkpt>
      <trkpt lat="48.05261" lon="6.27347">
        <ele>295</ele>
        <time>2020-09-02T12:41:39Z</time>
      </trkpt>
      <trkpt lat="48.05216" lon="6.27347">
        <ele>297</ele>
        <time>2020-09-02T12:41:47Z</time>
      </trkpt>
      <trkpt lat="48.05161" lon="6.27343">
        <ele>298</ele>
        <time>2020-09-02T12:41:57Z</time>
      </trkpt>
      <trkpt lat="48.05133" lon="6.27346">
        <ele>298</ele>
        <time>2020-09-02T12:42:02Z</time>
      </trkpt>
      <trkpt lat="48.05081" lon="6.27361">
        <ele>297</ele>
        <time>2020-09-02T12:42:11Z</time>
      </trkpt>
      <trkpt lat="48.04975" lon="6.27407">
        <ele>295</ele>
        <time>2020-09-02T12:42:31Z</time>
      </trkpt>
      <trkpt lat="48.0493" lon="6.27424">
        <ele>296</ele>
        <time>2020-09-02T12:42:39Z</time>
      </trkpt>
      <trkpt lat="48.04912" lon="6.27426">
        <ele>297</ele>
        <time>2020-09-02T12:42:42Z</time>
      </trkpt>
      <trkpt lat="48.04883" lon="6.2742">
        <ele>299</ele>
        <time>2020-09-02T12:42:47Z</time>
      </trkpt>
      <trkpt lat="48.04863" lon="6.27408">
        <ele>301</ele>
        <time>2020-09-02T12:42:51Z</time>
      </trkpt>
      <trkpt lat="48.04844" lon="6.27388">
        <ele>302</ele>
        <time>2020-09-02T12:42:55Z</time>
      </trkpt>
      <trkpt lat="48.04827" lon="6.27358">
        <ele>303</ele>
        <time>2020-09-02T12:43:00Z</time>
      </trkpt>
      <trkpt lat="48.0469" lon="6.27056">
        <ele>300</ele>
        <time>2020-09-02T12:43:43Z</time>
      </trkpt>
      <trkpt lat="48.04654" lon="6.26983">
        <ele>295</ele>
        <time>2020-09-02T12:43:54Z</time>
      </trkpt>
      <trkpt lat="48.04526" lon="6.26769">
        <ele>296</ele>
        <time>2020-09-02T12:44:28Z</time>
      </trkpt>
      <trkpt lat="48.04496" lon="6.26698">
        <ele>296</ele>
        <time>2020-09-02T12:44:38Z</time>
      </trkpt>
      <trkpt lat="48.04475" lon="6.26606">
        <ele>298</ele>
        <time>2020-09-02T12:44:50Z</time>
      </trkpt>
      <trkpt lat="48.04464" lon="6.26511">
        <ele>299</ele>
        <time>2020-09-02T12:45:01Z</time>
      </trkpt>
      <trkpt lat="48.04452" lon="6.26458">
        <ele>300</ele>
        <time>2020-09-02T12:45:08Z</time>
      </trkpt>
      <trkpt lat="48.04446" lon="6.26399">
        <ele>301</ele>
        <time>2020-09-02T12:45:15Z</time>
      </trkpt>
      <trkpt lat="48.04415" lon="6.26173">
        <ele>296</ele>
        <time>2020-09-02T12:45:42Z</time>
      </trkpt>
      <trkpt lat="48.04408" lon="6.26134">
        <ele>298</ele>
        <time>2020-09-02T12:45:47Z</time>
      </trkpt>
      <trkpt lat="48.044" lon="6.26105">
        <ele>299</ele>
        <time>2020-09-02T12:45:51Z</time>
      </trkpt>
      <trkpt lat="48.04373" lon="6.26052">
        <ele>301</ele>
        <time>2020-09-02T12:45:59Z</time>
      </trkpt>
      <trkpt lat="48.04322" lon="6.25991">
        <ele>300</ele>
        <time>2020-09-02T12:46:11Z</time>
      </trkpt>
      <trkpt lat="48.04242" lon="6.25906">
        <ele>302</ele>
        <time>2020-09-02T12:46:28Z</time>
      </trkpt>
      <trkpt lat="48.04203" lon="6.25861">
        <ele>301</ele>
        <time>2020-09-02T12:46:37Z</time>
      </trkpt>
      <trkpt lat="48.04181" lon="6.2584">
        <ele>298</ele>
        <time>2020-09-02T12:46:41Z</time>
      </trkpt>
      <trkpt lat="48.04144" lon="6.2582">
        <ele>299</ele>
        <time>2020-09-02T12:46:48Z</time>
      </trkpt>
      <trkpt lat="48.04083" lon="6.25809">
        <ele>301</ele>
        <time>2020-09-02T12:46:59Z</time>
      </trkpt>
      <trkpt lat="48.0405" lon="6.25808">
        <ele>301</ele>
        <time>2020-09-02T12:47:05Z</time>
      </trkpt>
      <trkpt lat="48.04032" lon="6.25812">
        <ele>300</ele>
        <time>2020-09-02T12:47:08Z</time>
      </trkpt>
      <trkpt lat="48.04008" lon="6.25825">
        <ele>298</ele>
        <time>2020-09-02T12:47:13Z</time>
      </trkpt>
      <trkpt lat="48.03984" lon="6.2585">
        <ele>298</ele>
        <time>2020-09-02T12:47:18Z</time>
      </trkpt>
      <trkpt lat="48.03872" lon="6.2604">
        <ele>300</ele>
        <time>2020-09-02T12:47:48Z</time>
      </trkpt>
      <trkpt lat="48.03807" lon="6.26156">
        <ele>292</ele>
        <time>2020-09-02T12:48:06Z</time>
      </trkpt>
      <trkpt lat="48.03793" lon="6.26183">
        <ele>292</ele>
        <time>2020-09-02T12:48:10Z</time>
      </trkpt>
      <trkpt lat="48.0379" lon="6.26194">
        <ele>293</ele>
        <time>2020-09-02T12:48:12Z</time>
      </trkpt>
      <trkpt lat="48.03679" lon="6.26389">
        <ele>296</ele>
        <time>2020-09-02T12:48:42Z</time>
      </trkpt>
      <trkpt lat="48.03571" lon="6.26589">
        <ele>295</ele>
        <time>2020-09-02T12:49:13Z</time>
      </trkpt>
      <trkpt lat="48.03559" lon="6.26601">
        <ele>298</ele>
        <time>2020-09-02T12:49:15Z</time>
      </trkpt>
      <trkpt lat="48.03541" lon="6.26603">
        <ele>299</ele>
        <time>2020-09-02T12:49:19Z</time>
      </trkpt>
      <trkpt lat="48.03518" lon="6.26593">
        <ele>298</ele>
        <time>2020-09-02T12:49:23Z</time>
      </trkpt>
      <trkpt lat="48.03426" lon="6.26515">
        <ele>295</ele>
        <time>2020-09-02T12:49:42Z</time>
      </trkpt>
      <trkpt lat="48.02998" lon="6.26139">
        <ele>295</ele>
        <time>2020-09-02T12:51:10Z</time>
      </trkpt>
      <trkpt lat="48.02956" lon="6.26112">
        <ele>297</ele>
        <time>2020-09-02T12:51:18Z</time>
      </trkpt>
      <trkpt lat="48.02924" lon="6.261">
        <ele>297</ele>
        <time>2020-09-02T12:51:24Z</time>
      </trkpt>
      <trkpt lat="48.02893" lon="6.26092">
        <ele>294</ele>
        <time>2020-09-02T12:51:30Z</time>
      </trkpt>
      <trkpt lat="48.0287" lon="6.26088">
        <ele>292</ele>
        <time>2020-09-02T12:51:34Z</time>
      </trkpt>
      <trkpt lat="48.0285" lon="6.26088">
        <ele>290</ele>
        <time>2020-09-02T12:51:37Z</time>
      </trkpt>
      <trkpt lat="48.02791" lon="6.261">
        <ele>291</ele>
        <time>2020-09-02T12:51:48Z</time>
      </trkpt>
      <trkpt lat="48.02583" lon="6.26182">
        <ele>290</ele>
        <time>2020-09-02T12:52:26Z</time>
      </trkpt>
      <trkpt lat="48.02557" lon="6.26182">
        <ele>292</ele>
        <time>2020-09-02T12:52:31Z</time>
      </trkpt>
      <trkpt lat="48.02546" lon="6.26179">
        <ele>292</ele>
        <time>2020-09-02T12:52:33Z</time>
      </trkpt>
      <trkpt lat="48.02531" lon="6.26165">
        <ele>291</ele>
        <time>2020-09-02T12:52:36Z</time>
      </trkpt>
      <trkpt lat="48.02504" lon="6.2611">
        <ele>292</ele>
        <time>2020-09-02T12:52:44Z</time>
      </trkpt>
      <trkpt lat="48.0243" lon="6.25944">
        <ele>290</ele>
        <time>2020-09-02T12:53:08Z</time>
      </trkpt>
      <trkpt lat="48.02414" lon="6.25917">
        <ele>286</ele>
        <time>2020-09-02T12:53:12Z</time>
      </trkpt>
      <trkpt lat="48.02246" lon="6.25559">
        <ele>286</ele>
        <time>2020-09-02T12:54:04Z</time>
      </trkpt>
      <trkpt lat="48.02166" lon="6.25381">
        <ele>286</ele>
        <time>2020-09-02T12:54:30Z</time>
      </trkpt>
      <trkpt lat="48.02165" lon="6.2537">
        <ele>286</ele>
        <time>2020-09-02T12:54:31Z</time>
      </trkpt>
      <trkpt lat="48.02168" lon="6.25347">
        <ele>285</ele>
        <time>2020-09-02T12:54:34Z</time>
      </trkpt>
      <trkpt lat="48.02185" lon="6.25304">
        <ele>289</ele>
        <time>2020-09-02T12:54:40Z</time>
      </trkpt>
      <trkpt lat="48.02206" lon="6.25266">
        <ele>290</ele>
        <time>2020-09-02T12:54:46Z</time>
      </trkpt>
      <trkpt lat="48.02294" lon="6.25138">
        <ele>289</ele>
        <time>2020-09-02T12:55:07Z</time>
      </trkpt>
      <trkpt lat="48.02325" lon="6.25047">
        <ele>284</ele>
        <time>2020-09-02T12:55:20Z</time>
      </trkpt>
      <trkpt lat="48.02328" lon="6.25016">
        <ele>284</ele>
        <time>2020-09-02T12:55:23Z</time>
      </trkpt>
      <trkpt lat="48.02319" lon="6.24922">
        <ele>284</ele>
        <time>2020-09-02T12:55:35Z</time>
      </trkpt>
      <trkpt lat="48.02302" lon="6.24846">
        <ele>286</ele>
        <time>2020-09-02T12:55:44Z</time>
      </trkpt>
      <trkpt lat="48.02269" lon="6.24762">
        <ele>284</ele>
        <time>2020-09-02T12:55:56Z</time>
      </trkpt>
      <trkpt lat="48.02114" lon="6.24399">
        <ele>287</ele>
        <time>2020-09-02T12:56:47Z</time>
      </trkpt>
      <trkpt lat="48.0209" lon="6.2436">
        <ele>285</ele>
        <time>2020-09-02T12:56:53Z</time>
      </trkpt>
      <trkpt lat="48.02063" lon="6.24337">
        <ele>283</ele>
        <time>2020-09-02T12:56:59Z</time>
      </trkpt>
      <trkpt lat="48.02028" lon="6.24325">
        <ele>283</ele>
        <time>2020-09-02T12:57:05Z</time>
      </trkpt>
      <trkpt lat="48.01879" lon="6.24306">
        <ele>289</ele>
        <time>2020-09-02T12:57:32Z</time>
      </trkpt>
      <trkpt lat="48.01861" lon="6.243">
        <ele>289</ele>
        <time>2020-09-02T12:57:35Z</time>
      </trkpt>
      <trkpt lat="48.01838" lon="6.24285">
        <ele>289</ele>
        <time>2020-09-02T12:57:40Z</time>
      </trkpt>
      <trkpt lat="48.01784" lon="6.24234">
        <ele>286</ele>
        <time>2020-09-02T12:57:51Z</time>
      </trkpt>
      <trkpt lat="48.01693" lon="6.24142">
        <ele>286</ele>
        <time>2020-09-02T12:58:11Z</time>
      </trkpt>
      <trkpt lat="48.0162" lon="6.24075">
        <ele>281</ele>
        <time>2020-09-02T12:58:26Z</time>
      </trkpt>
      <trkpt lat="48.01589" lon="6.24043">
        <ele>279</ele>
        <time>2020-09-02T12:58:32Z</time>
      </trkpt>
      <trkpt lat="48.01552" lon="6.23998">
        <ele>278</ele>
        <time>2020-09-02T12:58:41Z</time>
      </trkpt>
      <trkpt lat="48.01543" lon="6.23992">
        <ele>278</ele>
        <time>2020-09-02T12:58:43Z</time>
      </trkpt>
      <trkpt lat="48.01495" lon="6.23971">
        <ele>277</ele>
        <time>2020-09-02T12:58:52Z</time>
      </trkpt>
      <trkpt lat="48.01471" lon="6.23965">
        <ele>280</ele>
        <time>2020-09-02T12:58:56Z</time>
      </trkpt>
      <trkpt lat="48.01415" lon="6.23938">
        <ele>283</ele>
        <time>2020-09-02T12:59:06Z</time>
      </trkpt>
      <trkpt lat="48.01334" lon="6.23888">
        <ele>279</ele>
        <time>2020-09-02T12:59:22Z</time>
      </trkpt>
      <trkpt lat="48.01248" lon="6.23857">
        <ele>278</ele>
        <time>2020-09-02T12:59:38Z</time>
      </trkpt>
      <trkpt lat="48.01227" lon="6.23854">
        <ele>279</ele>
        <time>2020-09-02T12:59:41Z</time>
      </trkpt>
      <trkpt lat="48.01238" lon="6.23855">
        <ele>279</ele>
        <time>2020-09-02T12:59:43Z</time>
      </trkpt>
      <trkpt lat="48.01357" lon="6.23904">
        <ele>280</ele>
        <time>2020-09-02T13:00:05Z</time>
      </trkpt>
      <trkpt lat="48.01382" lon="6.2393">
        <ele>283</ele>
        <time>2020-09-02T13:00:11Z</time>
      </trkpt>
      <trkpt lat="48.01547" lon="6.24008">
        <ele>277</ele>
        <time>2020-09-02T13:00:42Z</time>
      </trkpt>
      <trkpt lat="48.01537" lon="6.24038">
        <ele>278</ele>
        <time>2020-09-02T13:00:46Z</time>
      </trkpt>
      <trkpt lat="48.01519" lon="6.24074">
        <ele>281</ele>
        <time>2020-09-02T13:00:51Z</time>
      </trkpt>
      <trkpt lat="48.01506" lon="6.24086">
        <ele>282</ele>
        <time>2020-09-02T13:00:54Z</time>
      </trkpt>
      <trkpt lat="48.01458" lon="6.24091">
        <ele>291</ele>
        <time>2020-09-02T13:01:02Z</time>
      </trkpt>
      <trkpt lat="48.01371" lon="6.24066">
        <ele>300</ele>
        <time>2020-09-02T13:01:18Z</time>
      </trkpt>
      <trkpt lat="48.01317" lon="6.24072">
        <ele>304</ele>
        <time>2020-09-02T13:01:28Z</time>
      </trkpt>
      <trkpt lat="48.01251" lon="6.24106">
        <ele>306</ele>
        <time>2020-09-02T13:01:40Z</time>
      </trkpt>
      <trkpt lat="48.01198" lon="6.24161">
        <ele>311</ele>
        <time>2020-09-02T13:01:52Z</time>
      </trkpt>
      <trkpt lat="48.01177" lon="6.24196">
        <ele>311</ele>
        <time>2020-09-02T13:01:57Z</time>
      </trkpt>
      <trkpt lat="48.0117" lon="6.24229">
        <ele>310</ele>
        <time>2020-09-02T13:02:01Z</time>
      </trkpt>
      <trkpt lat="48.01173" lon="6.24287">
        <ele>309</ele>
        <time>2020-09-02T13:02:08Z</time>
      </trkpt>
      <trkpt lat="48.01304" lon="6.2489">
        <ele>325</ele>
        <time>2020-09-02T13:03:24Z</time>
      </trkpt>
      <trkpt lat="48.01303" lon="6.24993">
        <ele>331</ele>
        <time>2020-09-02T13:03:36Z</time>
      </trkpt>
      <trkpt lat="48.0128" lon="6.25082">
        <ele>331</ele>
        <time>2020-09-02T13:03:47Z</time>
      </trkpt>
      <trkpt lat="48.00906" lon="6.26278">
        <ele>330</ele>
        <time>2020-09-02T13:06:24Z</time>
      </trkpt>
      <trkpt lat="48.00873" lon="6.26354">
        <ele>327</ele>
        <time>2020-09-02T13:06:35Z</time>
      </trkpt>
      <trkpt lat="48.0009" lon="6.26409">
        <ele>312</ele>
        <time>2020-09-02T13:08:55Z</time>
      </trkpt>
      <trkpt lat="48.00074" lon="6.26431">
        <ele>310</ele>
        <time>2020-09-02T13:08:59Z</time>
      </trkpt>
      <trkpt lat="48.00043" lon="6.26342">
        <ele>311</ele>
        <time>2020-09-02T13:09:10Z</time>
      </trkpt>
      <trkpt lat="48.00042" lon="6.2632">
        <ele>311</ele>
        <time>2020-09-02T13:09:13Z</time>
      </trkpt>
      <trkpt lat="48.0003" lon="6.26303">
        <ele>310</ele>
        <time>2020-09-02T13:09:16Z</time>
      </trkpt>
      <trkpt lat="48.00025" lon="6.26247">
        <ele>308</ele>
        <time>2020-09-02T13:09:23Z</time>
      </trkpt>
      <trkpt lat="48.00013" lon="6.25856">
        <ele>309</ele>
        <time>2020-09-02T13:10:09Z</time>
      </trkpt>
      <trkpt lat="47.99978" lon="6.25697">
        <ele>308</ele>
        <time>2020-09-02T13:10:29Z</time>
      </trkpt>
      <trkpt lat="47.99973" lon="6.25642">
        <ele>309</ele>
        <time>2020-09-02T13:10:36Z</time>
      </trkpt>
      <trkpt lat="47.99978" lon="6.25556">
        <ele>308</ele>
        <time>2020-09-02T13:10:46Z</time>
      </trkpt>
      <trkpt lat="48" lon="6.25465">
        <ele>308</ele>
        <time>2020-09-02T13:10:58Z</time>
      </trkpt>
      <trkpt lat="48.00024" lon="6.25437">
        <ele>308</ele>
        <time>2020-09-02T13:11:03Z</time>
      </trkpt>
      <trkpt lat="48.0009" lon="6.25396">
        <ele>307</ele>
        <time>2020-09-02T13:11:16Z</time>
      </trkpt>
      <trkpt lat="48.00093" lon="6.25317">
        <ele>306</ele>
        <time>2020-09-02T13:11:25Z</time>
      </trkpt>
      <trkpt lat="48.00066" lon="6.24962">
        <ele>307</ele>
        <time>2020-09-02T13:12:08Z</time>
      </trkpt>
      <trkpt lat="48.00049" lon="6.24872">
        <ele>304</ele>
        <time>2020-09-02T13:12:19Z</time>
      </trkpt>
      <trkpt lat="48" lon="6.24678">
        <ele>303</ele>
        <time>2020-09-02T13:12:44Z</time>
      </trkpt>
      <trkpt lat="47.99972" lon="6.24545">
        <ele>300</ele>
        <time>2020-09-02T13:13:00Z</time>
      </trkpt>
      <trkpt lat="47.99911" lon="6.24374">
        <ele>298</ele>
        <time>2020-09-02T13:13:23Z</time>
      </trkpt>
      <trkpt lat="47.99738" lon="6.24049">
        <ele>293</ele>
        <time>2020-09-02T13:14:13Z</time>
      </trkpt>
      <trkpt lat="47.99595" lon="6.23865">
        <ele>291</ele>
        <time>2020-09-02T13:14:46Z</time>
      </trkpt>
      <trkpt lat="47.99478" lon="6.23757">
        <ele>290</ele>
        <time>2020-09-02T13:15:11Z</time>
      </trkpt>
      <trkpt lat="47.99429" lon="6.23605">
        <ele>285</ele>
        <time>2020-09-02T13:15:31Z</time>
      </trkpt>
      <trkpt lat="47.99406" lon="6.23565">
        <ele>285</ele>
        <time>2020-09-02T13:15:37Z</time>
      </trkpt>
      <trkpt lat="47.99313" lon="6.23473">
        <ele>280</ele>
        <time>2020-09-02T13:15:57Z</time>
      </trkpt>
      <trkpt lat="47.99246" lon="6.23427">
        <ele>278</ele>
        <time>2020-09-02T13:16:10Z</time>
      </trkpt>
      <trkpt lat="47.99186" lon="6.2335">
        <ele>277</ele>
        <time>2020-09-02T13:16:24Z</time>
      </trkpt>
      <trkpt lat="47.99168" lon="6.23302">
        <ele>275</ele>
        <time>2020-09-02T13:16:31Z</time>
      </trkpt>
      <trkpt lat="47.99132" lon="6.23095">
        <ele>277</ele>
        <time>2020-09-02T13:16:56Z</time>
      </trkpt>
      <trkpt lat="47.99121" lon="6.2289">
        <ele>275</ele>
        <time>2020-09-02T13:17:21Z</time>
      </trkpt>
      <trkpt lat="47.99114" lon="6.22857">
        <ele>273</ele>
        <time>2020-09-02T13:17:25Z</time>
      </trkpt>
      <trkpt lat="47.99097" lon="6.22831">
        <ele>270</ele>
        <time>2020-09-02T13:17:29Z</time>
      </trkpt>
      <trkpt lat="47.99098" lon="6.22806">
        <ele>269</ele>
        <time>2020-09-02T13:17:32Z</time>
      </trkpt>
      <trkpt lat="47.99073" lon="6.22725">
        <ele>269</ele>
        <time>2020-09-02T13:17:43Z</time>
      </trkpt>
      <trkpt lat="47.99079" lon="6.22712">
        <ele>270</ele>
        <time>2020-09-02T13:17:45Z</time>
      </trkpt>
      <trkpt lat="47.99126" lon="6.22669">
        <ele>269</ele>
        <time>2020-09-02T13:17:54Z</time>
      </trkpt>
      <trkpt lat="47.99166" lon="6.2266">
        <ele>266</ele>
        <time>2020-09-02T13:18:02Z</time>
      </trkpt>
      <trkpt lat="47.99205" lon="6.22675">
        <ele>265</ele>
        <time>2020-09-02T13:18:09Z</time>
      </trkpt>
      <trkpt lat="47.99239" lon="6.22712">
        <ele>266</ele>
        <time>2020-09-02T13:18:16Z</time>
      </trkpt>
      <trkpt lat="47.99259" lon="6.22681">
        <ele>266</ele>
        <time>2020-09-02T13:18:21Z</time>
      </trkpt>
      <trkpt lat="47.99256" lon="6.22684">
        <ele>266</ele>
        <time>2020-09-02T13:18:22Z</time>
      </trkpt>
      <trkpt lat="47.99239" lon="6.22642">
        <ele>269</ele>
        <time>2020-09-02T13:18:28Z</time>
      </trkpt>
      <trkpt lat="47.99207" lon="6.22616">
        <ele>274</ele>
        <time>2020-09-02T13:18:34Z</time>
      </trkpt>
      <trkpt lat="47.99152" lon="6.22612">
        <ele>279</ele>
        <time>2020-09-02T13:18:44Z</time>
      </trkpt>
      <trkpt lat="47.99129" lon="6.22623">
        <ele>280</ele>
        <time>2020-09-02T13:18:48Z</time>
      </trkpt>
      <trkpt lat="47.99052" lon="6.22697">
        <ele>275</ele>
        <time>2020-09-02T13:19:05Z</time>
      </trkpt>
      <trkpt lat="47.99005" lon="6.22729">
        <ele>273</ele>
        <time>2020-09-02T13:19:14Z</time>
      </trkpt>
      <trkpt lat="47.98953" lon="6.22751">
        <ele>270</ele>
        <time>2020-09-02T13:19:24Z</time>
      </trkpt>
      <trkpt lat="47.98903" lon="6.22757">
        <ele>271</ele>
        <time>2020-09-02T13:19:33Z</time>
      </trkpt>
      <trkpt lat="47.98717" lon="6.22713">
        <ele>269</ele>
        <time>2020-09-02T13:20:06Z</time>
      </trkpt>
      <trkpt lat="47.98287" lon="6.225">
        <ele>270</ele>
        <time>2020-09-02T13:21:27Z</time>
      </trkpt>
      <trkpt lat="47.98266" lon="6.2248">
        <ele>269</ele>
        <time>2020-09-02T13:21:31Z</time>
      </trkpt>
      <trkpt lat="47.98247" lon="6.22448">
        <ele>269</ele>
        <time>2020-09-02T13:21:36Z</time>
      </trkpt>
      <trkpt lat="47.98226" lon="6.2238">
        <ele>271</ele>
        <time>2020-09-02T13:21:45Z</time>
      </trkpt>
      <trkpt lat="47.98227" lon="6.22298">
        <ele>274</ele>
        <time>2020-09-02T13:21:55Z</time>
      </trkpt>
      <trkpt lat="47.98251" lon="6.22084">
        <ele>270</ele>
        <time>2020-09-02T13:22:21Z</time>
      </trkpt>
      <trkpt lat="47.98238" lon="6.22012">
        <ele>271</ele>
        <time>2020-09-02T13:22:30Z</time>
      </trkpt>
      <trkpt lat="47.98209" lon="6.21942">
        <ele>269</ele>
        <time>2020-09-02T13:22:39Z</time>
      </trkpt>
      <trkpt lat="47.98187" lon="6.21862">
        <ele>272</ele>
        <time>2020-09-02T13:22:50Z</time>
      </trkpt>
      <trkpt lat="47.98131" lon="6.21754">
        <ele>275</ele>
        <time>2020-09-02T13:23:06Z</time>
      </trkpt>
      <trkpt lat="47.98086" lon="6.21703">
        <ele>274</ele>
        <time>2020-09-02T13:23:16Z</time>
      </trkpt>
      <trkpt lat="47.98022" lon="6.21663">
        <ele>274</ele>
        <time>2020-09-02T13:23:28Z</time>
      </trkpt>
      <trkpt lat="47.97937" lon="6.21641">
        <ele>270</ele>
        <time>2020-09-02T13:23:44Z</time>
      </trkpt>
      <trkpt lat="47.97886" lon="6.21599">
        <ele>269</ele>
        <time>2020-09-02T13:23:54Z</time>
      </trkpt>
      <trkpt lat="47.97872" lon="6.2158">
        <ele>269</ele>
        <time>2020-09-02T13:23:57Z</time>
      </trkpt>
      <trkpt lat="47.97835" lon="6.21498">
        <ele>267</ele>
        <time>2020-09-02T13:24:09Z</time>
      </trkpt>
      <trkpt lat="47.978" lon="6.2139">
        <ele>267</ele>
        <time>2020-09-02T13:24:23Z</time>
      </trkpt>
      <trkpt lat="47.97798" lon="6.21371">
        <ele>268</ele>
        <time>2020-09-02T13:24:26Z</time>
      </trkpt>
      <trkpt lat="47.9777" lon="6.21262">
        <ele>263</ele>
        <time>2020-09-02T13:24:40Z</time>
      </trkpt>
      <trkpt lat="47.97768" lon="6.21149">
        <ele>260</ele>
        <time>2020-09-02T13:24:53Z</time>
      </trkpt>
      <trkpt lat="47.97817" lon="6.20855">
        <ele>262</ele>
        <time>2020-09-02T13:25:29Z</time>
      </trkpt>
      <trkpt lat="47.97826" lon="6.20729">
        <ele>262</ele>
        <time>2020-09-02T13:25:44Z</time>
      </trkpt>
      <trkpt lat="47.97823" lon="6.20674">
        <ele>263</ele>
        <time>2020-09-02T13:25:51Z</time>
      </trkpt>
      <trkpt lat="47.97804" lon="6.20505">
        <ele>268</ele>
        <time>2020-09-02T13:26:11Z</time>
      </trkpt>
      <trkpt lat="47.97732" lon="6.20317">
        <ele>265</ele>
        <time>2020-09-02T13:26:37Z</time>
      </trkpt>
      <trkpt lat="47.97716" lon="6.20254">
        <ele>267</ele>
        <time>2020-09-02T13:26:45Z</time>
      </trkpt>
      <trkpt lat="47.97667" lon="6.20168">
        <ele>266</ele>
        <time>2020-09-02T13:26:59Z</time>
      </trkpt>
      <trkpt lat="47.97661" lon="6.20142">
        <ele>267</ele>
        <time>2020-09-02T13:27:02Z</time>
      </trkpt>
      <trkpt lat="47.97654" lon="6.20128">
        <ele>268</ele>
        <time>2020-09-02T13:27:04Z</time>
      </trkpt>
      <trkpt lat="47.97642" lon="6.20115">
        <ele>267</ele>
        <time>2020-09-02T13:27:07Z</time>
      </trkpt>
      <trkpt lat="47.97544" lon="6.2004">
        <ele>259</ele>
        <time>2020-09-02T13:27:26Z</time>
      </trkpt>
      <trkpt lat="47.97512" lon="6.19911">
        <ele>259</ele>
        <time>2020-09-02T13:27:43Z</time>
      </trkpt>
      <trkpt lat="47.97515" lon="6.19893">
        <ele>261</ele>
        <time>2020-09-02T13:27:45Z</time>
      </trkpt>
      <trkpt lat="47.97512" lon="6.19885">
        <ele>261</ele>
        <time>2020-09-02T13:27:46Z</time>
      </trkpt>
      <trkpt lat="47.9737" lon="6.19659">
        <ele>261</ele>
        <time>2020-09-02T13:28:23Z</time>
      </trkpt>
      <trkpt lat="47.97306" lon="6.19545">
        <ele>260</ele>
        <time>2020-09-02T13:28:40Z</time>
      </trkpt>
      <trkpt lat="47.97293" lon="6.19529">
        <ele>261</ele>
        <time>2020-09-02T13:28:43Z</time>
      </trkpt>
      <trkpt lat="47.97275" lon="6.19552">
        <ele>258</ele>
        <time>2020-09-02T13:28:48Z</time>
      </trkpt>
      <trkpt lat="47.97102" lon="6.1935">
        <ele>264</ele>
        <time>2020-09-02T13:29:27Z</time>
      </trkpt>
      <trkpt lat="47.97072" lon="6.19302">
        <ele>265</ele>
        <time>2020-09-02T13:29:35Z</time>
      </trkpt>
      <trkpt lat="47.97041" lon="6.1922">
        <ele>266</ele>
        <time>2020-09-02T13:29:46Z</time>
      </trkpt>
      <trkpt lat="47.97025" lon="6.19133">
        <ele>266</ele>
        <time>2020-09-02T13:29:57Z</time>
      </trkpt>
      <trkpt lat="47.97023" lon="6.19014">
        <ele>265</ele>
        <time>2020-09-02T13:30:11Z</time>
      </trkpt>
      <trkpt lat="47.97031" lon="6.18954">
        <ele>267</ele>
        <time>2020-09-02T13:30:18Z</time>
      </trkpt>
      <trkpt lat="47.9706" lon="6.18833">
        <ele>270</ele>
        <time>2020-09-02T13:30:33Z</time>
      </trkpt>
      <trkpt lat="47.97116" lon="6.18641">
        <ele>272</ele>
        <time>2020-09-02T13:30:58Z</time>
      </trkpt>
      <trkpt lat="47.97253" lon="6.18316">
        <ele>281</ele>
        <time>2020-09-02T13:31:44Z</time>
      </trkpt>
      <trkpt lat="47.97258" lon="6.18299">
        <ele>280</ele>
        <time>2020-09-02T13:31:46Z</time>
      </trkpt>
      <trkpt lat="47.97303" lon="6.17893">
        <ele>284</ele>
        <time>2020-09-02T13:32:35Z</time>
      </trkpt>
      <trkpt lat="47.97331" lon="6.17764">
        <ele>282</ele>
        <time>2020-09-02T13:32:51Z</time>
      </trkpt>
      <trkpt lat="47.97334" lon="6.17601">
        <ele>284</ele>
        <time>2020-09-02T13:33:11Z</time>
      </trkpt>
      <trkpt lat="47.97355" lon="6.17495">
        <ele>286</ele>
        <time>2020-09-02T13:33:24Z</time>
      </trkpt>
      <trkpt lat="47.9743" lon="6.17333">
        <ele>288</ele>
        <time>2020-09-02T13:33:47Z</time>
      </trkpt>
      <trkpt lat="47.97498" lon="6.17252">
        <ele>289</ele>
        <time>2020-09-02T13:34:03Z</time>
      </trkpt>
      <trkpt lat="47.97578" lon="6.17163">
        <ele>283</ele>
        <time>2020-09-02T13:34:21Z</time>
      </trkpt>
      <trkpt lat="47.97631" lon="6.17025">
        <ele>271</ele>
        <time>2020-09-02T13:34:40Z</time>
      </trkpt>
      <trkpt lat="47.97653" lon="6.1692">
        <ele>266</ele>
        <time>2020-09-02T13:34:53Z</time>
      </trkpt>
      <trkpt lat="47.97686" lon="6.16683">
        <ele>259</ele>
        <time>2020-09-02T13:35:22Z</time>
      </trkpt>
      <trkpt lat="47.97682" lon="6.16535">
        <ele>256</ele>
        <time>2020-09-02T13:35:39Z</time>
      </trkpt>
      <trkpt lat="47.97672" lon="6.16457">
        <ele>257</ele>
        <time>2020-09-02T13:35:49Z</time>
      </trkpt>
      <trkpt lat="47.97591" lon="6.16297">
        <ele>264</ele>
        <time>2020-09-02T13:36:13Z</time>
      </trkpt>
      <trkpt lat="47.97528" lon="6.1619">
        <ele>268</ele>
        <time>2020-09-02T13:36:30Z</time>
      </trkpt>
      <trkpt lat="47.97534" lon="6.16109">
        <ele>272</ele>
        <time>2020-09-02T13:36:39Z</time>
      </trkpt>
      <trkpt lat="47.97527" lon="6.16026">
        <ele>274</ele>
        <time>2020-09-02T13:36:49Z</time>
      </trkpt>
      <trkpt lat="47.97538" lon="6.15772">
        <ele>275</ele>
        <time>2020-09-02T13:37:20Z</time>
      </trkpt>
      <trkpt lat="47.97543" lon="6.15724">
        <ele>275</ele>
        <time>2020-09-02T13:37:25Z</time>
      </trkpt>
      <trkpt lat="47.97574" lon="6.15644">
        <ele>275</ele>
        <time>2020-09-02T13:37:36Z</time>
      </trkpt>
      <trkpt lat="47.97568" lon="6.15589">
        <ele>275</ele>
        <time>2020-09-02T13:37:43Z</time>
      </trkpt>
      <trkpt lat="47.9754" lon="6.15447">
        <ele>277</ele>
        <time>2020-09-02T13:38:01Z</time>
      </trkpt>
      <trkpt lat="47.97537" lon="6.15411">
        <ele>277</ele>
        <time>2020-09-02T13:38:05Z</time>
      </trkpt>
      <trkpt lat="47.97536" lon="6.15289">
        <ele>279</ele>
        <time>2020-09-02T13:38:19Z</time>
      </trkpt>
      <trkpt lat="47.97539" lon="6.15142">
        <ele>277</ele>
        <time>2020-09-02T13:38:37Z</time>
      </trkpt>
      <trkpt lat="47.97569" lon="6.14965">
        <ele>276</ele>
        <time>2020-09-02T13:38:59Z</time>
      </trkpt>
      <trkpt lat="47.97569" lon="6.14907">
        <ele>277</ele>
        <time>2020-09-02T13:39:06Z</time>
      </trkpt>
      <trkpt lat="47.97562" lon="6.14869">
        <ele>278</ele>
        <time>2020-09-02T13:39:10Z</time>
      </trkpt>
      <trkpt lat="47.97534" lon="6.14811">
        <ele>280</ele>
        <time>2020-09-02T13:39:19Z</time>
      </trkpt>
      <trkpt lat="47.97512" lon="6.14786">
        <ele>281</ele>
        <time>2020-09-02T13:39:24Z</time>
      </trkpt>
      <trkpt lat="47.97064" lon="6.14584">
        <ele>280</ele>
        <time>2020-09-02T13:40:47Z</time>
      </trkpt>
      <trkpt lat="47.96984" lon="6.14542">
        <ele>276</ele>
        <time>2020-09-02T13:41:02Z</time>
      </trkpt>
      <trkpt lat="47.96893" lon="6.14469">
        <ele>273</ele>
        <time>2020-09-02T13:41:21Z</time>
      </trkpt>
      <trkpt lat="47.96811" lon="6.14339">
        <ele>274</ele>
        <time>2020-09-02T13:41:42Z</time>
      </trkpt>
      <trkpt lat="47.96359" lon="6.13794">
        <ele>274</ele>
        <time>2020-09-02T13:43:25Z</time>
      </trkpt>
      <trkpt lat="47.96309" lon="6.13724">
        <ele>274</ele>
        <time>2020-09-02T13:43:37Z</time>
      </trkpt>
      <trkpt lat="47.95917" lon="6.1307">
        <ele>250</ele>
        <time>2020-09-02T13:45:22Z</time>
      </trkpt>
      <trkpt lat="47.95873" lon="6.12986">
        <ele>248</ele>
        <time>2020-09-02T13:45:35Z</time>
      </trkpt>
      <trkpt lat="47.95867" lon="6.12944">
        <ele>247</ele>
        <time>2020-09-02T13:45:40Z</time>
      </trkpt>
      <trkpt lat="47.95864" lon="6.12889">
        <ele>247</ele>
        <time>2020-09-02T13:45:46Z</time>
      </trkpt>
      <trkpt lat="47.95858" lon="6.12873">
        <ele>246</ele>
        <time>2020-09-02T13:45:48Z</time>
      </trkpt>
      <trkpt lat="47.95849" lon="6.12867">
        <ele>246</ele>
        <time>2020-09-02T13:45:50Z</time>
      </trkpt>
      <trkpt lat="47.95805" lon="6.1286">
        <ele>245</ele>
        <time>2020-09-02T13:45:58Z</time>
      </trkpt>
      <trkpt lat="47.95772" lon="6.12817">
        <ele>243</ele>
        <time>2020-09-02T13:46:06Z</time>
      </trkpt>
      <trkpt lat="47.95798" lon="6.12649">
        <ele>241</ele>
        <time>2020-09-02T13:46:26Z</time>
      </trkpt>
      <trkpt lat="47.95847" lon="6.12363">
        <ele>241</ele>
        <time>2020-09-02T13:47:02Z</time>
      </trkpt>
      <trkpt lat="47.95899" lon="6.12169">
        <ele>243</ele>
        <time>2020-09-02T13:47:27Z</time>
      </trkpt>
      <trkpt lat="47.95915" lon="6.12087">
        <ele>242</ele>
        <time>2020-09-02T13:47:37Z</time>
      </trkpt>
      <trkpt lat="47.9595" lon="6.11862">
        <ele>247</ele>
        <time>2020-09-02T13:48:04Z</time>
      </trkpt>
      <trkpt lat="47.95961" lon="6.1173">
        <ele>246</ele>
        <time>2020-09-02T13:48:20Z</time>
      </trkpt>
      <trkpt lat="47.95962" lon="6.11636">
        <ele>249</ele>
        <time>2020-09-02T13:48:31Z</time>
      </trkpt>
      <trkpt lat="47.95949" lon="6.11249">
        <ele>248</ele>
        <time>2020-09-02T13:49:17Z</time>
      </trkpt>
      <trkpt lat="47.95886" lon="6.10804">
        <ele>252</ele>
        <time>2020-09-02T13:50:12Z</time>
      </trkpt>
      <trkpt lat="47.95885" lon="6.10745">
        <ele>253</ele>
        <time>2020-09-02T13:50:19Z</time>
      </trkpt>
      <trkpt lat="47.95933" lon="6.10337">
        <ele>249</ele>
        <time>2020-09-02T13:51:08Z</time>
      </trkpt>
      <trkpt lat="47.96062" lon="6.09897">
        <ele>242</ele>
        <time>2020-09-02T13:52:05Z</time>
      </trkpt>
      <trkpt lat="47.96079" lon="6.09818">
        <ele>241</ele>
        <time>2020-09-02T13:52:15Z</time>
      </trkpt>
      <trkpt lat="47.96142" lon="6.09288">
        <ele>242</ele>
        <time>2020-09-02T13:53:19Z</time>
      </trkpt>
      <trkpt lat="47.96162" lon="6.09005">
        <ele>237</ele>
        <time>2020-09-02T13:53:53Z</time>
      </trkpt>
      <trkpt lat="47.96145" lon="6.08663">
        <ele>237</ele>
        <time>2020-09-02T13:54:34Z</time>
      </trkpt>
      <trkpt lat="47.96163" lon="6.08664">
        <ele>237</ele>
        <time>2020-09-02T13:54:37Z</time>
      </trkpt>
      <trkpt lat="47.96173" lon="6.08662">
        <ele>237</ele>
        <time>2020-09-02T13:54:39Z</time>
      </trkpt>
      <trkpt lat="47.96163" lon="6.08664">
        <ele>237</ele>
        <time>2020-09-02T13:54:41Z</time>
      </trkpt>
      <trkpt lat="47.96145" lon="6.08663">
        <ele>237</ele>
        <time>2020-09-02T13:54:44Z</time>
      </trkpt>
      <trkpt lat="47.96128" lon="6.08503">
        <ele>238</ele>
        <time>2020-09-02T13:55:03Z</time>
      </trkpt>
      <trkpt lat="47.96093" lon="6.08353">
        <ele>236</ele>
        <time>2020-09-02T13:55:22Z</time>
      </trkpt>
      <trkpt lat="47.9607" lon="6.08299">
        <ele>236</ele>
        <time>2020-09-02T13:55:30Z</time>
      </trkpt>
      <trkpt lat="47.96014" lon="6.08208">
        <ele>238</ele>
        <time>2020-09-02T13:55:45Z</time>
      </trkpt>
      <trkpt lat="47.95605" lon="6.07779">
        <ele>238</ele>
        <time>2020-09-02T13:57:14Z</time>
      </trkpt>
      <trkpt lat="47.95554" lon="6.07683">
        <ele>237</ele>
        <time>2020-09-02T13:57:28Z</time>
      </trkpt>
      <trkpt lat="47.95541" lon="6.07639">
        <ele>237</ele>
        <time>2020-09-02T13:57:34Z</time>
      </trkpt>
      <trkpt lat="47.95529" lon="6.07563">
        <ele>237</ele>
        <time>2020-09-02T13:57:43Z</time>
      </trkpt>
      <trkpt lat="47.95518" lon="6.0741">
        <ele>236</ele>
        <time>2020-09-02T13:58:02Z</time>
      </trkpt>
      <trkpt lat="47.95498" lon="6.07038">
        <ele>240</ele>
        <time>2020-09-02T13:58:46Z</time>
      </trkpt>
      <trkpt lat="47.95487" lon="6.06924">
        <ele>238</ele>
        <time>2020-09-02T13:59:00Z</time>
      </trkpt>
      <trkpt lat="47.9546" lon="6.06755">
        <ele>239</ele>
        <time>2020-09-02T13:59:20Z</time>
      </trkpt>
      <trkpt lat="47.95423" lon="6.0662">
        <ele>238</ele>
        <time>2020-09-02T13:59:38Z</time>
      </trkpt>
      <trkpt lat="47.95239" lon="6.06063">
        <ele>240</ele>
        <time>2020-09-02T14:00:52Z</time>
      </trkpt>
      <trkpt lat="47.95182" lon="6.05839">
        <ele>244</ele>
        <time>2020-09-02T14:01:20Z</time>
      </trkpt>
      <trkpt lat="47.95162" lon="6.05632">
        <ele>239</ele>
        <time>2020-09-02T14:01:45Z</time>
      </trkpt>
      <trkpt lat="47.95167" lon="6.05487">
        <ele>238</ele>
        <time>2020-09-02T14:02:03Z</time>
      </trkpt>
      <trkpt lat="47.95201" lon="6.05196">
        <ele>241</ele>
        <time>2020-09-02T14:02:38Z</time>
      </trkpt>
      <trkpt lat="47.95197" lon="6.05093">
        <ele>241</ele>
        <time>2020-09-02T14:02:50Z</time>
      </trkpt>
      <trkpt lat="47.95129" lon="6.04823">
        <ele>240</ele>
        <time>2020-09-02T14:03:24Z</time>
      </trkpt>
      <trkpt lat="47.95101" lon="6.04741">
        <ele>238</ele>
        <time>2020-09-02T14:03:35Z</time>
      </trkpt>
      <trkpt lat="47.95065" lon="6.04685">
        <ele>239</ele>
        <time>2020-09-02T14:03:45Z</time>
      </trkpt>
      <trkpt lat="47.95038" lon="6.0466">
        <ele>240</ele>
        <time>2020-09-02T14:03:50Z</time>
      </trkpt>
      <trkpt lat="47.94991" lon="6.04643">
        <ele>241</ele>
        <time>2020-09-02T14:03:59Z</time>
      </trkpt>
      <trkpt lat="47.94666" lon="6.0457">
        <ele>236</ele>
        <time>2020-09-02T14:04:57Z</time>
      </trkpt>
      <trkpt lat="47.94562" lon="6.04566">
        <ele>234</ele>
        <time>2020-09-02T14:05:16Z</time>
      </trkpt>
      <trkpt lat="47.94244" lon="6.04618">
        <ele>233</ele>
        <time>2020-09-02T14:06:13Z</time>
      </trkpt>
      <trkpt lat="47.94124" lon="6.04643">
        <ele>233</ele>
        <time>2020-09-02T14:06:34Z</time>
      </trkpt>
      <trkpt lat="47.94244" lon="6.04618">
        <ele>233</ele>
        <time>2020-09-02T14:06:56Z</time>
      </trkpt>
      <trkpt lat="47.93979" lon="6.0465">
        <ele>232</ele>
        <time>2020-09-02T14:07:43Z</time>
      </trkpt>
      <trkpt lat="47.93922" lon="6.04633">
        <ele>233</ele>
        <time>2020-09-02T14:07:54Z</time>
      </trkpt>
      <trkpt lat="47.93851" lon="6.04583">
        <ele>232</ele>
        <time>2020-09-02T14:08:08Z</time>
      </trkpt>
      <trkpt lat="47.93516" lon="6.04224">
        <ele>229</ele>
        <time>2020-09-02T14:09:21Z</time>
      </trkpt>
      <trkpt lat="47.93455" lon="6.04155">
        <ele>228</ele>
        <time>2020-09-02T14:09:35Z</time>
      </trkpt>
      <trkpt lat="47.93411" lon="6.04079">
        <ele>228</ele>
        <time>2020-09-02T14:09:47Z</time>
      </trkpt>
      <trkpt lat="47.93377" lon="6.03984">
        <ele>229</ele>
        <time>2020-09-02T14:09:59Z</time>
      </trkpt>
      <trkpt lat="47.93335" lon="6.03674">
        <ele>230</ele>
        <time>2020-09-02T14:10:37Z</time>
      </trkpt>
      <trkpt lat="47.933" lon="6.0353">
        <ele>229</ele>
        <time>2020-09-02T14:10:55Z</time>
      </trkpt>
      <trkpt lat="47.93228" lon="6.03355">
        <ele>230</ele>
        <time>2020-09-02T14:11:20Z</time>
      </trkpt>
      <trkpt lat="47.93053" lon="6.02987">
        <ele>229</ele>
        <time>2020-09-02T14:12:14Z</time>
      </trkpt>
      <trkpt lat="47.92988" lon="6.02843">
        <ele>228</ele>
        <time>2020-09-02T14:12:34Z</time>
      </trkpt>
      <trkpt lat="47.92954" lon="6.02701">
        <ele>228</ele>
        <time>2020-09-02T14:12:52Z</time>
      </trkpt>
      <trkpt lat="47.92941" lon="6.02594">
        <ele>228</ele>
        <time>2020-09-02T14:13:05Z</time>
      </trkpt>
      <trkpt lat="47.92926" lon="6.02053">
        <ele>228</ele>
        <time>2020-09-02T14:14:10Z</time>
      </trkpt>
      <trkpt lat="47.92915" lon="6.01835">
        <ele>230</ele>
        <time>2020-09-02T14:14:36Z</time>
      </trkpt>
      <trkpt lat="47.92876" lon="6.01672">
        <ele>231</ele>
        <time>2020-09-02T14:14:57Z</time>
      </trkpt>
      <trkpt lat="47.92712" lon="6.01278">
        <ele>229</ele>
        <time>2020-09-02T14:15:52Z</time>
      </trkpt>
      <trkpt lat="47.92677" lon="6.0118">
        <ele>230</ele>
        <time>2020-09-02T14:16:05Z</time>
      </trkpt>
      <trkpt lat="47.92658" lon="6.01029">
        <ele>230</ele>
        <time>2020-09-02T14:16:23Z</time>
      </trkpt>
      <trkpt lat="47.92639" lon="6.00789">
        <ele>229</ele>
        <time>2020-09-02T14:16:52Z</time>
      </trkpt>
      <trkpt lat="47.92628" lon="6.00734">
        <ele>228</ele>
        <time>2020-09-02T14:16:59Z</time>
      </trkpt>
      <trkpt lat="47.92581" lon="6.00584">
        <ele>226</ele>
        <time>2020-09-02T14:17:19Z</time>
      </trkpt>
      <trkpt lat="47.92417" lon="6.00258">
        <ele>222</ele>
        <time>2020-09-02T14:18:07Z</time>
      </trkpt>
      <trkpt lat="47.92335" lon="6.001">
        <ele>223</ele>
        <time>2020-09-02T14:18:31Z</time>
      </trkpt>
      <trkpt lat="47.92273" lon="6.00012">
        <ele>222</ele>
        <time>2020-09-02T14:18:46Z</time>
      </trkpt>
      <trkpt lat="47.91968" lon="5.99709">
        <ele>222</ele>
        <time>2020-09-02T14:19:52Z</time>
      </trkpt>
      <trkpt lat="47.91919" lon="5.99664">
        <ele>222</ele>
        <time>2020-09-02T14:20:02Z</time>
      </trkpt>
      <trkpt lat="47.91968" lon="5.99709">
        <ele>222</ele>
        <time>2020-09-02T14:20:12Z</time>
      </trkpt>
      <trkpt lat="47.91919" lon="5.99679">
        <ele>222</ele>
        <time>2020-09-02T14:20:22Z</time>
      </trkpt>
      <trkpt lat="47.91913" lon="5.99668">
        <ele>222</ele>
        <time>2020-09-02T14:20:23Z</time>
      </trkpt>
      <trkpt lat="47.91949" lon="5.99548">
        <ele>222</ele>
        <time>2020-09-02T14:20:39Z</time>
      </trkpt>
      <trkpt lat="47.91911" lon="5.99512">
        <ele>222</ele>
        <time>2020-09-02T14:20:47Z</time>
      </trkpt>
      <trkpt lat="47.91744" lon="5.99427">
        <ele>224</ele>
        <time>2020-09-02T14:21:18Z</time>
      </trkpt>
      <trkpt lat="47.91754" lon="5.99397">
        <ele>224</ele>
        <time>2020-09-02T14:21:22Z</time>
      </trkpt>
      <trkpt lat="47.91832" lon="5.99246">
        <ele>224</ele>
        <time>2020-09-02T14:21:45Z</time>
      </trkpt>
      <trkpt lat="47.91826" lon="5.99193">
        <ele>225</ele>
        <time>2020-09-02T14:21:51Z</time>
      </trkpt>
      <trkpt lat="47.91774" lon="5.98957">
        <ele>223</ele>
        <time>2020-09-02T14:22:21Z</time>
      </trkpt>
      <trkpt lat="47.91737" lon="5.98873">
        <ele>223</ele>
        <time>2020-09-02T14:22:33Z</time>
      </trkpt>
      <trkpt lat="47.91728" lon="5.98837">
        <ele>223</ele>
        <time>2020-09-02T14:22:38Z</time>
      </trkpt>
      <trkpt lat="47.9171" lon="5.98835">
        <ele>222</ele>
        <time>2020-09-02T14:22:41Z</time>
      </trkpt>
      <trkpt lat="47.91687" lon="5.98836">
        <ele>221</ele>
        <time>2020-09-02T14:22:45Z</time>
      </trkpt>
      <trkpt lat="47.91559" lon="5.98826">
        <ele>220</ele>
        <time>2020-09-02T14:23:08Z</time>
      </trkpt>
      <trkpt lat="47.91437" lon="5.9881">
        <ele>218</ele>
        <time>2020-09-02T14:23:30Z</time>
      </trkpt>
      <trkpt lat="47.91225" lon="5.98762">
        <ele>223</ele>
        <time>2020-09-02T14:24:08Z</time>
      </trkpt>
      <trkpt lat="47.91191" lon="5.98738">
        <ele>224</ele>
        <time>2020-09-02T14:24:14Z</time>
      </trkpt>
      <trkpt lat="47.91174" lon="5.98715">
        <ele>226</ele>
        <time>2020-09-02T14:24:18Z</time>
      </trkpt>
      <trkpt lat="47.91158" lon="5.98665">
        <ele>229</ele>
        <time>2020-09-02T14:24:25Z</time>
      </trkpt>
      <trkpt lat="47.91155" lon="5.98612">
        <ele>229</ele>
        <time>2020-09-02T14:24:31Z</time>
      </trkpt>
      <trkpt lat="47.9121" lon="5.98211">
        <ele>228</ele>
        <time>2020-09-02T14:25:20Z</time>
      </trkpt>
      <trkpt lat="47.91212" lon="5.98122">
        <ele>228</ele>
        <time>2020-09-02T14:25:31Z</time>
      </trkpt>
      <trkpt lat="47.91198" lon="5.98047">
        <ele>229</ele>
        <time>2020-09-02T14:25:40Z</time>
      </trkpt>
      <trkpt lat="47.91162" lon="5.97967">
        <ele>230</ele>
        <time>2020-09-02T14:25:52Z</time>
      </trkpt>
      <trkpt lat="47.90907" lon="5.97672">
        <ele>235</ele>
        <time>2020-09-02T14:26:49Z</time>
      </trkpt>
      <trkpt lat="47.90889" lon="5.97657">
        <ele>235</ele>
        <time>2020-09-02T14:26:53Z</time>
      </trkpt>
      <trkpt lat="47.90891" lon="5.97652">
        <ele>234</ele>
        <time>2020-09-02T14:26:53Z</time>
      </trkpt>
      <trkpt lat="47.90906" lon="5.97668">
        <ele>235</ele>
        <time>2020-09-02T14:26:57Z</time>
      </trkpt>
      <trkpt lat="47.90908" lon="5.97659">
        <ele>234</ele>
        <time>2020-09-02T14:26:58Z</time>
      </trkpt>
      <trkpt lat="47.90906" lon="5.97644">
        <ele>233</ele>
        <time>2020-09-02T14:27:00Z</time>
      </trkpt>
      <trkpt lat="47.90889" lon="5.97614">
        <ele>232</ele>
        <time>2020-09-02T14:27:04Z</time>
      </trkpt>
      <trkpt lat="47.90887" lon="5.97603">
        <ele>232</ele>
        <time>2020-09-02T14:27:06Z</time>
      </trkpt>
      <trkpt lat="47.90889" lon="5.97592">
        <ele>231</ele>
        <time>2020-09-02T14:27:07Z</time>
      </trkpt>
      <trkpt lat="47.90894" lon="5.97583">
        <ele>230</ele>
        <time>2020-09-02T14:27:08Z</time>
      </trkpt>
      <trkpt lat="47.90815" lon="5.97461">
        <ele>230</ele>
        <time>2020-09-02T14:27:29Z</time>
      </trkpt>
      <trkpt lat="47.90753" lon="5.97359">
        <ele>230</ele>
        <time>2020-09-02T14:27:45Z</time>
      </trkpt>
      <trkpt lat="47.90693" lon="5.97289">
        <ele>231</ele>
        <time>2020-09-02T14:27:59Z</time>
      </trkpt>
      <trkpt lat="47.90668" lon="5.97267">
        <ele>233</ele>
        <time>2020-09-02T14:28:04Z</time>
      </trkpt>
      <trkpt lat="47.9061" lon="5.97228">
        <ele>233</ele>
        <time>2020-09-02T14:28:15Z</time>
      </trkpt>
      <trkpt lat="47.90559" lon="5.97202">
        <ele>234</ele>
        <time>2020-09-02T14:28:25Z</time>
      </trkpt>
      <trkpt lat="47.905" lon="5.97185">
        <ele>236</ele>
        <time>2020-09-02T14:28:35Z</time>
      </trkpt>
      <trkpt lat="47.90458" lon="5.97182">
        <ele>239</ele>
        <time>2020-09-02T14:28:43Z</time>
      </trkpt>
      <trkpt lat="47.90419" lon="5.97183">
        <ele>241</ele>
        <time>2020-09-02T14:28:50Z</time>
      </trkpt>
      <trkpt lat="47.90369" lon="5.97192">
        <ele>244</ele>
        <time>2020-09-02T14:28:59Z</time>
      </trkpt>
      <trkpt lat="47.90142" lon="5.97274">
        <ele>242</ele>
        <time>2020-09-02T14:29:40Z</time>
      </trkpt>
      <trkpt lat="47.90092" lon="5.97285">
        <ele>242</ele>
        <time>2020-09-02T14:29:49Z</time>
      </trkpt>
      <trkpt lat="47.90037" lon="5.97283">
        <ele>241</ele>
        <time>2020-09-02T14:29:59Z</time>
      </trkpt>
      <trkpt lat="47.90035" lon="5.97315">
        <ele>239</ele>
        <time>2020-09-02T14:30:03Z</time>
      </trkpt>
      <trkpt lat="47.90031" lon="5.97334">
        <ele>238</ele>
        <time>2020-09-02T14:30:05Z</time>
      </trkpt>
      <trkpt lat="47.90023" lon="5.97344">
        <ele>238</ele>
        <time>2020-09-02T14:30:07Z</time>
      </trkpt>
      <trkpt lat="47.90012" lon="5.97348">
        <ele>238</ele>
        <time>2020-09-02T14:30:09Z</time>
      </trkpt>
      <trkpt lat="47.89957" lon="5.97356">
        <ele>236</ele>
        <time>2020-09-02T14:30:19Z</time>
      </trkpt>
      <trkpt lat="47.89934" lon="5.97365">
        <ele>234</ele>
        <time>2020-09-02T14:30:23Z</time>
      </trkpt>
      <trkpt lat="47.89906" lon="5.97382">
        <ele>233</ele>
        <time>2020-09-02T14:30:29Z</time>
      </trkpt>
      <trkpt lat="47.89861" lon="5.97416">
        <ele>234</ele>
        <time>2020-09-02T14:30:38Z</time>
      </trkpt>
      <trkpt lat="47.89781" lon="5.97512">
        <ele>233</ele>
        <time>2020-09-02T14:30:56Z</time>
      </trkpt>
      <trkpt lat="47.89753" lon="5.9754">
        <ele>231</ele>
        <time>2020-09-02T14:31:02Z</time>
      </trkpt>
      <trkpt lat="47.8971" lon="5.97569">
        <ele>227</ele>
        <time>2020-09-02T14:31:10Z</time>
      </trkpt>
      <trkpt lat="47.89617" lon="5.97623">
        <ele>224</ele>
        <time>2020-09-02T14:31:28Z</time>
      </trkpt>
      <trkpt lat="47.89546" lon="5.97653">
        <ele>221</ele>
        <time>2020-09-02T14:31:41Z</time>
      </trkpt>
      <trkpt lat="47.89524" lon="5.97667">
        <ele>221</ele>
        <time>2020-09-02T14:31:45Z</time>
      </trkpt>
      <trkpt lat="47.89468" lon="5.97723">
        <ele>219</ele>
        <time>2020-09-02T14:31:57Z</time>
      </trkpt>
      <trkpt lat="47.89452" lon="5.97734">
        <ele>219</ele>
        <time>2020-09-02T14:32:01Z</time>
      </trkpt>
      <trkpt lat="47.89436" lon="5.9774">
        <ele>218</ele>
        <time>2020-09-02T14:32:04Z</time>
      </trkpt>
      <trkpt lat="47.89414" lon="5.97742">
        <ele>218</ele>
        <time>2020-09-02T14:32:07Z</time>
      </trkpt>
      <trkpt lat="47.8939" lon="5.97736">
        <ele>217</ele>
        <time>2020-09-02T14:32:12Z</time>
      </trkpt>
      <trkpt lat="47.89364" lon="5.9772">
        <ele>217</ele>
        <time>2020-09-02T14:32:17Z</time>
      </trkpt>
      <trkpt lat="47.89236" lon="5.97596">
        <ele>216</ele>
        <time>2020-09-02T14:32:44Z</time>
      </trkpt>
      <trkpt lat="47.89222" lon="5.97585">
        <ele>216</ele>
        <time>2020-09-02T14:32:47Z</time>
      </trkpt>
      <trkpt lat="47.89203" lon="5.97581">
        <ele>217</ele>
        <time>2020-09-02T14:32:50Z</time>
      </trkpt>
      <trkpt lat="47.89186" lon="5.97583">
        <ele>217</ele>
        <time>2020-09-02T14:32:53Z</time>
      </trkpt>
      <trkpt lat="47.89085" lon="5.97627">
        <ele>217</ele>
        <time>2020-09-02T14:33:12Z</time>
      </trkpt>
      <trkpt lat="47.88973" lon="5.97671">
        <ele>222</ele>
        <time>2020-09-02T14:33:33Z</time>
      </trkpt>
      <trkpt lat="47.88971" lon="5.97662">
        <ele>222</ele>
        <time>2020-09-02T14:33:34Z</time>
      </trkpt>
      <trkpt lat="47.88981" lon="5.97718">
        <ele>223</ele>
        <time>2020-09-02T14:33:41Z</time>
      </trkpt>
      <trkpt lat="47.88989" lon="5.9779">
        <ele>224</ele>
        <time>2020-09-02T14:33:49Z</time>
      </trkpt>
      <trkpt lat="47.89001" lon="5.98001">
        <ele>230</ele>
        <time>2020-09-02T14:34:15Z</time>
      </trkpt>
      <trkpt lat="47.89006" lon="5.9804">
        <ele>231</ele>
        <time>2020-09-02T14:34:19Z</time>
      </trkpt>
      <trkpt lat="47.89011" lon="5.9806">
        <ele>232</ele>
        <time>2020-09-02T14:34:22Z</time>
      </trkpt>
      <trkpt lat="47.88922" lon="5.98141">
        <ele>232</ele>
        <time>2020-09-02T14:34:40Z</time>
      </trkpt>
      <trkpt lat="47.8892" lon="5.9813">
        <ele>232</ele>
        <time>2020-09-02T14:34:42Z</time>
      </trkpt>
      <trkpt lat="47.88912" lon="5.98117">
        <ele>231</ele>
        <time>2020-09-02T14:34:44Z</time>
      </trkpt>
      <trkpt lat="47.88897" lon="5.98104">
        <ele>230</ele>
        <time>2020-09-02T14:34:47Z</time>
      </trkpt>
      <trkpt lat="47.88888" lon="5.981">
        <ele>230</ele>
        <time>2020-09-02T14:34:49Z</time>
      </trkpt>
      <trkpt lat="47.88854" lon="5.98023">
        <ele>225</ele>
        <time>2020-09-02T14:35:00Z</time>
      </trkpt>
      <trkpt lat="47.88665" lon="5.97631">
        <ele>219</ele>
        <time>2020-09-02T14:35:57Z</time>
      </trkpt>
      <trkpt lat="47.88626" lon="5.97556">
        <ele>218</ele>
        <time>2020-09-02T14:36:09Z</time>
      </trkpt>
      <trkpt lat="47.88608" lon="5.97515">
        <ele>218</ele>
        <time>2020-09-02T14:36:14Z</time>
      </trkpt>
      <trkpt lat="47.88494" lon="5.97455">
        <ele>217</ele>
        <time>2020-09-02T14:36:36Z</time>
      </trkpt>
      <trkpt lat="47.88477" lon="5.9745">
        <ele>217</ele>
        <time>2020-09-02T14:36:39Z</time>
      </trkpt>
      <trkpt lat="47.88423" lon="5.97441">
        <ele>216</ele>
        <time>2020-09-02T14:36:49Z</time>
      </trkpt>
      <trkpt lat="47.88392" lon="5.97427">
        <ele>216</ele>
        <time>2020-09-02T14:36:54Z</time>
      </trkpt>
      <trkpt lat="47.88366" lon="5.97409">
        <ele>216</ele>
        <time>2020-09-02T14:37:00Z</time>
      </trkpt>
      <trkpt lat="47.88345" lon="5.97388">
        <ele>216</ele>
        <time>2020-09-02T14:37:04Z</time>
      </trkpt>
      <trkpt lat="47.88313" lon="5.97342">
        <ele>217</ele>
        <time>2020-09-02T14:37:12Z</time>
      </trkpt>
      <trkpt lat="47.88294" lon="5.97309">
        <ele>218</ele>
        <time>2020-09-02T14:37:17Z</time>
      </trkpt>
      <trkpt lat="47.88274" lon="5.97288">
        <ele>218</ele>
        <time>2020-09-02T14:37:21Z</time>
      </trkpt>
      <trkpt lat="47.88259" lon="5.97283">
        <ele>218</ele>
        <time>2020-09-02T14:37:24Z</time>
      </trkpt>
      <trkpt lat="47.88179" lon="5.97273">
        <ele>217</ele>
        <time>2020-09-02T14:37:38Z</time>
      </trkpt>
      <trkpt lat="47.8814" lon="5.97261">
        <ele>217</ele>
        <time>2020-09-02T14:37:46Z</time>
      </trkpt>
      <trkpt lat="47.88081" lon="5.97234">
        <ele>217</ele>
        <time>2020-09-02T14:37:57Z</time>
      </trkpt>
      <trkpt lat="47.8803" lon="5.97189">
        <ele>218</ele>
        <time>2020-09-02T14:38:07Z</time>
      </trkpt>
      <trkpt lat="47.87997" lon="5.97155">
        <ele>219</ele>
        <time>2020-09-02T14:38:14Z</time>
      </trkpt>
      <trkpt lat="47.87965" lon="5.97112">
        <ele>221</ele>
        <time>2020-09-02T14:38:22Z</time>
      </trkpt>
      <trkpt lat="47.87875" lon="5.96971">
        <ele>232</ele>
        <time>2020-09-02T14:38:45Z</time>
      </trkpt>
      <trkpt lat="47.87767" lon="5.96814">
        <ele>247</ele>
        <time>2020-09-02T14:39:12Z</time>
      </trkpt>
      <trkpt lat="47.87755" lon="5.96792">
        <ele>247</ele>
        <time>2020-09-02T14:39:15Z</time>
      </trkpt>
      <trkpt lat="47.87744" lon="5.96765">
        <ele>247</ele>
        <time>2020-09-02T14:39:19Z</time>
      </trkpt>
      <trkpt lat="47.87728" lon="5.96691">
        <ele>246</ele>
        <time>2020-09-02T14:39:28Z</time>
      </trkpt>
      <trkpt lat="47.87678" lon="5.96407">
        <ele>237</ele>
        <time>2020-09-02T14:40:03Z</time>
      </trkpt>
      <trkpt lat="47.87668" lon="5.96371">
        <ele>235</ele>
        <time>2020-09-02T14:40:08Z</time>
      </trkpt>
      <trkpt lat="47.87559" lon="5.96148">
        <ele>231</ele>
        <time>2020-09-02T14:40:41Z</time>
      </trkpt>
      <trkpt lat="47.87524" lon="5.96082">
        <ele>236</ele>
        <time>2020-09-02T14:40:51Z</time>
      </trkpt>
      <trkpt lat="47.87482" lon="5.96015">
        <ele>237</ele>
        <time>2020-09-02T14:41:02Z</time>
      </trkpt>
      <trkpt lat="47.87381" lon="5.95877">
        <ele>241</ele>
        <time>2020-09-02T14:41:26Z</time>
      </trkpt>
      <trkpt lat="47.87362" lon="5.95842">
        <ele>242</ele>
        <time>2020-09-02T14:41:32Z</time>
      </trkpt>
      <trkpt lat="47.87304" lon="5.95681">
        <ele>240</ele>
        <time>2020-09-02T14:41:54Z</time>
      </trkpt>
      <trkpt lat="47.87284" lon="5.95633">
        <ele>238</ele>
        <time>2020-09-02T14:42:00Z</time>
      </trkpt>
      <trkpt lat="47.87256" lon="5.95598">
        <ele>238</ele>
        <time>2020-09-02T14:42:07Z</time>
      </trkpt>
      <trkpt lat="47.87221" lon="5.95565">
        <ele>241</ele>
        <time>2020-09-02T14:42:14Z</time>
      </trkpt>
      <trkpt lat="47.87205" lon="5.95544">
        <ele>242</ele>
        <time>2020-09-02T14:42:18Z</time>
      </trkpt>
      <trkpt lat="47.87168" lon="5.95474">
        <ele>245</ele>
        <time>2020-09-02T14:42:29Z</time>
      </trkpt>
      <trkpt lat="47.87131" lon="5.95428">
        <ele>245</ele>
        <time>2020-09-02T14:42:37Z</time>
      </trkpt>
      <trkpt lat="47.87021" lon="5.95319">
        <ele>243</ele>
        <time>2020-09-02T14:43:01Z</time>
      </trkpt>
      <trkpt lat="47.86977" lon="5.95257">
        <ele>240</ele>
        <time>2020-09-02T14:43:11Z</time>
      </trkpt>
      <trkpt lat="47.86944" lon="5.95191">
        <ele>236</ele>
        <time>2020-09-02T14:43:21Z</time>
      </trkpt>
      <trkpt lat="47.86904" lon="5.95094">
        <ele>230</ele>
        <time>2020-09-02T14:43:35Z</time>
      </trkpt>
      <trkpt lat="47.86865" lon="5.94987">
        <ele>226</ele>
        <time>2020-09-02T14:43:49Z</time>
      </trkpt>
      <trkpt lat="47.86808" lon="5.94865">
        <ele>224</ele>
        <time>2020-09-02T14:44:07Z</time>
      </trkpt>
      <trkpt lat="47.86785" lon="5.94827">
        <ele>224</ele>
        <time>2020-09-02T14:44:13Z</time>
      </trkpt>
      <trkpt lat="47.86767" lon="5.94804">
        <ele>224</ele>
        <time>2020-09-02T14:44:17Z</time>
      </trkpt>
      <trkpt lat="47.86685" lon="5.94725">
        <ele>223</ele>
        <time>2020-09-02T14:44:35Z</time>
      </trkpt>
      <trkpt lat="47.86661" lon="5.94695">
        <ele>222</ele>
        <time>2020-09-02T14:44:40Z</time>
      </trkpt>
      <trkpt lat="47.86628" lon="5.94643">
        <ele>219</ele>
        <time>2020-09-02T14:44:49Z</time>
      </trkpt>
      <trkpt lat="47.8659" lon="5.94593">
        <ele>217</ele>
        <time>2020-09-02T14:44:58Z</time>
      </trkpt>
      <trkpt lat="47.86551" lon="5.94555">
        <ele>218</ele>
        <time>2020-09-02T14:45:06Z</time>
      </trkpt>
      <trkpt lat="47.86463" lon="5.94492">
        <ele>225</ele>
        <time>2020-09-02T14:45:24Z</time>
      </trkpt>
      <trkpt lat="47.86438" lon="5.94471">
        <ele>227</ele>
        <time>2020-09-02T14:45:29Z</time>
      </trkpt>
      <trkpt lat="47.86409" lon="5.94436">
        <ele>226</ele>
        <time>2020-09-02T14:45:35Z</time>
      </trkpt>
      <trkpt lat="47.86378" lon="5.94381">
        <ele>227</ele>
        <time>2020-09-02T14:45:44Z</time>
      </trkpt>
      <trkpt lat="47.8635" lon="5.94345">
        <ele>227</ele>
        <time>2020-09-02T14:45:51Z</time>
      </trkpt>
      <trkpt lat="47.86285" lon="5.94275">
        <ele>227</ele>
        <time>2020-09-02T14:46:05Z</time>
      </trkpt>
      <trkpt lat="47.86243" lon="5.94226">
        <ele>227</ele>
        <time>2020-09-02T14:46:14Z</time>
      </trkpt>
      <trkpt lat="47.8616" lon="5.94114">
        <ele>224</ele>
        <time>2020-09-02T14:46:34Z</time>
      </trkpt>
      <trkpt lat="47.86124" lon="5.94059">
        <ele>223</ele>
        <time>2020-09-02T14:46:43Z</time>
      </trkpt>
      <trkpt lat="47.86025" lon="5.93918">
        <ele>223</ele>
        <time>2020-09-02T14:47:08Z</time>
      </trkpt>
      <trkpt lat="47.8596" lon="5.9378">
        <ele>222</ele>
        <time>2020-09-02T14:47:28Z</time>
      </trkpt>
      <trkpt lat="47.85938" lon="5.93743">
        <ele>221</ele>
        <time>2020-09-02T14:47:34Z</time>
      </trkpt>
      <trkpt lat="47.85868" lon="5.93648">
        <ele>220</ele>
        <time>2020-09-02T14:47:51Z</time>
      </trkpt>
      <trkpt lat="47.85826" lon="5.93598">
        <ele>218</ele>
        <time>2020-09-02T14:48:00Z</time>
      </trkpt>
      <trkpt lat="47.85786" lon="5.93544">
        <ele>217</ele>
        <time>2020-09-02T14:48:10Z</time>
      </trkpt>
      <trkpt lat="47.85643" lon="5.93336">
        <ele>217</ele>
        <time>2020-09-02T14:48:45Z</time>
      </trkpt>
      <trkpt lat="47.85629" lon="5.93323">
        <ele>218</ele>
        <time>2020-09-02T14:48:48Z</time>
      </trkpt>
      <trkpt lat="47.85618" lon="5.93317">
        <ele>218</ele>
        <time>2020-09-02T14:48:50Z</time>
      </trkpt>
      <trkpt lat="47.85564" lon="5.93314">
        <ele>223</ele>
        <time>2020-09-02T14:49:00Z</time>
      </trkpt>
      <trkpt lat="47.85552" lon="5.93311">
        <ele>224</ele>
        <time>2020-09-02T14:49:02Z</time>
      </trkpt>
      <trkpt lat="47.85542" lon="5.93306">
        <ele>226</ele>
        <time>2020-09-02T14:49:04Z</time>
      </trkpt>
      <trkpt lat="47.85529" lon="5.93293">
        <ele>228</ele>
        <time>2020-09-02T14:49:07Z</time>
      </trkpt>
      <trkpt lat="47.85518" lon="5.93272">
        <ele>230</ele>
        <time>2020-09-02T14:49:10Z</time>
      </trkpt>
      <trkpt lat="47.855" lon="5.93215">
        <ele>232</ele>
        <time>2020-09-02T14:49:18Z</time>
      </trkpt>
      <trkpt lat="47.85487" lon="5.93159">
        <ele>233</ele>
        <time>2020-09-02T14:49:25Z</time>
      </trkpt>
      <trkpt lat="47.85472" lon="5.93062">
        <ele>234</ele>
        <time>2020-09-02T14:49:36Z</time>
      </trkpt>
      <trkpt lat="47.85459" lon="5.93016">
        <ele>236</ele>
        <time>2020-09-02T14:49:42Z</time>
      </trkpt>
      <trkpt lat="47.85438" lon="5.9296">
        <ele>239</ele>
        <time>2020-09-02T14:49:50Z</time>
      </trkpt>
      <trkpt lat="47.85416" lon="5.92878">
        <ele>238</ele>
        <time>2020-09-02T14:50:01Z</time>
      </trkpt>
      <trkpt lat="47.85381" lon="5.92789">
        <ele>238</ele>
        <time>2020-09-02T14:50:13Z</time>
      </trkpt>
      <trkpt lat="47.85366" lon="5.92762">
        <ele>239</ele>
        <time>2020-09-02T14:50:17Z</time>
      </trkpt>
      <trkpt lat="47.85328" lon="5.92714">
        <ele>242</ele>
        <time>2020-09-02T14:50:26Z</time>
      </trkpt>
      <trkpt lat="47.85271" lon="5.92651">
        <ele>242</ele>
        <time>2020-09-02T14:50:39Z</time>
      </trkpt>
      <trkpt lat="47.85246" lon="5.92628">
        <ele>243</ele>
        <time>2020-09-02T14:50:44Z</time>
      </trkpt>
      <trkpt lat="47.85172" lon="5.92551">
        <ele>241</ele>
        <time>2020-09-02T14:51:00Z</time>
      </trkpt>
      <trkpt lat="47.85148" lon="5.9253">
        <ele>242</ele>
        <time>2020-09-02T14:51:05Z</time>
      </trkpt>
      <trkpt lat="47.85101" lon="5.9248">
        <ele>242</ele>
        <time>2020-09-02T14:51:15Z</time>
      </trkpt>
      <trkpt lat="47.85069" lon="5.92435">
        <ele>240</ele>
        <time>2020-09-02T14:51:23Z</time>
      </trkpt>
      <trkpt lat="47.85047" lon="5.92414">
        <ele>239</ele>
        <time>2020-09-02T14:51:28Z</time>
      </trkpt>
      <trkpt lat="47.85026" lon="5.92398">
        <ele>240</ele>
        <time>2020-09-02T14:51:32Z</time>
      </trkpt>
      <trkpt lat="47.84992" lon="5.92381">
        <ele>242</ele>
        <time>2020-09-02T14:51:38Z</time>
      </trkpt>
      <trkpt lat="47.84959" lon="5.92368">
        <ele>244</ele>
        <time>2020-09-02T14:51:44Z</time>
      </trkpt>
      <trkpt lat="47.84924" lon="5.92358">
        <ele>248</ele>
        <time>2020-09-02T14:51:51Z</time>
      </trkpt>
      <trkpt lat="47.84802" lon="5.92336">
        <ele>246</ele>
        <time>2020-09-02T14:52:12Z</time>
      </trkpt>
      <trkpt lat="47.84721" lon="5.92326">
        <ele>238</ele>
        <time>2020-09-02T14:52:27Z</time>
      </trkpt>
      <trkpt lat="47.84706" lon="5.92327">
        <ele>236</ele>
        <time>2020-09-02T14:52:30Z</time>
      </trkpt>
      <trkpt lat="47.84681" lon="5.92332">
        <ele>233</ele>
        <time>2020-09-02T14:52:34Z</time>
      </trkpt>
      <trkpt lat="47.8465" lon="5.92349">
        <ele>231</ele>
        <time>2020-09-02T14:52:40Z</time>
      </trkpt>
      <trkpt lat="47.84622" lon="5.92372">
        <ele>230</ele>
        <time>2020-09-02T14:52:46Z</time>
      </trkpt>
      <trkpt lat="47.846" lon="5.92385">
        <ele>230</ele>
        <time>2020-09-02T14:52:50Z</time>
      </trkpt>
      <trkpt lat="47.84573" lon="5.92392">
        <ele>231</ele>
        <time>2020-09-02T14:52:55Z</time>
      </trkpt>
      <trkpt lat="47.84522" lon="5.92393">
        <ele>233</ele>
        <time>2020-09-02T14:53:04Z</time>
      </trkpt>
      <trkpt lat="47.845" lon="5.92399">
        <ele>234</ele>
        <time>2020-09-02T14:53:08Z</time>
      </trkpt>
      <trkpt lat="47.84463" lon="5.92414">
        <ele>236</ele>
        <time>2020-09-02T14:53:15Z</time>
      </trkpt>
      <trkpt lat="47.84439" lon="5.92427">
        <ele>236</ele>
        <time>2020-09-02T14:53:19Z</time>
      </trkpt>
      <trkpt lat="47.84425" lon="5.92446">
        <ele>236</ele>
        <time>2020-09-02T14:53:23Z</time>
      </trkpt>
      <trkpt lat="47.84422" lon="5.92456">
        <ele>236</ele>
        <time>2020-09-02T14:53:24Z</time>
      </trkpt>
      <trkpt lat="47.84375" lon="5.92454">
        <ele>234</ele>
        <time>2020-09-02T14:53:32Z</time>
      </trkpt>
      <trkpt lat="47.8429" lon="5.92444">
        <ele>228</ele>
        <time>2020-09-02T14:53:47Z</time>
      </trkpt>
      <trkpt lat="47.84233" lon="5.92442">
        <ele>224</ele>
        <time>2020-09-02T14:53:58Z</time>
      </trkpt>
      <trkpt lat="47.84226" lon="5.92436">
        <ele>224</ele>
        <time>2020-09-02T14:53:59Z</time>
      </trkpt>
      <trkpt lat="47.84217" lon="5.92416">
        <ele>223</ele>
        <time>2020-09-02T14:54:02Z</time>
      </trkpt>
      <trkpt lat="47.84208" lon="5.92384">
        <ele>221</ele>
        <time>2020-09-02T14:54:06Z</time>
      </trkpt>
      <trkpt lat="47.84082" lon="5.91907">
        <ele>212</ele>
        <time>2020-09-02T14:55:07Z</time>
      </trkpt>
      <trkpt lat="47.84072" lon="5.91861">
        <ele>213</ele>
        <time>2020-09-02T14:55:13Z</time>
      </trkpt>
      <trkpt lat="47.84058" lon="5.91765">
        <ele>214</ele>
        <time>2020-09-02T14:55:25Z</time>
      </trkpt>
      <trkpt lat="47.84024" lon="5.91641">
        <ele>217</ele>
        <time>2020-09-02T14:55:41Z</time>
      </trkpt>
      <trkpt lat="47.84022" lon="5.91627">
        <ele>218</ele>
        <time>2020-09-02T14:55:42Z</time>
      </trkpt>
      <trkpt lat="47.83976" lon="5.91572">
        <ele>220</ele>
        <time>2020-09-02T14:55:53Z</time>
      </trkpt>
      <trkpt lat="47.83957" lon="5.91542">
        <ele>222</ele>
        <time>2020-09-02T14:55:58Z</time>
      </trkpt>
      <trkpt lat="47.83918" lon="5.9147">
        <ele>224</ele>
        <time>2020-09-02T14:56:09Z</time>
      </trkpt>
      <trkpt lat="47.83895" lon="5.91416">
        <ele>224</ele>
        <time>2020-09-02T14:56:17Z</time>
      </trkpt>
      <trkpt lat="47.8387" lon="5.91352">
        <ele>226</ele>
        <time>2020-09-02T14:56:25Z</time>
      </trkpt>
      <trkpt lat="47.83707" lon="5.90851">
        <ele>218</ele>
        <time>2020-09-02T14:57:32Z</time>
      </trkpt>
      <trkpt lat="47.83707" lon="5.90806">
        <ele>218</ele>
        <time>2020-09-02T14:57:37Z</time>
      </trkpt>
      <trkpt lat="47.83722" lon="5.90702">
        <ele>218</ele>
        <time>2020-09-02T14:57:50Z</time>
      </trkpt>
      <trkpt lat="47.83731" lon="5.90605">
        <ele>218</ele>
        <time>2020-09-02T14:58:02Z</time>
      </trkpt>
      <trkpt lat="47.83739" lon="5.90492">
        <ele>219</ele>
        <time>2020-09-02T14:58:15Z</time>
      </trkpt>
      <trkpt lat="47.8374" lon="5.90378">
        <ele>218</ele>
        <time>2020-09-02T14:58:29Z</time>
      </trkpt>
      <trkpt lat="47.83754" lon="5.9022">
        <ele>217</ele>
        <time>2020-09-02T14:58:48Z</time>
      </trkpt>
      <trkpt lat="47.83749" lon="5.90187">
        <ele>217</ele>
        <time>2020-09-02T14:58:52Z</time>
      </trkpt>
      <trkpt lat="47.83735" lon="5.90164">
        <ele>217</ele>
        <time>2020-09-02T14:58:56Z</time>
      </trkpt>
      <trkpt lat="47.83719" lon="5.9017">
        <ele>217</ele>
        <time>2020-09-02T14:58:59Z</time>
      </trkpt>
      <trkpt lat="47.83551" lon="5.90125">
        <ele>215</ele>
        <time>2020-09-02T14:59:29Z</time>
      </trkpt>
      <trkpt lat="47.83475" lon="5.90107">
        <ele>214</ele>
        <time>2020-09-02T14:59:43Z</time>
      </trkpt>
      <trkpt lat="47.83348" lon="5.90071">
        <ele>216</ele>
        <time>2020-09-02T15:00:06Z</time>
      </trkpt>
      <trkpt lat="47.83284" lon="5.90057">
        <ele>216</ele>
        <time>2020-09-02T15:00:17Z</time>
      </trkpt>
      <trkpt lat="47.8285" lon="5.89942">
        <ele>215</ele>
        <time>2020-09-02T15:01:36Z</time>
      </trkpt>
      <trkpt lat="47.82812" lon="5.89924">
        <ele>215</ele>
        <time>2020-09-02T15:01:43Z</time>
      </trkpt>
      <trkpt lat="47.82808" lon="5.89913">
        <ele>215</ele>
        <time>2020-09-02T15:01:44Z</time>
      </trkpt>
      <trkpt lat="47.82801" lon="5.89909">
        <ele>215</ele>
        <time>2020-09-02T15:01:45Z</time>
      </trkpt>
      <trkpt lat="47.82792" lon="5.89917">
        <ele>215</ele>
        <time>2020-09-02T15:01:47Z</time>
      </trkpt>
      <trkpt lat="47.82788" lon="5.89928">
        <ele>215</ele>
        <time>2020-09-02T15:01:49Z</time>
      </trkpt>
      <trkpt lat="47.82786" lon="5.89958">
        <ele>215</ele>
        <time>2020-09-02T15:01:52Z</time>
      </trkpt>
      <trkpt lat="47.82779" lon="5.89982">
        <ele>215</ele>
        <time>2020-09-02T15:01:56Z</time>
      </trkpt>
      <trkpt lat="47.82766" lon="5.90013">
        <ele>215</ele>
        <time>2020-09-02T15:02:00Z</time>
      </trkpt>
      <trkpt lat="47.82759" lon="5.90041">
        <ele>215</ele>
        <time>2020-09-02T15:02:04Z</time>
      </trkpt>
      <trkpt lat="47.82759" lon="5.90084">
        <ele>214</ele>
        <time>2020-09-02T15:02:09Z</time>
      </trkpt>
      <trkpt lat="47.82773" lon="5.90155">
        <ele>215</ele>
        <time>2020-09-02T15:02:17Z</time>
      </trkpt>
      <trkpt lat="47.82738" lon="5.90158">
        <ele>215</ele>
        <time>2020-09-02T15:02:24Z</time>
      </trkpt>
      <trkpt lat="47.82748" lon="5.90184">
        <ele>215</ele>
        <time>2020-09-02T15:02:27Z</time>
      </trkpt>
      <trkpt lat="47.82757" lon="5.90219">
        <ele>214</ele>
        <time>2020-09-02T15:02:32Z</time>
      </trkpt>
      <trkpt lat="47.82757" lon="5.9023">
        <ele>214</ele>
        <time>2020-09-02T15:02:33Z</time>
      </trkpt>
      <trkpt lat="47.82753" lon="5.90245">
        <ele>214</ele>
        <time>2020-09-02T15:02:35Z</time>
      </trkpt>
      <trkpt lat="47.82744" lon="5.90258">
        <ele>214</ele>
        <time>2020-09-02T15:02:37Z</time>
      </trkpt>
      <trkpt lat="47.82703" lon="5.90269">
        <ele>215</ele>
        <time>2020-09-02T15:02:45Z</time>
      </trkpt>
      <trkpt lat="47.82699" lon="5.90285">
        <ele>215</ele>
        <time>2020-09-02T15:02:47Z</time>
      </trkpt>
      <trkpt lat="47.827" lon="5.90342">
        <ele>215</ele>
        <time>2020-09-02T15:02:54Z</time>
      </trkpt>
      <trkpt lat="47.82632" lon="5.90354">
        <ele>219</ele>
        <time>2020-09-02T15:03:06Z</time>
      </trkpt>
      <trkpt lat="47.82576" lon="5.90375">
        <ele>223</ele>
        <time>2020-09-02T15:03:16Z</time>
      </trkpt>
      <trkpt lat="47.82589" lon="5.90406">
        <ele>222</ele>
        <time>2020-09-02T15:03:20Z</time>
      </trkpt>
      <trkpt lat="47.82597" lon="5.90446">
        <ele>222</ele>
        <time>2020-09-02T15:03:25Z</time>
      </trkpt>
      <trkpt lat="47.82589" lon="5.90473">
        <ele>222</ele>
        <time>2020-09-02T15:03:29Z</time>
      </trkpt>
      <trkpt lat="47.82531" lon="5.90586">
        <ele>227</ele>
        <time>2020-09-02T15:03:46Z</time>
      </trkpt>
      <trkpt lat="47.82526" lon="5.90614">
        <ele>226</ele>
        <time>2020-09-02T15:03:49Z</time>
      </trkpt>
      <trkpt lat="47.82515" lon="5.90643">
        <ele>225</ele>
        <time>2020-09-02T15:03:53Z</time>
      </trkpt>
      <trkpt lat="47.82503" lon="5.90667">
        <ele>225</ele>
        <time>2020-09-02T15:03:57Z</time>
      </trkpt>
      <trkpt lat="47.8247" lon="5.9071">
        <ele>227</ele>
        <time>2020-09-02T15:04:05Z</time>
      </trkpt>
      <trkpt lat="47.82437" lon="5.90746">
        <ele>226</ele>
        <time>2020-09-02T15:04:12Z</time>
      </trkpt>
      <trkpt lat="47.82357" lon="5.90842">
        <ele>222</ele>
        <time>2020-09-02T15:04:30Z</time>
      </trkpt>
      <trkpt lat="47.82335" lon="5.9086">
        <ele>223</ele>
        <time>2020-09-02T15:04:35Z</time>
      </trkpt>
      <trkpt lat="47.8232" lon="5.90879">
        <ele>222</ele>
        <time>2020-09-02T15:04:38Z</time>
      </trkpt>
      <trkpt lat="47.82173" lon="5.90997">
        <ele>221</ele>
        <time>2020-09-02T15:05:08Z</time>
      </trkpt>
      <trkpt lat="47.82165" lon="5.90999">
        <ele>221</ele>
        <time>2020-09-02T15:05:09Z</time>
      </trkpt>
      <trkpt lat="47.82091" lon="5.91058">
        <ele>220</ele>
        <time>2020-09-02T15:05:24Z</time>
      </trkpt>
      <trkpt lat="47.82067" lon="5.91083">
        <ele>220</ele>
        <time>2020-09-02T15:05:29Z</time>
      </trkpt>
      <trkpt lat="47.81677" lon="5.91388">
        <ele>222</ele>
        <time>2020-09-02T15:06:48Z</time>
      </trkpt>
      <trkpt lat="47.81179" lon="5.91786">
        <ele>234</ele>
        <time>2020-09-02T15:08:28Z</time>
      </trkpt>
      <trkpt lat="47.80842" lon="5.92103">
        <ele>237</ele>
        <time>2020-09-02T15:09:39Z</time>
      </trkpt>
      <trkpt lat="47.8067" lon="5.9227">
        <ele>233</ele>
        <time>2020-09-02T15:10:16Z</time>
      </trkpt>
      <trkpt lat="47.80209" lon="5.92698">
        <ele>214</ele>
        <time>2020-09-02T15:11:53Z</time>
      </trkpt>
      <trkpt lat="47.80015" lon="5.92883">
        <ele>217</ele>
        <time>2020-09-02T15:12:34Z</time>
      </trkpt>
      <trkpt lat="47.7998" lon="5.9293">
        <ele>217</ele>
        <time>2020-09-02T15:12:42Z</time>
      </trkpt>
      <trkpt lat="47.79964" lon="5.92956">
        <ele>217</ele>
        <time>2020-09-02T15:12:46Z</time>
      </trkpt>
      <trkpt lat="47.79949" lon="5.92988">
        <ele>218</ele>
        <time>2020-09-02T15:12:51Z</time>
      </trkpt>
      <trkpt lat="47.79939" lon="5.93029">
        <ele>219</ele>
        <time>2020-09-02T15:12:56Z</time>
      </trkpt>
      <trkpt lat="47.79931" lon="5.93048">
        <ele>220</ele>
        <time>2020-09-02T15:12:59Z</time>
      </trkpt>
      <trkpt lat="47.79892" lon="5.93101">
        <ele>223</ele>
        <time>2020-09-02T15:13:08Z</time>
      </trkpt>
      <trkpt lat="47.79885" lon="5.93129">
        <ele>223</ele>
        <time>2020-09-02T15:13:12Z</time>
      </trkpt>
      <trkpt lat="47.79876" lon="5.93184">
        <ele>224</ele>
        <time>2020-09-02T15:13:18Z</time>
      </trkpt>
      <trkpt lat="47.79859" lon="5.93226">
        <ele>223</ele>
        <time>2020-09-02T15:13:24Z</time>
      </trkpt>
      <trkpt lat="47.79823" lon="5.93257">
        <ele>224</ele>
        <time>2020-09-02T15:13:32Z</time>
      </trkpt>
      <trkpt lat="47.798" lon="5.93285">
        <ele>223</ele>
        <time>2020-09-02T15:13:37Z</time>
      </trkpt>
      <trkpt lat="47.79762" lon="5.93323">
        <ele>223</ele>
        <time>2020-09-02T15:13:45Z</time>
      </trkpt>
      <trkpt lat="47.7965" lon="5.93444">
        <ele>230</ele>
        <time>2020-09-02T15:14:10Z</time>
      </trkpt>
      <trkpt lat="47.79598" lon="5.93519">
        <ele>233</ele>
        <time>2020-09-02T15:14:23Z</time>
      </trkpt>
      <trkpt lat="47.79549" lon="5.93608">
        <ele>234</ele>
        <time>2020-09-02T15:14:36Z</time>
      </trkpt>
      <trkpt lat="47.79507" lon="5.93671">
        <ele>234</ele>
        <time>2020-09-02T15:14:47Z</time>
      </trkpt>
      <trkpt lat="47.79426" lon="5.93763">
        <ele>232</ele>
        <time>2020-09-02T15:15:05Z</time>
      </trkpt>
      <trkpt lat="47.79419" lon="5.93774">
        <ele>232</ele>
        <time>2020-09-02T15:15:07Z</time>
      </trkpt>
      <trkpt lat="47.7939" lon="5.93802">
        <ele>231</ele>
        <time>2020-09-02T15:15:13Z</time>
      </trkpt>
      <trkpt lat="47.79365" lon="5.9382">
        <ele>231</ele>
        <time>2020-09-02T15:15:18Z</time>
      </trkpt>
      <trkpt lat="47.79329" lon="5.93835">
        <ele>230</ele>
        <time>2020-09-02T15:15:25Z</time>
      </trkpt>
      <trkpt lat="47.79289" lon="5.93844">
        <ele>230</ele>
        <time>2020-09-02T15:15:32Z</time>
      </trkpt>
      <trkpt lat="47.7928" lon="5.93881">
        <ele>229</ele>
        <time>2020-09-02T15:15:37Z</time>
      </trkpt>
      <trkpt lat="47.7933" lon="5.94073">
        <ele>227</ele>
        <time>2020-09-02T15:16:01Z</time>
      </trkpt>
      <trkpt lat="47.7933" lon="5.94088">
        <ele>227</ele>
        <time>2020-09-02T15:16:03Z</time>
      </trkpt>
      <trkpt lat="47.79325" lon="5.94111">
        <ele>227</ele>
        <time>2020-09-02T15:16:06Z</time>
      </trkpt>
      <trkpt lat="47.79316" lon="5.9413">
        <ele>227</ele>
        <time>2020-09-02T15:16:09Z</time>
      </trkpt>
      <trkpt lat="47.79266" lon="5.94178">
        <ele>226</ele>
        <time>2020-09-02T15:16:19Z</time>
      </trkpt>
      <trkpt lat="47.79294" lon="5.94451">
        <ele>231</ele>
        <time>2020-09-02T15:16:52Z</time>
      </trkpt>
      <trkpt lat="47.79358" lon="5.94651">
        <ele>238</ele>
        <time>2020-09-02T15:17:19Z</time>
      </trkpt>
      <trkpt lat="47.79414" lon="5.94787">
        <ele>242</ele>
        <time>2020-09-02T15:17:38Z</time>
      </trkpt>
      <trkpt lat="47.79418" lon="5.94805">
        <ele>242</ele>
        <time>2020-09-02T15:17:40Z</time>
      </trkpt>
      <trkpt lat="47.79418" lon="5.94828">
        <ele>242</ele>
        <time>2020-09-02T15:17:43Z</time>
      </trkpt>
      <trkpt lat="47.79413" lon="5.94846">
        <ele>242</ele>
        <time>2020-09-02T15:17:45Z</time>
      </trkpt>
      <trkpt lat="47.7936" lon="5.94951">
        <ele>244</ele>
        <time>2020-09-02T15:18:01Z</time>
      </trkpt>
      <trkpt lat="47.79355" lon="5.94971">
        <ele>245</ele>
        <time>2020-09-02T15:18:03Z</time>
      </trkpt>
      <trkpt lat="47.7936" lon="5.9505">
        <ele>247</ele>
        <time>2020-09-02T15:18:13Z</time>
      </trkpt>
      <trkpt lat="47.79358" lon="5.95203">
        <ele>254</ele>
        <time>2020-09-02T15:18:31Z</time>
      </trkpt>
      <trkpt lat="47.79321" lon="5.95315">
        <ele>258</ele>
        <time>2020-09-02T15:18:46Z</time>
      </trkpt>
      <trkpt lat="47.79309" lon="5.95362">
        <ele>259</ele>
        <time>2020-09-02T15:18:52Z</time>
      </trkpt>
      <trkpt lat="47.79286" lon="5.95475">
        <ele>263</ele>
        <time>2020-09-02T15:19:06Z</time>
      </trkpt>
      <trkpt lat="47.79278" lon="5.95542">
        <ele>264</ele>
        <time>2020-09-02T15:19:14Z</time>
      </trkpt>
      <trkpt lat="47.79323" lon="5.95637">
        <ele>260</ele>
        <time>2020-09-02T15:19:28Z</time>
      </trkpt>
      <trkpt lat="47.79339" lon="5.95674">
        <ele>258</ele>
        <time>2020-09-02T15:19:34Z</time>
      </trkpt>
      <trkpt lat="47.79343" lon="5.9569">
        <ele>257</ele>
        <time>2020-09-02T15:19:36Z</time>
      </trkpt>
      <trkpt lat="47.79345" lon="5.95714">
        <ele>256</ele>
        <time>2020-09-02T15:19:38Z</time>
      </trkpt>
      <trkpt lat="47.79341" lon="5.95738">
        <ele>255</ele>
        <time>2020-09-02T15:19:41Z</time>
      </trkpt>
      <trkpt lat="47.79327" lon="5.95786">
        <ele>254</ele>
        <time>2020-09-02T15:19:48Z</time>
      </trkpt>
      <trkpt lat="47.79319" lon="5.95856">
        <ele>254</ele>
        <time>2020-09-02T15:19:56Z</time>
      </trkpt>
      <trkpt lat="47.79324" lon="5.95865">
        <ele>254</ele>
        <time>2020-09-02T15:19:58Z</time>
      </trkpt>
      <trkpt lat="47.79339" lon="5.95918">
        <ele>254</ele>
        <time>2020-09-02T15:20:04Z</time>
      </trkpt>
      <trkpt lat="47.79369" lon="5.95991">
        <ele>256</ele>
        <time>2020-09-02T15:20:15Z</time>
      </trkpt>
      <trkpt lat="47.79378" lon="5.96026">
        <ele>258</ele>
        <time>2020-09-02T15:20:19Z</time>
      </trkpt>
      <trkpt lat="47.79382" lon="5.96083">
        <ele>261</ele>
        <time>2020-09-02T15:20:26Z</time>
      </trkpt>
      <trkpt lat="47.79387" lon="5.96276">
        <ele>265</ele>
        <time>2020-09-02T15:20:49Z</time>
      </trkpt>
      <trkpt lat="47.79385" lon="5.96313">
        <ele>265</ele>
        <time>2020-09-02T15:20:53Z</time>
      </trkpt>
      <trkpt lat="47.79323" lon="5.96683">
        <ele>262</ele>
        <time>2020-09-02T15:21:39Z</time>
      </trkpt>
      <trkpt lat="47.79307" lon="5.96744">
        <ele>260</ele>
        <time>2020-09-02T15:21:47Z</time>
      </trkpt>
      <trkpt lat="47.7929" lon="5.96777">
        <ele>260</ele>
        <time>2020-09-02T15:21:52Z</time>
      </trkpt>
      <trkpt lat="47.79052" lon="5.97298">
        <ele>254</ele>
        <time>2020-09-02T15:23:07Z</time>
      </trkpt>
      <trkpt lat="47.79031" lon="5.97354">
        <ele>254</ele>
        <time>2020-09-02T15:23:15Z</time>
      </trkpt>
      <trkpt lat="47.78966" lon="5.97574">
        <ele>249</ele>
        <time>2020-09-02T15:23:44Z</time>
      </trkpt>
      <trkpt lat="47.78947" lon="5.97754">
        <ele>246</ele>
        <time>2020-09-02T15:24:05Z</time>
      </trkpt>
      <trkpt lat="47.78927" lon="5.97825">
        <ele>246</ele>
        <time>2020-09-02T15:24:15Z</time>
      </trkpt>
      <trkpt lat="47.78831" lon="5.98075">
        <ele>243</ele>
        <time>2020-09-02T15:24:49Z</time>
      </trkpt>
      <trkpt lat="47.78825" lon="5.98105">
        <ele>243</ele>
        <time>2020-09-02T15:24:53Z</time>
      </trkpt>
      <trkpt lat="47.78814" lon="5.98321">
        <ele>241</ele>
        <time>2020-09-02T15:25:19Z</time>
      </trkpt>
      <trkpt lat="47.78807" lon="5.9853">
        <ele>236</ele>
        <time>2020-09-02T15:25:44Z</time>
      </trkpt>
      <trkpt lat="47.78804" lon="5.98562">
        <ele>236</ele>
        <time>2020-09-02T15:25:48Z</time>
      </trkpt>
      <trkpt lat="47.78787" lon="5.98649">
        <ele>235</ele>
        <time>2020-09-02T15:25:58Z</time>
      </trkpt>
      <trkpt lat="47.7877" lon="5.98774">
        <ele>234</ele>
        <time>2020-09-02T15:26:14Z</time>
      </trkpt>
      <trkpt lat="47.78764" lon="5.9886">
        <ele>234</ele>
        <time>2020-09-02T15:26:24Z</time>
      </trkpt>
      <trkpt lat="47.78765" lon="5.98874">
        <ele>234</ele>
        <time>2020-09-02T15:26:26Z</time>
      </trkpt>
      <trkpt lat="47.78769" lon="5.98887">
        <ele>234</ele>
        <time>2020-09-02T15:26:27Z</time>
      </trkpt>
      <trkpt lat="47.78781" lon="5.98908">
        <ele>234</ele>
        <time>2020-09-02T15:26:31Z</time>
      </trkpt>
      <trkpt lat="47.78851" lon="5.98994">
        <ele>231</ele>
        <time>2020-09-02T15:26:47Z</time>
      </trkpt>
      <trkpt lat="47.78869" lon="5.99024">
        <ele>230</ele>
        <time>2020-09-02T15:26:52Z</time>
      </trkpt>
      <trkpt lat="47.78888" lon="5.99064">
        <ele>229</ele>
        <time>2020-09-02T15:26:57Z</time>
      </trkpt>
      <trkpt lat="47.78905" lon="5.99115">
        <ele>229</ele>
        <time>2020-09-02T15:27:04Z</time>
      </trkpt>
      <trkpt lat="47.78952" lon="5.99301">
        <ele>229</ele>
        <time>2020-09-02T15:27:28Z</time>
      </trkpt>
      <trkpt lat="47.78934" lon="5.99333">
        <ele>227</ele>
        <time>2020-09-02T15:27:33Z</time>
      </trkpt>
      <trkpt lat="47.78929" lon="5.99349">
        <ele>227</ele>
        <time>2020-09-02T15:27:35Z</time>
      </trkpt>
      <trkpt lat="47.78921" lon="5.99411">
        <ele>226</ele>
        <time>2020-09-02T15:27:43Z</time>
      </trkpt>
      <trkpt lat="47.78904" lon="5.99447">
        <ele>226</ele>
        <time>2020-09-02T15:27:48Z</time>
      </trkpt>
      <trkpt lat="47.78901" lon="5.99458">
        <ele>226</ele>
        <time>2020-09-02T15:27:49Z</time>
      </trkpt>
      <trkpt lat="47.78907" lon="5.99547">
        <ele>225</ele>
        <time>2020-09-02T15:28:00Z</time>
      </trkpt>
      <trkpt lat="47.78891" lon="5.9956">
        <ele>225</ele>
        <time>2020-09-02T15:28:03Z</time>
      </trkpt>
      <trkpt lat="47.78917" lon="5.99713">
        <ele>217</ele>
        <time>2020-09-02T15:28:22Z</time>
      </trkpt>
      <trkpt lat="47.78914" lon="5.99735">
        <ele>216</ele>
        <time>2020-09-02T15:28:25Z</time>
      </trkpt>
      <trkpt lat="47.78803" lon="5.99973">
        <ele>214</ele>
        <time>2020-09-02T15:28:59Z</time>
      </trkpt>
      <trkpt lat="47.78771" lon="6.00036">
        <ele>214</ele>
        <time>2020-09-02T15:29:09Z</time>
      </trkpt>
      <trkpt lat="47.78756" lon="6.00057">
        <ele>214</ele>
        <time>2020-09-02T15:29:13Z</time>
      </trkpt>
      <trkpt lat="47.78729" lon="6.00088">
        <ele>213</ele>
        <time>2020-09-02T15:29:19Z</time>
      </trkpt>
      <trkpt lat="47.7869" lon="6.00119">
        <ele>212</ele>
        <time>2020-09-02T15:29:26Z</time>
      </trkpt>
      <trkpt lat="47.78655" lon="6.00141">
        <ele>210</ele>
        <time>2020-09-02T15:29:33Z</time>
      </trkpt>
      <trkpt lat="47.78571" lon="6.00162">
        <ele>211</ele>
        <time>2020-09-02T15:29:48Z</time>
      </trkpt>
      <trkpt lat="47.78511" lon="6.00181">
        <ele>214</ele>
        <time>2020-09-02T15:29:59Z</time>
      </trkpt>
      <trkpt lat="47.78356" lon="6.00277">
        <ele>219</ele>
        <time>2020-09-02T15:30:29Z</time>
      </trkpt>
      <trkpt lat="47.78298" lon="6.00321">
        <ele>218</ele>
        <time>2020-09-02T15:30:41Z</time>
      </trkpt>
      <trkpt lat="47.78196" lon="6.00389">
        <ele>212</ele>
        <time>2020-09-02T15:31:01Z</time>
      </trkpt>
      <trkpt lat="47.78171" lon="6.00412">
        <ele>210</ele>
        <time>2020-09-02T15:31:06Z</time>
      </trkpt>
      <trkpt lat="47.78098" lon="6.0051">
        <ele>210</ele>
        <time>2020-09-02T15:31:23Z</time>
      </trkpt>
      <trkpt lat="47.78078" lon="6.00533">
        <ele>210</ele>
        <time>2020-09-02T15:31:28Z</time>
      </trkpt>
      <trkpt lat="47.78068" lon="6.00539">
        <ele>209</ele>
        <time>2020-09-02T15:31:30Z</time>
      </trkpt>
      <trkpt lat="47.78058" lon="6.00541">
        <ele>209</ele>
        <time>2020-09-02T15:31:32Z</time>
      </trkpt>
      <trkpt lat="47.77973" lon="6.00542">
        <ele>209</ele>
        <time>2020-09-02T15:31:47Z</time>
      </trkpt>
      <trkpt lat="47.7796" lon="6.0054">
        <ele>210</ele>
        <time>2020-09-02T15:31:49Z</time>
      </trkpt>
      <trkpt lat="47.77932" lon="6.00529">
        <ele>211</ele>
        <time>2020-09-02T15:31:54Z</time>
      </trkpt>
      <trkpt lat="47.7786" lon="6.00492">
        <ele>218</ele>
        <time>2020-09-02T15:32:08Z</time>
      </trkpt>
      <trkpt lat="47.77812" lon="6.00474">
        <ele>220</ele>
        <time>2020-09-02T15:32:17Z</time>
      </trkpt>
      <trkpt lat="47.77799" lon="6.00471">
        <ele>220</ele>
        <time>2020-09-02T15:32:19Z</time>
      </trkpt>
      <trkpt lat="47.77786" lon="6.00473">
        <ele>221</ele>
        <time>2020-09-02T15:32:21Z</time>
      </trkpt>
      <trkpt lat="47.77766" lon="6.00489">
        <ele>223</ele>
        <time>2020-09-02T15:32:25Z</time>
      </trkpt>
      <trkpt lat="47.77734" lon="6.00546">
        <ele>222</ele>
        <time>2020-09-02T15:32:34Z</time>
      </trkpt>
      <trkpt lat="47.77685" lon="6.00591">
        <ele>224</ele>
        <time>2020-09-02T15:32:44Z</time>
      </trkpt>
      <trkpt lat="47.77666" lon="6.00604">
        <ele>225</ele>
        <time>2020-09-02T15:32:48Z</time>
      </trkpt>
      <trkpt lat="47.77628" lon="6.00618">
        <ele>225</ele>
        <time>2020-09-02T15:32:55Z</time>
      </trkpt>
      <trkpt lat="47.77556" lon="6.00633">
        <ele>228</ele>
        <time>2020-09-02T15:33:08Z</time>
      </trkpt>
      <trkpt lat="47.77443" lon="6.00651">
        <ele>233</ele>
        <time>2020-09-02T15:33:28Z</time>
      </trkpt>
      <trkpt lat="47.77281" lon="6.00682">
        <ele>229</ele>
        <time>2020-09-02T15:33:57Z</time>
      </trkpt>
      <trkpt lat="47.77256" lon="6.00681">
        <ele>228</ele>
        <time>2020-09-02T15:34:02Z</time>
      </trkpt>
      <trkpt lat="47.77212" lon="6.00665">
        <ele>227</ele>
        <time>2020-09-02T15:34:10Z</time>
      </trkpt>
      <trkpt lat="47.77038" lon="6.0059">
        <ele>227</ele>
        <time>2020-09-02T15:34:42Z</time>
      </trkpt>
      <trkpt lat="47.76953" lon="6.00556">
        <ele>230</ele>
        <time>2020-09-02T15:34:58Z</time>
      </trkpt>
      <trkpt lat="47.7691" lon="6.00542">
        <ele>232</ele>
        <time>2020-09-02T15:35:06Z</time>
      </trkpt>
      <trkpt lat="47.76872" lon="6.00541">
        <ele>234</ele>
        <time>2020-09-02T15:35:12Z</time>
      </trkpt>
      <trkpt lat="47.76691" lon="6.00547">
        <ele>237</ele>
        <time>2020-09-02T15:35:44Z</time>
      </trkpt>
      <trkpt lat="47.76684" lon="6.00542">
        <ele>237</ele>
        <time>2020-09-02T15:35:46Z</time>
      </trkpt>
      <trkpt lat="47.76675" lon="6.00551">
        <ele>236</ele>
        <time>2020-09-02T15:35:48Z</time>
      </trkpt>
      <trkpt lat="47.76652" lon="6.00566">
        <ele>237</ele>
        <time>2020-09-02T15:35:52Z</time>
      </trkpt>
      <trkpt lat="47.7654" lon="6.00596">
        <ele>238</ele>
        <time>2020-09-02T15:36:13Z</time>
      </trkpt>
      <trkpt lat="47.76486" lon="6.00623">
        <ele>237</ele>
        <time>2020-09-02T15:36:23Z</time>
      </trkpt>
      <trkpt lat="47.76463" lon="6.00638">
        <ele>236</ele>
        <time>2020-09-02T15:36:27Z</time>
      </trkpt>
      <trkpt lat="47.76427" lon="6.00668">
        <ele>235</ele>
        <time>2020-09-02T15:36:34Z</time>
      </trkpt>
      <trkpt lat="47.76328" lon="6.00789">
        <ele>239</ele>
        <time>2020-09-02T15:36:57Z</time>
      </trkpt>
      <trkpt lat="47.76296" lon="6.00834">
        <ele>240</ele>
        <time>2020-09-02T15:37:05Z</time>
      </trkpt>
      <trkpt lat="47.76283" lon="6.00848">
        <ele>240</ele>
        <time>2020-09-02T15:37:08Z</time>
      </trkpt>
      <trkpt lat="47.76261" lon="6.00865">
        <ele>240</ele>
        <time>2020-09-02T15:37:12Z</time>
      </trkpt>
      <trkpt lat="47.76225" lon="6.00884">
        <ele>240</ele>
        <time>2020-09-02T15:37:19Z</time>
      </trkpt>
      <trkpt lat="47.76163" lon="6.00911">
        <ele>240</ele>
        <time>2020-09-02T15:37:31Z</time>
      </trkpt>
      <trkpt lat="47.76147" lon="6.00927">
        <ele>240</ele>
        <time>2020-09-02T15:37:34Z</time>
      </trkpt>
      <trkpt lat="47.76132" lon="6.00946">
        <ele>240</ele>
        <time>2020-09-02T15:37:38Z</time>
      </trkpt>
      <trkpt lat="47.76085" lon="6.01037">
        <ele>240</ele>
        <time>2020-09-02T15:37:51Z</time>
      </trkpt>
      <trkpt lat="47.76013" lon="6.01127">
        <ele>240</ele>
        <time>2020-09-02T15:38:08Z</time>
      </trkpt>
      <trkpt lat="47.75946" lon="6.01223">
        <ele>236</ele>
        <time>2020-09-02T15:38:25Z</time>
      </trkpt>
      <trkpt lat="47.7591" lon="6.01267">
        <ele>234</ele>
        <time>2020-09-02T15:38:33Z</time>
      </trkpt>
      <trkpt lat="47.75887" lon="6.01286">
        <ele>232</ele>
        <time>2020-09-02T15:38:38Z</time>
      </trkpt>
      <trkpt lat="47.75864" lon="6.01294">
        <ele>231</ele>
        <time>2020-09-02T15:38:42Z</time>
      </trkpt>
      <trkpt lat="47.75837" lon="6.01293">
        <ele>229</ele>
        <time>2020-09-02T15:38:47Z</time>
      </trkpt>
      <trkpt lat="47.75811" lon="6.01282">
        <ele>228</ele>
        <time>2020-09-02T15:38:51Z</time>
      </trkpt>
      <trkpt lat="47.75727" lon="6.01214">
        <ele>226</ele>
        <time>2020-09-02T15:39:08Z</time>
      </trkpt>
      <trkpt lat="47.75689" lon="6.01176">
        <ele>225</ele>
        <time>2020-09-02T15:39:17Z</time>
      </trkpt>
      <trkpt lat="47.75615" lon="6.01074">
        <ele>225</ele>
        <time>2020-09-02T15:39:35Z</time>
      </trkpt>
      <trkpt lat="47.75546" lon="6.00944">
        <ele>225</ele>
        <time>2020-09-02T15:39:54Z</time>
      </trkpt>
      <trkpt lat="47.75529" lon="6.00919">
        <ele>225</ele>
        <time>2020-09-02T15:39:59Z</time>
      </trkpt>
      <trkpt lat="47.75493" lon="6.00879">
        <ele>224</ele>
        <time>2020-09-02T15:40:07Z</time>
      </trkpt>
      <trkpt lat="47.75466" lon="6.00854">
        <ele>224</ele>
        <time>2020-09-02T15:40:12Z</time>
      </trkpt>
      <trkpt lat="47.7532" lon="6.00726">
        <ele>219</ele>
        <time>2020-09-02T15:40:42Z</time>
      </trkpt>
      <trkpt lat="47.75194" lon="6.00646">
        <ele>221</ele>
        <time>2020-09-02T15:41:07Z</time>
      </trkpt>
      <trkpt lat="47.75147" lon="6.00606">
        <ele>223</ele>
        <time>2020-09-02T15:41:16Z</time>
      </trkpt>
      <trkpt lat="47.75106" lon="6.00579">
        <ele>225</ele>
        <time>2020-09-02T15:41:24Z</time>
      </trkpt>
      <trkpt lat="47.75083" lon="6.00573">
        <ele>226</ele>
        <time>2020-09-02T15:41:29Z</time>
      </trkpt>
      <trkpt lat="47.75046" lon="6.00576">
        <ele>229</ele>
        <time>2020-09-02T15:41:35Z</time>
      </trkpt>
      <trkpt lat="47.75012" lon="6.00588">
        <ele>232</ele>
        <time>2020-09-02T15:41:41Z</time>
      </trkpt>
      <trkpt lat="47.74989" lon="6.00601">
        <ele>234</ele>
        <time>2020-09-02T15:41:46Z</time>
      </trkpt>
      <trkpt lat="47.74929" lon="6.00649">
        <ele>240</ele>
        <time>2020-09-02T15:41:58Z</time>
      </trkpt>
      <trkpt lat="47.7485" lon="6.00706">
        <ele>245</ele>
        <time>2020-09-02T15:42:13Z</time>
      </trkpt>
      <trkpt lat="47.7481" lon="6.00747">
        <ele>247</ele>
        <time>2020-09-02T15:42:22Z</time>
      </trkpt>
      <trkpt lat="47.7476" lon="6.00809">
        <ele>249</ele>
        <time>2020-09-02T15:42:34Z</time>
      </trkpt>
      <trkpt lat="47.74736" lon="6.0083">
        <ele>251</ele>
        <time>2020-09-02T15:42:39Z</time>
      </trkpt>
      <trkpt lat="47.74706" lon="6.0084">
        <ele>255</ele>
        <time>2020-09-02T15:42:44Z</time>
      </trkpt>
      <trkpt lat="47.74635" lon="6.00849">
        <ele>266</ele>
        <time>2020-09-02T15:42:57Z</time>
      </trkpt>
      <trkpt lat="47.74621" lon="6.00854">
        <ele>267</ele>
        <time>2020-09-02T15:42:59Z</time>
      </trkpt>
      <trkpt lat="47.74597" lon="6.00868">
        <ele>268</ele>
        <time>2020-09-02T15:43:04Z</time>
      </trkpt>
      <trkpt lat="47.74572" lon="6.00888">
        <ele>268</ele>
        <time>2020-09-02T15:43:09Z</time>
      </trkpt>
      <trkpt lat="47.74509" lon="6.0095">
        <ele>273</ele>
        <time>2020-09-02T15:43:22Z</time>
      </trkpt>
      <trkpt lat="47.74491" lon="6.00964">
        <ele>272</ele>
        <time>2020-09-02T15:43:26Z</time>
      </trkpt>
      <trkpt lat="47.7448" lon="6.00968">
        <ele>271</ele>
        <time>2020-09-02T15:43:28Z</time>
      </trkpt>
      <trkpt lat="47.74459" lon="6.00965">
        <ele>271</ele>
        <time>2020-09-02T15:43:32Z</time>
      </trkpt>
      <trkpt lat="47.74447" lon="6.00959">
        <ele>271</ele>
        <time>2020-09-02T15:43:34Z</time>
      </trkpt>
      <trkpt lat="47.74413" lon="6.00934">
        <ele>274</ele>
        <time>2020-09-02T15:43:41Z</time>
      </trkpt>
      <trkpt lat="47.74375" lon="6.00902">
        <ele>273</ele>
        <time>2020-09-02T15:43:49Z</time>
      </trkpt>
      <trkpt lat="47.74362" lon="6.00884">
        <ele>272</ele>
        <time>2020-09-02T15:43:52Z</time>
      </trkpt>
      <trkpt lat="47.74354" lon="6.00863">
        <ele>272</ele>
        <time>2020-09-02T15:43:55Z</time>
      </trkpt>
      <trkpt lat="47.74345" lon="6.00827">
        <ele>273</ele>
        <time>2020-09-02T15:43:59Z</time>
      </trkpt>
      <trkpt lat="47.74334" lon="6.00799">
        <ele>274</ele>
        <time>2020-09-02T15:44:03Z</time>
      </trkpt>
      <trkpt lat="47.74311" lon="6.00767">
        <ele>274</ele>
        <time>2020-09-02T15:44:09Z</time>
      </trkpt>
      <trkpt lat="47.74266" lon="6.0072">
        <ele>273</ele>
        <time>2020-09-02T15:44:18Z</time>
      </trkpt>
      <trkpt lat="47.7423" lon="6.00691">
        <ele>276</ele>
        <time>2020-09-02T15:44:26Z</time>
      </trkpt>
      <trkpt lat="47.74182" lon="6.00668">
        <ele>279</ele>
        <time>2020-09-02T15:44:35Z</time>
      </trkpt>
      <trkpt lat="47.7414" lon="6.00643">
        <ele>279</ele>
        <time>2020-09-02T15:44:43Z</time>
      </trkpt>
      <trkpt lat="47.74124" lon="6.00639">
        <ele>278</ele>
        <time>2020-09-02T15:44:46Z</time>
      </trkpt>
      <trkpt lat="47.74104" lon="6.00641">
        <ele>276</ele>
        <time>2020-09-02T15:44:49Z</time>
      </trkpt>
      <trkpt lat="47.74088" lon="6.00648">
        <ele>275</ele>
        <time>2020-09-02T15:44:52Z</time>
      </trkpt>
      <trkpt lat="47.74073" lon="6.0066">
        <ele>274</ele>
        <time>2020-09-02T15:44:55Z</time>
      </trkpt>
      <trkpt lat="47.7404" lon="6.00715">
        <ele>273</ele>
        <time>2020-09-02T15:45:04Z</time>
      </trkpt>
      <trkpt lat="47.73966" lon="6.00807">
        <ele>272</ele>
        <time>2020-09-02T15:45:21Z</time>
      </trkpt>
      <trkpt lat="47.73943" lon="6.00826">
        <ele>271</ele>
        <time>2020-09-02T15:45:26Z</time>
      </trkpt>
      <trkpt lat="47.73892" lon="6.00849">
        <ele>269</ele>
        <time>2020-09-02T15:45:35Z</time>
      </trkpt>
      <trkpt lat="47.73838" lon="6.0086">
        <ele>268</ele>
        <time>2020-09-02T15:45:45Z</time>
      </trkpt>
      <trkpt lat="47.73725" lon="6.00892">
        <ele>263</ele>
        <time>2020-09-02T15:46:06Z</time>
      </trkpt>
      <trkpt lat="47.73623" lon="6.00928">
        <ele>259</ele>
        <time>2020-09-02T15:46:24Z</time>
      </trkpt>
      <trkpt lat="47.73586" lon="6.00935">
        <ele>258</ele>
        <time>2020-09-02T15:46:31Z</time>
      </trkpt>
      <trkpt lat="47.73559" lon="6.00931">
        <ele>257</ele>
        <time>2020-09-02T15:46:36Z</time>
      </trkpt>
      <trkpt lat="47.73491" lon="6.00905">
        <ele>254</ele>
        <time>2020-09-02T15:46:48Z</time>
      </trkpt>
      <trkpt lat="47.73457" lon="6.00897">
        <ele>252</ele>
        <time>2020-09-02T15:46:54Z</time>
      </trkpt>
      <trkpt lat="47.73432" lon="6.00896">
        <ele>251</ele>
        <time>2020-09-02T15:46:59Z</time>
      </trkpt>
      <trkpt lat="47.73394" lon="6.00899">
        <ele>250</ele>
        <time>2020-09-02T15:47:06Z</time>
      </trkpt>
      <trkpt lat="47.73361" lon="6.00906">
        <ele>249</ele>
        <time>2020-09-02T15:47:11Z</time>
      </trkpt>
      <trkpt lat="47.73325" lon="6.00919">
        <ele>248</ele>
        <time>2020-09-02T15:47:18Z</time>
      </trkpt>
      <trkpt lat="47.73249" lon="6.00968">
        <ele>248</ele>
        <time>2020-09-02T15:47:33Z</time>
      </trkpt>
      <trkpt lat="47.73176" lon="6.00998">
        <ele>248</ele>
        <time>2020-09-02T15:47:46Z</time>
      </trkpt>
      <trkpt lat="47.73144" lon="6.01018">
        <ele>248</ele>
        <time>2020-09-02T15:47:52Z</time>
      </trkpt>
      <trkpt lat="47.73075" lon="6.01067">
        <ele>249</ele>
        <time>2020-09-02T15:48:06Z</time>
      </trkpt>
      <trkpt lat="47.73031" lon="6.01088">
        <ele>250</ele>
        <time>2020-09-02T15:48:14Z</time>
      </trkpt>
      <trkpt lat="47.73013" lon="6.01095">
        <ele>251</ele>
        <time>2020-09-02T15:48:18Z</time>
      </trkpt>
      <trkpt lat="47.72987" lon="6.011">
        <ele>251</ele>
        <time>2020-09-02T15:48:22Z</time>
      </trkpt>
      <trkpt lat="47.72956" lon="6.011">
        <ele>250</ele>
        <time>2020-09-02T15:48:28Z</time>
      </trkpt>
      <trkpt lat="47.72927" lon="6.01104">
        <ele>249</ele>
        <time>2020-09-02T15:48:33Z</time>
      </trkpt>
      <trkpt lat="47.7287" lon="6.01124">
        <ele>248</ele>
        <time>2020-09-02T15:48:43Z</time>
      </trkpt>
      <trkpt lat="47.72846" lon="6.01135">
        <ele>248</ele>
        <time>2020-09-02T15:48:48Z</time>
      </trkpt>
      <trkpt lat="47.72739" lon="6.01201">
        <ele>253</ele>
        <time>2020-09-02T15:49:08Z</time>
      </trkpt>
      <trkpt lat="47.72704" lon="6.01219">
        <ele>252</ele>
        <time>2020-09-02T15:49:15Z</time>
      </trkpt>
      <trkpt lat="47.72668" lon="6.01232">
        <ele>250</ele>
        <time>2020-09-02T15:49:22Z</time>
      </trkpt>
      <trkpt lat="47.72521" lon="6.01259">
        <ele>249</ele>
        <time>2020-09-02T15:49:48Z</time>
      </trkpt>
      <trkpt lat="47.72489" lon="6.01268">
        <ele>250</ele>
        <time>2020-09-02T15:49:54Z</time>
      </trkpt>
      <trkpt lat="47.72461" lon="6.01279">
        <ele>251</ele>
        <time>2020-09-02T15:49:59Z</time>
      </trkpt>
      <trkpt lat="47.72398" lon="6.01312">
        <ele>252</ele>
        <time>2020-09-02T15:50:11Z</time>
      </trkpt>
      <trkpt lat="47.72351" lon="6.01333">
        <ele>253</ele>
        <time>2020-09-02T15:50:20Z</time>
      </trkpt>
      <trkpt lat="47.72304" lon="6.0135">
        <ele>253</ele>
        <time>2020-09-02T15:50:28Z</time>
      </trkpt>
      <trkpt lat="47.72235" lon="6.01368">
        <ele>253</ele>
        <time>2020-09-02T15:50:41Z</time>
      </trkpt>
      <trkpt lat="47.72174" lon="6.01379">
        <ele>251</ele>
        <time>2020-09-02T15:50:52Z</time>
      </trkpt>
      <trkpt lat="47.72029" lon="6.0142">
        <ele>248</ele>
        <time>2020-09-02T15:51:18Z</time>
      </trkpt>
      <trkpt lat="47.72006" lon="6.01431">
        <ele>247</ele>
        <time>2020-09-02T15:51:22Z</time>
      </trkpt>
      <trkpt lat="47.71955" lon="6.01463">
        <ele>246</ele>
        <time>2020-09-02T15:51:32Z</time>
      </trkpt>
      <trkpt lat="47.71815" lon="6.01565">
        <ele>244</ele>
        <time>2020-09-02T15:52:00Z</time>
      </trkpt>
      <trkpt lat="47.7178" lon="6.01601">
        <ele>244</ele>
        <time>2020-09-02T15:52:07Z</time>
      </trkpt>
      <trkpt lat="47.71758" lon="6.01626">
        <ele>244</ele>
        <time>2020-09-02T15:52:12Z</time>
      </trkpt>
      <trkpt lat="47.71717" lon="6.01681">
        <ele>250</ele>
        <time>2020-09-02T15:52:22Z</time>
      </trkpt>
      <trkpt lat="47.71671" lon="6.01751">
        <ele>255</ele>
        <time>2020-09-02T15:52:34Z</time>
      </trkpt>
      <trkpt lat="47.71596" lon="6.01857">
        <ele>254</ele>
        <time>2020-09-02T15:52:52Z</time>
      </trkpt>
      <trkpt lat="47.71547" lon="6.01917">
        <ele>254</ele>
        <time>2020-09-02T15:53:03Z</time>
      </trkpt>
      <trkpt lat="47.7143" lon="6.02042">
        <ele>248</ele>
        <time>2020-09-02T15:53:29Z</time>
      </trkpt>
      <trkpt lat="47.71273" lon="6.02223">
        <ele>252</ele>
        <time>2020-09-02T15:54:04Z</time>
      </trkpt>
      <trkpt lat="47.71092" lon="6.02458">
        <ele>251</ele>
        <time>2020-09-02T15:54:47Z</time>
      </trkpt>
      <trkpt lat="47.71048" lon="6.0251">
        <ele>249</ele>
        <time>2020-09-02T15:54:57Z</time>
      </trkpt>
      <trkpt lat="47.71011" lon="6.02538">
        <ele>250</ele>
        <time>2020-09-02T15:55:05Z</time>
      </trkpt>
      <trkpt lat="47.70956" lon="6.02566">
        <ele>251</ele>
        <time>2020-09-02T15:55:15Z</time>
      </trkpt>
      <trkpt lat="47.70937" lon="6.02579">
        <ele>251</ele>
        <time>2020-09-02T15:55:19Z</time>
      </trkpt>
      <trkpt lat="47.70834" lon="6.0266">
        <ele>243</ele>
        <time>2020-09-02T15:55:39Z</time>
      </trkpt>
      <trkpt lat="47.70796" lon="6.02678">
        <ele>242</ele>
        <time>2020-09-02T15:55:46Z</time>
      </trkpt>
      <trkpt lat="47.7077" lon="6.02682">
        <ele>242</ele>
        <time>2020-09-02T15:55:51Z</time>
      </trkpt>
      <trkpt lat="47.70743" lon="6.02682">
        <ele>241</ele>
        <time>2020-09-02T15:55:56Z</time>
      </trkpt>
      <trkpt lat="47.70716" lon="6.02674">
        <ele>241</ele>
        <time>2020-09-02T15:56:01Z</time>
      </trkpt>
      <trkpt lat="47.7068" lon="6.02654">
        <ele>240</ele>
        <time>2020-09-02T15:56:08Z</time>
      </trkpt>
      <trkpt lat="47.70504" lon="6.0253">
        <ele>238</ele>
        <time>2020-09-02T15:56:42Z</time>
      </trkpt>
      <trkpt lat="47.70477" lon="6.02514">
        <ele>237</ele>
        <time>2020-09-02T15:56:48Z</time>
      </trkpt>
      <trkpt lat="47.70456" lon="6.02505">
        <ele>236</ele>
        <time>2020-09-02T15:56:51Z</time>
      </trkpt>
      <trkpt lat="47.70429" lon="6.02501">
        <ele>235</ele>
        <time>2020-09-02T15:56:56Z</time>
      </trkpt>
      <trkpt lat="47.70403" lon="6.02505">
        <ele>233</ele>
        <time>2020-09-02T15:57:01Z</time>
      </trkpt>
      <trkpt lat="47.70383" lon="6.02514">
        <ele>232</ele>
        <time>2020-09-02T15:57:05Z</time>
      </trkpt>
      <trkpt lat="47.70353" lon="6.02537">
        <ele>230</ele>
        <time>2020-09-02T15:57:11Z</time>
      </trkpt>
      <trkpt lat="47.70268" lon="6.02635">
        <ele>223</ele>
        <time>2020-09-02T15:57:30Z</time>
      </trkpt>
      <trkpt lat="47.70237" lon="6.02686">
        <ele>222</ele>
        <time>2020-09-02T15:57:38Z</time>
      </trkpt>
      <trkpt lat="47.7016" lon="6.0287">
        <ele>221</ele>
        <time>2020-09-02T15:58:04Z</time>
      </trkpt>
      <trkpt lat="47.70129" lon="6.02924">
        <ele>221</ele>
        <time>2020-09-02T15:58:12Z</time>
      </trkpt>
      <trkpt lat="47.70115" lon="6.02954">
        <ele>221</ele>
        <time>2020-09-02T15:58:17Z</time>
      </trkpt>
      <trkpt lat="47.70105" lon="6.02986">
        <ele>221</ele>
        <time>2020-09-02T15:58:21Z</time>
      </trkpt>
      <trkpt lat="47.70093" lon="6.03046">
        <ele>222</ele>
        <time>2020-09-02T15:58:29Z</time>
      </trkpt>
      <trkpt lat="47.70079" lon="6.03128">
        <ele>222</ele>
        <time>2020-09-02T15:58:39Z</time>
      </trkpt>
      <trkpt lat="47.70074" lon="6.03184">
        <ele>221</ele>
        <time>2020-09-02T15:58:45Z</time>
      </trkpt>
      <trkpt lat="47.70084" lon="6.03418">
        <ele>216</ele>
        <time>2020-09-02T15:59:13Z</time>
      </trkpt>
      <trkpt lat="47.70079" lon="6.03488">
        <ele>215</ele>
        <time>2020-09-02T15:59:22Z</time>
      </trkpt>
      <trkpt lat="47.70065" lon="6.03553">
        <ele>216</ele>
        <time>2020-09-02T15:59:30Z</time>
      </trkpt>
      <trkpt lat="47.70055" lon="6.03584">
        <ele>217</ele>
        <time>2020-09-02T15:59:34Z</time>
      </trkpt>
      <trkpt lat="47.70036" lon="6.03622">
        <ele>217</ele>
        <time>2020-09-02T15:59:40Z</time>
      </trkpt>
      <trkpt lat="47.70006" lon="6.03669">
        <ele>216</ele>
        <time>2020-09-02T15:59:48Z</time>
      </trkpt>
      <trkpt lat="47.6999" lon="6.03688">
        <ele>216</ele>
        <time>2020-09-02T15:59:51Z</time>
      </trkpt>
      <trkpt lat="47.69956" lon="6.03716">
        <ele>216</ele>
        <time>2020-09-02T15:59:58Z</time>
      </trkpt>
      <trkpt lat="47.69937" lon="6.03728">
        <ele>215</ele>
        <time>2020-09-02T16:00:02Z</time>
      </trkpt>
      <trkpt lat="47.69864" lon="6.03761">
        <ele>215</ele>
        <time>2020-09-02T16:00:15Z</time>
      </trkpt>
      <trkpt lat="47.69746" lon="6.03806">
        <ele>213</ele>
        <time>2020-09-02T16:00:37Z</time>
      </trkpt>
      <trkpt lat="47.69714" lon="6.03815">
        <ele>213</ele>
        <time>2020-09-02T16:00:43Z</time>
      </trkpt>
      <trkpt lat="47.69671" lon="6.03823">
        <ele>212</ele>
        <time>2020-09-02T16:00:51Z</time>
      </trkpt>
      <trkpt lat="47.69604" lon="6.03826">
        <ele>214</ele>
        <time>2020-09-02T16:01:03Z</time>
      </trkpt>
      <trkpt lat="47.6957" lon="6.03823">
        <ele>215</ele>
        <time>2020-09-02T16:01:09Z</time>
      </trkpt>
      <trkpt lat="47.69433" lon="6.03806">
        <ele>215</ele>
        <time>2020-09-02T16:01:33Z</time>
      </trkpt>
      <trkpt lat="47.69366" lon="6.03802">
        <ele>213</ele>
        <time>2020-09-02T16:01:45Z</time>
      </trkpt>
      <trkpt lat="47.69228" lon="6.03781">
        <ele>209</ele>
        <time>2020-09-02T16:02:10Z</time>
      </trkpt>
      <trkpt lat="47.69207" lon="6.03781">
        <ele>209</ele>
        <time>2020-09-02T16:02:13Z</time>
      </trkpt>
      <trkpt lat="47.69133" lon="6.03799">
        <ele>208</ele>
        <time>2020-09-02T16:02:27Z</time>
      </trkpt>
      <trkpt lat="47.691" lon="6.03789">
        <ele>208</ele>
        <time>2020-09-02T16:02:33Z</time>
      </trkpt>
      <trkpt lat="47.69092" lon="6.03784">
        <ele>208</ele>
        <time>2020-09-02T16:02:34Z</time>
      </trkpt>
      <trkpt lat="47.691" lon="6.03789">
        <ele>208</ele>
        <time>2020-09-02T16:02:36Z</time>
      </trkpt>
      <trkpt lat="47.68915" lon="6.0425">
        <ele>212</ele>
        <time>2020-09-02T16:03:40Z</time>
      </trkpt>
      <trkpt lat="47.68903" lon="6.04245">
        <ele>212</ele>
        <time>2020-09-02T16:03:42Z</time>
      </trkpt>
      <trkpt lat="47.68834" lon="6.04887">
        <ele>228</ele>
        <time>2020-09-02T16:05:00Z</time>
      </trkpt>
      <trkpt lat="47.68618" lon="6.04475">
        <ele>225</ele>
        <time>2020-09-02T16:06:03Z</time>
      </trkpt>
      <trkpt lat="47.68025" lon="6.04442">
        <ele>210</ele>
        <time>2020-09-02T16:07:48Z</time>
      </trkpt>
      <trkpt lat="47.67864" lon="6.04903">
        <ele>230</ele>
        <time>2020-09-02T16:08:51Z</time>
      </trkpt>
      <trkpt lat="47.66098" lon="6.05791">
        <ele>230</ele>
        <time>2020-09-02T16:14:22Z</time>
      </trkpt>
      <trkpt lat="47.65667" lon="6.05758">
        <ele>215</ele>
        <time>2020-09-02T16:15:39Z</time>
      </trkpt>
      <trkpt lat="47.65681" lon="6.06054">
        <ele>232</ele>
        <time>2020-09-02T16:16:15Z</time>
      </trkpt>
      <trkpt lat="47.65438" lon="6.05989">
        <ele>245</ele>
        <time>2020-09-02T16:16:59Z</time>
      </trkpt>
      <trkpt lat="47.63592" lon="6.06795">
        <ele>249</ele>
        <time>2020-09-02T16:22:41Z</time>
      </trkpt>
      <trkpt lat="47.63983" lon="6.0765">
        <ele>224</ele>
        <time>2020-09-02T16:24:45Z</time>
      </trkpt>
      <trkpt lat="47.64242" lon="6.08259">
        <ele>218</ele>
        <time>2020-09-02T16:26:11Z</time>
      </trkpt>
      <trkpt lat="47.64716" lon="6.0917">
        <ele>216</ele>
        <time>2020-09-02T16:28:29Z</time>
      </trkpt>
      <trkpt lat="47.64614" lon="6.09371">
        <ele>214</ele>
        <time>2020-09-02T16:28:59Z</time>
      </trkpt>
      <trkpt lat="47.64616" lon="6.09558">
        <ele>211</ele>
        <time>2020-09-02T16:29:22Z</time>
      </trkpt>
      <trkpt lat="47.64492" lon="6.09979">
        <ele>211</ele>
        <time>2020-09-02T16:30:17Z</time>
      </trkpt>
      <trkpt lat="47.64411" lon="6.09956">
        <ele>212</ele>
        <time>2020-09-02T16:30:31Z</time>
      </trkpt>
      <trkpt lat="47.63891" lon="6.10315">
        <ele>217</ele>
        <time>2020-09-02T16:32:14Z</time>
      </trkpt>
      <trkpt lat="47.63848" lon="6.10509">
        <ele>218</ele>
        <time>2020-09-02T16:32:38Z</time>
      </trkpt>
      <trkpt lat="47.63786" lon="6.10483">
        <ele>218</ele>
        <time>2020-09-02T16:32:49Z</time>
      </trkpt>
      <trkpt lat="47.63695" lon="6.10479">
        <ele>218</ele>
        <time>2020-09-02T16:33:06Z</time>
      </trkpt>
      <trkpt lat="47.63641" lon="6.10358">
        <ele>217</ele>
        <time>2020-09-02T16:33:23Z</time>
      </trkpt>
      <trkpt lat="47.63293" lon="6.10131">
        <ele>218</ele>
        <time>2020-09-02T16:34:31Z</time>
      </trkpt>
      <trkpt lat="47.62617" lon="6.11063">
        <ele>225</ele>
        <time>2020-09-02T16:37:15Z</time>
      </trkpt>
      <trkpt lat="47.62131" lon="6.12231">
        <ele>221</ele>
        <time>2020-09-02T16:40:00Z</time>
      </trkpt>
      <trkpt lat="47.61884" lon="6.12713">
        <ele>219</ele>
        <time>2020-09-02T16:41:12Z</time>
      </trkpt>
      <trkpt lat="47.61875" lon="6.12708">
        <ele>219</ele>
        <time>2020-09-02T16:41:14Z</time>
      </trkpt>
      <trkpt lat="47.61318" lon="6.15087">
        <ele>225</ele>
        <time>2020-09-02T16:46:16Z</time>
      </trkpt>
      <trkpt lat="47.61296" lon="6.15416">
        <ele>225</ele>
        <time>2020-09-02T16:46:56Z</time>
      </trkpt>
      <trkpt lat="47.61377" lon="6.15888">
        <ele>221</ele>
        <time>2020-09-02T16:47:54Z</time>
      </trkpt>
      <trkpt lat="47.61372" lon="6.16244">
        <ele>227</ele>
        <time>2020-09-02T16:48:37Z</time>
      </trkpt>
      <trkpt lat="47.61507" lon="6.16727">
        <ele>225</ele>
        <time>2020-09-02T16:49:39Z</time>
      </trkpt>
      <trkpt lat="47.61501" lon="6.16724">
        <ele>226</ele>
        <time>2020-09-02T16:49:41Z</time>
      </trkpt>
      <trkpt lat="47.61492" lon="6.1673">
        <ele>227</ele>
        <time>2020-09-02T16:49:42Z</time>
      </trkpt>
      <trkpt lat="47.61489" lon="6.16738">
        <ele>227</ele>
        <time>2020-09-02T16:49:43Z</time>
      </trkpt>
      <trkpt lat="47.61487" lon="6.16757">
        <ele>228</ele>
        <time>2020-09-02T16:49:46Z</time>
      </trkpt>
      <trkpt lat="47.6149" lon="6.16824">
        <ele>228</ele>
        <time>2020-09-02T16:49:54Z</time>
      </trkpt>
      <trkpt lat="47.61496" lon="6.16841">
        <ele>227</ele>
        <time>2020-09-02T16:49:56Z</time>
      </trkpt>
      <trkpt lat="47.6151" lon="6.16858">
        <ele>226</ele>
        <time>2020-09-02T16:49:59Z</time>
      </trkpt>
      <trkpt lat="47.61517" lon="6.16933">
        <ele>227</ele>
        <time>2020-09-02T16:50:08Z</time>
      </trkpt>
      <trkpt lat="47.61567" lon="6.17217">
        <ele>232</ele>
        <time>2020-09-02T16:50:44Z</time>
      </trkpt>
      <trkpt lat="47.61581" lon="6.17318">
        <ele>234</ele>
        <time>2020-09-02T16:50:56Z</time>
      </trkpt>
      <trkpt lat="47.61585" lon="6.17415">
        <ele>234</ele>
        <time>2020-09-02T16:51:08Z</time>
      </trkpt>
      <trkpt lat="47.61585" lon="6.175">
        <ele>235</ele>
        <time>2020-09-02T16:51:18Z</time>
      </trkpt>
      <trkpt lat="47.61574" lon="6.17635">
        <ele>238</ele>
        <time>2020-09-02T16:51:34Z</time>
      </trkpt>
      <trkpt lat="47.61536" lon="6.17845">
        <ele>239</ele>
        <time>2020-09-02T16:52:00Z</time>
      </trkpt>
      <trkpt lat="47.61451" lon="6.18346">
        <ele>239</ele>
        <time>2020-09-02T16:53:02Z</time>
      </trkpt>
      <trkpt lat="47.61418" lon="6.18489">
        <ele>244</ele>
        <time>2020-09-02T16:53:20Z</time>
      </trkpt>
      <trkpt lat="47.61394" lon="6.18553">
        <ele>249</ele>
        <time>2020-09-02T16:53:29Z</time>
      </trkpt>
      <trkpt lat="47.6137" lon="6.18608">
        <ele>252</ele>
        <time>2020-09-02T16:53:37Z</time>
      </trkpt>
      <trkpt lat="47.61326" lon="6.18691">
        <ele>250</ele>
        <time>2020-09-02T16:53:50Z</time>
      </trkpt>
      <trkpt lat="47.61131" lon="6.1903">
        <ele>254</ele>
        <time>2020-09-02T16:54:43Z</time>
      </trkpt>
      <trkpt lat="47.61107" lon="6.19068">
        <ele>253</ele>
        <time>2020-09-02T16:54:49Z</time>
      </trkpt>
      <trkpt lat="47.6104" lon="6.19157">
        <ele>251</ele>
        <time>2020-09-02T16:55:05Z</time>
      </trkpt>
      <trkpt lat="47.60969" lon="6.19258">
        <ele>246</ele>
        <time>2020-09-02T16:55:23Z</time>
      </trkpt>
      <trkpt lat="47.60938" lon="6.19315">
        <ele>247</ele>
        <time>2020-09-02T16:55:32Z</time>
      </trkpt>
      <trkpt lat="47.60907" lon="6.19381">
        <ele>246</ele>
        <time>2020-09-02T16:55:41Z</time>
      </trkpt>
      <trkpt lat="47.60894" lon="6.19416">
        <ele>245</ele>
        <time>2020-09-02T16:55:46Z</time>
      </trkpt>
      <trkpt lat="47.6075" lon="6.19872">
        <ele>244</ele>
        <time>2020-09-02T16:56:46Z</time>
      </trkpt>
      <trkpt lat="47.6072" lon="6.19953">
        <ele>244</ele>
        <time>2020-09-02T16:56:57Z</time>
      </trkpt>
      <trkpt lat="47.60695" lon="6.20007">
        <ele>243</ele>
        <time>2020-09-02T16:57:05Z</time>
      </trkpt>
      <trkpt lat="47.60641" lon="6.20091">
        <ele>241</ele>
        <time>2020-09-02T16:57:19Z</time>
      </trkpt>
      <trkpt lat="47.60585" lon="6.20154">
        <ele>247</ele>
        <time>2020-09-02T16:57:32Z</time>
      </trkpt>
      <trkpt lat="47.60561" lon="6.20176">
        <ele>249</ele>
        <time>2020-09-02T16:57:37Z</time>
      </trkpt>
      <trkpt lat="47.6053" lon="6.20198">
        <ele>250</ele>
        <time>2020-09-02T16:57:43Z</time>
      </trkpt>
      <trkpt lat="47.60503" lon="6.20213">
        <ele>251</ele>
        <time>2020-09-02T16:57:48Z</time>
      </trkpt>
      <trkpt lat="47.6044" lon="6.2024">
        <ele>251</ele>
        <time>2020-09-02T16:58:00Z</time>
      </trkpt>
      <trkpt lat="47.60372" lon="6.20261">
        <ele>252</ele>
        <time>2020-09-02T16:58:12Z</time>
      </trkpt>
      <trkpt lat="47.60251" lon="6.20289">
        <ele>252</ele>
        <time>2020-09-02T16:58:34Z</time>
      </trkpt>
      <trkpt lat="47.60128" lon="6.20313">
        <ele>252</ele>
        <time>2020-09-02T16:58:56Z</time>
      </trkpt>
      <trkpt lat="47.59947" lon="6.20341">
        <ele>258</ele>
        <time>2020-09-02T16:59:28Z</time>
      </trkpt>
      <trkpt lat="47.59916" lon="6.2035">
        <ele>259</ele>
        <time>2020-09-02T16:59:34Z</time>
      </trkpt>
      <trkpt lat="47.59876" lon="6.20369">
        <ele>258</ele>
        <time>2020-09-02T16:59:41Z</time>
      </trkpt>
      <trkpt lat="47.59806" lon="6.20409">
        <ele>256</ele>
        <time>2020-09-02T16:59:55Z</time>
      </trkpt>
      <trkpt lat="47.59783" lon="6.20428">
        <ele>255</ele>
        <time>2020-09-02T16:59:59Z</time>
      </trkpt>
      <trkpt lat="47.59647" lon="6.2056">
        <ele>254</ele>
        <time>2020-09-02T17:00:28Z</time>
      </trkpt>
      <trkpt lat="47.59611" lon="6.2059">
        <ele>255</ele>
        <time>2020-09-02T17:00:36Z</time>
      </trkpt>
      <trkpt lat="47.59589" lon="6.20603">
        <ele>254</ele>
        <time>2020-09-02T17:00:40Z</time>
      </trkpt>
      <trkpt lat="47.59553" lon="6.20631">
        <ele>255</ele>
        <time>2020-09-02T17:00:47Z</time>
      </trkpt>
      <trkpt lat="47.59451" lon="6.20693">
        <ele>257</ele>
        <time>2020-09-02T17:01:07Z</time>
      </trkpt>
      <trkpt lat="47.59391" lon="6.20737">
        <ele>257</ele>
        <time>2020-09-02T17:01:19Z</time>
      </trkpt>
      <trkpt lat="47.59337" lon="6.20787">
        <ele>255</ele>
        <time>2020-09-02T17:01:30Z</time>
      </trkpt>
      <trkpt lat="47.59311" lon="6.20818">
        <ele>255</ele>
        <time>2020-09-02T17:01:36Z</time>
      </trkpt>
      <trkpt lat="47.59275" lon="6.2087">
        <ele>254</ele>
        <time>2020-09-02T17:01:45Z</time>
      </trkpt>
      <trkpt lat="47.59233" lon="6.20949">
        <ele>255</ele>
        <time>2020-09-02T17:01:57Z</time>
      </trkpt>
      <trkpt lat="47.59211" lon="6.21004">
        <ele>256</ele>
        <time>2020-09-02T17:02:05Z</time>
      </trkpt>
      <trkpt lat="47.59199" lon="6.2104">
        <ele>257</ele>
        <time>2020-09-02T17:02:09Z</time>
      </trkpt>
      <trkpt lat="47.59178" lon="6.21118">
        <ele>258</ele>
        <time>2020-09-02T17:02:20Z</time>
      </trkpt>
      <trkpt lat="47.59118" lon="6.21368">
        <ele>259</ele>
        <time>2020-09-02T17:02:51Z</time>
      </trkpt>
      <trkpt lat="47.59089" lon="6.215">
        <ele>259</ele>
        <time>2020-09-02T17:03:08Z</time>
      </trkpt>
      <trkpt lat="47.5908" lon="6.21611">
        <ele>260</ele>
        <time>2020-09-02T17:03:21Z</time>
      </trkpt>
      <trkpt lat="47.59081" lon="6.217">
        <ele>262</ele>
        <time>2020-09-02T17:03:32Z</time>
      </trkpt>
      <trkpt lat="47.59087" lon="6.21754">
        <ele>263</ele>
        <time>2020-09-02T17:03:39Z</time>
      </trkpt>
      <trkpt lat="47.59094" lon="6.21791">
        <ele>263</ele>
        <time>2020-09-02T17:03:43Z</time>
      </trkpt>
      <trkpt lat="47.59104" lon="6.21838">
        <ele>263</ele>
        <time>2020-09-02T17:03:49Z</time>
      </trkpt>
      <trkpt lat="47.59175" lon="6.22095">
        <ele>265</ele>
        <time>2020-09-02T17:04:23Z</time>
      </trkpt>
      <trkpt lat="47.59193" lon="6.22173">
        <ele>266</ele>
        <time>2020-09-02T17:04:32Z</time>
      </trkpt>
      <trkpt lat="47.59201" lon="6.2223">
        <ele>266</ele>
        <time>2020-09-02T17:04:39Z</time>
      </trkpt>
      <trkpt lat="47.59205" lon="6.22273">
        <ele>265</ele>
        <time>2020-09-02T17:04:45Z</time>
      </trkpt>
      <trkpt lat="47.59207" lon="6.22372">
        <ele>266</ele>
        <time>2020-09-02T17:04:57Z</time>
      </trkpt>
      <trkpt lat="47.59194" lon="6.22415">
        <ele>267</ele>
        <time>2020-09-02T17:05:02Z</time>
      </trkpt>
      <trkpt lat="47.59198" lon="6.22436">
        <ele>268</ele>
        <time>2020-09-02T17:05:05Z</time>
      </trkpt>
      <trkpt lat="47.59199" lon="6.22484">
        <ele>268</ele>
        <time>2020-09-02T17:05:11Z</time>
      </trkpt>
      <trkpt lat="47.59186" lon="6.22554">
        <ele>270</ele>
        <time>2020-09-02T17:05:19Z</time>
      </trkpt>
      <trkpt lat="47.59165" lon="6.22624">
        <ele>271</ele>
        <time>2020-09-02T17:05:28Z</time>
      </trkpt>
      <trkpt lat="47.59125" lon="6.22737">
        <ele>273</ele>
        <time>2020-09-02T17:05:44Z</time>
      </trkpt>
      <trkpt lat="47.59084" lon="6.22863">
        <ele>271</ele>
        <time>2020-09-02T17:06:01Z</time>
      </trkpt>
      <trkpt lat="47.59054" lon="6.22942">
        <ele>272</ele>
        <time>2020-09-02T17:06:11Z</time>
      </trkpt>
      <trkpt lat="47.59039" lon="6.22964">
        <ele>272</ele>
        <time>2020-09-02T17:06:15Z</time>
      </trkpt>
      <trkpt lat="47.59032" lon="6.2298">
        <ele>272</ele>
        <time>2020-09-02T17:06:17Z</time>
      </trkpt>
      <trkpt lat="47.59046" lon="6.23005">
        <ele>272</ele>
        <time>2020-09-02T17:06:21Z</time>
      </trkpt>
      <trkpt lat="47.59034" lon="6.23019">
        <ele>272</ele>
        <time>2020-09-02T17:06:24Z</time>
      </trkpt>
      <trkpt lat="47.59007" lon="6.23138">
        <ele>273</ele>
        <time>2020-09-02T17:06:39Z</time>
      </trkpt>
      <trkpt lat="47.58999" lon="6.23209">
        <ele>273</ele>
        <time>2020-09-02T17:06:48Z</time>
      </trkpt>
      <trkpt lat="47.58994" lon="6.23292">
        <ele>274</ele>
        <time>2020-09-02T17:06:58Z</time>
      </trkpt>
      <trkpt lat="47.5898" lon="6.23448">
        <ele>274</ele>
        <time>2020-09-02T17:07:17Z</time>
      </trkpt>
      <trkpt lat="47.58956" lon="6.23574">
        <ele>273</ele>
        <time>2020-09-02T17:07:32Z</time>
      </trkpt>
      <trkpt lat="47.58924" lon="6.23675">
        <ele>274</ele>
        <time>2020-09-02T17:07:46Z</time>
      </trkpt>
      <trkpt lat="47.58889" lon="6.23746">
        <ele>273</ele>
        <time>2020-09-02T17:07:56Z</time>
      </trkpt>
      <trkpt lat="47.58867" lon="6.23776">
        <ele>274</ele>
        <time>2020-09-02T17:08:02Z</time>
      </trkpt>
      <trkpt lat="47.58844" lon="6.23815">
        <ele>277</ele>
        <time>2020-09-02T17:08:08Z</time>
      </trkpt>
      <trkpt lat="47.58681" lon="6.24013">
        <ele>279</ele>
        <time>2020-09-02T17:08:45Z</time>
      </trkpt>
      <trkpt lat="47.58651" lon="6.24058">
        <ele>279</ele>
        <time>2020-09-02T17:08:53Z</time>
      </trkpt>
      <trkpt lat="47.58608" lon="6.24141">
        <ele>277</ele>
        <time>2020-09-02T17:09:06Z</time>
      </trkpt>
      <trkpt lat="47.58587" lon="6.24192">
        <ele>275</ele>
        <time>2020-09-02T17:09:13Z</time>
      </trkpt>
      <trkpt lat="47.58547" lon="6.24326">
        <ele>279</ele>
        <time>2020-09-02T17:09:30Z</time>
      </trkpt>
      <trkpt lat="47.58504" lon="6.24487">
        <ele>288</ele>
        <time>2020-09-02T17:09:51Z</time>
      </trkpt>
      <trkpt lat="47.58473" lon="6.24575">
        <ele>291</ele>
        <time>2020-09-02T17:10:03Z</time>
      </trkpt>
      <trkpt lat="47.58394" lon="6.2478">
        <ele>292</ele>
        <time>2020-09-02T17:10:31Z</time>
      </trkpt>
      <trkpt lat="47.58368" lon="6.24839">
        <ele>294</ele>
        <time>2020-09-02T17:10:40Z</time>
      </trkpt>
      <trkpt lat="47.58267" lon="6.25097">
        <ele>296</ele>
        <time>2020-09-02T17:11:16Z</time>
      </trkpt>
      <trkpt lat="47.58202" lon="6.25254">
        <ele>294</ele>
        <time>2020-09-02T17:11:38Z</time>
      </trkpt>
      <trkpt lat="47.58179" lon="6.25305">
        <ele>294</ele>
        <time>2020-09-02T17:11:45Z</time>
      </trkpt>
      <trkpt lat="47.58159" lon="6.25342">
        <ele>294</ele>
        <time>2020-09-02T17:11:51Z</time>
      </trkpt>
      <trkpt lat="47.58145" lon="6.2536">
        <ele>294</ele>
        <time>2020-09-02T17:11:54Z</time>
      </trkpt>
      <trkpt lat="47.5813" lon="6.25385">
        <ele>293</ele>
        <time>2020-09-02T17:11:58Z</time>
      </trkpt>
      <trkpt lat="47.58086" lon="6.25439">
        <ele>293</ele>
        <time>2020-09-02T17:12:08Z</time>
      </trkpt>
      <trkpt lat="47.58029" lon="6.25495">
        <ele>293</ele>
        <time>2020-09-02T17:12:20Z</time>
      </trkpt>
      <trkpt lat="47.57988" lon="6.25525">
        <ele>295</ele>
        <time>2020-09-02T17:12:29Z</time>
      </trkpt>
      <trkpt lat="47.57966" lon="6.25537">
        <ele>295</ele>
        <time>2020-09-02T17:12:33Z</time>
      </trkpt>
      <trkpt lat="47.57943" lon="6.25541">
        <ele>295</ele>
        <time>2020-09-02T17:12:37Z</time>
      </trkpt>
      <trkpt lat="47.57906" lon="6.25554">
        <ele>296</ele>
        <time>2020-09-02T17:12:44Z</time>
      </trkpt>
      <trkpt lat="47.57844" lon="6.25569">
        <ele>299</ele>
        <time>2020-09-02T17:12:55Z</time>
      </trkpt>
      <trkpt lat="47.578" lon="6.25577">
        <ele>301</ele>
        <time>2020-09-02T17:13:03Z</time>
      </trkpt>
      <trkpt lat="47.57723" lon="6.25597">
        <ele>304</ele>
        <time>2020-09-02T17:13:17Z</time>
      </trkpt>
      <trkpt lat="47.57689" lon="6.2561">
        <ele>304</ele>
        <time>2020-09-02T17:13:23Z</time>
      </trkpt>
      <trkpt lat="47.57648" lon="6.2563">
        <ele>305</ele>
        <time>2020-09-02T17:13:30Z</time>
      </trkpt>
      <trkpt lat="47.57619" lon="6.25649">
        <ele>305</ele>
        <time>2020-09-02T17:13:36Z</time>
      </trkpt>
      <trkpt lat="47.57451" lon="6.25788">
        <ele>309</ele>
        <time>2020-09-02T17:14:10Z</time>
      </trkpt>
      <trkpt lat="47.57446" lon="6.25787">
        <ele>309</ele>
        <time>2020-09-02T17:14:11Z</time>
      </trkpt>
      <trkpt lat="47.57433" lon="6.25766">
        <ele>307</ele>
        <time>2020-09-02T17:14:15Z</time>
      </trkpt>
      <trkpt lat="47.57426" lon="6.25781">
        <ele>308</ele>
        <time>2020-09-02T17:14:17Z</time>
      </trkpt>
      <trkpt lat="47.57423" lon="6.25778">
        <ele>308</ele>
        <time>2020-09-02T17:14:17Z</time>
      </trkpt>
      <trkpt lat="47.57417" lon="6.2578">
        <ele>308</ele>
        <time>2020-09-02T17:14:19Z</time>
      </trkpt>
      <trkpt lat="47.57396" lon="6.25808">
        <ele>309</ele>
        <time>2020-09-02T17:14:24Z</time>
      </trkpt>
      <trkpt lat="47.57383" lon="6.25835">
        <ele>310</ele>
        <time>2020-09-02T17:14:28Z</time>
      </trkpt>
      <trkpt lat="47.57376" lon="6.25856">
        <ele>311</ele>
        <time>2020-09-02T17:14:30Z</time>
      </trkpt>
      <trkpt lat="47.57311" lon="6.25905">
        <ele>312</ele>
        <time>2020-09-02T17:14:43Z</time>
      </trkpt>
      <trkpt lat="47.5726" lon="6.25948">
        <ele>315</ele>
        <time>2020-09-02T17:14:54Z</time>
      </trkpt>
      <trkpt lat="47.57222" lon="6.25986">
        <ele>319</ele>
        <time>2020-09-02T17:15:02Z</time>
      </trkpt>
      <trkpt lat="47.57187" lon="6.26029">
        <ele>322</ele>
        <time>2020-09-02T17:15:10Z</time>
      </trkpt>
      <trkpt lat="47.57164" lon="6.26064">
        <ele>323</ele>
        <time>2020-09-02T17:15:16Z</time>
      </trkpt>
      <trkpt lat="47.57115" lon="6.26155">
        <ele>325</ele>
        <time>2020-09-02T17:15:30Z</time>
      </trkpt>
      <trkpt lat="47.5708" lon="6.26235">
        <ele>331</ele>
        <time>2020-09-02T17:15:41Z</time>
      </trkpt>
      <trkpt lat="47.57069" lon="6.26272">
        <ele>335</ele>
        <time>2020-09-02T17:15:46Z</time>
      </trkpt>
      <trkpt lat="47.57057" lon="6.26332">
        <ele>338</ele>
        <time>2020-09-02T17:15:54Z</time>
      </trkpt>
      <trkpt lat="47.57032" lon="6.26491">
        <ele>336</ele>
        <time>2020-09-02T17:16:13Z</time>
      </trkpt>
      <trkpt lat="47.57004" lon="6.26582">
        <ele>334</ele>
        <time>2020-09-02T17:16:25Z</time>
      </trkpt>
      <trkpt lat="47.5698" lon="6.26697">
        <ele>328</ele>
        <time>2020-09-02T17:16:40Z</time>
      </trkpt>
      <trkpt lat="47.56966" lon="6.26739">
        <ele>326</ele>
        <time>2020-09-02T17:16:45Z</time>
      </trkpt>
      <trkpt lat="47.56951" lon="6.26767">
        <ele>324</ele>
        <time>2020-09-02T17:16:50Z</time>
      </trkpt>
      <trkpt lat="47.56786" lon="6.27028">
        <ele>316</ele>
        <time>2020-09-02T17:17:33Z</time>
      </trkpt>
      <trkpt lat="47.56238" lon="6.27868">
        <ele>305</ele>
        <time>2020-09-02T17:19:53Z</time>
      </trkpt>
      <trkpt lat="47.5618" lon="6.27939">
        <ele>305</ele>
        <time>2020-09-02T17:20:06Z</time>
      </trkpt>
      <trkpt lat="47.56129" lon="6.27993">
        <ele>305</ele>
        <time>2020-09-02T17:20:17Z</time>
      </trkpt>
      <trkpt lat="47.56088" lon="6.28025">
        <ele>307</ele>
        <time>2020-09-02T17:20:26Z</time>
      </trkpt>
      <trkpt lat="47.56044" lon="6.28053">
        <ele>303</ele>
        <time>2020-09-02T17:20:34Z</time>
      </trkpt>
      <trkpt lat="47.55988" lon="6.28079">
        <ele>297</ele>
        <time>2020-09-02T17:20:45Z</time>
      </trkpt>
      <trkpt lat="47.55931" lon="6.28102">
        <ele>291</ele>
        <time>2020-09-02T17:20:55Z</time>
      </trkpt>
      <trkpt lat="47.55908" lon="6.28109">
        <ele>289</ele>
        <time>2020-09-02T17:20:59Z</time>
      </trkpt>
      <trkpt lat="47.55835" lon="6.28119">
        <ele>288</ele>
        <time>2020-09-02T17:21:12Z</time>
      </trkpt>
      <trkpt lat="47.55808" lon="6.2812">
        <ele>288</ele>
        <time>2020-09-02T17:21:17Z</time>
      </trkpt>
      <trkpt lat="47.55766" lon="6.28118">
        <ele>286</ele>
        <time>2020-09-02T17:21:25Z</time>
      </trkpt>
      <trkpt lat="47.55728" lon="6.28112">
        <ele>287</ele>
        <time>2020-09-02T17:21:31Z</time>
      </trkpt>
      <trkpt lat="47.55674" lon="6.281">
        <ele>289</ele>
        <time>2020-09-02T17:21:41Z</time>
      </trkpt>
      <trkpt lat="47.55632" lon="6.28085">
        <ele>290</ele>
        <time>2020-09-02T17:21:49Z</time>
      </trkpt>
      <trkpt lat="47.55586" lon="6.28062">
        <ele>292</ele>
        <time>2020-09-02T17:21:58Z</time>
      </trkpt>
      <trkpt lat="47.55536" lon="6.28031">
        <ele>291</ele>
        <time>2020-09-02T17:22:07Z</time>
      </trkpt>
      <trkpt lat="47.55501" lon="6.28001">
        <ele>290</ele>
        <time>2020-09-02T17:22:14Z</time>
      </trkpt>
      <trkpt lat="47.55417" lon="6.27912">
        <ele>283</ele>
        <time>2020-09-02T17:22:33Z</time>
      </trkpt>
      <trkpt lat="47.5533" lon="6.27796">
        <ele>286</ele>
        <time>2020-09-02T17:22:54Z</time>
      </trkpt>
      <trkpt lat="47.55111" lon="6.27521">
        <ele>282</ele>
        <time>2020-09-02T17:23:45Z</time>
      </trkpt>
      <trkpt lat="47.54773" lon="6.27073">
        <ele>275</ele>
        <time>2020-09-02T17:25:05Z</time>
      </trkpt>
      <trkpt lat="47.54773" lon="6.27056">
        <ele>275</ele>
        <time>2020-09-02T17:25:07Z</time>
      </trkpt>
      <trkpt lat="47.54769" lon="6.27037">
        <ele>274</ele>
        <time>2020-09-02T17:25:10Z</time>
      </trkpt>
      <trkpt lat="47.54759" lon="6.27022">
        <ele>274</ele>
        <time>2020-09-02T17:25:12Z</time>
      </trkpt>
      <trkpt lat="47.54734" lon="6.26993">
        <ele>274</ele>
        <time>2020-09-02T17:25:18Z</time>
      </trkpt>
      <trkpt lat="47.54721" lon="6.26988">
        <ele>275</ele>
        <time>2020-09-02T17:25:20Z</time>
      </trkpt>
      <trkpt lat="47.54735" lon="6.27024">
        <ele>274</ele>
        <time>2020-09-02T17:25:25Z</time>
      </trkpt>
      <trkpt lat="47.54646" lon="6.26898">
        <ele>277</ele>
        <time>2020-09-02T17:25:47Z</time>
      </trkpt>
      <trkpt lat="47.54576" lon="6.2681">
        <ele>278</ele>
        <time>2020-09-02T17:26:04Z</time>
      </trkpt>
      <trkpt lat="47.53979" lon="6.26025">
        <ele>270</ele>
        <time>2020-09-02T17:28:26Z</time>
      </trkpt>
      <trkpt lat="47.53928" lon="6.25955">
        <ele>270</ele>
        <time>2020-09-02T17:28:38Z</time>
      </trkpt>
      <trkpt lat="47.53379" lon="6.25231">
        <ele>267</ele>
        <time>2020-09-02T17:30:49Z</time>
      </trkpt>
      <trkpt lat="47.53351" lon="6.25197">
        <ele>267</ele>
        <time>2020-09-02T17:30:55Z</time>
      </trkpt>
      <trkpt lat="47.53327" lon="6.25173">
        <ele>267</ele>
        <time>2020-09-02T17:31:00Z</time>
      </trkpt>
      <trkpt lat="47.53289" lon="6.25143">
        <ele>268</ele>
        <time>2020-09-02T17:31:08Z</time>
      </trkpt>
      <trkpt lat="47.53242" lon="6.25111">
        <ele>269</ele>
        <time>2020-09-02T17:31:17Z</time>
      </trkpt>
      <trkpt lat="47.53169" lon="6.25081">
        <ele>265</ele>
        <time>2020-09-02T17:31:31Z</time>
      </trkpt>
      <trkpt lat="47.53144" lon="6.25074">
        <ele>265</ele>
        <time>2020-09-02T17:31:35Z</time>
      </trkpt>
      <trkpt lat="47.53091" lon="6.25069">
        <ele>264</ele>
        <time>2020-09-02T17:31:45Z</time>
      </trkpt>
      <trkpt lat="47.52825" lon="6.25074">
        <ele>269</ele>
        <time>2020-09-02T17:32:32Z</time>
      </trkpt>
      <trkpt lat="47.52782" lon="6.25066">
        <ele>269</ele>
        <time>2020-09-02T17:32:40Z</time>
      </trkpt>
      <trkpt lat="47.52698" lon="6.25024">
        <ele>268</ele>
        <time>2020-09-02T17:32:55Z</time>
      </trkpt>
      <trkpt lat="47.52376" lon="6.24816">
        <ele>271</ele>
        <time>2020-09-02T17:33:58Z</time>
      </trkpt>
      <trkpt lat="47.52267" lon="6.2474">
        <ele>270</ele>
        <time>2020-09-02T17:34:19Z</time>
      </trkpt>
      <trkpt lat="47.52101" lon="6.24596">
        <ele>264</ele>
        <time>2020-09-02T17:34:54Z</time>
      </trkpt>
      <trkpt lat="47.52034" lon="6.24545">
        <ele>263</ele>
        <time>2020-09-02T17:35:07Z</time>
      </trkpt>
      <trkpt lat="47.51916" lon="6.24447">
        <ele>266</ele>
        <time>2020-09-02T17:35:31Z</time>
      </trkpt>
      <trkpt lat="47.5181" lon="6.24352">
        <ele>266</ele>
        <time>2020-09-02T17:35:53Z</time>
      </trkpt>
      <trkpt lat="47.51684" lon="6.24216">
        <ele>267</ele>
        <time>2020-09-02T17:36:21Z</time>
      </trkpt>
      <trkpt lat="47.51626" lon="6.24158">
        <ele>265</ele>
        <time>2020-09-02T17:36:33Z</time>
      </trkpt>
      <trkpt lat="47.51288" lon="6.23847">
        <ele>262</ele>
        <time>2020-09-02T17:37:44Z</time>
      </trkpt>
      <trkpt lat="47.51204" lon="6.23765">
        <ele>261</ele>
        <time>2020-09-02T17:38:02Z</time>
      </trkpt>
      <trkpt lat="47.51171" lon="6.23736">
        <ele>261</ele>
        <time>2020-09-02T17:38:09Z</time>
      </trkpt>
      <trkpt lat="47.5111" lon="6.23698">
        <ele>260</ele>
        <time>2020-09-02T17:38:21Z</time>
      </trkpt>
      <trkpt lat="47.50962" lon="6.2362">
        <ele>260</ele>
        <time>2020-09-02T17:38:49Z</time>
      </trkpt>
      <trkpt lat="47.50952" lon="6.2361">
        <ele>260</ele>
        <time>2020-09-02T17:38:51Z</time>
      </trkpt>
      <trkpt lat="47.50933" lon="6.23597">
        <ele>260</ele>
        <time>2020-09-02T17:38:55Z</time>
      </trkpt>
      <trkpt lat="47.50776" lon="6.23445">
        <ele>263</ele>
        <time>2020-09-02T17:39:28Z</time>
      </trkpt>
      <trkpt lat="47.50588" lon="6.23253">
        <ele>266</ele>
        <time>2020-09-02T17:40:09Z</time>
      </trkpt>
      <trkpt lat="47.50494" lon="6.23165">
        <ele>263</ele>
        <time>2020-09-02T17:40:28Z</time>
      </trkpt>
      <trkpt lat="47.50376" lon="6.23064">
        <ele>264</ele>
        <time>2020-09-02T17:40:53Z</time>
      </trkpt>
      <trkpt lat="47.50321" lon="6.2302">
        <ele>269</ele>
        <time>2020-09-02T17:41:04Z</time>
      </trkpt>
      <trkpt lat="47.50177" lon="6.22893">
        <ele>272</ele>
        <time>2020-09-02T17:41:34Z</time>
      </trkpt>
      <trkpt lat="47.49992" lon="6.22754">
        <ele>274</ele>
        <time>2020-09-02T17:42:10Z</time>
      </trkpt>
      <trkpt lat="47.49931" lon="6.22712">
        <ele>274</ele>
        <time>2020-09-02T17:42:22Z</time>
      </trkpt>
      <trkpt lat="47.49844" lon="6.22656">
        <ele>273</ele>
        <time>2020-09-02T17:42:39Z</time>
      </trkpt>
      <trkpt lat="47.49796" lon="6.22634">
        <ele>273</ele>
        <time>2020-09-02T17:42:48Z</time>
      </trkpt>
      <trkpt lat="47.49722" lon="6.22606">
        <ele>273</ele>
        <time>2020-09-02T17:43:02Z</time>
      </trkpt>
      <trkpt lat="47.49263" lon="6.22458">
        <ele>268</ele>
        <time>2020-09-02T17:44:25Z</time>
      </trkpt>
      <trkpt lat="47.49197" lon="6.22432">
        <ele>263</ele>
        <time>2020-09-02T17:44:38Z</time>
      </trkpt>
      <trkpt lat="47.49132" lon="6.2241">
        <ele>259</ele>
        <time>2020-09-02T17:44:49Z</time>
      </trkpt>
      <trkpt lat="47.49098" lon="6.22405">
        <ele>259</ele>
        <time>2020-09-02T17:44:55Z</time>
      </trkpt>
      <trkpt lat="47.49048" lon="6.22404">
        <ele>259</ele>
        <time>2020-09-02T17:45:04Z</time>
      </trkpt>
      <trkpt lat="47.49024" lon="6.22406">
        <ele>259</ele>
        <time>2020-09-02T17:45:09Z</time>
      </trkpt>
      <trkpt lat="47.4894" lon="6.22427">
        <ele>261</ele>
        <time>2020-09-02T17:45:24Z</time>
      </trkpt>
      <trkpt lat="47.48914" lon="6.22441">
        <ele>261</ele>
        <time>2020-09-02T17:45:29Z</time>
      </trkpt>
      <trkpt lat="47.48885" lon="6.22458">
        <ele>259</ele>
        <time>2020-09-02T17:45:34Z</time>
      </trkpt>
      <trkpt lat="47.48821" lon="6.22506">
        <ele>257</ele>
        <time>2020-09-02T17:45:47Z</time>
      </trkpt>
      <trkpt lat="47.48772" lon="6.22555">
        <ele>257</ele>
        <time>2020-09-02T17:45:58Z</time>
      </trkpt>
      <trkpt lat="47.48744" lon="6.22593">
        <ele>259</ele>
        <time>2020-09-02T17:46:04Z</time>
      </trkpt>
      <trkpt lat="47.4872" lon="6.22631">
        <ele>259</ele>
        <time>2020-09-02T17:46:11Z</time>
      </trkpt>
      <trkpt lat="47.48675" lon="6.22722">
        <ele>260</ele>
        <time>2020-09-02T17:46:24Z</time>
      </trkpt>
      <trkpt lat="47.48656" lon="6.22769">
        <ele>264</ele>
        <time>2020-09-02T17:46:31Z</time>
      </trkpt>
      <trkpt lat="47.48655" lon="6.22762">
        <ele>264</ele>
        <time>2020-09-02T17:46:32Z</time>
      </trkpt>
      <trkpt lat="47.48649" lon="6.22763">
        <ele>266</ele>
        <time>2020-09-02T17:46:33Z</time>
      </trkpt>
      <trkpt lat="47.48641" lon="6.22738">
        <ele>269</ele>
        <time>2020-09-02T17:46:36Z</time>
      </trkpt>
      <trkpt lat="47.48636" lon="6.22756">
        <ele>271</ele>
        <time>2020-09-02T17:46:38Z</time>
      </trkpt>
      <trkpt lat="47.48639" lon="6.22799">
        <ele>270</ele>
        <time>2020-09-02T17:46:44Z</time>
      </trkpt>
      <trkpt lat="47.48602" lon="6.22976">
        <ele>275</ele>
        <time>2020-09-02T17:47:06Z</time>
      </trkpt>
      <trkpt lat="47.48566" lon="6.23118">
        <ele>276</ele>
        <time>2020-09-02T17:47:24Z</time>
      </trkpt>
      <trkpt lat="47.48518" lon="6.23229">
        <ele>281</ele>
        <time>2020-09-02T17:47:40Z</time>
      </trkpt>
      <trkpt lat="47.48479" lon="6.23296">
        <ele>278</ele>
        <time>2020-09-02T17:47:51Z</time>
      </trkpt>
      <trkpt lat="47.48381" lon="6.23398">
        <ele>277</ele>
        <time>2020-09-02T17:48:12Z</time>
      </trkpt>
      <trkpt lat="47.4831" lon="6.23439">
        <ele>279</ele>
        <time>2020-09-02T17:48:25Z</time>
      </trkpt>
      <trkpt lat="47.48224" lon="6.23471">
        <ele>278</ele>
        <time>2020-09-02T17:48:41Z</time>
      </trkpt>
      <trkpt lat="47.4812" lon="6.2348">
        <ele>281</ele>
        <time>2020-09-02T17:49:00Z</time>
      </trkpt>
      <trkpt lat="47.47874" lon="6.23481">
        <ele>283</ele>
        <time>2020-09-02T17:49:43Z</time>
      </trkpt>
      <trkpt lat="47.47677" lon="6.2353">
        <ele>286</ele>
        <time>2020-09-02T17:50:19Z</time>
      </trkpt>
      <trkpt lat="47.47454" lon="6.2364">
        <ele>287</ele>
        <time>2020-09-02T17:51:01Z</time>
      </trkpt>
      <trkpt lat="47.47367" lon="6.23678">
        <ele>287</ele>
        <time>2020-09-02T17:51:17Z</time>
      </trkpt>
      <trkpt lat="47.4736" lon="6.23693">
        <ele>287</ele>
        <time>2020-09-02T17:51:19Z</time>
      </trkpt>
      <trkpt lat="47.47312" lon="6.23715">
        <ele>288</ele>
        <time>2020-09-02T17:51:28Z</time>
      </trkpt>
      <trkpt lat="47.47306" lon="6.23724">
        <ele>288</ele>
        <time>2020-09-02T17:51:30Z</time>
      </trkpt>
      <trkpt lat="47.47312" lon="6.23747">
        <ele>288</ele>
        <time>2020-09-02T17:51:33Z</time>
      </trkpt>
      <trkpt lat="47.47299" lon="6.23748">
        <ele>288</ele>
        <time>2020-09-02T17:51:35Z</time>
      </trkpt>
      <trkpt lat="47.47294" lon="6.23761">
        <ele>289</ele>
        <time>2020-09-02T17:51:37Z</time>
      </trkpt>
      <trkpt lat="47.47316" lon="6.23798">
        <ele>289</ele>
        <time>2020-09-02T17:51:43Z</time>
      </trkpt>
      <trkpt lat="47.47315" lon="6.23875">
        <ele>291</ele>
        <time>2020-09-02T17:51:52Z</time>
      </trkpt>
      <trkpt lat="47.47235" lon="6.24021">
        <ele>298</ele>
        <time>2020-09-02T17:52:15Z</time>
      </trkpt>
      <trkpt lat="47.47195" lon="6.23975">
        <ele>299</ele>
        <time>2020-09-02T17:52:24Z</time>
      </trkpt>
      <trkpt lat="47.47103" lon="6.23838">
        <ele>302</ele>
        <time>2020-09-02T17:52:47Z</time>
      </trkpt>
      <trkpt lat="47.46858" lon="6.23488">
        <ele>304</ele>
        <time>2020-09-02T17:53:47Z</time>
      </trkpt>
      <trkpt lat="47.46766" lon="6.23338">
        <ele>307</ele>
        <time>2020-09-02T17:54:12Z</time>
      </trkpt>
      <trkpt lat="47.46742" lon="6.23317">
        <ele>305</ele>
        <time>2020-09-02T17:54:17Z</time>
      </trkpt>
      <trkpt lat="47.46718" lon="6.23259">
        <ele>304</ele>
        <time>2020-09-02T17:54:25Z</time>
      </trkpt>
      <trkpt lat="47.46711" lon="6.23227">
        <ele>304</ele>
        <time>2020-09-02T17:54:29Z</time>
      </trkpt>
      <trkpt lat="47.46646" lon="6.23163">
        <ele>303</ele>
        <time>2020-09-02T17:54:43Z</time>
      </trkpt>
      <trkpt lat="47.46612" lon="6.23201">
        <ele>301</ele>
        <time>2020-09-02T17:54:50Z</time>
      </trkpt>
      <trkpt lat="47.46555" lon="6.23277">
        <ele>295</ele>
        <time>2020-09-02T17:55:04Z</time>
      </trkpt>
      <trkpt lat="47.46523" lon="6.23341">
        <ele>290</ele>
        <time>2020-09-02T17:55:14Z</time>
      </trkpt>
      <trkpt lat="47.46513" lon="6.23374">
        <ele>288</ele>
        <time>2020-09-02T17:55:18Z</time>
      </trkpt>
      <trkpt lat="47.46422" lon="6.23628">
        <ele>289</ele>
        <time>2020-09-02T17:55:53Z</time>
      </trkpt>
      <trkpt lat="47.46415" lon="6.23654">
        <ele>290</ele>
        <time>2020-09-02T17:55:56Z</time>
      </trkpt>
      <trkpt lat="47.46423" lon="6.23678">
        <ele>292</ele>
        <time>2020-09-02T17:55:59Z</time>
      </trkpt>
      <trkpt lat="47.46378" lon="6.23685">
        <ele>293</ele>
        <time>2020-09-02T17:56:07Z</time>
      </trkpt>
      <trkpt lat="47.46317" lon="6.23684">
        <ele>295</ele>
        <time>2020-09-02T17:56:18Z</time>
      </trkpt>
      <trkpt lat="47.46119" lon="6.23617">
        <ele>287</ele>
        <time>2020-09-02T17:56:54Z</time>
      </trkpt>
      <trkpt lat="47.4603" lon="6.23584">
        <ele>285</ele>
        <time>2020-09-02T17:57:11Z</time>
      </trkpt>
      <trkpt lat="47.45942" lon="6.23541">
        <ele>285</ele>
        <time>2020-09-02T17:57:27Z</time>
      </trkpt>
      <trkpt lat="47.45917" lon="6.23522">
        <ele>286</ele>
        <time>2020-09-02T17:57:32Z</time>
      </trkpt>
      <trkpt lat="47.45852" lon="6.23456">
        <ele>285</ele>
        <time>2020-09-02T17:57:46Z</time>
      </trkpt>
      <trkpt lat="47.45779" lon="6.23364">
        <ele>286</ele>
        <time>2020-09-02T17:58:03Z</time>
      </trkpt>
      <trkpt lat="47.45741" lon="6.23307">
        <ele>286</ele>
        <time>2020-09-02T17:58:13Z</time>
      </trkpt>
      <trkpt lat="47.45646" lon="6.23184">
        <ele>286</ele>
        <time>2020-09-02T17:58:35Z</time>
      </trkpt>
      <trkpt lat="47.45601" lon="6.23136">
        <ele>285</ele>
        <time>2020-09-02T17:58:45Z</time>
      </trkpt>
      <trkpt lat="47.45587" lon="6.23125">
        <ele>284</ele>
        <time>2020-09-02T17:58:48Z</time>
      </trkpt>
      <trkpt lat="47.45208" lon="6.22905">
        <ele>272</ele>
        <time>2020-09-02T18:00:00Z</time>
      </trkpt>
      <trkpt lat="47.45157" lon="6.22866">
        <ele>270</ele>
        <time>2020-09-02T18:00:11Z</time>
      </trkpt>
      <trkpt lat="47.4509" lon="6.22807">
        <ele>268</ele>
        <time>2020-09-02T18:00:24Z</time>
      </trkpt>
      <trkpt lat="47.44872" lon="6.22587">
        <ele>269</ele>
        <time>2020-09-02T18:01:11Z</time>
      </trkpt>
      <trkpt lat="47.44806" lon="6.22529">
        <ele>271</ele>
        <time>2020-09-02T18:01:25Z</time>
      </trkpt>
      <trkpt lat="47.4466" lon="6.22444">
        <ele>272</ele>
        <time>2020-09-02T18:01:53Z</time>
      </trkpt>
      <trkpt lat="47.44532" lon="6.22374">
        <ele>268</ele>
        <time>2020-09-02T18:02:17Z</time>
      </trkpt>
      <trkpt lat="47.44414" lon="6.2229">
        <ele>263</ele>
        <time>2020-09-02T18:02:41Z</time>
      </trkpt>
      <trkpt lat="47.44362" lon="6.22238">
        <ele>260</ele>
        <time>2020-09-02T18:02:52Z</time>
      </trkpt>
      <trkpt lat="47.44288" lon="6.22147">
        <ele>257</ele>
        <time>2020-09-02T18:03:09Z</time>
      </trkpt>
      <trkpt lat="47.4422" lon="6.22045">
        <ele>255</ele>
        <time>2020-09-02T18:03:26Z</time>
      </trkpt>
      <trkpt lat="47.44143" lon="6.21893">
        <ele>253</ele>
        <time>2020-09-02T18:03:49Z</time>
      </trkpt>
      <trkpt lat="47.44073" lon="6.21714">
        <ele>250</ele>
        <time>2020-09-02T18:04:14Z</time>
      </trkpt>
      <trkpt lat="47.44032" lon="6.21597">
        <ele>250</ele>
        <time>2020-09-02T18:04:30Z</time>
      </trkpt>
      <trkpt lat="47.44005" lon="6.21535">
        <ele>248</ele>
        <time>2020-09-02T18:04:39Z</time>
      </trkpt>
      <trkpt lat="47.43983" lon="6.21499">
        <ele>248</ele>
        <time>2020-09-02T18:04:44Z</time>
      </trkpt>
      <trkpt lat="47.43946" lon="6.21446">
        <ele>246</ele>
        <time>2020-09-02T18:04:54Z</time>
      </trkpt>
      <trkpt lat="47.43956" lon="6.21409">
        <ele>246</ele>
        <time>2020-09-02T18:04:58Z</time>
      </trkpt>
      <trkpt lat="47.43786" lon="6.21124">
        <ele>240</ele>
        <time>2020-09-02T18:05:44Z</time>
      </trkpt>
      <trkpt lat="47.43578" lon="6.21206">
        <ele>241</ele>
        <time>2020-09-02T18:06:22Z</time>
      </trkpt>
      <trkpt lat="47.4353" lon="6.20956">
        <ele>233</ele>
        <time>2020-09-02T18:06:54Z</time>
      </trkpt>
      <trkpt lat="47.43576" lon="6.2081">
        <ele>234</ele>
        <time>2020-09-02T18:07:13Z</time>
      </trkpt>
      <trkpt lat="47.43411" lon="6.20157">
        <ele>251</ele>
        <time>2020-09-02T18:08:37Z</time>
      </trkpt>
      <trkpt lat="47.43402" lon="6.20154">
        <ele>251</ele>
        <time>2020-09-02T18:08:39Z</time>
      </trkpt>
      <trkpt lat="47.43267" lon="6.19705">
        <ele>256</ele>
        <time>2020-09-02T18:09:38Z</time>
      </trkpt>
      <trkpt lat="47.42045" lon="6.18542">
        <ele>242</ele>
        <time>2020-09-02T18:13:56Z</time>
      </trkpt>
      <trkpt lat="47.41902" lon="6.18509">
        <ele>237</ele>
        <time>2020-09-02T18:14:22Z</time>
      </trkpt>
      <trkpt lat="47.41955" lon="6.18323">
        <ele>234</ele>
        <time>2020-09-02T18:14:46Z</time>
      </trkpt>
      <trkpt lat="47.41291" lon="6.17917">
        <ele>237</ele>
        <time>2020-09-02T18:16:54Z</time>
      </trkpt>
      <trkpt lat="47.41111" lon="6.18125">
        <ele>240</ele>
        <time>2020-09-02T18:17:35Z</time>
      </trkpt>
      <trkpt lat="47.4094" lon="6.18443">
        <ele>235</ele>
        <time>2020-09-02T18:18:24Z</time>
      </trkpt>
      <trkpt lat="47.4077" lon="6.19266">
        <ele>237</ele>
        <time>2020-09-02T18:20:07Z</time>
      </trkpt>
      <trkpt lat="47.40446" lon="6.19551">
        <ele>242</ele>
        <time>2020-09-02T18:21:14Z</time>
      </trkpt>
      <trkpt lat="47.40186" lon="6.19507">
        <ele>250</ele>
        <time>2020-09-02T18:22:01Z</time>
      </trkpt>
      <trkpt lat="47.39826" lon="6.1909">
        <ele>255</ele>
        <time>2020-09-02T18:23:22Z</time>
      </trkpt>
      <trkpt lat="47.39772" lon="6.19083">
        <ele>253</ele>
        <time>2020-09-02T18:23:32Z</time>
      </trkpt>
      <trkpt lat="47.39432" lon="6.19178">
        <ele>242</ele>
        <time>2020-09-02T18:24:34Z</time>
      </trkpt>
      <trkpt lat="47.39222" lon="6.19339">
        <ele>245</ele>
        <time>2020-09-02T18:25:16Z</time>
      </trkpt>
      <trkpt lat="47.39111" lon="6.19491">
        <ele>242</ele>
        <time>2020-09-02T18:25:43Z</time>
      </trkpt>
      <trkpt lat="47.3902" lon="6.19556">
        <ele>244</ele>
        <time>2020-09-02T18:26:01Z</time>
      </trkpt>
      <trkpt lat="47.38952" lon="6.19705">
        <ele>245</ele>
        <time>2020-09-02T18:26:22Z</time>
      </trkpt>
      <trkpt lat="47.38909" lon="6.19685">
        <ele>244</ele>
        <time>2020-09-02T18:26:30Z</time>
      </trkpt>
      <trkpt lat="47.38812" lon="6.19626">
        <ele>245</ele>
        <time>2020-09-02T18:26:49Z</time>
      </trkpt>
      <trkpt lat="47.38704" lon="6.19649">
        <ele>247</ele>
        <time>2020-09-02T18:27:08Z</time>
      </trkpt>
      <trkpt lat="47.38254" lon="6.19846">
        <ele>255</ele>
        <time>2020-09-02T18:28:32Z</time>
      </trkpt>
      <trkpt lat="47.38136" lon="6.19839">
        <ele>253</ele>
        <time>2020-09-02T18:28:53Z</time>
      </trkpt>
      <trkpt lat="47.37934" lon="6.19767">
        <ele>252</ele>
        <time>2020-09-02T18:29:30Z</time>
      </trkpt>
      <trkpt lat="47.37777" lon="6.1976">
        <ele>254</ele>
        <time>2020-09-02T18:29:58Z</time>
      </trkpt>
      <trkpt lat="47.37521" lon="6.19933">
        <ele>262</ele>
        <time>2020-09-02T18:30:48Z</time>
      </trkpt>
      <trkpt lat="47.37058" lon="6.2014">
        <ele>286</ele>
        <time>2020-09-02T18:32:14Z</time>
      </trkpt>
      <trkpt lat="47.36263" lon="6.1938">
        <ele>295</ele>
        <time>2020-09-02T18:35:03Z</time>
      </trkpt>
      <trkpt lat="47.36147" lon="6.19314">
        <ele>289</ele>
        <time>2020-09-02T18:35:25Z</time>
      </trkpt>
      <trkpt lat="47.35565" lon="6.1884">
        <ele>278</ele>
        <time>2020-09-02T18:37:23Z</time>
      </trkpt>
      <trkpt lat="47.35495" lon="6.18732">
        <ele>270</ele>
        <time>2020-09-02T18:37:41Z</time>
      </trkpt>
      <trkpt lat="47.35497" lon="6.18577">
        <ele>261</ele>
        <time>2020-09-02T18:38:00Z</time>
      </trkpt>
      <trkpt lat="47.35465" lon="6.18551">
        <ele>257</ele>
        <time>2020-09-02T18:38:06Z</time>
      </trkpt>
      <trkpt lat="47.3543" lon="6.18577">
        <ele>257</ele>
        <time>2020-09-02T18:38:13Z</time>
      </trkpt>
      <trkpt lat="47.354" lon="6.18814">
        <ele>266</ele>
        <time>2020-09-02T18:38:42Z</time>
      </trkpt>
      <trkpt lat="47.35433" lon="6.19367">
        <ele>278</ele>
        <time>2020-09-02T18:39:49Z</time>
      </trkpt>
      <trkpt lat="47.35338" lon="6.19663">
        <ele>280</ele>
        <time>2020-09-02T18:40:29Z</time>
      </trkpt>
      <trkpt lat="47.3539" lon="6.20048">
        <ele>290</ele>
        <time>2020-09-02T18:41:16Z</time>
      </trkpt>
      <trkpt lat="47.35285" lon="6.20324">
        <ele>291</ele>
        <time>2020-09-02T18:41:54Z</time>
      </trkpt>
      <trkpt lat="47.35309" lon="6.20499">
        <ele>293</ele>
        <time>2020-09-02T18:42:16Z</time>
      </trkpt>
      <trkpt lat="47.35252" lon="6.2061">
        <ele>301</ele>
        <time>2020-09-02T18:42:32Z</time>
      </trkpt>
      <trkpt lat="47.35268" lon="6.20781">
        <ele>309</ele>
        <time>2020-09-02T18:42:53Z</time>
      </trkpt>
      <trkpt lat="47.35236" lon="6.21239">
        <ele>339</ele>
        <time>2020-09-02T18:43:49Z</time>
      </trkpt>
      <trkpt lat="47.35158" lon="6.21337">
        <ele>341</ele>
        <time>2020-09-02T18:44:07Z</time>
      </trkpt>
      <trkpt lat="47.35015" lon="6.21285">
        <ele>344</ele>
        <time>2020-09-02T18:44:33Z</time>
      </trkpt>
      <trkpt lat="47.34934" lon="6.21423">
        <ele>341</ele>
        <time>2020-09-02T18:44:55Z</time>
      </trkpt>
      <trkpt lat="47.34552" lon="6.22334">
        <ele>327</ele>
        <time>2020-09-02T18:47:04Z</time>
      </trkpt>
      <trkpt lat="47.34561" lon="6.22345">
        <ele>327</ele>
        <time>2020-09-02T18:47:06Z</time>
      </trkpt>
      <trkpt lat="47.34584" lon="6.22608">
        <ele>326</ele>
        <time>2020-09-02T18:47:38Z</time>
      </trkpt>
      <trkpt lat="47.34566" lon="6.22713">
        <ele>323</ele>
        <time>2020-09-02T18:47:51Z</time>
      </trkpt>
      <trkpt lat="47.34269" lon="6.2285">
        <ele>317</ele>
        <time>2020-09-02T18:48:47Z</time>
      </trkpt>
      <trkpt lat="47.336" lon="6.2399">
        <ele>331</ele>
        <time>2020-09-02T18:51:49Z</time>
      </trkpt>
      <trkpt lat="47.33447" lon="6.23974">
        <ele>347</ele>
        <time>2020-09-02T18:52:16Z</time>
      </trkpt>
      <trkpt lat="47.33389" lon="6.24018">
        <ele>350</ele>
        <time>2020-09-02T18:52:27Z</time>
      </trkpt>
      <trkpt lat="47.33147" lon="6.23848">
        <ele>326</ele>
        <time>2020-09-02T18:53:15Z</time>
      </trkpt>
      <trkpt lat="47.33048" lon="6.23848">
        <ele>319</ele>
        <time>2020-09-02T18:53:33Z</time>
      </trkpt>
      <trkpt lat="47.32891" lon="6.23623">
        <ele>322</ele>
        <time>2020-09-02T18:54:12Z</time>
      </trkpt>
      <trkpt lat="47.32742" lon="6.23656">
        <ele>333</ele>
        <time>2020-09-02T18:54:39Z</time>
      </trkpt>
      <trkpt lat="47.32563" lon="6.24659">
        <ele>402</ele>
        <time>2020-09-02T18:56:44Z</time>
      </trkpt>
      <trkpt lat="47.32581" lon="6.24785">
        <ele>399</ele>
        <time>2020-09-02T18:56:59Z</time>
      </trkpt>
      <trkpt lat="47.32554" lon="6.24857">
        <ele>394</ele>
        <time>2020-09-02T18:57:09Z</time>
      </trkpt>
      <trkpt lat="47.32329" lon="6.24796">
        <ele>401</ele>
        <time>2020-09-02T18:57:50Z</time>
      </trkpt>
      <trkpt lat="47.32248" lon="6.24687">
        <ele>398</ele>
        <time>2020-09-02T18:58:09Z</time>
      </trkpt>
      <trkpt lat="47.32118" lon="6.24741">
        <ele>378</ele>
        <time>2020-09-02T18:58:33Z</time>
      </trkpt>
      <trkpt lat="47.31923" lon="6.24694">
        <ele>355</ele>
        <time>2020-09-02T18:59:08Z</time>
      </trkpt>
      <trkpt lat="47.31893" lon="6.24638">
        <ele>352</ele>
        <time>2020-09-02T18:59:17Z</time>
      </trkpt>
      <trkpt lat="47.31829" lon="6.24635">
        <ele>348</ele>
        <time>2020-09-02T18:59:28Z</time>
      </trkpt>
      <trkpt lat="47.31443" lon="6.2474">
        <ele>335</ele>
        <time>2020-09-02T19:00:38Z</time>
      </trkpt>
      <trkpt lat="47.31373" lon="6.24707">
        <ele>332</ele>
        <time>2020-09-02T19:00:51Z</time>
      </trkpt>
      <trkpt lat="47.31349" lon="6.24615">
        <ele>329</ele>
        <time>2020-09-02T19:01:03Z</time>
      </trkpt>
      <trkpt lat="47.31354" lon="6.2452">
        <ele>328</ele>
        <time>2020-09-02T19:01:15Z</time>
      </trkpt>
      <trkpt lat="47.31322" lon="6.24447">
        <ele>328</ele>
        <time>2020-09-02T19:01:25Z</time>
      </trkpt>
      <trkpt lat="47.31306" lon="6.24517">
        <ele>329</ele>
        <time>2020-09-02T19:01:34Z</time>
      </trkpt>
      <trkpt lat="47.31274" lon="6.24635">
        <ele>327</ele>
        <time>2020-09-02T19:01:50Z</time>
      </trkpt>
      <trkpt lat="47.3122" lon="6.24648">
        <ele>326</ele>
        <time>2020-09-02T19:01:59Z</time>
      </trkpt>
      <trkpt lat="47.30985" lon="6.24494">
        <ele>306</ele>
        <time>2020-09-02T19:02:45Z</time>
      </trkpt>
      <trkpt lat="47.3095" lon="6.2424">
        <ele>307</ele>
        <time>2020-09-02T19:03:16Z</time>
      </trkpt>
      <trkpt lat="47.30732" lon="6.23605">
        <ele>303</ele>
        <time>2020-09-02T19:04:42Z</time>
      </trkpt>
      <trkpt lat="47.30616" lon="6.23523">
        <ele>283</ele>
        <time>2020-09-02T19:05:05Z</time>
      </trkpt>
      <trkpt lat="47.30505" lon="6.23569">
        <ele>271</ele>
        <time>2020-09-02T19:05:26Z</time>
      </trkpt>
      <trkpt lat="47.30299" lon="6.23506">
        <ele>268</ele>
        <time>2020-09-02T19:06:03Z</time>
      </trkpt>
      <trkpt lat="47.30301" lon="6.23512">
        <ele>267</ele>
        <time>2020-09-02T19:06:04Z</time>
      </trkpt>
      <trkpt lat="47.3041" lon="6.23593">
        <ele>260</ele>
        <time>2020-09-02T19:06:25Z</time>
      </trkpt>
      <trkpt lat="47.30563" lon="6.23653">
        <ele>264</ele>
        <time>2020-09-02T19:06:54Z</time>
      </trkpt>
      <trkpt lat="47.30622" lon="6.23743">
        <ele>259</ele>
        <time>2020-09-02T19:07:09Z</time>
      </trkpt>
      <trkpt lat="47.3068" lon="6.23863">
        <ele>259</ele>
        <time>2020-09-02T19:07:27Z</time>
      </trkpt>
      <trkpt lat="47.30711" lon="6.24015">
        <ele>256</ele>
        <time>2020-09-02T19:07:46Z</time>
      </trkpt>
      <trkpt lat="47.30773" lon="6.24271">
        <ele>258</ele>
        <time>2020-09-02T19:08:18Z</time>
      </trkpt>
      <trkpt lat="47.30817" lon="6.24423">
        <ele>257</ele>
        <time>2020-09-02T19:08:38Z</time>
      </trkpt>
      <trkpt lat="47.3087" lon="6.24727">
        <ele>260</ele>
        <time>2020-09-02T19:09:16Z</time>
      </trkpt>
      <trkpt lat="47.3094" lon="6.25235">
        <ele>261</ele>
        <time>2020-09-02T19:10:19Z</time>
      </trkpt>
      <trkpt lat="47.30997" lon="6.25521">
        <ele>264</ele>
        <time>2020-09-02T19:10:55Z</time>
      </trkpt>
      <trkpt lat="47.31026" lon="6.25714">
        <ele>259</ele>
        <time>2020-09-02T19:11:19Z</time>
      </trkpt>
      <trkpt lat="47.31121" lon="6.25866">
        <ele>258</ele>
        <time>2020-09-02T19:11:44Z</time>
      </trkpt>
      <trkpt lat="47.31163" lon="6.25978">
        <ele>258</ele>
        <time>2020-09-02T19:11:59Z</time>
      </trkpt>
      <trkpt lat="47.31425" lon="6.26138">
        <ele>265</ele>
        <time>2020-09-02T19:12:49Z</time>
      </trkpt>
      <trkpt lat="47.31591" lon="6.26272">
        <ele>268</ele>
        <time>2020-09-02T19:13:23Z</time>
      </trkpt>
      <trkpt lat="47.31823" lon="6.26415">
        <ele>269</ele>
        <time>2020-09-02T19:14:08Z</time>
      </trkpt>
      <trkpt lat="47.31994" lon="6.26525">
        <ele>273</ele>
        <time>2020-09-02T19:14:41Z</time>
      </trkpt>
      <trkpt lat="47.32066" lon="6.26608">
        <ele>279</ele>
        <time>2020-09-02T19:14:57Z</time>
      </trkpt>
      <trkpt lat="47.32089" lon="6.26815">
        <ele>262</ele>
        <time>2020-09-02T19:15:23Z</time>
      </trkpt>
      <trkpt lat="47.32083" lon="6.27051">
        <ele>259</ele>
        <time>2020-09-02T19:15:51Z</time>
      </trkpt>
      <trkpt lat="47.32117" lon="6.2744">
        <ele>258</ele>
        <time>2020-09-02T19:16:38Z</time>
      </trkpt>
      <trkpt lat="47.32148" lon="6.27632">
        <ele>261</ele>
        <time>2020-09-02T19:17:02Z</time>
      </trkpt>
      <trkpt lat="47.32141" lon="6.27933">
        <ele>260</ele>
        <time>2020-09-02T19:17:39Z</time>
      </trkpt>
      <trkpt lat="47.32183" lon="6.28227">
        <ele>261</ele>
        <time>2020-09-02T19:18:15Z</time>
      </trkpt>
      <trkpt lat="47.32364" lon="6.28491">
        <ele>273</ele>
        <time>2020-09-02T19:19:00Z</time>
      </trkpt>
      <trkpt lat="47.32592" lon="6.2871">
        <ele>278</ele>
        <time>2020-09-02T19:19:49Z</time>
      </trkpt>
      <trkpt lat="47.32756" lon="6.28918">
        <ele>281</ele>
        <time>2020-09-02T19:20:27Z</time>
      </trkpt>
      <trkpt lat="47.32901" lon="6.29188">
        <ele>283</ele>
        <time>2020-09-02T19:21:09Z</time>
      </trkpt>
      <trkpt lat="47.33004" lon="6.29446">
        <ele>280</ele>
        <time>2020-09-02T19:21:45Z</time>
      </trkpt>
      <trkpt lat="47.33031" lon="6.29801">
        <ele>265</ele>
        <time>2020-09-02T19:22:28Z</time>
      </trkpt>
      <trkpt lat="47.32999" lon="6.30183">
        <ele>260</ele>
        <time>2020-09-02T19:23:14Z</time>
      </trkpt>
      <trkpt lat="47.3297" lon="6.30397">
        <ele>259</ele>
        <time>2020-09-02T19:23:40Z</time>
      </trkpt>
      <trkpt lat="47.32988" lon="6.30743">
        <ele>276</ele>
        <time>2020-09-02T19:24:22Z</time>
      </trkpt>
      <trkpt lat="47.33002" lon="6.30956">
        <ele>276</ele>
        <time>2020-09-02T19:24:48Z</time>
      </trkpt>
      <trkpt lat="47.33068" lon="6.31129">
        <ele>279</ele>
        <time>2020-09-02T19:25:12Z</time>
      </trkpt>
      <trkpt lat="47.33142" lon="6.31238">
        <ele>272</ele>
        <time>2020-09-02T19:25:31Z</time>
      </trkpt>
      <trkpt lat="47.33374" lon="6.3135">
        <ele>274</ele>
        <time>2020-09-02T19:26:14Z</time>
      </trkpt>
      <trkpt lat="47.3368" lon="6.31455">
        <ele>283</ele>
        <time>2020-09-02T19:27:10Z</time>
      </trkpt>
      <trkpt lat="47.33812" lon="6.31512">
        <ele>278</ele>
        <time>2020-09-02T19:27:34Z</time>
      </trkpt>
      <trkpt lat="47.3396" lon="6.31605">
        <ele>286</ele>
        <time>2020-09-02T19:28:03Z</time>
      </trkpt>
      <trkpt lat="47.34076" lon="6.3174">
        <ele>280</ele>
        <time>2020-09-02T19:28:29Z</time>
      </trkpt>
      <trkpt lat="47.34188" lon="6.31925">
        <ele>283</ele>
        <time>2020-09-02T19:28:59Z</time>
      </trkpt>
      <trkpt lat="47.34277" lon="6.32096">
        <ele>290</ele>
        <time>2020-09-02T19:29:25Z</time>
      </trkpt>
      <trkpt lat="47.34341" lon="6.32429">
        <ele>283</ele>
        <time>2020-09-02T19:30:07Z</time>
      </trkpt>
      <trkpt lat="47.34357" lon="6.3261">
        <ele>283</ele>
        <time>2020-09-02T19:30:29Z</time>
      </trkpt>
      <trkpt lat="47.34322" lon="6.3282">
        <ele>273</ele>
        <time>2020-09-02T19:30:55Z</time>
      </trkpt>
      <trkpt lat="47.34248" lon="6.33138">
        <ele>267</ele>
        <time>2020-09-02T19:31:36Z</time>
      </trkpt>
      <trkpt lat="47.34175" lon="6.3348">
        <ele>265</ele>
        <time>2020-09-02T19:32:19Z</time>
      </trkpt>
      <trkpt lat="47.34119" lon="6.33791">
        <ele>276</ele>
        <time>2020-09-02T19:32:58Z</time>
      </trkpt>
      <trkpt lat="47.34091" lon="6.34011">
        <ele>279</ele>
        <time>2020-09-02T19:33:25Z</time>
      </trkpt>
      <trkpt lat="47.34018" lon="6.34237">
        <ele>282</ele>
        <time>2020-09-02T19:33:55Z</time>
      </trkpt>
      <trkpt lat="47.33884" lon="6.34459">
        <ele>283</ele>
        <time>2020-09-02T19:34:31Z</time>
      </trkpt>
      <trkpt lat="47.33761" lon="6.34618">
        <ele>275</ele>
        <time>2020-09-02T19:35:00Z</time>
      </trkpt>
      <trkpt lat="47.33616" lon="6.34751">
        <ele>272</ele>
        <time>2020-09-02T19:35:30Z</time>
      </trkpt>
      <trkpt lat="47.33538" lon="6.34849">
        <ele>265</ele>
        <time>2020-09-02T19:35:48Z</time>
      </trkpt>
      <trkpt lat="47.33629" lon="6.34987">
        <ele>269</ele>
        <time>2020-09-02T19:36:12Z</time>
      </trkpt>
      <trkpt lat="47.33744" lon="6.35116">
        <ele>268</ele>
        <time>2020-09-02T19:36:37Z</time>
      </trkpt>
      <trkpt lat="47.33876" lon="6.35211">
        <ele>283</ele>
        <time>2020-09-02T19:37:03Z</time>
      </trkpt>
      <trkpt lat="47.34034" lon="6.35369">
        <ele>275</ele>
        <time>2020-09-02T19:37:37Z</time>
      </trkpt>
      <trkpt lat="47.34141" lon="6.35577">
        <ele>267</ele>
        <time>2020-09-02T19:38:09Z</time>
      </trkpt>
      <trkpt lat="47.34203" lon="6.35745">
        <ele>272</ele>
        <time>2020-09-02T19:38:32Z</time>
      </trkpt>
      <trkpt lat="47.34358" lon="6.35903">
        <ele>280</ele>
        <time>2020-09-02T19:39:05Z</time>
      </trkpt>
      <trkpt lat="47.34384" lon="6.35974">
        <ele>270</ele>
        <time>2020-09-02T19:39:15Z</time>
      </trkpt>
      <trkpt lat="47.34566" lon="6.35947">
        <ele>269</ele>
        <time>2020-09-02T19:39:48Z</time>
      </trkpt>
      <trkpt lat="47.34496" lon="6.36051">
        <ele>267</ele>
        <time>2020-09-02T19:40:05Z</time>
      </trkpt>
      <trkpt lat="47.34464" lon="6.36133">
        <ele>268</ele>
        <time>2020-09-02T19:40:17Z</time>
      </trkpt>
      <trkpt lat="47.34333" lon="6.36157">
        <ele>263</ele>
        <time>2020-09-02T19:40:40Z</time>
      </trkpt>
      <trkpt lat="47.34232" lon="6.36171">
        <ele>265</ele>
        <time>2020-09-02T19:40:58Z</time>
      </trkpt>
      <trkpt lat="47.34175" lon="6.36223">
        <ele>268</ele>
        <time>2020-09-02T19:41:10Z</time>
      </trkpt>
      <trkpt lat="47.34143" lon="6.3632">
        <ele>278</ele>
        <time>2020-09-02T19:41:23Z</time>
      </trkpt>
      <trkpt lat="47.34135" lon="6.36578">
        <ele>278</ele>
        <time>2020-09-02T19:41:54Z</time>
      </trkpt>
      <trkpt lat="47.34166" lon="6.36673">
        <ele>268</ele>
        <time>2020-09-02T19:42:07Z</time>
      </trkpt>
      <trkpt lat="47.3415" lon="6.36897">
        <ele>267</ele>
        <time>2020-09-02T19:42:34Z</time>
      </trkpt>
      <trkpt lat="47.34153" lon="6.37051">
        <ele>272</ele>
        <time>2020-09-02T19:42:53Z</time>
      </trkpt>
      <trkpt lat="47.34127" lon="6.37213">
        <ele>287</ele>
        <time>2020-09-02T19:43:13Z</time>
      </trkpt>
      <trkpt lat="47.34162" lon="6.37368">
        <ele>267</ele>
        <time>2020-09-02T19:43:33Z</time>
      </trkpt>
      <trkpt lat="47.34312" lon="6.3741">
        <ele>265</ele>
        <time>2020-09-02T19:44:00Z</time>
      </trkpt>
      <trkpt lat="47.34477" lon="6.37379">
        <ele>270</ele>
        <time>2020-09-02T19:44:29Z</time>
      </trkpt>
      <trkpt lat="47.34577" lon="6.37388">
        <ele>271</ele>
        <time>2020-09-02T19:44:47Z</time>
      </trkpt>
      <trkpt lat="47.34714" lon="6.37427">
        <ele>275</ele>
        <time>2020-09-02T19:45:12Z</time>
      </trkpt>
      <trkpt lat="47.34841" lon="6.37425">
        <ele>273</ele>
        <time>2020-09-02T19:45:35Z</time>
      </trkpt>
      <trkpt lat="47.35043" lon="6.37352">
        <ele>269</ele>
        <time>2020-09-02T19:46:12Z</time>
      </trkpt>
      <trkpt lat="47.35083" lon="6.37352">
        <ele>267</ele>
        <time>2020-09-02T19:46:19Z</time>
      </trkpt>
      <trkpt lat="47.35107" lon="6.37394">
        <ele>268</ele>
        <time>2020-09-02T19:46:25Z</time>
      </trkpt>
      <trkpt lat="47.35134" lon="6.37354">
        <ele>266</ele>
        <time>2020-09-02T19:46:32Z</time>
      </trkpt>
      <trkpt lat="47.35185" lon="6.37397">
        <ele>266</ele>
        <time>2020-09-02T19:46:43Z</time>
      </trkpt>
      <trkpt lat="47.35232" lon="6.37481">
        <ele>266</ele>
        <time>2020-09-02T19:46:56Z</time>
      </trkpt>
      <trkpt lat="47.35275" lon="6.37612">
        <ele>267</ele>
        <time>2020-09-02T19:47:13Z</time>
      </trkpt>
      <trkpt lat="47.35288" lon="6.37791">
        <ele>275</ele>
        <time>2020-09-02T19:47:35Z</time>
      </trkpt>
      <trkpt lat="47.35229" lon="6.37977">
        <ele>304</ele>
        <time>2020-09-02T19:48:00Z</time>
      </trkpt>
      <trkpt lat="47.35187" lon="6.38152">
        <ele>315</ele>
        <time>2020-09-02T19:48:22Z</time>
      </trkpt>
      <trkpt lat="47.35165" lon="6.38395">
        <ele>286</ele>
        <time>2020-09-02T19:48:52Z</time>
      </trkpt>
      <trkpt lat="47.35169" lon="6.38601">
        <ele>274</ele>
        <time>2020-09-02T19:49:17Z</time>
      </trkpt>
      <trkpt lat="47.35187" lon="6.38729">
        <ele>279</ele>
        <time>2020-09-02T19:49:32Z</time>
      </trkpt>
      <trkpt lat="47.35263" lon="6.38886">
        <ele>282</ele>
        <time>2020-09-02T19:49:56Z</time>
      </trkpt>
      <trkpt lat="47.35329" lon="6.39041">
        <ele>304</ele>
        <time>2020-09-02T19:50:18Z</time>
      </trkpt>
      <trkpt lat="47.35411" lon="6.39137">
        <ele>292</ele>
        <time>2020-09-02T19:50:36Z</time>
      </trkpt>
      <trkpt lat="47.35592" lon="6.39298">
        <ele>267</ele>
        <time>2020-09-02T19:51:14Z</time>
      </trkpt>
      <trkpt lat="47.35679" lon="6.394">
        <ele>267</ele>
        <time>2020-09-02T19:51:34Z</time>
      </trkpt>
      <trkpt lat="47.35744" lon="6.396">
        <ele>267</ele>
        <time>2020-09-02T19:52:00Z</time>
      </trkpt>
      <trkpt lat="47.35763" lon="6.39811">
        <ele>266</ele>
        <time>2020-09-02T19:52:26Z</time>
      </trkpt>
      <trkpt lat="47.3575" lon="6.39966">
        <ele>268</ele>
        <time>2020-09-02T19:52:45Z</time>
      </trkpt>
      <trkpt lat="47.35722" lon="6.40127">
        <ele>276</ele>
        <time>2020-09-02T19:53:05Z</time>
      </trkpt>
      <trkpt lat="47.35652" lon="6.40297">
        <ele>300</ele>
        <time>2020-09-02T19:53:29Z</time>
      </trkpt>
      <trkpt lat="47.35623" lon="6.40553">
        <ele>309</ele>
        <time>2020-09-02T19:54:00Z</time>
      </trkpt>
      <trkpt lat="47.35614" lon="6.40875">
        <ele>292</ele>
        <time>2020-09-02T19:54:39Z</time>
      </trkpt>
      <trkpt lat="47.35651" lon="6.41179">
        <ele>284</ele>
        <time>2020-09-02T19:55:16Z</time>
      </trkpt>
      <trkpt lat="47.35715" lon="6.41446">
        <ele>283</ele>
        <time>2020-09-02T19:55:50Z</time>
      </trkpt>
      <trkpt lat="47.35776" lon="6.41759">
        <ele>298</ele>
        <time>2020-09-02T19:56:30Z</time>
      </trkpt>
      <trkpt lat="47.35831" lon="6.41908">
        <ele>301</ele>
        <time>2020-09-02T19:56:50Z</time>
      </trkpt>
      <trkpt lat="47.35963" lon="6.41939">
        <ele>272</ele>
        <time>2020-09-02T19:57:14Z</time>
      </trkpt>
      <trkpt lat="47.36148" lon="6.41951">
        <ele>267</ele>
        <time>2020-09-02T19:57:47Z</time>
      </trkpt>
      <trkpt lat="47.36314" lon="6.41914">
        <ele>268</ele>
        <time>2020-09-02T19:58:17Z</time>
      </trkpt>
      <trkpt lat="47.36484" lon="6.41903">
        <ele>267</ele>
        <time>2020-09-02T19:58:47Z</time>
      </trkpt>
      <trkpt lat="47.3663" lon="6.41943">
        <ele>269</ele>
        <time>2020-09-02T19:59:13Z</time>
      </trkpt>
      <trkpt lat="47.36776" lon="6.42027">
        <ele>271</ele>
        <time>2020-09-02T19:59:41Z</time>
      </trkpt>
      <trkpt lat="47.36931" lon="6.42126">
        <ele>271</ele>
        <time>2020-09-02T20:00:11Z</time>
      </trkpt>
      <trkpt lat="47.37034" lon="6.42248">
        <ele>268</ele>
        <time>2020-09-02T20:00:35Z</time>
      </trkpt>
      <trkpt lat="47.37097" lon="6.42381">
        <ele>268</ele>
        <time>2020-09-02T20:00:54Z</time>
      </trkpt>
      <trkpt lat="47.37162" lon="6.42538">
        <ele>267</ele>
        <time>2020-09-02T20:01:17Z</time>
      </trkpt>
      <trkpt lat="47.37152" lon="6.42602">
        <ele>269</ele>
        <time>2020-09-02T20:01:24Z</time>
      </trkpt>
      <trkpt lat="47.37095" lon="6.42696">
        <ele>276</ele>
        <time>2020-09-02T20:01:40Z</time>
      </trkpt>
      <trkpt lat="47.37005" lon="6.42723">
        <ele>282</ele>
        <time>2020-09-02T20:01:56Z</time>
      </trkpt>
      <trkpt lat="47.36873" lon="6.42721">
        <ele>301</ele>
        <time>2020-09-02T20:02:19Z</time>
      </trkpt>
      <trkpt lat="47.36756" lon="6.42867">
        <ele>286</ele>
        <time>2020-09-02T20:02:47Z</time>
      </trkpt>
      <trkpt lat="47.36702" lon="6.43155">
        <ele>284</ele>
        <time>2020-09-02T20:03:23Z</time>
      </trkpt>
      <trkpt lat="47.36679" lon="6.43387">
        <ele>276</ele>
        <time>2020-09-02T20:03:51Z</time>
      </trkpt>
      <trkpt lat="47.36669" lon="6.43636">
        <ele>268</ele>
        <time>2020-09-02T20:04:21Z</time>
      </trkpt>
      <trkpt lat="47.36644" lon="6.43779">
        <ele>274</ele>
        <time>2020-09-02T20:04:39Z</time>
      </trkpt>
      <trkpt lat="47.36596" lon="6.43963">
        <ele>278</ele>
        <time>2020-09-02T20:05:03Z</time>
      </trkpt>
      <trkpt lat="47.36452" lon="6.44258">
        <ele>292</ele>
        <time>2020-09-02T20:05:46Z</time>
      </trkpt>
      <trkpt lat="47.36299" lon="6.44543">
        <ele>295</ele>
        <time>2020-09-02T20:06:30Z</time>
      </trkpt>
      <trkpt lat="47.36203" lon="6.44799">
        <ele>302</ele>
        <time>2020-09-02T20:07:06Z</time>
      </trkpt>
      <trkpt lat="47.36198" lon="6.45014">
        <ele>305</ele>
        <time>2020-09-02T20:07:31Z</time>
      </trkpt>
      <trkpt lat="47.36235" lon="6.45133">
        <ele>295</ele>
        <time>2020-09-02T20:07:47Z</time>
      </trkpt>
      <trkpt lat="47.36332" lon="6.45248">
        <ele>273</ele>
        <time>2020-09-02T20:08:09Z</time>
      </trkpt>
      <trkpt lat="47.36459" lon="6.45357">
        <ele>276</ele>
        <time>2020-09-02T20:08:36Z</time>
      </trkpt>
      <trkpt lat="47.36849" lon="6.45418">
        <ele>271</ele>
        <time>2020-09-02T20:09:45Z</time>
      </trkpt>
      <trkpt lat="47.36994" lon="6.45491">
        <ele>274</ele>
        <time>2020-09-02T20:10:13Z</time>
      </trkpt>
      <trkpt lat="47.37142" lon="6.45634">
        <ele>271</ele>
        <time>2020-09-02T20:10:44Z</time>
      </trkpt>
      <trkpt lat="47.37285" lon="6.45781">
        <ele>271</ele>
        <time>2020-09-02T20:11:15Z</time>
      </trkpt>
      <trkpt lat="47.37314" lon="6.45895">
        <ele>272</ele>
        <time>2020-09-02T20:11:30Z</time>
      </trkpt>
      <trkpt lat="47.3725" lon="6.46019">
        <ele>279</ele>
        <time>2020-09-02T20:11:49Z</time>
      </trkpt>
      <trkpt lat="47.37157" lon="6.46218">
        <ele>285</ele>
        <time>2020-09-02T20:12:18Z</time>
      </trkpt>
      <trkpt lat="47.37099" lon="6.46369">
        <ele>285</ele>
        <time>2020-09-02T20:12:39Z</time>
      </trkpt>
      <trkpt lat="47.36965" lon="6.46456">
        <ele>294</ele>
        <time>2020-09-02T20:13:05Z</time>
      </trkpt>
      <trkpt lat="47.36877" lon="6.46553">
        <ele>297</ele>
        <time>2020-09-02T20:13:24Z</time>
      </trkpt>
      <trkpt lat="47.36757" lon="6.46801">
        <ele>309</ele>
        <time>2020-09-02T20:14:01Z</time>
      </trkpt>
      <trkpt lat="47.36779" lon="6.46995">
        <ele>308</ele>
        <time>2020-09-02T20:14:25Z</time>
      </trkpt>
      <trkpt lat="47.36769" lon="6.4722">
        <ele>312</ele>
        <time>2020-09-02T20:14:52Z</time>
      </trkpt>
      <trkpt lat="47.36732" lon="6.47499">
        <ele>316</ele>
        <time>2020-09-02T20:15:26Z</time>
      </trkpt>
      <trkpt lat="47.3673" lon="6.47651">
        <ele>318</ele>
        <time>2020-09-02T20:15:44Z</time>
      </trkpt>
      <trkpt lat="47.3672" lon="6.47818">
        <ele>315</ele>
        <time>2020-09-02T20:16:05Z</time>
      </trkpt>
      <trkpt lat="47.36743" lon="6.47989">
        <ele>311</ele>
        <time>2020-09-02T20:16:26Z</time>
      </trkpt>
      <trkpt lat="47.36752" lon="6.48152">
        <ele>309</ele>
        <time>2020-09-02T20:16:45Z</time>
      </trkpt>
      <trkpt lat="47.36684" lon="6.48372">
        <ele>308</ele>
        <time>2020-09-02T20:17:14Z</time>
      </trkpt>
      <trkpt lat="47.36682" lon="6.48453">
        <ele>311</ele>
        <time>2020-09-02T20:17:24Z</time>
      </trkpt>
      <trkpt lat="47.36721" lon="6.4856">
        <ele>308</ele>
        <time>2020-09-02T20:17:39Z</time>
      </trkpt>
      <trkpt lat="47.36773" lon="6.48714">
        <ele>300</ele>
        <time>2020-09-02T20:18:00Z</time>
      </trkpt>
      <trkpt lat="47.36826" lon="6.49021">
        <ele>287</ele>
        <time>2020-09-02T20:18:38Z</time>
      </trkpt>
      <trkpt lat="47.36874" lon="6.49272">
        <ele>292</ele>
        <time>2020-09-02T20:19:09Z</time>
      </trkpt>
      <trkpt lat="47.36979" lon="6.4953">
        <ele>283</ele>
        <time>2020-09-02T20:19:45Z</time>
      </trkpt>
      <trkpt lat="47.37132" lon="6.49861">
        <ele>285</ele>
        <time>2020-09-02T20:20:34Z</time>
      </trkpt>
      <trkpt lat="47.3719" lon="6.50017">
        <ele>291</ele>
        <time>2020-09-02T20:20:55Z</time>
      </trkpt>
      <trkpt lat="47.37297" lon="6.50132">
        <ele>290</ele>
        <time>2020-09-02T20:21:19Z</time>
      </trkpt>
      <trkpt lat="47.3745" lon="6.50171">
        <ele>285</ele>
        <time>2020-09-02T20:21:46Z</time>
      </trkpt>
      <trkpt lat="47.3766" lon="6.50376">
        <ele>295</ele>
        <time>2020-09-02T20:22:31Z</time>
      </trkpt>
      <trkpt lat="47.37828" lon="6.50434">
        <ele>293</ele>
        <time>2020-09-02T20:23:02Z</time>
      </trkpt>
      <trkpt lat="47.38179" lon="6.50535">
        <ele>291</ele>
        <time>2020-09-02T20:24:05Z</time>
      </trkpt>
      <trkpt lat="47.3832" lon="6.50534">
        <ele>296</ele>
        <time>2020-09-02T20:24:31Z</time>
      </trkpt>
      <trkpt lat="47.38386" lon="6.50476">
        <ele>292</ele>
        <time>2020-09-02T20:24:44Z</time>
      </trkpt>
      <trkpt lat="47.3865" lon="6.50324">
        <ele>300</ele>
        <time>2020-09-02T20:25:35Z</time>
      </trkpt>
      <trkpt lat="47.38807" lon="6.50189">
        <ele>299</ele>
        <time>2020-09-02T20:26:07Z</time>
      </trkpt>
      <trkpt lat="47.38938" lon="6.50143">
        <ele>303</ele>
        <time>2020-09-02T20:26:31Z</time>
      </trkpt>
      <trkpt lat="47.39011" lon="6.50022">
        <ele>297</ele>
        <time>2020-09-02T20:26:50Z</time>
      </trkpt>
      <trkpt lat="47.39168" lon="6.49866">
        <ele>290</ele>
        <time>2020-09-02T20:27:24Z</time>
      </trkpt>
      <trkpt lat="47.39299" lon="6.49681">
        <ele>283</ele>
        <time>2020-09-02T20:27:56Z</time>
      </trkpt>
      <trkpt lat="47.39187" lon="6.49447">
        <ele>279</ele>
        <time>2020-09-02T20:28:31Z</time>
      </trkpt>
      <trkpt lat="47.39275" lon="6.49369">
        <ele>288</ele>
        <time>2020-09-02T20:28:49Z</time>
      </trkpt>
      <trkpt lat="47.39394" lon="6.49353">
        <ele>279</ele>
        <time>2020-09-02T20:29:10Z</time>
      </trkpt>
      <trkpt lat="47.40026" lon="6.49322">
        <ele>289</ele>
        <time>2020-09-02T20:31:03Z</time>
      </trkpt>
      <trkpt lat="47.40051" lon="6.49411">
        <ele>288</ele>
        <time>2020-09-02T20:31:14Z</time>
      </trkpt>
      <trkpt lat="47.40115" lon="6.49495">
        <ele>289</ele>
        <time>2020-09-02T20:31:30Z</time>
      </trkpt>
      <trkpt lat="47.40131" lon="6.49639">
        <ele>291</ele>
        <time>2020-09-02T20:31:47Z</time>
      </trkpt>
      <trkpt lat="47.40265" lon="6.49845">
        <ele>297</ele>
        <time>2020-09-02T20:32:22Z</time>
      </trkpt>
      <trkpt lat="47.40418" lon="6.49879">
        <ele>308</ele>
        <time>2020-09-02T20:32:49Z</time>
      </trkpt>
      <trkpt lat="47.4053" lon="6.49935">
        <ele>309</ele>
        <time>2020-09-02T20:33:10Z</time>
      </trkpt>
      <trkpt lat="47.40674" lon="6.49987">
        <ele>310</ele>
        <time>2020-09-02T20:33:37Z</time>
      </trkpt>
      <trkpt lat="47.40798" lon="6.50126">
        <ele>310</ele>
        <time>2020-09-02T20:34:04Z</time>
      </trkpt>
      <trkpt lat="47.40985" lon="6.5008">
        <ele>315</ele>
        <time>2020-09-02T20:34:38Z</time>
      </trkpt>
      <trkpt lat="47.41095" lon="6.50132">
        <ele>317</ele>
        <time>2020-09-02T20:34:59Z</time>
      </trkpt>
      <trkpt lat="47.41271" lon="6.50292">
        <ele>319</ele>
        <time>2020-09-02T20:35:35Z</time>
      </trkpt>
      <trkpt lat="47.41423" lon="6.50295">
        <ele>325</ele>
        <time>2020-09-02T20:36:02Z</time>
      </trkpt>
      <trkpt lat="47.4157" lon="6.50198">
        <ele>335</ele>
        <time>2020-09-02T20:36:31Z</time>
      </trkpt>
      <trkpt lat="47.41659" lon="6.50194">
        <ele>331</ele>
        <time>2020-09-02T20:36:47Z</time>
      </trkpt>
      <trkpt lat="47.41577" lon="6.50387">
        <ele>326</ele>
        <time>2020-09-02T20:37:14Z</time>
      </trkpt>
      <trkpt lat="47.41565" lon="6.50608">
        <ele>329</ele>
        <time>2020-09-02T20:37:41Z</time>
      </trkpt>
      <trkpt lat="47.41659" lon="6.51032">
        <ele>321</ele>
        <time>2020-09-02T20:38:35Z</time>
      </trkpt>
      <trkpt lat="47.41653" lon="6.51379">
        <ele>312</ele>
        <time>2020-09-02T20:39:17Z</time>
      </trkpt>
      <trkpt lat="47.41725" lon="6.51766">
        <ele>301</ele>
        <time>2020-09-02T20:40:05Z</time>
      </trkpt>
      <trkpt lat="47.41728" lon="6.52142">
        <ele>289</ele>
        <time>2020-09-02T20:40:50Z</time>
      </trkpt>
      <trkpt lat="47.41682" lon="6.52118">
        <ele>283</ele>
        <time>2020-09-02T20:40:59Z</time>
      </trkpt>
      <trkpt lat="47.41635" lon="6.5206">
        <ele>279</ele>
        <time>2020-09-02T20:41:10Z</time>
      </trkpt>
      <trkpt lat="47.41634" lon="6.52478">
        <ele>278</ele>
        <time>2020-09-02T20:42:00Z</time>
      </trkpt>
      <trkpt lat="47.41606" lon="6.53887">
        <ele>278</ele>
        <time>2020-09-02T20:44:50Z</time>
      </trkpt>
      <trkpt lat="47.41597" lon="6.54189">
        <ele>279</ele>
        <time>2020-09-02T20:45:26Z</time>
      </trkpt>
      <trkpt lat="47.41591" lon="6.54777">
        <ele>281</ele>
        <time>2020-09-02T20:46:37Z</time>
      </trkpt>
      <trkpt lat="47.41586" lon="6.54927">
        <ele>280</ele>
        <time>2020-09-02T20:46:55Z</time>
      </trkpt>
      <trkpt lat="47.41619" lon="6.55133">
        <ele>281</ele>
        <time>2020-09-02T20:47:21Z</time>
      </trkpt>
      <trkpt lat="47.41675" lon="6.55295">
        <ele>282</ele>
        <time>2020-09-02T20:47:42Z</time>
      </trkpt>
      <trkpt lat="47.41759" lon="6.55429">
        <ele>284</ele>
        <time>2020-09-02T20:48:04Z</time>
      </trkpt>
      <trkpt lat="47.41879" lon="6.55504">
        <ele>288</ele>
        <time>2020-09-02T20:48:28Z</time>
      </trkpt>
      <trkpt lat="47.42024" lon="6.55517">
        <ele>287</ele>
        <time>2020-09-02T20:48:53Z</time>
      </trkpt>
      <trkpt lat="47.42167" lon="6.55503">
        <ele>285</ele>
        <time>2020-09-02T20:49:19Z</time>
      </trkpt>
      <trkpt lat="47.42386" lon="6.55246">
        <ele>307</ele>
        <time>2020-09-02T20:50:09Z</time>
      </trkpt>
      <trkpt lat="47.42421" lon="6.55054">
        <ele>310</ele>
        <time>2020-09-02T20:50:33Z</time>
      </trkpt>
      <trkpt lat="47.42523" lon="6.5488">
        <ele>311</ele>
        <time>2020-09-02T20:51:00Z</time>
      </trkpt>
      <trkpt lat="47.42578" lon="6.54842">
        <ele>308</ele>
        <time>2020-09-02T20:51:11Z</time>
      </trkpt>
      <trkpt lat="47.42586" lon="6.54711">
        <ele>321</ele>
        <time>2020-09-02T20:51:27Z</time>
      </trkpt>
      <trkpt lat="47.42725" lon="6.5432">
        <ele>317</ele>
        <time>2020-09-02T20:52:20Z</time>
      </trkpt>
      <trkpt lat="47.42789" lon="6.54065">
        <ele>327</ele>
        <time>2020-09-02T20:52:53Z</time>
      </trkpt>
      <trkpt lat="47.42866" lon="6.53865">
        <ele>335</ele>
        <time>2020-09-02T20:53:21Z</time>
      </trkpt>
      <trkpt lat="47.43084" lon="6.53421">
        <ele>349</ele>
        <time>2020-09-02T20:54:27Z</time>
      </trkpt>
      <trkpt lat="47.43266" lon="6.53187">
        <ele>341</ele>
        <time>2020-09-02T20:55:10Z</time>
      </trkpt>
      <trkpt lat="47.43451" lon="6.5316">
        <ele>316</ele>
        <time>2020-09-02T20:55:43Z</time>
      </trkpt>
      <trkpt lat="47.43681" lon="6.53112">
        <ele>308</ele>
        <time>2020-09-02T20:56:24Z</time>
      </trkpt>
      <trkpt lat="47.43957" lon="6.53159">
        <ele>318</ele>
        <time>2020-09-02T20:57:13Z</time>
      </trkpt>
      <trkpt lat="47.4413" lon="6.53252">
        <ele>312</ele>
        <time>2020-09-02T20:57:46Z</time>
      </trkpt>
      <trkpt lat="47.44181" lon="6.53384">
        <ele>292</ele>
        <time>2020-09-02T20:58:04Z</time>
      </trkpt>
      <trkpt lat="47.44138" lon="6.53718">
        <ele>283</ele>
        <time>2020-09-02T20:58:45Z</time>
      </trkpt>
      <trkpt lat="47.4409" lon="6.54327">
        <ele>285</ele>
        <time>2020-09-02T20:59:59Z</time>
      </trkpt>
      <trkpt lat="47.44107" lon="6.54595">
        <ele>285</ele>
        <time>2020-09-02T21:00:32Z</time>
      </trkpt>
      <trkpt lat="47.44198" lon="6.55097">
        <ele>284</ele>
        <time>2020-09-02T21:01:34Z</time>
      </trkpt>
      <trkpt lat="47.44206" lon="6.55303">
        <ele>283</ele>
        <time>2020-09-02T21:01:59Z</time>
      </trkpt>
      <trkpt lat="47.44183" lon="6.55501">
        <ele>284</ele>
        <time>2020-09-02T21:02:23Z</time>
      </trkpt>
      <trkpt lat="47.44228" lon="6.55832">
        <ele>283</ele>
        <time>2020-09-02T21:03:04Z</time>
      </trkpt>
      <trkpt lat="47.44327" lon="6.56016">
        <ele>289</ele>
        <time>2020-09-02T21:03:32Z</time>
      </trkpt>
      <trkpt lat="47.44363" lon="6.56153">
        <ele>292</ele>
        <time>2020-09-02T21:03:50Z</time>
      </trkpt>
      <trkpt lat="47.44351" lon="6.56278">
        <ele>292</ele>
        <time>2020-09-02T21:04:05Z</time>
      </trkpt>
      <trkpt lat="47.44281" lon="6.56317">
        <ele>288</ele>
        <time>2020-09-02T21:04:18Z</time>
      </trkpt>
      <trkpt lat="47.44227" lon="6.56309">
        <ele>288</ele>
        <time>2020-09-02T21:04:28Z</time>
      </trkpt>
      <trkpt lat="47.44216" lon="6.56587">
        <ele>288</ele>
        <time>2020-09-02T21:05:01Z</time>
      </trkpt>
      <trkpt lat="47.44218" lon="6.56866">
        <ele>287</ele>
        <time>2020-09-02T21:05:35Z</time>
      </trkpt>
      <trkpt lat="47.44354" lon="6.57125">
        <ele>289</ele>
        <time>2020-09-02T21:06:14Z</time>
      </trkpt>
      <trkpt lat="47.44469" lon="6.57241">
        <ele>297</ele>
        <time>2020-09-02T21:06:39Z</time>
      </trkpt>
      <trkpt lat="47.44546" lon="6.57392">
        <ele>297</ele>
        <time>2020-09-02T21:07:02Z</time>
      </trkpt>
      <trkpt lat="47.4465" lon="6.57565">
        <ele>299</ele>
        <time>2020-09-02T21:07:30Z</time>
      </trkpt>
      <trkpt lat="47.44738" lon="6.57608">
        <ele>308</ele>
        <time>2020-09-02T21:07:46Z</time>
      </trkpt>
      <trkpt lat="47.44949" lon="6.57661">
        <ele>298</ele>
        <time>2020-09-02T21:08:24Z</time>
      </trkpt>
      <trkpt lat="47.45126" lon="6.57857">
        <ele>290</ele>
        <time>2020-09-02T21:09:04Z</time>
      </trkpt>
      <trkpt lat="47.44916" lon="6.58213">
        <ele>290</ele>
        <time>2020-09-02T21:10:01Z</time>
      </trkpt>
      <trkpt lat="47.45061" lon="6.58459">
        <ele>289</ele>
        <time>2020-09-02T21:10:40Z</time>
      </trkpt>
      <trkpt lat="47.45144" lon="6.58688">
        <ele>290</ele>
        <time>2020-09-02T21:11:11Z</time>
      </trkpt>
      <trkpt lat="47.45211" lon="6.58907">
        <ele>291</ele>
        <time>2020-09-02T21:11:40Z</time>
      </trkpt>
      <trkpt lat="47.45242" lon="6.58958">
        <ele>291</ele>
        <time>2020-09-02T21:11:48Z</time>
      </trkpt>
      <trkpt lat="47.45188" lon="6.59323">
        <ele>288</ele>
        <time>2020-09-02T21:12:33Z</time>
      </trkpt>
      <trkpt lat="47.45101" lon="6.59495">
        <ele>291</ele>
        <time>2020-09-02T21:12:59Z</time>
      </trkpt>
      <trkpt lat="47.44833" lon="6.59686">
        <ele>290</ele>
        <time>2020-09-02T21:13:52Z</time>
      </trkpt>
      <trkpt lat="47.44695" lon="6.59728">
        <ele>294</ele>
        <time>2020-09-02T21:14:17Z</time>
      </trkpt>
      <trkpt lat="47.44477" lon="6.59725">
        <ele>298</ele>
        <time>2020-09-02T21:14:56Z</time>
      </trkpt>
      <trkpt lat="47.44163" lon="6.59768">
        <ele>302</ele>
        <time>2020-09-02T21:15:52Z</time>
      </trkpt>
      <trkpt lat="47.43766" lon="6.59843">
        <ele>300</ele>
        <time>2020-09-02T21:17:03Z</time>
      </trkpt>
      <trkpt lat="47.43417" lon="6.60004">
        <ele>304</ele>
        <time>2020-09-02T21:18:08Z</time>
      </trkpt>
      <trkpt lat="47.43337" lon="6.60081">
        <ele>305</ele>
        <time>2020-09-02T21:18:25Z</time>
      </trkpt>
      <trkpt lat="47.43206" lon="6.60397">
        <ele>291</ele>
        <time>2020-09-02T21:19:10Z</time>
      </trkpt>
      <trkpt lat="47.42931" lon="6.60998">
        <ele>291</ele>
        <time>2020-09-02T21:20:37Z</time>
      </trkpt>
      <trkpt lat="47.42818" lon="6.61317">
        <ele>293</ele>
        <time>2020-09-02T21:21:20Z</time>
      </trkpt>
      <trkpt lat="47.4278" lon="6.61299">
        <ele>296</ele>
        <time>2020-09-02T21:21:28Z</time>
      </trkpt>
      <trkpt lat="47.42689" lon="6.61542">
        <ele>305</ele>
        <time>2020-09-02T21:22:01Z</time>
      </trkpt>
      <trkpt lat="47.42575" lon="6.61561">
        <ele>346</ele>
        <time>2020-09-02T21:22:21Z</time>
      </trkpt>
      <trkpt lat="47.42475" lon="6.61881">
        <ele>347</ele>
        <time>2020-09-02T21:23:04Z</time>
      </trkpt>
      <trkpt lat="47.42566" lon="6.6204">
        <ele>310</ele>
        <time>2020-09-02T21:23:29Z</time>
      </trkpt>
      <trkpt lat="47.42556" lon="6.62292">
        <ele>305</ele>
        <time>2020-09-02T21:23:59Z</time>
      </trkpt>
      <trkpt lat="47.42613" lon="6.6229">
        <ele>300</ele>
        <time>2020-09-02T21:24:09Z</time>
      </trkpt>
      <trkpt lat="47.42672" lon="6.6267">
        <ele>296</ele>
        <time>2020-09-02T21:24:56Z</time>
      </trkpt>
      <trkpt lat="47.42767" lon="6.62922">
        <ele>296</ele>
        <time>2020-09-02T21:25:31Z</time>
      </trkpt>
      <trkpt lat="47.42907" lon="6.63073">
        <ele>295</ele>
        <time>2020-09-02T21:26:02Z</time>
      </trkpt>
      <trkpt lat="47.43064" lon="6.63172">
        <ele>295</ele>
        <time>2020-09-02T21:26:32Z</time>
      </trkpt>
      <trkpt lat="47.43333" lon="6.63193">
        <ele>295</ele>
        <time>2020-09-02T21:27:20Z</time>
      </trkpt>
      <trkpt lat="47.43506" lon="6.63116">
        <ele>295</ele>
        <time>2020-09-02T21:27:52Z</time>
      </trkpt>
      <trkpt lat="47.43841" lon="6.62901">
        <ele>297</ele>
        <time>2020-09-02T21:28:57Z</time>
      </trkpt>
      <trkpt lat="47.43988" lon="6.6298">
        <ele>302</ele>
        <time>2020-09-02T21:29:25Z</time>
      </trkpt>
      <trkpt lat="47.44087" lon="6.63048">
        <ele>314</ele>
        <time>2020-09-02T21:29:45Z</time>
      </trkpt>
      <trkpt lat="47.44227" lon="6.631">
        <ele>319</ele>
        <time>2020-09-02T21:30:10Z</time>
      </trkpt>
      <trkpt lat="47.44405" lon="6.63271">
        <ele>321</ele>
        <time>2020-09-02T21:30:48Z</time>
      </trkpt>
      <trkpt lat="47.44629" lon="6.63187">
        <ele>299</ele>
        <time>2020-09-02T21:31:29Z</time>
      </trkpt>
      <trkpt lat="47.44662" lon="6.63478">
        <ele>297</ele>
        <time>2020-09-02T21:32:05Z</time>
      </trkpt>
      <trkpt lat="47.44684" lon="6.63839">
        <ele>297</ele>
        <time>2020-09-02T21:32:48Z</time>
      </trkpt>
      <trkpt lat="47.44777" lon="6.64979">
        <ele>299</ele>
        <time>2020-09-02T21:35:07Z</time>
      </trkpt>
      <trkpt lat="47.44949" lon="6.6746">
        <ele>301</ele>
        <time>2020-09-02T21:40:07Z</time>
      </trkpt>
      <trkpt lat="47.44989" lon="6.67885">
        <ele>301</ele>
        <time>2020-09-02T21:40:58Z</time>
      </trkpt>
      <trkpt lat="47.45094" lon="6.68275">
        <ele>301</ele>
        <time>2020-09-02T21:41:49Z</time>
      </trkpt>
      <trkpt lat="47.45246" lon="6.68562">
        <ele>302</ele>
        <time>2020-09-02T21:42:33Z</time>
      </trkpt>
      <trkpt lat="47.45514" lon="6.68865">
        <ele>304</ele>
        <time>2020-09-02T21:43:33Z</time>
      </trkpt>
      <trkpt lat="47.45361" lon="6.69003">
        <ele>304</ele>
        <time>2020-09-02T21:44:04Z</time>
      </trkpt>
      <trkpt lat="47.45511" lon="6.69079">
        <ele>304</ele>
        <time>2020-09-02T21:44:33Z</time>
      </trkpt>
      <trkpt lat="47.4561" lon="6.6919">
        <ele>303</ele>
        <time>2020-09-02T21:44:55Z</time>
      </trkpt>
      <trkpt lat="47.45756" lon="6.69336">
        <ele>302</ele>
        <time>2020-09-02T21:45:26Z</time>
      </trkpt>
      <trkpt lat="47.45873" lon="6.69458">
        <ele>303</ele>
        <time>2020-09-02T21:45:52Z</time>
      </trkpt>
      <trkpt lat="47.45918" lon="6.69597">
        <ele>307</ele>
        <time>2020-09-02T21:46:10Z</time>
      </trkpt>
      <trkpt lat="47.45962" lon="6.69847">
        <ele>322</ele>
        <time>2020-09-02T21:46:41Z</time>
      </trkpt>
      <trkpt lat="47.45941" lon="6.70083">
        <ele>324</ele>
        <time>2020-09-02T21:47:10Z</time>
      </trkpt>
      <trkpt lat="47.46006" lon="6.70402">
        <ele>333</ele>
        <time>2020-09-02T21:47:50Z</time>
      </trkpt>
      <trkpt lat="47.46052" lon="6.70553">
        <ele>344</ele>
        <time>2020-09-02T21:48:10Z</time>
      </trkpt>
      <trkpt lat="47.46064" lon="6.70729">
        <ele>342</ele>
        <time>2020-09-02T21:48:31Z</time>
      </trkpt>
      <trkpt lat="47.46051" lon="6.70888">
        <ele>337</ele>
        <time>2020-09-02T21:48:50Z</time>
      </trkpt>
      <trkpt lat="47.46149" lon="6.71118">
        <ele>345</ele>
        <time>2020-09-02T21:49:23Z</time>
      </trkpt>
      <trkpt lat="47.4628" lon="6.71391">
        <ele>356</ele>
        <time>2020-09-02T21:50:03Z</time>
      </trkpt>
      <trkpt lat="47.46358" lon="6.71487">
        <ele>353</ele>
        <time>2020-09-02T21:50:21Z</time>
      </trkpt>
      <trkpt lat="47.46428" lon="6.71622">
        <ele>348</ele>
        <time>2020-09-02T21:50:42Z</time>
      </trkpt>
      <trkpt lat="47.46507" lon="6.7175">
        <ele>353</ele>
        <time>2020-09-02T21:51:03Z</time>
      </trkpt>
      <trkpt lat="47.46602" lon="6.72123">
        <ele>365</ele>
        <time>2020-09-02T21:51:51Z</time>
      </trkpt>
      <trkpt lat="47.46682" lon="6.72373">
        <ele>367</ele>
        <time>2020-09-02T21:52:24Z</time>
      </trkpt>
      <trkpt lat="47.46753" lon="6.72462">
        <ele>361</ele>
        <time>2020-09-02T21:52:41Z</time>
      </trkpt>
      <trkpt lat="47.46816" lon="6.72499">
        <ele>360</ele>
        <time>2020-09-02T21:52:53Z</time>
      </trkpt>
      <trkpt lat="47.4701" lon="6.72685">
        <ele>341</ele>
        <time>2020-09-02T21:53:34Z</time>
      </trkpt>
      <trkpt lat="47.47085" lon="6.72805">
        <ele>327</ele>
        <time>2020-09-02T21:53:53Z</time>
      </trkpt>
      <trkpt lat="47.47189" lon="6.72883">
        <ele>323</ele>
        <time>2020-09-02T21:54:14Z</time>
      </trkpt>
      <trkpt lat="47.47245" lon="6.72898">
        <ele>322</ele>
        <time>2020-09-02T21:54:24Z</time>
      </trkpt>
      <trkpt lat="47.47307" lon="6.72957">
        <ele>316</ele>
        <time>2020-09-02T21:54:37Z</time>
      </trkpt>
      <trkpt lat="47.47345" lon="6.7303">
        <ele>313</ele>
        <time>2020-09-02T21:54:48Z</time>
      </trkpt>
      <trkpt lat="47.47429" lon="6.73038">
        <ele>311</ele>
        <time>2020-09-02T21:55:03Z</time>
      </trkpt>
      <trkpt lat="47.47492" lon="6.73134">
        <ele>311</ele>
        <time>2020-09-02T21:55:20Z</time>
      </trkpt>
      <trkpt lat="47.47494" lon="6.73249">
        <ele>312</ele>
        <time>2020-09-02T21:55:33Z</time>
      </trkpt>
      <trkpt lat="47.47527" lon="6.73342">
        <ele>309</ele>
        <time>2020-09-02T21:55:46Z</time>
      </trkpt>
      <trkpt lat="47.47505" lon="6.73369">
        <ele>309</ele>
        <time>2020-09-02T21:55:51Z</time>
      </trkpt>
      <trkpt lat="47.47541" lon="6.7354">
        <ele>307</ele>
        <time>2020-09-02T21:56:13Z</time>
      </trkpt>
      <trkpt lat="47.4757" lon="6.73857">
        <ele>308</ele>
        <time>2020-09-02T21:56:51Z</time>
      </trkpt>
      <trkpt lat="47.47626" lon="6.74038">
        <ele>310</ele>
        <time>2020-09-02T21:57:15Z</time>
      </trkpt>
      <trkpt lat="47.47703" lon="6.74332">
        <ele>310</ele>
        <time>2020-09-02T21:57:53Z</time>
      </trkpt>
      <trkpt lat="47.47714" lon="6.74714">
        <ele>309</ele>
        <time>2020-09-02T21:58:39Z</time>
      </trkpt>
      <trkpt lat="47.47703" lon="6.74975">
        <ele>310</ele>
        <time>2020-09-02T21:59:10Z</time>
      </trkpt>
      <trkpt lat="47.47709" lon="6.75361">
        <ele>309</ele>
        <time>2020-09-02T21:59:57Z</time>
      </trkpt>
      <trkpt lat="47.47699" lon="6.75739">
        <ele>310</ele>
        <time>2020-09-02T22:00:42Z</time>
      </trkpt>
      <trkpt lat="47.47581" lon="6.75996">
        <ele>310</ele>
        <time>2020-09-02T22:01:20Z</time>
      </trkpt>
      <trkpt lat="47.47543" lon="6.7595">
        <ele>310</ele>
        <time>2020-09-02T22:01:28Z</time>
      </trkpt>
      <trkpt lat="47.47455" lon="6.76447">
        <ele>311</ele>
        <time>2020-09-02T22:02:30Z</time>
      </trkpt>
      <trkpt lat="47.47466" lon="6.76547">
        <ele>310</ele>
        <time>2020-09-02T22:02:42Z</time>
      </trkpt>
      <trkpt lat="47.47586" lon="6.7669">
        <ele>311</ele>
        <time>2020-09-02T22:03:10Z</time>
      </trkpt>
      <trkpt lat="47.4773" lon="6.76799">
        <ele>311</ele>
        <time>2020-09-02T22:03:39Z</time>
      </trkpt>
      <trkpt lat="47.47837" lon="6.76803">
        <ele>310</ele>
        <time>2020-09-02T22:03:58Z</time>
      </trkpt>
      <trkpt lat="47.47906" lon="6.76654">
        <ele>311</ele>
        <time>2020-09-02T22:04:19Z</time>
      </trkpt>
      <trkpt lat="47.48026" lon="6.76587">
        <ele>312</ele>
        <time>2020-09-02T22:04:42Z</time>
      </trkpt>
      <trkpt lat="47.48126" lon="6.76499">
        <ele>325</ele>
        <time>2020-09-02T22:05:03Z</time>
      </trkpt>
      <trkpt lat="47.48246" lon="6.7667">
        <ele>324</ele>
        <time>2020-09-02T22:05:33Z</time>
      </trkpt>
      <trkpt lat="47.48393" lon="6.76768">
        <ele>323</ele>
        <time>2020-09-02T22:06:01Z</time>
      </trkpt>
      <trkpt lat="47.48567" lon="6.76812">
        <ele>322</ele>
        <time>2020-09-02T22:06:33Z</time>
      </trkpt>
      <trkpt lat="47.48691" lon="6.77013">
        <ele>311</ele>
        <time>2020-09-02T22:07:05Z</time>
      </trkpt>
      <trkpt lat="47.48796" lon="6.7711">
        <ele>311</ele>
        <time>2020-09-02T22:07:27Z</time>
      </trkpt>
      <trkpt lat="47.48971" lon="6.77165">
        <ele>312</ele>
        <time>2020-09-02T22:07:59Z</time>
      </trkpt>
      <trkpt lat="47.49184" lon="6.77123">
        <ele>313</ele>
        <time>2020-09-02T22:08:37Z</time>
      </trkpt>
      <trkpt lat="47.49305" lon="6.77027">
        <ele>316</ele>
        <time>2020-09-02T22:09:02Z</time>
      </trkpt>
      <trkpt lat="47.49369" lon="6.77113">
        <ele>317</ele>
        <time>2020-09-02T22:09:17Z</time>
      </trkpt>
      <trkpt lat="47.4948" lon="6.77188">
        <ele>318</ele>
        <time>2020-09-02T22:09:39Z</time>
      </trkpt>
      <trkpt lat="47.4958" lon="6.77204">
        <ele>319</ele>
        <time>2020-09-02T22:09:57Z</time>
      </trkpt>
      <trkpt lat="47.49738" lon="6.77294">
        <ele>315</ele>
        <time>2020-09-02T22:10:27Z</time>
      </trkpt>
      <trkpt lat="47.49865" lon="6.77298">
        <ele>318</ele>
        <time>2020-09-02T22:10:50Z</time>
      </trkpt>
      <trkpt lat="47.50025" lon="6.77224">
        <ele>325</ele>
        <time>2020-09-02T22:11:19Z</time>
      </trkpt>
      <trkpt lat="47.50187" lon="6.77139">
        <ele>332</ele>
        <time>2020-09-02T22:11:50Z</time>
      </trkpt>
      <trkpt lat="47.50264" lon="6.7715">
        <ele>317</ele>
        <time>2020-09-02T22:12:04Z</time>
      </trkpt>
      <trkpt lat="47.5034" lon="6.77242">
        <ele>312</ele>
        <time>2020-09-02T22:12:21Z</time>
      </trkpt>
      <trkpt lat="47.50449" lon="6.77401">
        <ele>312</ele>
        <time>2020-09-02T22:12:48Z</time>
      </trkpt>
      <trkpt lat="47.5055" lon="6.77458">
        <ele>314</ele>
        <time>2020-09-02T22:13:08Z</time>
      </trkpt>
      <trkpt lat="47.50679" lon="6.77491">
        <ele>314</ele>
        <time>2020-09-02T22:13:31Z</time>
      </trkpt>
      <trkpt lat="47.50852" lon="6.77493">
        <ele>314</ele>
        <time>2020-09-02T22:14:02Z</time>
      </trkpt>
      <trkpt lat="47.50901" lon="6.7752">
        <ele>314</ele>
        <time>2020-09-02T22:14:11Z</time>
      </trkpt>
      <trkpt lat="47.50937" lon="6.77607">
        <ele>315</ele>
        <time>2020-09-02T22:14:23Z</time>
      </trkpt>
      <trkpt lat="47.50961" lon="6.77843">
        <ele>315</ele>
        <time>2020-09-02T22:14:52Z</time>
      </trkpt>
      <trkpt lat="47.50961" lon="6.77973">
        <ele>316</ele>
        <time>2020-09-02T22:15:08Z</time>
      </trkpt>
      <trkpt lat="47.50987" lon="6.78087">
        <ele>317</ele>
        <time>2020-09-02T22:15:22Z</time>
      </trkpt>
      <trkpt lat="47.50976" lon="6.78348">
        <ele>316</ele>
        <time>2020-09-02T22:15:54Z</time>
      </trkpt>
      <trkpt lat="47.50917" lon="6.78748">
        <ele>319</ele>
        <time>2020-09-02T22:16:43Z</time>
      </trkpt>
      <trkpt lat="47.50908" lon="6.78969">
        <ele>317</ele>
        <time>2020-09-02T22:17:09Z</time>
      </trkpt>
      <trkpt lat="47.50906" lon="6.79336">
        <ele>317</ele>
        <time>2020-09-02T22:17:53Z</time>
      </trkpt>
      <trkpt lat="47.50752" lon="6.79297">
        <ele>314</ele>
        <time>2020-09-02T22:18:21Z</time>
      </trkpt>
      <trkpt lat="47.50527" lon="6.79501">
        <ele>316</ele>
        <time>2020-09-02T22:19:08Z</time>
      </trkpt>
      <trkpt lat="47.50524" lon="6.79605">
        <ele>314</ele>
        <time>2020-09-02T22:19:21Z</time>
      </trkpt>
      <trkpt lat="47.50542" lon="6.79764">
        <ele>320</ele>
        <time>2020-09-02T22:19:40Z</time>
      </trkpt>
      <trkpt lat="47.50562" lon="6.79899">
        <ele>319</ele>
        <time>2020-09-02T22:19:57Z</time>
      </trkpt>
      <trkpt lat="47.50594" lon="6.80044">
        <ele>319</ele>
        <time>2020-09-02T22:20:15Z</time>
      </trkpt>
      <trkpt lat="47.50577" lon="6.80279">
        <ele>316</ele>
        <time>2020-09-02T22:20:43Z</time>
      </trkpt>
      <trkpt lat="47.50565" lon="6.80359">
        <ele>316</ele>
        <time>2020-09-02T22:20:53Z</time>
      </trkpt>
      <trkpt lat="47.50512" lon="6.80454">
        <ele>316</ele>
        <time>2020-09-02T22:21:08Z</time>
      </trkpt>
      <trkpt lat="47.50534" lon="6.80485">
        <ele>316</ele>
        <time>2020-09-02T22:21:13Z</time>
      </trkpt>
      <trkpt lat="47.50525" lon="6.80542">
        <ele>315</ele>
        <time>2020-09-02T22:21:21Z</time>
      </trkpt>
      <trkpt lat="47.50491" lon="6.80637">
        <ele>315</ele>
        <time>2020-09-02T22:21:33Z</time>
      </trkpt>
      <trkpt lat="47.50479" lon="6.80827">
        <ele>316</ele>
        <time>2020-09-02T22:21:56Z</time>
      </trkpt>
      <trkpt lat="47.5044" lon="6.80818">
        <ele>317</ele>
        <time>2020-09-02T22:22:03Z</time>
      </trkpt>
      <trkpt lat="47.50419" lon="6.81217">
        <ele>322</ele>
        <time>2020-09-02T22:22:52Z</time>
      </trkpt>
      <trkpt lat="47.504" lon="6.81261">
        <ele>321</ele>
        <time>2020-09-02T22:22:58Z</time>
      </trkpt>
      <trkpt lat="47.50373" lon="6.81582">
        <ele>318</ele>
        <time>2020-09-02T22:23:37Z</time>
      </trkpt>
      <trkpt lat="47.50354" lon="6.81941">
        <ele>319</ele>
        <time>2020-09-02T22:24:20Z</time>
      </trkpt>
      <trkpt lat="47.50307" lon="6.82453">
        <ele>318</ele>
        <time>2020-09-02T22:25:22Z</time>
      </trkpt>
      <trkpt lat="47.50347" lon="6.82566">
        <ele>318</ele>
        <time>2020-09-02T22:25:37Z</time>
      </trkpt>
      <trkpt lat="47.50349" lon="6.82745">
        <ele>320</ele>
        <time>2020-09-02T22:25:59Z</time>
      </trkpt>
      <trkpt lat="47.50365" lon="6.82858">
        <ele>318</ele>
        <time>2020-09-02T22:26:13Z</time>
      </trkpt>
      <trkpt lat="47.50441" lon="6.83283">
        <ele>318</ele>
        <time>2020-09-02T22:27:06Z</time>
      </trkpt>
      <trkpt lat="47.50464" lon="6.83315">
        <ele>317</ele>
        <time>2020-09-02T22:27:11Z</time>
      </trkpt>
      <trkpt lat="47.50461" lon="6.83402">
        <ele>318</ele>
        <time>2020-09-02T22:27:22Z</time>
      </trkpt>
      <trkpt lat="47.50554" lon="6.83736">
        <ele>319</ele>
        <time>2020-09-02T22:28:05Z</time>
      </trkpt>
      <trkpt lat="47.50584" lon="6.839">
        <ele>317</ele>
        <time>2020-09-02T22:28:26Z</time>
      </trkpt>
      <trkpt lat="47.50647" lon="6.84127">
        <ele>319</ele>
        <time>2020-09-02T22:28:55Z</time>
      </trkpt>
      <trkpt lat="47.50679" lon="6.84136">
        <ele>318</ele>
        <time>2020-09-02T22:29:01Z</time>
      </trkpt>
      <trkpt lat="47.50686" lon="6.84207">
        <ele>320</ele>
        <time>2020-09-02T22:29:09Z</time>
      </trkpt>
      <trkpt lat="47.50834" lon="6.84539">
        <ele>320</ele>
        <time>2020-09-02T22:29:57Z</time>
      </trkpt>
      <trkpt lat="47.5091" lon="6.8466">
        <ele>318</ele>
        <time>2020-09-02T22:30:17Z</time>
      </trkpt>
      <trkpt lat="47.50974" lon="6.84892">
        <ele>317</ele>
        <time>2020-09-02T22:30:47Z</time>
      </trkpt>
      <trkpt lat="47.50975" lon="6.84958">
        <ele>317</ele>
        <time>2020-09-02T22:30:55Z</time>
      </trkpt>
      <trkpt lat="47.51089" lon="6.8527">
        <ele>318</ele>
        <time>2020-09-02T22:31:38Z</time>
      </trkpt>
      <trkpt lat="47.51272" lon="6.85864">
        <ele>321</ele>
        <time>2020-09-02T22:32:56Z</time>
      </trkpt>
      <trkpt lat="47.5132" lon="6.85841">
        <ele>320</ele>
        <time>2020-09-02T22:33:05Z</time>
      </trkpt>
      <trkpt lat="47.51431" lon="6.85841">
        <ele>321</ele>
        <time>2020-09-02T22:33:25Z</time>
      </trkpt>
      <trkpt lat="47.51433" lon="6.85996">
        <ele>319</ele>
        <time>2020-09-02T22:33:44Z</time>
      </trkpt>
      <trkpt lat="47.51411" lon="6.86101">
        <ele>320</ele>
        <time>2020-09-02T22:33:57Z</time>
      </trkpt>
      <trkpt lat="47.5158" lon="6.86681">
        <ele>323</ele>
        <time>2020-09-02T22:35:13Z</time>
      </trkpt>
      <trkpt lat="47.51673" lon="6.86871">
        <ele>322</ele>
        <time>2020-09-02T22:35:41Z</time>
      </trkpt>
      <trkpt lat="47.51746" lon="6.86965">
        <ele>321</ele>
        <time>2020-09-02T22:35:58Z</time>
      </trkpt>
      <trkpt lat="47.51775" lon="6.87061">
        <ele>322</ele>
        <time>2020-09-02T22:36:11Z</time>
      </trkpt>
      <trkpt lat="47.51719" lon="6.87185">
        <ele>321</ele>
        <time>2020-09-02T22:36:29Z</time>
      </trkpt>
      <trkpt lat="47.51955" lon="6.87951">
        <ele>323</ele>
        <time>2020-09-02T22:38:10Z</time>
      </trkpt>
      <trkpt lat="47.52008" lon="6.88148">
        <ele>323</ele>
        <time>2020-09-02T22:38:35Z</time>
      </trkpt>
      <trkpt lat="47.52102" lon="6.88221">
        <ele>324</ele>
        <time>2020-09-02T22:38:54Z</time>
      </trkpt>
      <trkpt lat="47.52205" lon="6.88155">
        <ele>324</ele>
        <time>2020-09-02T22:39:14Z</time>
      </trkpt>
      <trkpt lat="47.52258" lon="6.8804">
        <ele>322</ele>
        <time>2020-09-02T22:39:31Z</time>
      </trkpt>
      <trkpt lat="47.52359" lon="6.88039">
        <ele>327</ele>
        <time>2020-09-02T22:39:49Z</time>
      </trkpt>
      <trkpt lat="47.52414" lon="6.88176">
        <ele>329</ele>
        <time>2020-09-02T22:40:08Z</time>
      </trkpt>
      <trkpt lat="47.52508" lon="6.88341">
        <ele>327</ele>
        <time>2020-09-02T22:40:34Z</time>
      </trkpt>
      <trkpt lat="47.52702" lon="6.88574">
        <ele>334</ele>
        <time>2020-09-02T22:41:18Z</time>
      </trkpt>
      <trkpt lat="47.52788" lon="6.88776">
        <ele>330</ele>
        <time>2020-09-02T22:41:47Z</time>
      </trkpt>
      <trkpt lat="47.52813" lon="6.8904">
        <ele>326</ele>
        <time>2020-09-02T22:42:19Z</time>
      </trkpt>
      <trkpt lat="47.52794" lon="6.89639">
        <ele>325</ele>
        <time>2020-09-02T22:43:31Z</time>
      </trkpt>
      <trkpt lat="47.52795" lon="6.89788">
        <ele>324</ele>
        <time>2020-09-02T22:43:49Z</time>
      </trkpt>
      <trkpt lat="47.52979" lon="6.90099">
        <ele>324</ele>
        <time>2020-09-02T22:44:39Z</time>
      </trkpt>
      <trkpt lat="47.53208" lon="6.90406">
        <ele>325</ele>
        <time>2020-09-02T22:45:34Z</time>
      </trkpt>
      <trkpt lat="47.53444" lon="6.90705">
        <ele>331</ele>
        <time>2020-09-02T22:46:29Z</time>
      </trkpt>
      <trkpt lat="47.53703" lon="6.9093">
        <ele>331</ele>
        <time>2020-09-02T22:47:22Z</time>
      </trkpt>
      <trkpt lat="47.53867" lon="6.91053">
        <ele>331</ele>
        <time>2020-09-02T22:47:55Z</time>
      </trkpt>
      <trkpt lat="47.53948" lon="6.91044">
        <ele>331</ele>
        <time>2020-09-02T22:48:10Z</time>
      </trkpt>
      <trkpt lat="47.5404" lon="6.90851">
        <ele>338</ele>
        <time>2020-09-02T22:48:38Z</time>
      </trkpt>
      <trkpt lat="47.54112" lon="6.90738">
        <ele>343</ele>
        <time>2020-09-02T22:48:57Z</time>
      </trkpt>
      <trkpt lat="47.54346" lon="6.90658">
        <ele>341</ele>
        <time>2020-09-02T22:49:39Z</time>
      </trkpt>
      <trkpt lat="47.54444" lon="6.90677">
        <ele>334</ele>
        <time>2020-09-02T22:49:57Z</time>
      </trkpt>
      <trkpt lat="47.54678" lon="6.90582">
        <ele>344</ele>
        <time>2020-09-02T22:50:40Z</time>
      </trkpt>
      <trkpt lat="47.54766" lon="6.90651">
        <ele>331</ele>
        <time>2020-09-02T22:50:58Z</time>
      </trkpt>
      <trkpt lat="47.55185" lon="6.91476">
        <ele>326</ele>
        <time>2020-09-02T22:53:02Z</time>
      </trkpt>
      <trkpt lat="47.55465" lon="6.91986">
        <ele>328</ele>
        <time>2020-09-02T22:54:21Z</time>
      </trkpt>
      <trkpt lat="47.5573" lon="6.92507">
        <ele>331</ele>
        <time>2020-09-02T22:55:39Z</time>
      </trkpt>
      <trkpt lat="47.55839" lon="6.92752">
        <ele>332</ele>
        <time>2020-09-02T22:56:14Z</time>
      </trkpt>
      <trkpt lat="47.56057" lon="6.93322">
        <ele>332</ele>
        <time>2020-09-02T22:57:33Z</time>
      </trkpt>
      <trkpt lat="47.56029" lon="6.93355">
        <ele>332</ele>
        <time>2020-09-02T22:57:39Z</time>
      </trkpt>
      <trkpt lat="47.56149" lon="6.9364">
        <ele>328</ele>
        <time>2020-09-02T22:58:20Z</time>
      </trkpt>
      <trkpt lat="47.56311" lon="6.93925">
        <ele>330</ele>
        <time>2020-09-02T22:59:05Z</time>
      </trkpt>
      <trkpt lat="47.56472" lon="6.94216">
        <ele>335</ele>
        <time>2020-09-02T22:59:50Z</time>
      </trkpt>
      <trkpt lat="47.566" lon="6.94404">
        <ele>331</ele>
        <time>2020-09-02T23:00:22Z</time>
      </trkpt>
      <trkpt lat="47.56898" lon="6.94883">
        <ele>330</ele>
        <time>2020-09-02T23:01:40Z</time>
      </trkpt>
      <trkpt lat="47.57542" lon="6.95625">
        <ele>332</ele>
        <time>2020-09-02T23:04:05Z</time>
      </trkpt>
      <trkpt lat="47.57661" lon="6.95794">
        <ele>331</ele>
        <time>2020-09-02T23:04:34Z</time>
      </trkpt>
      <trkpt lat="47.57878" lon="6.96116">
        <ele>331</ele>
        <time>2020-09-02T23:05:29Z</time>
      </trkpt>
      <trkpt lat="47.58018" lon="6.96329">
        <ele>332</ele>
        <time>2020-09-02T23:06:05Z</time>
      </trkpt>
      <trkpt lat="47.58212" lon="6.96633">
        <ele>334</ele>
        <time>2020-09-02T23:06:55Z</time>
      </trkpt>
      <trkpt lat="47.58453" lon="6.96992">
        <ele>333</ele>
        <time>2020-09-02T23:07:56Z</time>
      </trkpt>
      <trkpt lat="47.5872" lon="6.97401">
        <ele>333</ele>
        <time>2020-09-02T23:09:04Z</time>
      </trkpt>
      <trkpt lat="47.58865" lon="6.97633">
        <ele>332</ele>
        <time>2020-09-02T23:09:42Z</time>
      </trkpt>
      <trkpt lat="47.59529" lon="6.98661">
        <ele>335</ele>
        <time>2020-09-02T23:12:33Z</time>
      </trkpt>
      <trkpt lat="47.5957" lon="6.98809">
        <ele>336</ele>
        <time>2020-09-02T23:12:52Z</time>
      </trkpt>
      <trkpt lat="47.5958" lon="6.98932">
        <ele>336</ele>
        <time>2020-09-02T23:13:07Z</time>
      </trkpt>
      <trkpt lat="47.59578" lon="6.99092">
        <ele>340</ele>
        <time>2020-09-02T23:13:26Z</time>
      </trkpt>
      <trkpt lat="47.596" lon="6.99253">
        <ele>339</ele>
        <time>2020-09-02T23:13:46Z</time>
      </trkpt>
      <trkpt lat="47.59639" lon="6.99377">
        <ele>339</ele>
        <time>2020-09-02T23:14:02Z</time>
      </trkpt>
      <trkpt lat="47.59724" lon="6.99509">
        <ele>339</ele>
        <time>2020-09-02T23:14:24Z</time>
      </trkpt>
      <trkpt lat="47.59841" lon="6.99634">
        <ele>340</ele>
        <time>2020-09-02T23:14:50Z</time>
      </trkpt>
      <trkpt lat="47.60041" lon="6.99859">
        <ele>336</ele>
        <time>2020-09-02T23:15:34Z</time>
      </trkpt>
      <trkpt lat="47.60104" lon="6.99959">
        <ele>336</ele>
        <time>2020-09-02T23:15:51Z</time>
      </trkpt>
      <trkpt lat="47.60143" lon="7.00076">
        <ele>336</ele>
        <time>2020-09-02T23:16:07Z</time>
      </trkpt>
      <trkpt lat="47.60139" lon="7.00168">
        <ele>338</ele>
        <time>2020-09-02T23:16:18Z</time>
      </trkpt>
      <trkpt lat="47.60087" lon="7.00385">
        <ele>339</ele>
        <time>2020-09-02T23:16:45Z</time>
      </trkpt>
      <trkpt lat="47.60088" lon="7.00554">
        <ele>340</ele>
        <time>2020-09-02T23:17:06Z</time>
      </trkpt>
      <trkpt lat="47.60095" lon="7.00676">
        <ele>344</ele>
        <time>2020-09-02T23:17:20Z</time>
      </trkpt>
      <trkpt lat="47.60135" lon="7.00774">
        <ele>346</ele>
        <time>2020-09-02T23:17:34Z</time>
      </trkpt>
      <trkpt lat="47.60202" lon="7.00883">
        <ele>346</ele>
        <time>2020-09-02T23:17:52Z</time>
      </trkpt>
      <trkpt lat="47.60273" lon="7.0099">
        <ele>346</ele>
        <time>2020-09-02T23:18:10Z</time>
      </trkpt>
      <trkpt lat="47.60355" lon="7.01106">
        <ele>343</ele>
        <time>2020-09-02T23:18:30Z</time>
      </trkpt>
      <trkpt lat="47.60448" lon="7.01297">
        <ele>342</ele>
        <time>2020-09-02T23:18:58Z</time>
      </trkpt>
      <trkpt lat="47.60719" lon="7.01919">
        <ele>345</ele>
        <time>2020-09-02T23:20:27Z</time>
      </trkpt>
      <trkpt lat="47.60841" lon="7.02166">
        <ele>342</ele>
        <time>2020-09-02T23:21:04Z</time>
      </trkpt>
      <trkpt lat="47.60963" lon="7.02374">
        <ele>341</ele>
        <time>2020-09-02T23:21:37Z</time>
      </trkpt>
      <trkpt lat="47.6108" lon="7.02505">
        <ele>340</ele>
        <time>2020-09-02T23:22:03Z</time>
      </trkpt>
      <trkpt lat="47.61285" lon="7.0267">
        <ele>343</ele>
        <time>2020-09-02T23:22:44Z</time>
      </trkpt>
      <trkpt lat="47.61464" lon="7.02827">
        <ele>345</ele>
        <time>2020-09-02T23:23:21Z</time>
      </trkpt>
      <trkpt lat="47.6157" lon="7.02927">
        <ele>345</ele>
        <time>2020-09-02T23:23:44Z</time>
      </trkpt>
      <trkpt lat="47.61628" lon="7.0303">
        <ele>344</ele>
        <time>2020-09-02T23:24:00Z</time>
      </trkpt>
      <trkpt lat="47.61848" lon="7.03441">
        <ele>344</ele>
        <time>2020-09-02T23:25:03Z</time>
      </trkpt>
      <trkpt lat="47.62072" lon="7.03837">
        <ele>345</ele>
        <time>2020-09-02T23:26:05Z</time>
      </trkpt>
      <trkpt lat="47.62323" lon="7.04296">
        <ele>349</ele>
        <time>2020-09-02T23:27:16Z</time>
      </trkpt>
      <trkpt lat="47.62566" lon="7.04727">
        <ele>354</ele>
        <time>2020-09-02T23:28:23Z</time>
      </trkpt>
      <trkpt lat="47.62746" lon="7.05054">
        <ele>355</ele>
        <time>2020-09-02T23:29:14Z</time>
      </trkpt>
      <trkpt lat="47.6296" lon="7.05463">
        <ele>348</ele>
        <time>2020-09-02T23:30:16Z</time>
      </trkpt>
      <trkpt lat="47.63134" lon="7.05781">
        <ele>340</ele>
        <time>2020-09-02T23:31:05Z</time>
      </trkpt>
      <trkpt lat="47.63202" lon="7.05877">
        <ele>337</ele>
        <time>2020-09-02T23:31:21Z</time>
      </trkpt>
      <trkpt lat="47.63228" lon="7.05963">
        <ele>336</ele>
        <time>2020-09-02T23:31:33Z</time>
      </trkpt>
      <trkpt lat="47.63257" lon="7.06169">
        <ele>329</ele>
        <time>2020-09-02T23:31:58Z</time>
      </trkpt>
      <trkpt lat="47.63351" lon="7.0703">
        <ele>319</ele>
        <time>2020-09-02T23:33:43Z</time>
      </trkpt>
      <trkpt lat="47.63477" lon="7.08071">
        <ele>314</ele>
        <time>2020-09-02T23:35:49Z</time>
      </trkpt>
      <trkpt lat="47.63542" lon="7.08703">
        <ele>308</ele>
        <time>2020-09-02T23:37:06Z</time>
      </trkpt>
      <trkpt lat="47.63506" lon="7.0896">
        <ele>308</ele>
        <time>2020-09-02T23:37:38Z</time>
      </trkpt>
      <trkpt lat="47.63465" lon="7.09158">
        <ele>307</ele>
        <time>2020-09-02T23:38:02Z</time>
      </trkpt>
      <trkpt lat="47.63385" lon="7.09381">
        <ele>307</ele>
        <time>2020-09-02T23:38:33Z</time>
      </trkpt>
      <trkpt lat="47.63192" lon="7.09812">
        <ele>308</ele>
        <time>2020-09-02T23:39:35Z</time>
      </trkpt>
      <trkpt lat="47.63175" lon="7.09903">
        <ele>309</ele>
        <time>2020-09-02T23:39:46Z</time>
      </trkpt>
      <trkpt lat="47.63175" lon="7.1002">
        <ele>308</ele>
        <time>2020-09-02T23:40:00Z</time>
      </trkpt>
      <trkpt lat="47.63219" lon="7.1029">
        <ele>309</ele>
        <time>2020-09-02T23:40:33Z</time>
      </trkpt>
      <trkpt lat="47.63275" lon="7.10437">
        <ele>307</ele>
        <time>2020-09-02T23:40:54Z</time>
      </trkpt>
      <trkpt lat="47.63293" lon="7.10504">
        <ele>306</ele>
        <time>2020-09-02T23:41:02Z</time>
      </trkpt>
      <trkpt lat="47.63336" lon="7.10548">
        <ele>306</ele>
        <time>2020-09-02T23:41:12Z</time>
      </trkpt>
      <trkpt lat="47.63437" lon="7.10728">
        <ele>304</ele>
        <time>2020-09-02T23:41:40Z</time>
      </trkpt>
      <trkpt lat="47.63478" lon="7.10808">
        <ele>303</ele>
        <time>2020-09-02T23:41:52Z</time>
      </trkpt>
      <trkpt lat="47.635" lon="7.10798">
        <ele>303</ele>
        <time>2020-09-02T23:41:56Z</time>
      </trkpt>
      <trkpt lat="47.6354" lon="7.10879">
        <ele>303</ele>
        <time>2020-09-02T23:42:08Z</time>
      </trkpt>
      <trkpt lat="47.63553" lon="7.11001">
        <ele>300</ele>
        <time>2020-09-02T23:42:23Z</time>
      </trkpt>
      <trkpt lat="47.63551" lon="7.11572">
        <ele>299</ele>
        <time>2020-09-02T23:43:31Z</time>
      </trkpt>
      <trkpt lat="47.6373" lon="7.1177">
        <ele>295</ele>
        <time>2020-09-02T23:44:11Z</time>
      </trkpt>
      <trkpt lat="47.64117" lon="7.12223">
        <ele>294</ele>
        <time>2020-09-02T23:45:39Z</time>
      </trkpt>
      <trkpt lat="47.64348" lon="7.12486">
        <ele>292</ele>
        <time>2020-09-02T23:46:30Z</time>
      </trkpt>
      <trkpt lat="47.646" lon="7.12787">
        <ele>291</ele>
        <time>2020-09-02T23:47:28Z</time>
      </trkpt>
      <trkpt lat="47.64732" lon="7.12954">
        <ele>289</ele>
        <time>2020-09-02T23:47:59Z</time>
      </trkpt>
      <trkpt lat="47.64786" lon="7.13091">
        <ele>288</ele>
        <time>2020-09-02T23:48:18Z</time>
      </trkpt>
      <trkpt lat="47.64849" lon="7.13469">
        <ele>288</ele>
        <time>2020-09-02T23:49:04Z</time>
      </trkpt>
      <trkpt lat="47.64969" lon="7.14128">
        <ele>285</ele>
        <time>2020-09-02T23:50:26Z</time>
      </trkpt>
      <trkpt lat="47.65101" lon="7.14785">
        <ele>281</ele>
        <time>2020-09-02T23:51:48Z</time>
      </trkpt>
      <trkpt lat="47.65223" lon="7.15436">
        <ele>280</ele>
        <time>2020-09-02T23:53:09Z</time>
      </trkpt>
      <trkpt lat="47.65364" lon="7.16001">
        <ele>280</ele>
        <time>2020-09-02T23:54:22Z</time>
      </trkpt>
      <trkpt lat="47.65876" lon="7.15749">
        <ele>281</ele>
        <time>2020-09-02T23:55:58Z</time>
      </trkpt>
      <trkpt lat="47.66388" lon="7.16407">
        <ele>280</ele>
        <time>2020-09-02T23:57:58Z</time>
      </trkpt>
      <trkpt lat="47.6655" lon="7.16594">
        <ele>275</ele>
        <time>2020-09-02T23:58:35Z</time>
      </trkpt>
      <trkpt lat="47.66873" lon="7.16846">
        <ele>279</ele>
        <time>2020-09-02T23:59:40Z</time>
      </trkpt>
      <trkpt lat="47.67889" lon="7.16221">
        <ele>292</ele>
        <time>2020-09-03T00:02:55Z</time>
      </trkpt>
      <trkpt lat="47.68472" lon="7.16265">
        <ele>295</ele>
        <time>2020-09-03T00:04:39Z</time>
      </trkpt>
      <trkpt lat="47.69299" lon="7.15958">
        <ele>299</ele>
        <time>2020-09-03T00:07:11Z</time>
      </trkpt>
      <trkpt lat="47.69793" lon="7.16111">
        <ele>298</ele>
        <time>2020-09-03T00:08:41Z</time>
      </trkpt>
      <trkpt lat="47.70116" lon="7.1598">
        <ele>301</ele>
        <time>2020-09-03T00:09:40Z</time>
      </trkpt>
      <trkpt lat="47.71033" lon="7.16133">
        <ele>299</ele>
        <time>2020-09-03T00:12:24Z</time>
      </trkpt>
      <trkpt lat="47.71724" lon="7.16923">
        <ele>294</ele>
        <time>2020-09-03T00:14:59Z</time>
      </trkpt>
      <trkpt lat="47.72173" lon="7.16835">
        <ele>283</ele>
        <time>2020-09-03T00:16:20Z</time>
      </trkpt>
      <trkpt lat="47.72488" lon="7.17109">
        <ele>286</ele>
        <time>2020-09-03T00:17:25Z</time>
      </trkpt>
      <trkpt lat="47.72739" lon="7.16703">
        <ele>289</ele>
        <time>2020-09-03T00:18:31Z</time>
      </trkpt>
      <trkpt lat="47.73305" lon="7.15892">
        <ele>295</ele>
        <time>2020-09-03T00:20:51Z</time>
      </trkpt>
      <trkpt lat="47.74213" lon="7.15124">
        <ele>295</ele>
        <time>2020-09-03T00:23:57Z</time>
      </trkpt>
      <trkpt lat="47.75003" lon="7.15047">
        <ele>310</ele>
        <time>2020-09-03T00:26:18Z</time>
      </trkpt>
      <trkpt lat="47.75578" lon="7.1553">
        <ele>298</ele>
        <time>2020-09-03T00:28:15Z</time>
      </trkpt>
      <trkpt lat="47.75866" lon="7.15826">
        <ele>288</ele>
        <time>2020-09-03T00:29:17Z</time>
      </trkpt>
      <trkpt lat="47.78111" lon="7.16539">
        <ele>299</ele>
        <time>2020-09-03T00:36:06Z</time>
      </trkpt>
      <trkpt lat="47.80321" lon="7.17635">
        <ele>297</ele>
        <time>2020-09-03T00:43:00Z</time>
      </trkpt>
      <trkpt lat="47.80481" lon="7.17621">
        <ele>295</ele>
        <time>2020-09-03T00:43:29Z</time>
      </trkpt>
      <trkpt lat="47.80487" lon="7.17553">
        <ele>296</ele>
        <time>2020-09-03T00:43:37Z</time>
      </trkpt>
      <trkpt lat="47.80494" lon="7.17534">
        <ele>296</ele>
        <time>2020-09-03T00:43:40Z</time>
      </trkpt>
      <trkpt lat="47.80522" lon="7.17318">
        <ele>298</ele>
        <time>2020-09-03T00:44:06Z</time>
      </trkpt>
      <trkpt lat="47.80526" lon="7.1725">
        <ele>297</ele>
        <time>2020-09-03T00:44:14Z</time>
      </trkpt>
      <trkpt lat="47.80567" lon="7.17263">
        <ele>297</ele>
        <time>2020-09-03T00:44:21Z</time>
      </trkpt>
      <trkpt lat="47.80579" lon="7.17254">
        <ele>296</ele>
        <time>2020-09-03T00:44:24Z</time>
      </trkpt>
      <trkpt lat="47.80591" lon="7.1726">
        <ele>297</ele>
        <time>2020-09-03T00:44:26Z</time>
      </trkpt>
      <trkpt lat="47.80633" lon="7.17248">
        <ele>297</ele>
        <time>2020-09-03T00:44:34Z</time>
      </trkpt>
      <trkpt lat="47.80644" lon="7.1725">
        <ele>297</ele>
        <time>2020-09-03T00:44:36Z</time>
      </trkpt>
      <trkpt lat="47.80651" lon="7.17241">
        <ele>298</ele>
        <time>2020-09-03T00:44:37Z</time>
      </trkpt>
      <trkpt lat="47.80793" lon="7.17201">
        <ele>298</ele>
        <time>2020-09-03T00:45:03Z</time>
      </trkpt>
      <trkpt lat="47.80872" lon="7.17219">
        <ele>299</ele>
        <time>2020-09-03T00:45:17Z</time>
      </trkpt>
      <trkpt lat="47.80998" lon="7.17256">
        <ele>300</ele>
        <time>2020-09-03T00:45:40Z</time>
      </trkpt>
      <trkpt lat="47.81041" lon="7.17271">
        <ele>300</ele>
        <time>2020-09-03T00:45:48Z</time>
      </trkpt>
      <trkpt lat="47.81081" lon="7.17302">
        <ele>299</ele>
        <time>2020-09-03T00:45:56Z</time>
      </trkpt>
      <trkpt lat="47.81109" lon="7.17341">
        <ele>299</ele>
        <time>2020-09-03T00:46:03Z</time>
      </trkpt>
      <trkpt lat="47.81136" lon="7.17384">
        <ele>298</ele>
        <time>2020-09-03T00:46:10Z</time>
      </trkpt>
      <trkpt lat="47.81181" lon="7.17435">
        <ele>296</ele>
        <time>2020-09-03T00:46:20Z</time>
      </trkpt>
      <trkpt lat="47.81195" lon="7.17445">
        <ele>296</ele>
        <time>2020-09-03T00:46:23Z</time>
      </trkpt>
      <trkpt lat="47.81204" lon="7.17434">
        <ele>296</ele>
        <time>2020-09-03T00:46:25Z</time>
      </trkpt>
      <trkpt lat="47.81214" lon="7.17432">
        <ele>296</ele>
        <time>2020-09-03T00:46:27Z</time>
      </trkpt>
      <trkpt lat="47.8122" lon="7.17445">
        <ele>296</ele>
        <time>2020-09-03T00:46:28Z</time>
      </trkpt>
      <trkpt lat="47.81213" lon="7.17466">
        <ele>296</ele>
        <time>2020-09-03T00:46:31Z</time>
      </trkpt>
      <trkpt lat="47.81266" lon="7.17547">
        <ele>296</ele>
        <time>2020-09-03T00:46:45Z</time>
      </trkpt>
      <trkpt lat="47.81368" lon="7.17719">
        <ele>294</ele>
        <time>2020-09-03T00:47:12Z</time>
      </trkpt>
      <trkpt lat="47.81431" lon="7.178">
        <ele>294</ele>
        <time>2020-09-03T00:47:27Z</time>
      </trkpt>
      <trkpt lat="47.81474" lon="7.17825">
        <ele>295</ele>
        <time>2020-09-03T00:47:35Z</time>
      </trkpt>
      <trkpt lat="47.81482" lon="7.17824">
        <ele>295</ele>
        <time>2020-09-03T00:47:37Z</time>
      </trkpt>
      <trkpt lat="47.81489" lon="7.17829">
        <ele>295</ele>
        <time>2020-09-03T00:47:38Z</time>
      </trkpt>
      <trkpt lat="47.81547" lon="7.17816">
        <ele>295</ele>
        <time>2020-09-03T00:47:48Z</time>
      </trkpt>
      <trkpt lat="47.81587" lon="7.17812">
        <ele>295</ele>
        <time>2020-09-03T00:47:56Z</time>
      </trkpt>
      <trkpt lat="47.81632" lon="7.1781">
        <ele>296</ele>
        <time>2020-09-03T00:48:04Z</time>
      </trkpt>
      <trkpt lat="47.81649" lon="7.17813">
        <ele>296</ele>
        <time>2020-09-03T00:48:07Z</time>
      </trkpt>
      <trkpt lat="47.81672" lon="7.17822">
        <ele>297</ele>
        <time>2020-09-03T00:48:11Z</time>
      </trkpt>
      <trkpt lat="47.81679" lon="7.17828">
        <ele>297</ele>
        <time>2020-09-03T00:48:12Z</time>
      </trkpt>
      <trkpt lat="47.81692" lon="7.17843">
        <ele>298</ele>
        <time>2020-09-03T00:48:15Z</time>
      </trkpt>
      <trkpt lat="47.81736" lon="7.17911">
        <ele>300</ele>
        <time>2020-09-03T00:48:26Z</time>
      </trkpt>
      <trkpt lat="47.81785" lon="7.18012">
        <ele>302</ele>
        <time>2020-09-03T00:48:41Z</time>
      </trkpt>
      <trkpt lat="47.81694" lon="7.18108">
        <ele>298</ele>
        <time>2020-09-03T00:49:01Z</time>
      </trkpt>
      <trkpt lat="47.81688" lon="7.18123">
        <ele>297</ele>
        <time>2020-09-03T00:49:03Z</time>
      </trkpt>
      <trkpt lat="47.8165" lon="7.1836">
        <ele>290</ele>
        <time>2020-09-03T00:49:32Z</time>
      </trkpt>
      <trkpt lat="47.8165" lon="7.18387">
        <ele>289</ele>
        <time>2020-09-03T00:49:36Z</time>
      </trkpt>
      <trkpt lat="47.81656" lon="7.18455">
        <ele>288</ele>
        <time>2020-09-03T00:49:44Z</time>
      </trkpt>
      <trkpt lat="47.81721" lon="7.18442">
        <ele>289</ele>
        <time>2020-09-03T00:49:56Z</time>
      </trkpt>
      <trkpt lat="47.81782" lon="7.18457">
        <ele>291</ele>
        <time>2020-09-03T00:50:07Z</time>
      </trkpt>
      <trkpt lat="47.81895" lon="7.18491">
        <ele>293</ele>
        <time>2020-09-03T00:50:27Z</time>
      </trkpt>
      <trkpt lat="47.81908" lon="7.18509">
        <ele>293</ele>
        <time>2020-09-03T00:50:30Z</time>
      </trkpt>
      <trkpt lat="47.8193" lon="7.18533">
        <ele>292</ele>
        <time>2020-09-03T00:50:35Z</time>
      </trkpt>
      <trkpt lat="47.82176" lon="7.18729">
        <ele>291</ele>
        <time>2020-09-03T00:51:25Z</time>
      </trkpt>
      <trkpt lat="47.8223" lon="7.18818">
        <ele>289</ele>
        <time>2020-09-03T00:51:39Z</time>
      </trkpt>
      <trkpt lat="47.82259" lon="7.18861">
        <ele>289</ele>
        <time>2020-09-03T00:51:46Z</time>
      </trkpt>
      <trkpt lat="47.8234" lon="7.18959">
        <ele>290</ele>
        <time>2020-09-03T00:52:05Z</time>
      </trkpt>
      <trkpt lat="47.82375" lon="7.18993">
        <ele>290</ele>
        <time>2020-09-03T00:52:12Z</time>
      </trkpt>
      <trkpt lat="47.82418" lon="7.19017">
        <ele>290</ele>
        <time>2020-09-03T00:52:20Z</time>
      </trkpt>
      <trkpt lat="47.82536" lon="7.1913">
        <ele>291</ele>
        <time>2020-09-03T00:52:45Z</time>
      </trkpt>
      <trkpt lat="47.82625" lon="7.192">
        <ele>290</ele>
        <time>2020-09-03T00:53:03Z</time>
      </trkpt>
      <trkpt lat="47.82657" lon="7.19234">
        <ele>290</ele>
        <time>2020-09-03T00:53:10Z</time>
      </trkpt>
      <trkpt lat="47.82679" lon="7.19286">
        <ele>290</ele>
        <time>2020-09-03T00:53:18Z</time>
      </trkpt>
      <trkpt lat="47.82734" lon="7.19398">
        <ele>288</ele>
        <time>2020-09-03T00:53:34Z</time>
      </trkpt>
      <trkpt lat="47.82837" lon="7.19531">
        <ele>288</ele>
        <time>2020-09-03T00:53:58Z</time>
      </trkpt>
      <trkpt lat="47.82885" lon="7.1964">
        <ele>286</ele>
        <time>2020-09-03T00:54:14Z</time>
      </trkpt>
      <trkpt lat="47.82964" lon="7.19806">
        <ele>284</ele>
        <time>2020-09-03T00:54:38Z</time>
      </trkpt>
      <trkpt lat="47.82984" lon="7.19836">
        <ele>285</ele>
        <time>2020-09-03T00:54:43Z</time>
      </trkpt>
      <trkpt lat="47.83082" lon="7.20016">
        <ele>282</ele>
        <time>2020-09-03T00:55:11Z</time>
      </trkpt>
      <trkpt lat="47.83092" lon="7.20025">
        <ele>282</ele>
        <time>2020-09-03T00:55:13Z</time>
      </trkpt>
      <trkpt lat="47.83136" lon="7.2015">
        <ele>281</ele>
        <time>2020-09-03T00:55:30Z</time>
      </trkpt>
      <trkpt lat="47.8314" lon="7.20192">
        <ele>280</ele>
        <time>2020-09-03T00:55:35Z</time>
      </trkpt>
      <trkpt lat="47.8314" lon="7.20234">
        <ele>279</ele>
        <time>2020-09-03T00:55:40Z</time>
      </trkpt>
      <trkpt lat="47.8313" lon="7.20266">
        <ele>277</ele>
        <time>2020-09-03T00:55:44Z</time>
      </trkpt>
      <trkpt lat="47.83087" lon="7.20305">
        <ele>275</ele>
        <time>2020-09-03T00:55:53Z</time>
      </trkpt>
      <trkpt lat="47.82953" lon="7.20475">
        <ele>272</ele>
        <time>2020-09-03T00:56:25Z</time>
      </trkpt>
      <trkpt lat="47.82653" lon="7.20801">
        <ele>271</ele>
        <time>2020-09-03T00:57:31Z</time>
      </trkpt>
      <trkpt lat="47.82824" lon="7.21166">
        <ele>267</ele>
        <time>2020-09-03T00:58:24Z</time>
      </trkpt>
      <trkpt lat="47.8326" lon="7.21647">
        <ele>262</ele>
        <time>2020-09-03T01:00:00Z</time>
      </trkpt>
      <trkpt lat="47.83429" lon="7.21828">
        <ele>263</ele>
        <time>2020-09-03T01:00:37Z</time>
      </trkpt>
      <trkpt lat="47.83536" lon="7.22002">
        <ele>258</ele>
        <time>2020-09-03T01:01:06Z</time>
      </trkpt>
      <trkpt lat="47.8354" lon="7.22022">
        <ele>257</ele>
        <time>2020-09-03T01:01:08Z</time>
      </trkpt>
      <trkpt lat="47.83699" lon="7.21723">
        <ele>257</ele>
        <time>2020-09-03T01:01:54Z</time>
      </trkpt>
      <trkpt lat="47.83765" lon="7.21587">
        <ele>258</ele>
        <time>2020-09-03T01:02:14Z</time>
      </trkpt>
      <trkpt lat="47.83835" lon="7.21465">
        <ele>259</ele>
        <time>2020-09-03T01:02:33Z</time>
      </trkpt>
      <trkpt lat="47.84037" lon="7.21729">
        <ele>255</ele>
        <time>2020-09-03T01:03:21Z</time>
      </trkpt>
      <trkpt lat="47.84155" lon="7.21863">
        <ele>253</ele>
        <time>2020-09-03T01:03:47Z</time>
      </trkpt>
      <trkpt lat="47.84195" lon="7.21928">
        <ele>252</ele>
        <time>2020-09-03T01:03:58Z</time>
      </trkpt>
      <trkpt lat="47.84237" lon="7.21979">
        <ele>252</ele>
        <time>2020-09-03T01:04:07Z</time>
      </trkpt>
      <trkpt lat="47.84296" lon="7.22008">
        <ele>252</ele>
        <time>2020-09-03T01:04:18Z</time>
      </trkpt>
      <trkpt lat="47.84317" lon="7.22008">
        <ele>252</ele>
        <time>2020-09-03T01:04:22Z</time>
      </trkpt>
      <trkpt lat="47.84323" lon="7.22016">
        <ele>252</ele>
        <time>2020-09-03T01:04:23Z</time>
      </trkpt>
      <trkpt lat="47.84327" lon="7.22032">
        <ele>252</ele>
        <time>2020-09-03T01:04:26Z</time>
      </trkpt>
      <trkpt lat="47.8435" lon="7.22023">
        <ele>252</ele>
        <time>2020-09-03T01:04:30Z</time>
      </trkpt>
      <trkpt lat="47.84414" lon="7.22018">
        <ele>252</ele>
        <time>2020-09-03T01:04:41Z</time>
      </trkpt>
      <trkpt lat="47.84454" lon="7.22023">
        <ele>252</ele>
        <time>2020-09-03T01:04:48Z</time>
      </trkpt>
      <trkpt lat="47.84539" lon="7.22063">
        <ele>253</ele>
        <time>2020-09-03T01:05:04Z</time>
      </trkpt>
      <trkpt lat="47.84698" lon="7.22147">
        <ele>252</ele>
        <time>2020-09-03T01:05:34Z</time>
      </trkpt>
      <trkpt lat="47.84734" lon="7.22159">
        <ele>253</ele>
        <time>2020-09-03T01:05:41Z</time>
      </trkpt>
      <trkpt lat="47.84763" lon="7.22081">
        <ele>254</ele>
        <time>2020-09-03T01:05:51Z</time>
      </trkpt>
      <trkpt lat="47.84791" lon="7.22022">
        <ele>255</ele>
        <time>2020-09-03T01:06:00Z</time>
      </trkpt>
      <trkpt lat="47.84811" lon="7.22008">
        <ele>256</ele>
        <time>2020-09-03T01:06:04Z</time>
      </trkpt>
      <trkpt lat="47.8484" lon="7.22003">
        <ele>257</ele>
        <time>2020-09-03T01:06:09Z</time>
      </trkpt>
      <trkpt lat="47.8491" lon="7.22041">
        <ele>257</ele>
        <time>2020-09-03T01:06:22Z</time>
      </trkpt>
      <trkpt lat="47.84919" lon="7.22041">
        <ele>257</ele>
        <time>2020-09-03T01:06:24Z</time>
      </trkpt>
      <trkpt lat="47.84928" lon="7.22033">
        <ele>258</ele>
        <time>2020-09-03T01:06:26Z</time>
      </trkpt>
      <trkpt lat="47.84972" lon="7.21965">
        <ele>260</ele>
        <time>2020-09-03T01:06:37Z</time>
      </trkpt>
      <trkpt lat="47.84996" lon="7.21919">
        <ele>260</ele>
        <time>2020-09-03T01:06:44Z</time>
      </trkpt>
      <trkpt lat="47.85015" lon="7.21917">
        <ele>259</ele>
        <time>2020-09-03T01:06:47Z</time>
      </trkpt>
      <trkpt lat="47.85048" lon="7.21936">
        <ele>258</ele>
        <time>2020-09-03T01:06:54Z</time>
      </trkpt>
      <trkpt lat="47.85069" lon="7.21911">
        <ele>258</ele>
        <time>2020-09-03T01:06:59Z</time>
      </trkpt>
      <trkpt lat="47.85113" lon="7.21835">
        <ele>257</ele>
        <time>2020-09-03T01:07:11Z</time>
      </trkpt>
      <trkpt lat="47.85194" lon="7.2194">
        <ele>254</ele>
        <time>2020-09-03T01:07:30Z</time>
      </trkpt>
      <trkpt lat="47.85249" lon="7.22032">
        <ele>252</ele>
        <time>2020-09-03T01:07:44Z</time>
      </trkpt>
      <trkpt lat="47.85274" lon="7.22066">
        <ele>251</ele>
        <time>2020-09-03T01:07:50Z</time>
      </trkpt>
      <trkpt lat="47.85334" lon="7.22129">
        <ele>253</ele>
        <time>2020-09-03T01:08:03Z</time>
      </trkpt>
      <trkpt lat="47.85374" lon="7.22167">
        <ele>254</ele>
        <time>2020-09-03T01:08:12Z</time>
      </trkpt>
      <trkpt lat="47.85395" lon="7.22177">
        <ele>255</ele>
        <time>2020-09-03T01:08:16Z</time>
      </trkpt>
      <trkpt lat="47.85416" lon="7.22175">
        <ele>255</ele>
        <time>2020-09-03T01:08:20Z</time>
      </trkpt>
      <trkpt lat="47.85441" lon="7.22157">
        <ele>255</ele>
        <time>2020-09-03T01:08:24Z</time>
      </trkpt>
      <trkpt lat="47.85461" lon="7.22124">
        <ele>256</ele>
        <time>2020-09-03T01:08:30Z</time>
      </trkpt>
      <trkpt lat="47.85548" lon="7.21946">
        <ele>256</ele>
        <time>2020-09-03T01:08:56Z</time>
      </trkpt>
      <trkpt lat="47.85557" lon="7.21937">
        <ele>256</ele>
        <time>2020-09-03T01:08:58Z</time>
      </trkpt>
      <trkpt lat="47.85569" lon="7.21936">
        <ele>257</ele>
        <time>2020-09-03T01:09:00Z</time>
      </trkpt>
      <trkpt lat="47.85623" lon="7.21971">
        <ele>260</ele>
        <time>2020-09-03T01:09:11Z</time>
      </trkpt>
      <trkpt lat="47.85637" lon="7.21975">
        <ele>260</ele>
        <time>2020-09-03T01:09:13Z</time>
      </trkpt>
      <trkpt lat="47.85648" lon="7.21971">
        <ele>261</ele>
        <time>2020-09-03T01:09:15Z</time>
      </trkpt>
      <trkpt lat="47.85657" lon="7.21958">
        <ele>261</ele>
        <time>2020-09-03T01:09:17Z</time>
      </trkpt>
      <trkpt lat="47.85675" lon="7.2185">
        <ele>261</ele>
        <time>2020-09-03T01:09:31Z</time>
      </trkpt>
      <trkpt lat="47.85715" lon="7.21656">
        <ele>266</ele>
        <time>2020-09-03T01:09:55Z</time>
      </trkpt>
      <trkpt lat="47.85729" lon="7.21653">
        <ele>265</ele>
        <time>2020-09-03T01:09:57Z</time>
      </trkpt>
      <trkpt lat="47.85831" lon="7.2165">
        <ele>266</ele>
        <time>2020-09-03T01:10:16Z</time>
      </trkpt>
      <trkpt lat="47.85915" lon="7.21633">
        <ele>263</ele>
        <time>2020-09-03T01:10:31Z</time>
      </trkpt>
      <trkpt lat="47.85985" lon="7.2164">
        <ele>258</ele>
        <time>2020-09-03T01:10:43Z</time>
      </trkpt>
      <trkpt lat="47.86027" lon="7.2165">
        <ele>256</ele>
        <time>2020-09-03T01:10:51Z</time>
      </trkpt>
      <trkpt lat="47.86046" lon="7.21662">
        <ele>255</ele>
        <time>2020-09-03T01:10:54Z</time>
      </trkpt>
      <trkpt lat="47.86054" lon="7.21675">
        <ele>255</ele>
        <time>2020-09-03T01:10:57Z</time>
      </trkpt>
      <trkpt lat="47.86064" lon="7.2167">
        <ele>254</ele>
        <time>2020-09-03T01:10:58Z</time>
      </trkpt>
      <trkpt lat="47.86111" lon="7.21676">
        <ele>253</ele>
        <time>2020-09-03T01:11:07Z</time>
      </trkpt>
      <trkpt lat="47.86144" lon="7.21684">
        <ele>253</ele>
        <time>2020-09-03T01:11:13Z</time>
      </trkpt>
      <trkpt lat="47.86157" lon="7.21693">
        <ele>253</ele>
        <time>2020-09-03T01:11:15Z</time>
      </trkpt>
      <trkpt lat="47.86193" lon="7.21729">
        <ele>252</ele>
        <time>2020-09-03T01:11:23Z</time>
      </trkpt>
      <trkpt lat="47.86197" lon="7.2173">
        <ele>252</ele>
        <time>2020-09-03T01:11:24Z</time>
      </trkpt>
      <trkpt lat="47.86202" lon="7.21727">
        <ele>252</ele>
        <time>2020-09-03T01:11:25Z</time>
      </trkpt>
      <trkpt lat="47.86214" lon="7.21699">
        <ele>252</ele>
        <time>2020-09-03T01:11:29Z</time>
      </trkpt>
      <trkpt lat="47.86226" lon="7.21662">
        <ele>252</ele>
        <time>2020-09-03T01:11:34Z</time>
      </trkpt>
      <trkpt lat="47.86232" lon="7.21651">
        <ele>253</ele>
        <time>2020-09-03T01:11:35Z</time>
      </trkpt>
      <trkpt lat="47.86256" lon="7.21628">
        <ele>253</ele>
        <time>2020-09-03T01:11:40Z</time>
      </trkpt>
      <trkpt lat="47.86268" lon="7.21571">
        <ele>253</ele>
        <time>2020-09-03T01:11:47Z</time>
      </trkpt>
      <trkpt lat="47.86276" lon="7.21568">
        <ele>253</ele>
        <time>2020-09-03T01:11:49Z</time>
      </trkpt>
      <trkpt lat="47.86333" lon="7.21576">
        <ele>251</ele>
        <time>2020-09-03T01:11:59Z</time>
      </trkpt>
      <trkpt lat="47.86349" lon="7.21572">
        <ele>251</ele>
        <time>2020-09-03T01:12:02Z</time>
      </trkpt>
      <trkpt lat="47.86353" lon="7.21566">
        <ele>251</ele>
        <time>2020-09-03T01:12:03Z</time>
      </trkpt>
      <trkpt lat="47.86359" lon="7.21571">
        <ele>251</ele>
        <time>2020-09-03T01:12:04Z</time>
      </trkpt>
      <trkpt lat="47.86426" lon="7.21578">
        <ele>250</ele>
        <time>2020-09-03T01:12:16Z</time>
      </trkpt>
      <trkpt lat="47.86697" lon="7.21601">
        <ele>255</ele>
        <time>2020-09-03T01:13:04Z</time>
      </trkpt>
      <trkpt lat="47.86842" lon="7.21606">
        <ele>262</ele>
        <time>2020-09-03T01:13:30Z</time>
      </trkpt>
      <trkpt lat="47.86861" lon="7.21614">
        <ele>263</ele>
        <time>2020-09-03T01:13:34Z</time>
      </trkpt>
      <trkpt lat="47.86889" lon="7.21634">
        <ele>266</ele>
        <time>2020-09-03T01:13:39Z</time>
      </trkpt>
      <trkpt lat="47.86914" lon="7.21666">
        <ele>268</ele>
        <time>2020-09-03T01:13:45Z</time>
      </trkpt>
      <trkpt lat="47.86947" lon="7.21696">
        <ele>270</ele>
        <time>2020-09-03T01:13:52Z</time>
      </trkpt>
      <trkpt lat="47.87029" lon="7.21733">
        <ele>276</ele>
        <time>2020-09-03T01:14:07Z</time>
      </trkpt>
      <trkpt lat="47.87067" lon="7.21758">
        <ele>279</ele>
        <time>2020-09-03T01:14:15Z</time>
      </trkpt>
      <trkpt lat="47.87092" lon="7.21766">
        <ele>282</ele>
        <time>2020-09-03T01:14:19Z</time>
      </trkpt>
      <trkpt lat="47.87207" lon="7.21768">
        <ele>290</ele>
        <time>2020-09-03T01:14:40Z</time>
      </trkpt>
      <trkpt lat="47.87248" lon="7.21757">
        <ele>293</ele>
        <time>2020-09-03T01:14:47Z</time>
      </trkpt>
      <trkpt lat="47.87326" lon="7.21717">
        <ele>293</ele>
        <time>2020-09-03T01:15:02Z</time>
      </trkpt>
      <trkpt lat="47.87357" lon="7.2169">
        <ele>293</ele>
        <time>2020-09-03T01:15:08Z</time>
      </trkpt>
      <trkpt lat="47.87414" lon="7.21607">
        <ele>293</ele>
        <time>2020-09-03T01:15:22Z</time>
      </trkpt>
      <trkpt lat="47.8743" lon="7.21592">
        <ele>293</ele>
        <time>2020-09-03T01:15:26Z</time>
      </trkpt>
      <trkpt lat="47.8747" lon="7.21603">
        <ele>293</ele>
        <time>2020-09-03T01:15:33Z</time>
      </trkpt>
      <trkpt lat="47.87489" lon="7.21613">
        <ele>293</ele>
        <time>2020-09-03T01:15:37Z</time>
      </trkpt>
      <trkpt lat="47.875" lon="7.21598">
        <ele>293</ele>
        <time>2020-09-03T01:15:39Z</time>
      </trkpt>
      <trkpt lat="47.87506" lon="7.21582">
        <ele>294</ele>
        <time>2020-09-03T01:15:41Z</time>
      </trkpt>
      <trkpt lat="47.87506" lon="7.21567">
        <ele>294</ele>
        <time>2020-09-03T01:15:43Z</time>
      </trkpt>
      <trkpt lat="47.87511" lon="7.21568">
        <ele>294</ele>
        <time>2020-09-03T01:15:44Z</time>
      </trkpt>
      <trkpt lat="47.87519" lon="7.21553">
        <ele>294</ele>
        <time>2020-09-03T01:15:46Z</time>
      </trkpt>
      <trkpt lat="47.87586" lon="7.21553">
        <ele>293</ele>
        <time>2020-09-03T01:15:58Z</time>
      </trkpt>
      <trkpt lat="47.87617" lon="7.2154">
        <ele>293</ele>
        <time>2020-09-03T01:16:04Z</time>
      </trkpt>
      <trkpt lat="47.87658" lon="7.21506">
        <ele>293</ele>
        <time>2020-09-03T01:16:12Z</time>
      </trkpt>
      <trkpt lat="47.87692" lon="7.21495">
        <ele>292</ele>
        <time>2020-09-03T01:16:19Z</time>
      </trkpt>
      <trkpt lat="47.87735" lon="7.21499">
        <ele>291</ele>
        <time>2020-09-03T01:16:26Z</time>
      </trkpt>
      <trkpt lat="47.87842" lon="7.21499">
        <ele>290</ele>
        <time>2020-09-03T01:16:45Z</time>
      </trkpt>
      <trkpt lat="47.87866" lon="7.21497">
        <ele>290</ele>
        <time>2020-09-03T01:16:50Z</time>
      </trkpt>
      <trkpt lat="47.87974" lon="7.21456">
        <ele>290</ele>
        <time>2020-09-03T01:17:09Z</time>
      </trkpt>
      <trkpt lat="47.88018" lon="7.21436">
        <ele>290</ele>
        <time>2020-09-03T01:17:18Z</time>
      </trkpt>
      <trkpt lat="47.88084" lon="7.2187">
        <ele>284</ele>
        <time>2020-09-03T01:18:11Z</time>
      </trkpt>
      <trkpt lat="47.8817" lon="7.22292">
        <ele>278</ele>
        <time>2020-09-03T01:19:03Z</time>
      </trkpt>
      <trkpt lat="47.88175" lon="7.2229">
        <ele>278</ele>
        <time>2020-09-03T01:19:04Z</time>
      </trkpt>
      <trkpt lat="47.88182" lon="7.22337">
        <ele>278</ele>
        <time>2020-09-03T01:19:10Z</time>
      </trkpt>
      <trkpt lat="47.88219" lon="7.22491">
        <ele>277</ele>
        <time>2020-09-03T01:19:29Z</time>
      </trkpt>
      <trkpt lat="47.88235" lon="7.22497">
        <ele>277</ele>
        <time>2020-09-03T01:19:32Z</time>
      </trkpt>
      <trkpt lat="47.883" lon="7.22539">
        <ele>276</ele>
        <time>2020-09-03T01:19:45Z</time>
      </trkpt>
      <trkpt lat="47.88402" lon="7.22538">
        <ele>277</ele>
        <time>2020-09-03T01:20:03Z</time>
      </trkpt>
      <trkpt lat="47.88413" lon="7.22542">
        <ele>276</ele>
        <time>2020-09-03T01:20:05Z</time>
      </trkpt>
      <trkpt lat="47.88425" lon="7.22552">
        <ele>277</ele>
        <time>2020-09-03T01:20:08Z</time>
      </trkpt>
      <trkpt lat="47.88492" lon="7.22644">
        <ele>275</ele>
        <time>2020-09-03T01:20:24Z</time>
      </trkpt>
      <trkpt lat="47.88521" lon="7.22677">
        <ele>274</ele>
        <time>2020-09-03T01:20:30Z</time>
      </trkpt>
      <trkpt lat="47.88539" lon="7.22691">
        <ele>274</ele>
        <time>2020-09-03T01:20:34Z</time>
      </trkpt>
      <trkpt lat="47.88567" lon="7.22704">
        <ele>274</ele>
        <time>2020-09-03T01:20:39Z</time>
      </trkpt>
      <trkpt lat="47.88599" lon="7.22712">
        <ele>273</ele>
        <time>2020-09-03T01:20:45Z</time>
      </trkpt>
      <trkpt lat="47.88606" lon="7.2271">
        <ele>273</ele>
        <time>2020-09-03T01:20:46Z</time>
      </trkpt>
      <trkpt lat="47.88678" lon="7.22662">
        <ele>273</ele>
        <time>2020-09-03T01:21:00Z</time>
      </trkpt>
      <trkpt lat="47.88695" lon="7.22659">
        <ele>273</ele>
        <time>2020-09-03T01:21:03Z</time>
      </trkpt>
      <trkpt lat="47.88706" lon="7.22661">
        <ele>273</ele>
        <time>2020-09-03T01:21:05Z</time>
      </trkpt>
      <trkpt lat="47.88752" lon="7.2268">
        <ele>272</ele>
        <time>2020-09-03T01:21:14Z</time>
      </trkpt>
      <trkpt lat="47.88857" lon="7.22639">
        <ele>271</ele>
        <time>2020-09-03T01:21:33Z</time>
      </trkpt>
      <trkpt lat="47.88862" lon="7.22641">
        <ele>271</ele>
        <time>2020-09-03T01:21:34Z</time>
      </trkpt>
      <trkpt lat="47.88874" lon="7.227">
        <ele>271</ele>
        <time>2020-09-03T01:21:41Z</time>
      </trkpt>
      <trkpt lat="47.88882" lon="7.22725">
        <ele>271</ele>
        <time>2020-09-03T01:21:45Z</time>
      </trkpt>
      <trkpt lat="47.88935" lon="7.22673">
        <ele>270</ele>
        <time>2020-09-03T01:21:56Z</time>
      </trkpt>
      <trkpt lat="47.88948" lon="7.22657">
        <ele>270</ele>
        <time>2020-09-03T01:21:59Z</time>
      </trkpt>
      <trkpt lat="47.88969" lon="7.22639">
        <ele>269</ele>
        <time>2020-09-03T01:22:03Z</time>
      </trkpt>
      <trkpt lat="47.88989" lon="7.22627">
        <ele>269</ele>
        <time>2020-09-03T01:22:07Z</time>
      </trkpt>
      <trkpt lat="47.89039" lon="7.22608">
        <ele>270</ele>
        <time>2020-09-03T01:22:16Z</time>
      </trkpt>
      <trkpt lat="47.89065" lon="7.22601">
        <ele>270</ele>
        <time>2020-09-03T01:22:21Z</time>
      </trkpt>
      <trkpt lat="47.89149" lon="7.22591">
        <ele>268</ele>
        <time>2020-09-03T01:22:36Z</time>
      </trkpt>
      <trkpt lat="47.8917" lon="7.22592">
        <ele>268</ele>
        <time>2020-09-03T01:22:40Z</time>
      </trkpt>
      <trkpt lat="47.89232" lon="7.22603">
        <ele>267</ele>
        <time>2020-09-03T01:22:51Z</time>
      </trkpt>
      <trkpt lat="47.89266" lon="7.22595">
        <ele>267</ele>
        <time>2020-09-03T01:22:57Z</time>
      </trkpt>
      <trkpt lat="47.893" lon="7.22579">
        <ele>268</ele>
        <time>2020-09-03T01:23:03Z</time>
      </trkpt>
      <trkpt lat="47.89333" lon="7.22558">
        <ele>268</ele>
        <time>2020-09-03T01:23:10Z</time>
      </trkpt>
      <trkpt lat="47.89375" lon="7.22524">
        <ele>268</ele>
        <time>2020-09-03T01:23:18Z</time>
      </trkpt>
      <trkpt lat="47.89692" lon="7.22247">
        <ele>272</ele>
        <time>2020-09-03T01:24:24Z</time>
      </trkpt>
      <trkpt lat="47.89903" lon="7.22066">
        <ele>277</ele>
        <time>2020-09-03T01:25:07Z</time>
      </trkpt>
      <trkpt lat="47.89912" lon="7.22056">
        <ele>278</ele>
        <time>2020-09-03T01:25:09Z</time>
      </trkpt>
      <trkpt lat="47.89936" lon="7.22014">
        <ele>277</ele>
        <time>2020-09-03T01:25:15Z</time>
      </trkpt>
      <trkpt lat="47.89942" lon="7.21997">
        <ele>277</ele>
        <time>2020-09-03T01:25:18Z</time>
      </trkpt>
      <trkpt lat="47.89959" lon="7.22004">
        <ele>278</ele>
        <time>2020-09-03T01:25:21Z</time>
      </trkpt>
      <trkpt lat="47.89972" lon="7.22005">
        <ele>278</ele>
        <time>2020-09-03T01:25:23Z</time>
      </trkpt>
      <trkpt lat="47.90137" lon="7.21862">
        <ele>282</ele>
        <time>2020-09-03T01:25:57Z</time>
      </trkpt>
      <trkpt lat="47.90192" lon="7.21817">
        <ele>284</ele>
        <time>2020-09-03T01:26:08Z</time>
      </trkpt>
      <trkpt lat="47.90307" lon="7.21765">
        <ele>283</ele>
        <time>2020-09-03T01:26:30Z</time>
      </trkpt>
      <trkpt lat="47.90323" lon="7.21863">
        <ele>282</ele>
        <time>2020-09-03T01:26:42Z</time>
      </trkpt>
      <trkpt lat="47.90279" lon="7.21955">
        <ele>282</ele>
        <time>2020-09-03T01:26:55Z</time>
      </trkpt>
      <trkpt lat="47.90249" lon="7.22002">
        <ele>280</ele>
        <time>2020-09-03T01:27:03Z</time>
      </trkpt>
      <trkpt lat="47.9023" lon="7.22037">
        <ele>279</ele>
        <time>2020-09-03T01:27:08Z</time>
      </trkpt>
      <trkpt lat="47.90209" lon="7.22093">
        <ele>278</ele>
        <time>2020-09-03T01:27:16Z</time>
      </trkpt>
      <trkpt lat="47.902" lon="7.22127">
        <ele>278</ele>
        <time>2020-09-03T01:27:20Z</time>
      </trkpt>
      <trkpt lat="47.90183" lon="7.22239">
        <ele>277</ele>
        <time>2020-09-03T01:27:34Z</time>
      </trkpt>
      <trkpt lat="47.90187" lon="7.2224">
        <ele>277</ele>
        <time>2020-09-03T01:27:35Z</time>
      </trkpt>
      <trkpt lat="47.9019" lon="7.22249">
        <ele>277</ele>
        <time>2020-09-03T01:27:36Z</time>
      </trkpt>
      <trkpt lat="47.90189" lon="7.22255">
        <ele>277</ele>
        <time>2020-09-03T01:27:37Z</time>
      </trkpt>
      <trkpt lat="47.90183" lon="7.22259">
        <ele>277</ele>
        <time>2020-09-03T01:27:38Z</time>
      </trkpt>
      <trkpt lat="47.90185" lon="7.22273">
        <ele>277</ele>
        <time>2020-09-03T01:27:40Z</time>
      </trkpt>
      <trkpt lat="47.90191" lon="7.22288">
        <ele>277</ele>
        <time>2020-09-03T01:27:42Z</time>
      </trkpt>
      <trkpt lat="47.9019" lon="7.22294">
        <ele>277</ele>
        <time>2020-09-03T01:27:42Z</time>
      </trkpt>
      <trkpt lat="47.90184" lon="7.22301">
        <ele>277</ele>
        <time>2020-09-03T01:27:44Z</time>
      </trkpt>
      <trkpt lat="47.9019" lon="7.22315">
        <ele>277</ele>
        <time>2020-09-03T01:27:46Z</time>
      </trkpt>
      <trkpt lat="47.90139" lon="7.22377">
        <ele>274</ele>
        <time>2020-09-03T01:27:57Z</time>
      </trkpt>
      <trkpt lat="47.90088" lon="7.22517">
        <ele>271</ele>
        <time>2020-09-03T01:28:16Z</time>
      </trkpt>
      <trkpt lat="47.90066" lon="7.22605">
        <ele>271</ele>
        <time>2020-09-03T01:28:28Z</time>
      </trkpt>
      <trkpt lat="47.90113" lon="7.22621">
        <ele>272</ele>
        <time>2020-09-03T01:28:36Z</time>
      </trkpt>
      <trkpt lat="47.90084" lon="7.22795">
        <ele>272</ele>
        <time>2020-09-03T01:28:58Z</time>
      </trkpt>
      <trkpt lat="47.90071" lon="7.2285">
        <ele>270</ele>
        <time>2020-09-03T01:29:05Z</time>
      </trkpt>
      <trkpt lat="47.90036" lon="7.22934">
        <ele>270</ele>
        <time>2020-09-03T01:29:16Z</time>
      </trkpt>
      <trkpt lat="47.9001" lon="7.2301">
        <ele>270</ele>
        <time>2020-09-03T01:29:26Z</time>
      </trkpt>
      <trkpt lat="47.90004" lon="7.23045">
        <ele>270</ele>
        <time>2020-09-03T01:29:31Z</time>
      </trkpt>
      <trkpt lat="47.9" lon="7.2311">
        <ele>269</ele>
        <time>2020-09-03T01:29:39Z</time>
      </trkpt>
      <trkpt lat="47.89989" lon="7.23112">
        <ele>269</ele>
        <time>2020-09-03T01:29:41Z</time>
      </trkpt>
      <trkpt lat="47.89981" lon="7.23107">
        <ele>269</ele>
        <time>2020-09-03T01:29:42Z</time>
      </trkpt>
      <trkpt lat="47.89971" lon="7.23091">
        <ele>269</ele>
        <time>2020-09-03T01:29:45Z</time>
      </trkpt>
      <trkpt lat="47.89957" lon="7.23094">
        <ele>269</ele>
        <time>2020-09-03T01:29:47Z</time>
      </trkpt>
      <trkpt lat="47.89936" lon="7.23157">
        <ele>267</ele>
        <time>2020-09-03T01:29:56Z</time>
      </trkpt>
      <trkpt lat="47.899" lon="7.2325">
        <ele>268</ele>
        <time>2020-09-03T01:30:08Z</time>
      </trkpt>
      <trkpt lat="47.89897" lon="7.23278">
        <ele>268</ele>
        <time>2020-09-03T01:30:12Z</time>
      </trkpt>
      <trkpt lat="47.89958" lon="7.23312">
        <ele>268</ele>
        <time>2020-09-03T01:30:23Z</time>
      </trkpt>
      <trkpt lat="47.89972" lon="7.23343">
        <ele>267</ele>
        <time>2020-09-03T01:30:28Z</time>
      </trkpt>
      <trkpt lat="47.89989" lon="7.23446">
        <ele>268</ele>
        <time>2020-09-03T01:30:40Z</time>
      </trkpt>
      <trkpt lat="47.89991" lon="7.23478">
        <ele>268</ele>
        <time>2020-09-03T01:30:44Z</time>
      </trkpt>
      <trkpt lat="47.89985" lon="7.23505">
        <ele>268</ele>
        <time>2020-09-03T01:30:48Z</time>
      </trkpt>
      <trkpt lat="47.89992" lon="7.23543">
        <ele>268</ele>
        <time>2020-09-03T01:30:52Z</time>
      </trkpt>
      <trkpt lat="47.89999" lon="7.23619">
        <ele>267</ele>
        <time>2020-09-03T01:31:02Z</time>
      </trkpt>
      <trkpt lat="47.90013" lon="7.23695">
        <ele>267</ele>
        <time>2020-09-03T01:31:11Z</time>
      </trkpt>
      <trkpt lat="47.90028" lon="7.2369">
        <ele>266</ele>
        <time>2020-09-03T01:31:14Z</time>
      </trkpt>
      <trkpt lat="47.90057" lon="7.23667">
        <ele>266</ele>
        <time>2020-09-03T01:31:20Z</time>
      </trkpt>
      <trkpt lat="47.90127" lon="7.23687">
        <ele>263</ele>
        <time>2020-09-03T01:31:32Z</time>
      </trkpt>
      <trkpt lat="47.90136" lon="7.23694">
        <ele>263</ele>
        <time>2020-09-03T01:31:34Z</time>
      </trkpt>
      <trkpt lat="47.90159" lon="7.23697">
        <ele>262</ele>
        <time>2020-09-03T01:31:38Z</time>
      </trkpt>
      <trkpt lat="47.90164" lon="7.23704">
        <ele>262</ele>
        <time>2020-09-03T01:31:39Z</time>
      </trkpt>
      <trkpt lat="47.90197" lon="7.23701">
        <ele>262</ele>
        <time>2020-09-03T01:31:45Z</time>
      </trkpt>
      <trkpt lat="47.90215" lon="7.23857">
        <ele>260</ele>
        <time>2020-09-03T01:32:04Z</time>
      </trkpt>
      <trkpt lat="47.90217" lon="7.2396">
        <ele>260</ele>
        <time>2020-09-03T01:32:16Z</time>
      </trkpt>
      <trkpt lat="47.90214" lon="7.24034">
        <ele>260</ele>
        <time>2020-09-03T01:32:25Z</time>
      </trkpt>
      <trkpt lat="47.90204" lon="7.24163">
        <ele>259</ele>
        <time>2020-09-03T01:32:41Z</time>
      </trkpt>
      <trkpt lat="47.90206" lon="7.24208">
        <ele>259</ele>
        <time>2020-09-03T01:32:46Z</time>
      </trkpt>
      <trkpt lat="47.9021" lon="7.24225">
        <ele>259</ele>
        <time>2020-09-03T01:32:48Z</time>
      </trkpt>
      <trkpt lat="47.90205" lon="7.24231">
        <ele>259</ele>
        <time>2020-09-03T01:32:49Z</time>
      </trkpt>
      <trkpt lat="47.90198" lon="7.24273">
        <ele>258</ele>
        <time>2020-09-03T01:32:55Z</time>
      </trkpt>
      <trkpt lat="47.90196" lon="7.24302">
        <ele>258</ele>
        <time>2020-09-03T01:32:58Z</time>
      </trkpt>
      <trkpt lat="47.90206" lon="7.24496">
        <ele>255</ele>
        <time>2020-09-03T01:33:21Z</time>
      </trkpt>
      <trkpt lat="47.90216" lon="7.24584">
        <ele>254</ele>
        <time>2020-09-03T01:33:32Z</time>
      </trkpt>
      <trkpt lat="47.90221" lon="7.24591">
        <ele>254</ele>
        <time>2020-09-03T01:33:33Z</time>
      </trkpt>
      <trkpt lat="47.90222" lon="7.24597">
        <ele>254</ele>
        <time>2020-09-03T01:33:34Z</time>
      </trkpt>
      <trkpt lat="47.90219" lon="7.2461">
        <ele>253</ele>
        <time>2020-09-03T01:33:36Z</time>
      </trkpt>
      <trkpt lat="47.90216" lon="7.24669">
        <ele>253</ele>
        <time>2020-09-03T01:33:43Z</time>
      </trkpt>
      <trkpt lat="47.90233" lon="7.24936">
        <ele>253</ele>
        <time>2020-09-03T01:34:15Z</time>
      </trkpt>
      <trkpt lat="47.90231" lon="7.25009">
        <ele>252</ele>
        <time>2020-09-03T01:34:23Z</time>
      </trkpt>
      <trkpt lat="47.90314" lon="7.25008">
        <ele>249</ele>
        <time>2020-09-03T01:34:38Z</time>
      </trkpt>
      <trkpt lat="47.90359" lon="7.25024">
        <ele>249</ele>
        <time>2020-09-03T01:34:46Z</time>
      </trkpt>
      <trkpt lat="47.90383" lon="7.25027">
        <ele>250</ele>
        <time>2020-09-03T01:34:51Z</time>
      </trkpt>
      <trkpt lat="47.90398" lon="7.24984">
        <ele>251</ele>
        <time>2020-09-03T01:34:56Z</time>
      </trkpt>
      <trkpt lat="47.90404" lon="7.24978">
        <ele>251</ele>
        <time>2020-09-03T01:34:58Z</time>
      </trkpt>
      <trkpt lat="47.90412" lon="7.24973">
        <ele>251</ele>
        <time>2020-09-03T01:34:59Z</time>
      </trkpt>
      <trkpt lat="47.90445" lon="7.2497">
        <ele>251</ele>
        <time>2020-09-03T01:35:05Z</time>
      </trkpt>
      <trkpt lat="47.9049" lon="7.24948">
        <ele>251</ele>
        <time>2020-09-03T01:35:13Z</time>
      </trkpt>
      <trkpt lat="47.90509" lon="7.24942">
        <ele>251</ele>
        <time>2020-09-03T01:35:17Z</time>
      </trkpt>
      <trkpt lat="47.90553" lon="7.24938">
        <ele>252</ele>
        <time>2020-09-03T01:35:25Z</time>
      </trkpt>
      <trkpt lat="47.90584" lon="7.24949">
        <ele>253</ele>
        <time>2020-09-03T01:35:30Z</time>
      </trkpt>
      <trkpt lat="47.90606" lon="7.24948">
        <ele>252</ele>
        <time>2020-09-03T01:35:34Z</time>
      </trkpt>
      <trkpt lat="47.90733" lon="7.24909">
        <ele>251</ele>
        <time>2020-09-03T01:35:57Z</time>
      </trkpt>
      <trkpt lat="47.90741" lon="7.24915">
        <ele>251</ele>
        <time>2020-09-03T01:35:59Z</time>
      </trkpt>
      <trkpt lat="47.9084" lon="7.24895">
        <ele>248</ele>
        <time>2020-09-03T01:36:17Z</time>
      </trkpt>
      <trkpt lat="47.90997" lon="7.24843">
        <ele>247</ele>
        <time>2020-09-03T01:36:45Z</time>
      </trkpt>
      <trkpt lat="47.9112" lon="7.2479">
        <ele>248</ele>
        <time>2020-09-03T01:37:08Z</time>
      </trkpt>
      <trkpt lat="47.91225" lon="7.24735">
        <ele>249</ele>
        <time>2020-09-03T01:37:28Z</time>
      </trkpt>
      <trkpt lat="47.91323" lon="7.24679">
        <ele>249</ele>
        <time>2020-09-03T01:37:47Z</time>
      </trkpt>
      <trkpt lat="47.91351" lon="7.24657">
        <ele>249</ele>
        <time>2020-09-03T01:37:52Z</time>
      </trkpt>
      <trkpt lat="47.91372" lon="7.24636">
        <ele>248</ele>
        <time>2020-09-03T01:37:57Z</time>
      </trkpt>
      <trkpt lat="47.91404" lon="7.24592">
        <ele>248</ele>
        <time>2020-09-03T01:38:05Z</time>
      </trkpt>
      <trkpt lat="47.91461" lon="7.24658">
        <ele>247</ele>
        <time>2020-09-03T01:38:17Z</time>
      </trkpt>
      <trkpt lat="47.91536" lon="7.24707">
        <ele>245</ele>
        <time>2020-09-03T01:38:32Z</time>
      </trkpt>
      <trkpt lat="47.91555" lon="7.24722">
        <ele>245</ele>
        <time>2020-09-03T01:38:36Z</time>
      </trkpt>
      <trkpt lat="47.9163" lon="7.248">
        <ele>243</ele>
        <time>2020-09-03T01:38:52Z</time>
      </trkpt>
      <trkpt lat="47.91692" lon="7.24874">
        <ele>241</ele>
        <time>2020-09-03T01:39:06Z</time>
      </trkpt>
      <trkpt lat="47.91758" lon="7.24963">
        <ele>237</ele>
        <time>2020-09-03T01:39:22Z</time>
      </trkpt>
      <trkpt lat="47.918" lon="7.25004">
        <ele>237</ele>
        <time>2020-09-03T01:39:31Z</time>
      </trkpt>
      <trkpt lat="47.92011" lon="7.25146">
        <ele>233</ele>
        <time>2020-09-03T01:40:12Z</time>
      </trkpt>
      <trkpt lat="47.92012" lon="7.25121">
        <ele>234</ele>
        <time>2020-09-03T01:40:15Z</time>
      </trkpt>
      <trkpt lat="47.9201" lon="7.25099">
        <ele>235</ele>
        <time>2020-09-03T01:40:18Z</time>
      </trkpt>
      <trkpt lat="47.92013" lon="7.25072">
        <ele>235</ele>
        <time>2020-09-03T01:40:21Z</time>
      </trkpt>
      <trkpt lat="47.92029" lon="7.25047">
        <ele>236</ele>
        <time>2020-09-03T01:40:25Z</time>
      </trkpt>
      <trkpt lat="47.92052" lon="7.25036">
        <ele>236</ele>
        <time>2020-09-03T01:40:29Z</time>
      </trkpt>
      <trkpt lat="47.92143" lon="7.24978">
        <ele>235</ele>
        <time>2020-09-03T01:40:47Z</time>
      </trkpt>
      <trkpt lat="47.92177" lon="7.24951">
        <ele>234</ele>
        <time>2020-09-03T01:40:54Z</time>
      </trkpt>
      <trkpt lat="47.92204" lon="7.24921">
        <ele>234</ele>
        <time>2020-09-03T01:41:00Z</time>
      </trkpt>
      <trkpt lat="47.92248" lon="7.24857">
        <ele>234</ele>
        <time>2020-09-03T01:41:11Z</time>
      </trkpt>
      <trkpt lat="47.92291" lon="7.24766">
        <ele>234</ele>
        <time>2020-09-03T01:41:24Z</time>
      </trkpt>
      <trkpt lat="47.92298" lon="7.24754">
        <ele>234</ele>
        <time>2020-09-03T01:41:26Z</time>
      </trkpt>
      <trkpt lat="47.92306" lon="7.24748">
        <ele>234</ele>
        <time>2020-09-03T01:41:28Z</time>
      </trkpt>
      <trkpt lat="47.9232" lon="7.24743">
        <ele>233</ele>
        <time>2020-09-03T01:41:30Z</time>
      </trkpt>
      <trkpt lat="47.92407" lon="7.24747">
        <ele>233</ele>
        <time>2020-09-03T01:41:46Z</time>
      </trkpt>
      <trkpt lat="47.92451" lon="7.24745">
        <ele>233</ele>
        <time>2020-09-03T01:41:53Z</time>
      </trkpt>
      <trkpt lat="47.92528" lon="7.24733">
        <ele>236</ele>
        <time>2020-09-03T01:42:07Z</time>
      </trkpt>
      <trkpt lat="47.92574" lon="7.24758">
        <ele>238</ele>
        <time>2020-09-03T01:42:16Z</time>
      </trkpt>
      <trkpt lat="47.9258" lon="7.24756">
        <ele>239</ele>
        <time>2020-09-03T01:42:17Z</time>
      </trkpt>
      <trkpt lat="47.92598" lon="7.24737">
        <ele>240</ele>
        <time>2020-09-03T01:42:21Z</time>
      </trkpt>
      <trkpt lat="47.92619" lon="7.24707">
        <ele>241</ele>
        <time>2020-09-03T01:42:26Z</time>
      </trkpt>
      <trkpt lat="47.9265" lon="7.24687">
        <ele>244</ele>
        <time>2020-09-03T01:42:32Z</time>
      </trkpt>
      <trkpt lat="47.92665" lon="7.24682">
        <ele>245</ele>
        <time>2020-09-03T01:42:35Z</time>
      </trkpt>
      <trkpt lat="47.92701" lon="7.24692">
        <ele>246</ele>
        <time>2020-09-03T01:42:41Z</time>
      </trkpt>
      <trkpt lat="47.92714" lon="7.24692">
        <ele>247</ele>
        <time>2020-09-03T01:42:44Z</time>
      </trkpt>
      <trkpt lat="47.92732" lon="7.24686">
        <ele>247</ele>
        <time>2020-09-03T01:42:47Z</time>
      </trkpt>
      <trkpt lat="47.92826" lon="7.24637">
        <ele>251</ele>
        <time>2020-09-03T01:43:05Z</time>
      </trkpt>
      <trkpt lat="47.92846" lon="7.2461">
        <ele>252</ele>
        <time>2020-09-03T01:43:10Z</time>
      </trkpt>
      <trkpt lat="47.92866" lon="7.24549">
        <ele>253</ele>
        <time>2020-09-03T01:43:18Z</time>
      </trkpt>
      <trkpt lat="47.92871" lon="7.24509">
        <ele>253</ele>
        <time>2020-09-03T01:43:22Z</time>
      </trkpt>
      <trkpt lat="47.92881" lon="7.24334">
        <ele>250</ele>
        <time>2020-09-03T01:43:43Z</time>
      </trkpt>
      <trkpt lat="47.92894" lon="7.2428">
        <ele>249</ele>
        <time>2020-09-03T01:43:50Z</time>
      </trkpt>
      <trkpt lat="47.92905" lon="7.24257">
        <ele>249</ele>
        <time>2020-09-03T01:43:54Z</time>
      </trkpt>
      <trkpt lat="47.92923" lon="7.24226">
        <ele>248</ele>
        <time>2020-09-03T01:43:59Z</time>
      </trkpt>
      <trkpt lat="47.92942" lon="7.24207">
        <ele>248</ele>
        <time>2020-09-03T01:44:03Z</time>
      </trkpt>
      <trkpt lat="47.93098" lon="7.24163">
        <ele>250</ele>
        <time>2020-09-03T01:44:31Z</time>
      </trkpt>
      <trkpt lat="47.93168" lon="7.24152">
        <ele>250</ele>
        <time>2020-09-03T01:44:43Z</time>
      </trkpt>
      <trkpt lat="47.93188" lon="7.24144">
        <ele>250</ele>
        <time>2020-09-03T01:44:47Z</time>
      </trkpt>
      <trkpt lat="47.93217" lon="7.2412">
        <ele>249</ele>
        <time>2020-09-03T01:44:53Z</time>
      </trkpt>
      <trkpt lat="47.93236" lon="7.24098">
        <ele>248</ele>
        <time>2020-09-03T01:44:57Z</time>
      </trkpt>
      <trkpt lat="47.93278" lon="7.24036">
        <ele>246</ele>
        <time>2020-09-03T01:45:08Z</time>
      </trkpt>
      <trkpt lat="47.93313" lon="7.23989">
        <ele>245</ele>
        <time>2020-09-03T01:45:16Z</time>
      </trkpt>
      <trkpt lat="47.93322" lon="7.23981">
        <ele>245</ele>
        <time>2020-09-03T01:45:18Z</time>
      </trkpt>
      <trkpt lat="47.93326" lon="7.2397">
        <ele>245</ele>
        <time>2020-09-03T01:45:19Z</time>
      </trkpt>
      <trkpt lat="47.93332" lon="7.23898">
        <ele>245</ele>
        <time>2020-09-03T01:45:28Z</time>
      </trkpt>
      <trkpt lat="47.93337" lon="7.23774">
        <ele>249</ele>
        <time>2020-09-03T01:45:43Z</time>
      </trkpt>
      <trkpt lat="47.93345" lon="7.23734">
        <ele>251</ele>
        <time>2020-09-03T01:45:48Z</time>
      </trkpt>
      <trkpt lat="47.9335" lon="7.23722">
        <ele>252</ele>
        <time>2020-09-03T01:45:50Z</time>
      </trkpt>
      <trkpt lat="47.93358" lon="7.23723">
        <ele>252</ele>
        <time>2020-09-03T01:45:51Z</time>
      </trkpt>
      <trkpt lat="47.93409" lon="7.23706">
        <ele>252</ele>
        <time>2020-09-03T01:46:00Z</time>
      </trkpt>
      <trkpt lat="47.9343" lon="7.23696">
        <ele>252</ele>
        <time>2020-09-03T01:46:04Z</time>
      </trkpt>
      <trkpt lat="47.9346" lon="7.23698">
        <ele>252</ele>
        <time>2020-09-03T01:46:10Z</time>
      </trkpt>
      <trkpt lat="47.93548" lon="7.23671">
        <ele>251</ele>
        <time>2020-09-03T01:46:26Z</time>
      </trkpt>
      <trkpt lat="47.9357" lon="7.2367">
        <ele>250</ele>
        <time>2020-09-03T01:46:29Z</time>
      </trkpt>
      <trkpt lat="47.93602" lon="7.23674">
        <ele>250</ele>
        <time>2020-09-03T01:46:35Z</time>
      </trkpt>
      <trkpt lat="47.93613" lon="7.2368">
        <ele>250</ele>
        <time>2020-09-03T01:46:37Z</time>
      </trkpt>
      <trkpt lat="47.93625" lon="7.23681">
        <ele>250</ele>
        <time>2020-09-03T01:46:39Z</time>
      </trkpt>
      <trkpt lat="47.93723" lon="7.23643">
        <ele>252</ele>
        <time>2020-09-03T01:46:57Z</time>
      </trkpt>
      <trkpt lat="47.9374" lon="7.23572">
        <ele>253</ele>
        <time>2020-09-03T01:47:06Z</time>
      </trkpt>
      <trkpt lat="47.93764" lon="7.23539">
        <ele>253</ele>
        <time>2020-09-03T01:47:12Z</time>
      </trkpt>
      <trkpt lat="47.93767" lon="7.23517">
        <ele>254</ele>
        <time>2020-09-03T01:47:15Z</time>
      </trkpt>
      <trkpt lat="47.93762" lon="7.23469">
        <ele>255</ele>
        <time>2020-09-03T01:47:21Z</time>
      </trkpt>
      <trkpt lat="47.93774" lon="7.23464">
        <ele>255</ele>
        <time>2020-09-03T01:47:23Z</time>
      </trkpt>
      <trkpt lat="47.93784" lon="7.23455">
        <ele>255</ele>
        <time>2020-09-03T01:47:25Z</time>
      </trkpt>
      <trkpt lat="47.93771" lon="7.23334">
        <ele>256</ele>
        <time>2020-09-03T01:47:40Z</time>
      </trkpt>
      <trkpt lat="47.93764" lon="7.23241">
        <ele>259</ele>
        <time>2020-09-03T01:47:51Z</time>
      </trkpt>
      <trkpt lat="47.93777" lon="7.23244">
        <ele>259</ele>
        <time>2020-09-03T01:47:53Z</time>
      </trkpt>
      <trkpt lat="47.93775" lon="7.23215">
        <ele>260</ele>
        <time>2020-09-03T01:47:57Z</time>
      </trkpt>
      <trkpt lat="47.93799" lon="7.23197">
        <ele>261</ele>
        <time>2020-09-03T01:48:01Z</time>
      </trkpt>
      <trkpt lat="47.93818" lon="7.23204">
        <ele>262</ele>
        <time>2020-09-03T01:48:05Z</time>
      </trkpt>
      <trkpt lat="47.93926" lon="7.23269">
        <ele>262</ele>
        <time>2020-09-03T01:48:26Z</time>
      </trkpt>
      <trkpt lat="47.94005" lon="7.23326">
        <ele>266</ele>
        <time>2020-09-03T01:48:41Z</time>
      </trkpt>
      <trkpt lat="47.94057" lon="7.23373">
        <ele>268</ele>
        <time>2020-09-03T01:48:52Z</time>
      </trkpt>
      <trkpt lat="47.94068" lon="7.23374">
        <ele>269</ele>
        <time>2020-09-03T01:48:54Z</time>
      </trkpt>
      <trkpt lat="47.94083" lon="7.23367">
        <ele>271</ele>
        <time>2020-09-03T01:48:57Z</time>
      </trkpt>
      <trkpt lat="47.94108" lon="7.23376">
        <ele>273</ele>
        <time>2020-09-03T01:49:01Z</time>
      </trkpt>
      <trkpt lat="47.94116" lon="7.23376">
        <ele>274</ele>
        <time>2020-09-03T01:49:03Z</time>
      </trkpt>
      <trkpt lat="47.9414" lon="7.23386">
        <ele>276</ele>
        <time>2020-09-03T01:49:07Z</time>
      </trkpt>
      <trkpt lat="47.94178" lon="7.23417">
        <ele>278</ele>
        <time>2020-09-03T01:49:15Z</time>
      </trkpt>
      <trkpt lat="47.94251" lon="7.23468">
        <ele>281</ele>
        <time>2020-09-03T01:49:29Z</time>
      </trkpt>
      <trkpt lat="47.94277" lon="7.23477">
        <ele>283</ele>
        <time>2020-09-03T01:49:34Z</time>
      </trkpt>
      <trkpt lat="47.94301" lon="7.23492">
        <ele>284</ele>
        <time>2020-09-03T01:49:39Z</time>
      </trkpt>
      <trkpt lat="47.94325" lon="7.23509">
        <ele>285</ele>
        <time>2020-09-03T01:49:43Z</time>
      </trkpt>
      <trkpt lat="47.94341" lon="7.23525">
        <ele>286</ele>
        <time>2020-09-03T01:49:47Z</time>
      </trkpt>
      <trkpt lat="47.94396" lon="7.23599">
        <ele>289</ele>
        <time>2020-09-03T01:50:00Z</time>
      </trkpt>
      <trkpt lat="47.94461" lon="7.23678">
        <ele>292</ele>
        <time>2020-09-03T01:50:15Z</time>
      </trkpt>
      <trkpt lat="47.94472" lon="7.23683">
        <ele>293</ele>
        <time>2020-09-03T01:50:17Z</time>
      </trkpt>
      <trkpt lat="47.94482" lon="7.23684">
        <ele>293</ele>
        <time>2020-09-03T01:50:19Z</time>
      </trkpt>
      <trkpt lat="47.9451" lon="7.2368">
        <ele>296</ele>
        <time>2020-09-03T01:50:24Z</time>
      </trkpt>
      <trkpt lat="47.9453" lon="7.23697">
        <ele>297</ele>
        <time>2020-09-03T01:50:28Z</time>
      </trkpt>
      <trkpt lat="47.946" lon="7.23771">
        <ele>298</ele>
        <time>2020-09-03T01:50:43Z</time>
      </trkpt>
      <trkpt lat="47.94643" lon="7.23797">
        <ele>299</ele>
        <time>2020-09-03T01:50:51Z</time>
      </trkpt>
      <trkpt lat="47.94681" lon="7.23827">
        <ele>299</ele>
        <time>2020-09-03T01:50:59Z</time>
      </trkpt>
      <trkpt lat="47.94747" lon="7.23889">
        <ele>298</ele>
        <time>2020-09-03T01:51:13Z</time>
      </trkpt>
      <trkpt lat="47.948" lon="7.23915">
        <ele>300</ele>
        <time>2020-09-03T01:51:23Z</time>
      </trkpt>
      <trkpt lat="47.94841" lon="7.23928">
        <ele>302</ele>
        <time>2020-09-03T01:51:30Z</time>
      </trkpt>
      <trkpt lat="47.9487" lon="7.23952">
        <ele>301</ele>
        <time>2020-09-03T01:51:36Z</time>
      </trkpt>
      <trkpt lat="47.94909" lon="7.23965">
        <ele>301</ele>
        <time>2020-09-03T01:51:43Z</time>
      </trkpt>
      <trkpt lat="47.94974" lon="7.24002">
        <ele>297</ele>
        <time>2020-09-03T01:51:56Z</time>
      </trkpt>
      <trkpt lat="47.94993" lon="7.24007">
        <ele>296</ele>
        <time>2020-09-03T01:51:59Z</time>
      </trkpt>
      <trkpt lat="47.95043" lon="7.24003">
        <ele>292</ele>
        <time>2020-09-03T01:52:08Z</time>
      </trkpt>
      <trkpt lat="47.95093" lon="7.23964">
        <ele>292</ele>
        <time>2020-09-03T01:52:18Z</time>
      </trkpt>
      <trkpt lat="47.95111" lon="7.2396">
        <ele>291</ele>
        <time>2020-09-03T01:52:21Z</time>
      </trkpt>
      <trkpt lat="47.95121" lon="7.23963">
        <ele>290</ele>
        <time>2020-09-03T01:52:23Z</time>
      </trkpt>
      <trkpt lat="47.95159" lon="7.23954">
        <ele>289</ele>
        <time>2020-09-03T01:52:30Z</time>
      </trkpt>
      <trkpt lat="47.95189" lon="7.23934">
        <ele>289</ele>
        <time>2020-09-03T01:52:36Z</time>
      </trkpt>
      <trkpt lat="47.95213" lon="7.23926">
        <ele>288</ele>
        <time>2020-09-03T01:52:40Z</time>
      </trkpt>
      <trkpt lat="47.95237" lon="7.23902">
        <ele>289</ele>
        <time>2020-09-03T01:52:45Z</time>
      </trkpt>
      <trkpt lat="47.95283" lon="7.23874">
        <ele>290</ele>
        <time>2020-09-03T01:52:54Z</time>
      </trkpt>
      <trkpt lat="47.95308" lon="7.23869">
        <ele>289</ele>
        <time>2020-09-03T01:52:59Z</time>
      </trkpt>
      <trkpt lat="47.95339" lon="7.23874">
        <ele>286</ele>
        <time>2020-09-03T01:53:04Z</time>
      </trkpt>
      <trkpt lat="47.95376" lon="7.23891">
        <ele>282</ele>
        <time>2020-09-03T01:53:11Z</time>
      </trkpt>
      <trkpt lat="47.95431" lon="7.23898">
        <ele>279</ele>
        <time>2020-09-03T01:53:21Z</time>
      </trkpt>
      <trkpt lat="47.9551" lon="7.23893">
        <ele>277</ele>
        <time>2020-09-03T01:53:35Z</time>
      </trkpt>
      <trkpt lat="47.95551" lon="7.23886">
        <ele>277</ele>
        <time>2020-09-03T01:53:42Z</time>
      </trkpt>
      <trkpt lat="47.9556" lon="7.23891">
        <ele>276</ele>
        <time>2020-09-03T01:53:44Z</time>
      </trkpt>
      <trkpt lat="47.95531" lon="7.2399">
        <ele>268</ele>
        <time>2020-09-03T01:53:57Z</time>
      </trkpt>
      <trkpt lat="47.95528" lon="7.24021">
        <ele>266</ele>
        <time>2020-09-03T01:54:01Z</time>
      </trkpt>
      <trkpt lat="47.9553" lon="7.24059">
        <ele>263</ele>
        <time>2020-09-03T01:54:05Z</time>
      </trkpt>
      <trkpt lat="47.95534" lon="7.24068">
        <ele>263</ele>
        <time>2020-09-03T01:54:06Z</time>
      </trkpt>
      <trkpt lat="47.95543" lon="7.24073">
        <ele>262</ele>
        <time>2020-09-03T01:54:08Z</time>
      </trkpt>
      <trkpt lat="47.9558" lon="7.24086">
        <ele>261</ele>
        <time>2020-09-03T01:54:15Z</time>
      </trkpt>
      <trkpt lat="47.95593" lon="7.24102">
        <ele>259</ele>
        <time>2020-09-03T01:54:18Z</time>
      </trkpt>
      <trkpt lat="47.95612" lon="7.24145">
        <ele>255</ele>
        <time>2020-09-03T01:54:24Z</time>
      </trkpt>
      <trkpt lat="47.95613" lon="7.24161">
        <ele>254</ele>
        <time>2020-09-03T01:54:26Z</time>
      </trkpt>
      <trkpt lat="47.95729" lon="7.24139">
        <ele>254</ele>
        <time>2020-09-03T01:54:47Z</time>
      </trkpt>
      <trkpt lat="47.95746" lon="7.24119">
        <ele>255</ele>
        <time>2020-09-03T01:54:51Z</time>
      </trkpt>
      <trkpt lat="47.95784" lon="7.24115">
        <ele>255</ele>
        <time>2020-09-03T01:54:57Z</time>
      </trkpt>
      <trkpt lat="47.9592" lon="7.24267">
        <ele>248</ele>
        <time>2020-09-03T01:55:28Z</time>
      </trkpt>
      <trkpt lat="47.95897" lon="7.2433">
        <ele>249</ele>
        <time>2020-09-03T01:55:36Z</time>
      </trkpt>
      <trkpt lat="47.95881" lon="7.24363">
        <ele>248</ele>
        <time>2020-09-03T01:55:41Z</time>
      </trkpt>
      <trkpt lat="47.95858" lon="7.24391">
        <ele>246</ele>
        <time>2020-09-03T01:55:46Z</time>
      </trkpt>
      <trkpt lat="47.95807" lon="7.24441">
        <ele>244</ele>
        <time>2020-09-03T01:55:57Z</time>
      </trkpt>
      <trkpt lat="47.95775" lon="7.24494">
        <ele>243</ele>
        <time>2020-09-03T01:56:06Z</time>
      </trkpt>
      <trkpt lat="47.95724" lon="7.24592">
        <ele>241</ele>
        <time>2020-09-03T01:56:20Z</time>
      </trkpt>
      <trkpt lat="47.95716" lon="7.2462">
        <ele>241</ele>
        <time>2020-09-03T01:56:24Z</time>
      </trkpt>
      <trkpt lat="47.95688" lon="7.24913">
        <ele>239</ele>
        <time>2020-09-03T01:56:59Z</time>
      </trkpt>
      <trkpt lat="47.95675" lon="7.24967">
        <ele>238</ele>
        <time>2020-09-03T01:57:06Z</time>
      </trkpt>
      <trkpt lat="47.95647" lon="7.25042">
        <ele>237</ele>
        <time>2020-09-03T01:57:16Z</time>
      </trkpt>
      <trkpt lat="47.95432" lon="7.25566">
        <ele>232</ele>
        <time>2020-09-03T01:58:30Z</time>
      </trkpt>
      <trkpt lat="47.95414" lon="7.25619">
        <ele>232</ele>
        <time>2020-09-03T01:58:37Z</time>
      </trkpt>
      <trkpt lat="47.95377" lon="7.25769">
        <ele>232</ele>
        <time>2020-09-03T01:58:56Z</time>
      </trkpt>
      <trkpt lat="47.95356" lon="7.2584">
        <ele>231</ele>
        <time>2020-09-03T01:59:05Z</time>
      </trkpt>
      <trkpt lat="47.95327" lon="7.25916">
        <ele>231</ele>
        <time>2020-09-03T01:59:15Z</time>
      </trkpt>
      <trkpt lat="47.95345" lon="7.25926">
        <ele>229</ele>
        <time>2020-09-03T01:59:19Z</time>
      </trkpt>
      <trkpt lat="47.9538" lon="7.25955">
        <ele>228</ele>
        <time>2020-09-03T01:59:26Z</time>
      </trkpt>
      <trkpt lat="47.95354" lon="7.25979">
        <ele>228</ele>
        <time>2020-09-03T01:59:31Z</time>
      </trkpt>
      <trkpt lat="47.95341" lon="7.26004">
        <ele>228</ele>
        <time>2020-09-03T01:59:35Z</time>
      </trkpt>
      <trkpt lat="47.95325" lon="7.2609">
        <ele>227</ele>
        <time>2020-09-03T01:59:46Z</time>
      </trkpt>
      <trkpt lat="47.95291" lon="7.26156">
        <ele>228</ele>
        <time>2020-09-03T01:59:56Z</time>
      </trkpt>
      <trkpt lat="47.95223" lon="7.26264">
        <ele>227</ele>
        <time>2020-09-03T02:00:13Z</time>
      </trkpt>
      <trkpt lat="47.95203" lon="7.26309">
        <ele>227</ele>
        <time>2020-09-03T02:00:20Z</time>
      </trkpt>
      <trkpt lat="47.9519" lon="7.2635">
        <ele>226</ele>
        <time>2020-09-03T02:00:25Z</time>
      </trkpt>
      <trkpt lat="47.95175" lon="7.26377">
        <ele>226</ele>
        <time>2020-09-03T02:00:29Z</time>
      </trkpt>
      <trkpt lat="47.95136" lon="7.26465">
        <ele>225</ele>
        <time>2020-09-03T02:00:42Z</time>
      </trkpt>
      <trkpt lat="47.9512" lon="7.26512">
        <ele>224</ele>
        <time>2020-09-03T02:00:48Z</time>
      </trkpt>
      <trkpt lat="47.95116" lon="7.26546">
        <ele>224</ele>
        <time>2020-09-03T02:00:52Z</time>
      </trkpt>
      <trkpt lat="47.95115" lon="7.26585">
        <ele>224</ele>
        <time>2020-09-03T02:00:57Z</time>
      </trkpt>
      <trkpt lat="47.95098" lon="7.26682">
        <ele>222</ele>
        <time>2020-09-03T02:01:09Z</time>
      </trkpt>
      <trkpt lat="47.95097" lon="7.26717">
        <ele>221</ele>
        <time>2020-09-03T02:01:13Z</time>
      </trkpt>
      <trkpt lat="47.95099" lon="7.26736">
        <ele>220</ele>
        <time>2020-09-03T02:01:15Z</time>
      </trkpt>
      <trkpt lat="47.95103" lon="7.26747">
        <ele>220</ele>
        <time>2020-09-03T02:01:17Z</time>
      </trkpt>
      <trkpt lat="47.95122" lon="7.26768">
        <ele>221</ele>
        <time>2020-09-03T02:01:21Z</time>
      </trkpt>
      <trkpt lat="47.95198" lon="7.26687">
        <ele>226</ele>
        <time>2020-09-03T02:01:38Z</time>
      </trkpt>
      <trkpt lat="47.952" lon="7.267">
        <ele>227</ele>
        <time>2020-09-03T02:01:39Z</time>
      </trkpt>
      <trkpt lat="47.95188" lon="7.26789">
        <ele>230</ele>
        <time>2020-09-03T02:01:50Z</time>
      </trkpt>
      <trkpt lat="47.95167" lon="7.26901">
        <ele>231</ele>
        <time>2020-09-03T02:02:04Z</time>
      </trkpt>
      <trkpt lat="47.95134" lon="7.27023">
        <ele>232</ele>
        <time>2020-09-03T02:02:20Z</time>
      </trkpt>
      <trkpt lat="47.95122" lon="7.27083">
        <ele>233</ele>
        <time>2020-09-03T02:02:27Z</time>
      </trkpt>
      <trkpt lat="47.95083" lon="7.27246">
        <ele>225</ele>
        <time>2020-09-03T02:02:48Z</time>
      </trkpt>
      <trkpt lat="47.95062" lon="7.27293">
        <ele>225</ele>
        <time>2020-09-03T02:02:54Z</time>
      </trkpt>
      <trkpt lat="47.95041" lon="7.27325">
        <ele>224</ele>
        <time>2020-09-03T02:03:00Z</time>
      </trkpt>
      <trkpt lat="47.95016" lon="7.27352">
        <ele>223</ele>
        <time>2020-09-03T02:03:05Z</time>
      </trkpt>
      <trkpt lat="47.94994" lon="7.27381">
        <ele>223</ele>
        <time>2020-09-03T02:03:11Z</time>
      </trkpt>
      <trkpt lat="47.94965" lon="7.27428">
        <ele>223</ele>
        <time>2020-09-03T02:03:18Z</time>
      </trkpt>
      <trkpt lat="47.94953" lon="7.27456">
        <ele>223</ele>
        <time>2020-09-03T02:03:22Z</time>
      </trkpt>
      <trkpt lat="47.94891" lon="7.27677">
        <ele>225</ele>
        <time>2020-09-03T02:03:51Z</time>
      </trkpt>
      <trkpt lat="47.94886" lon="7.27687">
        <ele>225</ele>
        <time>2020-09-03T02:03:52Z</time>
      </trkpt>
      <trkpt lat="47.9487" lon="7.27744">
        <ele>224</ele>
        <time>2020-09-03T02:03:59Z</time>
      </trkpt>
      <trkpt lat="47.94858" lon="7.27797">
        <ele>221</ele>
        <time>2020-09-03T02:04:06Z</time>
      </trkpt>
      <trkpt lat="47.94837" lon="7.27924">
        <ele>217</ele>
        <time>2020-09-03T02:04:22Z</time>
      </trkpt>
      <trkpt lat="47.94829" lon="7.27998">
        <ele>216</ele>
        <time>2020-09-03T02:04:31Z</time>
      </trkpt>
      <trkpt lat="47.94828" lon="7.28066">
        <ele>214</ele>
        <time>2020-09-03T02:04:39Z</time>
      </trkpt>
      <trkpt lat="47.9483" lon="7.28123">
        <ele>212</ele>
        <time>2020-09-03T02:04:46Z</time>
      </trkpt>
      <trkpt lat="47.9482" lon="7.28174">
        <ele>211</ele>
        <time>2020-09-03T02:04:52Z</time>
      </trkpt>
      <trkpt lat="47.94778" lon="7.28341">
        <ele>208</ele>
        <time>2020-09-03T02:05:13Z</time>
      </trkpt>
      <trkpt lat="47.94704" lon="7.28502">
        <ele>207</ele>
        <time>2020-09-03T02:05:36Z</time>
      </trkpt>
      <trkpt lat="47.94685" lon="7.28563">
        <ele>207</ele>
        <time>2020-09-03T02:05:44Z</time>
      </trkpt>
      <trkpt lat="47.94669" lon="7.28626">
        <ele>206</ele>
        <time>2020-09-03T02:05:52Z</time>
      </trkpt>
      <trkpt lat="47.94623" lon="7.28843">
        <ele>206</ele>
        <time>2020-09-03T02:06:20Z</time>
      </trkpt>
      <trkpt lat="47.94619" lon="7.28891">
        <ele>206</ele>
        <time>2020-09-03T02:06:25Z</time>
      </trkpt>
      <trkpt lat="47.94761" lon="7.28966">
        <ele>207</ele>
        <time>2020-09-03T02:06:52Z</time>
      </trkpt>
      <trkpt lat="47.94844" lon="7.29005">
        <ele>205</ele>
        <time>2020-09-03T02:07:08Z</time>
      </trkpt>
      <trkpt lat="47.95019" lon="7.29061">
        <ele>205</ele>
        <time>2020-09-03T02:07:40Z</time>
      </trkpt>
      <trkpt lat="47.95175" lon="7.29216">
        <ele>205</ele>
        <time>2020-09-03T02:08:13Z</time>
      </trkpt>
      <trkpt lat="47.95192" lon="7.29227">
        <ele>205</ele>
        <time>2020-09-03T02:08:16Z</time>
      </trkpt>
      <trkpt lat="47.95365" lon="7.29285">
        <ele>204</ele>
        <time>2020-09-03T02:08:48Z</time>
      </trkpt>
      <trkpt lat="47.95457" lon="7.29328">
        <ele>204</ele>
        <time>2020-09-03T02:09:05Z</time>
      </trkpt>
      <trkpt lat="47.95471" lon="7.29329">
        <ele>205</ele>
        <time>2020-09-03T02:09:07Z</time>
      </trkpt>
      <trkpt lat="47.95632" lon="7.2942">
        <ele>205</ele>
        <time>2020-09-03T02:09:38Z</time>
      </trkpt>
      <trkpt lat="47.95653" lon="7.29442">
        <ele>205</ele>
        <time>2020-09-03T02:09:43Z</time>
      </trkpt>
      <trkpt lat="47.95665" lon="7.29438">
        <ele>205</ele>
        <time>2020-09-03T02:09:45Z</time>
      </trkpt>
      <trkpt lat="47.95713" lon="7.29342">
        <ele>205</ele>
        <time>2020-09-03T02:09:59Z</time>
      </trkpt>
      <trkpt lat="47.95745" lon="7.29291">
        <ele>207</ele>
        <time>2020-09-03T02:10:07Z</time>
      </trkpt>
      <trkpt lat="47.95788" lon="7.29233">
        <ele>209</ele>
        <time>2020-09-03T02:10:18Z</time>
      </trkpt>
      <trkpt lat="47.95798" lon="7.29224">
        <ele>209</ele>
        <time>2020-09-03T02:10:20Z</time>
      </trkpt>
      <trkpt lat="47.95854" lon="7.29208">
        <ele>210</ele>
        <time>2020-09-03T02:10:30Z</time>
      </trkpt>
      <trkpt lat="47.95916" lon="7.29195">
        <ele>212</ele>
        <time>2020-09-03T02:10:41Z</time>
      </trkpt>
      <trkpt lat="47.95938" lon="7.29199">
        <ele>212</ele>
        <time>2020-09-03T02:10:45Z</time>
      </trkpt>
      <trkpt lat="47.95986" lon="7.29221">
        <ele>211</ele>
        <time>2020-09-03T02:10:54Z</time>
      </trkpt>
      <trkpt lat="47.961" lon="7.2928">
        <ele>211</ele>
        <time>2020-09-03T02:11:15Z</time>
      </trkpt>
      <trkpt lat="47.96117" lon="7.29282">
        <ele>211</ele>
        <time>2020-09-03T02:11:18Z</time>
      </trkpt>
      <trkpt lat="47.96126" lon="7.29287">
        <ele>211</ele>
        <time>2020-09-03T02:11:20Z</time>
      </trkpt>
      <trkpt lat="47.96145" lon="7.29287">
        <ele>212</ele>
        <time>2020-09-03T02:11:23Z</time>
      </trkpt>
      <trkpt lat="47.96232" lon="7.29315">
        <ele>213</ele>
        <time>2020-09-03T02:11:39Z</time>
      </trkpt>
      <trkpt lat="47.96293" lon="7.2933">
        <ele>216</ele>
        <time>2020-09-03T02:11:50Z</time>
      </trkpt>
      <trkpt lat="47.96356" lon="7.29342">
        <ele>221</ele>
        <time>2020-09-03T02:12:02Z</time>
      </trkpt>
      <trkpt lat="47.96458" lon="7.29373">
        <ele>227</ele>
        <time>2020-09-03T02:12:20Z</time>
      </trkpt>
      <trkpt lat="47.96502" lon="7.2938">
        <ele>229</ele>
        <time>2020-09-03T02:12:28Z</time>
      </trkpt>
      <trkpt lat="47.96649" lon="7.29394">
        <ele>231</ele>
        <time>2020-09-03T02:12:54Z</time>
      </trkpt>
      <trkpt lat="47.96676" lon="7.29403">
        <ele>230</ele>
        <time>2020-09-03T02:12:59Z</time>
      </trkpt>
      <trkpt lat="47.96755" lon="7.29415">
        <ele>228</ele>
        <time>2020-09-03T02:13:13Z</time>
      </trkpt>
      <trkpt lat="47.96815" lon="7.29411">
        <ele>224</ele>
        <time>2020-09-03T02:13:24Z</time>
      </trkpt>
      <trkpt lat="47.96883" lon="7.29403">
        <ele>221</ele>
        <time>2020-09-03T02:13:36Z</time>
      </trkpt>
      <trkpt lat="47.9697" lon="7.29405">
        <ele>217</ele>
        <time>2020-09-03T02:13:52Z</time>
      </trkpt>
      <trkpt lat="47.97027" lon="7.29399">
        <ele>215</ele>
        <time>2020-09-03T02:14:02Z</time>
      </trkpt>
      <trkpt lat="47.971" lon="7.29399">
        <ele>214</ele>
        <time>2020-09-03T02:14:15Z</time>
      </trkpt>
      <trkpt lat="47.97367" lon="7.29348">
        <ele>211</ele>
        <time>2020-09-03T02:15:03Z</time>
      </trkpt>
      <trkpt lat="47.97394" lon="7.29347">
        <ele>210</ele>
        <time>2020-09-03T02:15:07Z</time>
      </trkpt>
      <trkpt lat="47.97441" lon="7.29351">
        <ele>207</ele>
        <time>2020-09-03T02:15:16Z</time>
      </trkpt>
      <trkpt lat="47.97479" lon="7.29351">
        <ele>206</ele>
        <time>2020-09-03T02:15:23Z</time>
      </trkpt>
      <trkpt lat="47.97558" lon="7.29342">
        <ele>204</ele>
        <time>2020-09-03T02:15:37Z</time>
      </trkpt>
      <trkpt lat="47.97564" lon="7.29161">
        <ele>209</ele>
        <time>2020-09-03T02:15:58Z</time>
      </trkpt>
      <trkpt lat="47.97914" lon="7.29121">
        <ele>207</ele>
        <time>2020-09-03T02:17:01Z</time>
      </trkpt>
      <trkpt lat="47.97985" lon="7.29137">
        <ele>210</ele>
        <time>2020-09-03T02:17:13Z</time>
      </trkpt>
      <trkpt lat="47.97991" lon="7.29148">
        <ele>209</ele>
        <time>2020-09-03T02:17:15Z</time>
      </trkpt>
      <trkpt lat="47.98048" lon="7.2916">
        <ele>211</ele>
        <time>2020-09-03T02:17:25Z</time>
      </trkpt>
      <trkpt lat="47.98061" lon="7.29155">
        <ele>212</ele>
        <time>2020-09-03T02:17:28Z</time>
      </trkpt>
      <trkpt lat="47.9809" lon="7.29164">
        <ele>212</ele>
        <time>2020-09-03T02:17:33Z</time>
      </trkpt>
      <trkpt lat="47.98104" lon="7.29165">
        <ele>213</ele>
        <time>2020-09-03T02:17:36Z</time>
      </trkpt>
      <trkpt lat="47.98144" lon="7.29152">
        <ele>215</ele>
        <time>2020-09-03T02:17:43Z</time>
      </trkpt>
      <trkpt lat="47.98168" lon="7.29141">
        <ele>216</ele>
        <time>2020-09-03T02:17:47Z</time>
      </trkpt>
      <trkpt lat="47.98231" lon="7.29129">
        <ele>218</ele>
        <time>2020-09-03T02:17:59Z</time>
      </trkpt>
      <trkpt lat="47.98236" lon="7.29063">
        <ele>218</ele>
        <time>2020-09-03T02:18:07Z</time>
      </trkpt>
      <trkpt lat="47.983" lon="7.29073">
        <ele>220</ele>
        <time>2020-09-03T02:18:18Z</time>
      </trkpt>
      <trkpt lat="47.9833" lon="7.29074">
        <ele>221</ele>
        <time>2020-09-03T02:18:23Z</time>
      </trkpt>
      <trkpt lat="47.98401" lon="7.29085">
        <ele>222</ele>
        <time>2020-09-03T02:18:36Z</time>
      </trkpt>
      <trkpt lat="47.98416" lon="7.29099">
        <ele>222</ele>
        <time>2020-09-03T02:18:39Z</time>
      </trkpt>
      <trkpt lat="47.98475" lon="7.29124">
        <ele>221</ele>
        <time>2020-09-03T02:18:50Z</time>
      </trkpt>
      <trkpt lat="47.98536" lon="7.29119">
        <ele>220</ele>
        <time>2020-09-03T02:19:01Z</time>
      </trkpt>
      <trkpt lat="47.98557" lon="7.29122">
        <ele>219</ele>
        <time>2020-09-03T02:19:05Z</time>
      </trkpt>
      <trkpt lat="47.98632" lon="7.29124">
        <ele>216</ele>
        <time>2020-09-03T02:19:18Z</time>
      </trkpt>
      <trkpt lat="47.98718" lon="7.29112">
        <ele>214</ele>
        <time>2020-09-03T02:19:33Z</time>
      </trkpt>
      <trkpt lat="47.98804" lon="7.29111">
        <ele>211</ele>
        <time>2020-09-03T02:19:49Z</time>
      </trkpt>
      <trkpt lat="47.98831" lon="7.29092">
        <ele>210</ele>
        <time>2020-09-03T02:19:54Z</time>
      </trkpt>
      <trkpt lat="47.98858" lon="7.292">
        <ele>207</ele>
        <time>2020-09-03T02:20:08Z</time>
      </trkpt>
      <trkpt lat="47.98881" lon="7.29321">
        <ele>207</ele>
        <time>2020-09-03T02:20:23Z</time>
      </trkpt>
      <trkpt lat="47.98937" lon="7.2934">
        <ele>206</ele>
        <time>2020-09-03T02:20:33Z</time>
      </trkpt>
      <trkpt lat="47.98972" lon="7.29346">
        <ele>205</ele>
        <time>2020-09-03T02:20:39Z</time>
      </trkpt>
      <trkpt lat="47.99028" lon="7.29351">
        <ele>204</ele>
        <time>2020-09-03T02:20:49Z</time>
      </trkpt>
      <trkpt lat="47.99146" lon="7.29353">
        <ele>201</ele>
        <time>2020-09-03T02:21:10Z</time>
      </trkpt>
      <trkpt lat="47.99255" lon="7.29352">
        <ele>198</ele>
        <time>2020-09-03T02:21:30Z</time>
      </trkpt>
      <trkpt lat="47.99281" lon="7.29345">
        <ele>198</ele>
        <time>2020-09-03T02:21:34Z</time>
      </trkpt>
      <trkpt lat="47.99451" lon="7.29342">
        <ele>196</ele>
        <time>2020-09-03T02:22:05Z</time>
      </trkpt>
      <trkpt lat="47.99522" lon="7.29352">
        <ele>196</ele>
        <time>2020-09-03T02:22:17Z</time>
      </trkpt>
      <trkpt lat="47.99819" lon="7.29403">
        <ele>196</ele>
        <time>2020-09-03T02:23:10Z</time>
      </trkpt>
      <trkpt lat="47.99833" lon="7.29408">
        <ele>196</ele>
        <time>2020-09-03T02:23:13Z</time>
      </trkpt>
      <trkpt lat="47.99879" lon="7.29413">
        <ele>195</ele>
        <time>2020-09-03T02:23:21Z</time>
      </trkpt>
      <trkpt lat="47.99912" lon="7.2941">
        <ele>195</ele>
        <time>2020-09-03T02:23:27Z</time>
      </trkpt>
      <trkpt lat="47.99924" lon="7.29413">
        <ele>195</ele>
        <time>2020-09-03T02:23:29Z</time>
      </trkpt>
      <trkpt lat="47.99942" lon="7.29423">
        <ele>195</ele>
        <time>2020-09-03T02:23:33Z</time>
      </trkpt>
      <trkpt lat="47.99974" lon="7.29429">
        <ele>195</ele>
        <time>2020-09-03T02:23:38Z</time>
      </trkpt>
      <trkpt lat="48.00048" lon="7.29429">
        <ele>196</ele>
        <time>2020-09-03T02:23:52Z</time>
      </trkpt>
      <trkpt lat="48.00186" lon="7.29435">
        <ele>197</ele>
        <time>2020-09-03T02:24:16Z</time>
      </trkpt>
      <trkpt lat="48.00262" lon="7.29464">
        <ele>196</ele>
        <time>2020-09-03T02:24:30Z</time>
      </trkpt>
      <trkpt lat="48.00346" lon="7.29527">
        <ele>196</ele>
        <time>2020-09-03T02:24:47Z</time>
      </trkpt>
      <trkpt lat="48.00399" lon="7.29563">
        <ele>195</ele>
        <time>2020-09-03T02:24:57Z</time>
      </trkpt>
      <trkpt lat="48.00408" lon="7.29579">
        <ele>195</ele>
        <time>2020-09-03T02:25:00Z</time>
      </trkpt>
      <trkpt lat="48.00496" lon="7.2961">
        <ele>195</ele>
        <time>2020-09-03T02:25:16Z</time>
      </trkpt>
      <trkpt lat="48.00553" lon="7.29603">
        <ele>196</ele>
        <time>2020-09-03T02:25:26Z</time>
      </trkpt>
      <trkpt lat="48.00566" lon="7.29599">
        <ele>196</ele>
        <time>2020-09-03T02:25:28Z</time>
      </trkpt>
      <trkpt lat="48.0057" lon="7.29583">
        <ele>197</ele>
        <time>2020-09-03T02:25:30Z</time>
      </trkpt>
      <trkpt lat="48.0058" lon="7.29577">
        <ele>197</ele>
        <time>2020-09-03T02:25:32Z</time>
      </trkpt>
      <trkpt lat="48.00591" lon="7.29583">
        <ele>197</ele>
        <time>2020-09-03T02:25:34Z</time>
      </trkpt>
      <trkpt lat="48.00595" lon="7.29598">
        <ele>197</ele>
        <time>2020-09-03T02:25:36Z</time>
      </trkpt>
      <trkpt lat="48.00612" lon="7.29602">
        <ele>197</ele>
        <time>2020-09-03T02:25:39Z</time>
      </trkpt>
      <trkpt lat="48.00657" lon="7.29597">
        <ele>199</ele>
        <time>2020-09-03T02:25:47Z</time>
      </trkpt>
      <trkpt lat="48.00842" lon="7.2956">
        <ele>198</ele>
        <time>2020-09-03T02:26:21Z</time>
      </trkpt>
      <trkpt lat="48.0086" lon="7.29559">
        <ele>198</ele>
        <time>2020-09-03T02:26:24Z</time>
      </trkpt>
      <trkpt lat="48.00872" lon="7.29563">
        <ele>198</ele>
        <time>2020-09-03T02:26:26Z</time>
      </trkpt>
      <trkpt lat="48.00894" lon="7.29582">
        <ele>198</ele>
        <time>2020-09-03T02:26:30Z</time>
      </trkpt>
      <trkpt lat="48.00933" lon="7.29627">
        <ele>198</ele>
        <time>2020-09-03T02:26:39Z</time>
      </trkpt>
      <trkpt lat="48.00945" lon="7.29648">
        <ele>197</ele>
        <time>2020-09-03T02:26:42Z</time>
      </trkpt>
      <trkpt lat="48.00956" lon="7.29675">
        <ele>197</ele>
        <time>2020-09-03T02:26:46Z</time>
      </trkpt>
      <trkpt lat="48.01002" lon="7.29848">
        <ele>199</ele>
        <time>2020-09-03T02:27:08Z</time>
      </trkpt>
      <trkpt lat="48.01029" lon="7.29963">
        <ele>198</ele>
        <time>2020-09-03T02:27:23Z</time>
      </trkpt>
      <trkpt lat="48.01045" lon="7.29982">
        <ele>199</ele>
        <time>2020-09-03T02:27:27Z</time>
      </trkpt>
      <trkpt lat="48.01071" lon="7.29995">
        <ele>200</ele>
        <time>2020-09-03T02:27:31Z</time>
      </trkpt>
      <trkpt lat="48.01084" lon="7.30043">
        <ele>200</ele>
        <time>2020-09-03T02:27:38Z</time>
      </trkpt>
      <trkpt lat="48.01111" lon="7.30065">
        <ele>202</ele>
        <time>2020-09-03T02:27:43Z</time>
      </trkpt>
      <trkpt lat="48.01122" lon="7.30085">
        <ele>202</ele>
        <time>2020-09-03T02:27:46Z</time>
      </trkpt>
      <trkpt lat="48.0113" lon="7.30157">
        <ele>202</ele>
        <time>2020-09-03T02:27:55Z</time>
      </trkpt>
      <trkpt lat="48.01139" lon="7.30191">
        <ele>203</ele>
        <time>2020-09-03T02:27:59Z</time>
      </trkpt>
      <trkpt lat="48.0114" lon="7.30247">
        <ele>202</ele>
        <time>2020-09-03T02:28:06Z</time>
      </trkpt>
      <trkpt lat="48.01157" lon="7.30372">
        <ele>202</ele>
        <time>2020-09-03T02:28:21Z</time>
      </trkpt>
      <trkpt lat="48.01251" lon="7.30625">
        <ele>207</ele>
        <time>2020-09-03T02:28:55Z</time>
      </trkpt>
      <trkpt lat="48.01265" lon="7.3065">
        <ele>208</ele>
        <time>2020-09-03T02:28:59Z</time>
      </trkpt>
      <trkpt lat="48.01356" lon="7.30711">
        <ele>210</ele>
        <time>2020-09-03T02:29:17Z</time>
      </trkpt>
      <trkpt lat="48.01371" lon="7.30718">
        <ele>211</ele>
        <time>2020-09-03T02:29:20Z</time>
      </trkpt>
      <trkpt lat="48.01457" lon="7.30754">
        <ele>212</ele>
        <time>2020-09-03T02:29:36Z</time>
      </trkpt>
      <trkpt lat="48.01485" lon="7.30764">
        <ele>212</ele>
        <time>2020-09-03T02:29:41Z</time>
      </trkpt>
      <trkpt lat="48.01599" lon="7.30796">
        <ele>214</ele>
        <time>2020-09-03T02:30:02Z</time>
      </trkpt>
      <trkpt lat="48.0162" lon="7.30808">
        <ele>215</ele>
        <time>2020-09-03T02:30:06Z</time>
      </trkpt>
      <trkpt lat="48.01667" lon="7.30846">
        <ele>215</ele>
        <time>2020-09-03T02:30:15Z</time>
      </trkpt>
      <trkpt lat="48.01826" lon="7.30998">
        <ele>218</ele>
        <time>2020-09-03T02:30:49Z</time>
      </trkpt>
      <trkpt lat="48.01927" lon="7.31099">
        <ele>222</ele>
        <time>2020-09-03T02:31:10Z</time>
      </trkpt>
      <trkpt lat="48.01982" lon="7.31124">
        <ele>227</ele>
        <time>2020-09-03T02:31:21Z</time>
      </trkpt>
      <trkpt lat="48.02018" lon="7.31138">
        <ele>230</ele>
        <time>2020-09-03T02:31:27Z</time>
      </trkpt>
      <trkpt lat="48.02096" lon="7.31146">
        <ele>234</ele>
        <time>2020-09-03T02:31:41Z</time>
      </trkpt>
      <trkpt lat="48.02145" lon="7.31157">
        <ele>234</ele>
        <time>2020-09-03T02:31:50Z</time>
      </trkpt>
      <trkpt lat="48.02203" lon="7.31176">
        <ele>232</ele>
        <time>2020-09-03T02:32:00Z</time>
      </trkpt>
      <trkpt lat="48.02253" lon="7.31182">
        <ele>230</ele>
        <time>2020-09-03T02:32:09Z</time>
      </trkpt>
      <trkpt lat="48.02377" lon="7.31176">
        <ele>221</ele>
        <time>2020-09-03T02:32:31Z</time>
      </trkpt>
      <trkpt lat="48.02412" lon="7.31171">
        <ele>218</ele>
        <time>2020-09-03T02:32:38Z</time>
      </trkpt>
      <trkpt lat="48.02471" lon="7.31149">
        <ele>216</ele>
        <time>2020-09-03T02:32:48Z</time>
      </trkpt>
      <trkpt lat="48.02534" lon="7.31138">
        <ele>212</ele>
        <time>2020-09-03T02:33:00Z</time>
      </trkpt>
      <trkpt lat="48.0256" lon="7.31141">
        <ele>210</ele>
        <time>2020-09-03T02:33:04Z</time>
      </trkpt>
      <trkpt lat="48.02582" lon="7.31147">
        <ele>208</ele>
        <time>2020-09-03T02:33:08Z</time>
      </trkpt>
      <trkpt lat="48.02621" lon="7.31174">
        <ele>206</ele>
        <time>2020-09-03T02:33:16Z</time>
      </trkpt>
      <trkpt lat="48.0268" lon="7.31233">
        <ele>202</ele>
        <time>2020-09-03T02:33:29Z</time>
      </trkpt>
      <trkpt lat="48.0269" lon="7.31246">
        <ele>201</ele>
        <time>2020-09-03T02:33:31Z</time>
      </trkpt>
      <trkpt lat="48.02739" lon="7.3129">
        <ele>197</ele>
        <time>2020-09-03T02:33:41Z</time>
      </trkpt>
      <trkpt lat="48.02795" lon="7.31313">
        <ele>195</ele>
        <time>2020-09-03T02:33:52Z</time>
      </trkpt>
      <trkpt lat="48.02824" lon="7.31335">
        <ele>193</ele>
        <time>2020-09-03T02:33:57Z</time>
      </trkpt>
      <trkpt lat="48.02838" lon="7.3134">
        <ele>193</ele>
        <time>2020-09-03T02:34:00Z</time>
      </trkpt>
      <trkpt lat="48.02851" lon="7.31333">
        <ele>193</ele>
        <time>2020-09-03T02:34:02Z</time>
      </trkpt>
      <trkpt lat="48.02887" lon="7.31295">
        <ele>193</ele>
        <time>2020-09-03T02:34:10Z</time>
      </trkpt>
      <trkpt lat="48.029" lon="7.31287">
        <ele>193</ele>
        <time>2020-09-03T02:34:13Z</time>
      </trkpt>
      <trkpt lat="48.02951" lon="7.31287">
        <ele>193</ele>
        <time>2020-09-03T02:34:22Z</time>
      </trkpt>
      <trkpt lat="48.02964" lon="7.3129">
        <ele>193</ele>
        <time>2020-09-03T02:34:24Z</time>
      </trkpt>
      <trkpt lat="48.02974" lon="7.31299">
        <ele>193</ele>
        <time>2020-09-03T02:34:26Z</time>
      </trkpt>
      <trkpt lat="48.02996" lon="7.31328">
        <ele>192</ele>
        <time>2020-09-03T02:34:31Z</time>
      </trkpt>
      <trkpt lat="48.03007" lon="7.31334">
        <ele>192</ele>
        <time>2020-09-03T02:34:33Z</time>
      </trkpt>
      <trkpt lat="48.03018" lon="7.31334">
        <ele>192</ele>
        <time>2020-09-03T02:34:35Z</time>
      </trkpt>
      <trkpt lat="48.03027" lon="7.31328">
        <ele>192</ele>
        <time>2020-09-03T02:34:37Z</time>
      </trkpt>
      <trkpt lat="48.03043" lon="7.3131">
        <ele>193</ele>
        <time>2020-09-03T02:34:41Z</time>
      </trkpt>
      <trkpt lat="48.03074" lon="7.3127">
        <ele>195</ele>
        <time>2020-09-03T02:34:48Z</time>
      </trkpt>
      <trkpt lat="48.0308" lon="7.31247">
        <ele>196</ele>
        <time>2020-09-03T02:34:51Z</time>
      </trkpt>
      <trkpt lat="48.03086" lon="7.31245">
        <ele>196</ele>
        <time>2020-09-03T02:34:52Z</time>
      </trkpt>
      <trkpt lat="48.03091" lon="7.31249">
        <ele>196</ele>
        <time>2020-09-03T02:34:53Z</time>
      </trkpt>
      <trkpt lat="48.03096" lon="7.31259">
        <ele>196</ele>
        <time>2020-09-03T02:34:55Z</time>
      </trkpt>
      <trkpt lat="48.03157" lon="7.31188">
        <ele>198</ele>
        <time>2020-09-03T02:35:08Z</time>
      </trkpt>
      <trkpt lat="48.03176" lon="7.31177">
        <ele>199</ele>
        <time>2020-09-03T02:35:12Z</time>
      </trkpt>
      <trkpt lat="48.03231" lon="7.31175">
        <ele>198</ele>
        <time>2020-09-03T02:35:22Z</time>
      </trkpt>
      <trkpt lat="48.0327" lon="7.31181">
        <ele>198</ele>
        <time>2020-09-03T02:35:29Z</time>
      </trkpt>
      <trkpt lat="48.03375" lon="7.31188">
        <ele>198</ele>
        <time>2020-09-03T02:35:47Z</time>
      </trkpt>
      <trkpt lat="48.03417" lon="7.31186">
        <ele>199</ele>
        <time>2020-09-03T02:35:55Z</time>
      </trkpt>
      <trkpt lat="48.03459" lon="7.31177">
        <ele>199</ele>
        <time>2020-09-03T02:36:02Z</time>
      </trkpt>
      <trkpt lat="48.03827" lon="7.31115">
        <ele>206</ele>
        <time>2020-09-03T02:37:08Z</time>
      </trkpt>
      <trkpt lat="48.039" lon="7.31116">
        <ele>208</ele>
        <time>2020-09-03T02:37:21Z</time>
      </trkpt>
      <trkpt lat="48.04084" lon="7.31137">
        <ele>202</ele>
        <time>2020-09-03T02:37:54Z</time>
      </trkpt>
      <trkpt lat="48.04161" lon="7.3113">
        <ele>202</ele>
        <time>2020-09-03T02:38:08Z</time>
      </trkpt>
      <trkpt lat="48.04206" lon="7.30984">
        <ele>204</ele>
        <time>2020-09-03T02:38:27Z</time>
      </trkpt>
      <trkpt lat="48.04216" lon="7.30927">
        <ele>205</ele>
        <time>2020-09-03T02:38:34Z</time>
      </trkpt>
      <trkpt lat="48.04228" lon="7.30799">
        <ele>206</ele>
        <time>2020-09-03T02:38:49Z</time>
      </trkpt>
      <trkpt lat="48.04258" lon="7.30805">
        <ele>206</ele>
        <time>2020-09-03T02:38:55Z</time>
      </trkpt>
      <trkpt lat="48.04289" lon="7.30806">
        <ele>205</ele>
        <time>2020-09-03T02:39:00Z</time>
      </trkpt>
      <trkpt lat="48.04303" lon="7.30802">
        <ele>205</ele>
        <time>2020-09-03T02:39:03Z</time>
      </trkpt>
      <trkpt lat="48.04342" lon="7.3078">
        <ele>205</ele>
        <time>2020-09-03T02:39:10Z</time>
      </trkpt>
      <trkpt lat="48.04348" lon="7.30771">
        <ele>206</ele>
        <time>2020-09-03T02:39:12Z</time>
      </trkpt>
      <trkpt lat="48.04359" lon="7.30744">
        <ele>206</ele>
        <time>2020-09-03T02:39:16Z</time>
      </trkpt>
      <trkpt lat="48.04371" lon="7.30708">
        <ele>206</ele>
        <time>2020-09-03T02:39:20Z</time>
      </trkpt>
      <trkpt lat="48.04382" lon="7.30642">
        <ele>207</ele>
        <time>2020-09-03T02:39:28Z</time>
      </trkpt>
      <trkpt lat="48.04439" lon="7.30642">
        <ele>205</ele>
        <time>2020-09-03T02:39:39Z</time>
      </trkpt>
      <trkpt lat="48.04586" lon="7.30709">
        <ele>202</ele>
        <time>2020-09-03T02:40:06Z</time>
      </trkpt>
      <trkpt lat="48.04628" lon="7.30718">
        <ele>202</ele>
        <time>2020-09-03T02:40:13Z</time>
      </trkpt>
      <trkpt lat="48.04728" lon="7.30709">
        <ele>199</ele>
        <time>2020-09-03T02:40:31Z</time>
      </trkpt>
      <trkpt lat="48.04789" lon="7.30692">
        <ele>198</ele>
        <time>2020-09-03T02:40:42Z</time>
      </trkpt>
      <trkpt lat="48.04812" lon="7.30688">
        <ele>197</ele>
        <time>2020-09-03T02:40:46Z</time>
      </trkpt>
      <trkpt lat="48.04835" lon="7.30689">
        <ele>197</ele>
        <time>2020-09-03T02:40:50Z</time>
      </trkpt>
      <trkpt lat="48.04882" lon="7.30696">
        <ele>196</ele>
        <time>2020-09-03T02:40:59Z</time>
      </trkpt>
      <trkpt lat="48.04986" lon="7.30728">
        <ele>200</ele>
        <time>2020-09-03T02:41:18Z</time>
      </trkpt>
      <trkpt lat="48.0501" lon="7.3073">
        <ele>201</ele>
        <time>2020-09-03T02:41:22Z</time>
      </trkpt>
      <trkpt lat="48.05033" lon="7.30728">
        <ele>202</ele>
        <time>2020-09-03T02:41:26Z</time>
      </trkpt>
      <trkpt lat="48.0511" lon="7.30709">
        <ele>205</ele>
        <time>2020-09-03T02:41:40Z</time>
      </trkpt>
      <trkpt lat="48.05157" lon="7.30686">
        <ele>207</ele>
        <time>2020-09-03T02:41:49Z</time>
      </trkpt>
      <trkpt lat="48.05198" lon="7.30653">
        <ele>206</ele>
        <time>2020-09-03T02:41:57Z</time>
      </trkpt>
      <trkpt lat="48.05228" lon="7.30617">
        <ele>204</ele>
        <time>2020-09-03T02:42:04Z</time>
      </trkpt>
      <trkpt lat="48.05238" lon="7.30601">
        <ele>204</ele>
        <time>2020-09-03T02:42:07Z</time>
      </trkpt>
      <trkpt lat="48.05263" lon="7.30543">
        <ele>205</ele>
        <time>2020-09-03T02:42:15Z</time>
      </trkpt>
      <trkpt lat="48.05315" lon="7.30461">
        <ele>205</ele>
        <time>2020-09-03T02:42:28Z</time>
      </trkpt>
      <trkpt lat="48.05327" lon="7.30452">
        <ele>204</ele>
        <time>2020-09-03T02:42:31Z</time>
      </trkpt>
      <trkpt lat="48.05383" lon="7.30456">
        <ele>205</ele>
        <time>2020-09-03T02:42:41Z</time>
      </trkpt>
      <trkpt lat="48.05489" lon="7.30473">
        <ele>204</ele>
        <time>2020-09-03T02:43:00Z</time>
      </trkpt>
      <trkpt lat="48.05483" lon="7.30558">
        <ele>203</ele>
        <time>2020-09-03T02:43:10Z</time>
      </trkpt>
      <trkpt lat="48.0554" lon="7.30569">
        <ele>203</ele>
        <time>2020-09-03T02:43:20Z</time>
      </trkpt>
      <trkpt lat="48.05616" lon="7.3058">
        <ele>204</ele>
        <time>2020-09-03T02:43:34Z</time>
      </trkpt>
      <trkpt lat="48.05683" lon="7.30594">
        <ele>205</ele>
        <time>2020-09-03T02:43:46Z</time>
      </trkpt>
      <trkpt lat="48.05769" lon="7.30605">
        <ele>206</ele>
        <time>2020-09-03T02:44:01Z</time>
      </trkpt>
      <trkpt lat="48.05954" lon="7.3061">
        <ele>209</ele>
        <time>2020-09-03T02:44:34Z</time>
      </trkpt>
      <trkpt lat="48.06017" lon="7.30607">
        <ele>209</ele>
        <time>2020-09-03T02:44:45Z</time>
      </trkpt>
      <trkpt lat="48.06107" lon="7.30613">
        <ele>210</ele>
        <time>2020-09-03T02:45:01Z</time>
      </trkpt>
      <trkpt lat="48.06153" lon="7.30625">
        <ele>211</ele>
        <time>2020-09-03T02:45:09Z</time>
      </trkpt>
      <trkpt lat="48.06162" lon="7.30621">
        <ele>211</ele>
        <time>2020-09-03T02:45:11Z</time>
      </trkpt>
      <trkpt lat="48.06241" lon="7.30685">
        <ele>211</ele>
        <time>2020-09-03T02:45:27Z</time>
      </trkpt>
      <trkpt lat="48.06254" lon="7.30633">
        <ele>211</ele>
        <time>2020-09-03T02:45:34Z</time>
      </trkpt>
      <trkpt lat="48.06266" lon="7.30606">
        <ele>211</ele>
        <time>2020-09-03T02:45:38Z</time>
      </trkpt>
      <trkpt lat="48.06285" lon="7.30592">
        <ele>211</ele>
        <time>2020-09-03T02:45:41Z</time>
      </trkpt>
      <trkpt lat="48.06335" lon="7.30566">
        <ele>211</ele>
        <time>2020-09-03T02:45:51Z</time>
      </trkpt>
      <trkpt lat="48.06396" lon="7.30523">
        <ele>212</ele>
        <time>2020-09-03T02:46:03Z</time>
      </trkpt>
      <trkpt lat="48.06411" lon="7.3051">
        <ele>213</ele>
        <time>2020-09-03T02:46:06Z</time>
      </trkpt>
      <trkpt lat="48.0646" lon="7.30448">
        <ele>213</ele>
        <time>2020-09-03T02:46:17Z</time>
      </trkpt>
      <trkpt lat="48.06473" lon="7.30427">
        <ele>213</ele>
        <time>2020-09-03T02:46:21Z</time>
      </trkpt>
      <trkpt lat="48.06501" lon="7.3036">
        <ele>214</ele>
        <time>2020-09-03T02:46:30Z</time>
      </trkpt>
      <trkpt lat="48.06521" lon="7.3028">
        <ele>216</ele>
        <time>2020-09-03T02:46:40Z</time>
      </trkpt>
      <trkpt lat="48.06602" lon="7.30244">
        <ele>215</ele>
        <time>2020-09-03T02:46:55Z</time>
      </trkpt>
      <trkpt lat="48.06742" lon="7.30164">
        <ele>218</ele>
        <time>2020-09-03T02:47:22Z</time>
      </trkpt>
      <trkpt lat="48.06772" lon="7.30144">
        <ele>218</ele>
        <time>2020-09-03T02:47:28Z</time>
      </trkpt>
      <trkpt lat="48.06839" lon="7.3009">
        <ele>219</ele>
        <time>2020-09-03T02:47:41Z</time>
      </trkpt>
      <trkpt lat="48.06848" lon="7.30085">
        <ele>219</ele>
        <time>2020-09-03T02:47:43Z</time>
      </trkpt>
      <trkpt lat="48.06848" lon="7.30066">
        <ele>219</ele>
        <time>2020-09-03T02:47:45Z</time>
      </trkpt>
      <trkpt lat="48.06855" lon="7.3003">
        <ele>219</ele>
        <time>2020-09-03T02:47:50Z</time>
      </trkpt>
      <trkpt lat="48.06933" lon="7.29796">
        <ele>221</ele>
        <time>2020-09-03T02:48:21Z</time>
      </trkpt>
      <trkpt lat="48.06942" lon="7.29761">
        <ele>221</ele>
        <time>2020-09-03T02:48:25Z</time>
      </trkpt>
      <trkpt lat="48.06984" lon="7.29633">
        <ele>223</ele>
        <time>2020-09-03T02:48:42Z</time>
      </trkpt>
      <trkpt lat="48.07077" lon="7.29682">
        <ele>224</ele>
        <time>2020-09-03T02:49:00Z</time>
      </trkpt>
      <trkpt lat="48.07086" lon="7.29678">
        <ele>224</ele>
        <time>2020-09-03T02:49:01Z</time>
      </trkpt>
      <trkpt lat="48.0709" lon="7.29688">
        <ele>224</ele>
        <time>2020-09-03T02:49:03Z</time>
      </trkpt>
      <trkpt lat="48.07086" lon="7.29701">
        <ele>224</ele>
        <time>2020-09-03T02:49:04Z</time>
      </trkpt>
      <trkpt lat="48.0713" lon="7.2973">
        <ele>223</ele>
        <time>2020-09-03T02:49:13Z</time>
      </trkpt>
      <trkpt lat="48.07148" lon="7.29739">
        <ele>222</ele>
        <time>2020-09-03T02:49:16Z</time>
      </trkpt>
      <trkpt lat="48.07154" lon="7.29738">
        <ele>222</ele>
        <time>2020-09-03T02:49:17Z</time>
      </trkpt>
      <trkpt lat="48.07193" lon="7.29705">
        <ele>222</ele>
        <time>2020-09-03T02:49:25Z</time>
      </trkpt>
      <trkpt lat="48.07331" lon="7.29571">
        <ele>225</ele>
        <time>2020-09-03T02:49:55Z</time>
      </trkpt>
      <trkpt lat="48.07415" lon="7.29508">
        <ele>225</ele>
        <time>2020-09-03T02:50:11Z</time>
      </trkpt>
      <trkpt lat="48.07415" lon="7.295">
        <ele>225</ele>
        <time>2020-09-03T02:50:12Z</time>
      </trkpt>
      <trkpt lat="48.0742" lon="7.2949">
        <ele>225</ele>
        <time>2020-09-03T02:50:14Z</time>
      </trkpt>
      <trkpt lat="48.07429" lon="7.2949">
        <ele>225</ele>
        <time>2020-09-03T02:50:15Z</time>
      </trkpt>
      <trkpt lat="48.07502" lon="7.29456">
        <ele>226</ele>
        <time>2020-09-03T02:50:29Z</time>
      </trkpt>
      <trkpt lat="48.07529" lon="7.29433">
        <ele>226</ele>
        <time>2020-09-03T02:50:35Z</time>
      </trkpt>
      <trkpt lat="48.07558" lon="7.294">
        <ele>227</ele>
        <time>2020-09-03T02:50:41Z</time>
      </trkpt>
      <trkpt lat="48.07573" lon="7.2938">
        <ele>227</ele>
        <time>2020-09-03T02:50:45Z</time>
      </trkpt>
      <trkpt lat="48.07584" lon="7.2936">
        <ele>227</ele>
        <time>2020-09-03T02:50:48Z</time>
      </trkpt>
      <trkpt lat="48.0759" lon="7.29336">
        <ele>228</ele>
        <time>2020-09-03T02:50:51Z</time>
      </trkpt>
      <trkpt lat="48.07596" lon="7.29332">
        <ele>228</ele>
        <time>2020-09-03T02:50:52Z</time>
      </trkpt>
      <trkpt lat="48.07614" lon="7.29305">
        <ele>228</ele>
        <time>2020-09-03T02:50:57Z</time>
      </trkpt>
      <trkpt lat="48.07681" lon="7.29189">
        <ele>228</ele>
        <time>2020-09-03T02:51:15Z</time>
      </trkpt>
      <trkpt lat="48.07868" lon="7.28976">
        <ele>231</ele>
        <time>2020-09-03T02:51:57Z</time>
      </trkpt>
      <trkpt lat="48.07952" lon="7.28884">
        <ele>231</ele>
        <time>2020-09-03T02:52:15Z</time>
      </trkpt>
      <trkpt lat="48.08021" lon="7.28793">
        <ele>231</ele>
        <time>2020-09-03T02:52:31Z</time>
      </trkpt>
      <trkpt lat="48.0816" lon="7.28621">
        <ele>232</ele>
        <time>2020-09-03T02:53:04Z</time>
      </trkpt>
      <trkpt lat="48.08194" lon="7.28521">
        <ele>234</ele>
        <time>2020-09-03T02:53:17Z</time>
      </trkpt>
      <trkpt lat="48.0822" lon="7.28463">
        <ele>235</ele>
        <time>2020-09-03T02:53:25Z</time>
      </trkpt>
      <trkpt lat="48.08242" lon="7.28422">
        <ele>235</ele>
        <time>2020-09-03T02:53:31Z</time>
      </trkpt>
      <trkpt lat="48.08257" lon="7.28404">
        <ele>235</ele>
        <time>2020-09-03T02:53:35Z</time>
      </trkpt>
      <trkpt lat="48.08291" lon="7.28377">
        <ele>235</ele>
        <time>2020-09-03T02:53:42Z</time>
      </trkpt>
      <trkpt lat="48.08301" lon="7.28372">
        <ele>235</ele>
        <time>2020-09-03T02:53:44Z</time>
      </trkpt>
      <trkpt lat="48.08309" lon="7.2836">
        <ele>235</ele>
        <time>2020-09-03T02:53:46Z</time>
      </trkpt>
      <trkpt lat="48.08331" lon="7.2824">
        <ele>235</ele>
        <time>2020-09-03T02:54:00Z</time>
      </trkpt>
      <trkpt lat="48.08343" lon="7.28199">
        <ele>236</ele>
        <time>2020-09-03T02:54:06Z</time>
      </trkpt>
      <trkpt lat="48.08344" lon="7.28181">
        <ele>236</ele>
        <time>2020-09-03T02:54:08Z</time>
      </trkpt>
      <trkpt lat="48.08364" lon="7.28172">
        <ele>236</ele>
        <time>2020-09-03T02:54:12Z</time>
      </trkpt>
      <trkpt lat="48.08496" lon="7.28136">
        <ele>234</ele>
        <time>2020-09-03T02:54:35Z</time>
      </trkpt>
      <trkpt lat="48.08499" lon="7.28129">
        <ele>234</ele>
        <time>2020-09-03T02:54:36Z</time>
      </trkpt>
      <trkpt lat="48.08519" lon="7.28118">
        <ele>234</ele>
        <time>2020-09-03T02:54:40Z</time>
      </trkpt>
      <trkpt lat="48.0853" lon="7.28079">
        <ele>234</ele>
        <time>2020-09-03T02:54:45Z</time>
      </trkpt>
      <trkpt lat="48.08543" lon="7.28056">
        <ele>234</ele>
        <time>2020-09-03T02:54:49Z</time>
      </trkpt>
      <trkpt lat="48.08549" lon="7.28035">
        <ele>234</ele>
        <time>2020-09-03T02:54:52Z</time>
      </trkpt>
      <trkpt lat="48.08567" lon="7.28025">
        <ele>234</ele>
        <time>2020-09-03T02:54:55Z</time>
      </trkpt>
      <trkpt lat="48.08584" lon="7.27993">
        <ele>234</ele>
        <time>2020-09-03T02:55:00Z</time>
      </trkpt>
      <trkpt lat="48.08585" lon="7.2801">
        <ele>234</ele>
        <time>2020-09-03T02:55:02Z</time>
      </trkpt>
      <trkpt lat="48.08625" lon="7.27941">
        <ele>236</ele>
        <time>2020-09-03T02:55:13Z</time>
      </trkpt>
      <trkpt lat="48.08638" lon="7.27972">
        <ele>235</ele>
        <time>2020-09-03T02:55:17Z</time>
      </trkpt>
      <trkpt lat="48.08643" lon="7.27979">
        <ele>235</ele>
        <time>2020-09-03T02:55:18Z</time>
      </trkpt>
      <trkpt lat="48.08675" lon="7.2801">
        <ele>235</ele>
        <time>2020-09-03T02:55:25Z</time>
      </trkpt>
      <trkpt lat="48.08677" lon="7.2802">
        <ele>235</ele>
        <time>2020-09-03T02:55:26Z</time>
      </trkpt>
      <trkpt lat="48.08636" lon="7.2805">
        <ele>235</ele>
        <time>2020-09-03T02:55:34Z</time>
      </trkpt>
      <trkpt lat="48.08693" lon="7.2826">
        <ele>232</ele>
        <time>2020-09-03T02:56:01Z</time>
      </trkpt>
      <trkpt lat="48.08718" lon="7.28325">
        <ele>232</ele>
        <time>2020-09-03T02:56:10Z</time>
      </trkpt>
      <trkpt lat="48.08736" lon="7.28386">
        <ele>232</ele>
        <time>2020-09-03T02:56:18Z</time>
      </trkpt>
      <trkpt lat="48.08765" lon="7.28499">
        <ele>230</ele>
        <time>2020-09-03T02:56:33Z</time>
      </trkpt>
      <trkpt lat="48.08821" lon="7.2865">
        <ele>229</ele>
        <time>2020-09-03T02:56:53Z</time>
      </trkpt>
      <trkpt lat="48.08858" lon="7.28736">
        <ele>228</ele>
        <time>2020-09-03T02:57:05Z</time>
      </trkpt>
      <trkpt lat="48.08884" lon="7.28757">
        <ele>228</ele>
        <time>2020-09-03T02:57:11Z</time>
      </trkpt>
      <trkpt lat="48.08899" lon="7.28883">
        <ele>227</ele>
        <time>2020-09-03T02:57:26Z</time>
      </trkpt>
      <trkpt lat="48.09012" lon="7.29158">
        <ele>228</ele>
        <time>2020-09-03T02:58:04Z</time>
      </trkpt>
      <trkpt lat="48.0907" lon="7.2934">
        <ele>227</ele>
        <time>2020-09-03T02:58:28Z</time>
      </trkpt>
      <trkpt lat="48.09086" lon="7.29408">
        <ele>227</ele>
        <time>2020-09-03T02:58:37Z</time>
      </trkpt>
      <trkpt lat="48.09128" lon="7.29513">
        <ele>231</ele>
        <time>2020-09-03T02:58:51Z</time>
      </trkpt>
      <trkpt lat="48.09144" lon="7.2957">
        <ele>227</ele>
        <time>2020-09-03T02:58:59Z</time>
      </trkpt>
      <trkpt lat="48.0922" lon="7.29762">
        <ele>230</ele>
        <time>2020-09-03T02:59:25Z</time>
      </trkpt>
      <trkpt lat="48.09272" lon="7.29834">
        <ele>229</ele>
        <time>2020-09-03T02:59:38Z</time>
      </trkpt>
      <trkpt lat="48.09313" lon="7.29923">
        <ele>224</ele>
        <time>2020-09-03T02:59:50Z</time>
      </trkpt>
      <trkpt lat="48.09306" lon="7.29928">
        <ele>224</ele>
        <time>2020-09-03T02:59:52Z</time>
      </trkpt>
      <trkpt lat="48.09298" lon="7.29929">
        <ele>223</ele>
        <time>2020-09-03T02:59:53Z</time>
      </trkpt>
      <trkpt lat="48.09292" lon="7.29923">
        <ele>223</ele>
        <time>2020-09-03T02:59:55Z</time>
      </trkpt>
      <trkpt lat="48.09277" lon="7.29888">
        <ele>225</ele>
        <time>2020-09-03T03:00:00Z</time>
      </trkpt>
      <trkpt lat="48.0927" lon="7.29887">
        <ele>225</ele>
        <time>2020-09-03T03:00:01Z</time>
      </trkpt>
      <trkpt lat="48.09239" lon="7.29912">
        <ele>221</ele>
        <time>2020-09-03T03:00:07Z</time>
      </trkpt>
      <trkpt lat="48.09245" lon="7.29935">
        <ele>220</ele>
        <time>2020-09-03T03:00:10Z</time>
      </trkpt>
      <trkpt lat="48.09325" lon="7.30139">
        <ele>218</ele>
        <time>2020-09-03T03:00:38Z</time>
      </trkpt>
      <trkpt lat="48.09357" lon="7.30233">
        <ele>217</ele>
        <time>2020-09-03T03:00:51Z</time>
      </trkpt>
      <trkpt lat="48.09415" lon="7.30377">
        <ele>216</ele>
        <time>2020-09-03T03:01:11Z</time>
      </trkpt>
      <trkpt lat="48.09449" lon="7.30449">
        <ele>218</ele>
        <time>2020-09-03T03:01:21Z</time>
      </trkpt>
      <trkpt lat="48.09478" lon="7.30522">
        <ele>219</ele>
        <time>2020-09-03T03:01:31Z</time>
      </trkpt>
      <trkpt lat="48.09487" lon="7.30532">
        <ele>219</ele>
        <time>2020-09-03T03:01:33Z</time>
      </trkpt>
      <trkpt lat="48.09495" lon="7.30547">
        <ele>218</ele>
        <time>2020-09-03T03:01:35Z</time>
      </trkpt>
      <trkpt lat="48.09499" lon="7.30566">
        <ele>218</ele>
        <time>2020-09-03T03:01:38Z</time>
      </trkpt>
      <trkpt lat="48.09529" lon="7.30623">
        <ele>216</ele>
        <time>2020-09-03T03:01:46Z</time>
      </trkpt>
      <trkpt lat="48.09506" lon="7.30656">
        <ele>216</ele>
        <time>2020-09-03T03:01:52Z</time>
      </trkpt>
      <trkpt lat="48.09764" lon="7.31103">
        <ele>212</ele>
        <time>2020-09-03T03:03:02Z</time>
      </trkpt>
      <trkpt lat="48.09716" lon="7.3117">
        <ele>212</ele>
        <time>2020-09-03T03:03:14Z</time>
      </trkpt>
      <trkpt lat="48.09755" lon="7.31269">
        <ele>211</ele>
        <time>2020-09-03T03:03:28Z</time>
      </trkpt>
      <trkpt lat="48.09762" lon="7.31295">
        <ele>211</ele>
        <time>2020-09-03T03:03:31Z</time>
      </trkpt>
      <trkpt lat="48.0977" lon="7.31307">
        <ele>211</ele>
        <time>2020-09-03T03:03:33Z</time>
      </trkpt>
      <trkpt lat="48.09784" lon="7.31316">
        <ele>212</ele>
        <time>2020-09-03T03:03:36Z</time>
      </trkpt>
      <trkpt lat="48.09863" lon="7.31475">
        <ele>210</ele>
        <time>2020-09-03T03:03:59Z</time>
      </trkpt>
      <trkpt lat="48.09876" lon="7.31503">
        <ele>209</ele>
        <time>2020-09-03T03:04:03Z</time>
      </trkpt>
      <trkpt lat="48.09922" lon="7.31624">
        <ele>209</ele>
        <time>2020-09-03T03:04:20Z</time>
      </trkpt>
      <trkpt lat="48.09943" lon="7.31662">
        <ele>208</ele>
        <time>2020-09-03T03:04:26Z</time>
      </trkpt>
      <trkpt lat="48.09996" lon="7.31724">
        <ele>208</ele>
        <time>2020-09-03T03:04:38Z</time>
      </trkpt>
      <trkpt lat="48.10011" lon="7.31676">
        <ele>209</ele>
        <time>2020-09-03T03:04:44Z</time>
      </trkpt>
      <trkpt lat="48.10031" lon="7.31571">
        <ele>210</ele>
        <time>2020-09-03T03:04:57Z</time>
      </trkpt>
      <trkpt lat="48.10062" lon="7.31487">
        <ele>210</ele>
        <time>2020-09-03T03:05:08Z</time>
      </trkpt>
      <trkpt lat="48.10103" lon="7.31316">
        <ele>210</ele>
        <time>2020-09-03T03:05:30Z</time>
      </trkpt>
      <trkpt lat="48.10146" lon="7.31351">
        <ele>208</ele>
        <time>2020-09-03T03:05:39Z</time>
      </trkpt>
      <trkpt lat="48.10196" lon="7.31292">
        <ele>207</ele>
        <time>2020-09-03T03:05:50Z</time>
      </trkpt>
      <trkpt lat="48.10247" lon="7.31196">
        <ele>207</ele>
        <time>2020-09-03T03:06:05Z</time>
      </trkpt>
      <trkpt lat="48.10322" lon="7.30917">
        <ele>207</ele>
        <time>2020-09-03T03:06:40Z</time>
      </trkpt>
      <trkpt lat="48.10344" lon="7.30792">
        <ele>207</ele>
        <time>2020-09-03T03:06:56Z</time>
      </trkpt>
      <trkpt lat="48.10359" lon="7.30752">
        <ele>208</ele>
        <time>2020-09-03T03:07:01Z</time>
      </trkpt>
      <trkpt lat="48.10379" lon="7.3071">
        <ele>208</ele>
        <time>2020-09-03T03:07:07Z</time>
      </trkpt>
      <trkpt lat="48.10401" lon="7.30687">
        <ele>208</ele>
        <time>2020-09-03T03:07:12Z</time>
      </trkpt>
      <trkpt lat="48.10421" lon="7.30672">
        <ele>208</ele>
        <time>2020-09-03T03:07:16Z</time>
      </trkpt>
      <trkpt lat="48.10555" lon="7.30743">
        <ele>205</ele>
        <time>2020-09-03T03:07:41Z</time>
      </trkpt>
      <trkpt lat="48.10681" lon="7.30837">
        <ele>204</ele>
        <time>2020-09-03T03:08:06Z</time>
      </trkpt>
      <trkpt lat="48.10747" lon="7.30863">
        <ele>203</ele>
        <time>2020-09-03T03:08:18Z</time>
      </trkpt>
      <trkpt lat="48.11065" lon="7.31104">
        <ele>202</ele>
        <time>2020-09-03T03:09:22Z</time>
      </trkpt>
      <trkpt lat="48.11217" lon="7.31148">
        <ele>200</ele>
        <time>2020-09-03T03:09:49Z</time>
      </trkpt>
      <trkpt lat="48.1135" lon="7.31173">
        <ele>200</ele>
        <time>2020-09-03T03:10:13Z</time>
      </trkpt>
      <trkpt lat="48.11448" lon="7.31229">
        <ele>198</ele>
        <time>2020-09-03T03:10:32Z</time>
      </trkpt>
      <trkpt lat="48.11589" lon="7.31305">
        <ele>197</ele>
        <time>2020-09-03T03:10:59Z</time>
      </trkpt>
      <trkpt lat="48.11602" lon="7.31307">
        <ele>197</ele>
        <time>2020-09-03T03:11:01Z</time>
      </trkpt>
      <trkpt lat="48.11734" lon="7.31399">
        <ele>198</ele>
        <time>2020-09-03T03:11:27Z</time>
      </trkpt>
      <trkpt lat="48.11785" lon="7.31417">
        <ele>198</ele>
        <time>2020-09-03T03:11:36Z</time>
      </trkpt>
      <trkpt lat="48.11942" lon="7.31502">
        <ele>198</ele>
        <time>2020-09-03T03:12:06Z</time>
      </trkpt>
      <trkpt lat="48.12009" lon="7.31525">
        <ele>198</ele>
        <time>2020-09-03T03:12:18Z</time>
      </trkpt>
      <trkpt lat="48.12009" lon="7.31555">
        <ele>197</ele>
        <time>2020-09-03T03:12:22Z</time>
      </trkpt>
      <trkpt lat="48.12398" lon="7.31699">
        <ele>198</ele>
        <time>2020-09-03T03:13:33Z</time>
      </trkpt>
      <trkpt lat="48.12296" lon="7.32216">
        <ele>195</ele>
        <time>2020-09-03T03:14:37Z</time>
      </trkpt>
      <trkpt lat="48.12302" lon="7.32222">
        <ele>194</ele>
        <time>2020-09-03T03:14:38Z</time>
      </trkpt>
      <trkpt lat="48.12365" lon="7.32232">
        <ele>195</ele>
        <time>2020-09-03T03:14:50Z</time>
      </trkpt>
      <trkpt lat="48.1251" lon="7.32262">
        <ele>196</ele>
        <time>2020-09-03T03:15:16Z</time>
      </trkpt>
      <trkpt lat="48.1252" lon="7.32173">
        <ele>196</ele>
        <time>2020-09-03T03:15:26Z</time>
      </trkpt>
      <trkpt lat="48.12527" lon="7.32166">
        <ele>196</ele>
        <time>2020-09-03T03:15:28Z</time>
      </trkpt>
      <trkpt lat="48.12715" lon="7.32193">
        <ele>196</ele>
        <time>2020-09-03T03:16:01Z</time>
      </trkpt>
      <trkpt lat="48.12729" lon="7.32198">
        <ele>196</ele>
        <time>2020-09-03T03:16:04Z</time>
      </trkpt>
      <trkpt lat="48.12736" lon="7.32167">
        <ele>196</ele>
        <time>2020-09-03T03:16:08Z</time>
      </trkpt>
      <trkpt lat="48.1274" lon="7.32106">
        <ele>196</ele>
        <time>2020-09-03T03:16:15Z</time>
      </trkpt>
      <trkpt lat="48.12752" lon="7.32023">
        <ele>198</ele>
        <time>2020-09-03T03:16:25Z</time>
      </trkpt>
      <trkpt lat="48.12789" lon="7.31881">
        <ele>199</ele>
        <time>2020-09-03T03:16:43Z</time>
      </trkpt>
      <trkpt lat="48.12867" lon="7.31695">
        <ele>199</ele>
        <time>2020-09-03T03:17:09Z</time>
      </trkpt>
      <trkpt lat="48.12876" lon="7.31647">
        <ele>200</ele>
        <time>2020-09-03T03:17:15Z</time>
      </trkpt>
      <trkpt lat="48.12896" lon="7.31445">
        <ele>201</ele>
        <time>2020-09-03T03:17:40Z</time>
      </trkpt>
      <trkpt lat="48.12908" lon="7.314">
        <ele>201</ele>
        <time>2020-09-03T03:17:45Z</time>
      </trkpt>
      <trkpt lat="48.12965" lon="7.31094">
        <ele>203</ele>
        <time>2020-09-03T03:18:23Z</time>
      </trkpt>
      <trkpt lat="48.12968" lon="7.31009">
        <ele>204</ele>
        <time>2020-09-03T03:18:33Z</time>
      </trkpt>
      <trkpt lat="48.13011" lon="7.31013">
        <ele>204</ele>
        <time>2020-09-03T03:18:41Z</time>
      </trkpt>
      <trkpt lat="48.13015" lon="7.30855">
        <ele>204</ele>
        <time>2020-09-03T03:19:00Z</time>
      </trkpt>
      <trkpt lat="48.12996" lon="7.30738">
        <ele>205</ele>
        <time>2020-09-03T03:19:14Z</time>
      </trkpt>
      <trkpt lat="48.12993" lon="7.3065">
        <ele>206</ele>
        <time>2020-09-03T03:19:24Z</time>
      </trkpt>
      <trkpt lat="48.12995" lon="7.30575">
        <ele>206</ele>
        <time>2020-09-03T03:19:33Z</time>
      </trkpt>
      <trkpt lat="48.13028" lon="7.30228">
        <ele>209</ele>
        <time>2020-09-03T03:20:15Z</time>
      </trkpt>
      <trkpt lat="48.13017" lon="7.30144">
        <ele>210</ele>
        <time>2020-09-03T03:20:25Z</time>
      </trkpt>
      <trkpt lat="48.13002" lon="7.30111">
        <ele>211</ele>
        <time>2020-09-03T03:20:30Z</time>
      </trkpt>
      <trkpt lat="48.13028" lon="7.30097">
        <ele>211</ele>
        <time>2020-09-03T03:20:35Z</time>
      </trkpt>
      <trkpt lat="48.13048" lon="7.30094">
        <ele>211</ele>
        <time>2020-09-03T03:20:38Z</time>
      </trkpt>
      <trkpt lat="48.13147" lon="7.30089">
        <ele>211</ele>
        <time>2020-09-03T03:20:56Z</time>
      </trkpt>
      <trkpt lat="48.13169" lon="7.30083">
        <ele>212</ele>
        <time>2020-09-03T03:21:00Z</time>
      </trkpt>
      <trkpt lat="48.13203" lon="7.30069">
        <ele>211</ele>
        <time>2020-09-03T03:21:06Z</time>
      </trkpt>
      <trkpt lat="48.1326" lon="7.30039">
        <ele>211</ele>
        <time>2020-09-03T03:21:17Z</time>
      </trkpt>
      <trkpt lat="48.13275" lon="7.30037">
        <ele>212</ele>
        <time>2020-09-03T03:21:20Z</time>
      </trkpt>
      <trkpt lat="48.13308" lon="7.30046">
        <ele>213</ele>
        <time>2020-09-03T03:21:26Z</time>
      </trkpt>
      <trkpt lat="48.13317" lon="7.30038">
        <ele>213</ele>
        <time>2020-09-03T03:21:27Z</time>
      </trkpt>
      <trkpt lat="48.13346" lon="7.30029">
        <ele>214</ele>
        <time>2020-09-03T03:21:33Z</time>
      </trkpt>
      <trkpt lat="48.1342" lon="7.30012">
        <ele>215</ele>
        <time>2020-09-03T03:21:46Z</time>
      </trkpt>
      <trkpt lat="48.13437" lon="7.30006">
        <ele>215</ele>
        <time>2020-09-03T03:21:49Z</time>
      </trkpt>
      <trkpt lat="48.13547" lon="7.29992">
        <ele>216</ele>
        <time>2020-09-03T03:22:09Z</time>
      </trkpt>
      <trkpt lat="48.13606" lon="7.30003">
        <ele>217</ele>
        <time>2020-09-03T03:22:19Z</time>
      </trkpt>
      <trkpt lat="48.1359" lon="7.30187">
        <ele>215</ele>
        <time>2020-09-03T03:22:41Z</time>
      </trkpt>
      <trkpt lat="48.13561" lon="7.30306">
        <ele>213</ele>
        <time>2020-09-03T03:22:56Z</time>
      </trkpt>
      <trkpt lat="48.13549" lon="7.30378">
        <ele>214</ele>
        <time>2020-09-03T03:23:05Z</time>
      </trkpt>
      <trkpt lat="48.13533" lon="7.30657">
        <ele>211</ele>
        <time>2020-09-03T03:23:39Z</time>
      </trkpt>
      <trkpt lat="48.13522" lon="7.3074">
        <ele>211</ele>
        <time>2020-09-03T03:23:49Z</time>
      </trkpt>
      <trkpt lat="48.13515" lon="7.30868">
        <ele>210</ele>
        <time>2020-09-03T03:24:04Z</time>
      </trkpt>
      <trkpt lat="48.13492" lon="7.31002">
        <ele>208</ele>
        <time>2020-09-03T03:24:20Z</time>
      </trkpt>
      <trkpt lat="48.13489" lon="7.31126">
        <ele>210</ele>
        <time>2020-09-03T03:24:35Z</time>
      </trkpt>
      <trkpt lat="48.13464" lon="7.31208">
        <ele>209</ele>
        <time>2020-09-03T03:24:46Z</time>
      </trkpt>
      <trkpt lat="48.13438" lon="7.31359">
        <ele>205</ele>
        <time>2020-09-03T03:25:04Z</time>
      </trkpt>
      <trkpt lat="48.13429" lon="7.31482">
        <ele>206</ele>
        <time>2020-09-03T03:25:19Z</time>
      </trkpt>
      <trkpt lat="48.13404" lon="7.31566">
        <ele>203</ele>
        <time>2020-09-03T03:25:30Z</time>
      </trkpt>
      <trkpt lat="48.13399" lon="7.31591">
        <ele>203</ele>
        <time>2020-09-03T03:25:33Z</time>
      </trkpt>
      <trkpt lat="48.13396" lon="7.31622">
        <ele>202</ele>
        <time>2020-09-03T03:25:37Z</time>
      </trkpt>
      <trkpt lat="48.13396" lon="7.31782">
        <ele>201</ele>
        <time>2020-09-03T03:25:56Z</time>
      </trkpt>
      <trkpt lat="48.1341" lon="7.31866">
        <ele>200</ele>
        <time>2020-09-03T03:26:06Z</time>
      </trkpt>
      <trkpt lat="48.13412" lon="7.31893">
        <ele>199</ele>
        <time>2020-09-03T03:26:09Z</time>
      </trkpt>
      <trkpt lat="48.13581" lon="7.32093">
        <ele>204</ele>
        <time>2020-09-03T03:26:47Z</time>
      </trkpt>
      <trkpt lat="48.13657" lon="7.32201">
        <ele>207</ele>
        <time>2020-09-03T03:27:06Z</time>
      </trkpt>
      <trkpt lat="48.13676" lon="7.32223">
        <ele>207</ele>
        <time>2020-09-03T03:27:10Z</time>
      </trkpt>
      <trkpt lat="48.13736" lon="7.32277">
        <ele>208</ele>
        <time>2020-09-03T03:27:23Z</time>
      </trkpt>
      <trkpt lat="48.13761" lon="7.32306">
        <ele>207</ele>
        <time>2020-09-03T03:27:28Z</time>
      </trkpt>
      <trkpt lat="48.13806" lon="7.32394">
        <ele>204</ele>
        <time>2020-09-03T03:27:42Z</time>
      </trkpt>
      <trkpt lat="48.13834" lon="7.32432">
        <ele>203</ele>
        <time>2020-09-03T03:27:48Z</time>
      </trkpt>
      <trkpt lat="48.13874" lon="7.32472">
        <ele>204</ele>
        <time>2020-09-03T03:27:57Z</time>
      </trkpt>
      <trkpt lat="48.13915" lon="7.32508">
        <ele>203</ele>
        <time>2020-09-03T03:28:05Z</time>
      </trkpt>
      <trkpt lat="48.13933" lon="7.32517">
        <ele>203</ele>
        <time>2020-09-03T03:28:09Z</time>
      </trkpt>
      <trkpt lat="48.13958" lon="7.32525">
        <ele>203</ele>
        <time>2020-09-03T03:28:13Z</time>
      </trkpt>
      <trkpt lat="48.1397" lon="7.32543">
        <ele>203</ele>
        <time>2020-09-03T03:28:16Z</time>
      </trkpt>
      <trkpt lat="48.1412" lon="7.32665">
        <ele>199</ele>
        <time>2020-09-03T03:28:47Z</time>
      </trkpt>
      <trkpt lat="48.14177" lon="7.32706">
        <ele>197</ele>
        <time>2020-09-03T03:28:58Z</time>
      </trkpt>
      <trkpt lat="48.14271" lon="7.32764">
        <ele>196</ele>
        <time>2020-09-03T03:29:16Z</time>
      </trkpt>
      <trkpt lat="48.14333" lon="7.32813">
        <ele>196</ele>
        <time>2020-09-03T03:29:28Z</time>
      </trkpt>
      <trkpt lat="48.1442" lon="7.3295">
        <ele>194</ele>
        <time>2020-09-03T03:29:51Z</time>
      </trkpt>
      <trkpt lat="48.14474" lon="7.3302">
        <ele>195</ele>
        <time>2020-09-03T03:30:04Z</time>
      </trkpt>
      <trkpt lat="48.14549" lon="7.33099">
        <ele>194</ele>
        <time>2020-09-03T03:30:20Z</time>
      </trkpt>
      <trkpt lat="48.14596" lon="7.33161">
        <ele>194</ele>
        <time>2020-09-03T03:30:31Z</time>
      </trkpt>
      <trkpt lat="48.14653" lon="7.33223">
        <ele>195</ele>
        <time>2020-09-03T03:30:44Z</time>
      </trkpt>
      <trkpt lat="48.14678" lon="7.33238">
        <ele>196</ele>
        <time>2020-09-03T03:30:48Z</time>
      </trkpt>
      <trkpt lat="48.147" lon="7.33258">
        <ele>196</ele>
        <time>2020-09-03T03:30:53Z</time>
      </trkpt>
      <trkpt lat="48.14723" lon="7.33285">
        <ele>195</ele>
        <time>2020-09-03T03:30:58Z</time>
      </trkpt>
      <trkpt lat="48.14828" lon="7.33467">
        <ele>193</ele>
        <time>2020-09-03T03:31:27Z</time>
      </trkpt>
      <trkpt lat="48.14859" lon="7.33504">
        <ele>193</ele>
        <time>2020-09-03T03:31:34Z</time>
      </trkpt>
      <trkpt lat="48.14891" lon="7.33525">
        <ele>194</ele>
        <time>2020-09-03T03:31:40Z</time>
      </trkpt>
      <trkpt lat="48.14927" lon="7.33543">
        <ele>196</ele>
        <time>2020-09-03T03:31:47Z</time>
      </trkpt>
      <trkpt lat="48.14981" lon="7.33579">
        <ele>197</ele>
        <time>2020-09-03T03:31:57Z</time>
      </trkpt>
      <trkpt lat="48.15067" lon="7.33646">
        <ele>197</ele>
        <time>2020-09-03T03:32:15Z</time>
      </trkpt>
      <trkpt lat="48.15101" lon="7.33669">
        <ele>197</ele>
        <time>2020-09-03T03:32:21Z</time>
      </trkpt>
      <trkpt lat="48.15149" lon="7.33692">
        <ele>197</ele>
        <time>2020-09-03T03:32:30Z</time>
      </trkpt>
      <trkpt lat="48.15281" lon="7.33749">
        <ele>200</ele>
        <time>2020-09-03T03:32:55Z</time>
      </trkpt>
      <trkpt lat="48.1531" lon="7.33767">
        <ele>200</ele>
        <time>2020-09-03T03:33:00Z</time>
      </trkpt>
      <trkpt lat="48.15374" lon="7.33813">
        <ele>198</ele>
        <time>2020-09-03T03:33:13Z</time>
      </trkpt>
      <trkpt lat="48.15399" lon="7.33812">
        <ele>198</ele>
        <time>2020-09-03T03:33:17Z</time>
      </trkpt>
      <trkpt lat="48.15422" lon="7.33824">
        <ele>197</ele>
        <time>2020-09-03T03:33:22Z</time>
      </trkpt>
      <trkpt lat="48.15442" lon="7.33831">
        <ele>197</ele>
        <time>2020-09-03T03:33:25Z</time>
      </trkpt>
      <trkpt lat="48.15551" lon="7.33859">
        <ele>192</ele>
        <time>2020-09-03T03:33:45Z</time>
      </trkpt>
      <trkpt lat="48.15615" lon="7.33879">
        <ele>189</ele>
        <time>2020-09-03T03:33:57Z</time>
      </trkpt>
      <trkpt lat="48.15686" lon="7.33908">
        <ele>185</ele>
        <time>2020-09-03T03:34:10Z</time>
      </trkpt>
      <trkpt lat="48.15708" lon="7.33922">
        <ele>184</ele>
        <time>2020-09-03T03:34:14Z</time>
      </trkpt>
      <trkpt lat="48.15736" lon="7.33946">
        <ele>183</ele>
        <time>2020-09-03T03:34:20Z</time>
      </trkpt>
      <trkpt lat="48.15782" lon="7.33999">
        <ele>182</ele>
        <time>2020-09-03T03:34:30Z</time>
      </trkpt>
      <trkpt lat="48.15881" lon="7.34055">
        <ele>181</ele>
        <time>2020-09-03T03:34:49Z</time>
      </trkpt>
      <trkpt lat="48.16063" lon="7.34137">
        <ele>180</ele>
        <time>2020-09-03T03:35:23Z</time>
      </trkpt>
      <trkpt lat="48.16084" lon="7.34131">
        <ele>179</ele>
        <time>2020-09-03T03:35:26Z</time>
      </trkpt>
      <trkpt lat="48.16109" lon="7.3414">
        <ele>180</ele>
        <time>2020-09-03T03:35:31Z</time>
      </trkpt>
      <trkpt lat="48.16131" lon="7.34144">
        <ele>180</ele>
        <time>2020-09-03T03:35:35Z</time>
      </trkpt>
      <trkpt lat="48.16155" lon="7.34134">
        <ele>181</ele>
        <time>2020-09-03T03:35:39Z</time>
      </trkpt>
      <trkpt lat="48.16169" lon="7.3414">
        <ele>181</ele>
        <time>2020-09-03T03:35:42Z</time>
      </trkpt>
      <trkpt lat="48.1632" lon="7.34215">
        <ele>181</ele>
        <time>2020-09-03T03:36:10Z</time>
      </trkpt>
      <trkpt lat="48.16596" lon="7.34367">
        <ele>181</ele>
        <time>2020-09-03T03:37:03Z</time>
      </trkpt>
      <trkpt lat="48.16715" lon="7.34426">
        <ele>182</ele>
        <time>2020-09-03T03:37:25Z</time>
      </trkpt>
      <trkpt lat="48.16835" lon="7.34502">
        <ele>181</ele>
        <time>2020-09-03T03:37:48Z</time>
      </trkpt>
      <trkpt lat="48.16894" lon="7.3455">
        <ele>182</ele>
        <time>2020-09-03T03:38:00Z</time>
      </trkpt>
      <trkpt lat="48.16973" lon="7.34631">
        <ele>183</ele>
        <time>2020-09-03T03:38:17Z</time>
      </trkpt>
      <trkpt lat="48.17159" lon="7.34812">
        <ele>183</ele>
        <time>2020-09-03T03:38:56Z</time>
      </trkpt>
      <trkpt lat="48.17278" lon="7.34895">
        <ele>184</ele>
        <time>2020-09-03T03:39:20Z</time>
      </trkpt>
      <trkpt lat="48.17359" lon="7.34958">
        <ele>186</ele>
        <time>2020-09-03T03:39:36Z</time>
      </trkpt>
      <trkpt lat="48.17517" lon="7.35096">
        <ele>187</ele>
        <time>2020-09-03T03:40:09Z</time>
      </trkpt>
      <trkpt lat="48.17584" lon="7.35142">
        <ele>188</ele>
        <time>2020-09-03T03:40:22Z</time>
      </trkpt>
      <trkpt lat="48.17641" lon="7.35177">
        <ele>189</ele>
        <time>2020-09-03T03:40:33Z</time>
      </trkpt>
      <trkpt lat="48.17657" lon="7.35195">
        <ele>189</ele>
        <time>2020-09-03T03:40:36Z</time>
      </trkpt>
      <trkpt lat="48.17753" lon="7.35251">
        <ele>189</ele>
        <time>2020-09-03T03:40:55Z</time>
      </trkpt>
      <trkpt lat="48.1776" lon="7.35258">
        <ele>189</ele>
        <time>2020-09-03T03:40:56Z</time>
      </trkpt>
      <trkpt lat="48.17787" lon="7.35302">
        <ele>190</ele>
        <time>2020-09-03T03:41:03Z</time>
      </trkpt>
      <trkpt lat="48.17805" lon="7.35322">
        <ele>191</ele>
        <time>2020-09-03T03:41:07Z</time>
      </trkpt>
      <trkpt lat="48.17844" lon="7.35337">
        <ele>192</ele>
        <time>2020-09-03T03:41:14Z</time>
      </trkpt>
      <trkpt lat="48.17868" lon="7.35349">
        <ele>192</ele>
        <time>2020-09-03T03:41:19Z</time>
      </trkpt>
      <trkpt lat="48.17954" lon="7.35405">
        <ele>191</ele>
        <time>2020-09-03T03:41:35Z</time>
      </trkpt>
      <trkpt lat="48.18082" lon="7.35481">
        <ele>190</ele>
        <time>2020-09-03T03:42:00Z</time>
      </trkpt>
      <trkpt lat="48.18105" lon="7.3549">
        <ele>191</ele>
        <time>2020-09-03T03:42:04Z</time>
      </trkpt>
      <trkpt lat="48.18205" lon="7.3551">
        <ele>193</ele>
        <time>2020-09-03T03:42:22Z</time>
      </trkpt>
      <trkpt lat="48.1825" lon="7.35528">
        <ele>195</ele>
        <time>2020-09-03T03:42:30Z</time>
      </trkpt>
      <trkpt lat="48.18292" lon="7.35548">
        <ele>195</ele>
        <time>2020-09-03T03:42:38Z</time>
      </trkpt>
      <trkpt lat="48.18344" lon="7.35586">
        <ele>195</ele>
        <time>2020-09-03T03:42:49Z</time>
      </trkpt>
      <trkpt lat="48.18425" lon="7.35653">
        <ele>195</ele>
        <time>2020-09-03T03:43:05Z</time>
      </trkpt>
      <trkpt lat="48.18455" lon="7.35675">
        <ele>194</ele>
        <time>2020-09-03T03:43:11Z</time>
      </trkpt>
      <trkpt lat="48.18525" lon="7.35737">
        <ele>193</ele>
        <time>2020-09-03T03:43:25Z</time>
      </trkpt>
      <trkpt lat="48.18746" lon="7.35899">
        <ele>194</ele>
        <time>2020-09-03T03:44:09Z</time>
      </trkpt>
      <trkpt lat="48.18901" lon="7.36004">
        <ele>192</ele>
        <time>2020-09-03T03:44:39Z</time>
      </trkpt>
      <trkpt lat="48.19132" lon="7.36236">
        <ele>191</ele>
        <time>2020-09-03T03:45:29Z</time>
      </trkpt>
      <trkpt lat="48.19242" lon="7.36312">
        <ele>189</ele>
        <time>2020-09-03T03:45:50Z</time>
      </trkpt>
      <trkpt lat="48.19312" lon="7.36355">
        <ele>189</ele>
        <time>2020-09-03T03:46:04Z</time>
      </trkpt>
      <trkpt lat="48.19329" lon="7.36372">
        <ele>188</ele>
        <time>2020-09-03T03:46:08Z</time>
      </trkpt>
      <trkpt lat="48.19433" lon="7.36416">
        <ele>187</ele>
        <time>2020-09-03T03:46:27Z</time>
      </trkpt>
      <trkpt lat="48.19436" lon="7.36397">
        <ele>188</ele>
        <time>2020-09-03T03:46:29Z</time>
      </trkpt>
      <trkpt lat="48.1975" lon="7.3654">
        <ele>191</ele>
        <time>2020-09-03T03:47:27Z</time>
      </trkpt>
      <trkpt lat="48.19773" lon="7.36553">
        <ele>191</ele>
        <time>2020-09-03T03:47:32Z</time>
      </trkpt>
      <trkpt lat="48.19836" lon="7.3661">
        <ele>191</ele>
        <time>2020-09-03T03:47:45Z</time>
      </trkpt>
      <trkpt lat="48.19863" lon="7.36641">
        <ele>192</ele>
        <time>2020-09-03T03:47:51Z</time>
      </trkpt>
      <trkpt lat="48.1994" lon="7.36754">
        <ele>195</ele>
        <time>2020-09-03T03:48:10Z</time>
      </trkpt>
      <trkpt lat="48.19939" lon="7.36787">
        <ele>194</ele>
        <time>2020-09-03T03:48:14Z</time>
      </trkpt>
      <trkpt lat="48.19941" lon="7.36793">
        <ele>194</ele>
        <time>2020-09-03T03:48:15Z</time>
      </trkpt>
      <trkpt lat="48.19959" lon="7.36807">
        <ele>195</ele>
        <time>2020-09-03T03:48:18Z</time>
      </trkpt>
      <trkpt lat="48.20037" lon="7.3688">
        <ele>195</ele>
        <time>2020-09-03T03:48:35Z</time>
      </trkpt>
      <trkpt lat="48.20122" lon="7.36952">
        <ele>196</ele>
        <time>2020-09-03T03:48:52Z</time>
      </trkpt>
      <trkpt lat="48.20188" lon="7.36998">
        <ele>197</ele>
        <time>2020-09-03T03:49:05Z</time>
      </trkpt>
      <trkpt lat="48.2019" lon="7.37032">
        <ele>196</ele>
        <time>2020-09-03T03:49:09Z</time>
      </trkpt>
      <trkpt lat="48.20193" lon="7.37041">
        <ele>196</ele>
        <time>2020-09-03T03:49:10Z</time>
      </trkpt>
      <trkpt lat="48.20501" lon="7.37177">
        <ele>196</ele>
        <time>2020-09-03T03:50:08Z</time>
      </trkpt>
      <trkpt lat="48.20539" lon="7.3719">
        <ele>195</ele>
        <time>2020-09-03T03:50:14Z</time>
      </trkpt>
      <trkpt lat="48.20563" lon="7.37368">
        <ele>195</ele>
        <time>2020-09-03T03:50:36Z</time>
      </trkpt>
      <trkpt lat="48.20576" lon="7.37393">
        <ele>194</ele>
        <time>2020-09-03T03:50:40Z</time>
      </trkpt>
      <trkpt lat="48.20611" lon="7.37445">
        <ele>193</ele>
        <time>2020-09-03T03:50:49Z</time>
      </trkpt>
      <trkpt lat="48.20628" lon="7.37447">
        <ele>193</ele>
        <time>2020-09-03T03:50:52Z</time>
      </trkpt>
      <trkpt lat="48.20657" lon="7.37457">
        <ele>193</ele>
        <time>2020-09-03T03:50:57Z</time>
      </trkpt>
      <trkpt lat="48.20668" lon="7.37465">
        <ele>193</ele>
        <time>2020-09-03T03:50:59Z</time>
      </trkpt>
      <trkpt lat="48.20762" lon="7.37545">
        <ele>190</ele>
        <time>2020-09-03T03:51:18Z</time>
      </trkpt>
      <trkpt lat="48.20917" lon="7.37704">
        <ele>189</ele>
        <time>2020-09-03T03:51:52Z</time>
      </trkpt>
      <trkpt lat="48.20942" lon="7.37723">
        <ele>188</ele>
        <time>2020-09-03T03:51:57Z</time>
      </trkpt>
      <trkpt lat="48.21069" lon="7.3779">
        <ele>186</ele>
        <time>2020-09-03T03:52:21Z</time>
      </trkpt>
      <trkpt lat="48.21096" lon="7.3781">
        <ele>186</ele>
        <time>2020-09-03T03:52:26Z</time>
      </trkpt>
      <trkpt lat="48.21205" lon="7.37857">
        <ele>185</ele>
        <time>2020-09-03T03:52:46Z</time>
      </trkpt>
      <trkpt lat="48.21229" lon="7.37876">
        <ele>185</ele>
        <time>2020-09-03T03:52:51Z</time>
      </trkpt>
      <trkpt lat="48.21245" lon="7.37891">
        <ele>184</ele>
        <time>2020-09-03T03:52:54Z</time>
      </trkpt>
      <trkpt lat="48.21301" lon="7.37956">
        <ele>184</ele>
        <time>2020-09-03T03:53:07Z</time>
      </trkpt>
      <trkpt lat="48.21459" lon="7.38143">
        <ele>185</ele>
        <time>2020-09-03T03:53:43Z</time>
      </trkpt>
      <trkpt lat="48.21486" lon="7.38169">
        <ele>185</ele>
        <time>2020-09-03T03:53:48Z</time>
      </trkpt>
      <trkpt lat="48.21529" lon="7.38177">
        <ele>186</ele>
        <time>2020-09-03T03:53:56Z</time>
      </trkpt>
      <trkpt lat="48.21654" lon="7.38192">
        <ele>189</ele>
        <time>2020-09-03T03:54:18Z</time>
      </trkpt>
      <trkpt lat="48.21728" lon="7.38209">
        <ele>191</ele>
        <time>2020-09-03T03:54:32Z</time>
      </trkpt>
      <trkpt lat="48.21749" lon="7.38219">
        <ele>192</ele>
        <time>2020-09-03T03:54:36Z</time>
      </trkpt>
      <trkpt lat="48.21784" lon="7.3823">
        <ele>192</ele>
        <time>2020-09-03T03:54:42Z</time>
      </trkpt>
      <trkpt lat="48.21887" lon="7.38251">
        <ele>191</ele>
        <time>2020-09-03T03:55:01Z</time>
      </trkpt>
      <trkpt lat="48.21918" lon="7.38263">
        <ele>191</ele>
        <time>2020-09-03T03:55:06Z</time>
      </trkpt>
      <trkpt lat="48.2194" lon="7.38277">
        <ele>191</ele>
        <time>2020-09-03T03:55:10Z</time>
      </trkpt>
      <trkpt lat="48.22087" lon="7.38407">
        <ele>189</ele>
        <time>2020-09-03T03:55:41Z</time>
      </trkpt>
      <trkpt lat="48.22103" lon="7.38418">
        <ele>189</ele>
        <time>2020-09-03T03:55:44Z</time>
      </trkpt>
      <trkpt lat="48.22291" lon="7.38491">
        <ele>192</ele>
        <time>2020-09-03T03:56:19Z</time>
      </trkpt>
      <trkpt lat="48.22314" lon="7.38504">
        <ele>192</ele>
        <time>2020-09-03T03:56:23Z</time>
      </trkpt>
      <trkpt lat="48.22555" lon="7.38685">
        <ele>192</ele>
        <time>2020-09-03T03:57:11Z</time>
      </trkpt>
      <trkpt lat="48.22602" lon="7.38711">
        <ele>193</ele>
        <time>2020-09-03T03:57:20Z</time>
      </trkpt>
      <trkpt lat="48.22743" lon="7.38835">
        <ele>190</ele>
        <time>2020-09-03T03:57:49Z</time>
      </trkpt>
      <trkpt lat="48.22878" lon="7.38961">
        <ele>191</ele>
        <time>2020-09-03T03:58:17Z</time>
      </trkpt>
      <trkpt lat="48.22896" lon="7.38974">
        <ele>191</ele>
        <time>2020-09-03T03:58:21Z</time>
      </trkpt>
      <trkpt lat="48.22986" lon="7.39022">
        <ele>190</ele>
        <time>2020-09-03T03:58:38Z</time>
      </trkpt>
      <trkpt lat="48.23116" lon="7.39101">
        <ele>188</ele>
        <time>2020-09-03T03:59:03Z</time>
      </trkpt>
      <trkpt lat="48.23239" lon="7.39186">
        <ele>186</ele>
        <time>2020-09-03T03:59:27Z</time>
      </trkpt>
      <trkpt lat="48.23316" lon="7.39223">
        <ele>185</ele>
        <time>2020-09-03T03:59:41Z</time>
      </trkpt>
      <trkpt lat="48.23333" lon="7.39241">
        <ele>185</ele>
        <time>2020-09-03T03:59:45Z</time>
      </trkpt>
      <trkpt lat="48.23351" lon="7.39244">
        <ele>185</ele>
        <time>2020-09-03T03:59:48Z</time>
      </trkpt>
      <trkpt lat="48.23381" lon="7.39285">
        <ele>185</ele>
        <time>2020-09-03T03:59:55Z</time>
      </trkpt>
      <trkpt lat="48.23392" lon="7.39291">
        <ele>185</ele>
        <time>2020-09-03T03:59:57Z</time>
      </trkpt>
      <trkpt lat="48.23793" lon="7.3944">
        <ele>193</ele>
        <time>2020-09-03T04:01:11Z</time>
      </trkpt>
      <trkpt lat="48.23999" lon="7.39529">
        <ele>194</ele>
        <time>2020-09-03T04:01:49Z</time>
      </trkpt>
      <trkpt lat="48.24048" lon="7.39548">
        <ele>194</ele>
        <time>2020-09-03T04:01:58Z</time>
      </trkpt>
      <trkpt lat="48.2416" lon="7.39557">
        <ele>196</ele>
        <time>2020-09-03T04:02:18Z</time>
      </trkpt>
      <trkpt lat="48.24257" lon="7.3958">
        <ele>197</ele>
        <time>2020-09-03T04:02:35Z</time>
      </trkpt>
      <trkpt lat="48.24291" lon="7.39592">
        <ele>197</ele>
        <time>2020-09-03T04:02:42Z</time>
      </trkpt>
      <trkpt lat="48.24347" lon="7.39603">
        <ele>196</ele>
        <time>2020-09-03T04:02:52Z</time>
      </trkpt>
      <trkpt lat="48.24444" lon="7.39617">
        <ele>196</ele>
        <time>2020-09-03T04:03:09Z</time>
      </trkpt>
      <trkpt lat="48.24557" lon="7.39652">
        <ele>195</ele>
        <time>2020-09-03T04:03:30Z</time>
      </trkpt>
      <trkpt lat="48.24616" lon="7.39666">
        <ele>195</ele>
        <time>2020-09-03T04:03:40Z</time>
      </trkpt>
      <trkpt lat="48.24633" lon="7.39673">
        <ele>194</ele>
        <time>2020-09-03T04:03:43Z</time>
      </trkpt>
      <trkpt lat="48.24677" lon="7.39664">
        <ele>194</ele>
        <time>2020-09-03T04:03:51Z</time>
      </trkpt>
      <trkpt lat="48.24806" lon="7.39654">
        <ele>194</ele>
        <time>2020-09-03T04:04:14Z</time>
      </trkpt>
      <trkpt lat="48.24873" lon="7.39637">
        <ele>195</ele>
        <time>2020-09-03T04:04:26Z</time>
      </trkpt>
      <trkpt lat="48.24898" lon="7.39641">
        <ele>195</ele>
        <time>2020-09-03T04:04:31Z</time>
      </trkpt>
      <trkpt lat="48.2502" lon="7.39691">
        <ele>195</ele>
        <time>2020-09-03T04:04:53Z</time>
      </trkpt>
      <trkpt lat="48.25043" lon="7.39703">
        <ele>196</ele>
        <time>2020-09-03T04:04:58Z</time>
      </trkpt>
      <trkpt lat="48.25054" lon="7.39713">
        <ele>196</ele>
        <time>2020-09-03T04:05:00Z</time>
      </trkpt>
      <trkpt lat="48.25138" lon="7.39754">
        <ele>196</ele>
        <time>2020-09-03T04:05:16Z</time>
      </trkpt>
      <trkpt lat="48.25217" lon="7.39782">
        <ele>197</ele>
        <time>2020-09-03T04:05:30Z</time>
      </trkpt>
      <trkpt lat="48.25248" lon="7.39796">
        <ele>197</ele>
        <time>2020-09-03T04:05:36Z</time>
      </trkpt>
      <trkpt lat="48.25346" lon="7.39861">
        <ele>197</ele>
        <time>2020-09-03T04:05:55Z</time>
      </trkpt>
      <trkpt lat="48.25355" lon="7.39857">
        <ele>197</ele>
        <time>2020-09-03T04:05:57Z</time>
      </trkpt>
      <trkpt lat="48.25361" lon="7.39858">
        <ele>197</ele>
        <time>2020-09-03T04:05:58Z</time>
      </trkpt>
      <trkpt lat="48.25356" lon="7.39877">
        <ele>197</ele>
        <time>2020-09-03T04:06:00Z</time>
      </trkpt>
      <trkpt lat="48.25371" lon="7.39887">
        <ele>197</ele>
        <time>2020-09-03T04:06:03Z</time>
      </trkpt>
      <trkpt lat="48.2545" lon="7.39922">
        <ele>197</ele>
        <time>2020-09-03T04:06:18Z</time>
      </trkpt>
      <trkpt lat="48.25496" lon="7.39933">
        <ele>195</ele>
        <time>2020-09-03T04:06:26Z</time>
      </trkpt>
      <trkpt lat="48.25565" lon="7.39944">
        <ele>195</ele>
        <time>2020-09-03T04:06:38Z</time>
      </trkpt>
      <trkpt lat="48.25638" lon="7.39944">
        <ele>195</ele>
        <time>2020-09-03T04:06:51Z</time>
      </trkpt>
      <trkpt lat="48.25721" lon="7.39979">
        <ele>194</ele>
        <time>2020-09-03T04:07:07Z</time>
      </trkpt>
      <trkpt lat="48.25787" lon="7.40013">
        <ele>195</ele>
        <time>2020-09-03T04:07:19Z</time>
      </trkpt>
      <trkpt lat="48.25842" lon="7.40055">
        <ele>196</ele>
        <time>2020-09-03T04:07:30Z</time>
      </trkpt>
      <trkpt lat="48.25892" lon="7.40107">
        <ele>195</ele>
        <time>2020-09-03T04:07:41Z</time>
      </trkpt>
      <trkpt lat="48.25927" lon="7.40191">
        <ele>194</ele>
        <time>2020-09-03T04:07:53Z</time>
      </trkpt>
      <trkpt lat="48.25984" lon="7.40317">
        <ele>190</ele>
        <time>2020-09-03T04:08:11Z</time>
      </trkpt>
      <trkpt lat="48.2601" lon="7.40364">
        <ele>189</ele>
        <time>2020-09-03T04:08:18Z</time>
      </trkpt>
      <trkpt lat="48.26045" lon="7.40416">
        <ele>188</ele>
        <time>2020-09-03T04:08:27Z</time>
      </trkpt>
      <trkpt lat="48.26054" lon="7.40424">
        <ele>188</ele>
        <time>2020-09-03T04:08:28Z</time>
      </trkpt>
      <trkpt lat="48.26081" lon="7.40436">
        <ele>188</ele>
        <time>2020-09-03T04:08:33Z</time>
      </trkpt>
      <trkpt lat="48.26087" lon="7.40443">
        <ele>187</ele>
        <time>2020-09-03T04:08:35Z</time>
      </trkpt>
      <trkpt lat="48.26094" lon="7.40476">
        <ele>186</ele>
        <time>2020-09-03T04:08:39Z</time>
      </trkpt>
      <trkpt lat="48.26099" lon="7.40482">
        <ele>186</ele>
        <time>2020-09-03T04:08:40Z</time>
      </trkpt>
      <trkpt lat="48.26114" lon="7.40493">
        <ele>185</ele>
        <time>2020-09-03T04:08:43Z</time>
      </trkpt>
      <trkpt lat="48.26156" lon="7.40505">
        <ele>184</ele>
        <time>2020-09-03T04:08:51Z</time>
      </trkpt>
      <trkpt lat="48.26329" lon="7.40501">
        <ele>182</ele>
        <time>2020-09-03T04:09:21Z</time>
      </trkpt>
      <trkpt lat="48.26359" lon="7.4051">
        <ele>183</ele>
        <time>2020-09-03T04:09:27Z</time>
      </trkpt>
      <trkpt lat="48.26371" lon="7.40517">
        <ele>183</ele>
        <time>2020-09-03T04:09:29Z</time>
      </trkpt>
      <trkpt lat="48.26381" lon="7.40527">
        <ele>183</ele>
        <time>2020-09-03T04:09:31Z</time>
      </trkpt>
      <trkpt lat="48.26424" lon="7.40593">
        <ele>183</ele>
        <time>2020-09-03T04:09:42Z</time>
      </trkpt>
      <trkpt lat="48.26458" lon="7.4063">
        <ele>183</ele>
        <time>2020-09-03T04:09:50Z</time>
      </trkpt>
      <trkpt lat="48.26467" lon="7.40627">
        <ele>184</ele>
        <time>2020-09-03T04:09:51Z</time>
      </trkpt>
      <trkpt lat="48.26476" lon="7.4065">
        <ele>184</ele>
        <time>2020-09-03T04:09:54Z</time>
      </trkpt>
      <trkpt lat="48.26493" lon="7.40665">
        <ele>184</ele>
        <time>2020-09-03T04:09:58Z</time>
      </trkpt>
      <trkpt lat="48.26515" lon="7.40676">
        <ele>184</ele>
        <time>2020-09-03T04:10:02Z</time>
      </trkpt>
      <trkpt lat="48.2653" lon="7.40679">
        <ele>183</ele>
        <time>2020-09-03T04:10:05Z</time>
      </trkpt>
      <trkpt lat="48.2668" lon="7.40662">
        <ele>184</ele>
        <time>2020-09-03T04:10:32Z</time>
      </trkpt>
      <trkpt lat="48.26699" lon="7.40652">
        <ele>185</ele>
        <time>2020-09-03T04:10:35Z</time>
      </trkpt>
      <trkpt lat="48.267" lon="7.40642">
        <ele>185</ele>
        <time>2020-09-03T04:10:36Z</time>
      </trkpt>
      <trkpt lat="48.26705" lon="7.40638">
        <ele>185</ele>
        <time>2020-09-03T04:10:37Z</time>
      </trkpt>
      <trkpt lat="48.2672" lon="7.40543">
        <ele>186</ele>
        <time>2020-09-03T04:10:49Z</time>
      </trkpt>
      <trkpt lat="48.26743" lon="7.40432">
        <ele>188</ele>
        <time>2020-09-03T04:11:03Z</time>
      </trkpt>
      <trkpt lat="48.26751" lon="7.4038">
        <ele>188</ele>
        <time>2020-09-03T04:11:09Z</time>
      </trkpt>
      <trkpt lat="48.26778" lon="7.4012">
        <ele>187</ele>
        <time>2020-09-03T04:11:40Z</time>
      </trkpt>
      <trkpt lat="48.26786" lon="7.40071">
        <ele>188</ele>
        <time>2020-09-03T04:11:46Z</time>
      </trkpt>
      <trkpt lat="48.26813" lon="7.40001">
        <ele>189</ele>
        <time>2020-09-03T04:11:56Z</time>
      </trkpt>
      <trkpt lat="48.2683" lon="7.39974">
        <ele>189</ele>
        <time>2020-09-03T04:12:00Z</time>
      </trkpt>
      <trkpt lat="48.26837" lon="7.3998">
        <ele>189</ele>
        <time>2020-09-03T04:12:02Z</time>
      </trkpt>
      <trkpt lat="48.26868" lon="7.39991">
        <ele>189</ele>
        <time>2020-09-03T04:12:07Z</time>
      </trkpt>
      <trkpt lat="48.26904" lon="7.39993">
        <ele>189</ele>
        <time>2020-09-03T04:12:14Z</time>
      </trkpt>
      <trkpt lat="48.26978" lon="7.39985">
        <ele>191</ele>
        <time>2020-09-03T04:12:27Z</time>
      </trkpt>
      <trkpt lat="48.27032" lon="7.39959">
        <ele>191</ele>
        <time>2020-09-03T04:12:37Z</time>
      </trkpt>
      <trkpt lat="48.27171" lon="7.3992">
        <ele>191</ele>
        <time>2020-09-03T04:13:02Z</time>
      </trkpt>
      <trkpt lat="48.27299" lon="7.39903">
        <ele>192</ele>
        <time>2020-09-03T04:13:25Z</time>
      </trkpt>
      <trkpt lat="48.27322" lon="7.39906">
        <ele>192</ele>
        <time>2020-09-03T04:13:29Z</time>
      </trkpt>
      <trkpt lat="48.2738" lon="7.3993">
        <ele>192</ele>
        <time>2020-09-03T04:13:40Z</time>
      </trkpt>
      <trkpt lat="48.27494" lon="7.39965">
        <ele>189</ele>
        <time>2020-09-03T04:14:00Z</time>
      </trkpt>
      <trkpt lat="48.2751" lon="7.39973">
        <ele>189</ele>
        <time>2020-09-03T04:14:03Z</time>
      </trkpt>
      <trkpt lat="48.27523" lon="7.39983">
        <ele>189</ele>
        <time>2020-09-03T04:14:06Z</time>
      </trkpt>
      <trkpt lat="48.27578" lon="7.40038">
        <ele>190</ele>
        <time>2020-09-03T04:14:18Z</time>
      </trkpt>
      <trkpt lat="48.27596" lon="7.40053">
        <ele>191</ele>
        <time>2020-09-03T04:14:21Z</time>
      </trkpt>
      <trkpt lat="48.27621" lon="7.40066">
        <ele>191</ele>
        <time>2020-09-03T04:14:26Z</time>
      </trkpt>
      <trkpt lat="48.27631" lon="7.40061">
        <ele>191</ele>
        <time>2020-09-03T04:14:28Z</time>
      </trkpt>
      <trkpt lat="48.27636" lon="7.40063">
        <ele>191</ele>
        <time>2020-09-03T04:14:29Z</time>
      </trkpt>
      <trkpt lat="48.27659" lon="7.40101">
        <ele>191</ele>
        <time>2020-09-03T04:14:35Z</time>
      </trkpt>
      <trkpt lat="48.27756" lon="7.4016">
        <ele>192</ele>
        <time>2020-09-03T04:14:54Z</time>
      </trkpt>
      <trkpt lat="48.27787" lon="7.40173">
        <ele>192</ele>
        <time>2020-09-03T04:14:59Z</time>
      </trkpt>
      <trkpt lat="48.27892" lon="7.40205">
        <ele>192</ele>
        <time>2020-09-03T04:15:18Z</time>
      </trkpt>
      <trkpt lat="48.27961" lon="7.40207">
        <ele>191</ele>
        <time>2020-09-03T04:15:31Z</time>
      </trkpt>
      <trkpt lat="48.2816" lon="7.40233">
        <ele>192</ele>
        <time>2020-09-03T04:16:06Z</time>
      </trkpt>
      <trkpt lat="48.28138" lon="7.40307">
        <ele>190</ele>
        <time>2020-09-03T04:16:16Z</time>
      </trkpt>
      <trkpt lat="48.28117" lon="7.40356">
        <ele>190</ele>
        <time>2020-09-03T04:16:23Z</time>
      </trkpt>
      <trkpt lat="48.28109" lon="7.40382">
        <ele>190</ele>
        <time>2020-09-03T04:16:26Z</time>
      </trkpt>
      <trkpt lat="48.28105" lon="7.40408">
        <ele>190</ele>
        <time>2020-09-03T04:16:29Z</time>
      </trkpt>
      <trkpt lat="48.28101" lon="7.40466">
        <ele>189</ele>
        <time>2020-09-03T04:16:36Z</time>
      </trkpt>
      <trkpt lat="48.28093" lon="7.40514">
        <ele>189</ele>
        <time>2020-09-03T04:16:42Z</time>
      </trkpt>
      <trkpt lat="48.28082" lon="7.40555">
        <ele>188</ele>
        <time>2020-09-03T04:16:47Z</time>
      </trkpt>
      <trkpt lat="48.28058" lon="7.40623">
        <ele>188</ele>
        <time>2020-09-03T04:16:56Z</time>
      </trkpt>
      <trkpt lat="48.28031" lon="7.40723">
        <ele>188</ele>
        <time>2020-09-03T04:17:09Z</time>
      </trkpt>
      <trkpt lat="48.28026" lon="7.40773">
        <ele>187</ele>
        <time>2020-09-03T04:17:15Z</time>
      </trkpt>
      <trkpt lat="48.28031" lon="7.40924">
        <ele>187</ele>
        <time>2020-09-03T04:17:33Z</time>
      </trkpt>
      <trkpt lat="48.28021" lon="7.40996">
        <ele>187</ele>
        <time>2020-09-03T04:17:42Z</time>
      </trkpt>
      <trkpt lat="48.28006" lon="7.41045">
        <ele>187</ele>
        <time>2020-09-03T04:17:48Z</time>
      </trkpt>
      <trkpt lat="48.28043" lon="7.41038">
        <ele>187</ele>
        <time>2020-09-03T04:17:55Z</time>
      </trkpt>
      <trkpt lat="48.28069" lon="7.4104">
        <ele>186</ele>
        <time>2020-09-03T04:17:59Z</time>
      </trkpt>
      <trkpt lat="48.28157" lon="7.41068">
        <ele>186</ele>
        <time>2020-09-03T04:18:15Z</time>
      </trkpt>
      <trkpt lat="48.2818" lon="7.41072">
        <ele>186</ele>
        <time>2020-09-03T04:18:20Z</time>
      </trkpt>
      <trkpt lat="48.28208" lon="7.4107">
        <ele>187</ele>
        <time>2020-09-03T04:18:25Z</time>
      </trkpt>
      <trkpt lat="48.2825" lon="7.41057">
        <ele>188</ele>
        <time>2020-09-03T04:18:32Z</time>
      </trkpt>
      <trkpt lat="48.28273" lon="7.41055">
        <ele>188</ele>
        <time>2020-09-03T04:18:36Z</time>
      </trkpt>
      <trkpt lat="48.28305" lon="7.41062">
        <ele>188</ele>
        <time>2020-09-03T04:18:42Z</time>
      </trkpt>
      <trkpt lat="48.28357" lon="7.41079">
        <ele>187</ele>
        <time>2020-09-03T04:18:52Z</time>
      </trkpt>
      <trkpt lat="48.28418" lon="7.41087">
        <ele>186</ele>
        <time>2020-09-03T04:19:02Z</time>
      </trkpt>
      <trkpt lat="48.28457" lon="7.41101">
        <ele>187</ele>
        <time>2020-09-03T04:19:10Z</time>
      </trkpt>
      <trkpt lat="48.28474" lon="7.411">
        <ele>187</ele>
        <time>2020-09-03T04:19:13Z</time>
      </trkpt>
      <trkpt lat="48.28484" lon="7.41097">
        <ele>188</ele>
        <time>2020-09-03T04:19:14Z</time>
      </trkpt>
      <trkpt lat="48.285" lon="7.41087">
        <ele>188</ele>
        <time>2020-09-03T04:19:17Z</time>
      </trkpt>
      <trkpt lat="48.28542" lon="7.4105">
        <ele>188</ele>
        <time>2020-09-03T04:19:26Z</time>
      </trkpt>
      <trkpt lat="48.28551" lon="7.41044">
        <ele>188</ele>
        <time>2020-09-03T04:19:28Z</time>
      </trkpt>
      <trkpt lat="48.28562" lon="7.41041">
        <ele>188</ele>
        <time>2020-09-03T04:19:30Z</time>
      </trkpt>
      <trkpt lat="48.28583" lon="7.41042">
        <ele>188</ele>
        <time>2020-09-03T04:19:34Z</time>
      </trkpt>
      <trkpt lat="48.28651" lon="7.41065">
        <ele>187</ele>
        <time>2020-09-03T04:19:46Z</time>
      </trkpt>
      <trkpt lat="48.28657" lon="7.41125">
        <ele>186</ele>
        <time>2020-09-03T04:19:53Z</time>
      </trkpt>
      <trkpt lat="48.28657" lon="7.41209">
        <ele>186</ele>
        <time>2020-09-03T04:20:03Z</time>
      </trkpt>
      <trkpt lat="48.28661" lon="7.41312">
        <ele>187</ele>
        <time>2020-09-03T04:20:15Z</time>
      </trkpt>
      <trkpt lat="48.28657" lon="7.41328">
        <ele>187</ele>
        <time>2020-09-03T04:20:17Z</time>
      </trkpt>
      <trkpt lat="48.28649" lon="7.41344">
        <ele>187</ele>
        <time>2020-09-03T04:20:20Z</time>
      </trkpt>
      <trkpt lat="48.28619" lon="7.41387">
        <ele>188</ele>
        <time>2020-09-03T04:20:27Z</time>
      </trkpt>
      <trkpt lat="48.28595" lon="7.41416">
        <ele>189</ele>
        <time>2020-09-03T04:20:33Z</time>
      </trkpt>
      <trkpt lat="48.28583" lon="7.41453">
        <ele>189</ele>
        <time>2020-09-03T04:20:38Z</time>
      </trkpt>
      <trkpt lat="48.28582" lon="7.41471">
        <ele>189</ele>
        <time>2020-09-03T04:20:40Z</time>
      </trkpt>
      <trkpt lat="48.2859" lon="7.41531">
        <ele>188</ele>
        <time>2020-09-03T04:20:47Z</time>
      </trkpt>
      <trkpt lat="48.28632" lon="7.41628">
        <ele>188</ele>
        <time>2020-09-03T04:21:01Z</time>
      </trkpt>
      <trkpt lat="48.28634" lon="7.41644">
        <ele>188</ele>
        <time>2020-09-03T04:21:03Z</time>
      </trkpt>
      <trkpt lat="48.28637" lon="7.4179">
        <ele>188</ele>
        <time>2020-09-03T04:21:20Z</time>
      </trkpt>
      <trkpt lat="48.28652" lon="7.41808">
        <ele>187</ele>
        <time>2020-09-03T04:21:23Z</time>
      </trkpt>
      <trkpt lat="48.28684" lon="7.41802">
        <ele>187</ele>
        <time>2020-09-03T04:21:29Z</time>
      </trkpt>
      <trkpt lat="48.28714" lon="7.41782">
        <ele>187</ele>
        <time>2020-09-03T04:21:35Z</time>
      </trkpt>
      <trkpt lat="48.28708" lon="7.41742">
        <ele>188</ele>
        <time>2020-09-03T04:21:40Z</time>
      </trkpt>
      <trkpt lat="48.28711" lon="7.41723">
        <ele>187</ele>
        <time>2020-09-03T04:21:42Z</time>
      </trkpt>
      <trkpt lat="48.28728" lon="7.41666">
        <ele>187</ele>
        <time>2020-09-03T04:21:49Z</time>
      </trkpt>
      <trkpt lat="48.288" lon="7.41675">
        <ele>186</ele>
        <time>2020-09-03T04:22:02Z</time>
      </trkpt>
      <trkpt lat="48.28814" lon="7.41674">
        <ele>186</ele>
        <time>2020-09-03T04:22:05Z</time>
      </trkpt>
      <trkpt lat="48.28836" lon="7.4168">
        <ele>186</ele>
        <time>2020-09-03T04:22:09Z</time>
      </trkpt>
      <trkpt lat="48.28878" lon="7.41681">
        <ele>186</ele>
        <time>2020-09-03T04:22:16Z</time>
      </trkpt>
      <trkpt lat="48.29088" lon="7.41702">
        <ele>185</ele>
        <time>2020-09-03T04:22:54Z</time>
      </trkpt>
      <trkpt lat="48.29153" lon="7.41703">
        <ele>185</ele>
        <time>2020-09-03T04:23:05Z</time>
      </trkpt>
      <trkpt lat="48.29588" lon="7.41674">
        <ele>182</ele>
        <time>2020-09-03T04:24:23Z</time>
      </trkpt>
      <trkpt lat="48.29736" lon="7.41675">
        <ele>184</ele>
        <time>2020-09-03T04:24:49Z</time>
      </trkpt>
      <trkpt lat="48.29825" lon="7.41688">
        <ele>187</ele>
        <time>2020-09-03T04:25:05Z</time>
      </trkpt>
      <trkpt lat="48.29879" lon="7.4169">
        <ele>187</ele>
        <time>2020-09-03T04:25:15Z</time>
      </trkpt>
      <trkpt lat="48.29953" lon="7.4168">
        <ele>188</ele>
        <time>2020-09-03T04:25:28Z</time>
      </trkpt>
      <trkpt lat="48.29968" lon="7.41681">
        <ele>188</ele>
        <time>2020-09-03T04:25:30Z</time>
      </trkpt>
      <trkpt lat="48.30003" lon="7.41693">
        <ele>189</ele>
        <time>2020-09-03T04:25:37Z</time>
      </trkpt>
      <trkpt lat="48.30047" lon="7.41702">
        <ele>189</ele>
        <time>2020-09-03T04:25:45Z</time>
      </trkpt>
      <trkpt lat="48.30096" lon="7.41708">
        <ele>189</ele>
        <time>2020-09-03T04:25:53Z</time>
      </trkpt>
      <trkpt lat="48.30157" lon="7.41704">
        <ele>191</ele>
        <time>2020-09-03T04:26:04Z</time>
      </trkpt>
      <trkpt lat="48.30205" lon="7.41711">
        <ele>191</ele>
        <time>2020-09-03T04:26:13Z</time>
      </trkpt>
      <trkpt lat="48.30298" lon="7.41738">
        <ele>192</ele>
        <time>2020-09-03T04:26:30Z</time>
      </trkpt>
      <trkpt lat="48.30347" lon="7.41743">
        <ele>193</ele>
        <time>2020-09-03T04:26:38Z</time>
      </trkpt>
      <trkpt lat="48.3038" lon="7.41756">
        <ele>193</ele>
        <time>2020-09-03T04:26:45Z</time>
      </trkpt>
      <trkpt lat="48.30417" lon="7.41778">
        <ele>194</ele>
        <time>2020-09-03T04:26:52Z</time>
      </trkpt>
      <trkpt lat="48.3048" lon="7.41834">
        <ele>192</ele>
        <time>2020-09-03T04:27:05Z</time>
      </trkpt>
      <trkpt lat="48.30553" lon="7.41889">
        <ele>190</ele>
        <time>2020-09-03T04:27:19Z</time>
      </trkpt>
      <trkpt lat="48.30616" lon="7.4192">
        <ele>189</ele>
        <time>2020-09-03T04:27:31Z</time>
      </trkpt>
      <trkpt lat="48.30642" lon="7.41941">
        <ele>190</ele>
        <time>2020-09-03T04:27:36Z</time>
      </trkpt>
      <trkpt lat="48.30697" lon="7.42006">
        <ele>191</ele>
        <time>2020-09-03T04:27:49Z</time>
      </trkpt>
      <trkpt lat="48.30752" lon="7.42056">
        <ele>192</ele>
        <time>2020-09-03T04:28:00Z</time>
      </trkpt>
      <trkpt lat="48.30768" lon="7.41978">
        <ele>193</ele>
        <time>2020-09-03T04:28:10Z</time>
      </trkpt>
      <trkpt lat="48.30796" lon="7.4194">
        <ele>196</ele>
        <time>2020-09-03T04:28:16Z</time>
      </trkpt>
      <trkpt lat="48.30814" lon="7.41898">
        <ele>198</ele>
        <time>2020-09-03T04:28:22Z</time>
      </trkpt>
      <trkpt lat="48.30836" lon="7.41808">
        <ele>204</ele>
        <time>2020-09-03T04:28:34Z</time>
      </trkpt>
      <trkpt lat="48.30879" lon="7.41836">
        <ele>207</ele>
        <time>2020-09-03T04:28:42Z</time>
      </trkpt>
      <trkpt lat="48.3094" lon="7.41866">
        <ele>211</ele>
        <time>2020-09-03T04:28:53Z</time>
      </trkpt>
      <trkpt lat="48.30957" lon="7.41853">
        <ele>212</ele>
        <time>2020-09-03T04:28:57Z</time>
      </trkpt>
      <trkpt lat="48.30973" lon="7.41849">
        <ele>213</ele>
        <time>2020-09-03T04:29:00Z</time>
      </trkpt>
      <trkpt lat="48.3098" lon="7.41812">
        <ele>216</ele>
        <time>2020-09-03T04:29:04Z</time>
      </trkpt>
      <trkpt lat="48.30985" lon="7.41802">
        <ele>217</ele>
        <time>2020-09-03T04:29:06Z</time>
      </trkpt>
      <trkpt lat="48.31001" lon="7.41842">
        <ele>215</ele>
        <time>2020-09-03T04:29:11Z</time>
      </trkpt>
      <trkpt lat="48.31007" lon="7.4185">
        <ele>215</ele>
        <time>2020-09-03T04:29:13Z</time>
      </trkpt>
      <trkpt lat="48.31038" lon="7.41857">
        <ele>216</ele>
        <time>2020-09-03T04:29:18Z</time>
      </trkpt>
      <trkpt lat="48.3105" lon="7.41866">
        <ele>217</ele>
        <time>2020-09-03T04:29:21Z</time>
      </trkpt>
      <trkpt lat="48.31089" lon="7.41911">
        <ele>216</ele>
        <time>2020-09-03T04:29:29Z</time>
      </trkpt>
      <trkpt lat="48.3114" lon="7.41951">
        <ele>217</ele>
        <time>2020-09-03T04:29:40Z</time>
      </trkpt>
      <trkpt lat="48.31239" lon="7.42055">
        <ele>215</ele>
        <time>2020-09-03T04:30:01Z</time>
      </trkpt>
      <trkpt lat="48.3137" lon="7.42138">
        <ele>211</ele>
        <time>2020-09-03T04:30:26Z</time>
      </trkpt>
      <trkpt lat="48.3147" lon="7.42156">
        <ele>207</ele>
        <time>2020-09-03T04:30:44Z</time>
      </trkpt>
      <trkpt lat="48.31513" lon="7.42149">
        <ele>206</ele>
        <time>2020-09-03T04:30:52Z</time>
      </trkpt>
      <trkpt lat="48.31566" lon="7.42136">
        <ele>209</ele>
        <time>2020-09-03T04:31:02Z</time>
      </trkpt>
      <trkpt lat="48.31615" lon="7.42136">
        <ele>212</ele>
        <time>2020-09-03T04:31:10Z</time>
      </trkpt>
      <trkpt lat="48.3163" lon="7.42118">
        <ele>215</ele>
        <time>2020-09-03T04:31:14Z</time>
      </trkpt>
      <trkpt lat="48.31693" lon="7.42117">
        <ele>220</ele>
        <time>2020-09-03T04:31:25Z</time>
      </trkpt>
      <trkpt lat="48.31779" lon="7.4217">
        <ele>223</ele>
        <time>2020-09-03T04:31:42Z</time>
      </trkpt>
      <trkpt lat="48.31924" lon="7.42174">
        <ele>234</ele>
        <time>2020-09-03T04:32:07Z</time>
      </trkpt>
      <trkpt lat="48.32006" lon="7.42165">
        <ele>235</ele>
        <time>2020-09-03T04:32:22Z</time>
      </trkpt>
      <trkpt lat="48.32125" lon="7.42057">
        <ele>237</ele>
        <time>2020-09-03T04:32:47Z</time>
      </trkpt>
      <trkpt lat="48.32152" lon="7.42044">
        <ele>236</ele>
        <time>2020-09-03T04:32:52Z</time>
      </trkpt>
      <trkpt lat="48.32181" lon="7.42042">
        <ele>236</ele>
        <time>2020-09-03T04:32:57Z</time>
      </trkpt>
      <trkpt lat="48.32256" lon="7.42065">
        <ele>235</ele>
        <time>2020-09-03T04:33:11Z</time>
      </trkpt>
      <trkpt lat="48.32268" lon="7.42081">
        <ele>235</ele>
        <time>2020-09-03T04:33:13Z</time>
      </trkpt>
      <trkpt lat="48.32276" lon="7.42118">
        <ele>232</ele>
        <time>2020-09-03T04:33:18Z</time>
      </trkpt>
      <trkpt lat="48.32295" lon="7.42156">
        <ele>229</ele>
        <time>2020-09-03T04:33:24Z</time>
      </trkpt>
      <trkpt lat="48.32335" lon="7.42182">
        <ele>227</ele>
        <time>2020-09-03T04:33:31Z</time>
      </trkpt>
      <trkpt lat="48.32373" lon="7.42199">
        <ele>226</ele>
        <time>2020-09-03T04:33:38Z</time>
      </trkpt>
      <trkpt lat="48.32482" lon="7.42192">
        <ele>226</ele>
        <time>2020-09-03T04:33:58Z</time>
      </trkpt>
      <trkpt lat="48.32537" lon="7.42204">
        <ele>227</ele>
        <time>2020-09-03T04:34:08Z</time>
      </trkpt>
      <trkpt lat="48.32596" lon="7.42241">
        <ele>227</ele>
        <time>2020-09-03T04:34:19Z</time>
      </trkpt>
      <trkpt lat="48.32613" lon="7.42263">
        <ele>226</ele>
        <time>2020-09-03T04:34:23Z</time>
      </trkpt>
      <trkpt lat="48.32668" lon="7.42287">
        <ele>226</ele>
        <time>2020-09-03T04:34:33Z</time>
      </trkpt>
      <trkpt lat="48.32692" lon="7.42319">
        <ele>225</ele>
        <time>2020-09-03T04:34:39Z</time>
      </trkpt>
      <trkpt lat="48.32699" lon="7.42342">
        <ele>223</ele>
        <time>2020-09-03T04:34:42Z</time>
      </trkpt>
      <trkpt lat="48.32715" lon="7.4234">
        <ele>224</ele>
        <time>2020-09-03T04:34:45Z</time>
      </trkpt>
      <trkpt lat="48.32739" lon="7.42344">
        <ele>224</ele>
        <time>2020-09-03T04:34:49Z</time>
      </trkpt>
      <trkpt lat="48.32756" lon="7.4235">
        <ele>225</ele>
        <time>2020-09-03T04:34:52Z</time>
      </trkpt>
      <trkpt lat="48.32931" lon="7.42442">
        <ele>227</ele>
        <time>2020-09-03T04:35:25Z</time>
      </trkpt>
      <trkpt lat="48.32965" lon="7.42468">
        <ele>227</ele>
        <time>2020-09-03T04:35:32Z</time>
      </trkpt>
      <trkpt lat="48.33081" lon="7.4257">
        <ele>229</ele>
        <time>2020-09-03T04:35:56Z</time>
      </trkpt>
      <trkpt lat="48.33149" lon="7.42611">
        <ele>229</ele>
        <time>2020-09-03T04:36:09Z</time>
      </trkpt>
      <trkpt lat="48.33236" lon="7.42656">
        <ele>227</ele>
        <time>2020-09-03T04:36:25Z</time>
      </trkpt>
      <trkpt lat="48.33278" lon="7.4267">
        <ele>226</ele>
        <time>2020-09-03T04:36:33Z</time>
      </trkpt>
      <trkpt lat="48.33295" lon="7.42673">
        <ele>226</ele>
        <time>2020-09-03T04:36:36Z</time>
      </trkpt>
      <trkpt lat="48.33413" lon="7.42674">
        <ele>227</ele>
        <time>2020-09-03T04:36:57Z</time>
      </trkpt>
      <trkpt lat="48.33521" lon="7.42689">
        <ele>229</ele>
        <time>2020-09-03T04:37:16Z</time>
      </trkpt>
      <trkpt lat="48.3358" lon="7.42701">
        <ele>229</ele>
        <time>2020-09-03T04:37:27Z</time>
      </trkpt>
      <trkpt lat="48.33608" lon="7.42701">
        <ele>228</ele>
        <time>2020-09-03T04:37:32Z</time>
      </trkpt>
      <trkpt lat="48.33631" lon="7.42692">
        <ele>226</ele>
        <time>2020-09-03T04:37:36Z</time>
      </trkpt>
      <trkpt lat="48.33653" lon="7.42675">
        <ele>225</ele>
        <time>2020-09-03T04:37:41Z</time>
      </trkpt>
      <trkpt lat="48.33668" lon="7.42658">
        <ele>224</ele>
        <time>2020-09-03T04:37:44Z</time>
      </trkpt>
      <trkpt lat="48.33679" lon="7.42639">
        <ele>224</ele>
        <time>2020-09-03T04:37:47Z</time>
      </trkpt>
      <trkpt lat="48.33688" lon="7.42612">
        <ele>224</ele>
        <time>2020-09-03T04:37:50Z</time>
      </trkpt>
      <trkpt lat="48.33708" lon="7.42533">
        <ele>224</ele>
        <time>2020-09-03T04:38:00Z</time>
      </trkpt>
      <trkpt lat="48.33752" lon="7.42277">
        <ele>233</ele>
        <time>2020-09-03T04:38:32Z</time>
      </trkpt>
      <trkpt lat="48.33757" lon="7.42232">
        <ele>234</ele>
        <time>2020-09-03T04:38:37Z</time>
      </trkpt>
      <trkpt lat="48.33759" lon="7.42185">
        <ele>237</ele>
        <time>2020-09-03T04:38:43Z</time>
      </trkpt>
      <trkpt lat="48.33754" lon="7.42092">
        <ele>238</ele>
        <time>2020-09-03T04:38:54Z</time>
      </trkpt>
      <trkpt lat="48.33759" lon="7.42042">
        <ele>237</ele>
        <time>2020-09-03T04:39:00Z</time>
      </trkpt>
      <trkpt lat="48.33766" lon="7.42012">
        <ele>236</ele>
        <time>2020-09-03T04:39:03Z</time>
      </trkpt>
      <trkpt lat="48.33781" lon="7.41991">
        <ele>236</ele>
        <time>2020-09-03T04:39:07Z</time>
      </trkpt>
      <trkpt lat="48.33841" lon="7.41948">
        <ele>236</ele>
        <time>2020-09-03T04:39:19Z</time>
      </trkpt>
      <trkpt lat="48.33855" lon="7.41941">
        <ele>237</ele>
        <time>2020-09-03T04:39:22Z</time>
      </trkpt>
      <trkpt lat="48.3387" lon="7.41937">
        <ele>238</ele>
        <time>2020-09-03T04:39:24Z</time>
      </trkpt>
      <trkpt lat="48.33888" lon="7.41943">
        <ele>238</ele>
        <time>2020-09-03T04:39:28Z</time>
      </trkpt>
      <trkpt lat="48.33938" lon="7.41968">
        <ele>235</ele>
        <time>2020-09-03T04:39:37Z</time>
      </trkpt>
      <trkpt lat="48.33969" lon="7.41973">
        <ele>235</ele>
        <time>2020-09-03T04:39:42Z</time>
      </trkpt>
      <trkpt lat="48.34024" lon="7.41969">
        <ele>236</ele>
        <time>2020-09-03T04:39:52Z</time>
      </trkpt>
      <trkpt lat="48.3406" lon="7.41961">
        <ele>237</ele>
        <time>2020-09-03T04:39:59Z</time>
      </trkpt>
      <trkpt lat="48.34068" lon="7.41953">
        <ele>237</ele>
        <time>2020-09-03T04:40:00Z</time>
      </trkpt>
      <trkpt lat="48.34101" lon="7.41894">
        <ele>238</ele>
        <time>2020-09-03T04:40:10Z</time>
      </trkpt>
      <trkpt lat="48.34105" lon="7.41868">
        <ele>238</ele>
        <time>2020-09-03T04:40:13Z</time>
      </trkpt>
      <trkpt lat="48.34113" lon="7.41853">
        <ele>238</ele>
        <time>2020-09-03T04:40:15Z</time>
      </trkpt>
      <trkpt lat="48.34126" lon="7.41844">
        <ele>237</ele>
        <time>2020-09-03T04:40:18Z</time>
      </trkpt>
      <trkpt lat="48.34156" lon="7.4183">
        <ele>236</ele>
        <time>2020-09-03T04:40:23Z</time>
      </trkpt>
      <trkpt lat="48.34183" lon="7.41962">
        <ele>233</ele>
        <time>2020-09-03T04:40:39Z</time>
      </trkpt>
      <trkpt lat="48.34203" lon="7.42043">
        <ele>230</ele>
        <time>2020-09-03T04:40:50Z</time>
      </trkpt>
      <trkpt lat="48.34216" lon="7.42069">
        <ele>228</ele>
        <time>2020-09-03T04:40:53Z</time>
      </trkpt>
      <trkpt lat="48.3424" lon="7.42106">
        <ele>227</ele>
        <time>2020-09-03T04:41:00Z</time>
      </trkpt>
      <trkpt lat="48.34268" lon="7.42161">
        <ele>225</ele>
        <time>2020-09-03T04:41:08Z</time>
      </trkpt>
      <trkpt lat="48.34298" lon="7.42269">
        <ele>222</ele>
        <time>2020-09-03T04:41:22Z</time>
      </trkpt>
      <trkpt lat="48.34392" lon="7.4222">
        <ele>223</ele>
        <time>2020-09-03T04:41:39Z</time>
      </trkpt>
      <trkpt lat="48.34445" lon="7.42256">
        <ele>221</ele>
        <time>2020-09-03T04:41:50Z</time>
      </trkpt>
      <trkpt lat="48.34465" lon="7.42273">
        <ele>220</ele>
        <time>2020-09-03T04:41:54Z</time>
      </trkpt>
      <trkpt lat="48.34504" lon="7.42317">
        <ele>217</ele>
        <time>2020-09-03T04:42:02Z</time>
      </trkpt>
      <trkpt lat="48.34517" lon="7.42326">
        <ele>216</ele>
        <time>2020-09-03T04:42:05Z</time>
      </trkpt>
      <trkpt lat="48.34586" lon="7.42334">
        <ele>211</ele>
        <time>2020-09-03T04:42:17Z</time>
      </trkpt>
      <trkpt lat="48.34734" lon="7.42372">
        <ele>210</ele>
        <time>2020-09-03T04:42:44Z</time>
      </trkpt>
      <trkpt lat="48.34844" lon="7.4237">
        <ele>209</ele>
        <time>2020-09-03T04:43:04Z</time>
      </trkpt>
      <trkpt lat="48.34979" lon="7.42337">
        <ele>206</ele>
        <time>2020-09-03T04:43:28Z</time>
      </trkpt>
      <trkpt lat="48.34996" lon="7.42325">
        <ele>206</ele>
        <time>2020-09-03T04:43:31Z</time>
      </trkpt>
      <trkpt lat="48.35003" lon="7.42328">
        <ele>206</ele>
        <time>2020-09-03T04:43:33Z</time>
      </trkpt>
      <trkpt lat="48.35037" lon="7.42332">
        <ele>205</ele>
        <time>2020-09-03T04:43:39Z</time>
      </trkpt>
      <trkpt lat="48.35098" lon="7.42347">
        <ele>204</ele>
        <time>2020-09-03T04:43:50Z</time>
      </trkpt>
      <trkpt lat="48.3513" lon="7.42377">
        <ele>204</ele>
        <time>2020-09-03T04:43:56Z</time>
      </trkpt>
      <trkpt lat="48.35173" lon="7.42411">
        <ele>203</ele>
        <time>2020-09-03T04:44:05Z</time>
      </trkpt>
      <trkpt lat="48.3528" lon="7.42476">
        <ele>205</ele>
        <time>2020-09-03T04:44:26Z</time>
      </trkpt>
      <trkpt lat="48.35297" lon="7.42481">
        <ele>205</ele>
        <time>2020-09-03T04:44:29Z</time>
      </trkpt>
      <trkpt lat="48.3535" lon="7.42478">
        <ele>207</ele>
        <time>2020-09-03T04:44:38Z</time>
      </trkpt>
      <trkpt lat="48.35402" lon="7.42441">
        <ele>211</ele>
        <time>2020-09-03T04:44:48Z</time>
      </trkpt>
      <trkpt lat="48.35428" lon="7.42434">
        <ele>213</ele>
        <time>2020-09-03T04:44:53Z</time>
      </trkpt>
      <trkpt lat="48.35454" lon="7.42445">
        <ele>215</ele>
        <time>2020-09-03T04:44:58Z</time>
      </trkpt>
      <trkpt lat="48.35519" lon="7.42483">
        <ele>219</ele>
        <time>2020-09-03T04:45:10Z</time>
      </trkpt>
      <trkpt lat="48.35538" lon="7.42491">
        <ele>219</ele>
        <time>2020-09-03T04:45:14Z</time>
      </trkpt>
      <trkpt lat="48.35547" lon="7.42484">
        <ele>219</ele>
        <time>2020-09-03T04:45:15Z</time>
      </trkpt>
      <trkpt lat="48.35555" lon="7.42494">
        <ele>219</ele>
        <time>2020-09-03T04:45:17Z</time>
      </trkpt>
      <trkpt lat="48.35568" lon="7.42504">
        <ele>220</ele>
        <time>2020-09-03T04:45:20Z</time>
      </trkpt>
      <trkpt lat="48.35629" lon="7.42526">
        <ele>219</ele>
        <time>2020-09-03T04:45:31Z</time>
      </trkpt>
      <trkpt lat="48.35686" lon="7.42543">
        <ele>218</ele>
        <time>2020-09-03T04:45:41Z</time>
      </trkpt>
      <trkpt lat="48.35801" lon="7.42569">
        <ele>220</ele>
        <time>2020-09-03T04:46:02Z</time>
      </trkpt>
      <trkpt lat="48.35888" lon="7.42611">
        <ele>220</ele>
        <time>2020-09-03T04:46:18Z</time>
      </trkpt>
      <trkpt lat="48.3591" lon="7.42628">
        <ele>220</ele>
        <time>2020-09-03T04:46:23Z</time>
      </trkpt>
      <trkpt lat="48.35931" lon="7.42662">
        <ele>219</ele>
        <time>2020-09-03T04:46:28Z</time>
      </trkpt>
      <trkpt lat="48.35952" lon="7.42718">
        <ele>219</ele>
        <time>2020-09-03T04:46:36Z</time>
      </trkpt>
      <trkpt lat="48.35963" lon="7.42759">
        <ele>219</ele>
        <time>2020-09-03T04:46:41Z</time>
      </trkpt>
      <trkpt lat="48.35978" lon="7.4284">
        <ele>217</ele>
        <time>2020-09-03T04:46:51Z</time>
      </trkpt>
      <trkpt lat="48.35991" lon="7.42871">
        <ele>218</ele>
        <time>2020-09-03T04:46:55Z</time>
      </trkpt>
      <trkpt lat="48.36009" lon="7.4289">
        <ele>218</ele>
        <time>2020-09-03T04:46:59Z</time>
      </trkpt>
      <trkpt lat="48.36029" lon="7.42902">
        <ele>219</ele>
        <time>2020-09-03T04:47:03Z</time>
      </trkpt>
      <trkpt lat="48.36065" lon="7.42912">
        <ele>220</ele>
        <time>2020-09-03T04:47:10Z</time>
      </trkpt>
      <trkpt lat="48.36082" lon="7.4292">
        <ele>220</ele>
        <time>2020-09-03T04:47:13Z</time>
      </trkpt>
      <trkpt lat="48.36094" lon="7.42934">
        <ele>220</ele>
        <time>2020-09-03T04:47:16Z</time>
      </trkpt>
      <trkpt lat="48.36121" lon="7.43008">
        <ele>220</ele>
        <time>2020-09-03T04:47:25Z</time>
      </trkpt>
      <trkpt lat="48.36133" lon="7.43024">
        <ele>221</ele>
        <time>2020-09-03T04:47:28Z</time>
      </trkpt>
      <trkpt lat="48.36146" lon="7.43036">
        <ele>221</ele>
        <time>2020-09-03T04:47:31Z</time>
      </trkpt>
      <trkpt lat="48.3616" lon="7.43042">
        <ele>222</ele>
        <time>2020-09-03T04:47:34Z</time>
      </trkpt>
      <trkpt lat="48.36196" lon="7.43038">
        <ele>224</ele>
        <time>2020-09-03T04:47:40Z</time>
      </trkpt>
      <trkpt lat="48.3627" lon="7.43015">
        <ele>231</ele>
        <time>2020-09-03T04:47:54Z</time>
      </trkpt>
      <trkpt lat="48.36279" lon="7.43021">
        <ele>233</ele>
        <time>2020-09-03T04:47:55Z</time>
      </trkpt>
      <trkpt lat="48.3629" lon="7.43033">
        <ele>235</ele>
        <time>2020-09-03T04:47:58Z</time>
      </trkpt>
      <trkpt lat="48.36296" lon="7.43049">
        <ele>236</ele>
        <time>2020-09-03T04:48:00Z</time>
      </trkpt>
      <trkpt lat="48.36353" lon="7.43296">
        <ele>244</ele>
        <time>2020-09-03T04:48:31Z</time>
      </trkpt>
      <trkpt lat="48.36364" lon="7.43317">
        <ele>245</ele>
        <time>2020-09-03T04:48:34Z</time>
      </trkpt>
      <trkpt lat="48.36372" lon="7.4332">
        <ele>246</ele>
        <time>2020-09-03T04:48:35Z</time>
      </trkpt>
      <trkpt lat="48.36382" lon="7.4332">
        <ele>247</ele>
        <time>2020-09-03T04:48:37Z</time>
      </trkpt>
      <trkpt lat="48.36383" lon="7.43257">
        <ele>248</ele>
        <time>2020-09-03T04:48:45Z</time>
      </trkpt>
      <trkpt lat="48.36393" lon="7.43129">
        <ele>251</ele>
        <time>2020-09-03T04:49:00Z</time>
      </trkpt>
      <trkpt lat="48.36398" lon="7.431">
        <ele>251</ele>
        <time>2020-09-03T04:49:03Z</time>
      </trkpt>
      <trkpt lat="48.36397" lon="7.42907">
        <ele>253</ele>
        <time>2020-09-03T04:49:26Z</time>
      </trkpt>
      <trkpt lat="48.36391" lon="7.42736">
        <ele>253</ele>
        <time>2020-09-03T04:49:46Z</time>
      </trkpt>
      <trkpt lat="48.36394" lon="7.42718">
        <ele>252</ele>
        <time>2020-09-03T04:49:49Z</time>
      </trkpt>
      <trkpt lat="48.36414" lon="7.42671">
        <ele>254</ele>
        <time>2020-09-03T04:49:55Z</time>
      </trkpt>
      <trkpt lat="48.36425" lon="7.42655">
        <ele>253</ele>
        <time>2020-09-03T04:49:58Z</time>
      </trkpt>
      <trkpt lat="48.36447" lon="7.42634">
        <ele>253</ele>
        <time>2020-09-03T04:50:03Z</time>
      </trkpt>
      <trkpt lat="48.36476" lon="7.42612">
        <ele>253</ele>
        <time>2020-09-03T04:50:08Z</time>
      </trkpt>
      <trkpt lat="48.36527" lon="7.42584">
        <ele>255</ele>
        <time>2020-09-03T04:50:18Z</time>
      </trkpt>
      <trkpt lat="48.36532" lon="7.42593">
        <ele>257</ele>
        <time>2020-09-03T04:50:19Z</time>
      </trkpt>
      <trkpt lat="48.36583" lon="7.42608">
        <ele>264</ele>
        <time>2020-09-03T04:50:29Z</time>
      </trkpt>
      <trkpt lat="48.36702" lon="7.42605">
        <ele>273</ele>
        <time>2020-09-03T04:50:50Z</time>
      </trkpt>
      <trkpt lat="48.36781" lon="7.426">
        <ele>274</ele>
        <time>2020-09-03T04:51:04Z</time>
      </trkpt>
      <trkpt lat="48.36776" lon="7.42625">
        <ele>275</ele>
        <time>2020-09-03T04:51:07Z</time>
      </trkpt>
      <trkpt lat="48.36769" lon="7.42758">
        <ele>277</ele>
        <time>2020-09-03T04:51:23Z</time>
      </trkpt>
      <trkpt lat="48.3676" lon="7.42826">
        <ele>276</ele>
        <time>2020-09-03T04:51:31Z</time>
      </trkpt>
      <trkpt lat="48.36726" lon="7.42936">
        <ele>273</ele>
        <time>2020-09-03T04:51:45Z</time>
      </trkpt>
      <trkpt lat="48.36715" lon="7.43016">
        <ele>272</ele>
        <time>2020-09-03T04:51:55Z</time>
      </trkpt>
      <trkpt lat="48.36708" lon="7.43108">
        <ele>269</ele>
        <time>2020-09-03T04:52:06Z</time>
      </trkpt>
      <trkpt lat="48.37138" lon="7.43037">
        <ele>266</ele>
        <time>2020-09-03T04:53:23Z</time>
      </trkpt>
      <trkpt lat="48.3736" lon="7.43012">
        <ele>266</ele>
        <time>2020-09-03T04:54:03Z</time>
      </trkpt>
      <trkpt lat="48.37438" lon="7.42989">
        <ele>263</ele>
        <time>2020-09-03T04:54:17Z</time>
      </trkpt>
      <trkpt lat="48.3753" lon="7.42969">
        <ele>255</ele>
        <time>2020-09-03T04:54:33Z</time>
      </trkpt>
      <trkpt lat="48.37551" lon="7.42961">
        <ele>253</ele>
        <time>2020-09-03T04:54:37Z</time>
      </trkpt>
      <trkpt lat="48.37604" lon="7.42931">
        <ele>251</ele>
        <time>2020-09-03T04:54:47Z</time>
      </trkpt>
      <trkpt lat="48.37691" lon="7.42908">
        <ele>251</ele>
        <time>2020-09-03T04:55:03Z</time>
      </trkpt>
      <trkpt lat="48.37761" lon="7.42854">
        <ele>257</ele>
        <time>2020-09-03T04:55:17Z</time>
      </trkpt>
      <trkpt lat="48.37775" lon="7.42853">
        <ele>257</ele>
        <time>2020-09-03T04:55:19Z</time>
      </trkpt>
      <trkpt lat="48.37786" lon="7.42859">
        <ele>256</ele>
        <time>2020-09-03T04:55:21Z</time>
      </trkpt>
      <trkpt lat="48.37856" lon="7.42907">
        <ele>254</ele>
        <time>2020-09-03T04:55:35Z</time>
      </trkpt>
      <trkpt lat="48.37879" lon="7.4292">
        <ele>255</ele>
        <time>2020-09-03T04:55:39Z</time>
      </trkpt>
      <trkpt lat="48.37965" lon="7.42954">
        <ele>254</ele>
        <time>2020-09-03T04:55:55Z</time>
      </trkpt>
      <trkpt lat="48.38026" lon="7.4297">
        <ele>253</ele>
        <time>2020-09-03T04:56:06Z</time>
      </trkpt>
      <trkpt lat="48.38052" lon="7.42973">
        <ele>253</ele>
        <time>2020-09-03T04:56:11Z</time>
      </trkpt>
      <trkpt lat="48.38144" lon="7.42965">
        <ele>252</ele>
        <time>2020-09-03T04:56:27Z</time>
      </trkpt>
      <trkpt lat="48.38157" lon="7.42962">
        <ele>251</ele>
        <time>2020-09-03T04:56:30Z</time>
      </trkpt>
      <trkpt lat="48.38164" lon="7.42957">
        <ele>251</ele>
        <time>2020-09-03T04:56:31Z</time>
      </trkpt>
      <trkpt lat="48.38169" lon="7.42947">
        <ele>251</ele>
        <time>2020-09-03T04:56:33Z</time>
      </trkpt>
      <trkpt lat="48.38171" lon="7.42924">
        <ele>250</ele>
        <time>2020-09-03T04:56:35Z</time>
      </trkpt>
      <trkpt lat="48.38177" lon="7.42728">
        <ele>246</ele>
        <time>2020-09-03T04:56:58Z</time>
      </trkpt>
      <trkpt lat="48.38175" lon="7.42673">
        <ele>247</ele>
        <time>2020-09-03T04:57:05Z</time>
      </trkpt>
      <trkpt lat="48.38192" lon="7.42599">
        <ele>246</ele>
        <time>2020-09-03T04:57:14Z</time>
      </trkpt>
      <trkpt lat="48.38219" lon="7.42414">
        <ele>240</ele>
        <time>2020-09-03T04:57:37Z</time>
      </trkpt>
      <trkpt lat="48.38224" lon="7.42394">
        <ele>240</ele>
        <time>2020-09-03T04:57:39Z</time>
      </trkpt>
      <trkpt lat="48.38232" lon="7.42374">
        <ele>238</ele>
        <time>2020-09-03T04:57:42Z</time>
      </trkpt>
      <trkpt lat="48.38243" lon="7.42355">
        <ele>235</ele>
        <time>2020-09-03T04:57:45Z</time>
      </trkpt>
      <trkpt lat="48.38266" lon="7.42327">
        <ele>232</ele>
        <time>2020-09-03T04:57:50Z</time>
      </trkpt>
      <trkpt lat="48.38273" lon="7.42311">
        <ele>231</ele>
        <time>2020-09-03T04:57:52Z</time>
      </trkpt>
      <trkpt lat="48.38283" lon="7.4221">
        <ele>230</ele>
        <time>2020-09-03T04:58:04Z</time>
      </trkpt>
      <trkpt lat="48.38357" lon="7.41911">
        <ele>243</ele>
        <time>2020-09-03T04:58:42Z</time>
      </trkpt>
      <trkpt lat="48.38384" lon="7.41841">
        <ele>242</ele>
        <time>2020-09-03T04:58:52Z</time>
      </trkpt>
      <trkpt lat="48.38392" lon="7.41826">
        <ele>241</ele>
        <time>2020-09-03T04:58:54Z</time>
      </trkpt>
      <trkpt lat="48.38434" lon="7.41771">
        <ele>237</ele>
        <time>2020-09-03T04:59:04Z</time>
      </trkpt>
      <trkpt lat="48.38472" lon="7.41706">
        <ele>236</ele>
        <time>2020-09-03T04:59:14Z</time>
      </trkpt>
      <trkpt lat="48.3848" lon="7.41699">
        <ele>236</ele>
        <time>2020-09-03T04:59:16Z</time>
      </trkpt>
      <trkpt lat="48.38486" lon="7.41697">
        <ele>235</ele>
        <time>2020-09-03T04:59:17Z</time>
      </trkpt>
      <trkpt lat="48.38501" lon="7.41706">
        <ele>233</ele>
        <time>2020-09-03T04:59:20Z</time>
      </trkpt>
      <trkpt lat="48.38512" lon="7.41718">
        <ele>232</ele>
        <time>2020-09-03T04:59:22Z</time>
      </trkpt>
      <trkpt lat="48.38527" lon="7.41726">
        <ele>231</ele>
        <time>2020-09-03T04:59:25Z</time>
      </trkpt>
      <trkpt lat="48.38551" lon="7.41732">
        <ele>231</ele>
        <time>2020-09-03T04:59:29Z</time>
      </trkpt>
      <trkpt lat="48.38566" lon="7.4174">
        <ele>230</ele>
        <time>2020-09-03T04:59:32Z</time>
      </trkpt>
      <trkpt lat="48.38585" lon="7.41759">
        <ele>230</ele>
        <time>2020-09-03T04:59:36Z</time>
      </trkpt>
      <trkpt lat="48.38609" lon="7.41798">
        <ele>229</ele>
        <time>2020-09-03T04:59:43Z</time>
      </trkpt>
      <trkpt lat="48.3861" lon="7.41851">
        <ele>228</ele>
        <time>2020-09-03T04:59:49Z</time>
      </trkpt>
      <trkpt lat="48.38619" lon="7.41882">
        <ele>227</ele>
        <time>2020-09-03T04:59:53Z</time>
      </trkpt>
      <trkpt lat="48.38652" lon="7.41921">
        <ele>225</ele>
        <time>2020-09-03T05:00:00Z</time>
      </trkpt>
      <trkpt lat="48.38683" lon="7.41949">
        <ele>226</ele>
        <time>2020-09-03T05:00:07Z</time>
      </trkpt>
      <trkpt lat="48.38752" lon="7.42031">
        <ele>230</ele>
        <time>2020-09-03T05:00:22Z</time>
      </trkpt>
      <trkpt lat="48.38776" lon="7.42075">
        <ele>233</ele>
        <time>2020-09-03T05:00:29Z</time>
      </trkpt>
      <trkpt lat="48.38838" lon="7.42241">
        <ele>234</ele>
        <time>2020-09-03T05:00:52Z</time>
      </trkpt>
      <trkpt lat="48.38879" lon="7.42373">
        <ele>241</ele>
        <time>2020-09-03T05:01:09Z</time>
      </trkpt>
      <trkpt lat="48.38944" lon="7.42643">
        <ele>247</ele>
        <time>2020-09-03T05:01:43Z</time>
      </trkpt>
      <trkpt lat="48.38955" lon="7.42678">
        <ele>248</ele>
        <time>2020-09-03T05:01:47Z</time>
      </trkpt>
      <trkpt lat="48.38983" lon="7.42748">
        <ele>247</ele>
        <time>2020-09-03T05:01:57Z</time>
      </trkpt>
      <trkpt lat="48.38997" lon="7.42799">
        <ele>245</ele>
        <time>2020-09-03T05:02:03Z</time>
      </trkpt>
      <trkpt lat="48.39006" lon="7.4286">
        <ele>242</ele>
        <time>2020-09-03T05:02:11Z</time>
      </trkpt>
      <trkpt lat="48.39015" lon="7.42867">
        <ele>243</ele>
        <time>2020-09-03T05:02:13Z</time>
      </trkpt>
      <trkpt lat="48.39071" lon="7.42982">
        <ele>243</ele>
        <time>2020-09-03T05:02:29Z</time>
      </trkpt>
      <trkpt lat="48.39114" lon="7.43048">
        <ele>242</ele>
        <time>2020-09-03T05:02:40Z</time>
      </trkpt>
      <trkpt lat="48.39212" lon="7.43149">
        <ele>238</ele>
        <time>2020-09-03T05:03:02Z</time>
      </trkpt>
      <trkpt lat="48.3926" lon="7.43184">
        <ele>237</ele>
        <time>2020-09-03T05:03:11Z</time>
      </trkpt>
      <trkpt lat="48.39335" lon="7.43276">
        <ele>234</ele>
        <time>2020-09-03T05:03:28Z</time>
      </trkpt>
      <trkpt lat="48.39354" lon="7.43296">
        <ele>234</ele>
        <time>2020-09-03T05:03:32Z</time>
      </trkpt>
      <trkpt lat="48.39417" lon="7.43344">
        <ele>233</ele>
        <time>2020-09-03T05:03:45Z</time>
      </trkpt>
      <trkpt lat="48.39446" lon="7.43363">
        <ele>234</ele>
        <time>2020-09-03T05:03:51Z</time>
      </trkpt>
      <trkpt lat="48.39487" lon="7.43384">
        <ele>235</ele>
        <time>2020-09-03T05:03:58Z</time>
      </trkpt>
      <trkpt lat="48.39503" lon="7.43395">
        <ele>235</ele>
        <time>2020-09-03T05:04:01Z</time>
      </trkpt>
      <trkpt lat="48.39602" lon="7.43532">
        <ele>241</ele>
        <time>2020-09-03T05:04:25Z</time>
      </trkpt>
      <trkpt lat="48.39628" lon="7.43587">
        <ele>244</ele>
        <time>2020-09-03T05:04:33Z</time>
      </trkpt>
      <trkpt lat="48.39654" lon="7.43659">
        <ele>243</ele>
        <time>2020-09-03T05:04:43Z</time>
      </trkpt>
      <trkpt lat="48.39673" lon="7.43696">
        <ele>242</ele>
        <time>2020-09-03T05:04:48Z</time>
      </trkpt>
      <trkpt lat="48.39683" lon="7.43714">
        <ele>241</ele>
        <time>2020-09-03T05:04:51Z</time>
      </trkpt>
      <trkpt lat="48.39702" lon="7.4374">
        <ele>240</ele>
        <time>2020-09-03T05:04:56Z</time>
      </trkpt>
      <trkpt lat="48.39729" lon="7.43767">
        <ele>239</ele>
        <time>2020-09-03T05:05:02Z</time>
      </trkpt>
      <trkpt lat="48.39686" lon="7.43871">
        <ele>235</ele>
        <time>2020-09-03T05:05:16Z</time>
      </trkpt>
      <trkpt lat="48.39673" lon="7.43891">
        <ele>234</ele>
        <time>2020-09-03T05:05:19Z</time>
      </trkpt>
      <trkpt lat="48.39647" lon="7.4392">
        <ele>233</ele>
        <time>2020-09-03T05:05:25Z</time>
      </trkpt>
      <trkpt lat="48.39631" lon="7.43956">
        <ele>233</ele>
        <time>2020-09-03T05:05:30Z</time>
      </trkpt>
      <trkpt lat="48.39627" lon="7.43979">
        <ele>233</ele>
        <time>2020-09-03T05:05:33Z</time>
      </trkpt>
      <trkpt lat="48.39628" lon="7.44101">
        <ele>236</ele>
        <time>2020-09-03T05:05:47Z</time>
      </trkpt>
      <trkpt lat="48.39626" lon="7.44124">
        <ele>238</ele>
        <time>2020-09-03T05:05:50Z</time>
      </trkpt>
      <trkpt lat="48.3961" lon="7.44206">
        <ele>239</ele>
        <time>2020-09-03T05:06:00Z</time>
      </trkpt>
      <trkpt lat="48.39586" lon="7.44294">
        <ele>237</ele>
        <time>2020-09-03T05:06:12Z</time>
      </trkpt>
      <trkpt lat="48.39571" lon="7.44339">
        <ele>236</ele>
        <time>2020-09-03T05:06:17Z</time>
      </trkpt>
      <trkpt lat="48.39532" lon="7.44451">
        <ele>230</ele>
        <time>2020-09-03T05:06:32Z</time>
      </trkpt>
      <trkpt lat="48.39511" lon="7.44484">
        <ele>229</ele>
        <time>2020-09-03T05:06:38Z</time>
      </trkpt>
      <trkpt lat="48.39504" lon="7.44503">
        <ele>229</ele>
        <time>2020-09-03T05:06:40Z</time>
      </trkpt>
      <trkpt lat="48.39499" lon="7.44526">
        <ele>228</ele>
        <time>2020-09-03T05:06:43Z</time>
      </trkpt>
      <trkpt lat="48.39526" lon="7.44533">
        <ele>227</ele>
        <time>2020-09-03T05:06:48Z</time>
      </trkpt>
      <trkpt lat="48.39566" lon="7.44537">
        <ele>225</ele>
        <time>2020-09-03T05:06:55Z</time>
      </trkpt>
      <trkpt lat="48.39592" lon="7.44535">
        <ele>225</ele>
        <time>2020-09-03T05:07:00Z</time>
      </trkpt>
      <trkpt lat="48.39629" lon="7.44528">
        <ele>226</ele>
        <time>2020-09-03T05:07:07Z</time>
      </trkpt>
      <trkpt lat="48.3964" lon="7.4453">
        <ele>226</ele>
        <time>2020-09-03T05:07:09Z</time>
      </trkpt>
      <trkpt lat="48.39696" lon="7.44557">
        <ele>226</ele>
        <time>2020-09-03T05:07:19Z</time>
      </trkpt>
      <trkpt lat="48.39715" lon="7.44578">
        <ele>226</ele>
        <time>2020-09-03T05:07:23Z</time>
      </trkpt>
      <trkpt lat="48.39745" lon="7.4463">
        <ele>224</ele>
        <time>2020-09-03T05:07:31Z</time>
      </trkpt>
      <trkpt lat="48.39763" lon="7.44671">
        <ele>222</ele>
        <time>2020-09-03T05:07:37Z</time>
      </trkpt>
      <trkpt lat="48.39778" lon="7.44696">
        <ele>222</ele>
        <time>2020-09-03T05:07:41Z</time>
      </trkpt>
      <trkpt lat="48.39792" lon="7.44713">
        <ele>222</ele>
        <time>2020-09-03T05:07:44Z</time>
      </trkpt>
      <trkpt lat="48.39843" lon="7.44752">
        <ele>224</ele>
        <time>2020-09-03T05:07:54Z</time>
      </trkpt>
      <trkpt lat="48.39941" lon="7.44838">
        <ele>226</ele>
        <time>2020-09-03T05:08:15Z</time>
      </trkpt>
      <trkpt lat="48.40016" lon="7.44928">
        <ele>223</ele>
        <time>2020-09-03T05:08:32Z</time>
      </trkpt>
      <trkpt lat="48.40081" lon="7.44944">
        <ele>224</ele>
        <time>2020-09-03T05:08:43Z</time>
      </trkpt>
      <trkpt lat="48.40112" lon="7.44954">
        <ele>226</ele>
        <time>2020-09-03T05:08:49Z</time>
      </trkpt>
      <trkpt lat="48.40194" lon="7.44967">
        <ele>230</ele>
        <time>2020-09-03T05:09:04Z</time>
      </trkpt>
      <trkpt lat="48.40213" lon="7.44965">
        <ele>230</ele>
        <time>2020-09-03T05:09:07Z</time>
      </trkpt>
      <trkpt lat="48.4026" lon="7.44968">
        <ele>231</ele>
        <time>2020-09-03T05:09:16Z</time>
      </trkpt>
      <trkpt lat="48.40387" lon="7.44959">
        <ele>224</ele>
        <time>2020-09-03T05:09:38Z</time>
      </trkpt>
      <trkpt lat="48.40495" lon="7.44938">
        <ele>215</ele>
        <time>2020-09-03T05:09:57Z</time>
      </trkpt>
      <trkpt lat="48.40555" lon="7.44917">
        <ele>212</ele>
        <time>2020-09-03T05:10:08Z</time>
      </trkpt>
      <trkpt lat="48.40566" lon="7.44905">
        <ele>212</ele>
        <time>2020-09-03T05:10:11Z</time>
      </trkpt>
      <trkpt lat="48.40589" lon="7.44914">
        <ele>211</ele>
        <time>2020-09-03T05:10:15Z</time>
      </trkpt>
      <trkpt lat="48.40685" lon="7.4493">
        <ele>209</ele>
        <time>2020-09-03T05:10:32Z</time>
      </trkpt>
      <trkpt lat="48.40698" lon="7.44942">
        <ele>209</ele>
        <time>2020-09-03T05:10:35Z</time>
      </trkpt>
      <trkpt lat="48.40729" lon="7.44912">
        <ele>209</ele>
        <time>2020-09-03T05:10:42Z</time>
      </trkpt>
      <trkpt lat="48.40736" lon="7.44888">
        <ele>208</ele>
        <time>2020-09-03T05:10:45Z</time>
      </trkpt>
      <trkpt lat="48.40775" lon="7.44875">
        <ele>209</ele>
        <time>2020-09-03T05:10:52Z</time>
      </trkpt>
      <trkpt lat="48.408" lon="7.44873">
        <ele>210</ele>
        <time>2020-09-03T05:10:56Z</time>
      </trkpt>
      <trkpt lat="48.40838" lon="7.44877">
        <ele>211</ele>
        <time>2020-09-03T05:11:03Z</time>
      </trkpt>
      <trkpt lat="48.40842" lon="7.44881">
        <ele>212</ele>
        <time>2020-09-03T05:11:04Z</time>
      </trkpt>
      <trkpt lat="48.40865" lon="7.44966">
        <ele>211</ele>
        <time>2020-09-03T05:11:15Z</time>
      </trkpt>
      <trkpt lat="48.40911" lon="7.44985">
        <ele>214</ele>
        <time>2020-09-03T05:11:23Z</time>
      </trkpt>
      <trkpt lat="48.40921" lon="7.44992">
        <ele>214</ele>
        <time>2020-09-03T05:11:25Z</time>
      </trkpt>
      <trkpt lat="48.40934" lon="7.45018">
        <ele>215</ele>
        <time>2020-09-03T05:11:29Z</time>
      </trkpt>
      <trkpt lat="48.40955" lon="7.45042">
        <ele>215</ele>
        <time>2020-09-03T05:11:34Z</time>
      </trkpt>
      <trkpt lat="48.40987" lon="7.45072">
        <ele>216</ele>
        <time>2020-09-03T05:11:40Z</time>
      </trkpt>
      <trkpt lat="48.41007" lon="7.45104">
        <ele>215</ele>
        <time>2020-09-03T05:11:46Z</time>
      </trkpt>
      <trkpt lat="48.41056" lon="7.45202">
        <ele>213</ele>
        <time>2020-09-03T05:12:00Z</time>
      </trkpt>
      <trkpt lat="48.41068" lon="7.45213">
        <ele>214</ele>
        <time>2020-09-03T05:12:03Z</time>
      </trkpt>
      <trkpt lat="48.41067" lon="7.45228">
        <ele>213</ele>
        <time>2020-09-03T05:12:04Z</time>
      </trkpt>
      <trkpt lat="48.41083" lon="7.45258">
        <ele>213</ele>
        <time>2020-09-03T05:12:09Z</time>
      </trkpt>
      <trkpt lat="48.41092" lon="7.45286">
        <ele>212</ele>
        <time>2020-09-03T05:12:13Z</time>
      </trkpt>
      <trkpt lat="48.41093" lon="7.45301">
        <ele>211</ele>
        <time>2020-09-03T05:12:14Z</time>
      </trkpt>
      <trkpt lat="48.4108" lon="7.45329">
        <ele>208</ele>
        <time>2020-09-03T05:12:18Z</time>
      </trkpt>
      <trkpt lat="48.4107" lon="7.45379">
        <ele>203</ele>
        <time>2020-09-03T05:12:25Z</time>
      </trkpt>
      <trkpt lat="48.41057" lon="7.45542">
        <ele>195</ele>
        <time>2020-09-03T05:12:44Z</time>
      </trkpt>
      <trkpt lat="48.41052" lon="7.4555">
        <ele>195</ele>
        <time>2020-09-03T05:12:45Z</time>
      </trkpt>
      <trkpt lat="48.41055" lon="7.45568">
        <ele>194</ele>
        <time>2020-09-03T05:12:47Z</time>
      </trkpt>
      <trkpt lat="48.4103" lon="7.45825">
        <ele>191</ele>
        <time>2020-09-03T05:13:18Z</time>
      </trkpt>
      <trkpt lat="48.41017" lon="7.45819">
        <ele>191</ele>
        <time>2020-09-03T05:13:21Z</time>
      </trkpt>
      <trkpt lat="48.40798" lon="7.45649">
        <ele>196</ele>
        <time>2020-09-03T05:14:04Z</time>
      </trkpt>
      <trkpt lat="48.40795" lon="7.45655">
        <ele>196</ele>
        <time>2020-09-03T05:14:05Z</time>
      </trkpt>
      <trkpt lat="48.40791" lon="7.45655">
        <ele>196</ele>
        <time>2020-09-03T05:14:06Z</time>
      </trkpt>
      <trkpt lat="48.40788" lon="7.45678">
        <ele>196</ele>
        <time>2020-09-03T05:14:09Z</time>
      </trkpt>
      <trkpt lat="48.40784" lon="7.4573">
        <ele>196</ele>
        <time>2020-09-03T05:14:15Z</time>
      </trkpt>
      <trkpt lat="48.40828" lon="7.45938">
        <ele>195</ele>
        <time>2020-09-03T05:14:41Z</time>
      </trkpt>
      <trkpt lat="48.40857" lon="7.46128">
        <ele>191</ele>
        <time>2020-09-03T05:15:04Z</time>
      </trkpt>
      <trkpt lat="48.40866" lon="7.46223">
        <ele>191</ele>
        <time>2020-09-03T05:15:15Z</time>
      </trkpt>
      <trkpt lat="48.40873" lon="7.46387">
        <ele>191</ele>
        <time>2020-09-03T05:15:34Z</time>
      </trkpt>
      <trkpt lat="48.4089" lon="7.4643">
        <ele>190</ele>
        <time>2020-09-03T05:15:40Z</time>
      </trkpt>
      <trkpt lat="48.40921" lon="7.46468">
        <ele>189</ele>
        <time>2020-09-03T05:15:47Z</time>
      </trkpt>
      <trkpt lat="48.40947" lon="7.46508">
        <ele>187</ele>
        <time>2020-09-03T05:15:54Z</time>
      </trkpt>
      <trkpt lat="48.40986" lon="7.46621">
        <ele>186</ele>
        <time>2020-09-03T05:16:09Z</time>
      </trkpt>
      <trkpt lat="48.41002" lon="7.46639">
        <ele>185</ele>
        <time>2020-09-03T05:16:13Z</time>
      </trkpt>
      <trkpt lat="48.41056" lon="7.46672">
        <ele>182</ele>
        <time>2020-09-03T05:16:23Z</time>
      </trkpt>
      <trkpt lat="48.41078" lon="7.46692">
        <ele>182</ele>
        <time>2020-09-03T05:16:28Z</time>
      </trkpt>
      <trkpt lat="48.41092" lon="7.46715">
        <ele>182</ele>
        <time>2020-09-03T05:16:31Z</time>
      </trkpt>
      <trkpt lat="48.41108" lon="7.4676">
        <ele>183</ele>
        <time>2020-09-03T05:16:37Z</time>
      </trkpt>
      <trkpt lat="48.4114" lon="7.46752">
        <ele>183</ele>
        <time>2020-09-03T05:16:43Z</time>
      </trkpt>
      <trkpt lat="48.41225" lon="7.4671">
        <ele>186</ele>
        <time>2020-09-03T05:16:59Z</time>
      </trkpt>
      <trkpt lat="48.41289" lon="7.46691">
        <ele>189</ele>
        <time>2020-09-03T05:17:11Z</time>
      </trkpt>
      <trkpt lat="48.41356" lon="7.46677">
        <ele>191</ele>
        <time>2020-09-03T05:17:23Z</time>
      </trkpt>
      <trkpt lat="48.41418" lon="7.4667">
        <ele>193</ele>
        <time>2020-09-03T05:17:34Z</time>
      </trkpt>
      <trkpt lat="48.41552" lon="7.46664">
        <ele>196</ele>
        <time>2020-09-03T05:17:58Z</time>
      </trkpt>
      <trkpt lat="48.4156" lon="7.46661">
        <ele>196</ele>
        <time>2020-09-03T05:17:59Z</time>
      </trkpt>
      <trkpt lat="48.41563" lon="7.46678">
        <ele>196</ele>
        <time>2020-09-03T05:18:01Z</time>
      </trkpt>
      <trkpt lat="48.41569" lon="7.46678">
        <ele>196</ele>
        <time>2020-09-03T05:18:02Z</time>
      </trkpt>
      <trkpt lat="48.41637" lon="7.4671">
        <ele>194</ele>
        <time>2020-09-03T05:18:15Z</time>
      </trkpt>
      <trkpt lat="48.41664" lon="7.46729">
        <ele>194</ele>
        <time>2020-09-03T05:18:20Z</time>
      </trkpt>
      <trkpt lat="48.41676" lon="7.46747">
        <ele>193</ele>
        <time>2020-09-03T05:18:23Z</time>
      </trkpt>
      <trkpt lat="48.41747" lon="7.46924">
        <ele>189</ele>
        <time>2020-09-03T05:18:48Z</time>
      </trkpt>
      <trkpt lat="48.41778" lon="7.47037">
        <ele>189</ele>
        <time>2020-09-03T05:19:02Z</time>
      </trkpt>
      <trkpt lat="48.41788" lon="7.47066">
        <ele>188</ele>
        <time>2020-09-03T05:19:06Z</time>
      </trkpt>
      <trkpt lat="48.41801" lon="7.47084">
        <ele>188</ele>
        <time>2020-09-03T05:19:09Z</time>
      </trkpt>
      <trkpt lat="48.41868" lon="7.47152">
        <ele>186</ele>
        <time>2020-09-03T05:19:23Z</time>
      </trkpt>
      <trkpt lat="48.41918" lon="7.47216">
        <ele>184</ele>
        <time>2020-09-03T05:19:35Z</time>
      </trkpt>
      <trkpt lat="48.41969" lon="7.47273">
        <ele>184</ele>
        <time>2020-09-03T05:19:46Z</time>
      </trkpt>
      <trkpt lat="48.42015" lon="7.473">
        <ele>183</ele>
        <time>2020-09-03T05:19:55Z</time>
      </trkpt>
      <trkpt lat="48.42038" lon="7.47319">
        <ele>183</ele>
        <time>2020-09-03T05:20:00Z</time>
      </trkpt>
      <trkpt lat="48.42112" lon="7.4741">
        <ele>180</ele>
        <time>2020-09-03T05:20:17Z</time>
      </trkpt>
      <trkpt lat="48.42149" lon="7.47433">
        <ele>180</ele>
        <time>2020-09-03T05:20:24Z</time>
      </trkpt>
      <trkpt lat="48.42263" lon="7.47438">
        <ele>182</ele>
        <time>2020-09-03T05:20:44Z</time>
      </trkpt>
      <trkpt lat="48.42278" lon="7.47443">
        <ele>182</ele>
        <time>2020-09-03T05:20:47Z</time>
      </trkpt>
      <trkpt lat="48.42306" lon="7.47459">
        <ele>183</ele>
        <time>2020-09-03T05:20:52Z</time>
      </trkpt>
      <trkpt lat="48.42322" lon="7.47473">
        <ele>184</ele>
        <time>2020-09-03T05:20:56Z</time>
      </trkpt>
      <trkpt lat="48.42367" lon="7.47539">
        <ele>182</ele>
        <time>2020-09-03T05:21:07Z</time>
      </trkpt>
      <trkpt lat="48.42388" lon="7.47582">
        <ele>181</ele>
        <time>2020-09-03T05:21:13Z</time>
      </trkpt>
      <trkpt lat="48.42518" lon="7.47624">
        <ele>179</ele>
        <time>2020-09-03T05:21:37Z</time>
      </trkpt>
      <trkpt lat="48.42569" lon="7.47629">
        <ele>180</ele>
        <time>2020-09-03T05:21:46Z</time>
      </trkpt>
      <trkpt lat="48.42594" lon="7.47629">
        <ele>180</ele>
        <time>2020-09-03T05:21:50Z</time>
      </trkpt>
      <trkpt lat="48.42601" lon="7.47626">
        <ele>180</ele>
        <time>2020-09-03T05:21:52Z</time>
      </trkpt>
      <trkpt lat="48.42609" lon="7.47618">
        <ele>180</ele>
        <time>2020-09-03T05:21:53Z</time>
      </trkpt>
      <trkpt lat="48.4262" lon="7.4757">
        <ele>181</ele>
        <time>2020-09-03T05:21:59Z</time>
      </trkpt>
      <trkpt lat="48.42679" lon="7.47569">
        <ele>180</ele>
        <time>2020-09-03T05:22:10Z</time>
      </trkpt>
      <trkpt lat="48.42701" lon="7.47571">
        <ele>180</ele>
        <time>2020-09-03T05:22:14Z</time>
      </trkpt>
      <trkpt lat="48.42754" lon="7.47584">
        <ele>180</ele>
        <time>2020-09-03T05:22:23Z</time>
      </trkpt>
      <trkpt lat="48.42808" lon="7.47576">
        <ele>179</ele>
        <time>2020-09-03T05:22:33Z</time>
      </trkpt>
      <trkpt lat="48.42859" lon="7.47576">
        <ele>179</ele>
        <time>2020-09-03T05:22:42Z</time>
      </trkpt>
      <trkpt lat="48.42959" lon="7.47559">
        <ele>180</ele>
        <time>2020-09-03T05:23:00Z</time>
      </trkpt>
      <trkpt lat="48.43007" lon="7.47556">
        <ele>180</ele>
        <time>2020-09-03T05:23:08Z</time>
      </trkpt>
      <trkpt lat="48.43101" lon="7.47544">
        <ele>180</ele>
        <time>2020-09-03T05:23:25Z</time>
      </trkpt>
      <trkpt lat="48.43144" lon="7.47528">
        <ele>179</ele>
        <time>2020-09-03T05:23:33Z</time>
      </trkpt>
      <trkpt lat="48.43172" lon="7.47512">
        <ele>179</ele>
        <time>2020-09-03T05:23:38Z</time>
      </trkpt>
      <trkpt lat="48.4322" lon="7.47474">
        <ele>179</ele>
        <time>2020-09-03T05:23:48Z</time>
      </trkpt>
      <trkpt lat="48.43248" lon="7.4746">
        <ele>178</ele>
        <time>2020-09-03T05:23:53Z</time>
      </trkpt>
      <trkpt lat="48.43279" lon="7.47611">
        <ele>175</ele>
        <time>2020-09-03T05:24:12Z</time>
      </trkpt>
      <trkpt lat="48.43284" lon="7.47623">
        <ele>175</ele>
        <time>2020-09-03T05:24:14Z</time>
      </trkpt>
      <trkpt lat="48.43291" lon="7.47632">
        <ele>174</ele>
        <time>2020-09-03T05:24:15Z</time>
      </trkpt>
      <trkpt lat="48.43297" lon="7.47624">
        <ele>175</ele>
        <time>2020-09-03T05:24:17Z</time>
      </trkpt>
      <trkpt lat="48.43311" lon="7.47615">
        <ele>175</ele>
        <time>2020-09-03T05:24:19Z</time>
      </trkpt>
      <trkpt lat="48.43362" lon="7.47598">
        <ele>175</ele>
        <time>2020-09-03T05:24:29Z</time>
      </trkpt>
      <trkpt lat="48.43464" lon="7.47584">
        <ele>175</ele>
        <time>2020-09-03T05:24:47Z</time>
      </trkpt>
      <trkpt lat="48.43593" lon="7.47556">
        <ele>177</ele>
        <time>2020-09-03T05:25:10Z</time>
      </trkpt>
      <trkpt lat="48.4361" lon="7.47542">
        <ele>178</ele>
        <time>2020-09-03T05:25:14Z</time>
      </trkpt>
      <trkpt lat="48.43637" lon="7.47502">
        <ele>179</ele>
        <time>2020-09-03T05:25:20Z</time>
      </trkpt>
      <trkpt lat="48.43641" lon="7.47483">
        <ele>179</ele>
        <time>2020-09-03T05:25:23Z</time>
      </trkpt>
      <trkpt lat="48.43638" lon="7.4746">
        <ele>179</ele>
        <time>2020-09-03T05:25:25Z</time>
      </trkpt>
      <trkpt lat="48.43611" lon="7.47377">
        <ele>180</ele>
        <time>2020-09-03T05:25:36Z</time>
      </trkpt>
      <trkpt lat="48.43604" lon="7.47345">
        <ele>180</ele>
        <time>2020-09-03T05:25:40Z</time>
      </trkpt>
      <trkpt lat="48.43583" lon="7.47162">
        <ele>183</ele>
        <time>2020-09-03T05:26:02Z</time>
      </trkpt>
      <trkpt lat="48.43584" lon="7.47142">
        <ele>184</ele>
        <time>2020-09-03T05:26:05Z</time>
      </trkpt>
      <trkpt lat="48.4359" lon="7.47127">
        <ele>184</ele>
        <time>2020-09-03T05:26:07Z</time>
      </trkpt>
      <trkpt lat="48.436" lon="7.47115">
        <ele>184</ele>
        <time>2020-09-03T05:26:09Z</time>
      </trkpt>
      <trkpt lat="48.43671" lon="7.47083">
        <ele>186</ele>
        <time>2020-09-03T05:26:22Z</time>
      </trkpt>
      <trkpt lat="48.43794" lon="7.47036">
        <ele>185</ele>
        <time>2020-09-03T05:26:45Z</time>
      </trkpt>
      <trkpt lat="48.43821" lon="7.47028">
        <ele>185</ele>
        <time>2020-09-03T05:26:50Z</time>
      </trkpt>
      <trkpt lat="48.43883" lon="7.47017">
        <ele>186</ele>
        <time>2020-09-03T05:27:01Z</time>
      </trkpt>
      <trkpt lat="48.44029" lon="7.46961">
        <ele>184</ele>
        <time>2020-09-03T05:27:28Z</time>
      </trkpt>
      <trkpt lat="48.44104" lon="7.4691">
        <ele>186</ele>
        <time>2020-09-03T05:27:42Z</time>
      </trkpt>
      <trkpt lat="48.4413" lon="7.46889">
        <ele>187</ele>
        <time>2020-09-03T05:27:47Z</time>
      </trkpt>
      <trkpt lat="48.44147" lon="7.46872">
        <ele>187</ele>
        <time>2020-09-03T05:27:51Z</time>
      </trkpt>
      <trkpt lat="48.44175" lon="7.46832">
        <ele>188</ele>
        <time>2020-09-03T05:27:58Z</time>
      </trkpt>
      <trkpt lat="48.44263" lon="7.46657">
        <ele>187</ele>
        <time>2020-09-03T05:28:24Z</time>
      </trkpt>
      <trkpt lat="48.44385" lon="7.46365">
        <ele>194</ele>
        <time>2020-09-03T05:29:05Z</time>
      </trkpt>
      <trkpt lat="48.44396" lon="7.46345">
        <ele>195</ele>
        <time>2020-09-03T05:29:08Z</time>
      </trkpt>
      <trkpt lat="48.44438" lon="7.46283">
        <ele>196</ele>
        <time>2020-09-03T05:29:18Z</time>
      </trkpt>
      <trkpt lat="48.44461" lon="7.46271">
        <ele>196</ele>
        <time>2020-09-03T05:29:22Z</time>
      </trkpt>
      <trkpt lat="48.44994" lon="7.46261">
        <ele>217</ele>
        <time>2020-09-03T05:30:57Z</time>
      </trkpt>
      <trkpt lat="48.45009" lon="7.46265">
        <ele>218</ele>
        <time>2020-09-03T05:31:00Z</time>
      </trkpt>
      <trkpt lat="48.4502" lon="7.46253">
        <ele>218</ele>
        <time>2020-09-03T05:31:02Z</time>
      </trkpt>
      <trkpt lat="48.45031" lon="7.46259">
        <ele>218</ele>
        <time>2020-09-03T05:31:04Z</time>
      </trkpt>
      <trkpt lat="48.45062" lon="7.46263">
        <ele>219</ele>
        <time>2020-09-03T05:31:10Z</time>
      </trkpt>
      <trkpt lat="48.4508" lon="7.46269">
        <ele>219</ele>
        <time>2020-09-03T05:31:13Z</time>
      </trkpt>
      <trkpt lat="48.45127" lon="7.463">
        <ele>220</ele>
        <time>2020-09-03T05:31:22Z</time>
      </trkpt>
      <trkpt lat="48.4514" lon="7.46316">
        <ele>220</ele>
        <time>2020-09-03T05:31:25Z</time>
      </trkpt>
      <trkpt lat="48.45207" lon="7.46354">
        <ele>223</ele>
        <time>2020-09-03T05:31:38Z</time>
      </trkpt>
      <trkpt lat="48.45249" lon="7.46386">
        <ele>224</ele>
        <time>2020-09-03T05:31:47Z</time>
      </trkpt>
      <trkpt lat="48.45259" lon="7.46384">
        <ele>225</ele>
        <time>2020-09-03T05:31:48Z</time>
      </trkpt>
      <trkpt lat="48.45291" lon="7.46422">
        <ele>225</ele>
        <time>2020-09-03T05:31:56Z</time>
      </trkpt>
      <trkpt lat="48.45328" lon="7.46509">
        <ele>224</ele>
        <time>2020-09-03T05:32:08Z</time>
      </trkpt>
      <trkpt lat="48.45337" lon="7.46559">
        <ele>223</ele>
        <time>2020-09-03T05:32:14Z</time>
      </trkpt>
      <trkpt lat="48.4534" lon="7.46586">
        <ele>222</ele>
        <time>2020-09-03T05:32:17Z</time>
      </trkpt>
      <trkpt lat="48.45341" lon="7.4668">
        <ele>217</ele>
        <time>2020-09-03T05:32:28Z</time>
      </trkpt>
      <trkpt lat="48.45337" lon="7.46834">
        <ele>210</ele>
        <time>2020-09-03T05:32:46Z</time>
      </trkpt>
      <trkpt lat="48.45341" lon="7.46844">
        <ele>209</ele>
        <time>2020-09-03T05:32:48Z</time>
      </trkpt>
      <trkpt lat="48.454" lon="7.46884">
        <ele>208</ele>
        <time>2020-09-03T05:32:59Z</time>
      </trkpt>
      <trkpt lat="48.45467" lon="7.46942">
        <ele>207</ele>
        <time>2020-09-03T05:33:13Z</time>
      </trkpt>
      <trkpt lat="48.45492" lon="7.46957">
        <ele>206</ele>
        <time>2020-09-03T05:33:18Z</time>
      </trkpt>
      <trkpt lat="48.45499" lon="7.46972">
        <ele>206</ele>
        <time>2020-09-03T05:33:20Z</time>
      </trkpt>
      <trkpt lat="48.45531" lon="7.46996">
        <ele>206</ele>
        <time>2020-09-03T05:33:26Z</time>
      </trkpt>
      <trkpt lat="48.45536" lon="7.47005">
        <ele>206</ele>
        <time>2020-09-03T05:33:28Z</time>
      </trkpt>
      <trkpt lat="48.45522" lon="7.47012">
        <ele>205</ele>
        <time>2020-09-03T05:33:30Z</time>
      </trkpt>
      <trkpt lat="48.45513" lon="7.47037">
        <ele>204</ele>
        <time>2020-09-03T05:33:34Z</time>
      </trkpt>
      <trkpt lat="48.45475" lon="7.47118">
        <ele>201</ele>
        <time>2020-09-03T05:33:45Z</time>
      </trkpt>
      <trkpt lat="48.45394" lon="7.47353">
        <ele>194</ele>
        <time>2020-09-03T05:34:17Z</time>
      </trkpt>
      <trkpt lat="48.45361" lon="7.47475">
        <ele>191</ele>
        <time>2020-09-03T05:34:32Z</time>
      </trkpt>
      <trkpt lat="48.45156" lon="7.48132">
        <ele>181</ele>
        <time>2020-09-03T05:35:58Z</time>
      </trkpt>
      <trkpt lat="48.45126" lon="7.48263">
        <ele>182</ele>
        <time>2020-09-03T05:36:14Z</time>
      </trkpt>
      <trkpt lat="48.45117" lon="7.48328">
        <ele>181</ele>
        <time>2020-09-03T05:36:22Z</time>
      </trkpt>
      <trkpt lat="48.45116" lon="7.48356">
        <ele>181</ele>
        <time>2020-09-03T05:36:25Z</time>
      </trkpt>
      <trkpt lat="48.45124" lon="7.48407">
        <ele>181</ele>
        <time>2020-09-03T05:36:32Z</time>
      </trkpt>
      <trkpt lat="48.45239" lon="7.48424">
        <ele>182</ele>
        <time>2020-09-03T05:36:52Z</time>
      </trkpt>
      <trkpt lat="48.45315" lon="7.48442">
        <ele>182</ele>
        <time>2020-09-03T05:37:06Z</time>
      </trkpt>
      <trkpt lat="48.45357" lon="7.48453">
        <ele>181</ele>
        <time>2020-09-03T05:37:13Z</time>
      </trkpt>
      <trkpt lat="48.45403" lon="7.4847">
        <ele>180</ele>
        <time>2020-09-03T05:37:22Z</time>
      </trkpt>
      <trkpt lat="48.45478" lon="7.48492">
        <ele>181</ele>
        <time>2020-09-03T05:37:35Z</time>
      </trkpt>
      <trkpt lat="48.45521" lon="7.48528">
        <ele>181</ele>
        <time>2020-09-03T05:37:44Z</time>
      </trkpt>
      <trkpt lat="48.45526" lon="7.4854">
        <ele>181</ele>
        <time>2020-09-03T05:37:46Z</time>
      </trkpt>
      <trkpt lat="48.45591" lon="7.48495">
        <ele>184</ele>
        <time>2020-09-03T05:37:59Z</time>
      </trkpt>
      <trkpt lat="48.456" lon="7.48508">
        <ele>184</ele>
        <time>2020-09-03T05:38:01Z</time>
      </trkpt>
      <trkpt lat="48.45767" lon="7.48611">
        <ele>180</ele>
        <time>2020-09-03T05:38:33Z</time>
      </trkpt>
      <trkpt lat="48.45807" lon="7.48638">
        <ele>179</ele>
        <time>2020-09-03T05:38:41Z</time>
      </trkpt>
      <trkpt lat="48.45851" lon="7.48675">
        <ele>177</ele>
        <time>2020-09-03T05:38:50Z</time>
      </trkpt>
      <trkpt lat="48.45951" lon="7.48701">
        <ele>175</ele>
        <time>2020-09-03T05:39:08Z</time>
      </trkpt>
      <trkpt lat="48.45968" lon="7.48695">
        <ele>176</ele>
        <time>2020-09-03T05:39:11Z</time>
      </trkpt>
      <trkpt lat="48.45989" lon="7.48618">
        <ele>177</ele>
        <time>2020-09-03T05:39:21Z</time>
      </trkpt>
      <trkpt lat="48.46014" lon="7.48632">
        <ele>177</ele>
        <time>2020-09-03T05:39:25Z</time>
      </trkpt>
      <trkpt lat="48.4603" lon="7.48657">
        <ele>178</ele>
        <time>2020-09-03T05:39:29Z</time>
      </trkpt>
      <trkpt lat="48.4604" lon="7.48654">
        <ele>178</ele>
        <time>2020-09-03T05:39:31Z</time>
      </trkpt>
      <trkpt lat="48.46052" lon="7.4864">
        <ele>179</ele>
        <time>2020-09-03T05:39:34Z</time>
      </trkpt>
      <trkpt lat="48.46059" lon="7.48574">
        <ele>179</ele>
        <time>2020-09-03T05:39:42Z</time>
      </trkpt>
      <trkpt lat="48.46067" lon="7.48541">
        <ele>180</ele>
        <time>2020-09-03T05:39:46Z</time>
      </trkpt>
      <trkpt lat="48.46111" lon="7.48479">
        <ele>182</ele>
        <time>2020-09-03T05:39:57Z</time>
      </trkpt>
      <trkpt lat="48.46169" lon="7.48509">
        <ele>184</ele>
        <time>2020-09-03T05:40:08Z</time>
      </trkpt>
      <trkpt lat="48.46189" lon="7.4853">
        <ele>184</ele>
        <time>2020-09-03T05:40:12Z</time>
      </trkpt>
      <trkpt lat="48.46222" lon="7.48546">
        <ele>185</ele>
        <time>2020-09-03T05:40:18Z</time>
      </trkpt>
      <trkpt lat="48.46245" lon="7.48552">
        <ele>186</ele>
        <time>2020-09-03T05:40:22Z</time>
      </trkpt>
      <trkpt lat="48.46261" lon="7.4855">
        <ele>186</ele>
        <time>2020-09-03T05:40:25Z</time>
      </trkpt>
      <trkpt lat="48.4627" lon="7.48542">
        <ele>186</ele>
        <time>2020-09-03T05:40:27Z</time>
      </trkpt>
      <trkpt lat="48.46277" lon="7.4854">
        <ele>186</ele>
        <time>2020-09-03T05:40:28Z</time>
      </trkpt>
      <trkpt lat="48.46302" lon="7.48487">
        <ele>185</ele>
        <time>2020-09-03T05:40:36Z</time>
      </trkpt>
      <trkpt lat="48.46332" lon="7.48367">
        <ele>186</ele>
        <time>2020-09-03T05:40:51Z</time>
      </trkpt>
      <trkpt lat="48.46367" lon="7.48379">
        <ele>190</ele>
        <time>2020-09-03T05:40:57Z</time>
      </trkpt>
      <trkpt lat="48.46425" lon="7.48381">
        <ele>197</ele>
        <time>2020-09-03T05:41:08Z</time>
      </trkpt>
      <trkpt lat="48.46417" lon="7.48317">
        <ele>198</ele>
        <time>2020-09-03T05:41:16Z</time>
      </trkpt>
      <trkpt lat="48.46436" lon="7.48341">
        <ele>200</ele>
        <time>2020-09-03T05:41:20Z</time>
      </trkpt>
      <trkpt lat="48.46449" lon="7.48364">
        <ele>202</ele>
        <time>2020-09-03T05:41:23Z</time>
      </trkpt>
      <trkpt lat="48.46487" lon="7.48403">
        <ele>206</ele>
        <time>2020-09-03T05:41:32Z</time>
      </trkpt>
      <trkpt lat="48.46512" lon="7.48424">
        <ele>208</ele>
        <time>2020-09-03T05:41:37Z</time>
      </trkpt>
      <trkpt lat="48.46554" lon="7.48457">
        <ele>211</ele>
        <time>2020-09-03T05:41:45Z</time>
      </trkpt>
      <trkpt lat="48.46618" lon="7.48498">
        <ele>214</ele>
        <time>2020-09-03T05:41:58Z</time>
      </trkpt>
      <trkpt lat="48.46709" lon="7.48568">
        <ele>213</ele>
        <time>2020-09-03T05:42:16Z</time>
      </trkpt>
      <trkpt lat="48.46721" lon="7.48568">
        <ele>214</ele>
        <time>2020-09-03T05:42:18Z</time>
      </trkpt>
      <trkpt lat="48.46729" lon="7.48581">
        <ele>213</ele>
        <time>2020-09-03T05:42:20Z</time>
      </trkpt>
      <trkpt lat="48.4682" lon="7.48679">
        <ele>205</ele>
        <time>2020-09-03T05:42:40Z</time>
      </trkpt>
      <trkpt lat="48.46927" lon="7.48778">
        <ele>201</ele>
        <time>2020-09-03T05:43:02Z</time>
      </trkpt>
      <trkpt lat="48.46966" lon="7.48824">
        <ele>199</ele>
        <time>2020-09-03T05:43:11Z</time>
      </trkpt>
      <trkpt lat="48.4698" lon="7.48846">
        <ele>198</ele>
        <time>2020-09-03T05:43:15Z</time>
      </trkpt>
      <trkpt lat="48.47012" lon="7.48881">
        <ele>196</ele>
        <time>2020-09-03T05:43:22Z</time>
      </trkpt>
      <trkpt lat="48.47051" lon="7.48893">
        <ele>195</ele>
        <time>2020-09-03T05:43:29Z</time>
      </trkpt>
      <trkpt lat="48.47143" lon="7.48901">
        <ele>195</ele>
        <time>2020-09-03T05:43:45Z</time>
      </trkpt>
      <trkpt lat="48.4719" lon="7.489">
        <ele>195</ele>
        <time>2020-09-03T05:43:53Z</time>
      </trkpt>
      <trkpt lat="48.47219" lon="7.48896">
        <ele>196</ele>
        <time>2020-09-03T05:43:59Z</time>
      </trkpt>
      <trkpt lat="48.47238" lon="7.48898">
        <ele>196</ele>
        <time>2020-09-03T05:44:02Z</time>
      </trkpt>
      <trkpt lat="48.47263" lon="7.4891">
        <ele>196</ele>
        <time>2020-09-03T05:44:07Z</time>
      </trkpt>
      <trkpt lat="48.47278" lon="7.48914">
        <ele>197</ele>
        <time>2020-09-03T05:44:09Z</time>
      </trkpt>
      <trkpt lat="48.47313" lon="7.48938">
        <ele>198</ele>
        <time>2020-09-03T05:44:16Z</time>
      </trkpt>
      <trkpt lat="48.47344" lon="7.4898">
        <ele>199</ele>
        <time>2020-09-03T05:44:24Z</time>
      </trkpt>
      <trkpt lat="48.4738" lon="7.49017">
        <ele>201</ele>
        <time>2020-09-03T05:44:31Z</time>
      </trkpt>
      <trkpt lat="48.47407" lon="7.49036">
        <ele>202</ele>
        <time>2020-09-03T05:44:37Z</time>
      </trkpt>
      <trkpt lat="48.47504" lon="7.49074">
        <ele>206</ele>
        <time>2020-09-03T05:44:55Z</time>
      </trkpt>
      <trkpt lat="48.47534" lon="7.49097">
        <ele>207</ele>
        <time>2020-09-03T05:45:01Z</time>
      </trkpt>
      <trkpt lat="48.47594" lon="7.49156">
        <ele>206</ele>
        <time>2020-09-03T05:45:13Z</time>
      </trkpt>
      <trkpt lat="48.47658" lon="7.49249">
        <ele>203</ele>
        <time>2020-09-03T05:45:29Z</time>
      </trkpt>
      <trkpt lat="48.47682" lon="7.49274">
        <ele>202</ele>
        <time>2020-09-03T05:45:34Z</time>
      </trkpt>
      <trkpt lat="48.4771" lon="7.49295">
        <ele>200</ele>
        <time>2020-09-03T05:45:40Z</time>
      </trkpt>
      <trkpt lat="48.47732" lon="7.49306">
        <ele>198</ele>
        <time>2020-09-03T05:45:44Z</time>
      </trkpt>
      <trkpt lat="48.47751" lon="7.49303">
        <ele>197</ele>
        <time>2020-09-03T05:45:47Z</time>
      </trkpt>
      <trkpt lat="48.47776" lon="7.49292">
        <ele>196</ele>
        <time>2020-09-03T05:45:52Z</time>
      </trkpt>
      <trkpt lat="48.47828" lon="7.49254">
        <ele>193</ele>
        <time>2020-09-03T05:46:02Z</time>
      </trkpt>
      <trkpt lat="48.47908" lon="7.49215">
        <ele>194</ele>
        <time>2020-09-03T05:46:17Z</time>
      </trkpt>
      <trkpt lat="48.47952" lon="7.492">
        <ele>195</ele>
        <time>2020-09-03T05:46:25Z</time>
      </trkpt>
      <trkpt lat="48.48004" lon="7.49194">
        <ele>196</ele>
        <time>2020-09-03T05:46:35Z</time>
      </trkpt>
      <trkpt lat="48.48183" lon="7.49185">
        <ele>197</ele>
        <time>2020-09-03T05:47:06Z</time>
      </trkpt>
      <trkpt lat="48.48288" lon="7.49203">
        <ele>197</ele>
        <time>2020-09-03T05:47:25Z</time>
      </trkpt>
      <trkpt lat="48.48317" lon="7.49204">
        <ele>197</ele>
        <time>2020-09-03T05:47:30Z</time>
      </trkpt>
      <trkpt lat="48.48361" lon="7.49192">
        <ele>198</ele>
        <time>2020-09-03T05:47:38Z</time>
      </trkpt>
      <trkpt lat="48.4844" lon="7.49157">
        <ele>201</ele>
        <time>2020-09-03T05:47:53Z</time>
      </trkpt>
      <trkpt lat="48.48444" lon="7.49149">
        <ele>202</ele>
        <time>2020-09-03T05:47:54Z</time>
      </trkpt>
      <trkpt lat="48.48538" lon="7.49147">
        <ele>204</ele>
        <time>2020-09-03T05:48:11Z</time>
      </trkpt>
      <trkpt lat="48.48597" lon="7.49159">
        <ele>203</ele>
        <time>2020-09-03T05:48:21Z</time>
      </trkpt>
      <trkpt lat="48.48613" lon="7.49168">
        <ele>202</ele>
        <time>2020-09-03T05:48:25Z</time>
      </trkpt>
      <trkpt lat="48.48664" lon="7.49165">
        <ele>199</ele>
        <time>2020-09-03T05:48:34Z</time>
      </trkpt>
      <trkpt lat="48.48705" lon="7.4914">
        <ele>199</ele>
        <time>2020-09-03T05:48:41Z</time>
      </trkpt>
      <trkpt lat="48.48705" lon="7.49127">
        <ele>199</ele>
        <time>2020-09-03T05:48:43Z</time>
      </trkpt>
      <trkpt lat="48.48766" lon="7.49105">
        <ele>198</ele>
        <time>2020-09-03T05:48:54Z</time>
      </trkpt>
      <trkpt lat="48.48806" lon="7.49082">
        <ele>198</ele>
        <time>2020-09-03T05:49:02Z</time>
      </trkpt>
      <trkpt lat="48.48828" lon="7.49074">
        <ele>198</ele>
        <time>2020-09-03T05:49:06Z</time>
      </trkpt>
      <trkpt lat="48.48858" lon="7.49076">
        <ele>198</ele>
        <time>2020-09-03T05:49:11Z</time>
      </trkpt>
      <trkpt lat="48.48897" lon="7.49066">
        <ele>198</ele>
        <time>2020-09-03T05:49:18Z</time>
      </trkpt>
      <trkpt lat="48.48926" lon="7.49048">
        <ele>198</ele>
        <time>2020-09-03T05:49:24Z</time>
      </trkpt>
      <trkpt lat="48.48987" lon="7.49003">
        <ele>197</ele>
        <time>2020-09-03T05:49:36Z</time>
      </trkpt>
      <trkpt lat="48.49044" lon="7.48965">
        <ele>197</ele>
        <time>2020-09-03T05:49:47Z</time>
      </trkpt>
      <trkpt lat="48.49047" lon="7.48973">
        <ele>197</ele>
        <time>2020-09-03T05:49:48Z</time>
      </trkpt>
      <trkpt lat="48.49131" lon="7.48896">
        <ele>195</ele>
        <time>2020-09-03T05:50:06Z</time>
      </trkpt>
      <trkpt lat="48.49291" lon="7.48713">
        <ele>191</ele>
        <time>2020-09-03T05:50:41Z</time>
      </trkpt>
      <trkpt lat="48.49305" lon="7.48711">
        <ele>191</ele>
        <time>2020-09-03T05:50:44Z</time>
      </trkpt>
      <trkpt lat="48.49388" lon="7.48197">
        <ele>188</ele>
        <time>2020-09-03T05:51:46Z</time>
      </trkpt>
      <trkpt lat="48.49402" lon="7.48136">
        <ele>189</ele>
        <time>2020-09-03T05:51:54Z</time>
      </trkpt>
      <trkpt lat="48.4942" lon="7.48079">
        <ele>191</ele>
        <time>2020-09-03T05:52:01Z</time>
      </trkpt>
      <trkpt lat="48.49433" lon="7.48046">
        <ele>191</ele>
        <time>2020-09-03T05:52:06Z</time>
      </trkpt>
      <trkpt lat="48.49469" lon="7.47982">
        <ele>190</ele>
        <time>2020-09-03T05:52:16Z</time>
      </trkpt>
      <trkpt lat="48.49498" lon="7.47942">
        <ele>191</ele>
        <time>2020-09-03T05:52:23Z</time>
      </trkpt>
      <trkpt lat="48.4954" lon="7.47896">
        <ele>190</ele>
        <time>2020-09-03T05:52:32Z</time>
      </trkpt>
      <trkpt lat="48.49548" lon="7.47892">
        <ele>189</ele>
        <time>2020-09-03T05:52:33Z</time>
      </trkpt>
      <trkpt lat="48.49561" lon="7.47893">
        <ele>188</ele>
        <time>2020-09-03T05:52:36Z</time>
      </trkpt>
      <trkpt lat="48.49573" lon="7.47884">
        <ele>187</ele>
        <time>2020-09-03T05:52:38Z</time>
      </trkpt>
      <trkpt lat="48.49581" lon="7.47863">
        <ele>188</ele>
        <time>2020-09-03T05:52:41Z</time>
      </trkpt>
      <trkpt lat="48.49592" lon="7.47852">
        <ele>188</ele>
        <time>2020-09-03T05:52:43Z</time>
      </trkpt>
      <trkpt lat="48.49631" lon="7.47835">
        <ele>186</ele>
        <time>2020-09-03T05:52:50Z</time>
      </trkpt>
      <trkpt lat="48.49677" lon="7.47823">
        <ele>183</ele>
        <time>2020-09-03T05:52:59Z</time>
      </trkpt>
      <trkpt lat="48.49709" lon="7.47819">
        <ele>183</ele>
        <time>2020-09-03T05:53:04Z</time>
      </trkpt>
      <trkpt lat="48.49738" lon="7.47823">
        <ele>182</ele>
        <time>2020-09-03T05:53:10Z</time>
      </trkpt>
      <trkpt lat="48.49786" lon="7.47834">
        <ele>182</ele>
        <time>2020-09-03T05:53:18Z</time>
      </trkpt>
      <trkpt lat="48.49831" lon="7.47854">
        <ele>183</ele>
        <time>2020-09-03T05:53:27Z</time>
      </trkpt>
      <trkpt lat="48.49807" lon="7.47692">
        <ele>183</ele>
        <time>2020-09-03T05:53:46Z</time>
      </trkpt>
      <trkpt lat="48.49797" lon="7.47652">
        <ele>184</ele>
        <time>2020-09-03T05:53:51Z</time>
      </trkpt>
      <trkpt lat="48.49721" lon="7.47479">
        <ele>187</ele>
        <time>2020-09-03T05:54:16Z</time>
      </trkpt>
      <trkpt lat="48.49694" lon="7.47397">
        <ele>188</ele>
        <time>2020-09-03T05:54:27Z</time>
      </trkpt>
      <trkpt lat="48.49687" lon="7.47337">
        <ele>190</ele>
        <time>2020-09-03T05:54:34Z</time>
      </trkpt>
      <trkpt lat="48.49685" lon="7.47291">
        <ele>191</ele>
        <time>2020-09-03T05:54:39Z</time>
      </trkpt>
      <trkpt lat="48.4967" lon="7.47175">
        <ele>192</ele>
        <time>2020-09-03T05:54:53Z</time>
      </trkpt>
      <trkpt lat="48.4966" lon="7.47129">
        <ele>192</ele>
        <time>2020-09-03T05:54:59Z</time>
      </trkpt>
      <trkpt lat="48.49658" lon="7.47096">
        <ele>192</ele>
        <time>2020-09-03T05:55:03Z</time>
      </trkpt>
      <trkpt lat="48.49638" lon="7.46947">
        <ele>194</ele>
        <time>2020-09-03T05:55:21Z</time>
      </trkpt>
      <trkpt lat="48.49685" lon="7.46931">
        <ele>196</ele>
        <time>2020-09-03T05:55:29Z</time>
      </trkpt>
      <trkpt lat="48.49696" lon="7.4698">
        <ele>196</ele>
        <time>2020-09-03T05:55:35Z</time>
      </trkpt>
      <trkpt lat="48.49708" lon="7.47001">
        <ele>196</ele>
        <time>2020-09-03T05:55:39Z</time>
      </trkpt>
      <trkpt lat="48.4972" lon="7.47013">
        <ele>196</ele>
        <time>2020-09-03T05:55:41Z</time>
      </trkpt>
      <trkpt lat="48.49733" lon="7.47045">
        <ele>196</ele>
        <time>2020-09-03T05:55:46Z</time>
      </trkpt>
      <trkpt lat="48.49737" lon="7.47049">
        <ele>196</ele>
        <time>2020-09-03T05:55:46Z</time>
      </trkpt>
      <trkpt lat="48.49769" lon="7.4706">
        <ele>196</ele>
        <time>2020-09-03T05:55:52Z</time>
      </trkpt>
      <trkpt lat="48.49849" lon="7.47032">
        <ele>197</ele>
        <time>2020-09-03T05:56:07Z</time>
      </trkpt>
      <trkpt lat="48.49859" lon="7.47008">
        <ele>197</ele>
        <time>2020-09-03T05:56:10Z</time>
      </trkpt>
      <trkpt lat="48.49868" lon="7.47014">
        <ele>197</ele>
        <time>2020-09-03T05:56:12Z</time>
      </trkpt>
      <trkpt lat="48.49872" lon="7.47014">
        <ele>197</ele>
        <time>2020-09-03T05:56:13Z</time>
      </trkpt>
      <trkpt lat="48.49876" lon="7.4702">
        <ele>197</ele>
        <time>2020-09-03T05:56:14Z</time>
      </trkpt>
      <trkpt lat="48.50002" lon="7.46951">
        <ele>199</ele>
        <time>2020-09-03T05:56:38Z</time>
      </trkpt>
      <trkpt lat="48.50109" lon="7.46914">
        <ele>201</ele>
        <time>2020-09-03T05:56:57Z</time>
      </trkpt>
      <trkpt lat="48.50173" lon="7.46874">
        <ele>203</ele>
        <time>2020-09-03T05:57:09Z</time>
      </trkpt>
      <trkpt lat="48.5019" lon="7.46866">
        <ele>204</ele>
        <time>2020-09-03T05:57:13Z</time>
      </trkpt>
      <trkpt lat="48.50365" lon="7.46836">
        <ele>215</ele>
        <time>2020-09-03T05:57:44Z</time>
      </trkpt>
      <trkpt lat="48.50411" lon="7.46838">
        <ele>219</ele>
        <time>2020-09-03T05:57:52Z</time>
      </trkpt>
      <trkpt lat="48.50447" lon="7.46858">
        <ele>221</ele>
        <time>2020-09-03T05:57:59Z</time>
      </trkpt>
      <trkpt lat="48.50517" lon="7.46879">
        <ele>225</ele>
        <time>2020-09-03T05:58:12Z</time>
      </trkpt>
      <trkpt lat="48.5056" lon="7.46903">
        <ele>227</ele>
        <time>2020-09-03T05:58:20Z</time>
      </trkpt>
      <trkpt lat="48.50625" lon="7.46948">
        <ele>232</ele>
        <time>2020-09-03T05:58:32Z</time>
      </trkpt>
      <trkpt lat="48.50649" lon="7.46972">
        <ele>233</ele>
        <time>2020-09-03T05:58:38Z</time>
      </trkpt>
      <trkpt lat="48.50691" lon="7.47022">
        <ele>235</ele>
        <time>2020-09-03T05:58:47Z</time>
      </trkpt>
      <trkpt lat="48.50719" lon="7.47031">
        <ele>236</ele>
        <time>2020-09-03T05:58:52Z</time>
      </trkpt>
      <trkpt lat="48.5074" lon="7.47026">
        <ele>238</ele>
        <time>2020-09-03T05:58:56Z</time>
      </trkpt>
      <trkpt lat="48.50782" lon="7.4701">
        <ele>241</ele>
        <time>2020-09-03T05:59:04Z</time>
      </trkpt>
      <trkpt lat="48.50798" lon="7.47009">
        <ele>242</ele>
        <time>2020-09-03T05:59:07Z</time>
      </trkpt>
      <trkpt lat="48.50812" lon="7.47012">
        <ele>242</ele>
        <time>2020-09-03T05:59:09Z</time>
      </trkpt>
      <trkpt lat="48.5083" lon="7.47022">
        <ele>243</ele>
        <time>2020-09-03T05:59:12Z</time>
      </trkpt>
      <trkpt lat="48.50877" lon="7.4707">
        <ele>245</ele>
        <time>2020-09-03T05:59:23Z</time>
      </trkpt>
      <trkpt lat="48.50911" lon="7.47094">
        <ele>247</ele>
        <time>2020-09-03T05:59:29Z</time>
      </trkpt>
      <trkpt lat="48.50935" lon="7.471">
        <ele>249</ele>
        <time>2020-09-03T05:59:34Z</time>
      </trkpt>
      <trkpt lat="48.50951" lon="7.47097">
        <ele>250</ele>
        <time>2020-09-03T05:59:36Z</time>
      </trkpt>
      <trkpt lat="48.50985" lon="7.471">
        <ele>252</ele>
        <time>2020-09-03T05:59:43Z</time>
      </trkpt>
      <trkpt lat="48.51031" lon="7.47114">
        <ele>253</ele>
        <time>2020-09-03T05:59:51Z</time>
      </trkpt>
      <trkpt lat="48.51157" lon="7.47179">
        <ele>251</ele>
        <time>2020-09-03T06:00:15Z</time>
      </trkpt>
      <trkpt lat="48.51187" lon="7.47197">
        <ele>248</ele>
        <time>2020-09-03T06:00:20Z</time>
      </trkpt>
      <trkpt lat="48.5122" lon="7.47206">
        <ele>244</ele>
        <time>2020-09-03T06:00:26Z</time>
      </trkpt>
      <trkpt lat="48.5124" lon="7.47205">
        <ele>242</ele>
        <time>2020-09-03T06:00:30Z</time>
      </trkpt>
      <trkpt lat="48.51275" lon="7.47194">
        <ele>240</ele>
        <time>2020-09-03T06:00:36Z</time>
      </trkpt>
      <trkpt lat="48.51335" lon="7.47166">
        <ele>238</ele>
        <time>2020-09-03T06:00:47Z</time>
      </trkpt>
      <trkpt lat="48.51349" lon="7.47169">
        <ele>237</ele>
        <time>2020-09-03T06:00:50Z</time>
      </trkpt>
      <trkpt lat="48.51383" lon="7.47193">
        <ele>234</ele>
        <time>2020-09-03T06:00:57Z</time>
      </trkpt>
      <trkpt lat="48.51458" lon="7.47287">
        <ele>220</ele>
        <time>2020-09-03T06:01:14Z</time>
      </trkpt>
      <trkpt lat="48.5151" lon="7.47331">
        <ele>214</ele>
        <time>2020-09-03T06:01:24Z</time>
      </trkpt>
      <trkpt lat="48.5156" lon="7.47394">
        <ele>204</ele>
        <time>2020-09-03T06:01:36Z</time>
      </trkpt>
      <trkpt lat="48.51581" lon="7.47407">
        <ele>202</ele>
        <time>2020-09-03T06:01:40Z</time>
      </trkpt>
      <trkpt lat="48.5163" lon="7.47414">
        <ele>200</ele>
        <time>2020-09-03T06:01:49Z</time>
      </trkpt>
      <trkpt lat="48.51724" lon="7.47459">
        <ele>195</ele>
        <time>2020-09-03T06:02:06Z</time>
      </trkpt>
      <trkpt lat="48.51759" lon="7.47484">
        <ele>194</ele>
        <time>2020-09-03T06:02:13Z</time>
      </trkpt>
      <trkpt lat="48.51807" lon="7.47549">
        <ele>193</ele>
        <time>2020-09-03T06:02:25Z</time>
      </trkpt>
      <trkpt lat="48.5182" lon="7.47562">
        <ele>193</ele>
        <time>2020-09-03T06:02:28Z</time>
      </trkpt>
      <trkpt lat="48.51868" lon="7.47596">
        <ele>192</ele>
        <time>2020-09-03T06:02:37Z</time>
      </trkpt>
      <trkpt lat="48.51903" lon="7.47617">
        <ele>191</ele>
        <time>2020-09-03T06:02:44Z</time>
      </trkpt>
      <trkpt lat="48.51955" lon="7.47635">
        <ele>189</ele>
        <time>2020-09-03T06:02:53Z</time>
      </trkpt>
      <trkpt lat="48.51993" lon="7.47672">
        <ele>188</ele>
        <time>2020-09-03T06:03:01Z</time>
      </trkpt>
      <trkpt lat="48.52089" lon="7.47808">
        <ele>189</ele>
        <time>2020-09-03T06:03:25Z</time>
      </trkpt>
      <trkpt lat="48.52095" lon="7.47809">
        <ele>189</ele>
        <time>2020-09-03T06:03:26Z</time>
      </trkpt>
      <trkpt lat="48.5219" lon="7.47775">
        <ele>190</ele>
        <time>2020-09-03T06:03:43Z</time>
      </trkpt>
      <trkpt lat="48.52199" lon="7.47926">
        <ele>190</ele>
        <time>2020-09-03T06:04:01Z</time>
      </trkpt>
      <trkpt lat="48.52216" lon="7.48018">
        <ele>188</ele>
        <time>2020-09-03T06:04:12Z</time>
      </trkpt>
      <trkpt lat="48.52229" lon="7.48058">
        <ele>188</ele>
        <time>2020-09-03T06:04:17Z</time>
      </trkpt>
      <trkpt lat="48.52258" lon="7.48125">
        <ele>188</ele>
        <time>2020-09-03T06:04:27Z</time>
      </trkpt>
      <trkpt lat="48.52289" lon="7.48169">
        <ele>187</ele>
        <time>2020-09-03T06:04:34Z</time>
      </trkpt>
      <trkpt lat="48.52357" lon="7.48255">
        <ele>185</ele>
        <time>2020-09-03T06:04:50Z</time>
      </trkpt>
      <trkpt lat="48.52361" lon="7.48263">
        <ele>185</ele>
        <time>2020-09-03T06:04:51Z</time>
      </trkpt>
      <trkpt lat="48.52365" lon="7.48263">
        <ele>185</ele>
        <time>2020-09-03T06:04:52Z</time>
      </trkpt>
      <trkpt lat="48.52368" lon="7.48269">
        <ele>184</ele>
        <time>2020-09-03T06:04:53Z</time>
      </trkpt>
      <trkpt lat="48.52366" lon="7.48278">
        <ele>184</ele>
        <time>2020-09-03T06:04:54Z</time>
      </trkpt>
      <trkpt lat="48.5236" lon="7.48278">
        <ele>184</ele>
        <time>2020-09-03T06:04:55Z</time>
      </trkpt>
      <trkpt lat="48.52348" lon="7.48299">
        <ele>184</ele>
        <time>2020-09-03T06:04:58Z</time>
      </trkpt>
      <trkpt lat="48.52353" lon="7.48376">
        <ele>184</ele>
        <time>2020-09-03T06:05:08Z</time>
      </trkpt>
      <trkpt lat="48.52378" lon="7.48506">
        <ele>182</ele>
        <time>2020-09-03T06:05:24Z</time>
      </trkpt>
      <trkpt lat="48.52384" lon="7.4855">
        <ele>182</ele>
        <time>2020-09-03T06:05:29Z</time>
      </trkpt>
      <trkpt lat="48.5238" lon="7.48649">
        <ele>183</ele>
        <time>2020-09-03T06:05:41Z</time>
      </trkpt>
      <trkpt lat="48.5237" lon="7.48728">
        <ele>183</ele>
        <time>2020-09-03T06:05:50Z</time>
      </trkpt>
      <trkpt lat="48.5236" lon="7.48784">
        <ele>182</ele>
        <time>2020-09-03T06:05:57Z</time>
      </trkpt>
      <trkpt lat="48.52323" lon="7.48903">
        <ele>182</ele>
        <time>2020-09-03T06:06:12Z</time>
      </trkpt>
      <trkpt lat="48.52326" lon="7.49129">
        <ele>181</ele>
        <time>2020-09-03T06:06:39Z</time>
      </trkpt>
      <trkpt lat="48.52388" lon="7.49124">
        <ele>181</ele>
        <time>2020-09-03T06:06:50Z</time>
      </trkpt>
      <trkpt lat="48.52406" lon="7.4912">
        <ele>182</ele>
        <time>2020-09-03T06:06:53Z</time>
      </trkpt>
      <trkpt lat="48.52443" lon="7.49119">
        <ele>181</ele>
        <time>2020-09-03T06:07:00Z</time>
      </trkpt>
      <trkpt lat="48.52443" lon="7.49113">
        <ele>181</ele>
        <time>2020-09-03T06:07:01Z</time>
      </trkpt>
      <trkpt lat="48.52496" lon="7.49103">
        <ele>181</ele>
        <time>2020-09-03T06:07:10Z</time>
      </trkpt>
      <trkpt lat="48.52538" lon="7.49107">
        <ele>180</ele>
        <time>2020-09-03T06:07:18Z</time>
      </trkpt>
      <trkpt lat="48.52564" lon="7.49116">
        <ele>180</ele>
        <time>2020-09-03T06:07:22Z</time>
      </trkpt>
      <trkpt lat="48.52573" lon="7.49114">
        <ele>180</ele>
        <time>2020-09-03T06:07:24Z</time>
      </trkpt>
      <trkpt lat="48.52595" lon="7.49089">
        <ele>180</ele>
        <time>2020-09-03T06:07:29Z</time>
      </trkpt>
      <trkpt lat="48.52618" lon="7.49056">
        <ele>180</ele>
        <time>2020-09-03T06:07:34Z</time>
      </trkpt>
      <trkpt lat="48.52687" lon="7.48919">
        <ele>180</ele>
        <time>2020-09-03T06:07:55Z</time>
      </trkpt>
      <trkpt lat="48.52695" lon="7.48897">
        <ele>179</ele>
        <time>2020-09-03T06:07:58Z</time>
      </trkpt>
      <trkpt lat="48.52701" lon="7.48893">
        <ele>179</ele>
        <time>2020-09-03T06:07:59Z</time>
      </trkpt>
      <trkpt lat="48.52704" lon="7.48732">
        <ele>181</ele>
        <time>2020-09-03T06:08:18Z</time>
      </trkpt>
      <trkpt lat="48.52772" lon="7.48725">
        <ele>179</ele>
        <time>2020-09-03T06:08:30Z</time>
      </trkpt>
      <trkpt lat="48.52788" lon="7.48727">
        <ele>179</ele>
        <time>2020-09-03T06:08:33Z</time>
      </trkpt>
      <trkpt lat="48.53147" lon="7.48954">
        <ele>178</ele>
        <time>2020-09-03T06:09:42Z</time>
      </trkpt>
      <trkpt lat="48.53282" lon="7.49047">
        <ele>178</ele>
        <time>2020-09-03T06:10:08Z</time>
      </trkpt>
      <trkpt lat="48.5329" lon="7.49111">
        <ele>178</ele>
        <time>2020-09-03T06:10:16Z</time>
      </trkpt>
      <trkpt lat="48.53298" lon="7.49143">
        <ele>179</ele>
        <time>2020-09-03T06:10:20Z</time>
      </trkpt>
      <trkpt lat="48.53297" lon="7.49158">
        <ele>179</ele>
        <time>2020-09-03T06:10:22Z</time>
      </trkpt>
      <trkpt lat="48.53332" lon="7.49138">
        <ele>177</ele>
        <time>2020-09-03T06:10:29Z</time>
      </trkpt>
      <trkpt lat="48.53385" lon="7.49114">
        <ele>178</ele>
        <time>2020-09-03T06:10:38Z</time>
      </trkpt>
      <trkpt lat="48.53404" lon="7.4911">
        <ele>179</ele>
        <time>2020-09-03T06:10:42Z</time>
      </trkpt>
      <trkpt lat="48.53478" lon="7.49122">
        <ele>179</ele>
        <time>2020-09-03T06:10:55Z</time>
      </trkpt>
      <trkpt lat="48.53486" lon="7.49116">
        <ele>179</ele>
        <time>2020-09-03T06:10:57Z</time>
      </trkpt>
      <trkpt lat="48.53583" lon="7.4913">
        <ele>179</ele>
        <time>2020-09-03T06:11:14Z</time>
      </trkpt>
      <trkpt lat="48.53613" lon="7.49131">
        <ele>179</ele>
        <time>2020-09-03T06:11:19Z</time>
      </trkpt>
      <trkpt lat="48.53618" lon="7.49155">
        <ele>179</ele>
        <time>2020-09-03T06:11:22Z</time>
      </trkpt>
      <trkpt lat="48.53672" lon="7.49232">
        <ele>179</ele>
        <time>2020-09-03T06:11:36Z</time>
      </trkpt>
      <trkpt lat="48.53696" lon="7.49261">
        <ele>179</ele>
        <time>2020-09-03T06:11:41Z</time>
      </trkpt>
      <trkpt lat="48.53724" lon="7.49258">
        <ele>179</ele>
        <time>2020-09-03T06:11:46Z</time>
      </trkpt>
      <trkpt lat="48.5373" lon="7.49263">
        <ele>179</ele>
        <time>2020-09-03T06:11:47Z</time>
      </trkpt>
      <trkpt lat="48.53768" lon="7.49316">
        <ele>179</ele>
        <time>2020-09-03T06:11:56Z</time>
      </trkpt>
      <trkpt lat="48.53792" lon="7.49367">
        <ele>179</ele>
        <time>2020-09-03T06:12:04Z</time>
      </trkpt>
      <trkpt lat="48.53795" lon="7.49379">
        <ele>180</ele>
        <time>2020-09-03T06:12:05Z</time>
      </trkpt>
      <trkpt lat="48.53796" lon="7.49448">
        <ele>180</ele>
        <time>2020-09-03T06:12:13Z</time>
      </trkpt>
      <trkpt lat="48.53799" lon="7.49467">
        <ele>179</ele>
        <time>2020-09-03T06:12:16Z</time>
      </trkpt>
      <trkpt lat="48.5383" lon="7.49562">
        <ele>178</ele>
        <time>2020-09-03T06:12:28Z</time>
      </trkpt>
      <trkpt lat="48.53833" lon="7.49582">
        <ele>177</ele>
        <time>2020-09-03T06:12:31Z</time>
      </trkpt>
      <trkpt lat="48.53845" lon="7.49613">
        <ele>177</ele>
        <time>2020-09-03T06:12:35Z</time>
      </trkpt>
      <trkpt lat="48.53886" lon="7.49659">
        <ele>177</ele>
        <time>2020-09-03T06:12:44Z</time>
      </trkpt>
      <trkpt lat="48.53907" lon="7.49671">
        <ele>177</ele>
        <time>2020-09-03T06:12:48Z</time>
      </trkpt>
      <trkpt lat="48.53982" lon="7.49687">
        <ele>178</ele>
        <time>2020-09-03T06:13:01Z</time>
      </trkpt>
      <trkpt lat="48.53988" lon="7.49678">
        <ele>178</ele>
        <time>2020-09-03T06:13:03Z</time>
      </trkpt>
      <trkpt lat="48.5401" lon="7.49703">
        <ele>178</ele>
        <time>2020-09-03T06:13:08Z</time>
      </trkpt>
      <trkpt lat="48.54019" lon="7.49726">
        <ele>178</ele>
        <time>2020-09-03T06:13:11Z</time>
      </trkpt>
      <trkpt lat="48.54056" lon="7.49771">
        <ele>176</ele>
        <time>2020-09-03T06:13:19Z</time>
      </trkpt>
      <trkpt lat="48.54062" lon="7.49787">
        <ele>176</ele>
        <time>2020-09-03T06:13:22Z</time>
      </trkpt>
      <trkpt lat="48.54108" lon="7.49834">
        <ele>174</ele>
        <time>2020-09-03T06:13:32Z</time>
      </trkpt>
      <trkpt lat="48.54167" lon="7.49865">
        <ele>176</ele>
        <time>2020-09-03T06:13:43Z</time>
      </trkpt>
      <trkpt lat="48.54137" lon="7.49944">
        <ele>173</ele>
        <time>2020-09-03T06:13:53Z</time>
      </trkpt>
      <trkpt lat="48.54099" lon="7.50061">
        <ele>172</ele>
        <time>2020-09-03T06:14:09Z</time>
      </trkpt>
      <trkpt lat="48.54076" lon="7.50122">
        <ele>173</ele>
        <time>2020-09-03T06:14:17Z</time>
      </trkpt>
      <trkpt lat="48.54077" lon="7.50124">
        <ele>173</ele>
        <time>2020-09-03T06:14:17Z</time>
      </trkpt>
      <trkpt lat="48.54082" lon="7.50132">
        <ele>172</ele>
        <time>2020-09-03T06:14:19Z</time>
      </trkpt>
      <trkpt lat="48.54091" lon="7.5014">
        <ele>172</ele>
        <time>2020-09-03T06:14:20Z</time>
      </trkpt>
      <trkpt lat="48.54124" lon="7.5015">
        <ele>171</ele>
        <time>2020-09-03T06:14:26Z</time>
      </trkpt>
      <trkpt lat="48.54157" lon="7.50169">
        <ele>170</ele>
        <time>2020-09-03T06:14:33Z</time>
      </trkpt>
      <trkpt lat="48.54351" lon="7.50335">
        <ele>173</ele>
        <time>2020-09-03T06:15:12Z</time>
      </trkpt>
      <trkpt lat="48.54364" lon="7.50352">
        <ele>173</ele>
        <time>2020-09-03T06:15:15Z</time>
      </trkpt>
      <trkpt lat="48.54366" lon="7.50361">
        <ele>172</ele>
        <time>2020-09-03T06:15:17Z</time>
      </trkpt>
      <trkpt lat="48.54438" lon="7.50313">
        <ele>174</ele>
        <time>2020-09-03T06:15:31Z</time>
      </trkpt>
      <trkpt lat="48.54756" lon="7.5012">
        <ele>172</ele>
        <time>2020-09-03T06:16:32Z</time>
      </trkpt>
      <trkpt lat="48.54855" lon="7.50072">
        <ele>173</ele>
        <time>2020-09-03T06:16:50Z</time>
      </trkpt>
      <trkpt lat="48.54917" lon="7.50057">
        <ele>173</ele>
        <time>2020-09-03T06:17:01Z</time>
      </trkpt>
      <trkpt lat="48.54966" lon="7.50053">
        <ele>172</ele>
        <time>2020-09-03T06:17:10Z</time>
      </trkpt>
      <trkpt lat="48.54995" lon="7.50055">
        <ele>171</ele>
        <time>2020-09-03T06:17:15Z</time>
      </trkpt>
      <trkpt lat="48.55048" lon="7.50067">
        <ele>172</ele>
        <time>2020-09-03T06:17:25Z</time>
      </trkpt>
      <trkpt lat="48.55127" lon="7.50099">
        <ele>172</ele>
        <time>2020-09-03T06:17:39Z</time>
      </trkpt>
      <trkpt lat="48.55196" lon="7.50139">
        <ele>172</ele>
        <time>2020-09-03T06:17:52Z</time>
      </trkpt>
      <trkpt lat="48.55259" lon="7.5017">
        <ele>171</ele>
        <time>2020-09-03T06:18:04Z</time>
      </trkpt>
      <trkpt lat="48.5532" lon="7.50187">
        <ele>171</ele>
        <time>2020-09-03T06:18:15Z</time>
      </trkpt>
      <trkpt lat="48.55365" lon="7.50192">
        <ele>170</ele>
        <time>2020-09-03T06:18:23Z</time>
      </trkpt>
      <trkpt lat="48.55772" lon="7.50175">
        <ele>172</ele>
        <time>2020-09-03T06:19:36Z</time>
      </trkpt>
      <trkpt lat="48.55829" lon="7.50167">
        <ele>174</ele>
        <time>2020-09-03T06:19:46Z</time>
      </trkpt>
      <trkpt lat="48.55908" lon="7.50141">
        <ele>173</ele>
        <time>2020-09-03T06:20:00Z</time>
      </trkpt>
      <trkpt lat="48.55921" lon="7.50134">
        <ele>173</ele>
        <time>2020-09-03T06:20:03Z</time>
      </trkpt>
      <trkpt lat="48.55975" lon="7.50098">
        <ele>172</ele>
        <time>2020-09-03T06:20:13Z</time>
      </trkpt>
      <trkpt lat="48.56041" lon="7.50042">
        <ele>172</ele>
        <time>2020-09-03T06:20:27Z</time>
      </trkpt>
      <trkpt lat="48.56092" lon="7.49992">
        <ele>172</ele>
        <time>2020-09-03T06:20:37Z</time>
      </trkpt>
      <trkpt lat="48.56136" lon="7.49957">
        <ele>172</ele>
        <time>2020-09-03T06:20:46Z</time>
      </trkpt>
      <trkpt lat="48.56247" lon="7.49856">
        <ele>172</ele>
        <time>2020-09-03T06:21:09Z</time>
      </trkpt>
      <trkpt lat="48.56297" lon="7.49815">
        <ele>172</ele>
        <time>2020-09-03T06:21:19Z</time>
      </trkpt>
      <trkpt lat="48.5631" lon="7.49807">
        <ele>171</ele>
        <time>2020-09-03T06:21:22Z</time>
      </trkpt>
      <trkpt lat="48.56357" lon="7.49765">
        <ele>169</ele>
        <time>2020-09-03T06:21:32Z</time>
      </trkpt>
      <trkpt lat="48.56483" lon="7.49633">
        <ele>171</ele>
        <time>2020-09-03T06:21:59Z</time>
      </trkpt>
      <trkpt lat="48.56541" lon="7.49562">
        <ele>171</ele>
        <time>2020-09-03T06:22:12Z</time>
      </trkpt>
      <trkpt lat="48.56609" lon="7.49497">
        <ele>171</ele>
        <time>2020-09-03T06:22:27Z</time>
      </trkpt>
      <trkpt lat="48.56682" lon="7.49417">
        <ele>170</ele>
        <time>2020-09-03T06:22:43Z</time>
      </trkpt>
      <trkpt lat="48.56696" lon="7.49406">
        <ele>170</ele>
        <time>2020-09-03T06:22:45Z</time>
      </trkpt>
      <trkpt lat="48.5677" lon="7.49324">
        <ele>171</ele>
        <time>2020-09-03T06:23:02Z</time>
      </trkpt>
      <trkpt lat="48.56825" lon="7.49274">
        <ele>169</ele>
        <time>2020-09-03T06:23:13Z</time>
      </trkpt>
      <trkpt lat="48.56886" lon="7.49213">
        <ele>171</ele>
        <time>2020-09-03T06:23:26Z</time>
      </trkpt>
      <trkpt lat="48.56944" lon="7.49164">
        <ele>173</ele>
        <time>2020-09-03T06:23:38Z</time>
      </trkpt>
      <trkpt lat="48.56961" lon="7.49153">
        <ele>173</ele>
        <time>2020-09-03T06:23:41Z</time>
      </trkpt>
      <trkpt lat="48.56984" lon="7.49144">
        <ele>173</ele>
        <time>2020-09-03T06:23:46Z</time>
      </trkpt>
      <trkpt lat="48.57127" lon="7.49072">
        <ele>171</ele>
        <time>2020-09-03T06:24:12Z</time>
      </trkpt>
      <trkpt lat="48.57273" lon="7.49002">
        <ele>172</ele>
        <time>2020-09-03T06:24:40Z</time>
      </trkpt>
      <trkpt lat="48.57297" lon="7.48988">
        <ele>173</ele>
        <time>2020-09-03T06:24:44Z</time>
      </trkpt>
      <trkpt lat="48.57314" lon="7.48974">
        <ele>173</ele>
        <time>2020-09-03T06:24:48Z</time>
      </trkpt>
      <trkpt lat="48.57344" lon="7.48941">
        <ele>172</ele>
        <time>2020-09-03T06:24:54Z</time>
      </trkpt>
      <trkpt lat="48.57355" lon="7.48937">
        <ele>173</ele>
        <time>2020-09-03T06:24:56Z</time>
      </trkpt>
      <trkpt lat="48.5741" lon="7.48873">
        <ele>173</ele>
        <time>2020-09-03T06:25:09Z</time>
      </trkpt>
      <trkpt lat="48.57496" lon="7.4875">
        <ele>170</ele>
        <time>2020-09-03T06:25:30Z</time>
      </trkpt>
      <trkpt lat="48.57578" lon="7.48643">
        <ele>171</ele>
        <time>2020-09-03T06:25:49Z</time>
      </trkpt>
      <trkpt lat="48.57602" lon="7.48619">
        <ele>172</ele>
        <time>2020-09-03T06:25:54Z</time>
      </trkpt>
      <trkpt lat="48.5764" lon="7.48587">
        <ele>172</ele>
        <time>2020-09-03T06:26:02Z</time>
      </trkpt>
      <trkpt lat="48.57665" lon="7.48568">
        <ele>172</ele>
        <time>2020-09-03T06:26:07Z</time>
      </trkpt>
      <trkpt lat="48.5777" lon="7.48502">
        <ele>174</ele>
        <time>2020-09-03T06:26:27Z</time>
      </trkpt>
      <trkpt lat="48.57839" lon="7.48455">
        <ele>172</ele>
        <time>2020-09-03T06:26:40Z</time>
      </trkpt>
      <trkpt lat="48.57853" lon="7.48443">
        <ele>172</ele>
        <time>2020-09-03T06:26:43Z</time>
      </trkpt>
      <trkpt lat="48.57882" lon="7.48426">
        <ele>172</ele>
        <time>2020-09-03T06:26:49Z</time>
      </trkpt>
      <trkpt lat="48.58106" lon="7.48266">
        <ele>171</ele>
        <time>2020-09-03T06:27:33Z</time>
      </trkpt>
      <trkpt lat="48.58134" lon="7.48251">
        <ele>171</ele>
        <time>2020-09-03T06:27:38Z</time>
      </trkpt>
      <trkpt lat="48.58172" lon="7.48226">
        <ele>171</ele>
        <time>2020-09-03T06:27:46Z</time>
      </trkpt>
      <trkpt lat="48.58218" lon="7.48206">
        <ele>170</ele>
        <time>2020-09-03T06:27:54Z</time>
      </trkpt>
      <trkpt lat="48.58246" lon="7.48198">
        <ele>169</ele>
        <time>2020-09-03T06:27:59Z</time>
      </trkpt>
      <trkpt lat="48.58289" lon="7.4819">
        <ele>169</ele>
        <time>2020-09-03T06:28:07Z</time>
      </trkpt>
      <trkpt lat="48.58305" lon="7.48188">
        <ele>170</ele>
        <time>2020-09-03T06:28:10Z</time>
      </trkpt>
      <trkpt lat="48.58333" lon="7.48189">
        <ele>170</ele>
        <time>2020-09-03T06:28:15Z</time>
      </trkpt>
      <trkpt lat="48.58363" lon="7.48192">
        <ele>170</ele>
        <time>2020-09-03T06:28:20Z</time>
      </trkpt>
      <trkpt lat="48.58407" lon="7.48201">
        <ele>171</ele>
        <time>2020-09-03T06:28:28Z</time>
      </trkpt>
      <trkpt lat="48.58435" lon="7.4821">
        <ele>171</ele>
        <time>2020-09-03T06:28:33Z</time>
      </trkpt>
      <trkpt lat="48.58463" lon="7.48223">
        <ele>170</ele>
        <time>2020-09-03T06:28:38Z</time>
      </trkpt>
      <trkpt lat="48.58501" lon="7.48245">
        <ele>170</ele>
        <time>2020-09-03T06:28:46Z</time>
      </trkpt>
      <trkpt lat="48.58597" lon="7.48319">
        <ele>172</ele>
        <time>2020-09-03T06:29:05Z</time>
      </trkpt>
      <trkpt lat="48.58672" lon="7.48381">
        <ele>173</ele>
        <time>2020-09-03T06:29:20Z</time>
      </trkpt>
      <trkpt lat="48.58823" lon="7.4849">
        <ele>173</ele>
        <time>2020-09-03T06:29:50Z</time>
      </trkpt>
      <trkpt lat="48.58845" lon="7.4851">
        <ele>174</ele>
        <time>2020-09-03T06:29:54Z</time>
      </trkpt>
      <trkpt lat="48.58891" lon="7.48544">
        <ele>174</ele>
        <time>2020-09-03T06:30:03Z</time>
      </trkpt>
      <trkpt lat="48.58935" lon="7.48581">
        <ele>174</ele>
        <time>2020-09-03T06:30:12Z</time>
      </trkpt>
      <trkpt lat="48.58956" lon="7.4859">
        <ele>175</ele>
        <time>2020-09-03T06:30:16Z</time>
      </trkpt>
      <trkpt lat="48.58966" lon="7.4859">
        <ele>174</ele>
        <time>2020-09-03T06:30:18Z</time>
      </trkpt>
      <trkpt lat="48.59023" lon="7.48629">
        <ele>175</ele>
        <time>2020-09-03T06:30:29Z</time>
      </trkpt>
      <trkpt lat="48.59133" lon="7.48714">
        <ele>178</ele>
        <time>2020-09-03T06:30:51Z</time>
      </trkpt>
      <trkpt lat="48.59128" lon="7.48725">
        <ele>178</ele>
        <time>2020-09-03T06:30:53Z</time>
      </trkpt>
      <trkpt lat="48.59227" lon="7.48806">
        <ele>174</ele>
        <time>2020-09-03T06:31:13Z</time>
      </trkpt>
      <trkpt lat="48.59249" lon="7.48821">
        <ele>174</ele>
        <time>2020-09-03T06:31:17Z</time>
      </trkpt>
      <trkpt lat="48.59282" lon="7.4885">
        <ele>175</ele>
        <time>2020-09-03T06:31:24Z</time>
      </trkpt>
      <trkpt lat="48.59317" lon="7.48875">
        <ele>175</ele>
        <time>2020-09-03T06:31:31Z</time>
      </trkpt>
      <trkpt lat="48.59376" lon="7.48924">
        <ele>174</ele>
        <time>2020-09-03T06:31:43Z</time>
      </trkpt>
      <trkpt lat="48.59434" lon="7.48965">
        <ele>173</ele>
        <time>2020-09-03T06:31:54Z</time>
      </trkpt>
      <trkpt lat="48.59454" lon="7.48983">
        <ele>173</ele>
        <time>2020-09-03T06:31:58Z</time>
      </trkpt>
      <trkpt lat="48.59487" lon="7.49003">
        <ele>172</ele>
        <time>2020-09-03T06:32:05Z</time>
      </trkpt>
      <trkpt lat="48.59666" lon="7.49151">
        <ele>173</ele>
        <time>2020-09-03T06:32:41Z</time>
      </trkpt>
      <trkpt lat="48.59737" lon="7.49207">
        <ele>172</ele>
        <time>2020-09-03T06:32:55Z</time>
      </trkpt>
      <trkpt lat="48.59773" lon="7.49232">
        <ele>172</ele>
        <time>2020-09-03T06:33:02Z</time>
      </trkpt>
      <trkpt lat="48.59914" lon="7.49345">
        <ele>174</ele>
        <time>2020-09-03T06:33:30Z</time>
      </trkpt>
      <trkpt lat="48.59937" lon="7.4936">
        <ele>175</ele>
        <time>2020-09-03T06:33:35Z</time>
      </trkpt>
      <trkpt lat="48.59966" lon="7.49386">
        <ele>175</ele>
        <time>2020-09-03T06:33:41Z</time>
      </trkpt>
      <trkpt lat="48.60029" lon="7.49432">
        <ele>174</ele>
        <time>2020-09-03T06:33:53Z</time>
      </trkpt>
      <trkpt lat="48.6007" lon="7.49458">
        <ele>173</ele>
        <time>2020-09-03T06:34:01Z</time>
      </trkpt>
      <trkpt lat="48.60106" lon="7.49476">
        <ele>173</ele>
        <time>2020-09-03T06:34:08Z</time>
      </trkpt>
      <trkpt lat="48.6015" lon="7.4949">
        <ele>174</ele>
        <time>2020-09-03T06:34:16Z</time>
      </trkpt>
      <trkpt lat="48.60175" lon="7.49496">
        <ele>174</ele>
        <time>2020-09-03T06:34:21Z</time>
      </trkpt>
      <trkpt lat="48.6025" lon="7.49498">
        <ele>174</ele>
        <time>2020-09-03T06:34:34Z</time>
      </trkpt>
      <trkpt lat="48.6034" lon="7.49481">
        <ele>176</ele>
        <time>2020-09-03T06:34:50Z</time>
      </trkpt>
      <trkpt lat="48.60674" lon="7.49398">
        <ele>180</ele>
        <time>2020-09-03T06:35:50Z</time>
      </trkpt>
      <trkpt lat="48.60776" lon="7.49369">
        <ele>181</ele>
        <time>2020-09-03T06:36:09Z</time>
      </trkpt>
      <trkpt lat="48.60919" lon="7.49337">
        <ele>180</ele>
        <time>2020-09-03T06:36:34Z</time>
      </trkpt>
      <trkpt lat="48.6121" lon="7.49256">
        <ele>180</ele>
        <time>2020-09-03T06:37:27Z</time>
      </trkpt>
      <trkpt lat="48.6163" lon="7.49149">
        <ele>178</ele>
        <time>2020-09-03T06:38:43Z</time>
      </trkpt>
      <trkpt lat="48.6168" lon="7.49127">
        <ele>178</ele>
        <time>2020-09-03T06:38:52Z</time>
      </trkpt>
      <trkpt lat="48.6173" lon="7.49091">
        <ele>179</ele>
        <time>2020-09-03T06:39:02Z</time>
      </trkpt>
      <trkpt lat="48.6174" lon="7.49083">
        <ele>179</ele>
        <time>2020-09-03T06:39:04Z</time>
      </trkpt>
      <trkpt lat="48.6176" lon="7.48957">
        <ele>179</ele>
        <time>2020-09-03T06:39:19Z</time>
      </trkpt>
      <trkpt lat="48.61807" lon="7.48784">
        <ele>179</ele>
        <time>2020-09-03T06:39:41Z</time>
      </trkpt>
      <trkpt lat="48.61882" lon="7.48489">
        <ele>179</ele>
        <time>2020-09-03T06:40:18Z</time>
      </trkpt>
      <trkpt lat="48.61902" lon="7.48386">
        <ele>182</ele>
        <time>2020-09-03T06:40:31Z</time>
      </trkpt>
      <trkpt lat="48.6191" lon="7.48365">
        <ele>182</ele>
        <time>2020-09-03T06:40:34Z</time>
      </trkpt>
      <trkpt lat="48.61919" lon="7.48355">
        <ele>183</ele>
        <time>2020-09-03T06:40:36Z</time>
      </trkpt>
      <trkpt lat="48.61925" lon="7.48337">
        <ele>183</ele>
        <time>2020-09-03T06:40:38Z</time>
      </trkpt>
      <trkpt lat="48.62043" lon="7.47895">
        <ele>182</ele>
        <time>2020-09-03T06:41:34Z</time>
      </trkpt>
      <trkpt lat="48.62043" lon="7.47878">
        <ele>182</ele>
        <time>2020-09-03T06:41:36Z</time>
      </trkpt>
      <trkpt lat="48.61982" lon="7.47622">
        <ele>184</ele>
        <time>2020-09-03T06:42:08Z</time>
      </trkpt>
      <trkpt lat="48.61944" lon="7.47613">
        <ele>184</ele>
        <time>2020-09-03T06:42:15Z</time>
      </trkpt>
      <trkpt lat="48.61937" lon="7.47606">
        <ele>184</ele>
        <time>2020-09-03T06:42:17Z</time>
      </trkpt>
      <trkpt lat="48.61933" lon="7.47595">
        <ele>184</ele>
        <time>2020-09-03T06:42:18Z</time>
      </trkpt>
      <trkpt lat="48.61937" lon="7.47545">
        <ele>184</ele>
        <time>2020-09-03T06:42:24Z</time>
      </trkpt>
      <trkpt lat="48.61941" lon="7.47538">
        <ele>184</ele>
        <time>2020-09-03T06:42:25Z</time>
      </trkpt>
      <trkpt lat="48.61984" lon="7.47529">
        <ele>183</ele>
        <time>2020-09-03T06:42:33Z</time>
      </trkpt>
      <trkpt lat="48.62074" lon="7.47524">
        <ele>184</ele>
        <time>2020-09-03T06:42:49Z</time>
      </trkpt>
      <trkpt lat="48.62104" lon="7.47519">
        <ele>184</ele>
        <time>2020-09-03T06:42:54Z</time>
      </trkpt>
      <trkpt lat="48.62132" lon="7.47508">
        <ele>184</ele>
        <time>2020-09-03T06:42:59Z</time>
      </trkpt>
      <trkpt lat="48.6214" lon="7.47498">
        <ele>183</ele>
        <time>2020-09-03T06:43:01Z</time>
      </trkpt>
      <trkpt lat="48.62165" lon="7.47497">
        <ele>183</ele>
        <time>2020-09-03T06:43:06Z</time>
      </trkpt>
      <trkpt lat="48.62206" lon="7.47455">
        <ele>186</ele>
        <time>2020-09-03T06:43:15Z</time>
      </trkpt>
      <trkpt lat="48.62377" lon="7.47268">
        <ele>188</ele>
        <time>2020-09-03T06:43:52Z</time>
      </trkpt>
      <trkpt lat="48.62394" lon="7.47252">
        <ele>188</ele>
        <time>2020-09-03T06:43:56Z</time>
      </trkpt>
      <trkpt lat="48.62445" lon="7.47221">
        <ele>191</ele>
        <time>2020-09-03T06:44:05Z</time>
      </trkpt>
      <trkpt lat="48.62477" lon="7.47207">
        <ele>192</ele>
        <time>2020-09-03T06:44:11Z</time>
      </trkpt>
      <trkpt lat="48.62544" lon="7.47194">
        <ele>194</ele>
        <time>2020-09-03T06:44:23Z</time>
      </trkpt>
      <trkpt lat="48.62742" lon="7.47191">
        <ele>200</ele>
        <time>2020-09-03T06:44:59Z</time>
      </trkpt>
      <trkpt lat="48.62781" lon="7.47176">
        <ele>200</ele>
        <time>2020-09-03T06:45:06Z</time>
      </trkpt>
      <trkpt lat="48.62823" lon="7.47152">
        <ele>202</ele>
        <time>2020-09-03T06:45:14Z</time>
      </trkpt>
      <trkpt lat="48.62875" lon="7.47111">
        <ele>202</ele>
        <time>2020-09-03T06:45:24Z</time>
      </trkpt>
      <trkpt lat="48.62904" lon="7.4708">
        <ele>196</ele>
        <time>2020-09-03T06:45:31Z</time>
      </trkpt>
      <trkpt lat="48.62931" lon="7.47046">
        <ele>198</ele>
        <time>2020-09-03T06:45:37Z</time>
      </trkpt>
      <trkpt lat="48.62958" lon="7.47">
        <ele>201</ele>
        <time>2020-09-03T06:45:44Z</time>
      </trkpt>
      <trkpt lat="48.63143" lon="7.46635">
        <ele>204</ele>
        <time>2020-09-03T06:46:38Z</time>
      </trkpt>
      <trkpt lat="48.63188" lon="7.46538">
        <ele>208</ele>
        <time>2020-09-03T06:46:52Z</time>
      </trkpt>
      <trkpt lat="48.63225" lon="7.46432">
        <ele>204</ele>
        <time>2020-09-03T06:47:06Z</time>
      </trkpt>
      <trkpt lat="48.63238" lon="7.46381">
        <ele>202</ele>
        <time>2020-09-03T06:47:13Z</time>
      </trkpt>
      <trkpt lat="48.63251" lon="7.46293">
        <ele>198</ele>
        <time>2020-09-03T06:47:23Z</time>
      </trkpt>
      <trkpt lat="48.63256" lon="7.46208">
        <ele>196</ele>
        <time>2020-09-03T06:47:33Z</time>
      </trkpt>
      <trkpt lat="48.63254" lon="7.46131">
        <ele>198</ele>
        <time>2020-09-03T06:47:42Z</time>
      </trkpt>
      <trkpt lat="48.63238" lon="7.45924">
        <ele>202</ele>
        <time>2020-09-03T06:48:07Z</time>
      </trkpt>
      <trkpt lat="48.63224" lon="7.45767">
        <ele>199</ele>
        <time>2020-09-03T06:48:25Z</time>
      </trkpt>
      <trkpt lat="48.63216" lon="7.45719">
        <ele>199</ele>
        <time>2020-09-03T06:48:31Z</time>
      </trkpt>
      <trkpt lat="48.63204" lon="7.45562">
        <ele>200</ele>
        <time>2020-09-03T06:48:50Z</time>
      </trkpt>
      <trkpt lat="48.6319" lon="7.45533">
        <ele>200</ele>
        <time>2020-09-03T06:48:54Z</time>
      </trkpt>
      <trkpt lat="48.63188" lon="7.45518">
        <ele>199</ele>
        <time>2020-09-03T06:48:56Z</time>
      </trkpt>
      <trkpt lat="48.63188" lon="7.45439">
        <ele>197</ele>
        <time>2020-09-03T06:49:05Z</time>
      </trkpt>
      <trkpt lat="48.63178" lon="7.45376">
        <ele>197</ele>
        <time>2020-09-03T06:49:13Z</time>
      </trkpt>
      <trkpt lat="48.63177" lon="7.45348">
        <ele>197</ele>
        <time>2020-09-03T06:49:16Z</time>
      </trkpt>
      <trkpt lat="48.63188" lon="7.4531">
        <ele>197</ele>
        <time>2020-09-03T06:49:21Z</time>
      </trkpt>
      <trkpt lat="48.63223" lon="7.45152">
        <ele>200</ele>
        <time>2020-09-03T06:49:40Z</time>
      </trkpt>
      <trkpt lat="48.63244" lon="7.45012">
        <ele>201</ele>
        <time>2020-09-03T06:49:57Z</time>
      </trkpt>
      <trkpt lat="48.63252" lon="7.44976">
        <ele>201</ele>
        <time>2020-09-03T06:50:02Z</time>
      </trkpt>
      <trkpt lat="48.63273" lon="7.44986">
        <ele>200</ele>
        <time>2020-09-03T06:50:06Z</time>
      </trkpt>
      <trkpt lat="48.63282" lon="7.44954">
        <ele>199</ele>
        <time>2020-09-03T06:50:10Z</time>
      </trkpt>
      <trkpt lat="48.63308" lon="7.44808">
        <ele>198</ele>
        <time>2020-09-03T06:50:28Z</time>
      </trkpt>
      <trkpt lat="48.63311" lon="7.4473">
        <ele>198</ele>
        <time>2020-09-03T06:50:37Z</time>
      </trkpt>
      <trkpt lat="48.63317" lon="7.44702">
        <ele>198</ele>
        <time>2020-09-03T06:50:40Z</time>
      </trkpt>
      <trkpt lat="48.63318" lon="7.44634">
        <ele>198</ele>
        <time>2020-09-03T06:50:48Z</time>
      </trkpt>
      <trkpt lat="48.63316" lon="7.44573">
        <ele>199</ele>
        <time>2020-09-03T06:50:55Z</time>
      </trkpt>
      <trkpt lat="48.63306" lon="7.44493">
        <ele>200</ele>
        <time>2020-09-03T06:51:05Z</time>
      </trkpt>
      <trkpt lat="48.63224" lon="7.44115">
        <ele>210</ele>
        <time>2020-09-03T06:51:52Z</time>
      </trkpt>
      <trkpt lat="48.63207" lon="7.44007">
        <ele>212</ele>
        <time>2020-09-03T06:52:05Z</time>
      </trkpt>
      <trkpt lat="48.632" lon="7.43932">
        <ele>212</ele>
        <time>2020-09-03T06:52:14Z</time>
      </trkpt>
      <trkpt lat="48.63213" lon="7.43764">
        <ele>212</ele>
        <time>2020-09-03T06:52:34Z</time>
      </trkpt>
      <trkpt lat="48.63258" lon="7.43468">
        <ele>215</ele>
        <time>2020-09-03T06:53:09Z</time>
      </trkpt>
      <trkpt lat="48.63267" lon="7.43326">
        <ele>213</ele>
        <time>2020-09-03T06:53:26Z</time>
      </trkpt>
      <trkpt lat="48.63196" lon="7.42209">
        <ele>232</ele>
        <time>2020-09-03T06:55:38Z</time>
      </trkpt>
      <trkpt lat="48.632" lon="7.42121">
        <ele>234</ele>
        <time>2020-09-03T06:55:48Z</time>
      </trkpt>
      <trkpt lat="48.63215" lon="7.42043">
        <ele>232</ele>
        <time>2020-09-03T06:55:58Z</time>
      </trkpt>
      <trkpt lat="48.63232" lon="7.41974">
        <ele>229</ele>
        <time>2020-09-03T06:56:07Z</time>
      </trkpt>
      <trkpt lat="48.63255" lon="7.41909">
        <ele>229</ele>
        <time>2020-09-03T06:56:15Z</time>
      </trkpt>
      <trkpt lat="48.63294" lon="7.41817">
        <ele>229</ele>
        <time>2020-09-03T06:56:28Z</time>
      </trkpt>
      <trkpt lat="48.63319" lon="7.41776">
        <ele>226</ele>
        <time>2020-09-03T06:56:35Z</time>
      </trkpt>
      <trkpt lat="48.63332" lon="7.41763">
        <ele>223</ele>
        <time>2020-09-03T06:56:38Z</time>
      </trkpt>
      <trkpt lat="48.6334" lon="7.41746">
        <ele>223</ele>
        <time>2020-09-03T06:56:40Z</time>
      </trkpt>
      <trkpt lat="48.63363" lon="7.41713">
        <ele>223</ele>
        <time>2020-09-03T06:56:46Z</time>
      </trkpt>
      <trkpt lat="48.63438" lon="7.41641">
        <ele>217</ele>
        <time>2020-09-03T06:57:01Z</time>
      </trkpt>
      <trkpt lat="48.6349" lon="7.41601">
        <ele>216</ele>
        <time>2020-09-03T06:57:12Z</time>
      </trkpt>
      <trkpt lat="48.6351" lon="7.41582">
        <ele>217</ele>
        <time>2020-09-03T06:57:16Z</time>
      </trkpt>
      <trkpt lat="48.63674" lon="7.41448">
        <ele>225</ele>
        <time>2020-09-03T06:57:49Z</time>
      </trkpt>
      <trkpt lat="48.63746" lon="7.41392">
        <ele>224</ele>
        <time>2020-09-03T06:58:04Z</time>
      </trkpt>
      <trkpt lat="48.63804" lon="7.4134">
        <ele>225</ele>
        <time>2020-09-03T06:58:16Z</time>
      </trkpt>
      <trkpt lat="48.63856" lon="7.41279">
        <ele>225</ele>
        <time>2020-09-03T06:58:27Z</time>
      </trkpt>
      <trkpt lat="48.63905" lon="7.41209">
        <ele>225</ele>
        <time>2020-09-03T06:58:39Z</time>
      </trkpt>
      <trkpt lat="48.63953" lon="7.41115">
        <ele>229</ele>
        <time>2020-09-03T06:58:53Z</time>
      </trkpt>
      <trkpt lat="48.64105" lon="7.40689">
        <ele>230</ele>
        <time>2020-09-03T06:59:50Z</time>
      </trkpt>
      <trkpt lat="48.64228" lon="7.40327">
        <ele>232</ele>
        <time>2020-09-03T07:00:38Z</time>
      </trkpt>
      <trkpt lat="48.64232" lon="7.40322">
        <ele>232</ele>
        <time>2020-09-03T07:00:39Z</time>
      </trkpt>
      <trkpt lat="48.6424" lon="7.4032">
        <ele>232</ele>
        <time>2020-09-03T07:00:40Z</time>
      </trkpt>
      <trkpt lat="48.6426" lon="7.40331">
        <ele>231</ele>
        <time>2020-09-03T07:00:44Z</time>
      </trkpt>
      <trkpt lat="48.643" lon="7.40226">
        <ele>231</ele>
        <time>2020-09-03T07:00:58Z</time>
      </trkpt>
      <trkpt lat="48.64316" lon="7.40181">
        <ele>232</ele>
        <time>2020-09-03T07:01:04Z</time>
      </trkpt>
      <trkpt lat="48.64319" lon="7.40165">
        <ele>232</ele>
        <time>2020-09-03T07:01:06Z</time>
      </trkpt>
      <trkpt lat="48.64324" lon="7.40095">
        <ele>233</ele>
        <time>2020-09-03T07:01:15Z</time>
      </trkpt>
      <trkpt lat="48.64356" lon="7.40003">
        <ele>232</ele>
        <time>2020-09-03T07:01:27Z</time>
      </trkpt>
      <trkpt lat="48.64365" lon="7.39985">
        <ele>231</ele>
        <time>2020-09-03T07:01:30Z</time>
      </trkpt>
      <trkpt lat="48.64335" lon="7.39846">
        <ele>235</ele>
        <time>2020-09-03T07:01:47Z</time>
      </trkpt>
      <trkpt lat="48.6433" lon="7.39788">
        <ele>235</ele>
        <time>2020-09-03T07:01:54Z</time>
      </trkpt>
      <trkpt lat="48.64326" lon="7.39687">
        <ele>234</ele>
        <time>2020-09-03T07:02:06Z</time>
      </trkpt>
      <trkpt lat="48.64318" lon="7.39627">
        <ele>233</ele>
        <time>2020-09-03T07:02:13Z</time>
      </trkpt>
      <trkpt lat="48.64305" lon="7.3958">
        <ele>233</ele>
        <time>2020-09-03T07:02:19Z</time>
      </trkpt>
      <trkpt lat="48.64287" lon="7.39545">
        <ele>232</ele>
        <time>2020-09-03T07:02:24Z</time>
      </trkpt>
      <trkpt lat="48.64235" lon="7.39461">
        <ele>230</ele>
        <time>2020-09-03T07:02:37Z</time>
      </trkpt>
      <trkpt lat="48.64264" lon="7.39431">
        <ele>228</ele>
        <time>2020-09-03T07:02:44Z</time>
      </trkpt>
      <trkpt lat="48.64295" lon="7.39379">
        <ele>227</ele>
        <time>2020-09-03T07:02:52Z</time>
      </trkpt>
      <trkpt lat="48.64318" lon="7.39352">
        <ele>226</ele>
        <time>2020-09-03T07:02:57Z</time>
      </trkpt>
      <trkpt lat="48.6435" lon="7.39332">
        <ele>225</ele>
        <time>2020-09-03T07:03:03Z</time>
      </trkpt>
      <trkpt lat="48.64361" lon="7.39332">
        <ele>225</ele>
        <time>2020-09-03T07:03:05Z</time>
      </trkpt>
      <trkpt lat="48.64372" lon="7.39328">
        <ele>226</ele>
        <time>2020-09-03T07:03:07Z</time>
      </trkpt>
      <trkpt lat="48.64384" lon="7.39321">
        <ele>226</ele>
        <time>2020-09-03T07:03:10Z</time>
      </trkpt>
      <trkpt lat="48.64398" lon="7.39307">
        <ele>226</ele>
        <time>2020-09-03T07:03:13Z</time>
      </trkpt>
      <trkpt lat="48.64404" lon="7.39304">
        <ele>226</ele>
        <time>2020-09-03T07:03:14Z</time>
      </trkpt>
      <trkpt lat="48.64413" lon="7.39303">
        <ele>226</ele>
        <time>2020-09-03T07:03:15Z</time>
      </trkpt>
      <trkpt lat="48.64426" lon="7.39306">
        <ele>226</ele>
        <time>2020-09-03T07:03:18Z</time>
      </trkpt>
      <trkpt lat="48.64598" lon="7.39371">
        <ele>225</ele>
        <time>2020-09-03T07:03:49Z</time>
      </trkpt>
      <trkpt lat="48.64626" lon="7.39372">
        <ele>226</ele>
        <time>2020-09-03T07:03:54Z</time>
      </trkpt>
      <trkpt lat="48.64647" lon="7.39366">
        <ele>227</ele>
        <time>2020-09-03T07:03:58Z</time>
      </trkpt>
      <trkpt lat="48.64657" lon="7.39361">
        <ele>228</ele>
        <time>2020-09-03T07:04:00Z</time>
      </trkpt>
      <trkpt lat="48.64686" lon="7.39338">
        <ele>230</ele>
        <time>2020-09-03T07:04:06Z</time>
      </trkpt>
      <trkpt lat="48.64705" lon="7.39306">
        <ele>231</ele>
        <time>2020-09-03T07:04:11Z</time>
      </trkpt>
      <trkpt lat="48.64721" lon="7.39266">
        <ele>230</ele>
        <time>2020-09-03T07:04:16Z</time>
      </trkpt>
      <trkpt lat="48.6476" lon="7.3915">
        <ele>227</ele>
        <time>2020-09-03T07:04:31Z</time>
      </trkpt>
      <trkpt lat="48.6477" lon="7.39127">
        <ele>228</ele>
        <time>2020-09-03T07:04:35Z</time>
      </trkpt>
      <trkpt lat="48.64788" lon="7.39096">
        <ele>228</ele>
        <time>2020-09-03T07:04:40Z</time>
      </trkpt>
      <trkpt lat="48.64876" lon="7.38962">
        <ele>231</ele>
        <time>2020-09-03T07:05:02Z</time>
      </trkpt>
      <trkpt lat="48.64899" lon="7.38912">
        <ele>232</ele>
        <time>2020-09-03T07:05:09Z</time>
      </trkpt>
      <trkpt lat="48.64911" lon="7.38873">
        <ele>235</ele>
        <time>2020-09-03T07:05:14Z</time>
      </trkpt>
      <trkpt lat="48.6492" lon="7.38828">
        <ele>237</ele>
        <time>2020-09-03T07:05:20Z</time>
      </trkpt>
      <trkpt lat="48.6494" lon="7.38698">
        <ele>243</ele>
        <time>2020-09-03T07:05:35Z</time>
      </trkpt>
      <trkpt lat="48.64955" lon="7.38651">
        <ele>245</ele>
        <time>2020-09-03T07:05:41Z</time>
      </trkpt>
      <trkpt lat="48.65058" lon="7.38494">
        <ele>246</ele>
        <time>2020-09-03T07:06:07Z</time>
      </trkpt>
      <trkpt lat="48.65067" lon="7.38487">
        <ele>246</ele>
        <time>2020-09-03T07:06:09Z</time>
      </trkpt>
      <trkpt lat="48.65148" lon="7.38447">
        <ele>242</ele>
        <time>2020-09-03T07:06:24Z</time>
      </trkpt>
      <trkpt lat="48.65159" lon="7.38438">
        <ele>242</ele>
        <time>2020-09-03T07:06:27Z</time>
      </trkpt>
      <trkpt lat="48.65174" lon="7.38418">
        <ele>241</ele>
        <time>2020-09-03T07:06:30Z</time>
      </trkpt>
      <trkpt lat="48.65216" lon="7.38276">
        <ele>241</ele>
        <time>2020-09-03T07:06:48Z</time>
      </trkpt>
      <trkpt lat="48.65262" lon="7.38143">
        <ele>240</ele>
        <time>2020-09-03T07:07:06Z</time>
      </trkpt>
      <trkpt lat="48.65329" lon="7.38009">
        <ele>237</ele>
        <time>2020-09-03T07:07:26Z</time>
      </trkpt>
      <trkpt lat="48.65365" lon="7.37953">
        <ele>237</ele>
        <time>2020-09-03T07:07:35Z</time>
      </trkpt>
      <trkpt lat="48.65392" lon="7.37923">
        <ele>238</ele>
        <time>2020-09-03T07:07:41Z</time>
      </trkpt>
      <trkpt lat="48.65419" lon="7.37902">
        <ele>239</ele>
        <time>2020-09-03T07:07:46Z</time>
      </trkpt>
      <trkpt lat="48.65441" lon="7.37891">
        <ele>240</ele>
        <time>2020-09-03T07:07:50Z</time>
      </trkpt>
      <trkpt lat="48.65475" lon="7.37885">
        <ele>242</ele>
        <time>2020-09-03T07:07:57Z</time>
      </trkpt>
      <trkpt lat="48.65494" lon="7.37873">
        <ele>243</ele>
        <time>2020-09-03T07:08:00Z</time>
      </trkpt>
      <trkpt lat="48.65561" lon="7.37792">
        <ele>245</ele>
        <time>2020-09-03T07:08:15Z</time>
      </trkpt>
      <trkpt lat="48.65579" lon="7.37774">
        <ele>245</ele>
        <time>2020-09-03T07:08:19Z</time>
      </trkpt>
      <trkpt lat="48.65599" lon="7.37767">
        <ele>246</ele>
        <time>2020-09-03T07:08:23Z</time>
      </trkpt>
      <trkpt lat="48.65606" lon="7.37761">
        <ele>246</ele>
        <time>2020-09-03T07:08:24Z</time>
      </trkpt>
      <trkpt lat="48.65668" lon="7.37695">
        <ele>246</ele>
        <time>2020-09-03T07:08:38Z</time>
      </trkpt>
      <trkpt lat="48.6569" lon="7.37657">
        <ele>247</ele>
        <time>2020-09-03T07:08:44Z</time>
      </trkpt>
      <trkpt lat="48.65727" lon="7.37602">
        <ele>247</ele>
        <time>2020-09-03T07:08:53Z</time>
      </trkpt>
      <trkpt lat="48.6583" lon="7.37477">
        <ele>248</ele>
        <time>2020-09-03T07:09:17Z</time>
      </trkpt>
      <trkpt lat="48.65856" lon="7.37438">
        <ele>250</ele>
        <time>2020-09-03T07:09:23Z</time>
      </trkpt>
      <trkpt lat="48.65917" lon="7.37329">
        <ele>251</ele>
        <time>2020-09-03T07:09:40Z</time>
      </trkpt>
      <trkpt lat="48.65935" lon="7.37307">
        <ele>252</ele>
        <time>2020-09-03T07:09:44Z</time>
      </trkpt>
      <trkpt lat="48.65953" lon="7.37291">
        <ele>252</ele>
        <time>2020-09-03T07:09:48Z</time>
      </trkpt>
      <trkpt lat="48.65991" lon="7.37269">
        <ele>251</ele>
        <time>2020-09-03T07:09:55Z</time>
      </trkpt>
      <trkpt lat="48.66027" lon="7.37253">
        <ele>252</ele>
        <time>2020-09-03T07:10:02Z</time>
      </trkpt>
      <trkpt lat="48.66082" lon="7.37223">
        <ele>255</ele>
        <time>2020-09-03T07:10:12Z</time>
      </trkpt>
      <trkpt lat="48.66175" lon="7.37135">
        <ele>257</ele>
        <time>2020-09-03T07:10:31Z</time>
      </trkpt>
      <trkpt lat="48.66218" lon="7.371">
        <ele>258</ele>
        <time>2020-09-03T07:10:40Z</time>
      </trkpt>
      <trkpt lat="48.66261" lon="7.37084">
        <ele>259</ele>
        <time>2020-09-03T07:10:48Z</time>
      </trkpt>
      <trkpt lat="48.66315" lon="7.37066">
        <ele>261</ele>
        <time>2020-09-03T07:10:58Z</time>
      </trkpt>
      <trkpt lat="48.66338" lon="7.37062">
        <ele>262</ele>
        <time>2020-09-03T07:11:02Z</time>
      </trkpt>
      <trkpt lat="48.66367" lon="7.37061">
        <ele>264</ele>
        <time>2020-09-03T07:11:07Z</time>
      </trkpt>
      <trkpt lat="48.66402" lon="7.37066">
        <ele>266</ele>
        <time>2020-09-03T07:11:13Z</time>
      </trkpt>
      <trkpt lat="48.66489" lon="7.37095">
        <ele>272</ele>
        <time>2020-09-03T07:11:29Z</time>
      </trkpt>
      <trkpt lat="48.6653" lon="7.37105">
        <ele>275</ele>
        <time>2020-09-03T07:11:37Z</time>
      </trkpt>
      <trkpt lat="48.66566" lon="7.37106">
        <ele>276</ele>
        <time>2020-09-03T07:11:43Z</time>
      </trkpt>
      <trkpt lat="48.6667" lon="7.37094">
        <ele>283</ele>
        <time>2020-09-03T07:12:02Z</time>
      </trkpt>
      <trkpt lat="48.66696" lon="7.37041">
        <ele>282</ele>
        <time>2020-09-03T07:12:09Z</time>
      </trkpt>
      <trkpt lat="48.66702" lon="7.37037">
        <ele>282</ele>
        <time>2020-09-03T07:12:11Z</time>
      </trkpt>
      <trkpt lat="48.66718" lon="7.37037">
        <ele>283</ele>
        <time>2020-09-03T07:12:13Z</time>
      </trkpt>
      <trkpt lat="48.66761" lon="7.37053">
        <ele>284</ele>
        <time>2020-09-03T07:12:21Z</time>
      </trkpt>
      <trkpt lat="48.66983" lon="7.37155">
        <ele>300</ele>
        <time>2020-09-03T07:13:03Z</time>
      </trkpt>
      <trkpt lat="48.66991" lon="7.3715">
        <ele>301</ele>
        <time>2020-09-03T07:13:04Z</time>
      </trkpt>
      <trkpt lat="48.67055" lon="7.3716">
        <ele>304</ele>
        <time>2020-09-03T07:13:16Z</time>
      </trkpt>
      <trkpt lat="48.67109" lon="7.37184">
        <ele>307</ele>
        <time>2020-09-03T07:13:26Z</time>
      </trkpt>
      <trkpt lat="48.67166" lon="7.37219">
        <ele>310</ele>
        <time>2020-09-03T07:13:36Z</time>
      </trkpt>
      <trkpt lat="48.67229" lon="7.37264">
        <ele>316</ele>
        <time>2020-09-03T07:13:49Z</time>
      </trkpt>
      <trkpt lat="48.67255" lon="7.37297">
        <ele>318</ele>
        <time>2020-09-03T07:13:55Z</time>
      </trkpt>
      <trkpt lat="48.6733" lon="7.37351">
        <ele>321</ele>
        <time>2020-09-03T07:14:10Z</time>
      </trkpt>
      <trkpt lat="48.67442" lon="7.37468">
        <ele>316</ele>
        <time>2020-09-03T07:14:34Z</time>
      </trkpt>
      <trkpt lat="48.67486" lon="7.37509">
        <ele>311</ele>
        <time>2020-09-03T07:14:43Z</time>
      </trkpt>
      <trkpt lat="48.67502" lon="7.37527">
        <ele>309</ele>
        <time>2020-09-03T07:14:47Z</time>
      </trkpt>
      <trkpt lat="48.6752" lon="7.37539">
        <ele>307</ele>
        <time>2020-09-03T07:14:50Z</time>
      </trkpt>
      <trkpt lat="48.67586" lon="7.3756">
        <ele>303</ele>
        <time>2020-09-03T07:15:02Z</time>
      </trkpt>
      <trkpt lat="48.67618" lon="7.37587">
        <ele>301</ele>
        <time>2020-09-03T07:15:09Z</time>
      </trkpt>
      <trkpt lat="48.67673" lon="7.37625">
        <ele>297</ele>
        <time>2020-09-03T07:15:19Z</time>
      </trkpt>
      <trkpt lat="48.67707" lon="7.37645">
        <ele>295</ele>
        <time>2020-09-03T07:15:26Z</time>
      </trkpt>
      <trkpt lat="48.67724" lon="7.37651">
        <ele>294</ele>
        <time>2020-09-03T07:15:29Z</time>
      </trkpt>
      <trkpt lat="48.67769" lon="7.37652">
        <ele>290</ele>
        <time>2020-09-03T07:15:37Z</time>
      </trkpt>
      <trkpt lat="48.67783" lon="7.37658">
        <ele>289</ele>
        <time>2020-09-03T07:15:40Z</time>
      </trkpt>
      <trkpt lat="48.6788" lon="7.37735">
        <ele>278</ele>
        <time>2020-09-03T07:15:59Z</time>
      </trkpt>
      <trkpt lat="48.6798" lon="7.37796">
        <ele>268</ele>
        <time>2020-09-03T07:16:18Z</time>
      </trkpt>
      <trkpt lat="48.68024" lon="7.37815">
        <ele>265</ele>
        <time>2020-09-03T07:16:26Z</time>
      </trkpt>
      <trkpt lat="48.68065" lon="7.37828">
        <ele>263</ele>
        <time>2020-09-03T07:16:34Z</time>
      </trkpt>
      <trkpt lat="48.68178" lon="7.37875">
        <ele>260</ele>
        <time>2020-09-03T07:16:55Z</time>
      </trkpt>
      <trkpt lat="48.68212" lon="7.37901">
        <ele>260</ele>
        <time>2020-09-03T07:17:01Z</time>
      </trkpt>
      <trkpt lat="48.68289" lon="7.37969">
        <ele>258</ele>
        <time>2020-09-03T07:17:17Z</time>
      </trkpt>
      <trkpt lat="48.68311" lon="7.37984">
        <ele>256</ele>
        <time>2020-09-03T07:17:22Z</time>
      </trkpt>
      <trkpt lat="48.68385" lon="7.38012">
        <ele>252</ele>
        <time>2020-09-03T07:17:35Z</time>
      </trkpt>
      <trkpt lat="48.68394" lon="7.38022">
        <ele>252</ele>
        <time>2020-09-03T07:17:37Z</time>
      </trkpt>
      <trkpt lat="48.68403" lon="7.38054">
        <ele>249</ele>
        <time>2020-09-03T07:17:41Z</time>
      </trkpt>
      <trkpt lat="48.68436" lon="7.38055">
        <ele>249</ele>
        <time>2020-09-03T07:17:47Z</time>
      </trkpt>
      <trkpt lat="48.68482" lon="7.38107">
        <ele>246</ele>
        <time>2020-09-03T07:17:57Z</time>
      </trkpt>
      <trkpt lat="48.68503" lon="7.38122">
        <ele>245</ele>
        <time>2020-09-03T07:18:02Z</time>
      </trkpt>
      <trkpt lat="48.68531" lon="7.38137">
        <ele>242</ele>
        <time>2020-09-03T07:18:07Z</time>
      </trkpt>
      <trkpt lat="48.6865" lon="7.3815">
        <ele>234</ele>
        <time>2020-09-03T07:18:28Z</time>
      </trkpt>
      <trkpt lat="48.6867" lon="7.3818">
        <ele>233</ele>
        <time>2020-09-03T07:18:33Z</time>
      </trkpt>
      <trkpt lat="48.68684" lon="7.38126">
        <ele>231</ele>
        <time>2020-09-03T07:18:40Z</time>
      </trkpt>
      <trkpt lat="48.68701" lon="7.38113">
        <ele>230</ele>
        <time>2020-09-03T07:18:43Z</time>
      </trkpt>
      <trkpt lat="48.68738" lon="7.38067">
        <ele>228</ele>
        <time>2020-09-03T07:18:52Z</time>
      </trkpt>
      <trkpt lat="48.68755" lon="7.38104">
        <ele>227</ele>
        <time>2020-09-03T07:18:57Z</time>
      </trkpt>
      <trkpt lat="48.68791" lon="7.38072">
        <ele>225</ele>
        <time>2020-09-03T07:19:04Z</time>
      </trkpt>
      <trkpt lat="48.68808" lon="7.38095">
        <ele>225</ele>
        <time>2020-09-03T07:19:09Z</time>
      </trkpt>
      <trkpt lat="48.68871" lon="7.37984">
        <ele>224</ele>
        <time>2020-09-03T07:19:26Z</time>
      </trkpt>
      <trkpt lat="48.68894" lon="7.37953">
        <ele>224</ele>
        <time>2020-09-03T07:19:31Z</time>
      </trkpt>
      <trkpt lat="48.68949" lon="7.37891">
        <ele>227</ele>
        <time>2020-09-03T07:19:43Z</time>
      </trkpt>
      <trkpt lat="48.69002" lon="7.37957">
        <ele>227</ele>
        <time>2020-09-03T07:19:56Z</time>
      </trkpt>
      <trkpt lat="48.69041" lon="7.38013">
        <ele>226</ele>
        <time>2020-09-03T07:20:05Z</time>
      </trkpt>
      <trkpt lat="48.691" lon="7.38086">
        <ele>224</ele>
        <time>2020-09-03T07:20:19Z</time>
      </trkpt>
      <trkpt lat="48.69117" lon="7.38059">
        <ele>224</ele>
        <time>2020-09-03T07:20:23Z</time>
      </trkpt>
      <trkpt lat="48.69185" lon="7.37893">
        <ele>221</ele>
        <time>2020-09-03T07:20:46Z</time>
      </trkpt>
      <trkpt lat="48.6923" lon="7.37795">
        <ele>220</ele>
        <time>2020-09-03T07:21:00Z</time>
      </trkpt>
      <trkpt lat="48.69258" lon="7.37749">
        <ele>220</ele>
        <time>2020-09-03T07:21:07Z</time>
      </trkpt>
      <trkpt lat="48.69296" lon="7.377">
        <ele>220</ele>
        <time>2020-09-03T07:21:16Z</time>
      </trkpt>
      <trkpt lat="48.69318" lon="7.37675">
        <ele>219</ele>
        <time>2020-09-03T07:21:21Z</time>
      </trkpt>
      <trkpt lat="48.69352" lon="7.37649">
        <ele>219</ele>
        <time>2020-09-03T07:21:28Z</time>
      </trkpt>
      <trkpt lat="48.6938" lon="7.37634">
        <ele>218</ele>
        <time>2020-09-03T07:21:33Z</time>
      </trkpt>
      <trkpt lat="48.69413" lon="7.37628">
        <ele>218</ele>
        <time>2020-09-03T07:21:39Z</time>
      </trkpt>
      <trkpt lat="48.69486" lon="7.37525">
        <ele>216</ele>
        <time>2020-09-03T07:21:57Z</time>
      </trkpt>
      <trkpt lat="48.69577" lon="7.3741">
        <ele>214</ele>
        <time>2020-09-03T07:22:18Z</time>
      </trkpt>
      <trkpt lat="48.69703" lon="7.37302">
        <ele>222</ele>
        <time>2020-09-03T07:22:44Z</time>
      </trkpt>
      <trkpt lat="48.69806" lon="7.37186">
        <ele>225</ele>
        <time>2020-09-03T07:23:07Z</time>
      </trkpt>
      <trkpt lat="48.69825" lon="7.3717">
        <ele>225</ele>
        <time>2020-09-03T07:23:10Z</time>
      </trkpt>
      <trkpt lat="48.69856" lon="7.37151">
        <ele>226</ele>
        <time>2020-09-03T07:23:16Z</time>
      </trkpt>
      <trkpt lat="48.70009" lon="7.37087">
        <ele>233</ele>
        <time>2020-09-03T07:23:45Z</time>
      </trkpt>
      <trkpt lat="48.70075" lon="7.37048">
        <ele>229</ele>
        <time>2020-09-03T07:23:57Z</time>
      </trkpt>
      <trkpt lat="48.70118" lon="7.37044">
        <ele>228</ele>
        <time>2020-09-03T07:24:05Z</time>
      </trkpt>
      <trkpt lat="48.70123" lon="7.37041">
        <ele>228</ele>
        <time>2020-09-03T07:24:06Z</time>
      </trkpt>
      <trkpt lat="48.70146" lon="7.37003">
        <ele>228</ele>
        <time>2020-09-03T07:24:12Z</time>
      </trkpt>
      <trkpt lat="48.70286" lon="7.36911">
        <ele>231</ele>
        <time>2020-09-03T07:24:39Z</time>
      </trkpt>
      <trkpt lat="48.70473" lon="7.36782">
        <ele>235</ele>
        <time>2020-09-03T07:25:16Z</time>
      </trkpt>
      <trkpt lat="48.7052" lon="7.36746">
        <ele>236</ele>
        <time>2020-09-03T07:25:25Z</time>
      </trkpt>
      <trkpt lat="48.70843" lon="7.36473">
        <ele>226</ele>
        <time>2020-09-03T07:26:31Z</time>
      </trkpt>
      <trkpt lat="48.70871" lon="7.36444">
        <ele>225</ele>
        <time>2020-09-03T07:26:37Z</time>
      </trkpt>
      <trkpt lat="48.70906" lon="7.36417">
        <ele>223</ele>
        <time>2020-09-03T07:26:44Z</time>
      </trkpt>
      <trkpt lat="48.70936" lon="7.36402">
        <ele>223</ele>
        <time>2020-09-03T07:26:49Z</time>
      </trkpt>
      <trkpt lat="48.70957" lon="7.36398">
        <ele>223</ele>
        <time>2020-09-03T07:26:53Z</time>
      </trkpt>
      <trkpt lat="48.7099" lon="7.36405">
        <ele>223</ele>
        <time>2020-09-03T07:26:59Z</time>
      </trkpt>
      <trkpt lat="48.71011" lon="7.364">
        <ele>223</ele>
        <time>2020-09-03T07:27:03Z</time>
      </trkpt>
      <trkpt lat="48.71192" lon="7.36405">
        <ele>221</ele>
        <time>2020-09-03T07:27:35Z</time>
      </trkpt>
      <trkpt lat="48.71233" lon="7.36403">
        <ele>220</ele>
        <time>2020-09-03T07:27:42Z</time>
      </trkpt>
      <trkpt lat="48.71314" lon="7.36405">
        <ele>219</ele>
        <time>2020-09-03T07:27:57Z</time>
      </trkpt>
      <trkpt lat="48.71342" lon="7.36404">
        <ele>218</ele>
        <time>2020-09-03T07:28:02Z</time>
      </trkpt>
      <trkpt lat="48.71386" lon="7.36396">
        <ele>216</ele>
        <time>2020-09-03T07:28:10Z</time>
      </trkpt>
      <trkpt lat="48.71426" lon="7.36385">
        <ele>213</ele>
        <time>2020-09-03T07:28:17Z</time>
      </trkpt>
      <trkpt lat="48.71515" lon="7.36343">
        <ele>205</ele>
        <time>2020-09-03T07:28:34Z</time>
      </trkpt>
      <trkpt lat="48.71601" lon="7.36306">
        <ele>201</ele>
        <time>2020-09-03T07:28:49Z</time>
      </trkpt>
      <trkpt lat="48.7169" lon="7.36272">
        <ele>199</ele>
        <time>2020-09-03T07:29:06Z</time>
      </trkpt>
      <trkpt lat="48.71808" lon="7.36206">
        <ele>195</ele>
        <time>2020-09-03T07:29:28Z</time>
      </trkpt>
      <trkpt lat="48.71926" lon="7.36114">
        <ele>198</ele>
        <time>2020-09-03T07:29:52Z</time>
      </trkpt>
      <trkpt lat="48.71981" lon="7.36086">
        <ele>199</ele>
        <time>2020-09-03T07:30:02Z</time>
      </trkpt>
      <trkpt lat="48.71999" lon="7.36068">
        <ele>200</ele>
        <time>2020-09-03T07:30:06Z</time>
      </trkpt>
      <trkpt lat="48.72037" lon="7.36048">
        <ele>204</ele>
        <time>2020-09-03T07:30:13Z</time>
      </trkpt>
      <trkpt lat="48.72048" lon="7.36084">
        <ele>204</ele>
        <time>2020-09-03T07:30:18Z</time>
      </trkpt>
      <trkpt lat="48.72102" lon="7.3621">
        <ele>203</ele>
        <time>2020-09-03T07:30:35Z</time>
      </trkpt>
      <trkpt lat="48.72167" lon="7.36174">
        <ele>208</ele>
        <time>2020-09-03T07:30:48Z</time>
      </trkpt>
      <trkpt lat="48.72245" lon="7.36113">
        <ele>211</ele>
        <time>2020-09-03T07:31:03Z</time>
      </trkpt>
      <trkpt lat="48.72259" lon="7.36108">
        <ele>211</ele>
        <time>2020-09-03T07:31:06Z</time>
      </trkpt>
      <trkpt lat="48.72274" lon="7.36106">
        <ele>211</ele>
        <time>2020-09-03T07:31:09Z</time>
      </trkpt>
      <trkpt lat="48.72293" lon="7.36112">
        <ele>210</ele>
        <time>2020-09-03T07:31:12Z</time>
      </trkpt>
      <trkpt lat="48.72361" lon="7.36144">
        <ele>211</ele>
        <time>2020-09-03T07:31:25Z</time>
      </trkpt>
      <trkpt lat="48.72411" lon="7.36164">
        <ele>213</ele>
        <time>2020-09-03T07:31:34Z</time>
      </trkpt>
      <trkpt lat="48.72713" lon="7.36257">
        <ele>235</ele>
        <time>2020-09-03T07:32:29Z</time>
      </trkpt>
      <trkpt lat="48.72775" lon="7.36268">
        <ele>238</ele>
        <time>2020-09-03T07:32:40Z</time>
      </trkpt>
      <trkpt lat="48.72831" lon="7.36266">
        <ele>241</ele>
        <time>2020-09-03T07:32:50Z</time>
      </trkpt>
      <trkpt lat="48.72856" lon="7.36236">
        <ele>240</ele>
        <time>2020-09-03T07:32:55Z</time>
      </trkpt>
      <trkpt lat="48.72925" lon="7.36111">
        <ele>237</ele>
        <time>2020-09-03T07:33:15Z</time>
      </trkpt>
      <trkpt lat="48.72958" lon="7.36057">
        <ele>236</ele>
        <time>2020-09-03T07:33:23Z</time>
      </trkpt>
      <trkpt lat="48.72995" lon="7.35964">
        <ele>236</ele>
        <time>2020-09-03T07:33:36Z</time>
      </trkpt>
      <trkpt lat="48.73013" lon="7.35895">
        <ele>235</ele>
        <time>2020-09-03T07:33:45Z</time>
      </trkpt>
      <trkpt lat="48.73047" lon="7.35726">
        <ele>232</ele>
        <time>2020-09-03T07:34:05Z</time>
      </trkpt>
      <trkpt lat="48.73067" lon="7.35674">
        <ele>233</ele>
        <time>2020-09-03T07:34:12Z</time>
      </trkpt>
      <trkpt lat="48.73083" lon="7.35653">
        <ele>233</ele>
        <time>2020-09-03T07:34:16Z</time>
      </trkpt>
      <trkpt lat="48.7316" lon="7.35585">
        <ele>233</ele>
        <time>2020-09-03T07:34:32Z</time>
      </trkpt>
      <trkpt lat="48.73198" lon="7.35561">
        <ele>234</ele>
        <time>2020-09-03T07:34:39Z</time>
      </trkpt>
      <trkpt lat="48.7321" lon="7.35604">
        <ele>234</ele>
        <time>2020-09-03T07:34:45Z</time>
      </trkpt>
      <trkpt lat="48.73261" lon="7.35523">
        <ele>238</ele>
        <time>2020-09-03T07:34:58Z</time>
      </trkpt>
      <trkpt lat="48.73274" lon="7.35507">
        <ele>239</ele>
        <time>2020-09-03T07:35:01Z</time>
      </trkpt>
      <trkpt lat="48.73403" lon="7.3542">
        <ele>246</ele>
        <time>2020-09-03T07:35:26Z</time>
      </trkpt>
      <trkpt lat="48.73382" lon="7.35346">
        <ele>245</ele>
        <time>2020-09-03T07:35:36Z</time>
      </trkpt>
      <trkpt lat="48.73367" lon="7.35258">
        <ele>246</ele>
        <time>2020-09-03T07:35:46Z</time>
      </trkpt>
      <trkpt lat="48.73365" lon="7.35164">
        <ele>247</ele>
        <time>2020-09-03T07:35:57Z</time>
      </trkpt>
      <trkpt lat="48.73371" lon="7.35152">
        <ele>248</ele>
        <time>2020-09-03T07:35:59Z</time>
      </trkpt>
      <trkpt lat="48.73374" lon="7.35128">
        <ele>249</ele>
        <time>2020-09-03T07:36:02Z</time>
      </trkpt>
      <trkpt lat="48.73374" lon="7.3504">
        <ele>256</ele>
        <time>2020-09-03T07:36:12Z</time>
      </trkpt>
      <trkpt lat="48.73378" lon="7.3497">
        <ele>264</ele>
        <time>2020-09-03T07:36:21Z</time>
      </trkpt>
      <trkpt lat="48.73383" lon="7.34949">
        <ele>265</ele>
        <time>2020-09-03T07:36:23Z</time>
      </trkpt>
      <trkpt lat="48.7339" lon="7.34936">
        <ele>266</ele>
        <time>2020-09-03T07:36:25Z</time>
      </trkpt>
      <trkpt lat="48.73444" lon="7.34927">
        <ele>264</ele>
        <time>2020-09-03T07:36:35Z</time>
      </trkpt>
      <trkpt lat="48.73464" lon="7.34928">
        <ele>263</ele>
        <time>2020-09-03T07:36:38Z</time>
      </trkpt>
      <trkpt lat="48.73495" lon="7.34935">
        <ele>262</ele>
        <time>2020-09-03T07:36:44Z</time>
      </trkpt>
      <trkpt lat="48.73517" lon="7.34944">
        <ele>260</ele>
        <time>2020-09-03T07:36:48Z</time>
      </trkpt>
      <trkpt lat="48.73669" lon="7.3503">
        <ele>243</ele>
        <time>2020-09-03T07:37:17Z</time>
      </trkpt>
      <trkpt lat="48.73742" lon="7.35086">
        <ele>234</ele>
        <time>2020-09-03T07:37:31Z</time>
      </trkpt>
      <trkpt lat="48.73925" lon="7.35295">
        <ele>212</ele>
        <time>2020-09-03T07:38:12Z</time>
      </trkpt>
      <trkpt lat="48.73948" lon="7.35338">
        <ele>206</ele>
        <time>2020-09-03T07:38:19Z</time>
      </trkpt>
      <trkpt lat="48.7398" lon="7.35375">
        <ele>204</ele>
        <time>2020-09-03T07:38:26Z</time>
      </trkpt>
      <trkpt lat="48.74022" lon="7.35431">
        <ele>200</ele>
        <time>2020-09-03T07:38:36Z</time>
      </trkpt>
      <trkpt lat="48.74041" lon="7.35451">
        <ele>198</ele>
        <time>2020-09-03T07:38:40Z</time>
      </trkpt>
      <trkpt lat="48.74043" lon="7.35473">
        <ele>197</ele>
        <time>2020-09-03T07:38:42Z</time>
      </trkpt>
      <trkpt lat="48.7409" lon="7.35458">
        <ele>193</ele>
        <time>2020-09-03T07:38:51Z</time>
      </trkpt>
      <trkpt lat="48.74097" lon="7.35262">
        <ele>194</ele>
        <time>2020-09-03T07:39:14Z</time>
      </trkpt>
      <trkpt lat="48.74096" lon="7.35209">
        <ele>195</ele>
        <time>2020-09-03T07:39:20Z</time>
      </trkpt>
      <trkpt lat="48.74092" lon="7.35157">
        <ele>197</ele>
        <time>2020-09-03T07:39:26Z</time>
      </trkpt>
      <trkpt lat="48.74084" lon="7.35105">
        <ele>196</ele>
        <time>2020-09-03T07:39:33Z</time>
      </trkpt>
      <trkpt lat="48.74071" lon="7.35057">
        <ele>196</ele>
        <time>2020-09-03T07:39:39Z</time>
      </trkpt>
      <trkpt lat="48.74056" lon="7.35017">
        <ele>197</ele>
        <time>2020-09-03T07:39:44Z</time>
      </trkpt>
      <trkpt lat="48.74031" lon="7.34963">
        <ele>200</ele>
        <time>2020-09-03T07:39:52Z</time>
      </trkpt>
      <trkpt lat="48.74003" lon="7.34927">
        <ele>202</ele>
        <time>2020-09-03T07:39:58Z</time>
      </trkpt>
      <trkpt lat="48.73866" lon="7.34796">
        <ele>208</ele>
        <time>2020-09-03T07:40:27Z</time>
      </trkpt>
      <trkpt lat="48.73813" lon="7.34751">
        <ele>207</ele>
        <time>2020-09-03T07:40:38Z</time>
      </trkpt>
      <trkpt lat="48.73727" lon="7.34688">
        <ele>215</ele>
        <time>2020-09-03T07:40:55Z</time>
      </trkpt>
      <trkpt lat="48.73645" lon="7.34583">
        <ele>208</ele>
        <time>2020-09-03T07:41:14Z</time>
      </trkpt>
      <trkpt lat="48.73429" lon="7.34237">
        <ele>201</ele>
        <time>2020-09-03T07:42:10Z</time>
      </trkpt>
      <trkpt lat="48.73416" lon="7.34236">
        <ele>202</ele>
        <time>2020-09-03T07:42:12Z</time>
      </trkpt>
      <trkpt lat="48.73399" lon="7.34219">
        <ele>202</ele>
        <time>2020-09-03T07:42:16Z</time>
      </trkpt>
      <trkpt lat="48.73396" lon="7.34209">
        <ele>201</ele>
        <time>2020-09-03T07:42:17Z</time>
      </trkpt>
      <trkpt lat="48.73375" lon="7.3419">
        <ele>200</ele>
        <time>2020-09-03T07:42:22Z</time>
      </trkpt>
      <trkpt lat="48.73238" lon="7.3411">
        <ele>208</ele>
        <time>2020-09-03T07:42:48Z</time>
      </trkpt>
      <trkpt lat="48.73206" lon="7.34084">
        <ele>209</ele>
        <time>2020-09-03T07:42:54Z</time>
      </trkpt>
      <trkpt lat="48.73177" lon="7.34043">
        <ele>209</ele>
        <time>2020-09-03T07:43:01Z</time>
      </trkpt>
      <trkpt lat="48.73166" lon="7.34011">
        <ele>204</ele>
        <time>2020-09-03T07:43:06Z</time>
      </trkpt>
      <trkpt lat="48.73132" lon="7.33864">
        <ele>205</ele>
        <time>2020-09-03T07:43:24Z</time>
      </trkpt>
      <trkpt lat="48.73124" lon="7.33719">
        <ele>201</ele>
        <time>2020-09-03T07:43:41Z</time>
      </trkpt>
      <trkpt lat="48.73107" lon="7.33606">
        <ele>201</ele>
        <time>2020-09-03T07:43:54Z</time>
      </trkpt>
      <trkpt lat="48.73106" lon="7.33569">
        <ele>200</ele>
        <time>2020-09-03T07:43:59Z</time>
      </trkpt>
      <trkpt lat="48.7309" lon="7.33471">
        <ele>197</ele>
        <time>2020-09-03T07:44:11Z</time>
      </trkpt>
      <trkpt lat="48.73081" lon="7.3345">
        <ele>196</ele>
        <time>2020-09-03T07:44:14Z</time>
      </trkpt>
      <trkpt lat="48.73059" lon="7.33358">
        <ele>196</ele>
        <time>2020-09-03T07:44:25Z</time>
      </trkpt>
      <trkpt lat="48.7305" lon="7.33337">
        <ele>196</ele>
        <time>2020-09-03T07:44:28Z</time>
      </trkpt>
      <trkpt lat="48.73028" lon="7.33303">
        <ele>198</ele>
        <time>2020-09-03T07:44:34Z</time>
      </trkpt>
      <trkpt lat="48.72997" lon="7.33275">
        <ele>199</ele>
        <time>2020-09-03T07:44:40Z</time>
      </trkpt>
      <trkpt lat="48.72963" lon="7.33257">
        <ele>197</ele>
        <time>2020-09-03T07:44:46Z</time>
      </trkpt>
      <trkpt lat="48.72848" lon="7.33214">
        <ele>197</ele>
        <time>2020-09-03T07:45:08Z</time>
      </trkpt>
      <trkpt lat="48.72786" lon="7.33168">
        <ele>197</ele>
        <time>2020-09-03T07:45:20Z</time>
      </trkpt>
      <trkpt lat="48.72755" lon="7.33136">
        <ele>198</ele>
        <time>2020-09-03T07:45:26Z</time>
      </trkpt>
      <trkpt lat="48.72739" lon="7.33116">
        <ele>199</ele>
        <time>2020-09-03T07:45:30Z</time>
      </trkpt>
      <trkpt lat="48.72724" lon="7.33095">
        <ele>199</ele>
        <time>2020-09-03T07:45:34Z</time>
      </trkpt>
      <trkpt lat="48.72706" lon="7.33059">
        <ele>199</ele>
        <time>2020-09-03T07:45:39Z</time>
      </trkpt>
      <trkpt lat="48.7268" lon="7.32991">
        <ele>199</ele>
        <time>2020-09-03T07:45:48Z</time>
      </trkpt>
      <trkpt lat="48.72663" lon="7.32934">
        <ele>202</ele>
        <time>2020-09-03T07:45:56Z</time>
      </trkpt>
      <trkpt lat="48.72652" lon="7.32876">
        <ele>204</ele>
        <time>2020-09-03T07:46:03Z</time>
      </trkpt>
      <trkpt lat="48.72627" lon="7.32675">
        <ele>207</ele>
        <time>2020-09-03T07:46:27Z</time>
      </trkpt>
      <trkpt lat="48.7261" lon="7.32609">
        <ele>207</ele>
        <time>2020-09-03T07:46:35Z</time>
      </trkpt>
      <trkpt lat="48.72591" lon="7.32566">
        <ele>203</ele>
        <time>2020-09-03T07:46:41Z</time>
      </trkpt>
      <trkpt lat="48.72452" lon="7.32367">
        <ele>201</ele>
        <time>2020-09-03T07:47:15Z</time>
      </trkpt>
      <trkpt lat="48.7244" lon="7.32347">
        <ele>200</ele>
        <time>2020-09-03T07:47:18Z</time>
      </trkpt>
      <trkpt lat="48.72434" lon="7.32326">
        <ele>200</ele>
        <time>2020-09-03T07:47:21Z</time>
      </trkpt>
      <trkpt lat="48.72422" lon="7.3231">
        <ele>200</ele>
        <time>2020-09-03T07:47:24Z</time>
      </trkpt>
      <trkpt lat="48.7241" lon="7.32301">
        <ele>200</ele>
        <time>2020-09-03T07:47:26Z</time>
      </trkpt>
      <trkpt lat="48.72386" lon="7.3227">
        <ele>201</ele>
        <time>2020-09-03T07:47:32Z</time>
      </trkpt>
      <trkpt lat="48.72346" lon="7.32216">
        <ele>202</ele>
        <time>2020-09-03T07:47:41Z</time>
      </trkpt>
      <trkpt lat="48.72291" lon="7.32135">
        <ele>205</ele>
        <time>2020-09-03T07:47:55Z</time>
      </trkpt>
      <trkpt lat="48.72246" lon="7.32055">
        <ele>201</ele>
        <time>2020-09-03T07:48:07Z</time>
      </trkpt>
      <trkpt lat="48.72213" lon="7.31983">
        <ele>203</ele>
        <time>2020-09-03T07:48:18Z</time>
      </trkpt>
      <trkpt lat="48.72194" lon="7.31917">
        <ele>204</ele>
        <time>2020-09-03T07:48:26Z</time>
      </trkpt>
      <trkpt lat="48.72169" lon="7.31673">
        <ele>201</ele>
        <time>2020-09-03T07:48:55Z</time>
      </trkpt>
      <trkpt lat="48.72157" lon="7.31601">
        <ele>202</ele>
        <time>2020-09-03T07:49:04Z</time>
      </trkpt>
      <trkpt lat="48.72146" lon="7.31551">
        <ele>204</ele>
        <time>2020-09-03T07:49:10Z</time>
      </trkpt>
      <trkpt lat="48.72082" lon="7.31346">
        <ele>202</ele>
        <time>2020-09-03T07:49:37Z</time>
      </trkpt>
      <trkpt lat="48.72065" lon="7.31283">
        <ele>203</ele>
        <time>2020-09-03T07:49:45Z</time>
      </trkpt>
      <trkpt lat="48.7206" lon="7.31253">
        <ele>203</ele>
        <time>2020-09-03T07:49:48Z</time>
      </trkpt>
      <trkpt lat="48.72057" lon="7.31208">
        <ele>205</ele>
        <time>2020-09-03T07:49:54Z</time>
      </trkpt>
      <trkpt lat="48.72058" lon="7.31181">
        <ele>207</ele>
        <time>2020-09-03T07:49:57Z</time>
      </trkpt>
      <trkpt lat="48.72075" lon="7.31059">
        <ele>206</ele>
        <time>2020-09-03T07:50:11Z</time>
      </trkpt>
      <trkpt lat="48.72079" lon="7.30996">
        <ele>203</ele>
        <time>2020-09-03T07:50:19Z</time>
      </trkpt>
      <trkpt lat="48.72069" lon="7.30838">
        <ele>202</ele>
        <time>2020-09-03T07:50:37Z</time>
      </trkpt>
      <trkpt lat="48.72072" lon="7.30789">
        <ele>201</ele>
        <time>2020-09-03T07:50:43Z</time>
      </trkpt>
      <trkpt lat="48.72083" lon="7.30732">
        <ele>199</ele>
        <time>2020-09-03T07:50:50Z</time>
      </trkpt>
      <trkpt lat="48.72091" lon="7.3071">
        <ele>201</ele>
        <time>2020-09-03T07:50:53Z</time>
      </trkpt>
      <trkpt lat="48.72109" lon="7.30673">
        <ele>202</ele>
        <time>2020-09-03T07:50:59Z</time>
      </trkpt>
      <trkpt lat="48.72131" lon="7.30643">
        <ele>202</ele>
        <time>2020-09-03T07:51:04Z</time>
      </trkpt>
      <trkpt lat="48.72163" lon="7.30619">
        <ele>202</ele>
        <time>2020-09-03T07:51:10Z</time>
      </trkpt>
      <trkpt lat="48.72199" lon="7.30602">
        <ele>202</ele>
        <time>2020-09-03T07:51:17Z</time>
      </trkpt>
      <trkpt lat="48.72232" lon="7.30595">
        <ele>202</ele>
        <time>2020-09-03T07:51:23Z</time>
      </trkpt>
      <trkpt lat="48.72285" lon="7.30572">
        <ele>204</ele>
        <time>2020-09-03T07:51:33Z</time>
      </trkpt>
      <trkpt lat="48.7231" lon="7.30556">
        <ele>206</ele>
        <time>2020-09-03T07:51:37Z</time>
      </trkpt>
      <trkpt lat="48.72372" lon="7.30501">
        <ele>209</ele>
        <time>2020-09-03T07:51:50Z</time>
      </trkpt>
      <trkpt lat="48.72383" lon="7.30487">
        <ele>211</ele>
        <time>2020-09-03T07:51:53Z</time>
      </trkpt>
      <trkpt lat="48.72462" lon="7.30358">
        <ele>213</ele>
        <time>2020-09-03T07:52:13Z</time>
      </trkpt>
      <trkpt lat="48.72478" lon="7.30324">
        <ele>209</ele>
        <time>2020-09-03T07:52:18Z</time>
      </trkpt>
      <trkpt lat="48.72507" lon="7.30247">
        <ele>205</ele>
        <time>2020-09-03T07:52:29Z</time>
      </trkpt>
      <trkpt lat="48.72519" lon="7.30207">
        <ele>211</ele>
        <time>2020-09-03T07:52:34Z</time>
      </trkpt>
      <trkpt lat="48.7255" lon="7.30054">
        <ele>211</ele>
        <time>2020-09-03T07:52:53Z</time>
      </trkpt>
      <trkpt lat="48.72564" lon="7.30003">
        <ele>206</ele>
        <time>2020-09-03T07:52:59Z</time>
      </trkpt>
      <trkpt lat="48.7258" lon="7.29961">
        <ele>203</ele>
        <time>2020-09-03T07:53:05Z</time>
      </trkpt>
      <trkpt lat="48.726" lon="7.29925">
        <ele>204</ele>
        <time>2020-09-03T07:53:10Z</time>
      </trkpt>
      <trkpt lat="48.72612" lon="7.29911">
        <ele>205</ele>
        <time>2020-09-03T07:53:13Z</time>
      </trkpt>
      <trkpt lat="48.72636" lon="7.2989">
        <ele>208</ele>
        <time>2020-09-03T07:53:18Z</time>
      </trkpt>
      <trkpt lat="48.7265" lon="7.29882">
        <ele>208</ele>
        <time>2020-09-03T07:53:21Z</time>
      </trkpt>
      <trkpt lat="48.72695" lon="7.29874">
        <ele>208</ele>
        <time>2020-09-03T07:53:29Z</time>
      </trkpt>
      <trkpt lat="48.72726" lon="7.29879">
        <ele>210</ele>
        <time>2020-09-03T07:53:34Z</time>
      </trkpt>
      <trkpt lat="48.72793" lon="7.29911">
        <ele>208</ele>
        <time>2020-09-03T07:53:47Z</time>
      </trkpt>
      <trkpt lat="48.72818" lon="7.29907">
        <ele>209</ele>
        <time>2020-09-03T07:53:51Z</time>
      </trkpt>
      <trkpt lat="48.72839" lon="7.299">
        <ele>210</ele>
        <time>2020-09-03T07:53:55Z</time>
      </trkpt>
      <trkpt lat="48.72862" lon="7.29885">
        <ele>213</ele>
        <time>2020-09-03T07:54:00Z</time>
      </trkpt>
      <trkpt lat="48.72875" lon="7.29867">
        <ele>213</ele>
        <time>2020-09-03T07:54:03Z</time>
      </trkpt>
      <trkpt lat="48.7289" lon="7.29831">
        <ele>210</ele>
        <time>2020-09-03T07:54:08Z</time>
      </trkpt>
      <trkpt lat="48.72905" lon="7.29781">
        <ele>211</ele>
        <time>2020-09-03T07:54:14Z</time>
      </trkpt>
      <trkpt lat="48.73004" lon="7.29343">
        <ele>208</ele>
        <time>2020-09-03T07:55:08Z</time>
      </trkpt>
      <trkpt lat="48.73049" lon="7.29191">
        <ele>211</ele>
        <time>2020-09-03T07:55:28Z</time>
      </trkpt>
      <trkpt lat="48.7307" lon="7.29084">
        <ele>209</ele>
        <time>2020-09-03T07:55:41Z</time>
      </trkpt>
      <trkpt lat="48.73086" lon="7.28985">
        <ele>208</ele>
        <time>2020-09-03T07:55:53Z</time>
      </trkpt>
      <trkpt lat="48.73149" lon="7.28706">
        <ele>211</ele>
        <time>2020-09-03T07:56:28Z</time>
      </trkpt>
      <trkpt lat="48.73178" lon="7.28596">
        <ele>211</ele>
        <time>2020-09-03T07:56:42Z</time>
      </trkpt>
      <trkpt lat="48.73497" lon="7.27672">
        <ele>213</ele>
        <time>2020-09-03T07:58:44Z</time>
      </trkpt>
      <trkpt lat="48.73525" lon="7.27604">
        <ele>218</ele>
        <time>2020-09-03T07:58:53Z</time>
      </trkpt>
      <trkpt lat="48.73588" lon="7.27491">
        <ele>215</ele>
        <time>2020-09-03T07:59:11Z</time>
      </trkpt>
      <trkpt lat="48.73653" lon="7.27383">
        <ele>212</ele>
        <time>2020-09-03T07:59:28Z</time>
      </trkpt>
      <trkpt lat="48.737" lon="7.27308">
        <ele>210</ele>
        <time>2020-09-03T07:59:40Z</time>
      </trkpt>
      <trkpt lat="48.73712" lon="7.27294">
        <ele>211</ele>
        <time>2020-09-03T07:59:43Z</time>
      </trkpt>
      <trkpt lat="48.73735" lon="7.27255">
        <ele>209</ele>
        <time>2020-09-03T07:59:49Z</time>
      </trkpt>
      <trkpt lat="48.73767" lon="7.27179">
        <ele>216</ele>
        <time>2020-09-03T07:59:59Z</time>
      </trkpt>
      <trkpt lat="48.73782" lon="7.27127">
        <ele>218</ele>
        <time>2020-09-03T08:00:06Z</time>
      </trkpt>
      <trkpt lat="48.73794" lon="7.27066">
        <ele>218</ele>
        <time>2020-09-03T08:00:14Z</time>
      </trkpt>
      <trkpt lat="48.73816" lon="7.26557">
        <ele>214</ele>
        <time>2020-09-03T08:01:13Z</time>
      </trkpt>
      <trkpt lat="48.73809" lon="7.26475">
        <ele>210</ele>
        <time>2020-09-03T08:01:23Z</time>
      </trkpt>
      <trkpt lat="48.73792" lon="7.26393">
        <ele>210</ele>
        <time>2020-09-03T08:01:33Z</time>
      </trkpt>
      <trkpt lat="48.73785" lon="7.26372">
        <ele>210</ele>
        <time>2020-09-03T08:01:36Z</time>
      </trkpt>
      <trkpt lat="48.73603" lon="7.25976">
        <ele>208</ele>
        <time>2020-09-03T08:02:33Z</time>
      </trkpt>
      <trkpt lat="48.73595" lon="7.25953">
        <ele>208</ele>
        <time>2020-09-03T08:02:36Z</time>
      </trkpt>
      <trkpt lat="48.73583" lon="7.25896">
        <ele>208</ele>
        <time>2020-09-03T08:02:43Z</time>
      </trkpt>
      <trkpt lat="48.73587" lon="7.25887">
        <ele>209</ele>
        <time>2020-09-03T08:02:44Z</time>
      </trkpt>
      <trkpt lat="48.73531" lon="7.2527">
        <ele>211</ele>
        <time>2020-09-03T08:03:57Z</time>
      </trkpt>
      <trkpt lat="48.73517" lon="7.2518">
        <ele>211</ele>
        <time>2020-09-03T08:04:08Z</time>
      </trkpt>
      <trkpt lat="48.73506" lon="7.25142">
        <ele>211</ele>
        <time>2020-09-03T08:04:13Z</time>
      </trkpt>
      <trkpt lat="48.73494" lon="7.25115">
        <ele>212</ele>
        <time>2020-09-03T08:04:17Z</time>
      </trkpt>
      <trkpt lat="48.73511" lon="7.25097">
        <ele>212</ele>
        <time>2020-09-03T08:04:20Z</time>
      </trkpt>
      <trkpt lat="48.73446" lon="7.24965">
        <ele>218</ele>
        <time>2020-09-03T08:04:40Z</time>
      </trkpt>
      <trkpt lat="48.73414" lon="7.24932">
        <ele>218</ele>
        <time>2020-09-03T08:04:47Z</time>
      </trkpt>
      <trkpt lat="48.73376" lon="7.2491">
        <ele>217</ele>
        <time>2020-09-03T08:04:54Z</time>
      </trkpt>
      <trkpt lat="48.73338" lon="7.24906">
        <ele>213</ele>
        <time>2020-09-03T08:05:01Z</time>
      </trkpt>
      <trkpt lat="48.73316" lon="7.24909">
        <ele>214</ele>
        <time>2020-09-03T08:05:04Z</time>
      </trkpt>
      <trkpt lat="48.73295" lon="7.24916">
        <ele>217</ele>
        <time>2020-09-03T08:05:08Z</time>
      </trkpt>
      <trkpt lat="48.73277" lon="7.24928">
        <ele>218</ele>
        <time>2020-09-03T08:05:12Z</time>
      </trkpt>
      <trkpt lat="48.73266" lon="7.24939">
        <ele>219</ele>
        <time>2020-09-03T08:05:14Z</time>
      </trkpt>
      <trkpt lat="48.73213" lon="7.25">
        <ele>223</ele>
        <time>2020-09-03T08:05:26Z</time>
      </trkpt>
      <trkpt lat="48.73181" lon="7.25021">
        <ele>225</ele>
        <time>2020-09-03T08:05:32Z</time>
      </trkpt>
      <trkpt lat="48.73164" lon="7.25027">
        <ele>225</ele>
        <time>2020-09-03T08:05:35Z</time>
      </trkpt>
      <trkpt lat="48.73146" lon="7.25029">
        <ele>224</ele>
        <time>2020-09-03T08:05:38Z</time>
      </trkpt>
      <trkpt lat="48.73127" lon="7.25024">
        <ele>224</ele>
        <time>2020-09-03T08:05:42Z</time>
      </trkpt>
      <trkpt lat="48.73098" lon="7.25011">
        <ele>224</ele>
        <time>2020-09-03T08:05:47Z</time>
      </trkpt>
      <trkpt lat="48.73081" lon="7.24998">
        <ele>224</ele>
        <time>2020-09-03T08:05:51Z</time>
      </trkpt>
      <trkpt lat="48.73053" lon="7.24961">
        <ele>226</ele>
        <time>2020-09-03T08:05:57Z</time>
      </trkpt>
      <trkpt lat="48.73039" lon="7.2493">
        <ele>227</ele>
        <time>2020-09-03T08:06:02Z</time>
      </trkpt>
      <trkpt lat="48.72883" lon="7.24472">
        <ele>229</ele>
        <time>2020-09-03T08:07:02Z</time>
      </trkpt>
      <trkpt lat="48.72874" lon="7.24455">
        <ele>228</ele>
        <time>2020-09-03T08:07:05Z</time>
      </trkpt>
      <trkpt lat="48.72864" lon="7.24427">
        <ele>227</ele>
        <time>2020-09-03T08:07:09Z</time>
      </trkpt>
      <trkpt lat="48.72854" lon="7.24386">
        <ele>227</ele>
        <time>2020-09-03T08:07:14Z</time>
      </trkpt>
      <trkpt lat="48.7284" lon="7.24347">
        <ele>223</ele>
        <time>2020-09-03T08:07:19Z</time>
      </trkpt>
      <trkpt lat="48.72821" lon="7.24272">
        <ele>224</ele>
        <time>2020-09-03T08:07:28Z</time>
      </trkpt>
      <trkpt lat="48.728" lon="7.24106">
        <ele>232</ele>
        <time>2020-09-03T08:07:48Z</time>
      </trkpt>
      <trkpt lat="48.72795" lon="7.24049">
        <ele>235</ele>
        <time>2020-09-03T08:07:55Z</time>
      </trkpt>
      <trkpt lat="48.72792" lon="7.23965">
        <ele>237</ele>
        <time>2020-09-03T08:08:05Z</time>
      </trkpt>
      <trkpt lat="48.728" lon="7.23796">
        <ele>237</ele>
        <time>2020-09-03T08:08:25Z</time>
      </trkpt>
      <trkpt lat="48.72797" lon="7.23712">
        <ele>237</ele>
        <time>2020-09-03T08:08:34Z</time>
      </trkpt>
      <trkpt lat="48.72771" lon="7.23422">
        <ele>234</ele>
        <time>2020-09-03T08:09:09Z</time>
      </trkpt>
      <trkpt lat="48.72768" lon="7.23367">
        <ele>233</ele>
        <time>2020-09-03T08:09:15Z</time>
      </trkpt>
      <trkpt lat="48.72768" lon="7.23352">
        <ele>233</ele>
        <time>2020-09-03T08:09:17Z</time>
      </trkpt>
      <trkpt lat="48.72775" lon="7.2335">
        <ele>236</ele>
        <time>2020-09-03T08:09:18Z</time>
      </trkpt>
      <trkpt lat="48.7278" lon="7.23339">
        <ele>238</ele>
        <time>2020-09-03T08:09:20Z</time>
      </trkpt>
      <trkpt lat="48.72784" lon="7.23278">
        <ele>240</ele>
        <time>2020-09-03T08:09:27Z</time>
      </trkpt>
      <trkpt lat="48.7278" lon="7.23262">
        <ele>239</ele>
        <time>2020-09-03T08:09:29Z</time>
      </trkpt>
      <trkpt lat="48.72777" lon="7.23257">
        <ele>237</ele>
        <time>2020-09-03T08:09:30Z</time>
      </trkpt>
      <trkpt lat="48.72764" lon="7.23255">
        <ele>232</ele>
        <time>2020-09-03T08:09:32Z</time>
      </trkpt>
      <trkpt lat="48.72757" lon="7.23251">
        <ele>229</ele>
        <time>2020-09-03T08:09:34Z</time>
      </trkpt>
      <trkpt lat="48.72753" lon="7.2324">
        <ele>227</ele>
        <time>2020-09-03T08:09:35Z</time>
      </trkpt>
      <trkpt lat="48.72742" lon="7.23181">
        <ele>227</ele>
        <time>2020-09-03T08:09:42Z</time>
      </trkpt>
      <trkpt lat="48.7273" lon="7.23149">
        <ele>227</ele>
        <time>2020-09-03T08:09:47Z</time>
      </trkpt>
      <trkpt lat="48.72704" lon="7.23101">
        <ele>226</ele>
        <time>2020-09-03T08:09:54Z</time>
      </trkpt>
      <trkpt lat="48.72693" lon="7.23085">
        <ele>225</ele>
        <time>2020-09-03T08:09:57Z</time>
      </trkpt>
      <trkpt lat="48.72666" lon="7.23057">
        <ele>227</ele>
        <time>2020-09-03T08:10:02Z</time>
      </trkpt>
      <trkpt lat="48.7264" lon="7.23037">
        <ele>229</ele>
        <time>2020-09-03T08:10:08Z</time>
      </trkpt>
      <trkpt lat="48.72623" lon="7.23027">
        <ele>229</ele>
        <time>2020-09-03T08:10:11Z</time>
      </trkpt>
      <trkpt lat="48.72574" lon="7.2301">
        <ele>229</ele>
        <time>2020-09-03T08:10:20Z</time>
      </trkpt>
      <trkpt lat="48.72318" lon="7.2294">
        <ele>237</ele>
        <time>2020-09-03T08:11:06Z</time>
      </trkpt>
      <trkpt lat="48.72313" lon="7.2294">
        <ele>237</ele>
        <time>2020-09-03T08:11:07Z</time>
      </trkpt>
      <trkpt lat="48.7231" lon="7.22944">
        <ele>236</ele>
        <time>2020-09-03T08:11:08Z</time>
      </trkpt>
      <trkpt lat="48.72298" lon="7.22985">
        <ele>228</ele>
        <time>2020-09-03T08:11:13Z</time>
      </trkpt>
      <trkpt lat="48.72287" lon="7.23008">
        <ele>227</ele>
        <time>2020-09-03T08:11:16Z</time>
      </trkpt>
      <trkpt lat="48.72276" lon="7.23015">
        <ele>228</ele>
        <time>2020-09-03T08:11:18Z</time>
      </trkpt>
      <trkpt lat="48.7227" lon="7.23014">
        <ele>228</ele>
        <time>2020-09-03T08:11:19Z</time>
      </trkpt>
      <trkpt lat="48.72261" lon="7.23007">
        <ele>226</ele>
        <time>2020-09-03T08:11:21Z</time>
      </trkpt>
      <trkpt lat="48.72182" lon="7.2289">
        <ele>228</ele>
        <time>2020-09-03T08:11:41Z</time>
      </trkpt>
      <trkpt lat="48.72166" lon="7.22863">
        <ele>228</ele>
        <time>2020-09-03T08:11:45Z</time>
      </trkpt>
      <trkpt lat="48.72116" lon="7.22752">
        <ele>230</ele>
        <time>2020-09-03T08:12:01Z</time>
      </trkpt>
      <trkpt lat="48.72062" lon="7.22592">
        <ele>238</ele>
        <time>2020-09-03T08:12:22Z</time>
      </trkpt>
      <trkpt lat="48.72054" lon="7.22586">
        <ele>236</ele>
        <time>2020-09-03T08:12:24Z</time>
      </trkpt>
      <trkpt lat="48.72038" lon="7.22592">
        <ele>231</ele>
        <time>2020-09-03T08:12:27Z</time>
      </trkpt>
      <trkpt lat="48.72035" lon="7.22554">
        <ele>234</ele>
        <time>2020-09-03T08:12:31Z</time>
      </trkpt>
      <trkpt lat="48.72025" lon="7.22521">
        <ele>234</ele>
        <time>2020-09-03T08:12:35Z</time>
      </trkpt>
      <trkpt lat="48.72009" lon="7.22445">
        <ele>233</ele>
        <time>2020-09-03T08:12:45Z</time>
      </trkpt>
      <trkpt lat="48.71987" lon="7.22284">
        <ele>231</ele>
        <time>2020-09-03T08:13:04Z</time>
      </trkpt>
      <trkpt lat="48.71977" lon="7.22231">
        <ele>231</ele>
        <time>2020-09-03T08:13:10Z</time>
      </trkpt>
      <trkpt lat="48.71975" lon="7.22173">
        <ele>231</ele>
        <time>2020-09-03T08:13:17Z</time>
      </trkpt>
      <trkpt lat="48.71994" lon="7.21857">
        <ele>230</ele>
        <time>2020-09-03T08:13:55Z</time>
      </trkpt>
      <trkpt lat="48.71995" lon="7.21849">
        <ele>230</ele>
        <time>2020-09-03T08:13:55Z</time>
      </trkpt>
      <trkpt lat="48.72006" lon="7.21827">
        <ele>232</ele>
        <time>2020-09-03T08:13:59Z</time>
      </trkpt>
      <trkpt lat="48.72011" lon="7.21807">
        <ele>234</ele>
        <time>2020-09-03T08:14:01Z</time>
      </trkpt>
      <trkpt lat="48.72016" lon="7.21743">
        <ele>237</ele>
        <time>2020-09-03T08:14:09Z</time>
      </trkpt>
      <trkpt lat="48.72037" lon="7.21619">
        <ele>242</ele>
        <time>2020-09-03T08:14:24Z</time>
      </trkpt>
      <trkpt lat="48.72045" lon="7.21555">
        <ele>244</ele>
        <time>2020-09-03T08:14:31Z</time>
      </trkpt>
      <trkpt lat="48.72052" lon="7.21541">
        <ele>244</ele>
        <time>2020-09-03T08:14:34Z</time>
      </trkpt>
      <trkpt lat="48.72082" lon="7.21502">
        <ele>239</ele>
        <time>2020-09-03T08:14:41Z</time>
      </trkpt>
      <trkpt lat="48.72101" lon="7.21498">
        <ele>244</ele>
        <time>2020-09-03T08:14:44Z</time>
      </trkpt>
      <trkpt lat="48.72139" lon="7.21461">
        <ele>251</ele>
        <time>2020-09-03T08:14:52Z</time>
      </trkpt>
      <trkpt lat="48.72167" lon="7.21367">
        <ele>246</ele>
        <time>2020-09-03T08:15:04Z</time>
      </trkpt>
      <trkpt lat="48.72192" lon="7.21306">
        <ele>248</ele>
        <time>2020-09-03T08:15:13Z</time>
      </trkpt>
      <trkpt lat="48.72206" lon="7.21282">
        <ele>249</ele>
        <time>2020-09-03T08:15:16Z</time>
      </trkpt>
      <trkpt lat="48.72223" lon="7.21261">
        <ele>247</ele>
        <time>2020-09-03T08:15:20Z</time>
      </trkpt>
      <trkpt lat="48.72263" lon="7.212">
        <ele>244</ele>
        <time>2020-09-03T08:15:30Z</time>
      </trkpt>
      <trkpt lat="48.72295" lon="7.21134">
        <ele>246</ele>
        <time>2020-09-03T08:15:40Z</time>
      </trkpt>
      <trkpt lat="48.72312" lon="7.21063">
        <ele>250</ele>
        <time>2020-09-03T08:15:49Z</time>
      </trkpt>
      <trkpt lat="48.72331" lon="7.20839">
        <ele>250</ele>
        <time>2020-09-03T08:16:15Z</time>
      </trkpt>
      <trkpt lat="48.7235" lon="7.20752">
        <ele>251</ele>
        <time>2020-09-03T08:16:26Z</time>
      </trkpt>
      <trkpt lat="48.72366" lon="7.20697">
        <ele>252</ele>
        <time>2020-09-03T08:16:33Z</time>
      </trkpt>
      <trkpt lat="48.72402" lon="7.20606">
        <ele>252</ele>
        <time>2020-09-03T08:16:46Z</time>
      </trkpt>
      <trkpt lat="48.7245" lon="7.20407">
        <ele>259</ele>
        <time>2020-09-03T08:17:10Z</time>
      </trkpt>
      <trkpt lat="48.72455" lon="7.20284">
        <ele>262</ele>
        <time>2020-09-03T08:17:25Z</time>
      </trkpt>
      <trkpt lat="48.72458" lon="7.201">
        <ele>262</ele>
        <time>2020-09-03T08:17:46Z</time>
      </trkpt>
      <trkpt lat="48.72483" lon="7.19874">
        <ele>250</ele>
        <time>2020-09-03T08:18:13Z</time>
      </trkpt>
      <trkpt lat="48.72477" lon="7.19831">
        <ele>250</ele>
        <time>2020-09-03T08:18:19Z</time>
      </trkpt>
      <trkpt lat="48.72464" lon="7.19766">
        <ele>254</ele>
        <time>2020-09-03T08:18:27Z</time>
      </trkpt>
      <trkpt lat="48.72405" lon="7.19542">
        <ele>259</ele>
        <time>2020-09-03T08:18:55Z</time>
      </trkpt>
      <trkpt lat="48.72387" lon="7.19448">
        <ele>263</ele>
        <time>2020-09-03T08:19:06Z</time>
      </trkpt>
      <trkpt lat="48.72382" lon="7.19368">
        <ele>262</ele>
        <time>2020-09-03T08:19:16Z</time>
      </trkpt>
      <trkpt lat="48.72384" lon="7.19198">
        <ele>261</ele>
        <time>2020-09-03T08:19:36Z</time>
      </trkpt>
      <trkpt lat="48.72387" lon="7.19152">
        <ele>261</ele>
        <time>2020-09-03T08:19:41Z</time>
      </trkpt>
      <trkpt lat="48.72394" lon="7.19096">
        <ele>261</ele>
        <time>2020-09-03T08:19:48Z</time>
      </trkpt>
      <trkpt lat="48.72445" lon="7.18806">
        <ele>264</ele>
        <time>2020-09-03T08:20:23Z</time>
      </trkpt>
      <trkpt lat="48.72461" lon="7.18757">
        <ele>262</ele>
        <time>2020-09-03T08:20:29Z</time>
      </trkpt>
      <trkpt lat="48.72472" lon="7.18735">
        <ele>261</ele>
        <time>2020-09-03T08:20:33Z</time>
      </trkpt>
      <trkpt lat="48.72522" lon="7.18658">
        <ele>258</ele>
        <time>2020-09-03T08:20:45Z</time>
      </trkpt>
      <trkpt lat="48.72534" lon="7.18597">
        <ele>259</ele>
        <time>2020-09-03T08:20:53Z</time>
      </trkpt>
      <trkpt lat="48.72538" lon="7.18552">
        <ele>262</ele>
        <time>2020-09-03T08:20:58Z</time>
      </trkpt>
      <trkpt lat="48.72537" lon="7.18542">
        <ele>263</ele>
        <time>2020-09-03T08:20:59Z</time>
      </trkpt>
      <trkpt lat="48.72519" lon="7.18506">
        <ele>261</ele>
        <time>2020-09-03T08:21:05Z</time>
      </trkpt>
      <trkpt lat="48.72503" lon="7.18449">
        <ele>260</ele>
        <time>2020-09-03T08:21:12Z</time>
      </trkpt>
      <trkpt lat="48.72508" lon="7.184">
        <ele>265</ele>
        <time>2020-09-03T08:21:18Z</time>
      </trkpt>
      <trkpt lat="48.72461" lon="7.18215">
        <ele>271</ele>
        <time>2020-09-03T08:21:41Z</time>
      </trkpt>
      <trkpt lat="48.72436" lon="7.18246">
        <ele>264</ele>
        <time>2020-09-03T08:21:47Z</time>
      </trkpt>
      <trkpt lat="48.72424" lon="7.18111">
        <ele>269</ele>
        <time>2020-09-03T08:22:03Z</time>
      </trkpt>
      <trkpt lat="48.72416" lon="7.18075">
        <ele>269</ele>
        <time>2020-09-03T08:22:07Z</time>
      </trkpt>
      <trkpt lat="48.72406" lon="7.18051">
        <ele>272</ele>
        <time>2020-09-03T08:22:11Z</time>
      </trkpt>
      <trkpt lat="48.72342" lon="7.1793">
        <ele>275</ele>
        <time>2020-09-03T08:22:29Z</time>
      </trkpt>
      <trkpt lat="48.72326" lon="7.17878">
        <ele>275</ele>
        <time>2020-09-03T08:22:36Z</time>
      </trkpt>
      <trkpt lat="48.72318" lon="7.17829">
        <ele>276</ele>
        <time>2020-09-03T08:22:41Z</time>
      </trkpt>
      <trkpt lat="48.72313" lon="7.17733">
        <ele>280</ele>
        <time>2020-09-03T08:22:53Z</time>
      </trkpt>
      <trkpt lat="48.72314" lon="7.17712">
        <ele>281</ele>
        <time>2020-09-03T08:22:55Z</time>
      </trkpt>
      <trkpt lat="48.72324" lon="7.17658">
        <ele>282</ele>
        <time>2020-09-03T08:23:02Z</time>
      </trkpt>
      <trkpt lat="48.72323" lon="7.17611">
        <ele>283</ele>
        <time>2020-09-03T08:23:07Z</time>
      </trkpt>
      <trkpt lat="48.72296" lon="7.17267">
        <ele>291</ele>
        <time>2020-09-03T08:23:48Z</time>
      </trkpt>
      <trkpt lat="48.72196" lon="7.16808">
        <ele>288</ele>
        <time>2020-09-03T08:24:45Z</time>
      </trkpt>
      <trkpt lat="48.7213" lon="7.16762">
        <ele>288</ele>
        <time>2020-09-03T08:24:58Z</time>
      </trkpt>
      <trkpt lat="48.72119" lon="7.16749">
        <ele>288</ele>
        <time>2020-09-03T08:25:00Z</time>
      </trkpt>
      <trkpt lat="48.72034" lon="7.16597">
        <ele>293</ele>
        <time>2020-09-03T08:25:24Z</time>
      </trkpt>
      <trkpt lat="48.71953" lon="7.16434">
        <ele>298</ele>
        <time>2020-09-03T08:25:47Z</time>
      </trkpt>
      <trkpt lat="48.71939" lon="7.16431">
        <ele>298</ele>
        <time>2020-09-03T08:25:50Z</time>
      </trkpt>
      <trkpt lat="48.71912" lon="7.16412">
        <ele>298</ele>
        <time>2020-09-03T08:25:55Z</time>
      </trkpt>
      <trkpt lat="48.7186" lon="7.16354">
        <ele>300</ele>
        <time>2020-09-03T08:26:07Z</time>
      </trkpt>
      <trkpt lat="48.7185" lon="7.16346">
        <ele>300</ele>
        <time>2020-09-03T08:26:09Z</time>
      </trkpt>
      <trkpt lat="48.71839" lon="7.16344">
        <ele>300</ele>
        <time>2020-09-03T08:26:11Z</time>
      </trkpt>
      <trkpt lat="48.71833" lon="7.1633">
        <ele>300</ele>
        <time>2020-09-03T08:26:13Z</time>
      </trkpt>
      <trkpt lat="48.71799" lon="7.16304">
        <ele>302</ele>
        <time>2020-09-03T08:26:19Z</time>
      </trkpt>
      <trkpt lat="48.71776" lon="7.16297">
        <ele>303</ele>
        <time>2020-09-03T08:26:24Z</time>
      </trkpt>
      <trkpt lat="48.71791" lon="7.16247">
        <ele>304</ele>
        <time>2020-09-03T08:26:30Z</time>
      </trkpt>
      <trkpt lat="48.71801" lon="7.16187">
        <ele>313</ele>
        <time>2020-09-03T08:26:37Z</time>
      </trkpt>
      <trkpt lat="48.71817" lon="7.16053">
        <ele>325</ele>
        <time>2020-09-03T08:26:53Z</time>
      </trkpt>
      <trkpt lat="48.71802" lon="7.15976">
        <ele>328</ele>
        <time>2020-09-03T08:27:03Z</time>
      </trkpt>
      <trkpt lat="48.71768" lon="7.15983">
        <ele>329</ele>
        <time>2020-09-03T08:27:09Z</time>
      </trkpt>
      <trkpt lat="48.71742" lon="7.15977">
        <ele>330</ele>
        <time>2020-09-03T08:27:14Z</time>
      </trkpt>
      <trkpt lat="48.71685" lon="7.15989">
        <ele>333</ele>
        <time>2020-09-03T08:27:24Z</time>
      </trkpt>
      <trkpt lat="48.71675" lon="7.15988">
        <ele>333</ele>
        <time>2020-09-03T08:27:26Z</time>
      </trkpt>
      <trkpt lat="48.7167" lon="7.15971">
        <ele>333</ele>
        <time>2020-09-03T08:27:28Z</time>
      </trkpt>
      <trkpt lat="48.71667" lon="7.1593">
        <ele>333</ele>
        <time>2020-09-03T08:27:33Z</time>
      </trkpt>
      <trkpt lat="48.71668" lon="7.15797">
        <ele>335</ele>
        <time>2020-09-03T08:27:48Z</time>
      </trkpt>
      <trkpt lat="48.71659" lon="7.15685">
        <ele>336</ele>
        <time>2020-09-03T08:28:01Z</time>
      </trkpt>
      <trkpt lat="48.71669" lon="7.15601">
        <ele>337</ele>
        <time>2020-09-03T08:28:11Z</time>
      </trkpt>
      <trkpt lat="48.71792" lon="7.15305">
        <ele>350</ele>
        <time>2020-09-03T08:28:53Z</time>
      </trkpt>
      <trkpt lat="48.71936" lon="7.15157">
        <ele>346</ele>
        <time>2020-09-03T08:29:24Z</time>
      </trkpt>
      <trkpt lat="48.72116" lon="7.15064">
        <ele>329</ele>
        <time>2020-09-03T08:29:57Z</time>
      </trkpt>
      <trkpt lat="48.72132" lon="7.1516">
        <ele>327</ele>
        <time>2020-09-03T08:30:09Z</time>
      </trkpt>
      <trkpt lat="48.72235" lon="7.15073">
        <ele>319</ele>
        <time>2020-09-03T08:30:30Z</time>
      </trkpt>
      <trkpt lat="48.72504" lon="7.14777">
        <ele>298</ele>
        <time>2020-09-03T08:31:29Z</time>
      </trkpt>
      <trkpt lat="48.72511" lon="7.14625">
        <ele>294</ele>
        <time>2020-09-03T08:31:47Z</time>
      </trkpt>
      <trkpt lat="48.72508" lon="7.14563">
        <ele>292</ele>
        <time>2020-09-03T08:31:54Z</time>
      </trkpt>
      <trkpt lat="48.72414" lon="7.14365">
        <ele>291</ele>
        <time>2020-09-03T08:32:23Z</time>
      </trkpt>
      <trkpt lat="48.72401" lon="7.1433">
        <ele>291</ele>
        <time>2020-09-03T08:32:28Z</time>
      </trkpt>
      <trkpt lat="48.72405" lon="7.14303">
        <ele>291</ele>
        <time>2020-09-03T08:32:31Z</time>
      </trkpt>
      <trkpt lat="48.72443" lon="7.14232">
        <ele>290</ele>
        <time>2020-09-03T08:32:42Z</time>
      </trkpt>
      <trkpt lat="48.72465" lon="7.14181">
        <ele>288</ele>
        <time>2020-09-03T08:32:49Z</time>
      </trkpt>
      <trkpt lat="48.72476" lon="7.14142">
        <ele>287</ele>
        <time>2020-09-03T08:32:54Z</time>
      </trkpt>
      <trkpt lat="48.72479" lon="7.14095">
        <ele>286</ele>
        <time>2020-09-03T08:32:59Z</time>
      </trkpt>
      <trkpt lat="48.72471" lon="7.14036">
        <ele>286</ele>
        <time>2020-09-03T08:33:06Z</time>
      </trkpt>
      <trkpt lat="48.72421" lon="7.13884">
        <ele>287</ele>
        <time>2020-09-03T08:33:26Z</time>
      </trkpt>
      <trkpt lat="48.72382" lon="7.13742">
        <ele>288</ele>
        <time>2020-09-03T08:33:44Z</time>
      </trkpt>
      <trkpt lat="48.72369" lon="7.1368">
        <ele>287</ele>
        <time>2020-09-03T08:33:52Z</time>
      </trkpt>
      <trkpt lat="48.72355" lon="7.13594">
        <ele>287</ele>
        <time>2020-09-03T08:34:02Z</time>
      </trkpt>
      <trkpt lat="48.72356" lon="7.13568">
        <ele>288</ele>
        <time>2020-09-03T08:34:05Z</time>
      </trkpt>
      <trkpt lat="48.72362" lon="7.13535">
        <ele>289</ele>
        <time>2020-09-03T08:34:09Z</time>
      </trkpt>
      <trkpt lat="48.72366" lon="7.13459">
        <ele>290</ele>
        <time>2020-09-03T08:34:18Z</time>
      </trkpt>
      <trkpt lat="48.72357" lon="7.13431">
        <ele>290</ele>
        <time>2020-09-03T08:34:22Z</time>
      </trkpt>
      <trkpt lat="48.72363" lon="7.13375">
        <ele>292</ele>
        <time>2020-09-03T08:34:29Z</time>
      </trkpt>
      <trkpt lat="48.72373" lon="7.13331">
        <ele>293</ele>
        <time>2020-09-03T08:34:34Z</time>
      </trkpt>
      <trkpt lat="48.72374" lon="7.133">
        <ele>295</ele>
        <time>2020-09-03T08:34:38Z</time>
      </trkpt>
      <trkpt lat="48.72372" lon="7.13283">
        <ele>296</ele>
        <time>2020-09-03T08:34:40Z</time>
      </trkpt>
      <trkpt lat="48.72271" lon="7.1306">
        <ele>297</ele>
        <time>2020-09-03T08:35:12Z</time>
      </trkpt>
      <trkpt lat="48.72206" lon="7.12924">
        <ele>291</ele>
        <time>2020-09-03T08:35:31Z</time>
      </trkpt>
      <trkpt lat="48.72168" lon="7.12895">
        <ele>290</ele>
        <time>2020-09-03T08:35:39Z</time>
      </trkpt>
      <trkpt lat="48.72112" lon="7.12895">
        <ele>289</ele>
        <time>2020-09-03T08:35:49Z</time>
      </trkpt>
      <trkpt lat="48.72082" lon="7.12857">
        <ele>289</ele>
        <time>2020-09-03T08:35:56Z</time>
      </trkpt>
      <trkpt lat="48.72068" lon="7.12807">
        <ele>290</ele>
        <time>2020-09-03T08:36:02Z</time>
      </trkpt>
      <trkpt lat="48.72024" lon="7.12514">
        <ele>282</ele>
        <time>2020-09-03T08:36:37Z</time>
      </trkpt>
      <trkpt lat="48.72016" lon="7.12488">
        <ele>281</ele>
        <time>2020-09-03T08:36:41Z</time>
      </trkpt>
      <trkpt lat="48.72002" lon="7.12489">
        <ele>281</ele>
        <time>2020-09-03T08:36:43Z</time>
      </trkpt>
      <trkpt lat="48.71963" lon="7.12526">
        <ele>283</ele>
        <time>2020-09-03T08:36:51Z</time>
      </trkpt>
      <trkpt lat="48.71955" lon="7.12519">
        <ele>283</ele>
        <time>2020-09-03T08:36:53Z</time>
      </trkpt>
      <trkpt lat="48.71933" lon="7.12347">
        <ele>277</ele>
        <time>2020-09-03T08:37:14Z</time>
      </trkpt>
      <trkpt lat="48.71927" lon="7.12204">
        <ele>275</ele>
        <time>2020-09-03T08:37:31Z</time>
      </trkpt>
      <trkpt lat="48.719" lon="7.12012">
        <ele>271</ele>
        <time>2020-09-03T08:37:54Z</time>
      </trkpt>
      <trkpt lat="48.71879" lon="7.1196">
        <ele>271</ele>
        <time>2020-09-03T08:38:01Z</time>
      </trkpt>
      <trkpt lat="48.71843" lon="7.11922">
        <ele>272</ele>
        <time>2020-09-03T08:38:09Z</time>
      </trkpt>
      <trkpt lat="48.71836" lon="7.1189">
        <ele>270</ele>
        <time>2020-09-03T08:38:12Z</time>
      </trkpt>
      <trkpt lat="48.71836" lon="7.1173">
        <ele>266</ele>
        <time>2020-09-03T08:38:31Z</time>
      </trkpt>
      <trkpt lat="48.71828" lon="7.1173">
        <ele>267</ele>
        <time>2020-09-03T08:38:33Z</time>
      </trkpt>
      <trkpt lat="48.71793" lon="7.11711">
        <ele>267</ele>
        <time>2020-09-03T08:38:39Z</time>
      </trkpt>
      <trkpt lat="48.71763" lon="7.11682">
        <ele>267</ele>
        <time>2020-09-03T08:38:46Z</time>
      </trkpt>
      <trkpt lat="48.71628" lon="7.11597">
        <ele>267</ele>
        <time>2020-09-03T08:39:12Z</time>
      </trkpt>
      <trkpt lat="48.71581" lon="7.11524">
        <ele>267</ele>
        <time>2020-09-03T08:39:24Z</time>
      </trkpt>
      <trkpt lat="48.71521" lon="7.11371">
        <ele>270</ele>
        <time>2020-09-03T08:39:45Z</time>
      </trkpt>
      <trkpt lat="48.71502" lon="7.11294">
        <ele>271</ele>
        <time>2020-09-03T08:39:54Z</time>
      </trkpt>
      <trkpt lat="48.715" lon="7.11198">
        <ele>272</ele>
        <time>2020-09-03T08:40:05Z</time>
      </trkpt>
      <trkpt lat="48.71513" lon="7.11152">
        <ele>272</ele>
        <time>2020-09-03T08:40:11Z</time>
      </trkpt>
      <trkpt lat="48.71529" lon="7.11132">
        <ele>271</ele>
        <time>2020-09-03T08:40:15Z</time>
      </trkpt>
      <trkpt lat="48.7154" lon="7.1111">
        <ele>271</ele>
        <time>2020-09-03T08:40:18Z</time>
      </trkpt>
      <trkpt lat="48.71543" lon="7.11093">
        <ele>271</ele>
        <time>2020-09-03T08:40:20Z</time>
      </trkpt>
      <trkpt lat="48.71549" lon="7.10986">
        <ele>269</ele>
        <time>2020-09-03T08:40:33Z</time>
      </trkpt>
      <trkpt lat="48.7156" lon="7.10927">
        <ele>269</ele>
        <time>2020-09-03T08:40:40Z</time>
      </trkpt>
      <trkpt lat="48.71553" lon="7.10847">
        <ele>267</ele>
        <time>2020-09-03T08:40:50Z</time>
      </trkpt>
      <trkpt lat="48.71501" lon="7.10654">
        <ele>265</ele>
        <time>2020-09-03T08:41:14Z</time>
      </trkpt>
      <trkpt lat="48.71424" lon="7.10688">
        <ele>266</ele>
        <time>2020-09-03T08:41:28Z</time>
      </trkpt>
      <trkpt lat="48.71305" lon="7.10765">
        <ele>268</ele>
        <time>2020-09-03T08:41:51Z</time>
      </trkpt>
      <trkpt lat="48.71284" lon="7.10771">
        <ele>268</ele>
        <time>2020-09-03T08:41:55Z</time>
      </trkpt>
      <trkpt lat="48.71264" lon="7.10765">
        <ele>268</ele>
        <time>2020-09-03T08:41:59Z</time>
      </trkpt>
      <trkpt lat="48.7123" lon="7.1076">
        <ele>268</ele>
        <time>2020-09-03T08:42:05Z</time>
      </trkpt>
      <trkpt lat="48.71209" lon="7.1077">
        <ele>268</ele>
        <time>2020-09-03T08:42:09Z</time>
      </trkpt>
      <trkpt lat="48.71197" lon="7.10728">
        <ele>266</ele>
        <time>2020-09-03T08:42:14Z</time>
      </trkpt>
      <trkpt lat="48.71186" lon="7.10702">
        <ele>265</ele>
        <time>2020-09-03T08:42:18Z</time>
      </trkpt>
      <trkpt lat="48.71145" lon="7.10644">
        <ele>263</ele>
        <time>2020-09-03T08:42:28Z</time>
      </trkpt>
      <trkpt lat="48.71054" lon="7.10433">
        <ele>264</ele>
        <time>2020-09-03T08:42:57Z</time>
      </trkpt>
      <trkpt lat="48.71051" lon="7.10414">
        <ele>264</ele>
        <time>2020-09-03T08:43:00Z</time>
      </trkpt>
      <trkpt lat="48.71051" lon="7.10391">
        <ele>264</ele>
        <time>2020-09-03T08:43:02Z</time>
      </trkpt>
      <trkpt lat="48.71058" lon="7.10364">
        <ele>263</ele>
        <time>2020-09-03T08:43:06Z</time>
      </trkpt>
      <trkpt lat="48.71099" lon="7.10253">
        <ele>264</ele>
        <time>2020-09-03T08:43:21Z</time>
      </trkpt>
      <trkpt lat="48.71113" lon="7.10204">
        <ele>265</ele>
        <time>2020-09-03T08:43:27Z</time>
      </trkpt>
      <trkpt lat="48.71116" lon="7.10178">
        <ele>266</ele>
        <time>2020-09-03T08:43:30Z</time>
      </trkpt>
      <trkpt lat="48.71112" lon="7.10147">
        <ele>267</ele>
        <time>2020-09-03T08:43:34Z</time>
      </trkpt>
      <trkpt lat="48.71037" lon="7.09889">
        <ele>273</ele>
        <time>2020-09-03T08:44:07Z</time>
      </trkpt>
      <trkpt lat="48.71027" lon="7.09852">
        <ele>274</ele>
        <time>2020-09-03T08:44:12Z</time>
      </trkpt>
      <trkpt lat="48.71022" lon="7.09823">
        <ele>274</ele>
        <time>2020-09-03T08:44:15Z</time>
      </trkpt>
      <trkpt lat="48.71013" lon="7.09822">
        <ele>274</ele>
        <time>2020-09-03T08:44:17Z</time>
      </trkpt>
      <trkpt lat="48.71006" lon="7.09806">
        <ele>274</ele>
        <time>2020-09-03T08:44:19Z</time>
      </trkpt>
      <trkpt lat="48.71009" lon="7.0979">
        <ele>274</ele>
        <time>2020-09-03T08:44:21Z</time>
      </trkpt>
      <trkpt lat="48.71019" lon="7.09784">
        <ele>274</ele>
        <time>2020-09-03T08:44:23Z</time>
      </trkpt>
      <trkpt lat="48.71018" lon="7.09774">
        <ele>274</ele>
        <time>2020-09-03T08:44:24Z</time>
      </trkpt>
      <trkpt lat="48.7103" lon="7.0972">
        <ele>274</ele>
        <time>2020-09-03T08:44:31Z</time>
      </trkpt>
      <trkpt lat="48.71014" lon="7.09654">
        <ele>272</ele>
        <time>2020-09-03T08:44:39Z</time>
      </trkpt>
      <trkpt lat="48.70984" lon="7.09496">
        <ele>272</ele>
        <time>2020-09-03T08:44:58Z</time>
      </trkpt>
      <trkpt lat="48.70941" lon="7.09379">
        <ele>271</ele>
        <time>2020-09-03T08:45:14Z</time>
      </trkpt>
      <trkpt lat="48.70927" lon="7.09334">
        <ele>270</ele>
        <time>2020-09-03T08:45:20Z</time>
      </trkpt>
      <trkpt lat="48.70899" lon="7.09215">
        <ele>270</ele>
        <time>2020-09-03T08:45:35Z</time>
      </trkpt>
      <trkpt lat="48.70819" lon="7.09039">
        <ele>268</ele>
        <time>2020-09-03T08:46:00Z</time>
      </trkpt>
      <trkpt lat="48.70715" lon="7.08688">
        <ele>266</ele>
        <time>2020-09-03T08:46:45Z</time>
      </trkpt>
      <trkpt lat="48.70636" lon="7.08566">
        <ele>266</ele>
        <time>2020-09-03T08:47:05Z</time>
      </trkpt>
      <trkpt lat="48.70561" lon="7.08354">
        <ele>273</ele>
        <time>2020-09-03T08:47:33Z</time>
      </trkpt>
      <trkpt lat="48.70432" lon="7.08156">
        <ele>280</ele>
        <time>2020-09-03T08:48:06Z</time>
      </trkpt>
      <trkpt lat="48.70415" lon="7.08119">
        <ele>281</ele>
        <time>2020-09-03T08:48:11Z</time>
      </trkpt>
      <trkpt lat="48.70409" lon="7.08033">
        <ele>280</ele>
        <time>2020-09-03T08:48:21Z</time>
      </trkpt>
      <trkpt lat="48.70408" lon="7.07984">
        <ele>280</ele>
        <time>2020-09-03T08:48:27Z</time>
      </trkpt>
      <trkpt lat="48.70409" lon="7.07944">
        <ele>278</ele>
        <time>2020-09-03T08:48:32Z</time>
      </trkpt>
      <trkpt lat="48.70415" lon="7.07934">
        <ele>278</ele>
        <time>2020-09-03T08:48:33Z</time>
      </trkpt>
      <trkpt lat="48.7041" lon="7.07917">
        <ele>277</ele>
        <time>2020-09-03T08:48:36Z</time>
      </trkpt>
      <trkpt lat="48.70415" lon="7.07711">
        <ele>273</ele>
        <time>2020-09-03T08:49:00Z</time>
      </trkpt>
      <trkpt lat="48.70454" lon="7.0771">
        <ele>271</ele>
        <time>2020-09-03T08:49:07Z</time>
      </trkpt>
      <trkpt lat="48.70517" lon="7.0773">
        <ele>269</ele>
        <time>2020-09-03T08:49:18Z</time>
      </trkpt>
      <trkpt lat="48.70588" lon="7.07761">
        <ele>266</ele>
        <time>2020-09-03T08:49:31Z</time>
      </trkpt>
      <trkpt lat="48.70663" lon="7.078">
        <ele>268</ele>
        <time>2020-09-03T08:49:45Z</time>
      </trkpt>
      <trkpt lat="48.70669" lon="7.07798">
        <ele>268</ele>
        <time>2020-09-03T08:49:47Z</time>
      </trkpt>
      <trkpt lat="48.70676" lon="7.07789">
        <ele>267</ele>
        <time>2020-09-03T08:49:48Z</time>
      </trkpt>
      <trkpt lat="48.70678" lon="7.0777">
        <ele>267</ele>
        <time>2020-09-03T08:49:50Z</time>
      </trkpt>
      <trkpt lat="48.70677" lon="7.07693">
        <ele>265</ele>
        <time>2020-09-03T08:49:59Z</time>
      </trkpt>
      <trkpt lat="48.70682" lon="7.07638">
        <ele>264</ele>
        <time>2020-09-03T08:50:06Z</time>
      </trkpt>
      <trkpt lat="48.70707" lon="7.07518">
        <ele>264</ele>
        <time>2020-09-03T08:50:21Z</time>
      </trkpt>
      <trkpt lat="48.7075" lon="7.07347">
        <ele>264</ele>
        <time>2020-09-03T08:50:42Z</time>
      </trkpt>
      <trkpt lat="48.70758" lon="7.07296">
        <ele>265</ele>
        <time>2020-09-03T08:50:48Z</time>
      </trkpt>
      <trkpt lat="48.70754" lon="7.07226">
        <ele>266</ele>
        <time>2020-09-03T08:50:57Z</time>
      </trkpt>
      <trkpt lat="48.70737" lon="7.0717">
        <ele>266</ele>
        <time>2020-09-03T08:51:04Z</time>
      </trkpt>
      <trkpt lat="48.70689" lon="7.0708">
        <ele>265</ele>
        <time>2020-09-03T08:51:17Z</time>
      </trkpt>
      <trkpt lat="48.70672" lon="7.07054">
        <ele>265</ele>
        <time>2020-09-03T08:51:22Z</time>
      </trkpt>
      <trkpt lat="48.70648" lon="7.07033">
        <ele>264</ele>
        <time>2020-09-03T08:51:27Z</time>
      </trkpt>
      <trkpt lat="48.7049" lon="7.06958">
        <ele>264</ele>
        <time>2020-09-03T08:51:56Z</time>
      </trkpt>
      <trkpt lat="48.70425" lon="7.06933">
        <ele>264</ele>
        <time>2020-09-03T08:52:08Z</time>
      </trkpt>
      <trkpt lat="48.704" lon="7.06921">
        <ele>264</ele>
        <time>2020-09-03T08:52:13Z</time>
      </trkpt>
      <trkpt lat="48.70389" lon="7.06908">
        <ele>264</ele>
        <time>2020-09-03T08:52:15Z</time>
      </trkpt>
      <trkpt lat="48.70332" lon="7.06799">
        <ele>263</ele>
        <time>2020-09-03T08:52:32Z</time>
      </trkpt>
      <trkpt lat="48.70261" lon="7.06628">
        <ele>264</ele>
        <time>2020-09-03T08:52:55Z</time>
      </trkpt>
      <trkpt lat="48.70228" lon="7.06481">
        <ele>265</ele>
        <time>2020-09-03T08:53:14Z</time>
      </trkpt>
      <trkpt lat="48.70213" lon="7.06453">
        <ele>265</ele>
        <time>2020-09-03T08:53:18Z</time>
      </trkpt>
      <trkpt lat="48.70195" lon="7.06435">
        <ele>265</ele>
        <time>2020-09-03T08:53:22Z</time>
      </trkpt>
      <trkpt lat="48.70137" lon="7.06433">
        <ele>265</ele>
        <time>2020-09-03T08:53:32Z</time>
      </trkpt>
      <trkpt lat="48.70089" lon="7.06428">
        <ele>263</ele>
        <time>2020-09-03T08:53:40Z</time>
      </trkpt>
      <trkpt lat="48.70041" lon="7.06416">
        <ele>265</ele>
        <time>2020-09-03T08:53:49Z</time>
      </trkpt>
      <trkpt lat="48.69995" lon="7.06395">
        <ele>268</ele>
        <time>2020-09-03T08:53:58Z</time>
      </trkpt>
      <trkpt lat="48.69944" lon="7.06366">
        <ele>270</ele>
        <time>2020-09-03T08:54:07Z</time>
      </trkpt>
      <trkpt lat="48.69914" lon="7.06366">
        <ele>271</ele>
        <time>2020-09-03T08:54:13Z</time>
      </trkpt>
      <trkpt lat="48.69849" lon="7.06405">
        <ele>273</ele>
        <time>2020-09-03T08:54:25Z</time>
      </trkpt>
      <trkpt lat="48.69782" lon="7.06478">
        <ele>275</ele>
        <time>2020-09-03T08:54:40Z</time>
      </trkpt>
      <trkpt lat="48.6974" lon="7.06487">
        <ele>276</ele>
        <time>2020-09-03T08:54:47Z</time>
      </trkpt>
      <trkpt lat="48.69725" lon="7.06481">
        <ele>275</ele>
        <time>2020-09-03T08:54:50Z</time>
      </trkpt>
      <trkpt lat="48.69713" lon="7.06465">
        <ele>274</ele>
        <time>2020-09-03T08:54:53Z</time>
      </trkpt>
      <trkpt lat="48.69688" lon="7.06409">
        <ele>272</ele>
        <time>2020-09-03T08:55:01Z</time>
      </trkpt>
      <trkpt lat="48.69627" lon="7.06215">
        <ele>274</ele>
        <time>2020-09-03T08:55:26Z</time>
      </trkpt>
      <trkpt lat="48.69625" lon="7.06198">
        <ele>274</ele>
        <time>2020-09-03T08:55:28Z</time>
      </trkpt>
      <trkpt lat="48.69627" lon="7.06179">
        <ele>274</ele>
        <time>2020-09-03T08:55:30Z</time>
      </trkpt>
      <trkpt lat="48.69643" lon="7.06121">
        <ele>274</ele>
        <time>2020-09-03T08:55:38Z</time>
      </trkpt>
      <trkpt lat="48.69647" lon="7.06089">
        <ele>274</ele>
        <time>2020-09-03T08:55:42Z</time>
      </trkpt>
      <trkpt lat="48.69646" lon="7.05899">
        <ele>273</ele>
        <time>2020-09-03T08:56:04Z</time>
      </trkpt>
      <trkpt lat="48.69658" lon="7.05823">
        <ele>272</ele>
        <time>2020-09-03T08:56:13Z</time>
      </trkpt>
      <trkpt lat="48.69658" lon="7.05755">
        <ele>271</ele>
        <time>2020-09-03T08:56:21Z</time>
      </trkpt>
      <trkpt lat="48.69646" lon="7.05652">
        <ele>276</ele>
        <time>2020-09-03T08:56:33Z</time>
      </trkpt>
      <trkpt lat="48.69629" lon="7.05559">
        <ele>278</ele>
        <time>2020-09-03T08:56:45Z</time>
      </trkpt>
      <trkpt lat="48.6961" lon="7.05486">
        <ele>279</ele>
        <time>2020-09-03T08:56:54Z</time>
      </trkpt>
      <trkpt lat="48.69588" lon="7.05444">
        <ele>280</ele>
        <time>2020-09-03T08:57:00Z</time>
      </trkpt>
      <trkpt lat="48.69438" lon="7.05203">
        <ele>272</ele>
        <time>2020-09-03T08:57:39Z</time>
      </trkpt>
      <trkpt lat="48.69422" lon="7.05157">
        <ele>270</ele>
        <time>2020-09-03T08:57:45Z</time>
      </trkpt>
      <trkpt lat="48.69394" lon="7.05185">
        <ele>271</ele>
        <time>2020-09-03T08:57:51Z</time>
      </trkpt>
      <trkpt lat="48.69345" lon="7.05086">
        <ele>271</ele>
        <time>2020-09-03T08:58:06Z</time>
      </trkpt>
      <trkpt lat="48.69334" lon="7.05048">
        <ele>270</ele>
        <time>2020-09-03T08:58:11Z</time>
      </trkpt>
      <trkpt lat="48.69328" lon="7.05008">
        <ele>269</ele>
        <time>2020-09-03T08:58:15Z</time>
      </trkpt>
      <trkpt lat="48.69313" lon="7.0484">
        <ele>268</ele>
        <time>2020-09-03T08:58:35Z</time>
      </trkpt>
      <trkpt lat="48.69303" lon="7.04777">
        <ele>268</ele>
        <time>2020-09-03T08:58:43Z</time>
      </trkpt>
      <trkpt lat="48.69283" lon="7.04722">
        <ele>267</ele>
        <time>2020-09-03T08:58:50Z</time>
      </trkpt>
      <trkpt lat="48.69218" lon="7.04598">
        <ele>265</ele>
        <time>2020-09-03T08:59:09Z</time>
      </trkpt>
      <trkpt lat="48.69203" lon="7.04558">
        <ele>265</ele>
        <time>2020-09-03T08:59:14Z</time>
      </trkpt>
      <trkpt lat="48.6917" lon="7.04386">
        <ele>265</ele>
        <time>2020-09-03T08:59:35Z</time>
      </trkpt>
      <trkpt lat="48.69168" lon="7.04317">
        <ele>264</ele>
        <time>2020-09-03T08:59:44Z</time>
      </trkpt>
      <trkpt lat="48.69172" lon="7.04268">
        <ele>265</ele>
        <time>2020-09-03T08:59:49Z</time>
      </trkpt>
      <trkpt lat="48.69195" lon="7.04145">
        <ele>264</ele>
        <time>2020-09-03T09:00:04Z</time>
      </trkpt>
      <trkpt lat="48.69241" lon="7.0397">
        <ele>265</ele>
        <time>2020-09-03T09:00:26Z</time>
      </trkpt>
      <trkpt lat="48.69274" lon="7.03882">
        <ele>267</ele>
        <time>2020-09-03T09:00:38Z</time>
      </trkpt>
      <trkpt lat="48.69398" lon="7.03363">
        <ele>266</ele>
        <time>2020-09-03T09:01:43Z</time>
      </trkpt>
      <trkpt lat="48.69581" lon="7.02736">
        <ele>262</ele>
        <time>2020-09-03T09:03:04Z</time>
      </trkpt>
      <trkpt lat="48.69596" lon="7.02693">
        <ele>262</ele>
        <time>2020-09-03T09:03:09Z</time>
      </trkpt>
      <trkpt lat="48.69613" lon="7.02656">
        <ele>261</ele>
        <time>2020-09-03T09:03:15Z</time>
      </trkpt>
      <trkpt lat="48.69624" lon="7.02639">
        <ele>260</ele>
        <time>2020-09-03T09:03:17Z</time>
      </trkpt>
      <trkpt lat="48.69696" lon="7.02574">
        <ele>256</ele>
        <time>2020-09-03T09:03:32Z</time>
      </trkpt>
      <trkpt lat="48.69722" lon="7.02555">
        <ele>255</ele>
        <time>2020-09-03T09:03:38Z</time>
      </trkpt>
      <trkpt lat="48.69747" lon="7.02541">
        <ele>254</ele>
        <time>2020-09-03T09:03:42Z</time>
      </trkpt>
      <trkpt lat="48.69814" lon="7.02518">
        <ele>254</ele>
        <time>2020-09-03T09:03:55Z</time>
      </trkpt>
      <trkpt lat="48.70038" lon="7.0246">
        <ele>255</ele>
        <time>2020-09-03T09:04:35Z</time>
      </trkpt>
      <trkpt lat="48.70148" lon="7.02428">
        <ele>255</ele>
        <time>2020-09-03T09:04:55Z</time>
      </trkpt>
      <trkpt lat="48.70232" lon="7.02396">
        <ele>254</ele>
        <time>2020-09-03T09:05:10Z</time>
      </trkpt>
      <trkpt lat="48.70216" lon="7.02311">
        <ele>254</ele>
        <time>2020-09-03T09:05:21Z</time>
      </trkpt>
      <trkpt lat="48.70217" lon="7.02285">
        <ele>254</ele>
        <time>2020-09-03T09:05:24Z</time>
      </trkpt>
      <trkpt lat="48.70228" lon="7.02253">
        <ele>255</ele>
        <time>2020-09-03T09:05:28Z</time>
      </trkpt>
      <trkpt lat="48.70268" lon="7.02178">
        <ele>259</ele>
        <time>2020-09-03T09:05:39Z</time>
      </trkpt>
      <trkpt lat="48.70287" lon="7.02101">
        <ele>266</ele>
        <time>2020-09-03T09:05:49Z</time>
      </trkpt>
      <trkpt lat="48.70287" lon="7.02087">
        <ele>267</ele>
        <time>2020-09-03T09:05:51Z</time>
      </trkpt>
      <trkpt lat="48.70277" lon="7.02053">
        <ele>270</ele>
        <time>2020-09-03T09:05:55Z</time>
      </trkpt>
      <trkpt lat="48.70274" lon="7.0202">
        <ele>272</ele>
        <time>2020-09-03T09:05:59Z</time>
      </trkpt>
      <trkpt lat="48.70283" lon="7.01926">
        <ele>275</ele>
        <time>2020-09-03T09:06:10Z</time>
      </trkpt>
      <trkpt lat="48.70272" lon="7.01871">
        <ele>276</ele>
        <time>2020-09-03T09:06:17Z</time>
      </trkpt>
      <trkpt lat="48.70273" lon="7.01827">
        <ele>275</ele>
        <time>2020-09-03T09:06:22Z</time>
      </trkpt>
      <trkpt lat="48.70254" lon="7.01718">
        <ele>275</ele>
        <time>2020-09-03T09:06:35Z</time>
      </trkpt>
      <trkpt lat="48.70236" lon="7.01671">
        <ele>274</ele>
        <time>2020-09-03T09:06:42Z</time>
      </trkpt>
      <trkpt lat="48.7021" lon="7.0162">
        <ele>268</ele>
        <time>2020-09-03T09:06:49Z</time>
      </trkpt>
      <trkpt lat="48.70181" lon="7.01584">
        <ele>267</ele>
        <time>2020-09-03T09:06:56Z</time>
      </trkpt>
      <trkpt lat="48.70164" lon="7.01568">
        <ele>266</ele>
        <time>2020-09-03T09:06:59Z</time>
      </trkpt>
      <trkpt lat="48.69953" lon="7.01426">
        <ele>268</ele>
        <time>2020-09-03T09:07:40Z</time>
      </trkpt>
      <trkpt lat="48.69923" lon="7.01402">
        <ele>269</ele>
        <time>2020-09-03T09:07:46Z</time>
      </trkpt>
      <trkpt lat="48.69905" lon="7.01383">
        <ele>269</ele>
        <time>2020-09-03T09:07:50Z</time>
      </trkpt>
      <trkpt lat="48.69874" lon="7.01341">
        <ele>268</ele>
        <time>2020-09-03T09:07:58Z</time>
      </trkpt>
      <trkpt lat="48.6984" lon="7.01277">
        <ele>267</ele>
        <time>2020-09-03T09:08:07Z</time>
      </trkpt>
      <trkpt lat="48.69819" lon="7.0121">
        <ele>267</ele>
        <time>2020-09-03T09:08:16Z</time>
      </trkpt>
      <trkpt lat="48.69812" lon="7.0118">
        <ele>267</ele>
        <time>2020-09-03T09:08:20Z</time>
      </trkpt>
      <trkpt lat="48.69801" lon="7.01088">
        <ele>268</ele>
        <time>2020-09-03T09:08:31Z</time>
      </trkpt>
      <trkpt lat="48.69809" lon="7.0086">
        <ele>270</ele>
        <time>2020-09-03T09:08:58Z</time>
      </trkpt>
      <trkpt lat="48.6982" lon="7.00767">
        <ele>270</ele>
        <time>2020-09-03T09:09:09Z</time>
      </trkpt>
      <trkpt lat="48.69869" lon="7.00424">
        <ele>266</ele>
        <time>2020-09-03T09:09:50Z</time>
      </trkpt>
      <trkpt lat="48.69872" lon="7.00374">
        <ele>266</ele>
        <time>2020-09-03T09:09:56Z</time>
      </trkpt>
      <trkpt lat="48.6987" lon="7.00327">
        <ele>266</ele>
        <time>2020-09-03T09:10:01Z</time>
      </trkpt>
      <trkpt lat="48.69866" lon="7.00288">
        <ele>266</ele>
        <time>2020-09-03T09:10:06Z</time>
      </trkpt>
      <trkpt lat="48.69855" lon="7.00239">
        <ele>266</ele>
        <time>2020-09-03T09:10:12Z</time>
      </trkpt>
      <trkpt lat="48.6984" lon="7.00192">
        <ele>265</ele>
        <time>2020-09-03T09:10:18Z</time>
      </trkpt>
      <trkpt lat="48.69763" lon="7.00009">
        <ele>268</ele>
        <time>2020-09-03T09:10:44Z</time>
      </trkpt>
      <trkpt lat="48.69752" lon="6.99964">
        <ele>269</ele>
        <time>2020-09-03T09:10:49Z</time>
      </trkpt>
      <trkpt lat="48.69705" lon="6.99852">
        <ele>272</ele>
        <time>2020-09-03T09:11:05Z</time>
      </trkpt>
      <trkpt lat="48.69703" lon="6.99839">
        <ele>272</ele>
        <time>2020-09-03T09:11:07Z</time>
      </trkpt>
      <trkpt lat="48.69727" lon="6.99802">
        <ele>270</ele>
        <time>2020-09-03T09:11:13Z</time>
      </trkpt>
      <trkpt lat="48.69715" lon="6.99746">
        <ele>269</ele>
        <time>2020-09-03T09:11:20Z</time>
      </trkpt>
      <trkpt lat="48.69685" lon="6.99681">
        <ele>268</ele>
        <time>2020-09-03T09:11:29Z</time>
      </trkpt>
      <trkpt lat="48.69681" lon="6.99667">
        <ele>268</ele>
        <time>2020-09-03T09:11:31Z</time>
      </trkpt>
      <trkpt lat="48.69683" lon="6.99634">
        <ele>266</ele>
        <time>2020-09-03T09:11:35Z</time>
      </trkpt>
      <trkpt lat="48.69686" lon="6.99614">
        <ele>265</ele>
        <time>2020-09-03T09:11:37Z</time>
      </trkpt>
      <trkpt lat="48.69701" lon="6.99581">
        <ele>262</ele>
        <time>2020-09-03T09:11:42Z</time>
      </trkpt>
      <trkpt lat="48.69719" lon="6.99551">
        <ele>260</ele>
        <time>2020-09-03T09:11:46Z</time>
      </trkpt>
      <trkpt lat="48.69726" lon="6.99544">
        <ele>260</ele>
        <time>2020-09-03T09:11:48Z</time>
      </trkpt>
      <trkpt lat="48.69735" lon="6.9954">
        <ele>259</ele>
        <time>2020-09-03T09:11:50Z</time>
      </trkpt>
      <trkpt lat="48.69744" lon="6.99541">
        <ele>259</ele>
        <time>2020-09-03T09:11:51Z</time>
      </trkpt>
      <trkpt lat="48.69753" lon="6.99546">
        <ele>260</ele>
        <time>2020-09-03T09:11:53Z</time>
      </trkpt>
      <trkpt lat="48.69772" lon="6.99566">
        <ele>261</ele>
        <time>2020-09-03T09:11:57Z</time>
      </trkpt>
      <trkpt lat="48.69779" lon="6.9957">
        <ele>261</ele>
        <time>2020-09-03T09:11:58Z</time>
      </trkpt>
      <trkpt lat="48.69785" lon="6.99572">
        <ele>261</ele>
        <time>2020-09-03T09:11:59Z</time>
      </trkpt>
      <trkpt lat="48.69797" lon="6.99571">
        <ele>260</ele>
        <time>2020-09-03T09:12:02Z</time>
      </trkpt>
      <trkpt lat="48.69875" lon="6.9949">
        <ele>256</ele>
        <time>2020-09-03T09:12:18Z</time>
      </trkpt>
      <trkpt lat="48.69889" lon="6.99464">
        <ele>256</ele>
        <time>2020-09-03T09:12:22Z</time>
      </trkpt>
      <trkpt lat="48.69927" lon="6.99366">
        <ele>256</ele>
        <time>2020-09-03T09:12:36Z</time>
      </trkpt>
      <trkpt lat="48.69936" lon="6.99352">
        <ele>256</ele>
        <time>2020-09-03T09:12:38Z</time>
      </trkpt>
      <trkpt lat="48.69963" lon="6.99325">
        <ele>257</ele>
        <time>2020-09-03T09:12:44Z</time>
      </trkpt>
      <trkpt lat="48.69955" lon="6.99294">
        <ele>259</ele>
        <time>2020-09-03T09:12:48Z</time>
      </trkpt>
      <trkpt lat="48.69917" lon="6.99245">
        <ele>259</ele>
        <time>2020-09-03T09:12:57Z</time>
      </trkpt>
      <trkpt lat="48.69872" lon="6.99202">
        <ele>262</ele>
        <time>2020-09-03T09:13:06Z</time>
      </trkpt>
      <trkpt lat="48.69824" lon="6.9913">
        <ele>265</ele>
        <time>2020-09-03T09:13:18Z</time>
      </trkpt>
      <trkpt lat="48.69795" lon="6.99065">
        <ele>266</ele>
        <time>2020-09-03T09:13:27Z</time>
      </trkpt>
      <trkpt lat="48.69762" lon="6.99004">
        <ele>265</ele>
        <time>2020-09-03T09:13:36Z</time>
      </trkpt>
      <trkpt lat="48.69734" lon="6.98964">
        <ele>263</ele>
        <time>2020-09-03T09:13:43Z</time>
      </trkpt>
      <trkpt lat="48.69696" lon="6.98921">
        <ele>260</ele>
        <time>2020-09-03T09:13:52Z</time>
      </trkpt>
      <trkpt lat="48.69675" lon="6.98883">
        <ele>259</ele>
        <time>2020-09-03T09:13:58Z</time>
      </trkpt>
      <trkpt lat="48.69657" lon="6.9884">
        <ele>258</ele>
        <time>2020-09-03T09:14:04Z</time>
      </trkpt>
      <trkpt lat="48.69638" lon="6.98806">
        <ele>257</ele>
        <time>2020-09-03T09:14:09Z</time>
      </trkpt>
      <trkpt lat="48.69595" lon="6.9874">
        <ele>255</ele>
        <time>2020-09-03T09:14:20Z</time>
      </trkpt>
      <trkpt lat="48.69574" lon="6.98691">
        <ele>254</ele>
        <time>2020-09-03T09:14:27Z</time>
      </trkpt>
      <trkpt lat="48.69554" lon="6.98626">
        <ele>255</ele>
        <time>2020-09-03T09:14:35Z</time>
      </trkpt>
      <trkpt lat="48.69541" lon="6.98544">
        <ele>257</ele>
        <time>2020-09-03T09:14:45Z</time>
      </trkpt>
      <trkpt lat="48.69535" lon="6.9846">
        <ele>256</ele>
        <time>2020-09-03T09:14:55Z</time>
      </trkpt>
      <trkpt lat="48.69543" lon="6.98399">
        <ele>256</ele>
        <time>2020-09-03T09:15:02Z</time>
      </trkpt>
      <trkpt lat="48.69554" lon="6.98351">
        <ele>256</ele>
        <time>2020-09-03T09:15:08Z</time>
      </trkpt>
      <trkpt lat="48.69554" lon="6.98311">
        <ele>256</ele>
        <time>2020-09-03T09:15:13Z</time>
      </trkpt>
      <trkpt lat="48.69522" lon="6.98189">
        <ele>260</ele>
        <time>2020-09-03T09:15:28Z</time>
      </trkpt>
      <trkpt lat="48.69506" lon="6.98154">
        <ele>262</ele>
        <time>2020-09-03T09:15:33Z</time>
      </trkpt>
      <trkpt lat="48.6948" lon="6.98113">
        <ele>266</ele>
        <time>2020-09-03T09:15:40Z</time>
      </trkpt>
      <trkpt lat="48.69456" lon="6.98063">
        <ele>269</ele>
        <time>2020-09-03T09:15:47Z</time>
      </trkpt>
      <trkpt lat="48.69438" lon="6.98012">
        <ele>270</ele>
        <time>2020-09-03T09:15:54Z</time>
      </trkpt>
      <trkpt lat="48.69433" lon="6.97969">
        <ele>269</ele>
        <time>2020-09-03T09:15:59Z</time>
      </trkpt>
      <trkpt lat="48.69417" lon="6.97648">
        <ele>267</ele>
        <time>2020-09-03T09:16:37Z</time>
      </trkpt>
      <trkpt lat="48.69419" lon="6.97576">
        <ele>264</ele>
        <time>2020-09-03T09:16:45Z</time>
      </trkpt>
      <trkpt lat="48.69447" lon="6.97475">
        <ele>264</ele>
        <time>2020-09-03T09:16:58Z</time>
      </trkpt>
      <trkpt lat="48.69476" lon="6.9723">
        <ele>266</ele>
        <time>2020-09-03T09:17:27Z</time>
      </trkpt>
      <trkpt lat="48.69498" lon="6.97185">
        <ele>268</ele>
        <time>2020-09-03T09:17:34Z</time>
      </trkpt>
      <trkpt lat="48.69525" lon="6.97138">
        <ele>269</ele>
        <time>2020-09-03T09:17:41Z</time>
      </trkpt>
      <trkpt lat="48.69535" lon="6.97089">
        <ele>269</ele>
        <time>2020-09-03T09:17:47Z</time>
      </trkpt>
      <trkpt lat="48.69541" lon="6.97043">
        <ele>269</ele>
        <time>2020-09-03T09:17:53Z</time>
      </trkpt>
      <trkpt lat="48.69551" lon="6.97029">
        <ele>269</ele>
        <time>2020-09-03T09:17:55Z</time>
      </trkpt>
      <trkpt lat="48.69527" lon="6.96938">
        <ele>266</ele>
        <time>2020-09-03T09:18:07Z</time>
      </trkpt>
      <trkpt lat="48.69508" lon="6.96798">
        <ele>268</ele>
        <time>2020-09-03T09:18:24Z</time>
      </trkpt>
      <trkpt lat="48.69497" lon="6.96766">
        <ele>269</ele>
        <time>2020-09-03T09:18:28Z</time>
      </trkpt>
      <trkpt lat="48.69479" lon="6.96749">
        <ele>270</ele>
        <time>2020-09-03T09:18:32Z</time>
      </trkpt>
      <trkpt lat="48.69438" lon="6.96724">
        <ele>272</ele>
        <time>2020-09-03T09:18:39Z</time>
      </trkpt>
      <trkpt lat="48.69385" lon="6.96698">
        <ele>271</ele>
        <time>2020-09-03T09:18:49Z</time>
      </trkpt>
      <trkpt lat="48.69361" lon="6.96675">
        <ele>270</ele>
        <time>2020-09-03T09:18:54Z</time>
      </trkpt>
      <trkpt lat="48.69339" lon="6.96647">
        <ele>270</ele>
        <time>2020-09-03T09:18:59Z</time>
      </trkpt>
      <trkpt lat="48.69302" lon="6.96571">
        <ele>270</ele>
        <time>2020-09-03T09:19:11Z</time>
      </trkpt>
      <trkpt lat="48.69276" lon="6.96491">
        <ele>271</ele>
        <time>2020-09-03T09:19:21Z</time>
      </trkpt>
      <trkpt lat="48.69245" lon="6.96356">
        <ele>268</ele>
        <time>2020-09-03T09:19:38Z</time>
      </trkpt>
      <trkpt lat="48.69231" lon="6.96333">
        <ele>267</ele>
        <time>2020-09-03T09:19:42Z</time>
      </trkpt>
      <trkpt lat="48.69194" lon="6.963">
        <ele>267</ele>
        <time>2020-09-03T09:19:49Z</time>
      </trkpt>
      <trkpt lat="48.69154" lon="6.96278">
        <ele>266</ele>
        <time>2020-09-03T09:19:57Z</time>
      </trkpt>
      <trkpt lat="48.69156" lon="6.96253">
        <ele>266</ele>
        <time>2020-09-03T09:20:00Z</time>
      </trkpt>
      <trkpt lat="48.69155" lon="6.96207">
        <ele>267</ele>
        <time>2020-09-03T09:20:05Z</time>
      </trkpt>
      <trkpt lat="48.69144" lon="6.96158">
        <ele>267</ele>
        <time>2020-09-03T09:20:11Z</time>
      </trkpt>
      <trkpt lat="48.69129" lon="6.96126">
        <ele>267</ele>
        <time>2020-09-03T09:20:16Z</time>
      </trkpt>
      <trkpt lat="48.69068" lon="6.96036">
        <ele>265</ele>
        <time>2020-09-03T09:20:31Z</time>
      </trkpt>
      <trkpt lat="48.69055" lon="6.9601">
        <ele>265</ele>
        <time>2020-09-03T09:20:35Z</time>
      </trkpt>
      <trkpt lat="48.69002" lon="6.95851">
        <ele>264</ele>
        <time>2020-09-03T09:20:56Z</time>
      </trkpt>
      <trkpt lat="48.68931" lon="6.95681">
        <ele>265</ele>
        <time>2020-09-03T09:21:19Z</time>
      </trkpt>
      <trkpt lat="48.68885" lon="6.95551">
        <ele>265</ele>
        <time>2020-09-03T09:21:37Z</time>
      </trkpt>
      <trkpt lat="48.68855" lon="6.95496">
        <ele>265</ele>
        <time>2020-09-03T09:21:45Z</time>
      </trkpt>
      <trkpt lat="48.68807" lon="6.95439">
        <ele>265</ele>
        <time>2020-09-03T09:21:56Z</time>
      </trkpt>
      <trkpt lat="48.68783" lon="6.954">
        <ele>265</ele>
        <time>2020-09-03T09:22:02Z</time>
      </trkpt>
      <trkpt lat="48.68771" lon="6.95373">
        <ele>266</ele>
        <time>2020-09-03T09:22:06Z</time>
      </trkpt>
      <trkpt lat="48.68733" lon="6.95247">
        <ele>268</ele>
        <time>2020-09-03T09:22:22Z</time>
      </trkpt>
      <trkpt lat="48.68722" lon="6.9522">
        <ele>269</ele>
        <time>2020-09-03T09:22:26Z</time>
      </trkpt>
      <trkpt lat="48.6868" lon="6.95151">
        <ele>268</ele>
        <time>2020-09-03T09:22:37Z</time>
      </trkpt>
      <trkpt lat="48.6864" lon="6.95077">
        <ele>266</ele>
        <time>2020-09-03T09:22:48Z</time>
      </trkpt>
      <trkpt lat="48.68635" lon="6.95079">
        <ele>266</ele>
        <time>2020-09-03T09:22:49Z</time>
      </trkpt>
      <trkpt lat="48.68617" lon="6.95071">
        <ele>264</ele>
        <time>2020-09-03T09:22:52Z</time>
      </trkpt>
      <trkpt lat="48.6861" lon="6.95072">
        <ele>264</ele>
        <time>2020-09-03T09:22:54Z</time>
      </trkpt>
      <trkpt lat="48.68583" lon="6.95096">
        <ele>262</ele>
        <time>2020-09-03T09:22:59Z</time>
      </trkpt>
      <trkpt lat="48.68584" lon="6.95109">
        <ele>262</ele>
        <time>2020-09-03T09:23:01Z</time>
      </trkpt>
      <trkpt lat="48.68606" lon="6.95199">
        <ele>264</ele>
        <time>2020-09-03T09:23:12Z</time>
      </trkpt>
      <trkpt lat="48.68604" lon="6.95213">
        <ele>264</ele>
        <time>2020-09-03T09:23:14Z</time>
      </trkpt>
      <trkpt lat="48.68597" lon="6.95228">
        <ele>263</ele>
        <time>2020-09-03T09:23:16Z</time>
      </trkpt>
      <trkpt lat="48.68591" lon="6.95235">
        <ele>263</ele>
        <time>2020-09-03T09:23:17Z</time>
      </trkpt>
      <trkpt lat="48.68549" lon="6.95268">
        <ele>264</ele>
        <time>2020-09-03T09:23:26Z</time>
      </trkpt>
      <trkpt lat="48.68531" lon="6.95287">
        <ele>264</ele>
        <time>2020-09-03T09:23:30Z</time>
      </trkpt>
      <trkpt lat="48.68502" lon="6.95304">
        <ele>265</ele>
        <time>2020-09-03T09:23:35Z</time>
      </trkpt>
      <trkpt lat="48.6849" lon="6.95307">
        <ele>266</ele>
        <time>2020-09-03T09:23:37Z</time>
      </trkpt>
      <trkpt lat="48.68182" lon="6.94923">
        <ele>263</ele>
        <time>2020-09-03T09:24:48Z</time>
      </trkpt>
      <trkpt lat="48.68159" lon="6.94882">
        <ele>265</ele>
        <time>2020-09-03T09:24:55Z</time>
      </trkpt>
      <trkpt lat="48.68129" lon="6.948">
        <ele>265</ele>
        <time>2020-09-03T09:25:06Z</time>
      </trkpt>
      <trkpt lat="48.6812" lon="6.94764">
        <ele>265</ele>
        <time>2020-09-03T09:25:10Z</time>
      </trkpt>
      <trkpt lat="48.68108" lon="6.94676">
        <ele>264</ele>
        <time>2020-09-03T09:25:21Z</time>
      </trkpt>
      <trkpt lat="48.68108" lon="6.94614">
        <ele>265</ele>
        <time>2020-09-03T09:25:28Z</time>
      </trkpt>
      <trkpt lat="48.6818" lon="6.93719">
        <ele>266</ele>
        <time>2020-09-03T09:27:14Z</time>
      </trkpt>
      <trkpt lat="48.68186" lon="6.93665">
        <ele>265</ele>
        <time>2020-09-03T09:27:20Z</time>
      </trkpt>
      <trkpt lat="48.68195" lon="6.93614">
        <ele>264</ele>
        <time>2020-09-03T09:27:27Z</time>
      </trkpt>
      <trkpt lat="48.68211" lon="6.93561">
        <ele>264</ele>
        <time>2020-09-03T09:27:33Z</time>
      </trkpt>
      <trkpt lat="48.68233" lon="6.93505">
        <ele>265</ele>
        <time>2020-09-03T09:27:41Z</time>
      </trkpt>
      <trkpt lat="48.68252" lon="6.9347">
        <ele>266</ele>
        <time>2020-09-03T09:27:46Z</time>
      </trkpt>
      <trkpt lat="48.68273" lon="6.93441">
        <ele>266</ele>
        <time>2020-09-03T09:27:51Z</time>
      </trkpt>
      <trkpt lat="48.68299" lon="6.9341">
        <ele>266</ele>
        <time>2020-09-03T09:27:57Z</time>
      </trkpt>
      <trkpt lat="48.68355" lon="6.93354">
        <ele>264</ele>
        <time>2020-09-03T09:28:09Z</time>
      </trkpt>
      <trkpt lat="48.68389" lon="6.93312">
        <ele>264</ele>
        <time>2020-09-03T09:28:17Z</time>
      </trkpt>
      <trkpt lat="48.6839" lon="6.933">
        <ele>265</ele>
        <time>2020-09-03T09:28:18Z</time>
      </trkpt>
      <trkpt lat="48.6837" lon="6.93263">
        <ele>266</ele>
        <time>2020-09-03T09:28:24Z</time>
      </trkpt>
      <trkpt lat="48.68421" lon="6.93203">
        <ele>266</ele>
        <time>2020-09-03T09:28:36Z</time>
      </trkpt>
      <trkpt lat="48.68438" lon="6.93194">
        <ele>266</ele>
        <time>2020-09-03T09:28:39Z</time>
      </trkpt>
      <trkpt lat="48.68623" lon="6.9296">
        <ele>266</ele>
        <time>2020-09-03T09:29:22Z</time>
      </trkpt>
      <trkpt lat="48.68726" lon="6.92823">
        <ele>265</ele>
        <time>2020-09-03T09:29:46Z</time>
      </trkpt>
      <trkpt lat="48.68741" lon="6.92792">
        <ele>265</ele>
        <time>2020-09-03T09:29:51Z</time>
      </trkpt>
      <trkpt lat="48.6873" lon="6.92785">
        <ele>266</ele>
        <time>2020-09-03T09:29:53Z</time>
      </trkpt>
      <trkpt lat="48.68713" lon="6.92796">
        <ele>266</ele>
        <time>2020-09-03T09:29:56Z</time>
      </trkpt>
      <trkpt lat="48.68703" lon="6.92796">
        <ele>267</ele>
        <time>2020-09-03T09:29:58Z</time>
      </trkpt>
      <trkpt lat="48.6869" lon="6.92777">
        <ele>268</ele>
        <time>2020-09-03T09:30:01Z</time>
      </trkpt>
      <trkpt lat="48.68685" lon="6.92774">
        <ele>268</ele>
        <time>2020-09-03T09:30:02Z</time>
      </trkpt>
      <trkpt lat="48.6869" lon="6.92749">
        <ele>269</ele>
        <time>2020-09-03T09:30:05Z</time>
      </trkpt>
      <trkpt lat="48.68681" lon="6.92745">
        <ele>269</ele>
        <time>2020-09-03T09:30:07Z</time>
      </trkpt>
      <trkpt lat="48.68684" lon="6.9274">
        <ele>269</ele>
        <time>2020-09-03T09:30:07Z</time>
      </trkpt>
      <trkpt lat="48.68689" lon="6.92739">
        <ele>269</ele>
        <time>2020-09-03T09:30:08Z</time>
      </trkpt>
      <trkpt lat="48.6872" lon="6.92746">
        <ele>267</ele>
        <time>2020-09-03T09:30:14Z</time>
      </trkpt>
      <trkpt lat="48.6874" lon="6.92746">
        <ele>266</ele>
        <time>2020-09-03T09:30:18Z</time>
      </trkpt>
      <trkpt lat="48.68751" lon="6.92742">
        <ele>265</ele>
        <time>2020-09-03T09:30:20Z</time>
      </trkpt>
      <trkpt lat="48.68757" lon="6.9273">
        <ele>264</ele>
        <time>2020-09-03T09:30:21Z</time>
      </trkpt>
      <trkpt lat="48.68831" lon="6.92485">
        <ele>263</ele>
        <time>2020-09-03T09:30:53Z</time>
      </trkpt>
      <trkpt lat="48.68867" lon="6.92348">
        <ele>265</ele>
        <time>2020-09-03T09:31:10Z</time>
      </trkpt>
      <trkpt lat="48.69184" lon="6.9175">
        <ele>265</ele>
        <time>2020-09-03T09:32:40Z</time>
      </trkpt>
      <trkpt lat="48.6941" lon="6.91332">
        <ele>266</ele>
        <time>2020-09-03T09:33:44Z</time>
      </trkpt>
      <trkpt lat="48.69476" lon="6.91203">
        <ele>266</ele>
        <time>2020-09-03T09:34:03Z</time>
      </trkpt>
      <trkpt lat="48.69518" lon="6.91152">
        <ele>266</ele>
        <time>2020-09-03T09:34:13Z</time>
      </trkpt>
      <trkpt lat="48.69563" lon="6.91116">
        <ele>266</ele>
        <time>2020-09-03T09:34:22Z</time>
      </trkpt>
      <trkpt lat="48.69615" lon="6.91089">
        <ele>265</ele>
        <time>2020-09-03T09:34:31Z</time>
      </trkpt>
      <trkpt lat="48.69933" lon="6.9095">
        <ele>268</ele>
        <time>2020-09-03T09:35:30Z</time>
      </trkpt>
      <trkpt lat="48.6996" lon="6.90935">
        <ele>268</ele>
        <time>2020-09-03T09:35:35Z</time>
      </trkpt>
      <trkpt lat="48.6999" lon="6.9091">
        <ele>268</ele>
        <time>2020-09-03T09:35:41Z</time>
      </trkpt>
      <trkpt lat="48.7003" lon="6.90861">
        <ele>268</ele>
        <time>2020-09-03T09:35:51Z</time>
      </trkpt>
      <trkpt lat="48.70059" lon="6.90809">
        <ele>267</ele>
        <time>2020-09-03T09:35:59Z</time>
      </trkpt>
      <trkpt lat="48.70232" lon="6.90533">
        <ele>268</ele>
        <time>2020-09-03T09:36:43Z</time>
      </trkpt>
      <trkpt lat="48.70279" lon="6.90454">
        <ele>268</ele>
        <time>2020-09-03T09:36:56Z</time>
      </trkpt>
      <trkpt lat="48.70326" lon="6.90367">
        <ele>266</ele>
        <time>2020-09-03T09:37:09Z</time>
      </trkpt>
      <trkpt lat="48.7036" lon="6.90278">
        <ele>267</ele>
        <time>2020-09-03T09:37:21Z</time>
      </trkpt>
      <trkpt lat="48.70368" lon="6.90249">
        <ele>267</ele>
        <time>2020-09-03T09:37:25Z</time>
      </trkpt>
      <trkpt lat="48.7038" lon="6.9017">
        <ele>264</ele>
        <time>2020-09-03T09:37:34Z</time>
      </trkpt>
      <trkpt lat="48.70573" lon="6.89202">
        <ele>262</ele>
        <time>2020-09-03T09:39:33Z</time>
      </trkpt>
      <trkpt lat="48.7062" lon="6.89001">
        <ele>262</ele>
        <time>2020-09-03T09:39:58Z</time>
      </trkpt>
      <trkpt lat="48.70635" lon="6.88915">
        <ele>263</ele>
        <time>2020-09-03T09:40:09Z</time>
      </trkpt>
      <trkpt lat="48.70647" lon="6.88897">
        <ele>263</ele>
        <time>2020-09-03T09:40:12Z</time>
      </trkpt>
      <trkpt lat="48.70666" lon="6.88798">
        <ele>265</ele>
        <time>2020-09-03T09:40:24Z</time>
      </trkpt>
      <trkpt lat="48.70678" lon="6.88666">
        <ele>268</ele>
        <time>2020-09-03T09:40:39Z</time>
      </trkpt>
      <trkpt lat="48.70677" lon="6.88534">
        <ele>269</ele>
        <time>2020-09-03T09:40:55Z</time>
      </trkpt>
      <trkpt lat="48.70681" lon="6.88382">
        <ele>268</ele>
        <time>2020-09-03T09:41:13Z</time>
      </trkpt>
      <trkpt lat="48.70678" lon="6.88317">
        <ele>267</ele>
        <time>2020-09-03T09:41:20Z</time>
      </trkpt>
      <trkpt lat="48.70664" lon="6.88229">
        <ele>267</ele>
        <time>2020-09-03T09:41:31Z</time>
      </trkpt>
      <trkpt lat="48.70656" lon="6.88197">
        <ele>267</ele>
        <time>2020-09-03T09:41:35Z</time>
      </trkpt>
      <trkpt lat="48.70648" lon="6.88173">
        <ele>267</ele>
        <time>2020-09-03T09:41:38Z</time>
      </trkpt>
      <trkpt lat="48.70631" lon="6.88142">
        <ele>268</ele>
        <time>2020-09-03T09:41:43Z</time>
      </trkpt>
      <trkpt lat="48.70622" lon="6.88136">
        <ele>269</ele>
        <time>2020-09-03T09:41:45Z</time>
      </trkpt>
      <trkpt lat="48.70602" lon="6.88115">
        <ele>270</ele>
        <time>2020-09-03T09:41:49Z</time>
      </trkpt>
      <trkpt lat="48.70594" lon="6.88097">
        <ele>270</ele>
        <time>2020-09-03T09:41:51Z</time>
      </trkpt>
      <trkpt lat="48.70589" lon="6.88073">
        <ele>270</ele>
        <time>2020-09-03T09:41:54Z</time>
      </trkpt>
      <trkpt lat="48.70591" lon="6.88057">
        <ele>270</ele>
        <time>2020-09-03T09:41:56Z</time>
      </trkpt>
      <trkpt lat="48.70604" lon="6.88011">
        <ele>269</ele>
        <time>2020-09-03T09:42:02Z</time>
      </trkpt>
      <trkpt lat="48.70609" lon="6.8796">
        <ele>268</ele>
        <time>2020-09-03T09:42:08Z</time>
      </trkpt>
      <trkpt lat="48.70601" lon="6.87907">
        <ele>269</ele>
        <time>2020-09-03T09:42:15Z</time>
      </trkpt>
      <trkpt lat="48.70586" lon="6.87814">
        <ele>268</ele>
        <time>2020-09-03T09:42:26Z</time>
      </trkpt>
      <trkpt lat="48.70528" lon="6.87517">
        <ele>269</ele>
        <time>2020-09-03T09:43:02Z</time>
      </trkpt>
      <trkpt lat="48.70505" lon="6.87378">
        <ele>268</ele>
        <time>2020-09-03T09:43:19Z</time>
      </trkpt>
      <trkpt lat="48.70416" lon="6.86948">
        <ele>269</ele>
        <time>2020-09-03T09:44:12Z</time>
      </trkpt>
      <trkpt lat="48.70407" lon="6.86919">
        <ele>268</ele>
        <time>2020-09-03T09:44:16Z</time>
      </trkpt>
      <trkpt lat="48.70385" lon="6.86866">
        <ele>269</ele>
        <time>2020-09-03T09:44:23Z</time>
      </trkpt>
      <trkpt lat="48.70365" lon="6.8683">
        <ele>271</ele>
        <time>2020-09-03T09:44:29Z</time>
      </trkpt>
      <trkpt lat="48.70287" lon="6.86711">
        <ele>270</ele>
        <time>2020-09-03T09:44:48Z</time>
      </trkpt>
      <trkpt lat="48.70258" lon="6.86678">
        <ele>270</ele>
        <time>2020-09-03T09:44:55Z</time>
      </trkpt>
      <trkpt lat="48.70209" lon="6.8663">
        <ele>272</ele>
        <time>2020-09-03T09:45:05Z</time>
      </trkpt>
      <trkpt lat="48.70083" lon="6.86525">
        <ele>277</ele>
        <time>2020-09-03T09:45:31Z</time>
      </trkpt>
      <trkpt lat="48.6989" lon="6.86389">
        <ele>277</ele>
        <time>2020-09-03T09:46:09Z</time>
      </trkpt>
      <trkpt lat="48.69811" lon="6.86327">
        <ele>276</ele>
        <time>2020-09-03T09:46:24Z</time>
      </trkpt>
      <trkpt lat="48.69771" lon="6.8628">
        <ele>277</ele>
        <time>2020-09-03T09:46:33Z</time>
      </trkpt>
      <trkpt lat="48.69763" lon="6.86265">
        <ele>277</ele>
        <time>2020-09-03T09:46:36Z</time>
      </trkpt>
      <trkpt lat="48.69739" lon="6.86204">
        <ele>276</ele>
        <time>2020-09-03T09:46:44Z</time>
      </trkpt>
      <trkpt lat="48.69732" lon="6.86171">
        <ele>276</ele>
        <time>2020-09-03T09:46:48Z</time>
      </trkpt>
      <trkpt lat="48.69704" lon="6.85974">
        <ele>278</ele>
        <time>2020-09-03T09:47:12Z</time>
      </trkpt>
      <trkpt lat="48.69688" lon="6.85787">
        <ele>273</ele>
        <time>2020-09-03T09:47:34Z</time>
      </trkpt>
      <trkpt lat="48.69632" lon="6.85623">
        <ele>276</ele>
        <time>2020-09-03T09:47:56Z</time>
      </trkpt>
      <trkpt lat="48.69618" lon="6.85557">
        <ele>277</ele>
        <time>2020-09-03T09:48:04Z</time>
      </trkpt>
      <trkpt lat="48.69484" lon="6.85097">
        <ele>281</ele>
        <time>2020-09-03T09:49:03Z</time>
      </trkpt>
      <trkpt lat="48.69432" lon="6.84923">
        <ele>270</ele>
        <time>2020-09-03T09:49:25Z</time>
      </trkpt>
      <trkpt lat="48.69418" lon="6.8489">
        <ele>268</ele>
        <time>2020-09-03T09:49:30Z</time>
      </trkpt>
      <trkpt lat="48.69391" lon="6.84852">
        <ele>267</ele>
        <time>2020-09-03T09:49:36Z</time>
      </trkpt>
      <trkpt lat="48.69297" lon="6.84694">
        <ele>261</ele>
        <time>2020-09-03T09:50:01Z</time>
      </trkpt>
      <trkpt lat="48.69245" lon="6.84596">
        <ele>260</ele>
        <time>2020-09-03T09:50:16Z</time>
      </trkpt>
      <trkpt lat="48.69229" lon="6.84558">
        <ele>259</ele>
        <time>2020-09-03T09:50:21Z</time>
      </trkpt>
      <trkpt lat="48.69219" lon="6.84551">
        <ele>258</ele>
        <time>2020-09-03T09:50:23Z</time>
      </trkpt>
      <trkpt lat="48.69238" lon="6.8461">
        <ele>259</ele>
        <time>2020-09-03T09:50:31Z</time>
      </trkpt>
      <trkpt lat="48.69269" lon="6.84682">
        <ele>260</ele>
        <time>2020-09-03T09:50:41Z</time>
      </trkpt>
      <trkpt lat="48.69271" lon="6.84698">
        <ele>260</ele>
        <time>2020-09-03T09:50:43Z</time>
      </trkpt>
      <trkpt lat="48.69268" lon="6.84713">
        <ele>260</ele>
        <time>2020-09-03T09:50:45Z</time>
      </trkpt>
      <trkpt lat="48.69262" lon="6.8473">
        <ele>260</ele>
        <time>2020-09-03T09:50:47Z</time>
      </trkpt>
      <trkpt lat="48.69246" lon="6.84761">
        <ele>261</ele>
        <time>2020-09-03T09:50:52Z</time>
      </trkpt>
      <trkpt lat="48.69094" lon="6.84984">
        <ele>267</ele>
        <time>2020-09-03T09:51:30Z</time>
      </trkpt>
      <trkpt lat="48.69066" lon="6.85032">
        <ele>269</ele>
        <time>2020-09-03T09:51:37Z</time>
      </trkpt>
      <trkpt lat="48.69047" lon="6.85155">
        <ele>271</ele>
        <time>2020-09-03T09:51:52Z</time>
      </trkpt>
      <trkpt lat="48.69013" lon="6.85444">
        <ele>276</ele>
        <time>2020-09-03T09:52:26Z</time>
      </trkpt>
      <trkpt lat="48.69005" lon="6.85477">
        <ele>278</ele>
        <time>2020-09-03T09:52:30Z</time>
      </trkpt>
      <trkpt lat="48.6896" lon="6.85567">
        <ele>283</ele>
        <time>2020-09-03T09:52:44Z</time>
      </trkpt>
      <trkpt lat="48.68956" lon="6.8558">
        <ele>284</ele>
        <time>2020-09-03T09:52:45Z</time>
      </trkpt>
      <trkpt lat="48.68945" lon="6.85574">
        <ele>284</ele>
        <time>2020-09-03T09:52:48Z</time>
      </trkpt>
      <trkpt lat="48.68923" lon="6.85568">
        <ele>283</ele>
        <time>2020-09-03T09:52:51Z</time>
      </trkpt>
      <trkpt lat="48.6891" lon="6.85569">
        <ele>283</ele>
        <time>2020-09-03T09:52:54Z</time>
      </trkpt>
      <trkpt lat="48.68934" lon="6.8557">
        <ele>283</ele>
        <time>2020-09-03T09:52:58Z</time>
      </trkpt>
      <trkpt lat="48.68945" lon="6.85574">
        <ele>284</ele>
        <time>2020-09-03T09:53:00Z</time>
      </trkpt>
      <trkpt lat="48.68907" lon="6.8544">
        <ele>280</ele>
        <time>2020-09-03T09:53:17Z</time>
      </trkpt>
      <trkpt lat="48.68864" lon="6.85309">
        <ele>279</ele>
        <time>2020-09-03T09:53:34Z</time>
      </trkpt>
      <trkpt lat="48.68824" lon="6.85219">
        <ele>279</ele>
        <time>2020-09-03T09:53:47Z</time>
      </trkpt>
      <trkpt lat="48.68754" lon="6.85019">
        <ele>281</ele>
        <time>2020-09-03T09:54:14Z</time>
      </trkpt>
      <trkpt lat="48.68688" lon="6.84815">
        <ele>275</ele>
        <time>2020-09-03T09:54:40Z</time>
      </trkpt>
      <trkpt lat="48.68669" lon="6.84792">
        <ele>274</ele>
        <time>2020-09-03T09:54:45Z</time>
      </trkpt>
      <trkpt lat="48.68673" lon="6.84778">
        <ele>273</ele>
        <time>2020-09-03T09:54:47Z</time>
      </trkpt>
      <trkpt lat="48.68457" lon="6.84032">
        <ele>258</ele>
        <time>2020-09-03T09:56:22Z</time>
      </trkpt>
      <trkpt lat="48.68242" lon="6.83748">
        <ele>254</ele>
        <time>2020-09-03T09:57:13Z</time>
      </trkpt>
      <trkpt lat="48.67783" lon="6.82993">
        <ele>258</ele>
        <time>2020-09-03T09:59:14Z</time>
      </trkpt>
      <trkpt lat="48.68079" lon="6.82481">
        <ele>249</ele>
        <time>2020-09-03T10:00:34Z</time>
      </trkpt>
      <trkpt lat="48.68012" lon="6.82286">
        <ele>249</ele>
        <time>2020-09-03T10:00:59Z</time>
      </trkpt>
      <trkpt lat="48.67996" lon="6.82219">
        <ele>249</ele>
        <time>2020-09-03T10:01:08Z</time>
      </trkpt>
      <trkpt lat="48.67988" lon="6.8208">
        <ele>250</ele>
        <time>2020-09-03T10:01:24Z</time>
      </trkpt>
      <trkpt lat="48.67996" lon="6.81993">
        <ele>249</ele>
        <time>2020-09-03T10:01:34Z</time>
      </trkpt>
      <trkpt lat="48.68011" lon="6.81922">
        <ele>247</ele>
        <time>2020-09-03T10:01:43Z</time>
      </trkpt>
      <trkpt lat="48.68048" lon="6.81798">
        <ele>247</ele>
        <time>2020-09-03T10:01:59Z</time>
      </trkpt>
      <trkpt lat="48.68048" lon="6.81788">
        <ele>247</ele>
        <time>2020-09-03T10:02:00Z</time>
      </trkpt>
      <trkpt lat="48.6804" lon="6.81775">
        <ele>247</ele>
        <time>2020-09-03T10:02:02Z</time>
      </trkpt>
      <trkpt lat="48.68048" lon="6.81766">
        <ele>247</ele>
        <time>2020-09-03T10:02:04Z</time>
      </trkpt>
      <trkpt lat="48.68053" lon="6.81747">
        <ele>246</ele>
        <time>2020-09-03T10:02:07Z</time>
      </trkpt>
      <trkpt lat="48.68072" lon="6.8163">
        <ele>246</ele>
        <time>2020-09-03T10:02:21Z</time>
      </trkpt>
      <trkpt lat="48.68094" lon="6.81542">
        <ele>247</ele>
        <time>2020-09-03T10:02:32Z</time>
      </trkpt>
      <trkpt lat="48.68125" lon="6.81439">
        <ele>249</ele>
        <time>2020-09-03T10:02:45Z</time>
      </trkpt>
      <trkpt lat="48.68136" lon="6.81372">
        <ele>249</ele>
        <time>2020-09-03T10:02:53Z</time>
      </trkpt>
      <trkpt lat="48.6814" lon="6.81309">
        <ele>248</ele>
        <time>2020-09-03T10:03:01Z</time>
      </trkpt>
      <trkpt lat="48.6814" lon="6.81231">
        <ele>248</ele>
        <time>2020-09-03T10:03:10Z</time>
      </trkpt>
      <trkpt lat="48.68133" lon="6.8117">
        <ele>248</ele>
        <time>2020-09-03T10:03:17Z</time>
      </trkpt>
      <trkpt lat="48.68123" lon="6.81129">
        <ele>248</ele>
        <time>2020-09-03T10:03:22Z</time>
      </trkpt>
      <trkpt lat="48.68106" lon="6.81075">
        <ele>247</ele>
        <time>2020-09-03T10:03:29Z</time>
      </trkpt>
      <trkpt lat="48.67999" lon="6.80804">
        <ele>245</ele>
        <time>2020-09-03T10:04:06Z</time>
      </trkpt>
      <trkpt lat="48.67899" lon="6.80578">
        <ele>244</ele>
        <time>2020-09-03T10:04:38Z</time>
      </trkpt>
      <trkpt lat="48.67759" lon="6.80227">
        <ele>242</ele>
        <time>2020-09-03T10:05:26Z</time>
      </trkpt>
      <trkpt lat="48.67725" lon="6.80137">
        <ele>243</ele>
        <time>2020-09-03T10:05:39Z</time>
      </trkpt>
      <trkpt lat="48.677" lon="6.80053">
        <ele>242</ele>
        <time>2020-09-03T10:05:49Z</time>
      </trkpt>
      <trkpt lat="48.67609" lon="6.79551">
        <ele>243</ele>
        <time>2020-09-03T10:06:51Z</time>
      </trkpt>
      <trkpt lat="48.67598" lon="6.79424">
        <ele>242</ele>
        <time>2020-09-03T10:07:06Z</time>
      </trkpt>
      <trkpt lat="48.67595" lon="6.79321">
        <ele>242</ele>
        <time>2020-09-03T10:07:18Z</time>
      </trkpt>
      <trkpt lat="48.67603" lon="6.79245">
        <ele>240</ele>
        <time>2020-09-03T10:07:27Z</time>
      </trkpt>
      <trkpt lat="48.67614" lon="6.79196">
        <ele>240</ele>
        <time>2020-09-03T10:07:33Z</time>
      </trkpt>
      <trkpt lat="48.67638" lon="6.79127">
        <ele>241</ele>
        <time>2020-09-03T10:07:42Z</time>
      </trkpt>
      <trkpt lat="48.67656" lon="6.79089">
        <ele>241</ele>
        <time>2020-09-03T10:07:48Z</time>
      </trkpt>
      <trkpt lat="48.67685" lon="6.79048">
        <ele>242</ele>
        <time>2020-09-03T10:07:55Z</time>
      </trkpt>
      <trkpt lat="48.67742" lon="6.78986">
        <ele>243</ele>
        <time>2020-09-03T10:08:07Z</time>
      </trkpt>
      <trkpt lat="48.67786" lon="6.78964">
        <ele>242</ele>
        <time>2020-09-03T10:08:15Z</time>
      </trkpt>
      <trkpt lat="48.67855" lon="6.78936">
        <ele>241</ele>
        <time>2020-09-03T10:08:28Z</time>
      </trkpt>
      <trkpt lat="48.68012" lon="6.78824">
        <ele>239</ele>
        <time>2020-09-03T10:08:59Z</time>
      </trkpt>
      <trkpt lat="48.68024" lon="6.78652">
        <ele>239</ele>
        <time>2020-09-03T10:09:19Z</time>
      </trkpt>
      <trkpt lat="48.68035" lon="6.78206">
        <ele>239</ele>
        <time>2020-09-03T10:10:12Z</time>
      </trkpt>
      <trkpt lat="48.68171" lon="6.78009">
        <ele>240</ele>
        <time>2020-09-03T10:10:45Z</time>
      </trkpt>
      <trkpt lat="48.68392" lon="6.77923">
        <ele>244</ele>
        <time>2020-09-03T10:11:26Z</time>
      </trkpt>
      <trkpt lat="48.68529" lon="6.77576">
        <ele>238</ele>
        <time>2020-09-03T10:12:13Z</time>
      </trkpt>
      <trkpt lat="48.68688" lon="6.77036">
        <ele>239</ele>
        <time>2020-09-03T10:13:23Z</time>
      </trkpt>
      <trkpt lat="48.68812" lon="6.76435">
        <ele>237</ele>
        <time>2020-09-03T10:14:37Z</time>
      </trkpt>
      <trkpt lat="48.68982" lon="6.76143">
        <ele>234</ele>
        <time>2020-09-03T10:15:22Z</time>
      </trkpt>
      <trkpt lat="48.69101" lon="6.7592">
        <ele>236</ele>
        <time>2020-09-03T10:15:56Z</time>
      </trkpt>
      <trkpt lat="48.69107" lon="6.75577">
        <ele>237</ele>
        <time>2020-09-03T10:16:36Z</time>
      </trkpt>
      <trkpt lat="48.69067" lon="6.75207">
        <ele>236</ele>
        <time>2020-09-03T10:17:20Z</time>
      </trkpt>
      <trkpt lat="48.69124" lon="6.74744">
        <ele>236</ele>
        <time>2020-09-03T10:18:16Z</time>
      </trkpt>
      <trkpt lat="48.69232" lon="6.74607">
        <ele>237</ele>
        <time>2020-09-03T10:18:41Z</time>
      </trkpt>
      <trkpt lat="48.69328" lon="6.74581">
        <ele>237</ele>
        <time>2020-09-03T10:18:58Z</time>
      </trkpt>
      <trkpt lat="48.69521" lon="6.74564">
        <ele>237</ele>
        <time>2020-09-03T10:19:33Z</time>
      </trkpt>
      <trkpt lat="48.69651" lon="6.74315">
        <ele>237</ele>
        <time>2020-09-03T10:20:10Z</time>
      </trkpt>
      <trkpt lat="48.69776" lon="6.73963">
        <ele>235</ele>
        <time>2020-09-03T10:20:57Z</time>
      </trkpt>
      <trkpt lat="48.69781" lon="6.73662">
        <ele>235</ele>
        <time>2020-09-03T10:21:32Z</time>
      </trkpt>
      <trkpt lat="48.6973" lon="6.73353">
        <ele>236</ele>
        <time>2020-09-03T10:22:10Z</time>
      </trkpt>
      <trkpt lat="48.6956" lon="6.72993">
        <ele>234</ele>
        <time>2020-09-03T10:23:02Z</time>
      </trkpt>
      <trkpt lat="48.69572" lon="6.72753">
        <ele>235</ele>
        <time>2020-09-03T10:23:30Z</time>
      </trkpt>
      <trkpt lat="48.69515" lon="6.72538">
        <ele>234</ele>
        <time>2020-09-03T10:23:57Z</time>
      </trkpt>
      <trkpt lat="48.69254" lon="6.72306">
        <ele>232</ele>
        <time>2020-09-03T10:24:51Z</time>
      </trkpt>
      <trkpt lat="48.69113" lon="6.72143">
        <ele>234</ele>
        <time>2020-09-03T10:25:22Z</time>
      </trkpt>
      <trkpt lat="48.6909" lon="6.71851">
        <ele>235</ele>
        <time>2020-09-03T10:25:57Z</time>
      </trkpt>
      <trkpt lat="48.69022" lon="6.715">
        <ele>233</ele>
        <time>2020-09-03T10:26:40Z</time>
      </trkpt>
      <trkpt lat="48.6903" lon="6.71011">
        <ele>234</ele>
        <time>2020-09-03T10:27:37Z</time>
      </trkpt>
      <trkpt lat="48.69042" lon="6.70835">
        <ele>233</ele>
        <time>2020-09-03T10:27:58Z</time>
      </trkpt>
      <trkpt lat="48.69025" lon="6.70472">
        <ele>233</ele>
        <time>2020-09-03T10:28:41Z</time>
      </trkpt>
      <trkpt lat="48.69022" lon="6.70125">
        <ele>234</ele>
        <time>2020-09-03T10:29:22Z</time>
      </trkpt>
      <trkpt lat="48.69017" lon="6.70072">
        <ele>234</ele>
        <time>2020-09-03T10:29:28Z</time>
      </trkpt>
      <trkpt lat="48.68969" lon="6.69773">
        <ele>233</ele>
        <time>2020-09-03T10:30:04Z</time>
      </trkpt>
      <trkpt lat="48.68959" lon="6.6968">
        <ele>233</ele>
        <time>2020-09-03T10:30:15Z</time>
      </trkpt>
      <trkpt lat="48.68963" lon="6.69601">
        <ele>233</ele>
        <time>2020-09-03T10:30:24Z</time>
      </trkpt>
      <trkpt lat="48.68984" lon="6.69406">
        <ele>233</ele>
        <time>2020-09-03T10:30:48Z</time>
      </trkpt>
      <trkpt lat="48.68987" lon="6.69337">
        <ele>233</ele>
        <time>2020-09-03T10:30:56Z</time>
      </trkpt>
      <trkpt lat="48.68982" lon="6.69251">
        <ele>233</ele>
        <time>2020-09-03T10:31:06Z</time>
      </trkpt>
      <trkpt lat="48.68974" lon="6.69198">
        <ele>233</ele>
        <time>2020-09-03T10:31:12Z</time>
      </trkpt>
      <trkpt lat="48.68951" lon="6.69105">
        <ele>234</ele>
        <time>2020-09-03T10:31:24Z</time>
      </trkpt>
      <trkpt lat="48.6892" lon="6.69025">
        <ele>235</ele>
        <time>2020-09-03T10:31:35Z</time>
      </trkpt>
      <trkpt lat="48.68883" lon="6.68944">
        <ele>235</ele>
        <time>2020-09-03T10:31:46Z</time>
      </trkpt>
      <trkpt lat="48.68867" lon="6.68903">
        <ele>234</ele>
        <time>2020-09-03T10:31:52Z</time>
      </trkpt>
      <trkpt lat="48.68849" lon="6.68839">
        <ele>233</ele>
        <time>2020-09-03T10:32:00Z</time>
      </trkpt>
      <trkpt lat="48.6884" lon="6.68782">
        <ele>233</ele>
        <time>2020-09-03T10:32:07Z</time>
      </trkpt>
      <trkpt lat="48.68843" lon="6.68711">
        <ele>233</ele>
        <time>2020-09-03T10:32:15Z</time>
      </trkpt>
      <trkpt lat="48.68856" lon="6.68645">
        <ele>231</ele>
        <time>2020-09-03T10:32:24Z</time>
      </trkpt>
      <trkpt lat="48.68879" lon="6.68587">
        <ele>230</ele>
        <time>2020-09-03T10:32:32Z</time>
      </trkpt>
      <trkpt lat="48.68915" lon="6.68531">
        <ele>230</ele>
        <time>2020-09-03T10:32:41Z</time>
      </trkpt>
      <trkpt lat="48.68919" lon="6.68517">
        <ele>230</ele>
        <time>2020-09-03T10:32:43Z</time>
      </trkpt>
      <trkpt lat="48.68921" lon="6.68506">
        <ele>230</ele>
        <time>2020-09-03T10:32:44Z</time>
      </trkpt>
      <trkpt lat="48.68914" lon="6.6848">
        <ele>230</ele>
        <time>2020-09-03T10:32:47Z</time>
      </trkpt>
      <trkpt lat="48.68919" lon="6.68451">
        <ele>229</ele>
        <time>2020-09-03T10:32:51Z</time>
      </trkpt>
      <trkpt lat="48.68947" lon="6.68377">
        <ele>229</ele>
        <time>2020-09-03T10:33:01Z</time>
      </trkpt>
      <trkpt lat="48.68945" lon="6.68376">
        <ele>229</ele>
        <time>2020-09-03T10:33:01Z</time>
      </trkpt>
      <trkpt lat="48.68953" lon="6.68136">
        <ele>229</ele>
        <time>2020-09-03T10:33:29Z</time>
      </trkpt>
      <trkpt lat="48.69024" lon="6.67875">
        <ele>231</ele>
        <time>2020-09-03T10:34:02Z</time>
      </trkpt>
      <trkpt lat="48.69015" lon="6.67755">
        <ele>231</ele>
        <time>2020-09-03T10:34:17Z</time>
      </trkpt>
      <trkpt lat="48.68958" lon="6.67592">
        <ele>231</ele>
        <time>2020-09-03T10:34:38Z</time>
      </trkpt>
      <trkpt lat="48.68929" lon="6.67459">
        <ele>230</ele>
        <time>2020-09-03T10:34:55Z</time>
      </trkpt>
      <trkpt lat="48.68934" lon="6.67291">
        <ele>231</ele>
        <time>2020-09-03T10:35:14Z</time>
      </trkpt>
      <trkpt lat="48.68914" lon="6.66918">
        <ele>231</ele>
        <time>2020-09-03T10:35:58Z</time>
      </trkpt>
      <trkpt lat="48.68846" lon="6.66742">
        <ele>229</ele>
        <time>2020-09-03T10:36:22Z</time>
      </trkpt>
      <trkpt lat="48.68811" lon="6.66544">
        <ele>230</ele>
        <time>2020-09-03T10:36:46Z</time>
      </trkpt>
      <trkpt lat="48.68842" lon="6.66333">
        <ele>228</ele>
        <time>2020-09-03T10:37:12Z</time>
      </trkpt>
      <trkpt lat="48.68862" lon="6.6617">
        <ele>227</ele>
        <time>2020-09-03T10:37:31Z</time>
      </trkpt>
      <trkpt lat="48.6882" lon="6.6605">
        <ele>228</ele>
        <time>2020-09-03T10:37:47Z</time>
      </trkpt>
      <trkpt lat="48.68769" lon="6.65917">
        <ele>228</ele>
        <time>2020-09-03T10:38:05Z</time>
      </trkpt>
      <trkpt lat="48.68757" lon="6.65728">
        <ele>228</ele>
        <time>2020-09-03T10:38:28Z</time>
      </trkpt>
      <trkpt lat="48.68674" lon="6.65558">
        <ele>228</ele>
        <time>2020-09-03T10:38:53Z</time>
      </trkpt>
      <trkpt lat="48.68509" lon="6.65368">
        <ele>227</ele>
        <time>2020-09-03T10:39:29Z</time>
      </trkpt>
      <trkpt lat="48.68438" lon="6.65237">
        <ele>227</ele>
        <time>2020-09-03T10:39:49Z</time>
      </trkpt>
      <trkpt lat="48.68411" lon="6.65106">
        <ele>228</ele>
        <time>2020-09-03T10:40:05Z</time>
      </trkpt>
      <trkpt lat="48.68419" lon="6.64947">
        <ele>228</ele>
        <time>2020-09-03T10:40:24Z</time>
      </trkpt>
      <trkpt lat="48.68493" lon="6.64643">
        <ele>229</ele>
        <time>2020-09-03T10:41:02Z</time>
      </trkpt>
      <trkpt lat="48.68502" lon="6.64552">
        <ele>229</ele>
        <time>2020-09-03T10:41:13Z</time>
      </trkpt>
      <trkpt lat="48.68476" lon="6.64467">
        <ele>229</ele>
        <time>2020-09-03T10:41:24Z</time>
      </trkpt>
      <trkpt lat="48.68388" lon="6.64338">
        <ele>229</ele>
        <time>2020-09-03T10:41:46Z</time>
      </trkpt>
      <trkpt lat="48.68326" lon="6.64196">
        <ele>228</ele>
        <time>2020-09-03T10:42:06Z</time>
      </trkpt>
      <trkpt lat="48.68317" lon="6.64059">
        <ele>226</ele>
        <time>2020-09-03T10:42:22Z</time>
      </trkpt>
      <trkpt lat="48.68343" lon="6.63913">
        <ele>227</ele>
        <time>2020-09-03T10:42:40Z</time>
      </trkpt>
      <trkpt lat="48.68383" lon="6.63763">
        <ele>228</ele>
        <time>2020-09-03T10:42:59Z</time>
      </trkpt>
      <trkpt lat="48.6838" lon="6.63643">
        <ele>228</ele>
        <time>2020-09-03T10:43:13Z</time>
      </trkpt>
      <trkpt lat="48.68323" lon="6.63488">
        <ele>227</ele>
        <time>2020-09-03T10:43:34Z</time>
      </trkpt>
      <trkpt lat="48.68255" lon="6.63347">
        <ele>228</ele>
        <time>2020-09-03T10:43:54Z</time>
      </trkpt>
      <trkpt lat="48.68221" lon="6.63235">
        <ele>227</ele>
        <time>2020-09-03T10:44:09Z</time>
      </trkpt>
      <trkpt lat="48.68206" lon="6.63085">
        <ele>227</ele>
        <time>2020-09-03T10:44:27Z</time>
      </trkpt>
      <trkpt lat="48.68206" lon="6.62992">
        <ele>227</ele>
        <time>2020-09-03T10:44:37Z</time>
      </trkpt>
      <trkpt lat="48.68214" lon="6.62874">
        <ele>227</ele>
        <time>2020-09-03T10:44:51Z</time>
      </trkpt>
      <trkpt lat="48.68222" lon="6.62827">
        <ele>228</ele>
        <time>2020-09-03T10:44:57Z</time>
      </trkpt>
      <trkpt lat="48.68246" lon="6.62743">
        <ele>228</ele>
        <time>2020-09-03T10:45:08Z</time>
      </trkpt>
      <trkpt lat="48.68274" lon="6.62683">
        <ele>228</ele>
        <time>2020-09-03T10:45:16Z</time>
      </trkpt>
      <trkpt lat="48.68313" lon="6.62621">
        <ele>227</ele>
        <time>2020-09-03T10:45:27Z</time>
      </trkpt>
      <trkpt lat="48.68317" lon="6.62597">
        <ele>227</ele>
        <time>2020-09-03T10:45:29Z</time>
      </trkpt>
      <trkpt lat="48.6835" lon="6.62507">
        <ele>224</ele>
        <time>2020-09-03T10:45:42Z</time>
      </trkpt>
      <trkpt lat="48.68361" lon="6.62423">
        <ele>224</ele>
        <time>2020-09-03T10:45:52Z</time>
      </trkpt>
      <trkpt lat="48.68342" lon="6.61837">
        <ele>226</ele>
        <time>2020-09-03T10:47:00Z</time>
      </trkpt>
      <trkpt lat="48.68326" lon="6.61718">
        <ele>225</ele>
        <time>2020-09-03T10:47:15Z</time>
      </trkpt>
      <trkpt lat="48.68281" lon="6.61574">
        <ele>226</ele>
        <time>2020-09-03T10:47:33Z</time>
      </trkpt>
      <trkpt lat="48.68202" lon="6.61401">
        <ele>224</ele>
        <time>2020-09-03T10:47:58Z</time>
      </trkpt>
      <trkpt lat="48.68151" lon="6.61317">
        <ele>225</ele>
        <time>2020-09-03T10:48:12Z</time>
      </trkpt>
      <trkpt lat="48.68022" lon="6.61142">
        <ele>225</ele>
        <time>2020-09-03T10:48:42Z</time>
      </trkpt>
      <trkpt lat="48.67987" lon="6.61064">
        <ele>224</ele>
        <time>2020-09-03T10:48:53Z</time>
      </trkpt>
      <trkpt lat="48.6797" lon="6.60997">
        <ele>225</ele>
        <time>2020-09-03T10:49:02Z</time>
      </trkpt>
      <trkpt lat="48.67962" lon="6.60921">
        <ele>225</ele>
        <time>2020-09-03T10:49:11Z</time>
      </trkpt>
      <trkpt lat="48.67964" lon="6.60667">
        <ele>227</ele>
        <time>2020-09-03T10:49:41Z</time>
      </trkpt>
      <trkpt lat="48.67952" lon="6.60532">
        <ele>227</ele>
        <time>2020-09-03T10:49:57Z</time>
      </trkpt>
      <trkpt lat="48.67947" lon="6.60542">
        <ele>227</ele>
        <time>2020-09-03T10:49:58Z</time>
      </trkpt>
      <trkpt lat="48.67947" lon="6.60553">
        <ele>227</ele>
        <time>2020-09-03T10:50:00Z</time>
      </trkpt>
      <trkpt lat="48.67947" lon="6.60542">
        <ele>227</ele>
        <time>2020-09-03T10:50:01Z</time>
      </trkpt>
      <trkpt lat="48.67952" lon="6.60532">
        <ele>227</ele>
        <time>2020-09-03T10:50:02Z</time>
      </trkpt>
      <trkpt lat="48.67929" lon="6.59985">
        <ele>223</ele>
        <time>2020-09-03T10:51:07Z</time>
      </trkpt>
      <trkpt lat="48.67958" lon="6.59688">
        <ele>226</ele>
        <time>2020-09-03T10:51:42Z</time>
      </trkpt>
      <trkpt lat="48.67959" lon="6.59539">
        <ele>225</ele>
        <time>2020-09-03T10:52:00Z</time>
      </trkpt>
      <trkpt lat="48.67948" lon="6.59433">
        <ele>226</ele>
        <time>2020-09-03T10:52:12Z</time>
      </trkpt>
      <trkpt lat="48.67925" lon="6.59327">
        <ele>225</ele>
        <time>2020-09-03T10:52:25Z</time>
      </trkpt>
      <trkpt lat="48.67892" lon="6.59239">
        <ele>227</ele>
        <time>2020-09-03T10:52:37Z</time>
      </trkpt>
      <trkpt lat="48.67851" lon="6.59164">
        <ele>226</ele>
        <time>2020-09-03T10:52:49Z</time>
      </trkpt>
      <trkpt lat="48.67823" lon="6.59102">
        <ele>226</ele>
        <time>2020-09-03T10:52:57Z</time>
      </trkpt>
      <trkpt lat="48.67908" lon="6.5906">
        <ele>227</ele>
        <time>2020-09-03T10:53:13Z</time>
      </trkpt>
      <trkpt lat="48.67852" lon="6.58884">
        <ele>225</ele>
        <time>2020-09-03T10:53:36Z</time>
      </trkpt>
      <trkpt lat="48.67947" lon="6.5868">
        <ele>228</ele>
        <time>2020-09-03T10:54:06Z</time>
      </trkpt>
      <trkpt lat="48.67969" lon="6.5813">
        <ele>227</ele>
        <time>2020-09-03T10:55:10Z</time>
      </trkpt>
      <trkpt lat="48.6785" lon="6.57678">
        <ele>231</ele>
        <time>2020-09-03T10:56:07Z</time>
      </trkpt>
      <trkpt lat="48.67899" lon="6.57031">
        <ele>225</ele>
        <time>2020-09-03T10:57:24Z</time>
      </trkpt>
      <trkpt lat="48.67912" lon="6.57019">
        <ele>225</ele>
        <time>2020-09-03T10:57:27Z</time>
      </trkpt>
      <trkpt lat="48.67849" lon="6.56569">
        <ele>227</ele>
        <time>2020-09-03T10:58:21Z</time>
      </trkpt>
      <trkpt lat="48.67634" lon="6.55703">
        <ele>224</ele>
        <time>2020-09-03T11:00:09Z</time>
      </trkpt>
      <trkpt lat="48.67454" lon="6.55352">
        <ele>227</ele>
        <time>2020-09-03T11:01:02Z</time>
      </trkpt>
      <trkpt lat="48.674" lon="6.54903">
        <ele>223</ele>
        <time>2020-09-03T11:01:55Z</time>
      </trkpt>
      <trkpt lat="48.67741" lon="6.54563">
        <ele>234</ele>
        <time>2020-09-03T11:03:08Z</time>
      </trkpt>
      <trkpt lat="48.67696" lon="6.54036">
        <ele>237</ele>
        <time>2020-09-03T11:04:10Z</time>
      </trkpt>
      <trkpt lat="48.67786" lon="6.53817">
        <ele>240</ele>
        <time>2020-09-03T11:04:41Z</time>
      </trkpt>
      <trkpt lat="48.67328" lon="6.52676">
        <ele>248</ele>
        <time>2020-09-03T11:07:18Z</time>
      </trkpt>
      <trkpt lat="48.66888" lon="6.49891">
        <ele>253</ele>
        <time>2020-09-03T11:12:54Z</time>
      </trkpt>
      <trkpt lat="48.66178" lon="6.48103">
        <ele>253</ele>
        <time>2020-09-03T11:16:59Z</time>
      </trkpt>
      <trkpt lat="48.65541" lon="6.47434">
        <ele>226</ele>
        <time>2020-09-03T11:19:17Z</time>
      </trkpt>
      <trkpt lat="48.65325" lon="6.46557">
        <ele>221</ele>
        <time>2020-09-03T11:21:07Z</time>
      </trkpt>
      <trkpt lat="48.65127" lon="6.46382">
        <ele>219</ele>
        <time>2020-09-03T11:21:48Z</time>
      </trkpt>
      <trkpt lat="48.64507" lon="6.44452">
        <ele>221</ele>
        <time>2020-09-03T11:26:00Z</time>
      </trkpt>
      <trkpt lat="48.64481" lon="6.44013">
        <ele>226</ele>
        <time>2020-09-03T11:26:52Z</time>
      </trkpt>
      <trkpt lat="48.64319" lon="6.43541">
        <ele>227</ele>
        <time>2020-09-03T11:27:55Z</time>
      </trkpt>
      <trkpt lat="48.64157" lon="6.41831">
        <ele>234</ele>
        <time>2020-09-03T11:31:18Z</time>
      </trkpt>
      <trkpt lat="48.64355" lon="6.4103">
        <ele>218</ele>
        <time>2020-09-03T11:32:58Z</time>
      </trkpt>
      <trkpt lat="48.63744" lon="6.39692">
        <ele>218</ele>
        <time>2020-09-03T11:36:09Z</time>
      </trkpt>
      <trkpt lat="48.63385" lon="6.39319">
        <ele>211</ele>
        <time>2020-09-03T11:37:27Z</time>
      </trkpt>
      <trkpt lat="48.63205" lon="6.38348">
        <ele>215</ele>
        <time>2020-09-03T11:39:25Z</time>
      </trkpt>
      <trkpt lat="48.63151" lon="6.37119">
        <ele>209</ele>
        <time>2020-09-03T11:41:50Z</time>
      </trkpt>
      <trkpt lat="48.62729" lon="6.35595">
        <ele>209</ele>
        <time>2020-09-03T11:45:05Z</time>
      </trkpt>
      <trkpt lat="48.62576" lon="6.34674">
        <ele>213</ele>
        <time>2020-09-03T11:46:56Z</time>
      </trkpt>
      <trkpt lat="48.61786" lon="6.35219">
        <ele>213</ele>
        <time>2020-09-03T11:49:31Z</time>
      </trkpt>
      <trkpt lat="48.61193" lon="6.35318">
        <ele>222</ele>
        <time>2020-09-03T11:51:17Z</time>
      </trkpt>
      <trkpt lat="48.60672" lon="6.35208">
        <ele>210</ele>
        <time>2020-09-03T11:52:51Z</time>
      </trkpt>
      <trkpt lat="48.59908" lon="6.33717">
        <ele>206</ele>
        <time>2020-09-03T11:56:32Z</time>
      </trkpt>
      <trkpt lat="48.59573" lon="6.33302">
        <ele>209</ele>
        <time>2020-09-03T11:57:50Z</time>
      </trkpt>
      <trkpt lat="48.59142" lon="6.33324">
        <ele>209</ele>
        <time>2020-09-03T11:59:06Z</time>
      </trkpt>
      <trkpt lat="48.58109" lon="6.33083">
        <ele>221</ele>
        <time>2020-09-03T12:02:12Z</time>
      </trkpt>
      <trkpt lat="48.55764" lon="6.31427">
        <ele>341</ele>
        <time>2020-09-03T12:09:53Z</time>
      </trkpt>
      <trkpt lat="48.54066" lon="6.29124">
        <ele>310</ele>
        <time>2020-09-03T12:16:39Z</time>
      </trkpt>
      <trkpt lat="48.53509" lon="6.27633">
        <ele>278</ele>
        <time>2020-09-03T12:20:01Z</time>
      </trkpt>
      <trkpt lat="48.52934" lon="6.27457">
        <ele>235</ele>
        <time>2020-09-03T12:21:45Z</time>
      </trkpt>
      <trkpt lat="48.52323" lon="6.26712">
        <ele>238</ele>
        <time>2020-09-03T12:24:05Z</time>
      </trkpt>
      <trkpt lat="48.52282" lon="6.26584">
        <ele>240</ele>
        <time>2020-09-03T12:24:21Z</time>
      </trkpt>
      <trkpt lat="48.52372" lon="6.26463">
        <ele>248</ele>
        <time>2020-09-03T12:24:43Z</time>
      </trkpt>
      <trkpt lat="48.52552" lon="6.26452">
        <ele>242</ele>
        <time>2020-09-03T12:25:15Z</time>
      </trkpt>
      <trkpt lat="48.52444" lon="6.25992">
        <ele>250</ele>
        <time>2020-09-03T12:26:12Z</time>
      </trkpt>
      <trkpt lat="48.52255" lon="6.25718">
        <ele>252</ele>
        <time>2020-09-03T12:26:59Z</time>
      </trkpt>
      <trkpt lat="48.52165" lon="6.25279">
        <ele>249</ele>
        <time>2020-09-03T12:27:53Z</time>
      </trkpt>
      <trkpt lat="48.51303" lon="6.24391">
        <ele>295</ele>
        <time>2020-09-03T12:30:59Z</time>
      </trkpt>
      <trkpt lat="48.51312" lon="6.23765">
        <ele>313</ele>
        <time>2020-09-03T12:32:13Z</time>
      </trkpt>
      <trkpt lat="48.51491" lon="6.23371">
        <ele>322</ele>
        <time>2020-09-03T12:33:09Z</time>
      </trkpt>
      <trkpt lat="48.51258" lon="6.2257">
        <ele>322</ele>
        <time>2020-09-03T12:34:52Z</time>
      </trkpt>
      <trkpt lat="48.51438" lon="6.22318">
        <ele>313</ele>
        <time>2020-09-03T12:35:36Z</time>
      </trkpt>
      <trkpt lat="48.51321" lon="6.22066">
        <ele>299</ele>
        <time>2020-09-03T12:36:12Z</time>
      </trkpt>
      <trkpt lat="48.51483" lon="6.21079">
        <ele>281</ele>
        <time>2020-09-03T12:38:12Z</time>
      </trkpt>
      <trkpt lat="48.51851" lon="6.20245">
        <ele>277</ele>
        <time>2020-09-03T12:40:10Z</time>
      </trkpt>
      <trkpt lat="48.52219" lon="6.16692">
        <ele>264</ele>
        <time>2020-09-03T12:47:14Z</time>
      </trkpt>
      <trkpt lat="48.52345" lon="6.16703">
        <ele>252</ele>
        <time>2020-09-03T12:47:36Z</time>
      </trkpt>
      <trkpt lat="48.52255" lon="6.16462">
        <ele>247</ele>
        <time>2020-09-03T12:48:09Z</time>
      </trkpt>
      <trkpt lat="48.52408" lon="6.1621">
        <ele>235</ele>
        <time>2020-09-03T12:48:49Z</time>
      </trkpt>
      <trkpt lat="48.52381" lon="6.15903">
        <ele>229</ele>
        <time>2020-09-03T12:49:26Z</time>
      </trkpt>
      <trkpt lat="48.52219" lon="6.15782">
        <ele>230</ele>
        <time>2020-09-03T12:49:58Z</time>
      </trkpt>
      <trkpt lat="48.52066" lon="6.15387">
        <ele>244</ele>
        <time>2020-09-03T12:50:52Z</time>
      </trkpt>
      <trkpt lat="48.51869" lon="6.14192">
        <ele>271</ele>
        <time>2020-09-03T12:53:17Z</time>
      </trkpt>
      <trkpt lat="48.5124" lon="6.13051">
        <ele>269</ele>
        <time>2020-09-03T12:56:12Z</time>
      </trkpt>
      <trkpt lat="48.51042" lon="6.136">
        <ele>263</ele>
        <time>2020-09-03T12:57:26Z</time>
      </trkpt>
      <trkpt lat="48.50764" lon="6.13709">
        <ele>268</ele>
        <time>2020-09-03T12:58:17Z</time>
      </trkpt>
      <trkpt lat="48.50854" lon="6.13896">
        <ele>262</ele>
        <time>2020-09-03T12:58:44Z</time>
      </trkpt>
    </trkseg>
  </trk>
</gpx>